<?xml version='1.0' encoding='UTF-8'?><gpx version="1.1" creator="JPX - https://github.com/jenetics/jpx" xmlns="http://www.topografix.com/GPX/1/1"><trk><trkseg><trkpt lat="41.1957572" lon="15.0346312"><ele>563.0</ele><time>2026-04-19T07:57:38.544Z</time></trkpt><trkpt lat="41.1958196" lon="15.0346076"><ele>563.0</ele><time>2026-04-19T08:13:48.947Z</time></trkpt><trkpt lat="41.1958101" lon="15.0345232"><ele>563.0</ele><time>2026-04-19T08:15:31.966Z</time></trkpt><trkpt lat="41.1957642" lon="15.0344638"><ele>563.0</ele><time>2026-04-19T08:15:43.957Z</time></trkpt><trkpt lat="41.1957253" lon="15.0343944"><ele>563.0</ele><time>2026-04-19T08:15:51.963Z</time></trkpt><trkpt lat="41.1956746" lon="15.0343151"><ele>563.0</ele><time>2026-04-19T08:16:05.969Z</time></trkpt><trkpt lat="41.1956289" lon="15.034241"><ele>563.0</ele><time>2026-04-19T08:16:10.98Z</time></trkpt><trkpt lat="41.1955802" lon="15.0341711"><ele>563.8571428571429</ele><time>2026-04-19T08:16:17.92Z</time></trkpt><trkpt lat="41.1955388" lon="15.0340962"><ele>564.7142857142858</ele><time>2026-04-19T08:16:23.966Z</time></trkpt><trkpt lat="41.195496" lon="15.0340316"><ele>565.5714285714287</ele><time>2026-04-19T08:16:32.963Z</time></trkpt><trkpt lat="41.1954576" lon="15.0339649"><ele>566.4285714285714</ele><time>2026-04-19T08:16:36.963Z</time></trkpt><trkpt lat="41.1954291" lon="15.0338888"><ele>567.2857142857143</ele><time>2026-04-19T08:16:41.969Z</time></trkpt><trkpt lat="41.1953902" lon="15.033818"><ele>568.1428571428572</ele><time>2026-04-19T08:16:47.964Z</time></trkpt><trkpt lat="41.1953585" lon="15.0337433"><ele>569.0</ele><time>2026-04-19T08:16:53.965Z</time></trkpt><trkpt lat="41.1953577" lon="15.0336572"><ele>569.0000000000001</ele><time>2026-04-19T08:17:00.979Z</time></trkpt><trkpt lat="41.1953929" lon="15.0335736"><ele>569.0</ele><time>2026-04-19T08:17:09.88Z</time></trkpt><trkpt lat="41.1954147" lon="15.0334949"><ele>569.0</ele><time>2026-04-19T08:17:16.962Z</time></trkpt><trkpt lat="41.1954015" lon="15.033398"><ele>569.0</ele><time>2026-04-19T08:17:31.782Z</time></trkpt><trkpt lat="41.1953742" lon="15.0333175"><ele>569.0</ele><time>2026-04-19T08:17:35.601Z</time></trkpt><trkpt lat="41.1953161" lon="15.0332551"><ele>569.0000000000001</ele><time>2026-04-19T08:17:40.34Z</time></trkpt><trkpt lat="41.1952794" lon="15.0331836"><ele>569.0</ele><time>2026-04-19T08:17:45.518Z</time></trkpt><trkpt lat="41.1952472" lon="15.0330851"><ele>569.0</ele><time>2026-04-19T08:18:55.953Z</time></trkpt><trkpt lat="41.1952909" lon="15.0331642"><ele>569.0</ele><time>2026-04-19T08:21:42.952Z</time></trkpt><trkpt lat="41.1953566" lon="15.0332536"><ele>569.0</ele><time>2026-04-19T08:24:16.955Z</time></trkpt><trkpt lat="41.1953964" lon="15.0333223"><ele>569.0</ele><time>2026-04-19T08:25:04.964Z</time></trkpt><trkpt lat="41.1954457" lon="15.0334144"><ele>569.0</ele><time>2026-04-19T08:26:05.956Z</time></trkpt><trkpt lat="41.1955197" lon="15.0333677"><ele>569.0</ele><time>2026-04-19T08:26:10.966Z</time></trkpt><trkpt lat="41.1955131" lon="15.033196"><ele>568.75</ele><time>2026-04-19T08:26:13.958Z</time></trkpt><trkpt lat="41.1954447" lon="15.033055"><ele>568.5</ele><time>2026-04-19T08:26:14.959Z</time></trkpt><trkpt lat="41.1953666" lon="15.0329175"><ele>568.25</ele><time>2026-04-19T08:26:16.025Z</time></trkpt><trkpt lat="41.1952882" lon="15.0327896"><ele>568.0</ele><time>2026-04-19T08:26:17.03Z</time></trkpt><trkpt lat="41.1952071" lon="15.0326575"><ele>568.0</ele><time>2026-04-19T08:26:17.958Z</time></trkpt><trkpt lat="41.1951281" lon="15.0325315"><ele>568.0</ele><time>2026-04-19T08:26:18.946Z</time></trkpt><trkpt lat="41.1950513" lon="15.0324141"><ele>568.0</ele><time>2026-04-19T08:26:19.955Z</time></trkpt><trkpt lat="41.1949716" lon="15.0323011"><ele>568.0</ele><time>2026-04-19T08:26:20.947Z</time></trkpt><trkpt lat="41.194894" lon="15.0322036"><ele>570.5</ele><time>2026-04-19T08:26:21.949Z</time></trkpt><trkpt lat="41.194819" lon="15.032111"><ele>573.0</ele><time>2026-04-19T08:26:22.947Z</time></trkpt><trkpt lat="41.1947311" lon="15.0320169"><ele>575.5</ele><time>2026-04-19T08:26:23.99Z</time></trkpt><trkpt lat="41.1946316" lon="15.0319275"><ele>578.0</ele><time>2026-04-19T08:26:24.962Z</time></trkpt><trkpt lat="41.1945225" lon="15.0318255"><ele>578.0</ele><time>2026-04-19T08:26:25.948Z</time></trkpt><trkpt lat="41.1944103" lon="15.0317218"><ele>578.0</ele><time>2026-04-19T08:26:26.949Z</time></trkpt><trkpt lat="41.194302" lon="15.0316119"><ele>578.0</ele><time>2026-04-19T08:26:27.947Z</time></trkpt><trkpt lat="41.1941917" lon="15.0315104"><ele>578.0</ele><time>2026-04-19T08:26:28.945Z</time></trkpt><trkpt lat="41.1940945" lon="15.0314068"><ele>576.0</ele><time>2026-04-19T08:26:29.941Z</time></trkpt><trkpt lat="41.1940216" lon="15.0312993"><ele>574.0</ele><time>2026-04-19T08:26:30.954Z</time></trkpt><trkpt lat="41.1939652" lon="15.0311625"><ele>572.0</ele><time>2026-04-19T08:26:31.941Z</time></trkpt><trkpt lat="41.1939333" lon="15.0310026"><ele>570.0</ele><time>2026-04-19T08:26:32.947Z</time></trkpt><trkpt lat="41.1939044" lon="15.0308512"><ele>574.4</ele><time>2026-04-19T08:26:33.95Z</time></trkpt><trkpt lat="41.1938746" lon="15.0307117"><ele>578.8</ele><time>2026-04-19T08:26:34.949Z</time></trkpt><trkpt lat="41.1938413" lon="15.0305679"><ele>583.2</ele><time>2026-04-19T08:26:35.957Z</time></trkpt><trkpt lat="41.1937996" lon="15.0304389"><ele>587.6</ele><time>2026-04-19T08:26:36.943Z</time></trkpt><trkpt lat="41.1937467" lon="15.0303154"><ele>592.0</ele><time>2026-04-19T08:26:37.945Z</time></trkpt><trkpt lat="41.1936924" lon="15.0301898"><ele>592.0</ele><time>2026-04-19T08:26:38.95Z</time></trkpt><trkpt lat="41.1936457" lon="15.0300409"><ele>592.0</ele><time>2026-04-19T08:26:40.036Z</time></trkpt><trkpt lat="41.193603" lon="15.0298708"><ele>592.0</ele><time>2026-04-19T08:26:41.014Z</time></trkpt><trkpt lat="41.1935723" lon="15.0296781"><ele>592.0</ele><time>2026-04-19T08:26:42.027Z</time></trkpt><trkpt lat="41.1935385" lon="15.0294921"><ele>590.5</ele><time>2026-04-19T08:26:42.955Z</time></trkpt><trkpt lat="41.1935152" lon="15.0292992"><ele>589.0</ele><time>2026-04-19T08:26:43.953Z</time></trkpt><trkpt lat="41.193492" lon="15.0291035"><ele>587.5</ele><time>2026-04-19T08:26:44.945Z</time></trkpt><trkpt lat="41.1934687" lon="15.028912"><ele>586.0</ele><time>2026-04-19T08:26:46.027Z</time></trkpt><trkpt lat="41.193447" lon="15.0287163"><ele>584.5</ele><time>2026-04-19T08:26:47.031Z</time></trkpt><trkpt lat="41.1934302" lon="15.0285219"><ele>583.0</ele><time>2026-04-19T08:26:47.946Z</time></trkpt><trkpt lat="41.1934097" lon="15.0283272"><ele>581.5</ele><time>2026-04-19T08:26:48.946Z</time></trkpt><trkpt lat="41.1933815" lon="15.0281445"><ele>580.0</ele><time>2026-04-19T08:26:49.95Z</time></trkpt><trkpt lat="41.1933491" lon="15.0279609"><ele>577.25</ele><time>2026-04-19T08:26:51.035Z</time></trkpt><trkpt lat="41.1933104" lon="15.0277828"><ele>574.5</ele><time>2026-04-19T08:26:52.021Z</time></trkpt><trkpt lat="41.193269" lon="15.0276039"><ele>571.75</ele><time>2026-04-19T08:26:52.954Z</time></trkpt><trkpt lat="41.1932303" lon="15.0274424"><ele>569.0</ele><time>2026-04-19T08:26:54.019Z</time></trkpt><trkpt lat="41.1932018" lon="15.0273086"><ele>569.4</ele><time>2026-04-19T08:26:54.95Z</time></trkpt><trkpt lat="41.1931582" lon="15.0271898"><ele>569.8</ele><time>2026-04-19T08:26:55.95Z</time></trkpt><trkpt lat="41.1930944" lon="15.0270804"><ele>570.2</ele><time>2026-04-19T08:26:56.964Z</time></trkpt><trkpt lat="41.1930182" lon="15.0269701"><ele>570.6</ele><time>2026-04-19T08:26:57.952Z</time></trkpt><trkpt lat="41.1929535" lon="15.0268515"><ele>571.0</ele><time>2026-04-19T08:26:58.961Z</time></trkpt><trkpt lat="41.1929021" lon="15.0267194"><ele>568.8</ele><time>2026-04-19T08:26:59.953Z</time></trkpt><trkpt lat="41.1928593" lon="15.0265737"><ele>566.6</ele><time>2026-04-19T08:27:00.96Z</time></trkpt><trkpt lat="41.1928057" lon="15.0264344"><ele>564.4</ele><time>2026-04-19T08:27:01.953Z</time></trkpt><trkpt lat="41.1927482" lon="15.0263256"><ele>562.2</ele><time>2026-04-19T08:27:02.951Z</time></trkpt><trkpt lat="41.1926765" lon="15.0262248"><ele>560.0</ele><time>2026-04-19T08:27:03.955Z</time></trkpt><trkpt lat="41.1925929" lon="15.0261322"><ele>560.0</ele><time>2026-04-19T08:27:04.945Z</time></trkpt><trkpt lat="41.1925121" lon="15.0260372"><ele>560.0</ele><time>2026-04-19T08:27:05.955Z</time></trkpt><trkpt lat="41.1924518" lon="15.0259447"><ele>560.0</ele><time>2026-04-19T08:27:06.956Z</time></trkpt><trkpt lat="41.1924075" lon="15.0258613"><ele>560.0</ele><time>2026-04-19T08:27:07.952Z</time></trkpt><trkpt lat="41.1923822" lon="15.0257673"><ele>560.0</ele><time>2026-04-19T08:27:08.954Z</time></trkpt><trkpt lat="41.1923717" lon="15.0256808"><ele>560.0</ele><time>2026-04-19T08:27:09.95Z</time></trkpt><trkpt lat="41.19239" lon="15.0255785"><ele>558.6666666666666</ele><time>2026-04-19T08:27:10.959Z</time></trkpt><trkpt lat="41.1924246" lon="15.025476"><ele>557.3333333333333</ele><time>2026-04-19T08:27:11.956Z</time></trkpt><trkpt lat="41.1924654" lon="15.0253779"><ele>556.0</ele><time>2026-04-19T08:27:12.957Z</time></trkpt><trkpt lat="41.1924945" lon="15.0252956"><ele>554.6666666666666</ele><time>2026-04-19T08:27:13.953Z</time></trkpt><trkpt lat="41.1925189" lon="15.0252109"><ele>553.3333333333334</ele><time>2026-04-19T08:27:14.952Z</time></trkpt><trkpt lat="41.1925382" lon="15.0251195"><ele>552.0</ele><time>2026-04-19T08:27:16.029Z</time></trkpt><trkpt lat="41.1925212" lon="15.0250076"><ele>552.0</ele><time>2026-04-19T08:27:17.958Z</time></trkpt><trkpt lat="41.1924309" lon="15.0250067"><ele>552.0</ele><time>2026-04-19T08:27:19.957Z</time></trkpt><trkpt lat="41.1923515" lon="15.0250514"><ele>552.0</ele><time>2026-04-19T08:27:20.95Z</time></trkpt><trkpt lat="41.1922867" lon="15.0251191"><ele>552.0</ele><time>2026-04-19T08:27:22.021Z</time></trkpt><trkpt lat="41.1921803" lon="15.0251509"><ele>552.0</ele><time>2026-04-19T08:27:22.954Z</time></trkpt><trkpt lat="41.1920597" lon="15.0251542"><ele>548.75</ele><time>2026-04-19T08:27:23.951Z</time></trkpt><trkpt lat="41.1919386" lon="15.0251524"><ele>545.5</ele><time>2026-04-19T08:27:24.954Z</time></trkpt><trkpt lat="41.1918125" lon="15.0251398"><ele>542.25</ele><time>2026-04-19T08:27:26.03Z</time></trkpt><trkpt lat="41.1916875" lon="15.0251258"><ele>539.0</ele><time>2026-04-19T08:27:27.025Z</time></trkpt><trkpt lat="41.1915668" lon="15.0251127"><ele>532.5</ele><time>2026-04-19T08:27:27.961Z</time></trkpt><trkpt lat="41.1914517" lon="15.0251136"><ele>526.0</ele><time>2026-04-19T08:27:28.961Z</time></trkpt><trkpt lat="41.1913377" lon="15.0251089"><ele>519.5</ele><time>2026-04-19T08:27:30Z</time></trkpt><trkpt lat="41.1912228" lon="15.0251032"><ele>513.0</ele><time>2026-04-19T08:27:31.037Z</time></trkpt><trkpt lat="41.1911171" lon="15.0250997"><ele>513.0</ele><time>2026-04-19T08:27:32.03Z</time></trkpt><trkpt lat="41.1910212" lon="15.025101"><ele>513.0</ele><time>2026-04-19T08:27:32.948Z</time></trkpt><trkpt lat="41.1909308" lon="15.0250998"><ele>513.0</ele><time>2026-04-19T08:27:33.95Z</time></trkpt><trkpt lat="41.1908459" lon="15.0250869"><ele>513.0</ele><time>2026-04-19T08:27:35.029Z</time></trkpt><trkpt lat="41.1907609" lon="15.025056"><ele>513.0</ele><time>2026-04-19T08:27:36.015Z</time></trkpt><trkpt lat="41.1906824" lon="15.0250173"><ele>513.0</ele><time>2026-04-19T08:27:36.976Z</time></trkpt><trkpt lat="41.1906108" lon="15.0249794"><ele>509.28571428571433</ele><time>2026-04-19T08:27:37.945Z</time></trkpt><trkpt lat="41.1905424" lon="15.0249564"><ele>505.57142857142856</ele><time>2026-04-19T08:27:38.944Z</time></trkpt><trkpt lat="41.1904754" lon="15.0249633"><ele>501.8571428571429</ele><time>2026-04-19T08:27:39.969Z</time></trkpt><trkpt lat="41.190413" lon="15.0250167"><ele>498.14285714285717</ele><time>2026-04-19T08:27:40.965Z</time></trkpt><trkpt lat="41.1903606" lon="15.0250829"><ele>494.42857142857144</ele><time>2026-04-19T08:27:41.944Z</time></trkpt><trkpt lat="41.1903207" lon="15.025155"><ele>490.7142857142857</ele><time>2026-04-19T08:27:42.946Z</time></trkpt><trkpt lat="41.1902928" lon="15.0252328"><ele>487.0</ele><time>2026-04-19T08:27:43.944Z</time></trkpt><trkpt lat="41.1902943" lon="15.0254076"><ele>487.0</ele><time>2026-04-19T08:27:45.959Z</time></trkpt><trkpt lat="41.1903258" lon="15.0255062"><ele>487.00000000000006</ele><time>2026-04-19T08:27:46.95Z</time></trkpt><trkpt lat="41.1903765" lon="15.0256147"><ele>487.00000000000006</ele><time>2026-04-19T08:27:47.945Z</time></trkpt><trkpt lat="41.1904388" lon="15.0257363"><ele>487.0</ele><time>2026-04-19T08:27:48.952Z</time></trkpt><trkpt lat="41.1904981" lon="15.025883"><ele>487.0</ele><time>2026-04-19T08:27:49.948Z</time></trkpt><trkpt lat="41.1905544" lon="15.0260472"><ele>486.25</ele><time>2026-04-19T08:27:50.942Z</time></trkpt><trkpt lat="41.1905915" lon="15.0262261"><ele>485.5</ele><time>2026-04-19T08:27:51.952Z</time></trkpt><trkpt lat="41.1906179" lon="15.0264098"><ele>484.75</ele><time>2026-04-19T08:27:52.947Z</time></trkpt><trkpt lat="41.19064" lon="15.0265993"><ele>484.0</ele><time>2026-04-19T08:27:53.95Z</time></trkpt><trkpt lat="41.1906597" lon="15.0267773"><ele>485.5</ele><time>2026-04-19T08:27:55.03Z</time></trkpt><trkpt lat="41.190679" lon="15.0269504"><ele>487.0</ele><time>2026-04-19T08:27:56.03Z</time></trkpt><trkpt lat="41.1906847" lon="15.0271183"><ele>488.5</ele><time>2026-04-19T08:27:57.034Z</time></trkpt><trkpt lat="41.1906728" lon="15.0272771"><ele>490.0</ele><time>2026-04-19T08:27:57.966Z</time></trkpt><trkpt lat="41.1906604" lon="15.0274267"><ele>490.6</ele><time>2026-04-19T08:27:58.956Z</time></trkpt><trkpt lat="41.1906656" lon="15.0275601"><ele>491.2</ele><time>2026-04-19T08:27:59.955Z</time></trkpt><trkpt lat="41.1907024" lon="15.0276845"><ele>491.79999999999995</ele><time>2026-04-19T08:28:00.955Z</time></trkpt><trkpt lat="41.1907556" lon="15.0278068"><ele>492.4</ele><time>2026-04-19T08:28:01.953Z</time></trkpt><trkpt lat="41.1908181" lon="15.0279364"><ele>493.0</ele><time>2026-04-19T08:28:02.957Z</time></trkpt><trkpt lat="41.1908759" lon="15.0280624"><ele>497.83333333333337</ele><time>2026-04-19T08:28:03.951Z</time></trkpt><trkpt lat="41.190925" lon="15.0281824"><ele>502.6666666666667</ele><time>2026-04-19T08:28:05.03Z</time></trkpt><trkpt lat="41.1909695" lon="15.0283029"><ele>507.5</ele><time>2026-04-19T08:28:06.028Z</time></trkpt><trkpt lat="41.1910123" lon="15.0284014"><ele>512.3333333333334</ele><time>2026-04-19T08:28:06.985Z</time></trkpt><trkpt lat="41.1910592" lon="15.0284836"><ele>517.1666666666666</ele><time>2026-04-19T08:28:07.946Z</time></trkpt><trkpt lat="41.191051" lon="15.0285873"><ele>522.0</ele><time>2026-04-19T08:28:10.955Z</time></trkpt><trkpt lat="41.1909254" lon="15.028516"><ele>522.0</ele><time>2026-04-19T08:28:12.961Z</time></trkpt><trkpt lat="41.1908577" lon="15.0284476"><ele>522.0</ele><time>2026-04-19T08:28:14.029Z</time></trkpt><trkpt lat="41.190789" lon="15.028365"><ele>522.0</ele><time>2026-04-19T08:28:15.028Z</time></trkpt><trkpt lat="41.1907214" lon="15.028263"><ele>522.0</ele><time>2026-04-19T08:28:16.024Z</time></trkpt><trkpt lat="41.190661" lon="15.0281444"><ele>522.0</ele><time>2026-04-19T08:28:16.956Z</time></trkpt><trkpt lat="41.1905958" lon="15.0280377"><ele>516.2</ele><time>2026-04-19T08:28:17.959Z</time></trkpt><trkpt lat="41.1905313" lon="15.0279372"><ele>510.40000000000003</ele><time>2026-04-19T08:28:18.96Z</time></trkpt><trkpt lat="41.1904627" lon="15.0278535"><ele>504.59999999999997</ele><time>2026-04-19T08:28:19.959Z</time></trkpt><trkpt lat="41.1903767" lon="15.0277797"><ele>498.79999999999995</ele><time>2026-04-19T08:28:20.961Z</time></trkpt><trkpt lat="41.1902803" lon="15.0277034"><ele>493.0</ele><time>2026-04-19T08:28:21.965Z</time></trkpt><trkpt lat="41.1901821" lon="15.0276296"><ele>493.0</ele><time>2026-04-19T08:28:22.961Z</time></trkpt><trkpt lat="41.1900853" lon="15.0275523"><ele>492.99999999999994</ele><time>2026-04-19T08:28:24.028Z</time></trkpt><trkpt lat="41.1899831" lon="15.0274888"><ele>492.99999999999994</ele><time>2026-04-19T08:28:25.026Z</time></trkpt><trkpt lat="41.1898884" lon="15.0274272"><ele>493.0</ele><time>2026-04-19T08:28:25.943Z</time></trkpt><trkpt lat="41.1897852" lon="15.0273679"><ele>493.0</ele><time>2026-04-19T08:28:26.944Z</time></trkpt><trkpt lat="41.1896772" lon="15.027316"><ele>488.25</ele><time>2026-04-19T08:28:27.944Z</time></trkpt><trkpt lat="41.189563" lon="15.0272568"><ele>483.5</ele><time>2026-04-19T08:28:28.945Z</time></trkpt><trkpt lat="41.189447" lon="15.0271975"><ele>478.75</ele><time>2026-04-19T08:28:29.944Z</time></trkpt><trkpt lat="41.1893301" lon="15.0271454"><ele>474.0</ele><time>2026-04-19T08:28:31.031Z</time></trkpt><trkpt lat="41.1892098" lon="15.0270909"><ele>474.0</ele><time>2026-04-19T08:28:32.032Z</time></trkpt><trkpt lat="41.1890995" lon="15.0270317"><ele>474.0</ele><time>2026-04-19T08:28:32.948Z</time></trkpt><trkpt lat="41.1889928" lon="15.0269732"><ele>474.0</ele><time>2026-04-19T08:28:33.951Z</time></trkpt><trkpt lat="41.1888896" lon="15.0269168"><ele>474.0</ele><time>2026-04-19T08:28:34.965Z</time></trkpt><trkpt lat="41.1887972" lon="15.0268691"><ele>474.0</ele><time>2026-04-19T08:28:35.977Z</time></trkpt><trkpt lat="41.1887026" lon="15.026822"><ele>473.2</ele><time>2026-04-19T08:28:36.977Z</time></trkpt><trkpt lat="41.1886155" lon="15.0267824"><ele>472.4</ele><time>2026-04-19T08:28:37.948Z</time></trkpt><trkpt lat="41.1885225" lon="15.0267484"><ele>471.6</ele><time>2026-04-19T08:28:39.036Z</time></trkpt><trkpt lat="41.1884376" lon="15.026706"><ele>470.8</ele><time>2026-04-19T08:28:39.99Z</time></trkpt><trkpt lat="41.1883592" lon="15.0266639"><ele>470.0</ele><time>2026-04-19T08:28:40.987Z</time></trkpt><trkpt lat="41.1882752" lon="15.0266132"><ele>467.0</ele><time>2026-04-19T08:28:41.992Z</time></trkpt><trkpt lat="41.1881976" lon="15.0265572"><ele>464.0</ele><time>2026-04-19T08:28:42.974Z</time></trkpt><trkpt lat="41.1881287" lon="15.0264999"><ele>461.0</ele><time>2026-04-19T08:28:43.959Z</time></trkpt><trkpt lat="41.1880583" lon="15.0264272"><ele>458.0</ele><time>2026-04-19T08:28:44.961Z</time></trkpt><trkpt lat="41.1879806" lon="15.0263387"><ele>455.0</ele><time>2026-04-19T08:28:46.03Z</time></trkpt><trkpt lat="41.1879021" lon="15.0262479"><ele>452.8</ele><time>2026-04-19T08:28:46.957Z</time></trkpt><trkpt lat="41.1878255" lon="15.0261766"><ele>450.6</ele><time>2026-04-19T08:28:47.955Z</time></trkpt><trkpt lat="41.1877448" lon="15.0261128"><ele>448.4</ele><time>2026-04-19T08:28:48.965Z</time></trkpt><trkpt lat="41.1876618" lon="15.0260568"><ele>446.2</ele><time>2026-04-19T08:28:50.033Z</time></trkpt><trkpt lat="41.1875757" lon="15.0260122"><ele>444.0</ele><time>2026-04-19T08:28:51.031Z</time></trkpt><trkpt lat="41.1874841" lon="15.0259649"><ele>444.0</ele><time>2026-04-19T08:28:52.031Z</time></trkpt><trkpt lat="41.187383" lon="15.0259191"><ele>444.0</ele><time>2026-04-19T08:28:52.948Z</time></trkpt><trkpt lat="41.1872828" lon="15.0258864"><ele>444.0</ele><time>2026-04-19T08:28:54.031Z</time></trkpt><trkpt lat="41.1871945" lon="15.0258602"><ele>444.0</ele><time>2026-04-19T08:28:55.028Z</time></trkpt><trkpt lat="41.1871187" lon="15.0258338"><ele>444.0</ele><time>2026-04-19T08:28:56.038Z</time></trkpt><trkpt lat="41.1870339" lon="15.0257932"><ele>437.4</ele><time>2026-04-19T08:28:57.061Z</time></trkpt><trkpt lat="41.1869447" lon="15.0257448"><ele>430.79999999999995</ele><time>2026-04-19T08:28:57.953Z</time></trkpt><trkpt lat="41.1868658" lon="15.0256854"><ele>424.20000000000005</ele><time>2026-04-19T08:28:58.95Z</time></trkpt><trkpt lat="41.1867851" lon="15.0256299"><ele>417.6</ele><time>2026-04-19T08:28:59.948Z</time></trkpt><trkpt lat="41.1867059" lon="15.0255627"><ele>411.0</ele><time>2026-04-19T08:29:00.943Z</time></trkpt><trkpt lat="41.1866199" lon="15.0254901"><ele>411.0</ele><time>2026-04-19T08:29:01.944Z</time></trkpt><trkpt lat="41.1865311" lon="15.0254272"><ele>411.0</ele><time>2026-04-19T08:29:02.945Z</time></trkpt><trkpt lat="41.1864333" lon="15.0253838"><ele>411.0</ele><time>2026-04-19T08:29:03.939Z</time></trkpt><trkpt lat="41.1863408" lon="15.0253364"><ele>411.0</ele><time>2026-04-19T08:29:04.943Z</time></trkpt><trkpt lat="41.1862581" lon="15.0252959"><ele>411.0</ele><time>2026-04-19T08:29:05.943Z</time></trkpt><trkpt lat="41.1861525" lon="15.0252491"><ele>407.4</ele><time>2026-04-19T08:29:06.942Z</time></trkpt><trkpt lat="41.1860432" lon="15.0252054"><ele>403.8</ele><time>2026-04-19T08:29:07.95Z</time></trkpt><trkpt lat="41.185939" lon="15.0251652"><ele>400.2</ele><time>2026-04-19T08:29:08.948Z</time></trkpt><trkpt lat="41.1858443" lon="15.0251263"><ele>396.59999999999997</ele><time>2026-04-19T08:29:09.952Z</time></trkpt><trkpt lat="41.1857615" lon="15.0250925"><ele>393.0</ele><time>2026-04-19T08:29:10.941Z</time></trkpt><trkpt lat="41.1856756" lon="15.0250483"><ele>388.3333333333333</ele><time>2026-04-19T08:29:11.949Z</time></trkpt><trkpt lat="41.185598" lon="15.0250196"><ele>383.6666666666667</ele><time>2026-04-19T08:29:12.944Z</time></trkpt><trkpt lat="41.1855276" lon="15.0249914"><ele>379.0</ele><time>2026-04-19T08:29:13.946Z</time></trkpt><trkpt lat="41.185457" lon="15.0249478"><ele>374.33333333333337</ele><time>2026-04-19T08:29:14.945Z</time></trkpt><trkpt lat="41.1853788" lon="15.0249046"><ele>369.6666666666667</ele><time>2026-04-19T08:29:15.938Z</time></trkpt><trkpt lat="41.1852859" lon="15.0248681"><ele>365.0</ele><time>2026-04-19T08:29:16.941Z</time></trkpt><trkpt lat="41.1851924" lon="15.0248421"><ele>365.0</ele><time>2026-04-19T08:29:17.951Z</time></trkpt><trkpt lat="41.1850937" lon="15.0248429"><ele>365.0</ele><time>2026-04-19T08:29:18.95Z</time></trkpt><trkpt lat="41.1849859" lon="15.0248578"><ele>365.0</ele><time>2026-04-19T08:29:19.949Z</time></trkpt><trkpt lat="41.184902" lon="15.024881"><ele>365.0</ele><time>2026-04-19T08:29:20.952Z</time></trkpt><trkpt lat="41.1848394" lon="15.0248934"><ele>365.0</ele><time>2026-04-19T08:29:21.951Z</time></trkpt><trkpt lat="41.1847577" lon="15.0249084"><ele>365.0</ele><time>2026-04-19T08:29:22.948Z</time></trkpt><trkpt lat="41.1846626" lon="15.0249189"><ele>360.83333333333337</ele><time>2026-04-19T08:29:24.056Z</time></trkpt><trkpt lat="41.1845674" lon="15.0249324"><ele>356.6666666666667</ele><time>2026-04-19T08:29:25.018Z</time></trkpt><trkpt lat="41.1844851" lon="15.0249545"><ele>352.5</ele><time>2026-04-19T08:29:26.007Z</time></trkpt><trkpt lat="41.1843986" lon="15.0249654"><ele>348.3333333333333</ele><time>2026-04-19T08:29:26.952Z</time></trkpt><trkpt lat="41.1843084" lon="15.0249691"><ele>344.16666666666663</ele><time>2026-04-19T08:29:27.947Z</time></trkpt><trkpt lat="41.1842254" lon="15.0249641"><ele>340.0</ele><time>2026-04-19T08:29:28.947Z</time></trkpt><trkpt lat="41.1841559" lon="15.0249443"><ele>340.0</ele><time>2026-04-19T08:29:29.952Z</time></trkpt><trkpt lat="41.1840812" lon="15.0249038"><ele>340.0</ele><time>2026-04-19T08:29:31.028Z</time></trkpt><trkpt lat="41.1839929" lon="15.0248456"><ele>340.0</ele><time>2026-04-19T08:29:32.036Z</time></trkpt><trkpt lat="41.1838989" lon="15.0248153"><ele>340.0</ele><time>2026-04-19T08:29:32.946Z</time></trkpt><trkpt lat="41.1838035" lon="15.0247925"><ele>340.0</ele><time>2026-04-19T08:29:33.952Z</time></trkpt><trkpt lat="41.1837096" lon="15.0247722"><ele>337.6</ele><time>2026-04-19T08:29:34.958Z</time></trkpt><trkpt lat="41.1836408" lon="15.0247294"><ele>335.2</ele><time>2026-04-19T08:29:36.077Z</time></trkpt><trkpt lat="41.1834878" lon="15.0246053"><ele>332.79999999999995</ele><time>2026-04-19T08:29:37.948Z</time></trkpt><trkpt lat="41.1834108" lon="15.0245381"><ele>330.4</ele><time>2026-04-19T08:29:39.024Z</time></trkpt><trkpt lat="41.1833601" lon="15.024485"><ele>328.0</ele><time>2026-04-19T08:29:39.95Z</time></trkpt><trkpt lat="41.1832492" lon="15.0244655"><ele>328.0</ele><time>2026-04-19T08:29:41.947Z</time></trkpt><trkpt lat="41.1831841" lon="15.0244632"><ele>328.0</ele><time>2026-04-19T08:29:42.948Z</time></trkpt><trkpt lat="41.1830749" lon="15.0244089"><ele>328.0</ele><time>2026-04-19T08:29:45.03Z</time></trkpt><trkpt lat="41.1830279" lon="15.0242632"><ele>328.0</ele><time>2026-04-19T08:29:47.009Z</time></trkpt><trkpt lat="41.1829446" lon="15.0241638"><ele>328.0</ele><time>2026-04-19T08:29:48.949Z</time></trkpt><trkpt lat="41.1828696" lon="15.0241438"><ele>329.59999999999997</ele><time>2026-04-19T08:29:49.947Z</time></trkpt><trkpt lat="41.1827838" lon="15.0241569"><ele>331.2</ele><time>2026-04-19T08:29:50.944Z</time></trkpt><trkpt lat="41.1826952" lon="15.0241759"><ele>332.8</ele><time>2026-04-19T08:29:51.949Z</time></trkpt><trkpt lat="41.182601" lon="15.024217"><ele>334.4</ele><time>2026-04-19T08:29:52.948Z</time></trkpt><trkpt lat="41.1825054" lon="15.0242801"><ele>336.0</ele><time>2026-04-19T08:29:53.948Z</time></trkpt><trkpt lat="41.1824301" lon="15.0242938"><ele>337.8</ele><time>2026-04-19T08:29:54.946Z</time></trkpt><trkpt lat="41.1823427" lon="15.0243015"><ele>339.6</ele><time>2026-04-19T08:29:55.947Z</time></trkpt><trkpt lat="41.1822255" lon="15.0242809"><ele>341.4</ele><time>2026-04-19T08:29:56.947Z</time></trkpt><trkpt lat="41.1821231" lon="15.0242625"><ele>343.2</ele><time>2026-04-19T08:29:57.946Z</time></trkpt><trkpt lat="41.1820074" lon="15.0242122"><ele>345.0</ele><time>2026-04-19T08:29:58.95Z</time></trkpt><trkpt lat="41.1819112" lon="15.0241643"><ele>346.5</ele><time>2026-04-19T08:29:59.948Z</time></trkpt><trkpt lat="41.1818202" lon="15.0241282"><ele>348.0</ele><time>2026-04-19T08:30:00.948Z</time></trkpt><trkpt lat="41.181741" lon="15.0240841"><ele>349.5</ele><time>2026-04-19T08:30:01.955Z</time></trkpt><trkpt lat="41.1816615" lon="15.0240669"><ele>351.0</ele><time>2026-04-19T08:30:02.976Z</time></trkpt><trkpt lat="41.1815909" lon="15.0240752"><ele>352.5</ele><time>2026-04-19T08:30:03.949Z</time></trkpt><trkpt lat="41.1815197" lon="15.0241265"><ele>354.0</ele><time>2026-04-19T08:30:04.95Z</time></trkpt><trkpt lat="41.1814382" lon="15.0241688"><ele>354.0</ele><time>2026-04-19T08:30:05.952Z</time></trkpt><trkpt lat="41.1813371" lon="15.0241784"><ele>354.0</ele><time>2026-04-19T08:30:06.95Z</time></trkpt><trkpt lat="41.1812486" lon="15.0241758"><ele>354.0</ele><time>2026-04-19T08:30:07.958Z</time></trkpt><trkpt lat="41.1811859" lon="15.0241484"><ele>354.0</ele><time>2026-04-19T08:30:08.952Z</time></trkpt><trkpt lat="41.1811156" lon="15.0240102"><ele>354.0</ele><time>2026-04-19T08:30:10.953Z</time></trkpt><trkpt lat="41.1810969" lon="15.0239042"><ele>356.6</ele><time>2026-04-19T08:30:12.03Z</time></trkpt><trkpt lat="41.1810732" lon="15.0237787"><ele>359.2</ele><time>2026-04-19T08:30:12.956Z</time></trkpt><trkpt lat="41.1810335" lon="15.0236672"><ele>361.8</ele><time>2026-04-19T08:30:13.96Z</time></trkpt><trkpt lat="41.1809892" lon="15.0235345"><ele>364.40000000000003</ele><time>2026-04-19T08:30:14.986Z</time></trkpt><trkpt lat="41.1809557" lon="15.0233934"><ele>367.0</ele><time>2026-04-19T08:30:16.025Z</time></trkpt><trkpt lat="41.1809589" lon="15.0232912"><ele>369.40000000000003</ele><time>2026-04-19T08:30:16.968Z</time></trkpt><trkpt lat="41.1810302" lon="15.0232138"><ele>371.8</ele><time>2026-04-19T08:30:18.965Z</time></trkpt><trkpt lat="41.1811084" lon="15.0232116"><ele>374.2</ele><time>2026-04-19T08:30:20.031Z</time></trkpt><trkpt lat="41.1811998" lon="15.0232182"><ele>376.6</ele><time>2026-04-19T08:30:21.028Z</time></trkpt><trkpt lat="41.1812962" lon="15.0232251"><ele>379.0</ele><time>2026-04-19T08:30:22.03Z</time></trkpt><trkpt lat="41.1813874" lon="15.0232274"><ele>379.0</ele><time>2026-04-19T08:30:22.953Z</time></trkpt><trkpt lat="41.1814755" lon="15.0232289"><ele>379.0</ele><time>2026-04-19T08:30:23.953Z</time></trkpt><trkpt lat="41.1815638" lon="15.0232549"><ele>379.0</ele><time>2026-04-19T08:30:24.984Z</time></trkpt><trkpt lat="41.181643" lon="15.0232754"><ele>379.0</ele><time>2026-04-19T08:30:25.972Z</time></trkpt><trkpt lat="41.1817414" lon="15.0232938"><ele>379.0</ele><time>2026-04-19T08:30:27.952Z</time></trkpt><trkpt lat="41.1817323" lon="15.0231444"><ele>377.79999999999995</ele><time>2026-04-19T08:30:30.957Z</time></trkpt><trkpt lat="41.1816866" lon="15.0230452"><ele>376.59999999999997</ele><time>2026-04-19T08:30:31.965Z</time></trkpt><trkpt lat="41.1816575" lon="15.0229314"><ele>375.4</ele><time>2026-04-19T08:30:32.949Z</time></trkpt><trkpt lat="41.1816229" lon="15.0227995"><ele>374.2</ele><time>2026-04-19T08:30:33.947Z</time></trkpt><trkpt lat="41.181573" lon="15.0226462"><ele>373.0</ele><time>2026-04-19T08:30:34.953Z</time></trkpt><trkpt lat="41.1815155" lon="15.0225137"><ele>377.59999999999997</ele><time>2026-04-19T08:30:35.947Z</time></trkpt><trkpt lat="41.1814518" lon="15.0223944"><ele>382.2</ele><time>2026-04-19T08:30:36.951Z</time></trkpt><trkpt lat="41.1813752" lon="15.0222886"><ele>386.8</ele><time>2026-04-19T08:30:37.954Z</time></trkpt><trkpt lat="41.181299" lon="15.022193"><ele>391.4</ele><time>2026-04-19T08:30:38.945Z</time></trkpt><trkpt lat="41.1812209" lon="15.0221062"><ele>396.0</ele><time>2026-04-19T08:30:39.949Z</time></trkpt><trkpt lat="41.18115" lon="15.0220144"><ele>396.0</ele><time>2026-04-19T08:30:40.956Z</time></trkpt><trkpt lat="41.1810934" lon="15.021906"><ele>396.0</ele><time>2026-04-19T08:30:41.952Z</time></trkpt><trkpt lat="41.1810485" lon="15.0217789"><ele>396.0</ele><time>2026-04-19T08:30:42.947Z</time></trkpt><trkpt lat="41.1810052" lon="15.0216554"><ele>396.0</ele><time>2026-04-19T08:30:43.948Z</time></trkpt><trkpt lat="41.1809603" lon="15.0215204"><ele>396.0</ele><time>2026-04-19T08:30:44.947Z</time></trkpt><trkpt lat="41.1809054" lon="15.0213745"><ele>399.4</ele><time>2026-04-19T08:30:45.951Z</time></trkpt><trkpt lat="41.1808587" lon="15.0212514"><ele>402.8</ele><time>2026-04-19T08:30:46.953Z</time></trkpt><trkpt lat="41.1808336" lon="15.0211511"><ele>406.2</ele><time>2026-04-19T08:30:47.947Z</time></trkpt><trkpt lat="41.1808017" lon="15.0210581"><ele>409.59999999999997</ele><time>2026-04-19T08:30:48.947Z</time></trkpt><trkpt lat="41.1807506" lon="15.0209562"><ele>413.0</ele><time>2026-04-19T08:30:49.948Z</time></trkpt><trkpt lat="41.1806877" lon="15.0208493"><ele>415.79999999999995</ele><time>2026-04-19T08:30:50.953Z</time></trkpt><trkpt lat="41.1806253" lon="15.0207523"><ele>418.6</ele><time>2026-04-19T08:30:51.947Z</time></trkpt><trkpt lat="41.1805601" lon="15.0206561"><ele>421.40000000000003</ele><time>2026-04-19T08:30:52.95Z</time></trkpt><trkpt lat="41.180492" lon="15.0205577"><ele>424.20000000000005</ele><time>2026-04-19T08:30:53.946Z</time></trkpt><trkpt lat="41.1804179" lon="15.0204492"><ele>427.0</ele><time>2026-04-19T08:30:54.949Z</time></trkpt><trkpt lat="41.1803535" lon="15.0203421"><ele>427.0</ele><time>2026-04-19T08:30:56.031Z</time></trkpt><trkpt lat="41.1802961" lon="15.0202382"><ele>427.00000000000006</ele><time>2026-04-19T08:30:57.027Z</time></trkpt><trkpt lat="41.1802384" lon="15.0201369"><ele>427.00000000000006</ele><time>2026-04-19T08:30:57.943Z</time></trkpt><trkpt lat="41.1801726" lon="15.0200358"><ele>427.0</ele><time>2026-04-19T08:30:58.946Z</time></trkpt><trkpt lat="41.1801003" lon="15.0199402"><ele>427.0</ele><time>2026-04-19T08:30:59.963Z</time></trkpt><trkpt lat="41.1800272" lon="15.0198417"><ele>427.40000000000003</ele><time>2026-04-19T08:31:01.028Z</time></trkpt><trkpt lat="41.1799549" lon="15.0197431"><ele>427.80000000000007</ele><time>2026-04-19T08:31:01.949Z</time></trkpt><trkpt lat="41.179873" lon="15.0196276"><ele>428.2</ele><time>2026-04-19T08:31:02.946Z</time></trkpt><trkpt lat="41.1797927" lon="15.0195259"><ele>428.6</ele><time>2026-04-19T08:31:03.951Z</time></trkpt><trkpt lat="41.1797144" lon="15.0194302"><ele>429.0</ele><time>2026-04-19T08:31:05.031Z</time></trkpt><trkpt lat="41.1796473" lon="15.0193383"><ele>432.2</ele><time>2026-04-19T08:31:06.03Z</time></trkpt><trkpt lat="41.1795899" lon="15.019236"><ele>435.4</ele><time>2026-04-19T08:31:07.032Z</time></trkpt><trkpt lat="41.1795257" lon="15.0191285"><ele>438.6</ele><time>2026-04-19T08:31:07.942Z</time></trkpt><trkpt lat="41.1794569" lon="15.0190176"><ele>441.8</ele><time>2026-04-19T08:31:08.954Z</time></trkpt><trkpt lat="41.1793945" lon="15.0188956"><ele>445.0</ele><time>2026-04-19T08:31:10.053Z</time></trkpt><trkpt lat="41.1793284" lon="15.018779"><ele>445.25</ele><time>2026-04-19T08:31:10.961Z</time></trkpt><trkpt lat="41.1792603" lon="15.018656"><ele>445.5</ele><time>2026-04-19T08:31:12.03Z</time></trkpt><trkpt lat="41.1791851" lon="15.0185265"><ele>445.75</ele><time>2026-04-19T08:31:12.947Z</time></trkpt><trkpt lat="41.1791126" lon="15.0184038"><ele>446.0</ele><time>2026-04-19T08:31:13.952Z</time></trkpt><trkpt lat="41.1790529" lon="15.0182902"><ele>447.0</ele><time>2026-04-19T08:31:14.96Z</time></trkpt><trkpt lat="41.1790196" lon="15.018213"><ele>448.0</ele><time>2026-04-19T08:31:15.95Z</time></trkpt><trkpt lat="41.1789493" lon="15.0180721"><ele>449.0</ele><time>2026-04-19T08:31:17.951Z</time></trkpt><trkpt lat="41.1788894" lon="15.0179981"><ele>450.0</ele><time>2026-04-19T08:31:18.948Z</time></trkpt><trkpt lat="41.1788231" lon="15.0179082"><ele>451.0</ele><time>2026-04-19T08:31:19.947Z</time></trkpt><trkpt lat="41.178729" lon="15.0177972"><ele>451.0</ele><time>2026-04-19T08:31:20.954Z</time></trkpt><trkpt lat="41.1786442" lon="15.0176696"><ele>451.0</ele><time>2026-04-19T08:31:21.952Z</time></trkpt><trkpt lat="41.1785685" lon="15.0175386"><ele>451.0</ele><time>2026-04-19T08:31:22.975Z</time></trkpt><trkpt lat="41.1785013" lon="15.0174004"><ele>451.0</ele><time>2026-04-19T08:31:23.945Z</time></trkpt><trkpt lat="41.1784494" lon="15.0172635"><ele>450.25</ele><time>2026-04-19T08:31:24.947Z</time></trkpt><trkpt lat="41.1784009" lon="15.0171334"><ele>449.5</ele><time>2026-04-19T08:31:25.951Z</time></trkpt><trkpt lat="41.1783382" lon="15.0169979"><ele>448.75</ele><time>2026-04-19T08:31:26.953Z</time></trkpt><trkpt lat="41.178264" lon="15.0168627"><ele>448.0</ele><time>2026-04-19T08:31:27.954Z</time></trkpt><trkpt lat="41.1781722" lon="15.0167309"><ele>445.25</ele><time>2026-04-19T08:31:28.949Z</time></trkpt><trkpt lat="41.1780675" lon="15.0165974"><ele>442.5</ele><time>2026-04-19T08:31:29.958Z</time></trkpt><trkpt lat="41.1779589" lon="15.0164711"><ele>439.75</ele><time>2026-04-19T08:31:30.948Z</time></trkpt><trkpt lat="41.1778431" lon="15.0163518"><ele>437.0</ele><time>2026-04-19T08:31:31.95Z</time></trkpt><trkpt lat="41.177736" lon="15.0162438"><ele>437.0</ele><time>2026-04-19T08:31:32.947Z</time></trkpt><trkpt lat="41.1776388" lon="15.0161427"><ele>437.0</ele><time>2026-04-19T08:31:33.953Z</time></trkpt><trkpt lat="41.1775346" lon="15.016052"><ele>437.0</ele><time>2026-04-19T08:31:34.955Z</time></trkpt><trkpt lat="41.1774301" lon="15.0159775"><ele>437.0</ele><time>2026-04-19T08:31:35.952Z</time></trkpt><trkpt lat="41.177316" lon="15.0159209"><ele>437.75</ele><time>2026-04-19T08:31:36.949Z</time></trkpt><trkpt lat="41.1771879" lon="15.0158786"><ele>438.5</ele><time>2026-04-19T08:31:37.945Z</time></trkpt><trkpt lat="41.1770555" lon="15.0158519"><ele>439.25</ele><time>2026-04-19T08:31:39.028Z</time></trkpt><trkpt lat="41.1769181" lon="15.0158453"><ele>440.0</ele><time>2026-04-19T08:31:40.032Z</time></trkpt><trkpt lat="41.1767701" lon="15.0158537"><ele>440.0</ele><time>2026-04-19T08:31:40.953Z</time></trkpt><trkpt lat="41.1766358" lon="15.0158659"><ele>440.0</ele><time>2026-04-19T08:31:41.952Z</time></trkpt><trkpt lat="41.176511" lon="15.0158712"><ele>440.0</ele><time>2026-04-19T08:31:42.956Z</time></trkpt><trkpt lat="41.1764185" lon="15.0158462"><ele>440.0</ele><time>2026-04-19T08:31:44.017Z</time></trkpt><trkpt lat="41.1763468" lon="15.0157733"><ele>440.0</ele><time>2026-04-19T08:31:44.952Z</time></trkpt><trkpt lat="41.1762873" lon="15.0156782"><ele>439.75</ele><time>2026-04-19T08:31:45.948Z</time></trkpt><trkpt lat="41.176209" lon="15.0155911"><ele>439.5</ele><time>2026-04-19T08:31:46.961Z</time></trkpt><trkpt lat="41.1761052" lon="15.015525"><ele>439.25</ele><time>2026-04-19T08:31:47.956Z</time></trkpt><trkpt lat="41.1759898" lon="15.015468"><ele>439.0</ele><time>2026-04-19T08:31:48.954Z</time></trkpt><trkpt lat="41.1758662" lon="15.0154177"><ele>439.0</ele><time>2026-04-19T08:31:49.956Z</time></trkpt><trkpt lat="41.1757325" lon="15.0153683"><ele>439.0</ele><time>2026-04-19T08:31:50.962Z</time></trkpt><trkpt lat="41.1755976" lon="15.0153154"><ele>439.0</ele><time>2026-04-19T08:31:51.956Z</time></trkpt><trkpt lat="41.1754564" lon="15.0152623"><ele>439.0</ele><time>2026-04-19T08:31:52.956Z</time></trkpt><trkpt lat="41.1753108" lon="15.0152047"><ele>439.0</ele><time>2026-04-19T08:31:53.955Z</time></trkpt><trkpt lat="41.1751637" lon="15.0151489"><ele>439.0</ele><time>2026-04-19T08:31:54.951Z</time></trkpt><trkpt lat="41.1750144" lon="15.0150857"><ele>439.0</ele><time>2026-04-19T08:31:55.958Z</time></trkpt><trkpt lat="41.1748702" lon="15.0150284"><ele>438.0</ele><time>2026-04-19T08:31:56.961Z</time></trkpt><trkpt lat="41.174723" lon="15.0149642"><ele>437.0</ele><time>2026-04-19T08:31:57.953Z</time></trkpt><trkpt lat="41.1745757" lon="15.0149037"><ele>436.0</ele><time>2026-04-19T08:31:58.958Z</time></trkpt><trkpt lat="41.1744266" lon="15.0148409"><ele>436.0</ele><time>2026-04-19T08:31:59.949Z</time></trkpt><trkpt lat="41.1742779" lon="15.0147791"><ele>436.0</ele><time>2026-04-19T08:32:00.958Z</time></trkpt><trkpt lat="41.1741298" lon="15.0147157"><ele>436.0</ele><time>2026-04-19T08:32:01.952Z</time></trkpt><trkpt lat="41.1739825" lon="15.0146538"><ele>435.0</ele><time>2026-04-19T08:32:02.958Z</time></trkpt><trkpt lat="41.1738374" lon="15.0145875"><ele>434.0</ele><time>2026-04-19T08:32:03.955Z</time></trkpt><trkpt lat="41.1737" lon="15.0145166"><ele>433.0</ele><time>2026-04-19T08:32:04.952Z</time></trkpt><trkpt lat="41.1735681" lon="15.0144346"><ele>432.0</ele><time>2026-04-19T08:32:05.956Z</time></trkpt><trkpt lat="41.1734306" lon="15.0143486"><ele>432.0</ele><time>2026-04-19T08:32:06.952Z</time></trkpt><trkpt lat="41.173294" lon="15.0142535"><ele>432.0</ele><time>2026-04-19T08:32:07.95Z</time></trkpt><trkpt lat="41.1731611" lon="15.0141469"><ele>432.0</ele><time>2026-04-19T08:32:08.957Z</time></trkpt><trkpt lat="41.1730244" lon="15.0140426"><ele>431.66666666666663</ele><time>2026-04-19T08:32:09.954Z</time></trkpt><trkpt lat="41.1728899" lon="15.013938"><ele>431.3333333333333</ele><time>2026-04-19T08:32:10.958Z</time></trkpt><trkpt lat="41.1727538" lon="15.0138345"><ele>431.0</ele><time>2026-04-19T08:32:11.953Z</time></trkpt><trkpt lat="41.1726188" lon="15.013734"><ele>431.0</ele><time>2026-04-19T08:32:12.954Z</time></trkpt><trkpt lat="41.1724861" lon="15.0136329"><ele>431.0</ele><time>2026-04-19T08:32:13.957Z</time></trkpt><trkpt lat="41.1723599" lon="15.0135414"><ele>431.0</ele><time>2026-04-19T08:32:14.95Z</time></trkpt><trkpt lat="41.172237" lon="15.0134549"><ele>431.0</ele><time>2026-04-19T08:32:15.956Z</time></trkpt><trkpt lat="41.1721266" lon="15.0133726"><ele>431.20000000000005</ele><time>2026-04-19T08:32:16.958Z</time></trkpt><trkpt lat="41.1720253" lon="15.0132991"><ele>431.40000000000003</ele><time>2026-04-19T08:32:17.954Z</time></trkpt><trkpt lat="41.1719433" lon="15.0132313"><ele>431.6</ele><time>2026-04-19T08:32:18.956Z</time></trkpt><trkpt lat="41.1718663" lon="15.0131745"><ele>431.8</ele><time>2026-04-19T08:32:20.026Z</time></trkpt><trkpt lat="41.1718129" lon="15.0131206"><ele>432.0</ele><time>2026-04-19T08:32:20.982Z</time></trkpt><trkpt lat="41.171779" lon="15.0129564"><ele>432.0</ele><time>2026-04-19T08:32:22.961Z</time></trkpt><trkpt lat="41.1717936" lon="15.0128339"><ele>432.0</ele><time>2026-04-19T08:32:23.961Z</time></trkpt><trkpt lat="41.1718097" lon="15.012693"><ele>432.0</ele><time>2026-04-19T08:32:24.962Z</time></trkpt><trkpt lat="41.1718221" lon="15.0125197"><ele>432.0</ele><time>2026-04-19T08:32:25.965Z</time></trkpt><trkpt lat="41.1718361" lon="15.0123363"><ele>432.33333333333337</ele><time>2026-04-19T08:32:26.965Z</time></trkpt><trkpt lat="41.1718544" lon="15.012142"><ele>432.6666666666667</ele><time>2026-04-19T08:32:27.98Z</time></trkpt><trkpt lat="41.1718682" lon="15.0119391"><ele>433.0</ele><time>2026-04-19T08:32:29.067Z</time></trkpt><trkpt lat="41.1718831" lon="15.0117292"><ele>434.33333333333337</ele><time>2026-04-19T08:32:29.971Z</time></trkpt><trkpt lat="41.1719063" lon="15.0115182"><ele>435.66666666666663</ele><time>2026-04-19T08:32:30.963Z</time></trkpt><trkpt lat="41.1719215" lon="15.0112988"><ele>437.0</ele><time>2026-04-19T08:32:31.961Z</time></trkpt><trkpt lat="41.1719378" lon="15.0110876"><ele>437.0</ele><time>2026-04-19T08:32:32.967Z</time></trkpt><trkpt lat="41.1719581" lon="15.0108657"><ele>437.0</ele><time>2026-04-19T08:32:34.029Z</time></trkpt><trkpt lat="41.1719799" lon="15.0106455"><ele>437.0</ele><time>2026-04-19T08:32:35.026Z</time></trkpt><trkpt lat="41.1720037" lon="15.0104349"><ele>438.5</ele><time>2026-04-19T08:32:35.949Z</time></trkpt><trkpt lat="41.1720232" lon="15.0102396"><ele>440.0</ele><time>2026-04-19T08:32:36.953Z</time></trkpt><trkpt lat="41.1720481" lon="15.0100603"><ele>441.5</ele><time>2026-04-19T08:32:37.954Z</time></trkpt><trkpt lat="41.1720815" lon="15.0098947"><ele>443.0</ele><time>2026-04-19T08:32:38.952Z</time></trkpt><trkpt lat="41.1721071" lon="15.0097342"><ele>445.0</ele><time>2026-04-19T08:32:39.951Z</time></trkpt><trkpt lat="41.1721308" lon="15.009571"><ele>447.0</ele><time>2026-04-19T08:32:40.955Z</time></trkpt><trkpt lat="41.1721681" lon="15.0094251"><ele>449.0</ele><time>2026-04-19T08:32:42.03Z</time></trkpt><trkpt lat="41.172213" lon="15.0092973"><ele>451.0</ele><time>2026-04-19T08:32:42.946Z</time></trkpt><trkpt lat="41.1722808" lon="15.0091632"><ele>453.5</ele><time>2026-04-19T08:32:44.03Z</time></trkpt><trkpt lat="41.1723444" lon="15.0090205"><ele>456.0</ele><time>2026-04-19T08:32:45.014Z</time></trkpt><trkpt lat="41.1724071" lon="15.0088722"><ele>458.5</ele><time>2026-04-19T08:32:45.955Z</time></trkpt><trkpt lat="41.1724708" lon="15.0087209"><ele>461.0</ele><time>2026-04-19T08:32:46.951Z</time></trkpt><trkpt lat="41.1725338" lon="15.008585"><ele>461.0</ele><time>2026-04-19T08:32:47.945Z</time></trkpt><trkpt lat="41.1725895" lon="15.0084484"><ele>461.0</ele><time>2026-04-19T08:32:48.948Z</time></trkpt><trkpt lat="41.1726337" lon="15.0083092"><ele>461.0</ele><time>2026-04-19T08:32:49.949Z</time></trkpt><trkpt lat="41.1726501" lon="15.0081672"><ele>461.0</ele><time>2026-04-19T08:32:51.019Z</time></trkpt><trkpt lat="41.1726296" lon="15.008011"><ele>460.4</ele><time>2026-04-19T08:32:51.947Z</time></trkpt><trkpt lat="41.1725983" lon="15.0078518"><ele>459.8</ele><time>2026-04-19T08:32:52.952Z</time></trkpt><trkpt lat="41.1725739" lon="15.0077231"><ele>459.19999999999993</ele><time>2026-04-19T08:32:53.948Z</time></trkpt><trkpt lat="41.1725374" lon="15.0076043"><ele>458.59999999999997</ele><time>2026-04-19T08:32:55.952Z</time></trkpt><trkpt lat="41.1725066" lon="15.007465"><ele>458.0</ele><time>2026-04-19T08:32:57.953Z</time></trkpt><trkpt lat="41.1724688" lon="15.0073607"><ele>456.99999999999994</ele><time>2026-04-19T08:32:58.947Z</time></trkpt><trkpt lat="41.1724174" lon="15.0072523"><ele>456.0</ele><time>2026-04-19T08:33:00.017Z</time></trkpt><trkpt lat="41.1723683" lon="15.0071557"><ele>455.0</ele><time>2026-04-19T08:33:00.947Z</time></trkpt><trkpt lat="41.1723216" lon="15.0070688"><ele>454.0</ele><time>2026-04-19T08:33:01.948Z</time></trkpt><trkpt lat="41.1722758" lon="15.0069825"><ele>452.99999999999994</ele><time>2026-04-19T08:33:02.956Z</time></trkpt><trkpt lat="41.1722395" lon="15.0069133"><ele>452.0</ele><time>2026-04-19T08:33:03.945Z</time></trkpt><trkpt lat="41.1721913" lon="15.0068498"><ele>451.99999999999994</ele><time>2026-04-19T08:33:04.951Z</time></trkpt><trkpt lat="41.1721276" lon="15.0068016"><ele>452.0</ele><time>2026-04-19T08:33:05.945Z</time></trkpt><trkpt lat="41.1720455" lon="15.0067461"><ele>452.0</ele><time>2026-04-19T08:33:06.952Z</time></trkpt><trkpt lat="41.1719603" lon="15.0066895"><ele>452.0</ele><time>2026-04-19T08:33:07.945Z</time></trkpt><trkpt lat="41.1718933" lon="15.0066392"><ele>451.99999999999994</ele><time>2026-04-19T08:33:08.945Z</time></trkpt><trkpt lat="41.1718492" lon="15.0065702"><ele>452.0</ele><time>2026-04-19T08:33:10.027Z</time></trkpt><trkpt lat="41.1717871" lon="15.0064218"><ele>448.66666666666663</ele><time>2026-04-19T08:33:11.945Z</time></trkpt><trkpt lat="41.1717539" lon="15.0063466"><ele>445.3333333333333</ele><time>2026-04-19T08:33:12.96Z</time></trkpt><trkpt lat="41.1717241" lon="15.0062715"><ele>442.0</ele><time>2026-04-19T08:33:13.949Z</time></trkpt><trkpt lat="41.1716906" lon="15.0061834"><ele>438.66666666666663</ele><time>2026-04-19T08:33:14.951Z</time></trkpt><trkpt lat="41.171659" lon="15.0061014"><ele>435.3333333333333</ele><time>2026-04-19T08:33:15.947Z</time></trkpt><trkpt lat="41.1716601" lon="15.0059721"><ele>432.0</ele><time>2026-04-19T08:33:17.95Z</time></trkpt><trkpt lat="41.1716993" lon="15.0058767"><ele>430.0</ele><time>2026-04-19T08:33:18.958Z</time></trkpt><trkpt lat="41.1717298" lon="15.0057882"><ele>428.0</ele><time>2026-04-19T08:33:19.95Z</time></trkpt><trkpt lat="41.1717476" lon="15.0056219"><ele>426.0</ele><time>2026-04-19T08:33:21.953Z</time></trkpt><trkpt lat="41.1717338" lon="15.0055281"><ele>424.0</ele><time>2026-04-19T08:33:22.952Z</time></trkpt><trkpt lat="41.1716952" lon="15.0054328"><ele>422.0</ele><time>2026-04-19T08:33:23.947Z</time></trkpt><trkpt lat="41.1716462" lon="15.0053246"><ele>420.0</ele><time>2026-04-19T08:33:25.029Z</time></trkpt><trkpt lat="41.1715963" lon="15.0052213"><ele>420.0</ele><time>2026-04-19T08:33:26.029Z</time></trkpt><trkpt lat="41.1715499" lon="15.0051172"><ele>420.0</ele><time>2026-04-19T08:33:27.03Z</time></trkpt><trkpt lat="41.1715086" lon="15.0050282"><ele>420.0</ele><time>2026-04-19T08:33:27.946Z</time></trkpt><trkpt lat="41.1714651" lon="15.0049535"><ele>420.0</ele><time>2026-04-19T08:33:28.95Z</time></trkpt><trkpt lat="41.1714203" lon="15.0048818"><ele>420.0</ele><time>2026-04-19T08:33:29.949Z</time></trkpt><trkpt lat="41.1713825" lon="15.0048096"><ele>420.0</ele><time>2026-04-19T08:33:30.945Z</time></trkpt><trkpt lat="41.1713429" lon="15.0047035"><ele>414.0</ele><time>2026-04-19T08:33:32.949Z</time></trkpt><trkpt lat="41.1712779" lon="15.0046496"><ele>408.0</ele><time>2026-04-19T08:33:34.968Z</time></trkpt><trkpt lat="41.1711414" lon="15.0046157"><ele>402.0</ele><time>2026-04-19T08:33:36.939Z</time></trkpt><trkpt lat="41.1710509" lon="15.0046123"><ele>396.0</ele><time>2026-04-19T08:33:37.951Z</time></trkpt><trkpt lat="41.1709641" lon="15.0046243"><ele>390.0</ele><time>2026-04-19T08:33:38.944Z</time></trkpt><trkpt lat="41.1708674" lon="15.0046659"><ele>390.0</ele><time>2026-04-19T08:33:39.947Z</time></trkpt><trkpt lat="41.1707608" lon="15.0047159"><ele>390.0</ele><time>2026-04-19T08:33:40.95Z</time></trkpt><trkpt lat="41.1706518" lon="15.0047787"><ele>390.0</ele><time>2026-04-19T08:33:41.947Z</time></trkpt><trkpt lat="41.1705667" lon="15.0048262"><ele>390.0</ele><time>2026-04-19T08:33:42.946Z</time></trkpt><trkpt lat="41.1704888" lon="15.0048475"><ele>390.0</ele><time>2026-04-19T08:33:44.035Z</time></trkpt><trkpt lat="41.1704067" lon="15.0048617"><ele>388.0</ele><time>2026-04-19T08:33:45.02Z</time></trkpt><trkpt lat="41.1703192" lon="15.0048569"><ele>386.0</ele><time>2026-04-19T08:33:46.021Z</time></trkpt><trkpt lat="41.170224" lon="15.0048447"><ele>384.0</ele><time>2026-04-19T08:33:46.947Z</time></trkpt><trkpt lat="41.170128" lon="15.0048476"><ele>382.0</ele><time>2026-04-19T08:33:47.949Z</time></trkpt><trkpt lat="41.1700255" lon="15.0048736"><ele>380.0</ele><time>2026-04-19T08:33:48.946Z</time></trkpt><trkpt lat="41.1699172" lon="15.0049007"><ele>380.25</ele><time>2026-04-19T08:33:49.954Z</time></trkpt><trkpt lat="41.1697108" lon="15.00495"><ele>380.5</ele><time>2026-04-19T08:33:52.004Z</time></trkpt><trkpt lat="41.1696139" lon="15.0049606"><ele>380.75</ele><time>2026-04-19T08:33:52.961Z</time></trkpt><trkpt lat="41.1695143" lon="15.0049573"><ele>381.0</ele><time>2026-04-19T08:33:53.966Z</time></trkpt><trkpt lat="41.1694094" lon="15.0049593"><ele>381.0</ele><time>2026-04-19T08:33:54.953Z</time></trkpt><trkpt lat="41.1693138" lon="15.0049808"><ele>381.0</ele><time>2026-04-19T08:33:55.99Z</time></trkpt><trkpt lat="41.1692359" lon="15.0049842"><ele>381.0</ele><time>2026-04-19T08:33:56.975Z</time></trkpt><trkpt lat="41.1691483" lon="15.0049581"><ele>381.0</ele><time>2026-04-19T08:33:57.958Z</time></trkpt><trkpt lat="41.1690584" lon="15.0048976"><ele>381.0</ele><time>2026-04-19T08:33:58.982Z</time></trkpt><trkpt lat="41.1689633" lon="15.0048283"><ele>385.25</ele><time>2026-04-19T08:33:59.965Z</time></trkpt><trkpt lat="41.1688617" lon="15.0047662"><ele>389.5</ele><time>2026-04-19T08:34:00.958Z</time></trkpt><trkpt lat="41.1687584" lon="15.0047171"><ele>393.75</ele><time>2026-04-19T08:34:01.962Z</time></trkpt><trkpt lat="41.1686401" lon="15.004663"><ele>398.0</ele><time>2026-04-19T08:34:02.962Z</time></trkpt><trkpt lat="41.1685189" lon="15.0046152"><ele>398.0</ele><time>2026-04-19T08:34:03.964Z</time></trkpt><trkpt lat="41.1684022" lon="15.0045604"><ele>398.0</ele><time>2026-04-19T08:34:04.956Z</time></trkpt><trkpt lat="41.1682783" lon="15.004495"><ele>398.0</ele><time>2026-04-19T08:34:05.961Z</time></trkpt><trkpt lat="41.1681494" lon="15.0044255"><ele>398.0</ele><time>2026-04-19T08:34:06.966Z</time></trkpt><trkpt lat="41.1680164" lon="15.0043741"><ele>402.5</ele><time>2026-04-19T08:34:07.957Z</time></trkpt><trkpt lat="41.1678724" lon="15.004329"><ele>407.0</ele><time>2026-04-19T08:34:08.953Z</time></trkpt><trkpt lat="41.1677367" lon="15.0042721"><ele>411.5</ele><time>2026-04-19T08:34:09.958Z</time></trkpt><trkpt lat="41.1676234" lon="15.0042144"><ele>416.0</ele><time>2026-04-19T08:34:10.961Z</time></trkpt><trkpt lat="41.1675124" lon="15.0041682"><ele>417.5</ele><time>2026-04-19T08:34:11.962Z</time></trkpt><trkpt lat="41.1673969" lon="15.004132"><ele>419.0</ele><time>2026-04-19T08:34:12.963Z</time></trkpt><trkpt lat="41.1672665" lon="15.0040994"><ele>420.5</ele><time>2026-04-19T08:34:13.96Z</time></trkpt><trkpt lat="41.1671359" lon="15.0040616"><ele>422.0</ele><time>2026-04-19T08:34:14.957Z</time></trkpt><trkpt lat="41.1670108" lon="15.0040303"><ele>422.0</ele><time>2026-04-19T08:34:15.96Z</time></trkpt><trkpt lat="41.1668892" lon="15.0040072"><ele>422.0</ele><time>2026-04-19T08:34:16.961Z</time></trkpt><trkpt lat="41.1667713" lon="15.0040107"><ele>422.0</ele><time>2026-04-19T08:34:17.958Z</time></trkpt><trkpt lat="41.1666655" lon="15.0040397"><ele>422.0</ele><time>2026-04-19T08:34:18.962Z</time></trkpt><trkpt lat="41.1665831" lon="15.0040616"><ele>422.0</ele><time>2026-04-19T08:34:19.956Z</time></trkpt><trkpt lat="41.1664818" lon="15.0040794"><ele>422.99999999999994</ele><time>2026-04-19T08:34:21.959Z</time></trkpt><trkpt lat="41.1663971" lon="15.0041015"><ele>424.0</ele><time>2026-04-19T08:34:22.965Z</time></trkpt><trkpt lat="41.1663357" lon="15.0041257"><ele>425.0</ele><time>2026-04-19T08:34:23.96Z</time></trkpt><trkpt lat="41.1662461" lon="15.0040969"><ele>426.0</ele><time>2026-04-19T08:34:25.959Z</time></trkpt><trkpt lat="41.1661908" lon="15.0040454"><ele>426.99999999999994</ele><time>2026-04-19T08:34:26.959Z</time></trkpt><trkpt lat="41.1661092" lon="15.0039699"><ele>428.0</ele><time>2026-04-19T08:34:27.955Z</time></trkpt><trkpt lat="41.1660241" lon="15.0038685"><ele>428.0</ele><time>2026-04-19T08:34:28.966Z</time></trkpt><trkpt lat="41.1659418" lon="15.0037505"><ele>428.0</ele><time>2026-04-19T08:34:29.956Z</time></trkpt><trkpt lat="41.1658642" lon="15.0036263"><ele>428.0</ele><time>2026-04-19T08:34:30.959Z</time></trkpt><trkpt lat="41.1657841" lon="15.0035101"><ele>428.0</ele><time>2026-04-19T08:34:31.962Z</time></trkpt><trkpt lat="41.165703" lon="15.0033888"><ele>425.25</ele><time>2026-04-19T08:34:32.959Z</time></trkpt><trkpt lat="41.1656113" lon="15.0032748"><ele>422.5</ele><time>2026-04-19T08:34:33.964Z</time></trkpt><trkpt lat="41.1655252" lon="15.0031661"><ele>419.75</ele><time>2026-04-19T08:34:34.962Z</time></trkpt><trkpt lat="41.1654468" lon="15.0030639"><ele>417.0</ele><time>2026-04-19T08:34:35.956Z</time></trkpt><trkpt lat="41.1653699" lon="15.0029581"><ele>417.0</ele><time>2026-04-19T08:34:36.963Z</time></trkpt><trkpt lat="41.1652973" lon="15.0028547"><ele>417.0</ele><time>2026-04-19T08:34:37.964Z</time></trkpt><trkpt lat="41.1652333" lon="15.0027469"><ele>417.0</ele><time>2026-04-19T08:34:38.959Z</time></trkpt><trkpt lat="41.1651633" lon="15.002637"><ele>417.0</ele><time>2026-04-19T08:34:39.957Z</time></trkpt><trkpt lat="41.1650849" lon="15.0025266"><ele>417.0</ele><time>2026-04-19T08:34:40.96Z</time></trkpt><trkpt lat="41.1650061" lon="15.0024066"><ele>416.0</ele><time>2026-04-19T08:34:41.958Z</time></trkpt><trkpt lat="41.1649317" lon="15.0022871"><ele>415.0</ele><time>2026-04-19T08:34:42.96Z</time></trkpt><trkpt lat="41.164859" lon="15.0021652"><ele>414.0</ele><time>2026-04-19T08:34:43.954Z</time></trkpt><trkpt lat="41.1647923" lon="15.0020249"><ele>413.0</ele><time>2026-04-19T08:34:44.964Z</time></trkpt><trkpt lat="41.1647236" lon="15.0018854"><ele>412.75</ele><time>2026-04-19T08:34:45.956Z</time></trkpt><trkpt lat="41.164655" lon="15.0017338"><ele>412.5</ele><time>2026-04-19T08:34:46.958Z</time></trkpt><trkpt lat="41.1645823" lon="15.0015792"><ele>412.25</ele><time>2026-04-19T08:34:47.962Z</time></trkpt><trkpt lat="41.1645094" lon="15.0014294"><ele>412.0</ele><time>2026-04-19T08:34:48.961Z</time></trkpt><trkpt lat="41.1644383" lon="15.0012795"><ele>411.25</ele><time>2026-04-19T08:34:50.024Z</time></trkpt><trkpt lat="41.1643667" lon="15.0011248"><ele>410.5</ele><time>2026-04-19T08:34:50.959Z</time></trkpt><trkpt lat="41.1642984" lon="15.0009803"><ele>409.75</ele><time>2026-04-19T08:34:51.96Z</time></trkpt><trkpt lat="41.1642245" lon="15.0008436"><ele>409.0</ele><time>2026-04-19T08:34:52.953Z</time></trkpt><trkpt lat="41.164155" lon="15.0007137"><ele>406.75</ele><time>2026-04-19T08:34:53.961Z</time></trkpt><trkpt lat="41.164089" lon="15.000583"><ele>404.5</ele><time>2026-04-19T08:34:54.963Z</time></trkpt><trkpt lat="41.1640329" lon="15.0004416"><ele>402.25</ele><time>2026-04-19T08:34:55.96Z</time></trkpt><trkpt lat="41.1639856" lon="15.000291"><ele>400.0</ele><time>2026-04-19T08:34:56.959Z</time></trkpt><trkpt lat="41.1639405" lon="15.0001294"><ele>399.0</ele><time>2026-04-19T08:34:57.96Z</time></trkpt><trkpt lat="41.1639005" lon="14.9999626"><ele>398.0</ele><time>2026-04-19T08:34:59.033Z</time></trkpt><trkpt lat="41.1638685" lon="14.999796"><ele>397.0</ele><time>2026-04-19T08:34:59.949Z</time></trkpt><trkpt lat="41.1638445" lon="14.9996259"><ele>396.0</ele><time>2026-04-19T08:35:00.952Z</time></trkpt><trkpt lat="41.1638279" lon="14.9994434"><ele>396.0</ele><time>2026-04-19T08:35:01.953Z</time></trkpt><trkpt lat="41.1638106" lon="14.9992577"><ele>396.0</ele><time>2026-04-19T08:35:02.948Z</time></trkpt><trkpt lat="41.163803" lon="14.9990694"><ele>396.0</ele><time>2026-04-19T08:35:03.952Z</time></trkpt><trkpt lat="41.1638038" lon="14.998891"><ele>396.0</ele><time>2026-04-19T08:35:04.949Z</time></trkpt><trkpt lat="41.1638205" lon="14.9987311"><ele>394.75</ele><time>2026-04-19T08:35:06.032Z</time></trkpt><trkpt lat="41.1638465" lon="14.9985708"><ele>393.5</ele><time>2026-04-19T08:35:06.948Z</time></trkpt><trkpt lat="41.1638761" lon="14.9984173"><ele>392.25</ele><time>2026-04-19T08:35:07.951Z</time></trkpt><trkpt lat="41.1638962" lon="14.9982609"><ele>391.0</ele><time>2026-04-19T08:35:08.946Z</time></trkpt><trkpt lat="41.1639117" lon="14.998105"><ele>391.0</ele><time>2026-04-19T08:35:09.948Z</time></trkpt><trkpt lat="41.1639254" lon="14.9979419"><ele>391.0</ele><time>2026-04-19T08:35:10.953Z</time></trkpt><trkpt lat="41.1639313" lon="14.9977898"><ele>391.0</ele><time>2026-04-19T08:35:11.951Z</time></trkpt><trkpt lat="41.1639366" lon="14.997642"><ele>391.0</ele><time>2026-04-19T08:35:12.948Z</time></trkpt><trkpt lat="41.1639455" lon="14.9974878"><ele>391.5</ele><time>2026-04-19T08:35:13.945Z</time></trkpt><trkpt lat="41.1639563" lon="14.9973202"><ele>392.0</ele><time>2026-04-19T08:35:15.038Z</time></trkpt><trkpt lat="41.1639729" lon="14.9971586"><ele>392.5</ele><time>2026-04-19T08:35:16.031Z</time></trkpt><trkpt lat="41.1639934" lon="14.9969984"><ele>393.0</ele><time>2026-04-19T08:35:17.031Z</time></trkpt><trkpt lat="41.1640212" lon="14.9968487"><ele>391.2</ele><time>2026-04-19T08:35:17.967Z</time></trkpt><trkpt lat="41.164049" lon="14.996708"><ele>389.4</ele><time>2026-04-19T08:35:18.959Z</time></trkpt><trkpt lat="41.1640779" lon="14.9965804"><ele>387.59999999999997</ele><time>2026-04-19T08:35:19.958Z</time></trkpt><trkpt lat="41.1641099" lon="14.9964573"><ele>385.79999999999995</ele><time>2026-04-19T08:35:20.964Z</time></trkpt><trkpt lat="41.1641334" lon="14.9963443"><ele>384.0</ele><time>2026-04-19T08:35:21.968Z</time></trkpt><trkpt lat="41.1641555" lon="14.9962291"><ele>383.6</ele><time>2026-04-19T08:35:22.964Z</time></trkpt><trkpt lat="41.1641748" lon="14.9961036"><ele>383.2</ele><time>2026-04-19T08:35:24.032Z</time></trkpt><trkpt lat="41.1641953" lon="14.9959916"><ele>382.8</ele><time>2026-04-19T08:35:24.958Z</time></trkpt><trkpt lat="41.1642147" lon="14.9958756"><ele>382.40000000000003</ele><time>2026-04-19T08:35:26.022Z</time></trkpt><trkpt lat="41.1642346" lon="14.9957568"><ele>382.0</ele><time>2026-04-19T08:35:26.956Z</time></trkpt><trkpt lat="41.1642572" lon="14.9956404"><ele>381.0</ele><time>2026-04-19T08:35:27.955Z</time></trkpt><trkpt lat="41.1642829" lon="14.9955254"><ele>380.0</ele><time>2026-04-19T08:35:28.951Z</time></trkpt><trkpt lat="41.164304" lon="14.9954101"><ele>379.0</ele><time>2026-04-19T08:35:29.954Z</time></trkpt><trkpt lat="41.1643232" lon="14.9952818"><ele>378.0</ele><time>2026-04-19T08:35:30.955Z</time></trkpt><trkpt lat="41.1643341" lon="14.9951466"><ele>377.0</ele><time>2026-04-19T08:35:32.027Z</time></trkpt><trkpt lat="41.1643425" lon="14.9950068"><ele>375.40000000000003</ele><time>2026-04-19T08:35:32.952Z</time></trkpt><trkpt lat="41.1643508" lon="14.9948511"><ele>373.8</ele><time>2026-04-19T08:35:33.955Z</time></trkpt><trkpt lat="41.1643634" lon="14.9946976"><ele>372.2</ele><time>2026-04-19T08:35:34.954Z</time></trkpt><trkpt lat="41.1643761" lon="14.9945624"><ele>370.6</ele><time>2026-04-19T08:35:35.955Z</time></trkpt><trkpt lat="41.164386" lon="14.9944285"><ele>369.0</ele><time>2026-04-19T08:35:36.956Z</time></trkpt><trkpt lat="41.1643921" lon="14.9942952"><ele>366.0</ele><time>2026-04-19T08:35:37.95Z</time></trkpt><trkpt lat="41.1643982" lon="14.994149"><ele>363.0</ele><time>2026-04-19T08:35:38.957Z</time></trkpt><trkpt lat="41.1644046" lon="14.9939937"><ele>360.0</ele><time>2026-04-19T08:35:39.957Z</time></trkpt><trkpt lat="41.1644046" lon="14.9938266"><ele>357.0</ele><time>2026-04-19T08:35:41.025Z</time></trkpt><trkpt lat="41.164406" lon="14.9936558"><ele>357.0</ele><time>2026-04-19T08:35:42.026Z</time></trkpt><trkpt lat="41.1644031" lon="14.9934937"><ele>357.0</ele><time>2026-04-19T08:35:42.962Z</time></trkpt><trkpt lat="41.1644053" lon="14.9933343"><ele>357.0</ele><time>2026-04-19T08:35:43.958Z</time></trkpt><trkpt lat="41.1644098" lon="14.9931776"><ele>357.0</ele><time>2026-04-19T08:35:44.964Z</time></trkpt><trkpt lat="41.1644216" lon="14.9930267"><ele>354.8</ele><time>2026-04-19T08:35:45.96Z</time></trkpt><trkpt lat="41.1644352" lon="14.9928849"><ele>352.6</ele><time>2026-04-19T08:35:46.956Z</time></trkpt><trkpt lat="41.164457" lon="14.9927452"><ele>350.40000000000003</ele><time>2026-04-19T08:35:47.957Z</time></trkpt><trkpt lat="41.1644911" lon="14.9926099"><ele>348.20000000000005</ele><time>2026-04-19T08:35:49.025Z</time></trkpt><trkpt lat="41.1645411" lon="14.9924809"><ele>346.0</ele><time>2026-04-19T08:35:49.953Z</time></trkpt><trkpt lat="41.1645963" lon="14.9923521"><ele>344.8</ele><time>2026-04-19T08:35:50.993Z</time></trkpt><trkpt lat="41.1646541" lon="14.99222"><ele>343.6</ele><time>2026-04-19T08:35:51.961Z</time></trkpt><trkpt lat="41.1647076" lon="14.9920935"><ele>342.4</ele><time>2026-04-19T08:35:52.957Z</time></trkpt><trkpt lat="41.1647667" lon="14.9919715"><ele>341.2</ele><time>2026-04-19T08:35:53.957Z</time></trkpt><trkpt lat="41.1648268" lon="14.9918471"><ele>340.0</ele><time>2026-04-19T08:35:54.957Z</time></trkpt><trkpt lat="41.1648932" lon="14.9917327"><ele>338.8</ele><time>2026-04-19T08:35:55.958Z</time></trkpt><trkpt lat="41.1649634" lon="14.9916227"><ele>337.6</ele><time>2026-04-19T08:35:56.962Z</time></trkpt><trkpt lat="41.1650363" lon="14.991517"><ele>336.4</ele><time>2026-04-19T08:35:58.002Z</time></trkpt><trkpt lat="41.1651049" lon="14.9914157"><ele>335.2</ele><time>2026-04-19T08:35:58.958Z</time></trkpt><trkpt lat="41.1651723" lon="14.9913191"><ele>334.0</ele><time>2026-04-19T08:35:59.961Z</time></trkpt><trkpt lat="41.1652414" lon="14.9912203"><ele>334.0</ele><time>2026-04-19T08:36:00.963Z</time></trkpt><trkpt lat="41.1653112" lon="14.9911217"><ele>334.0</ele><time>2026-04-19T08:36:01.956Z</time></trkpt><trkpt lat="41.1653838" lon="14.9910287"><ele>334.0</ele><time>2026-04-19T08:36:02.958Z</time></trkpt><trkpt lat="41.1654593" lon="14.9909408"><ele>334.0</ele><time>2026-04-19T08:36:03.959Z</time></trkpt><trkpt lat="41.1655209" lon="14.9908595"><ele>334.0</ele><time>2026-04-19T08:36:05.029Z</time></trkpt><trkpt lat="41.1655733" lon="14.9907885"><ele>332.4</ele><time>2026-04-19T08:36:05.95Z</time></trkpt><trkpt lat="41.1656193" lon="14.9907226"><ele>330.79999999999995</ele><time>2026-04-19T08:36:07.028Z</time></trkpt><trkpt lat="41.1656634" lon="14.9905785"><ele>329.20000000000005</ele><time>2026-04-19T08:36:08.959Z</time></trkpt><trkpt lat="41.1656599" lon="14.990465"><ele>327.6</ele><time>2026-04-19T08:36:09.982Z</time></trkpt><trkpt lat="41.1656515" lon="14.9903363"><ele>326.0</ele><time>2026-04-19T08:36:10.96Z</time></trkpt><trkpt lat="41.1656455" lon="14.990195"><ele>326.0</ele><time>2026-04-19T08:36:12.033Z</time></trkpt><trkpt lat="41.165639" lon="14.9900632"><ele>326.0</ele><time>2026-04-19T08:36:12.957Z</time></trkpt><trkpt lat="41.1656301" lon="14.9899438"><ele>326.0</ele><time>2026-04-19T08:36:13.957Z</time></trkpt><trkpt lat="41.1656251" lon="14.9898236"><ele>326.0</ele><time>2026-04-19T08:36:14.955Z</time></trkpt><trkpt lat="41.1656227" lon="14.989709"><ele>326.0</ele><time>2026-04-19T08:36:15.958Z</time></trkpt><trkpt lat="41.1656214" lon="14.9895888"><ele>324.6666666666667</ele><time>2026-04-19T08:36:16.956Z</time></trkpt><trkpt lat="41.1656162" lon="14.9894719"><ele>323.33333333333337</ele><time>2026-04-19T08:36:17.964Z</time></trkpt><trkpt lat="41.1656079" lon="14.989361"><ele>322.0</ele><time>2026-04-19T08:36:18.958Z</time></trkpt><trkpt lat="41.1656005" lon="14.9892475"><ele>320.6666666666667</ele><time>2026-04-19T08:36:19.962Z</time></trkpt><trkpt lat="41.1655952" lon="14.989124"><ele>319.3333333333333</ele><time>2026-04-19T08:36:20.956Z</time></trkpt><trkpt lat="41.1655893" lon="14.9889999"><ele>318.0</ele><time>2026-04-19T08:36:21.975Z</time></trkpt><trkpt lat="41.1655731" lon="14.9888729"><ele>316.1666666666667</ele><time>2026-04-19T08:36:22.957Z</time></trkpt><trkpt lat="41.1655625" lon="14.9887597"><ele>314.3333333333333</ele><time>2026-04-19T08:36:23.955Z</time></trkpt><trkpt lat="41.1655632" lon="14.9886519"><ele>312.5</ele><time>2026-04-19T08:36:24.956Z</time></trkpt><trkpt lat="41.1655701" lon="14.9885375"><ele>310.66666666666663</ele><time>2026-04-19T08:36:25.958Z</time></trkpt><trkpt lat="41.1655782" lon="14.9884075"><ele>308.8333333333333</ele><time>2026-04-19T08:36:26.957Z</time></trkpt><trkpt lat="41.1655947" lon="14.9882988"><ele>307.0</ele><time>2026-04-19T08:36:27.962Z</time></trkpt><trkpt lat="41.1656308" lon="14.9881991"><ele>304.6</ele><time>2026-04-19T08:36:28.962Z</time></trkpt><trkpt lat="41.165673" lon="14.988112"><ele>302.2</ele><time>2026-04-19T08:36:30.029Z</time></trkpt><trkpt lat="41.1656903" lon="14.9879781"><ele>299.8</ele><time>2026-04-19T08:36:32.036Z</time></trkpt><trkpt lat="41.1656445" lon="14.9877928"><ele>297.4</ele><time>2026-04-19T08:36:33.971Z</time></trkpt><trkpt lat="41.1656196" lon="14.9876796"><ele>295.0</ele><time>2026-04-19T08:36:34.965Z</time></trkpt><trkpt lat="41.1655967" lon="14.9875729"><ele>292.66666666666663</ele><time>2026-04-19T08:36:35.962Z</time></trkpt><trkpt lat="41.1655709" lon="14.987477"><ele>290.3333333333333</ele><time>2026-04-19T08:36:36.967Z</time></trkpt><trkpt lat="41.1655422" lon="14.9873821"><ele>288.0</ele><time>2026-04-19T08:36:37.966Z</time></trkpt><trkpt lat="41.1655184" lon="14.9872745"><ele>285.6666666666667</ele><time>2026-04-19T08:36:39.033Z</time></trkpt><trkpt lat="41.1654982" lon="14.9871652"><ele>283.33333333333337</ele><time>2026-04-19T08:36:40.034Z</time></trkpt><trkpt lat="41.165487" lon="14.9870558"><ele>281.0</ele><time>2026-04-19T08:36:40.951Z</time></trkpt><trkpt lat="41.165479" lon="14.9869616"><ele>281.0</ele><time>2026-04-19T08:36:41.954Z</time></trkpt><trkpt lat="41.1654683" lon="14.9868601"><ele>281.0</ele><time>2026-04-19T08:36:42.948Z</time></trkpt><trkpt lat="41.1654551" lon="14.9867467"><ele>281.0</ele><time>2026-04-19T08:36:43.949Z</time></trkpt><trkpt lat="41.1654391" lon="14.9866285"><ele>281.0</ele><time>2026-04-19T08:36:44.95Z</time></trkpt><trkpt lat="41.1654204" lon="14.9865128"><ele>281.0</ele><time>2026-04-19T08:36:45.946Z</time></trkpt><trkpt lat="41.1654001" lon="14.9864065"><ele>281.0</ele><time>2026-04-19T08:36:47.009Z</time></trkpt><trkpt lat="41.1653687" lon="14.9863118"><ele>279.0</ele><time>2026-04-19T08:36:47.95Z</time></trkpt><trkpt lat="41.1653326" lon="14.9862157"><ele>277.0</ele><time>2026-04-19T08:36:48.947Z</time></trkpt><trkpt lat="41.1652958" lon="14.986122"><ele>275.0</ele><time>2026-04-19T08:36:50.052Z</time></trkpt><trkpt lat="41.1652506" lon="14.9860247"><ele>273.0</ele><time>2026-04-19T08:36:51.012Z</time></trkpt><trkpt lat="41.1652129" lon="14.9859307"><ele>271.0</ele><time>2026-04-19T08:36:51.947Z</time></trkpt><trkpt lat="41.1651901" lon="14.9858473"><ele>269.0</ele><time>2026-04-19T08:36:52.948Z</time></trkpt><trkpt lat="41.165212" lon="14.9856941"><ele>264.6666666666667</ele><time>2026-04-19T08:36:55.014Z</time></trkpt><trkpt lat="41.1652502" lon="14.9856165"><ele>260.3333333333333</ele><time>2026-04-19T08:36:56.047Z</time></trkpt><trkpt lat="41.1652941" lon="14.9855273"><ele>256.0</ele><time>2026-04-19T08:36:56.96Z</time></trkpt><trkpt lat="41.1655782" lon="14.9884075"><ele>263.8</ele><time>2026-04-19T08:36:26.957Z</time></trkpt><trkpt lat="41.1655947" lon="14.9882988"><ele>271.6</ele><time>2026-04-19T08:36:27.962Z</time></trkpt><trkpt lat="41.1656308" lon="14.9881991"><ele>279.4</ele><time>2026-04-19T08:36:28.962Z</time></trkpt><trkpt lat="41.165673" lon="14.988112"><ele>287.2</ele><time>2026-04-19T08:36:30.029Z</time></trkpt><trkpt lat="41.1656903" lon="14.9879781"><ele>295.0</ele><time>2026-04-19T08:36:32.036Z</time></trkpt><trkpt lat="41.1656445" lon="14.9877928"><ele>295.0</ele><time>2026-04-19T08:36:33.971Z</time></trkpt><trkpt lat="41.1656196" lon="14.9876796"><ele>295.0</ele><time>2026-04-19T08:36:34.965Z</time></trkpt><trkpt lat="41.1655967" lon="14.9875729"><ele>295.0</ele><time>2026-04-19T08:36:35.962Z</time></trkpt><trkpt lat="41.1655709" lon="14.987477"><ele>295.0</ele><time>2026-04-19T08:36:36.967Z</time></trkpt><trkpt lat="41.1655422" lon="14.9873821"><ele>295.0</ele><time>2026-04-19T08:36:37.966Z</time></trkpt><trkpt lat="41.1655184" lon="14.9872745"><ele>295.0</ele><time>2026-04-19T08:36:39.033Z</time></trkpt><trkpt lat="41.1654982" lon="14.9871652"><ele>292.66666666666663</ele><time>2026-04-19T08:36:40.034Z</time></trkpt><trkpt lat="41.165487" lon="14.9870558"><ele>290.3333333333333</ele><time>2026-04-19T08:36:40.951Z</time></trkpt><trkpt lat="41.165479" lon="14.9869616"><ele>288.0</ele><time>2026-04-19T08:36:41.954Z</time></trkpt><trkpt lat="41.1654683" lon="14.9868601"><ele>285.6666666666667</ele><time>2026-04-19T08:36:42.948Z</time></trkpt><trkpt lat="41.1654551" lon="14.9867467"><ele>283.33333333333337</ele><time>2026-04-19T08:36:43.949Z</time></trkpt><trkpt lat="41.1654391" lon="14.9866285"><ele>281.0</ele><time>2026-04-19T08:36:44.95Z</time></trkpt><trkpt lat="41.1654204" lon="14.9865128"><ele>279.0</ele><time>2026-04-19T08:36:45.946Z</time></trkpt><trkpt lat="41.1654001" lon="14.9864065"><ele>277.0</ele><time>2026-04-19T08:36:47.009Z</time></trkpt><trkpt lat="41.1653687" lon="14.9863118"><ele>275.0</ele><time>2026-04-19T08:36:47.95Z</time></trkpt><trkpt lat="41.1653326" lon="14.9862157"><ele>273.0</ele><time>2026-04-19T08:36:48.947Z</time></trkpt><trkpt lat="41.1652958" lon="14.986122"><ele>271.0</ele><time>2026-04-19T08:36:50.052Z</time></trkpt><trkpt lat="41.1652506" lon="14.9860247"><ele>269.0</ele><time>2026-04-19T08:36:51.012Z</time></trkpt><trkpt lat="41.1652129" lon="14.9859307"><ele>269.0</ele><time>2026-04-19T08:36:51.947Z</time></trkpt><trkpt lat="41.1651901" lon="14.9858473"><ele>269.0</ele><time>2026-04-19T08:36:52.948Z</time></trkpt><trkpt lat="41.165212" lon="14.9856941"><ele>269.0</ele><time>2026-04-19T08:36:55.014Z</time></trkpt><trkpt lat="41.1652502" lon="14.9856165"><ele>269.0</ele><time>2026-04-19T08:36:56.047Z</time></trkpt><trkpt lat="41.1652941" lon="14.9855273"><ele>269.0</ele><time>2026-04-19T08:36:56.96Z</time></trkpt><trkpt lat="41.1653338" lon="14.9854486"><ele>269.0</ele><time>2026-04-19T08:36:57.949Z</time></trkpt><trkpt lat="41.1653691" lon="14.9853689"><ele>266.83333333333337</ele><time>2026-04-19T08:36:58.949Z</time></trkpt><trkpt lat="41.1654221" lon="14.9852253"><ele>264.6666666666667</ele><time>2026-04-19T08:37:00.968Z</time></trkpt><trkpt lat="41.165448" lon="14.9851414"><ele>262.5</ele><time>2026-04-19T08:37:01.946Z</time></trkpt><trkpt lat="41.1654656" lon="14.9850502"><ele>260.3333333333333</ele><time>2026-04-19T08:37:02.948Z</time></trkpt><trkpt lat="41.1654779" lon="14.9849539"><ele>258.16666666666663</ele><time>2026-04-19T08:37:03.948Z</time></trkpt><trkpt lat="41.1654854" lon="14.984846"><ele>256.0</ele><time>2026-04-19T08:37:04.95Z</time></trkpt><trkpt lat="41.1654876" lon="14.9847473"><ele>253.16666666666666</ele><time>2026-04-19T08:37:05.951Z</time></trkpt><trkpt lat="41.1654883" lon="14.9846622"><ele>250.33333333333331</ele><time>2026-04-19T08:37:06.952Z</time></trkpt><trkpt lat="41.1654924" lon="14.9845619"><ele>247.5</ele><time>2026-04-19T08:37:07.951Z</time></trkpt><trkpt lat="41.1654944" lon="14.9844583"><ele>244.66666666666669</ele><time>2026-04-19T08:37:08.951Z</time></trkpt><trkpt lat="41.16549" lon="14.9843622"><ele>241.83333333333334</ele><time>2026-04-19T08:37:09.948Z</time></trkpt><trkpt lat="41.1654498" lon="14.9842167"><ele>239.0</ele><time>2026-04-19T08:37:11.947Z</time></trkpt><trkpt lat="41.1654133" lon="14.9841317"><ele>236.50000000000003</ele><time>2026-04-19T08:37:12.947Z</time></trkpt><trkpt lat="41.1653689" lon="14.9840317"><ele>234.0</ele><time>2026-04-19T08:37:13.954Z</time></trkpt><trkpt lat="41.1653207" lon="14.9839306"><ele>231.5</ele><time>2026-04-19T08:37:14.947Z</time></trkpt><trkpt lat="41.1652832" lon="14.9838413"><ele>229.0</ele><time>2026-04-19T08:37:15.948Z</time></trkpt><trkpt lat="41.1652561" lon="14.9837562"><ele>226.50000000000003</ele><time>2026-04-19T08:37:16.951Z</time></trkpt><trkpt lat="41.1652436" lon="14.9836553"><ele>224.0</ele><time>2026-04-19T08:37:17.948Z</time></trkpt><trkpt lat="41.1652457" lon="14.9835683"><ele>224.0</ele><time>2026-04-19T08:37:18.95Z</time></trkpt><trkpt lat="41.1652856" lon="14.9834584"><ele>223.99999999999997</ele><time>2026-04-19T08:37:20.953Z</time></trkpt><trkpt lat="41.1654117" lon="14.9834239"><ele>223.99999999999997</ele><time>2026-04-19T08:37:22.951Z</time></trkpt><trkpt lat="41.1655041" lon="14.9834241"><ele>224.0</ele><time>2026-04-19T08:37:23.949Z</time></trkpt><trkpt lat="41.1655854" lon="14.9834349"><ele>224.0</ele><time>2026-04-19T08:37:24.951Z</time></trkpt><trkpt lat="41.1656785" lon="14.9833604"><ele>223.5</ele><time>2026-04-19T08:37:27.946Z</time></trkpt><trkpt lat="41.1657462" lon="14.9832737"><ele>223.0</ele><time>2026-04-19T08:37:28.952Z</time></trkpt><trkpt lat="41.1657967" lon="14.983148"><ele>222.5</ele><time>2026-04-19T08:37:29.946Z</time></trkpt><trkpt lat="41.1658338" lon="14.9829893"><ele>222.0</ele><time>2026-04-19T08:37:30.947Z</time></trkpt><trkpt lat="41.1658665" lon="14.9828211"><ele>222.0</ele><time>2026-04-19T08:37:32.019Z</time></trkpt><trkpt lat="41.1659097" lon="14.9826512"><ele>222.0</ele><time>2026-04-19T08:37:32.948Z</time></trkpt><trkpt lat="41.1659585" lon="14.9824789"><ele>222.0</ele><time>2026-04-19T08:37:33.955Z</time></trkpt><trkpt lat="41.1660135" lon="14.9823137"><ele>222.0</ele><time>2026-04-19T08:37:34.987Z</time></trkpt><trkpt lat="41.1660794" lon="14.9821567"><ele>224.5</ele><time>2026-04-19T08:37:35.95Z</time></trkpt><trkpt lat="41.1661454" lon="14.9820082"><ele>227.0</ele><time>2026-04-19T08:37:36.95Z</time></trkpt><trkpt lat="41.1662134" lon="14.9818641"><ele>229.5</ele><time>2026-04-19T08:37:37.95Z</time></trkpt><trkpt lat="41.1662827" lon="14.9817149"><ele>232.0</ele><time>2026-04-19T08:37:38.949Z</time></trkpt><trkpt lat="41.1663409" lon="14.9815502"><ele>237.0</ele><time>2026-04-19T08:37:39.949Z</time></trkpt><trkpt lat="41.1663985" lon="14.9813861"><ele>242.0</ele><time>2026-04-19T08:37:41.023Z</time></trkpt><trkpt lat="41.1664547" lon="14.9812239"><ele>247.0</ele><time>2026-04-19T08:37:42.031Z</time></trkpt><trkpt lat="41.1665049" lon="14.9810697"><ele>252.0</ele><time>2026-04-19T08:37:42.945Z</time></trkpt><trkpt lat="41.1665554" lon="14.9809172"><ele>258.5</ele><time>2026-04-19T08:37:43.954Z</time></trkpt><trkpt lat="41.1666062" lon="14.9807709"><ele>265.0</ele><time>2026-04-19T08:37:44.943Z</time></trkpt><trkpt lat="41.1666574" lon="14.9806253"><ele>271.5</ele><time>2026-04-19T08:37:45.95Z</time></trkpt><trkpt lat="41.1667032" lon="14.9804777"><ele>278.0</ele><time>2026-04-19T08:37:46.952Z</time></trkpt><trkpt lat="41.1667476" lon="14.9803238"><ele>278.0</ele><time>2026-04-19T08:37:47.944Z</time></trkpt><trkpt lat="41.1667847" lon="14.9801769"><ele>278.0</ele><time>2026-04-19T08:37:48.946Z</time></trkpt><trkpt lat="41.1668048" lon="14.9800415"><ele>278.0</ele><time>2026-04-19T08:37:49.981Z</time></trkpt><trkpt lat="41.1668183" lon="14.9799085"><ele>278.0</ele><time>2026-04-19T08:37:50.942Z</time></trkpt><trkpt lat="41.166823" lon="14.9797691"><ele>278.0</ele><time>2026-04-19T08:37:51.953Z</time></trkpt><trkpt lat="41.1668287" lon="14.9796323"><ele>282.25</ele><time>2026-04-19T08:37:52.95Z</time></trkpt><trkpt lat="41.1668349" lon="14.9794837"><ele>286.5</ele><time>2026-04-19T08:37:53.949Z</time></trkpt><trkpt lat="41.1668395" lon="14.9793218"><ele>290.75</ele><time>2026-04-19T08:37:54.982Z</time></trkpt><trkpt lat="41.1668494" lon="14.9791619"><ele>295.0</ele><time>2026-04-19T08:37:55.948Z</time></trkpt><trkpt lat="41.1668584" lon="14.9789937"><ele>299.0</ele><time>2026-04-19T08:37:56.945Z</time></trkpt><trkpt lat="41.1668693" lon="14.9788343"><ele>303.0</ele><time>2026-04-19T08:37:57.952Z</time></trkpt><trkpt lat="41.1668766" lon="14.9786867"><ele>307.0</ele><time>2026-04-19T08:37:58.95Z</time></trkpt><trkpt lat="41.1668881" lon="14.9785375"><ele>311.0</ele><time>2026-04-19T08:37:59.956Z</time></trkpt><trkpt lat="41.1668955" lon="14.9783818"><ele>315.25</ele><time>2026-04-19T08:38:00.949Z</time></trkpt><trkpt lat="41.1668973" lon="14.9782217"><ele>319.5</ele><time>2026-04-19T08:38:01.951Z</time></trkpt><trkpt lat="41.1668992" lon="14.978062"><ele>323.75</ele><time>2026-04-19T08:38:02.952Z</time></trkpt><trkpt lat="41.1669024" lon="14.9778998"><ele>328.0</ele><time>2026-04-19T08:38:03.952Z</time></trkpt><trkpt lat="41.1669048" lon="14.9777589"><ele>328.0</ele><time>2026-04-19T08:38:04.951Z</time></trkpt><trkpt lat="41.1669133" lon="14.9776172"><ele>328.0</ele><time>2026-04-19T08:38:06.03Z</time></trkpt><trkpt lat="41.1669292" lon="14.9774916"><ele>328.0</ele><time>2026-04-19T08:38:06.955Z</time></trkpt><trkpt lat="41.1669602" lon="14.9773805"><ele>328.0</ele><time>2026-04-19T08:38:08.955Z</time></trkpt><trkpt lat="41.167086" lon="14.9774229"><ele>328.0</ele><time>2026-04-19T08:38:11.956Z</time></trkpt><trkpt lat="41.1671629" lon="14.9774873"><ele>328.0</ele><time>2026-04-19T08:38:12.957Z</time></trkpt><trkpt lat="41.1672657" lon="14.9775526"><ele>328.0</ele><time>2026-04-19T08:38:13.955Z</time></trkpt><trkpt lat="41.1673761" lon="14.9775983"><ele>328.0</ele><time>2026-04-19T08:38:14.949Z</time></trkpt><trkpt lat="41.167506" lon="14.9776236"><ele>328.0</ele><time>2026-04-19T08:38:15.955Z</time></trkpt><trkpt lat="41.167628" lon="14.9776114"><ele>332.0</ele><time>2026-04-19T08:38:16.957Z</time></trkpt><trkpt lat="41.1677289" lon="14.9775437"><ele>336.0</ele><time>2026-04-19T08:38:17.956Z</time></trkpt><trkpt lat="41.1678331" lon="14.9774337"><ele>340.0</ele><time>2026-04-19T08:38:18.95Z</time></trkpt><trkpt lat="41.1679316" lon="14.9773248"><ele>344.0</ele><time>2026-04-19T08:38:19.952Z</time></trkpt><trkpt lat="41.1680342" lon="14.9772212"><ele>345.79999999999995</ele><time>2026-04-19T08:38:21.036Z</time></trkpt><trkpt lat="41.1681257" lon="14.9771191"><ele>347.59999999999997</ele><time>2026-04-19T08:38:22.03Z</time></trkpt><trkpt lat="41.1682068" lon="14.9770162"><ele>349.4</ele><time>2026-04-19T08:38:22.951Z</time></trkpt><trkpt lat="41.1682796" lon="14.9769101"><ele>351.2</ele><time>2026-04-19T08:38:23.947Z</time></trkpt><trkpt lat="41.1683502" lon="14.976805"><ele>353.0</ele><time>2026-04-19T08:38:24.951Z</time></trkpt><trkpt lat="41.1684204" lon="14.9767123"><ele>353.5</ele><time>2026-04-19T08:38:25.954Z</time></trkpt><trkpt lat="41.1684855" lon="14.9766414"><ele>354.0</ele><time>2026-04-19T08:38:26.953Z</time></trkpt><trkpt lat="41.1685539" lon="14.9765946"><ele>354.5</ele><time>2026-04-19T08:38:27.951Z</time></trkpt><trkpt lat="41.1686173" lon="14.9765649"><ele>355.0</ele><time>2026-04-19T08:38:29.033Z</time></trkpt><trkpt lat="41.1687385" lon="14.9765645"><ele>355.5</ele><time>2026-04-19T08:38:31.001Z</time></trkpt><trkpt lat="41.1688156" lon="14.9766086"><ele>356.0</ele><time>2026-04-19T08:38:32.026Z</time></trkpt><trkpt lat="41.168896" lon="14.9766695"><ele>357.0</ele><time>2026-04-19T08:38:32.955Z</time></trkpt><trkpt lat="41.1689733" lon="14.9767418"><ele>358.0</ele><time>2026-04-19T08:38:33.955Z</time></trkpt><trkpt lat="41.169042" lon="14.9768152"><ele>359.0</ele><time>2026-04-19T08:38:35.011Z</time></trkpt><trkpt lat="41.1690912" lon="14.9768786"><ele>360.0</ele><time>2026-04-19T08:38:35.952Z</time></trkpt><trkpt lat="41.1691367" lon="14.97694"><ele>361.0</ele><time>2026-04-19T08:38:38.957Z</time></trkpt><trkpt lat="41.1691893" lon="14.9768653"><ele>362.0</ele><time>2026-04-19T08:38:52.958Z</time></trkpt><trkpt lat="41.169237" lon="14.9767917"><ele>362.0</ele><time>2026-04-19T08:38:53.96Z</time></trkpt><trkpt lat="41.1692949" lon="14.9767028"><ele>362.0</ele><time>2026-04-19T08:38:54.958Z</time></trkpt><trkpt lat="41.1693608" lon="14.9766141"><ele>362.0</ele><time>2026-04-19T08:38:55.962Z</time></trkpt><trkpt lat="41.1694435" lon="14.9765502"><ele>362.0</ele><time>2026-04-19T08:38:56.955Z</time></trkpt><trkpt lat="41.1695374" lon="14.9764915"><ele>362.0</ele><time>2026-04-19T08:38:57.957Z</time></trkpt><trkpt lat="41.1696419" lon="14.9764569"><ele>362.0</ele><time>2026-04-19T08:38:59.024Z</time></trkpt><trkpt lat="41.1697477" lon="14.9764384"><ele>362.0</ele><time>2026-04-19T08:39:00.027Z</time></trkpt><trkpt lat="41.1698604" lon="14.9764241"><ele>362.0</ele><time>2026-04-19T08:39:01.012Z</time></trkpt><trkpt lat="41.1699758" lon="14.9764061"><ele>362.0</ele><time>2026-04-19T08:39:01.95Z</time></trkpt><trkpt lat="41.1700868" lon="14.9763673"><ele>364.25</ele><time>2026-04-19T08:39:02.941Z</time></trkpt><trkpt lat="41.1702047" lon="14.9763011"><ele>366.5</ele><time>2026-04-19T08:39:03.953Z</time></trkpt><trkpt lat="41.1703158" lon="14.9762145"><ele>368.75</ele><time>2026-04-19T08:39:05.031Z</time></trkpt><trkpt lat="41.1704126" lon="14.9761395"><ele>371.0</ele><time>2026-04-19T08:39:06.027Z</time></trkpt><trkpt lat="41.1704968" lon="14.9760882"><ele>371.0</ele><time>2026-04-19T08:39:07.027Z</time></trkpt><trkpt lat="41.1705894" lon="14.9760585"><ele>371.0</ele><time>2026-04-19T08:39:07.957Z</time></trkpt><trkpt lat="41.1706935" lon="14.9760483"><ele>371.0</ele><time>2026-04-19T08:39:08.953Z</time></trkpt><trkpt lat="41.1707899" lon="14.9760442"><ele>371.0</ele><time>2026-04-19T08:39:10.054Z</time></trkpt><trkpt lat="41.1708755" lon="14.9760166"><ele>371.0</ele><time>2026-04-19T08:39:12.028Z</time></trkpt><trkpt lat="41.1708529" lon="14.9758754"><ele>369.6</ele><time>2026-04-19T08:39:13.955Z</time></trkpt><trkpt lat="41.1708346" lon="14.9757666"><ele>368.20000000000005</ele><time>2026-04-19T08:39:14.946Z</time></trkpt><trkpt lat="41.170837" lon="14.9756386"><ele>366.79999999999995</ele><time>2026-04-19T08:39:15.996Z</time></trkpt><trkpt lat="41.1708508" lon="14.9754909"><ele>365.4</ele><time>2026-04-19T08:39:17.03Z</time></trkpt><trkpt lat="41.17088" lon="14.97535"><ele>364.0</ele><time>2026-04-19T08:39:17.961Z</time></trkpt><trkpt lat="41.1709174" lon="14.9752209"><ele>364.0</ele><time>2026-04-19T08:39:18.957Z</time></trkpt><trkpt lat="41.1709476" lon="14.9750899"><ele>364.0</ele><time>2026-04-19T08:39:19.962Z</time></trkpt><trkpt lat="41.1709807" lon="14.974948"><ele>364.0</ele><time>2026-04-19T08:39:20.955Z</time></trkpt><trkpt lat="41.1709978" lon="14.9748116"><ele>364.0</ele><time>2026-04-19T08:39:21.963Z</time></trkpt><trkpt lat="41.171008" lon="14.9746688"><ele>364.0</ele><time>2026-04-19T08:39:22.96Z</time></trkpt><trkpt lat="41.1710226" lon="14.9745202"><ele>361.5</ele><time>2026-04-19T08:39:23.962Z</time></trkpt><trkpt lat="41.1710345" lon="14.9743737"><ele>359.0</ele><time>2026-04-19T08:39:25.015Z</time></trkpt><trkpt lat="41.1710289" lon="14.9742291"><ele>356.5</ele><time>2026-04-19T08:39:25.962Z</time></trkpt><trkpt lat="41.1710032" lon="14.9740896"><ele>354.0</ele><time>2026-04-19T08:39:26.991Z</time></trkpt><trkpt lat="41.1709688" lon="14.9739238"><ele>351.25</ele><time>2026-04-19T08:39:27.959Z</time></trkpt><trkpt lat="41.1709371" lon="14.9737656"><ele>348.5</ele><time>2026-04-19T08:39:28.96Z</time></trkpt><trkpt lat="41.1709143" lon="14.9736171"><ele>345.75</ele><time>2026-04-19T08:39:29.965Z</time></trkpt><trkpt lat="41.1708934" lon="14.9734654"><ele>343.0</ele><time>2026-04-19T08:39:30.965Z</time></trkpt><trkpt lat="41.1708748" lon="14.9733228"><ele>341.3333333333333</ele><time>2026-04-19T08:39:31.963Z</time></trkpt><trkpt lat="41.1708521" lon="14.9731867"><ele>339.66666666666663</ele><time>2026-04-19T08:39:32.961Z</time></trkpt><trkpt lat="41.1708307" lon="14.9730644"><ele>338.0</ele><time>2026-04-19T08:39:33.952Z</time></trkpt><trkpt lat="41.1708013" lon="14.9729645"><ele>336.3333333333333</ele><time>2026-04-19T08:39:34.96Z</time></trkpt><trkpt lat="41.1707608" lon="14.9728829"><ele>334.6666666666667</ele><time>2026-04-19T08:39:35.961Z</time></trkpt><trkpt lat="41.1707025" lon="14.9728259"><ele>333.0</ele><time>2026-04-19T08:39:36.966Z</time></trkpt><trkpt lat="41.17063" lon="14.972793"><ele>330.59999999999997</ele><time>2026-04-19T08:39:37.964Z</time></trkpt><trkpt lat="41.1705489" lon="14.9727389"><ele>328.2</ele><time>2026-04-19T08:39:38.965Z</time></trkpt><trkpt lat="41.1704775" lon="14.9726575"><ele>325.8</ele><time>2026-04-19T08:39:40.034Z</time></trkpt><trkpt lat="41.1704199" lon="14.9725541"><ele>323.4</ele><time>2026-04-19T08:39:41.034Z</time></trkpt><trkpt lat="41.1703705" lon="14.9724477"><ele>321.0</ele><time>2026-04-19T08:39:42.032Z</time></trkpt><trkpt lat="41.1703216" lon="14.9723361"><ele>319.8</ele><time>2026-04-19T08:39:43.001Z</time></trkpt><trkpt lat="41.1702743" lon="14.9722195"><ele>318.6</ele><time>2026-04-19T08:39:44.037Z</time></trkpt><trkpt lat="41.1702266" lon="14.9720952"><ele>317.4</ele><time>2026-04-19T08:39:45.027Z</time></trkpt><trkpt lat="41.1701946" lon="14.9719804"><ele>316.2</ele><time>2026-04-19T08:39:46.027Z</time></trkpt><trkpt lat="41.1701717" lon="14.9718638"><ele>315.0</ele><time>2026-04-19T08:39:47.032Z</time></trkpt><trkpt lat="41.1701602" lon="14.9717371"><ele>312.6666666666667</ele><time>2026-04-19T08:39:47.952Z</time></trkpt><trkpt lat="41.1701605" lon="14.9716176"><ele>310.3333333333333</ele><time>2026-04-19T08:39:48.956Z</time></trkpt><trkpt lat="41.1701693" lon="14.9715151"><ele>308.0</ele><time>2026-04-19T08:39:49.979Z</time></trkpt><trkpt lat="41.1701835" lon="14.971424"><ele>305.66666666666663</ele><time>2026-04-19T08:39:51.028Z</time></trkpt><trkpt lat="41.1701705" lon="14.9713016"><ele>303.3333333333333</ele><time>2026-04-19T08:39:52.958Z</time></trkpt><trkpt lat="41.1700836" lon="14.9712463"><ele>301.0</ele><time>2026-04-19T08:39:55.024Z</time></trkpt><trkpt lat="41.1700148" lon="14.9712477"><ele>301.0</ele><time>2026-04-19T08:39:56.031Z</time></trkpt><trkpt lat="41.169934" lon="14.9712736"><ele>301.0</ele><time>2026-04-19T08:39:56.961Z</time></trkpt><trkpt lat="41.1698544" lon="14.9713186"><ele>301.0</ele><time>2026-04-19T08:39:57.958Z</time></trkpt><trkpt lat="41.1697834" lon="14.9713929"><ele>301.0</ele><time>2026-04-19T08:39:59.02Z</time></trkpt><trkpt lat="41.1697106" lon="14.9714822"><ele>301.0</ele><time>2026-04-19T08:39:59.952Z</time></trkpt><trkpt lat="41.1696341" lon="14.9715492"><ele>297.8</ele><time>2026-04-19T08:40:01.959Z</time></trkpt><trkpt lat="41.1695386" lon="14.9715198"><ele>294.6</ele><time>2026-04-19T08:40:03.955Z</time></trkpt><trkpt lat="41.1695055" lon="14.9714352"><ele>291.4</ele><time>2026-04-19T08:40:04.95Z</time></trkpt><trkpt lat="41.1694757" lon="14.9713322"><ele>288.2</ele><time>2026-04-19T08:40:06.03Z</time></trkpt><trkpt lat="41.1694389" lon="14.9712123"><ele>285.0</ele><time>2026-04-19T08:40:07.025Z</time></trkpt><trkpt lat="41.1694073" lon="14.9710854"><ele>285.0</ele><time>2026-04-19T08:40:07.949Z</time></trkpt><trkpt lat="41.1693809" lon="14.970965"><ele>285.0</ele><time>2026-04-19T08:40:08.951Z</time></trkpt><trkpt lat="41.1693523" lon="14.9708552"><ele>285.0</ele><time>2026-04-19T08:40:09.949Z</time></trkpt><trkpt lat="41.1693235" lon="14.9707432"><ele>285.0</ele><time>2026-04-19T08:40:10.945Z</time></trkpt><trkpt lat="41.1693026" lon="14.9706354"><ele>285.0</ele><time>2026-04-19T08:40:11.951Z</time></trkpt><trkpt lat="41.1692887" lon="14.9705233"><ele>285.0</ele><time>2026-04-19T08:40:12.944Z</time></trkpt><trkpt lat="41.1692753" lon="14.9703956"><ele>283.0</ele><time>2026-04-19T08:40:14.023Z</time></trkpt><trkpt lat="41.1692616" lon="14.9702875"><ele>281.0</ele><time>2026-04-19T08:40:15.031Z</time></trkpt><trkpt lat="41.1692529" lon="14.9701927"><ele>279.0</ele><time>2026-04-19T08:40:16.022Z</time></trkpt><trkpt lat="41.1692448" lon="14.970094"><ele>277.0</ele><time>2026-04-19T08:40:17.028Z</time></trkpt><trkpt lat="41.1692426" lon="14.9699915"><ele>275.0</ele><time>2026-04-19T08:40:17.95Z</time></trkpt><trkpt lat="41.1692454" lon="14.9698935"><ele>273.0</ele><time>2026-04-19T08:40:18.95Z</time></trkpt><trkpt lat="41.1692553" lon="14.9698018"><ele>270.8</ele><time>2026-04-19T08:40:19.954Z</time></trkpt><trkpt lat="41.1692781" lon="14.9696906"><ele>268.6</ele><time>2026-04-19T08:40:22.028Z</time></trkpt><trkpt lat="41.1692935" lon="14.9695582"><ele>266.4</ele><time>2026-04-19T08:40:23.943Z</time></trkpt><trkpt lat="41.1692986" lon="14.9694694"><ele>264.2</ele><time>2026-04-19T08:40:24.945Z</time></trkpt><trkpt lat="41.1692999" lon="14.9693458"><ele>262.0</ele><time>2026-04-19T08:40:26.029Z</time></trkpt><trkpt lat="41.1693" lon="14.9692046"><ele>259.2</ele><time>2026-04-19T08:40:27.031Z</time></trkpt><trkpt lat="41.1692957" lon="14.969059"><ele>256.4</ele><time>2026-04-19T08:40:27.956Z</time></trkpt><trkpt lat="41.1692923" lon="14.9689109"><ele>253.60000000000002</ele><time>2026-04-19T08:40:28.958Z</time></trkpt><trkpt lat="41.1692872" lon="14.9687843"><ele>250.8</ele><time>2026-04-19T08:40:29.963Z</time></trkpt><trkpt lat="41.1692782" lon="14.968666"><ele>248.0</ele><time>2026-04-19T08:40:30.956Z</time></trkpt><trkpt lat="41.1692692" lon="14.9685408"><ele>248.0</ele><time>2026-04-19T08:40:31.957Z</time></trkpt><trkpt lat="41.1692548" lon="14.9684063"><ele>248.0</ele><time>2026-04-19T08:40:32.955Z</time></trkpt><trkpt lat="41.1692486" lon="14.9682709"><ele>248.0</ele><time>2026-04-19T08:40:33.955Z</time></trkpt><trkpt lat="41.1692406" lon="14.9681288"><ele>248.0</ele><time>2026-04-19T08:40:34.97Z</time></trkpt><trkpt lat="41.1692294" lon="14.9679792"><ele>248.0</ele><time>2026-04-19T08:40:35.957Z</time></trkpt><trkpt lat="41.1692174" lon="14.9678308"><ele>245.2</ele><time>2026-04-19T08:40:37.028Z</time></trkpt><trkpt lat="41.1692043" lon="14.9676904"><ele>242.4</ele><time>2026-04-19T08:40:37.949Z</time></trkpt><trkpt lat="41.1691936" lon="14.9675545"><ele>239.59999999999997</ele><time>2026-04-19T08:40:38.947Z</time></trkpt><trkpt lat="41.1691829" lon="14.9674149"><ele>236.79999999999998</ele><time>2026-04-19T08:40:39.948Z</time></trkpt><trkpt lat="41.1691722" lon="14.967261"><ele>234.0</ele><time>2026-04-19T08:40:40.947Z</time></trkpt><trkpt lat="41.1691624" lon="14.9671123"><ele>231.6</ele><time>2026-04-19T08:40:41.942Z</time></trkpt><trkpt lat="41.1691546" lon="14.9669756"><ele>229.2</ele><time>2026-04-19T08:40:42.951Z</time></trkpt><trkpt lat="41.1691451" lon="14.9668427"><ele>226.79999999999998</ele><time>2026-04-19T08:40:43.945Z</time></trkpt><trkpt lat="41.1691336" lon="14.9666991"><ele>224.39999999999998</ele><time>2026-04-19T08:40:45.028Z</time></trkpt><trkpt lat="41.1691209" lon="14.9665539"><ele>222.0</ele><time>2026-04-19T08:40:46.032Z</time></trkpt><trkpt lat="41.1691101" lon="14.9664303"><ele>219.39999999999998</ele><time>2026-04-19T08:40:47.027Z</time></trkpt><trkpt lat="41.169101" lon="14.9663198"><ele>216.79999999999998</ele><time>2026-04-19T08:40:47.946Z</time></trkpt><trkpt lat="41.169098" lon="14.9661852"><ele>214.2</ele><time>2026-04-19T08:40:48.953Z</time></trkpt><trkpt lat="41.1690889" lon="14.9660432"><ele>211.6</ele><time>2026-04-19T08:40:50.053Z</time></trkpt><trkpt lat="41.1690758" lon="14.9659156"><ele>209.0</ele><time>2026-04-19T08:40:51.028Z</time></trkpt><trkpt lat="41.1690683" lon="14.9658083"><ele>207.66666666666669</ele><time>2026-04-19T08:40:52.026Z</time></trkpt><trkpt lat="41.1690514" lon="14.9657059"><ele>206.33333333333334</ele><time>2026-04-19T08:40:52.959Z</time></trkpt><trkpt lat="41.1690302" lon="14.9656153"><ele>205.0</ele><time>2026-04-19T08:40:53.955Z</time></trkpt><trkpt lat="41.1690077" lon="14.9655246"><ele>203.66666666666669</ele><time>2026-04-19T08:40:54.981Z</time></trkpt><trkpt lat="41.1689927" lon="14.9654062"><ele>202.33333333333334</ele><time>2026-04-19T08:40:56.031Z</time></trkpt><trkpt lat="41.1689832" lon="14.9652601"><ele>201.0</ele><time>2026-04-19T08:40:57.028Z</time></trkpt><trkpt lat="41.1689732" lon="14.9651089"><ele>198.25</ele><time>2026-04-19T08:40:57.956Z</time></trkpt><trkpt lat="41.1689637" lon="14.9649539"><ele>195.5</ele><time>2026-04-19T08:40:58.96Z</time></trkpt><trkpt lat="41.1689499" lon="14.9647952"><ele>192.75</ele><time>2026-04-19T08:40:59.957Z</time></trkpt><trkpt lat="41.1689364" lon="14.9646375"><ele>190.0</ele><time>2026-04-19T08:41:00.961Z</time></trkpt><trkpt lat="41.168924" lon="14.9644873"><ele>190.0</ele><time>2026-04-19T08:41:02.03Z</time></trkpt><trkpt lat="41.1689108" lon="14.9643436"><ele>190.0</ele><time>2026-04-19T08:41:02.954Z</time></trkpt><trkpt lat="41.1689007" lon="14.9642244"><ele>190.0</ele><time>2026-04-19T08:41:03.955Z</time></trkpt><trkpt lat="41.1689094" lon="14.9640923"><ele>190.0</ele><time>2026-04-19T08:41:06.035Z</time></trkpt><trkpt lat="41.1689566" lon="14.9640103"><ele>190.0</ele><time>2026-04-19T08:41:07.951Z</time></trkpt><trkpt lat="41.1690724" lon="14.9639901"><ele>190.0</ele><time>2026-04-19T08:41:09.991Z</time></trkpt><trkpt lat="41.1691647" lon="14.964004"><ele>190.0</ele><time>2026-04-19T08:41:11.029Z</time></trkpt><trkpt lat="41.1692779" lon="14.9640153"><ele>190.0</ele><time>2026-04-19T08:41:12.038Z</time></trkpt><trkpt lat="41.1694196" lon="14.9640115"><ele>190.0</ele><time>2026-04-19T08:41:12.948Z</time></trkpt><trkpt lat="41.1695928" lon="14.9640018"><ele>190.0</ele><time>2026-04-19T08:41:13.95Z</time></trkpt><trkpt lat="41.1697813" lon="14.9639977"><ele>190.0</ele><time>2026-04-19T08:41:14.943Z</time></trkpt><trkpt lat="41.1699536" lon="14.9640003"><ele>190.0</ele><time>2026-04-19T08:41:15.946Z</time></trkpt><trkpt lat="41.1701012" lon="14.9640117"><ele>190.0</ele><time>2026-04-19T08:41:16.946Z</time></trkpt><trkpt lat="41.1702559" lon="14.9640298"><ele>190.0</ele><time>2026-04-19T08:41:17.96Z</time></trkpt><trkpt lat="41.1704255" lon="14.9640623"><ele>190.0</ele><time>2026-04-19T08:41:19.031Z</time></trkpt><trkpt lat="41.1705885" lon="14.9640955"><ele>190.33333333333334</ele><time>2026-04-19T08:41:20.031Z</time></trkpt><trkpt lat="41.1707428" lon="14.9641266"><ele>190.66666666666666</ele><time>2026-04-19T08:41:21.033Z</time></trkpt><trkpt lat="41.1709042" lon="14.9641552"><ele>191.0</ele><time>2026-04-19T08:41:21.949Z</time></trkpt><trkpt lat="41.1710694" lon="14.9641706"><ele>191.0</ele><time>2026-04-19T08:41:22.953Z</time></trkpt><trkpt lat="41.1712372" lon="14.9641865"><ele>191.0</ele><time>2026-04-19T08:41:23.946Z</time></trkpt><trkpt lat="41.1714071" lon="14.9641963"><ele>191.0</ele><time>2026-04-19T08:41:24.95Z</time></trkpt><trkpt lat="41.1715713" lon="14.9641961"><ele>191.33333333333331</ele><time>2026-04-19T08:41:25.949Z</time></trkpt><trkpt lat="41.1717363" lon="14.9641986"><ele>191.66666666666666</ele><time>2026-04-19T08:41:27.03Z</time></trkpt><trkpt lat="41.1718987" lon="14.9642002"><ele>192.0</ele><time>2026-04-19T08:41:27.95Z</time></trkpt><trkpt lat="41.1720529" lon="14.9641953"><ele>192.0</ele><time>2026-04-19T08:41:28.964Z</time></trkpt><trkpt lat="41.1721756" lon="14.9641624"><ele>192.0</ele><time>2026-04-19T08:41:30.029Z</time></trkpt><trkpt lat="41.1722753" lon="14.9641122"><ele>192.0</ele><time>2026-04-19T08:41:30.971Z</time></trkpt><trkpt lat="41.1723908" lon="14.9640457"><ele>192.0</ele><time>2026-04-19T08:41:32.019Z</time></trkpt><trkpt lat="41.1725022" lon="14.9639402"><ele>192.5</ele><time>2026-04-19T08:41:32.949Z</time></trkpt><trkpt lat="41.1726146" lon="14.9638211"><ele>193.0</ele><time>2026-04-19T08:41:33.95Z</time></trkpt><trkpt lat="41.1727291" lon="14.9637019"><ele>193.5</ele><time>2026-04-19T08:41:34.949Z</time></trkpt><trkpt lat="41.1728297" lon="14.9635973"><ele>194.0</ele><time>2026-04-19T08:41:35.953Z</time></trkpt><trkpt lat="41.172933" lon="14.9635222"><ele>194.0</ele><time>2026-04-19T08:41:36.945Z</time></trkpt><trkpt lat="41.173045" lon="14.96346"><ele>194.0</ele><time>2026-04-19T08:41:37.953Z</time></trkpt><trkpt lat="41.1731734" lon="14.9634086"><ele>194.0</ele><time>2026-04-19T08:41:38.955Z</time></trkpt><trkpt lat="41.1733069" lon="14.9633652"><ele>194.0</ele><time>2026-04-19T08:41:40.015Z</time></trkpt><trkpt lat="41.1734461" lon="14.9633212"><ele>194.0</ele><time>2026-04-19T08:41:40.948Z</time></trkpt><trkpt lat="41.173582" lon="14.9632821"><ele>194.0</ele><time>2026-04-19T08:41:41.948Z</time></trkpt><trkpt lat="41.1737028" lon="14.9632436"><ele>194.0</ele><time>2026-04-19T08:41:42.956Z</time></trkpt><trkpt lat="41.1738055" lon="14.9632108"><ele>194.0</ele><time>2026-04-19T08:41:44.029Z</time></trkpt><trkpt lat="41.1739019" lon="14.9631816"><ele>194.00000000000003</ele><time>2026-04-19T08:41:45.029Z</time></trkpt><trkpt lat="41.1739844" lon="14.9631415"><ele>194.0</ele><time>2026-04-19T08:41:46.03Z</time></trkpt><trkpt lat="41.1740426" lon="14.9630917"><ele>194.0</ele><time>2026-04-19T08:41:47.028Z</time></trkpt><trkpt lat="41.1741181" lon="14.9630083"><ele>194.0</ele><time>2026-04-19T08:41:49.029Z</time></trkpt><trkpt lat="41.1741808" lon="14.9629808"><ele>194.00000000000003</ele><time>2026-04-19T08:43:29.945Z</time></trkpt><trkpt lat="41.1742443" lon="14.9630311"><ele>194.0</ele><time>2026-04-19T08:43:50.956Z</time></trkpt><trkpt lat="41.1742987" lon="14.9631495"><ele>194.00000000000003</ele><time>2026-04-19T08:44:06.96Z</time></trkpt><trkpt lat="41.1743216" lon="14.9632362"><ele>194.0</ele><time>2026-04-19T08:44:07.956Z</time></trkpt><trkpt lat="41.1743637" lon="14.9633453"><ele>194.0</ele><time>2026-04-19T08:44:09.961Z</time></trkpt><trkpt lat="41.1744365" lon="14.9634682"><ele>194.0</ele><time>2026-04-19T08:44:11.957Z</time></trkpt><trkpt lat="41.1744409" lon="14.9635942"><ele>194.00000000000003</ele><time>2026-04-19T08:44:14.029Z</time></trkpt><trkpt lat="41.1743941" lon="14.9636618"><ele>194.0</ele><time>2026-04-19T08:44:15.029Z</time></trkpt><trkpt lat="41.1743415" lon="14.9637338"><ele>195.0</ele><time>2026-04-19T08:44:16.036Z</time></trkpt><trkpt lat="41.1743005" lon="14.9638296"><ele>196.0</ele><time>2026-04-19T08:44:17.952Z</time></trkpt><trkpt lat="41.1743773" lon="14.9638559"><ele>197.0</ele><time>2026-04-19T08:44:19.953Z</time></trkpt><trkpt lat="41.1745017" lon="14.9638157"><ele>198.0</ele><time>2026-04-19T08:44:20.946Z</time></trkpt><trkpt lat="41.1746279" lon="14.9637702"><ele>199.0</ele><time>2026-04-19T08:44:21.944Z</time></trkpt><trkpt lat="41.1747092" lon="14.9637672"><ele>199.0</ele><time>2026-04-19T08:44:22.938Z</time></trkpt><trkpt lat="41.1748018" lon="14.963834"><ele>199.0</ele><time>2026-04-19T08:44:24.984Z</time></trkpt><trkpt lat="41.1748322" lon="14.9639382"><ele>199.0</ele><time>2026-04-19T08:44:26.958Z</time></trkpt><trkpt lat="41.1748669" lon="14.9640129"><ele>199.0</ele><time>2026-04-19T08:44:28.946Z</time></trkpt><trkpt lat="41.1749143" lon="14.9640879"><ele>199.0</ele><time>2026-04-19T08:44:31.029Z</time></trkpt><trkpt lat="41.1748052" lon="14.9641553"><ele>199.0</ele><time>2026-04-19T08:44:32.951Z</time></trkpt><trkpt lat="41.1747432" lon="14.9641813"><ele>199.0</ele><time>2026-04-19T08:44:34.944Z</time></trkpt><trkpt lat="41.1746783" lon="14.9642001"><ele>199.0</ele><time>2026-04-19T08:44:36.955Z</time></trkpt><trkpt lat="41.174556" lon="14.9642616"><ele>199.0</ele><time>2026-04-19T08:44:38.953Z</time></trkpt><trkpt lat="41.1744725" lon="14.9643642"><ele>199.0</ele><time>2026-04-19T08:44:41.028Z</time></trkpt><trkpt lat="41.1743759" lon="14.9645333"><ele>201.16666666666666</ele><time>2026-04-19T08:44:42.95Z</time></trkpt><trkpt lat="41.1743256" lon="14.9646694"><ele>203.33333333333331</ele><time>2026-04-19T08:44:43.948Z</time></trkpt><trkpt lat="41.1742922" lon="14.9647506"><ele>205.5</ele><time>2026-04-19T08:44:44.947Z</time></trkpt><trkpt lat="41.1741954" lon="14.964819"><ele>207.66666666666669</ele><time>2026-04-19T08:44:47.05Z</time></trkpt><trkpt lat="41.1741487" lon="14.9649114"><ele>209.83333333333334</ele><time>2026-04-19T08:44:48.95Z</time></trkpt><trkpt lat="41.1741431" lon="14.9650054"><ele>212.0</ele><time>2026-04-19T08:44:50.947Z</time></trkpt><trkpt lat="41.1741996" lon="14.9651075"><ele>214.39999999999998</ele><time>2026-04-19T08:44:52.051Z</time></trkpt><trkpt lat="41.1742229" lon="14.9652057"><ele>216.79999999999998</ele><time>2026-04-19T08:44:53.949Z</time></trkpt><trkpt lat="41.1741753" lon="14.9653472"><ele>219.2</ele><time>2026-04-19T08:44:55.974Z</time></trkpt><trkpt lat="41.1741743" lon="14.9654477"><ele>221.6</ele><time>2026-04-19T08:44:56.95Z</time></trkpt><trkpt lat="41.1741923" lon="14.9655712"><ele>224.0</ele><time>2026-04-19T08:44:57.947Z</time></trkpt><trkpt lat="41.1742149" lon="14.9656879"><ele>224.00000000000003</ele><time>2026-04-19T08:44:58.946Z</time></trkpt><trkpt lat="41.1742391" lon="14.96578"><ele>224.0</ele><time>2026-04-19T08:44:59.939Z</time></trkpt><trkpt lat="41.1742691" lon="14.9658957"><ele>224.0</ele><time>2026-04-19T08:45:01.946Z</time></trkpt><trkpt lat="41.1742567" lon="14.9660191"><ele>224.0</ele><time>2026-04-19T08:45:04.946Z</time></trkpt><trkpt lat="41.1743253" lon="14.9660757"><ele>224.00000000000003</ele><time>2026-04-19T08:45:06.945Z</time></trkpt><trkpt lat="41.1743967" lon="14.9660879"><ele>224.0</ele><time>2026-04-19T08:45:07.95Z</time></trkpt><trkpt lat="41.1744704" lon="14.9660757"><ele>226.6</ele><time>2026-04-19T08:45:08.948Z</time></trkpt><trkpt lat="41.1745812" lon="14.9660703"><ele>229.2</ele><time>2026-04-19T08:45:10.949Z</time></trkpt><trkpt lat="41.1746372" lon="14.966157"><ele>231.79999999999998</ele><time>2026-04-19T08:45:12.949Z</time></trkpt><trkpt lat="41.174622" lon="14.9662698"><ele>234.39999999999998</ele><time>2026-04-19T08:45:13.946Z</time></trkpt><trkpt lat="41.174595" lon="14.9663991"><ele>237.0</ele><time>2026-04-19T08:45:14.949Z</time></trkpt><trkpt lat="41.1745873" lon="14.9665344"><ele>237.0</ele><time>2026-04-19T08:45:15.95Z</time></trkpt><trkpt lat="41.1746037" lon="14.9666327"><ele>237.0</ele><time>2026-04-19T08:45:16.952Z</time></trkpt><trkpt lat="41.1746434" lon="14.9667053"><ele>237.0</ele><time>2026-04-19T08:45:17.956Z</time></trkpt><trkpt lat="41.1746862" lon="14.96678"><ele>237.0</ele><time>2026-04-19T08:45:19.952Z</time></trkpt><trkpt lat="41.1747267" lon="14.9668726"><ele>237.0</ele><time>2026-04-19T08:45:21.951Z</time></trkpt><trkpt lat="41.1747584" lon="14.9669839"><ele>237.0</ele><time>2026-04-19T08:45:23.952Z</time></trkpt><trkpt lat="41.1748371" lon="14.9670518"><ele>239.16666666666666</ele><time>2026-04-19T08:45:25.949Z</time></trkpt><trkpt lat="41.1749019" lon="14.9670663"><ele>241.33333333333331</ele><time>2026-04-19T08:45:26.947Z</time></trkpt><trkpt lat="41.1749624" lon="14.9669891"><ele>243.5</ele><time>2026-04-19T08:45:28.945Z</time></trkpt><trkpt lat="41.1749873" lon="14.9668903"><ele>245.66666666666666</ele><time>2026-04-19T08:45:30.949Z</time></trkpt><trkpt lat="41.1749561" lon="14.9668108"><ele>247.83333333333331</ele><time>2026-04-19T08:45:32.946Z</time></trkpt><trkpt lat="41.1749531" lon="14.9667185"><ele>250.0</ele><time>2026-04-19T08:45:34.964Z</time></trkpt><trkpt lat="41.1749095" lon="14.9666182"><ele>249.99999999999997</ele><time>2026-04-19T08:45:36.948Z</time></trkpt><trkpt lat="41.1749218" lon="14.9665139"><ele>250.0</ele><time>2026-04-19T08:45:38.952Z</time></trkpt><trkpt lat="41.1749679" lon="14.9664453"><ele>250.0</ele><time>2026-04-19T08:45:41.058Z</time></trkpt><trkpt lat="41.1750358" lon="14.9664203"><ele>250.0</ele><time>2026-04-19T08:45:43.95Z</time></trkpt><trkpt lat="41.1750797" lon="14.966523"><ele>249.99999999999997</ele><time>2026-04-19T08:45:46.029Z</time></trkpt><trkpt lat="41.1751388" lon="14.9665712"><ele>250.0</ele><time>2026-04-19T08:45:47.95Z</time></trkpt><trkpt lat="41.1752088" lon="14.9664891"><ele>249.99999999999997</ele><time>2026-04-19T08:45:50.947Z</time></trkpt><trkpt lat="41.1752836" lon="14.9663617"><ele>250.0</ele><time>2026-04-19T08:45:52.946Z</time></trkpt><trkpt lat="41.1753323" lon="14.966286"><ele>250.0</ele><time>2026-04-19T08:45:54.028Z</time></trkpt><trkpt lat="41.1753826" lon="14.9661983"><ele>250.0</ele><time>2026-04-19T08:45:55.025Z</time></trkpt><trkpt lat="41.1754354" lon="14.9660874"><ele>249.99999999999997</ele><time>2026-04-19T08:45:56.032Z</time></trkpt><trkpt lat="41.1754639" lon="14.9660091"><ele>250.0</ele><time>2026-04-19T08:45:56.967Z</time></trkpt><trkpt lat="41.1754906" lon="14.9658978"><ele>246.2</ele><time>2026-04-19T08:45:58.957Z</time></trkpt><trkpt lat="41.1754796" lon="14.9657305"><ele>242.4</ele><time>2026-04-19T08:46:00.959Z</time></trkpt><trkpt lat="41.17546" lon="14.9656099"><ele>238.60000000000002</ele><time>2026-04-19T08:46:01.954Z</time></trkpt><trkpt lat="41.1754387" lon="14.965488"><ele>234.8</ele><time>2026-04-19T08:46:02.956Z</time></trkpt><trkpt lat="41.1753965" lon="14.9653767"><ele>231.0</ele><time>2026-04-19T08:46:03.956Z</time></trkpt><trkpt lat="41.1753513" lon="14.9652956"><ele>231.0</ele><time>2026-04-19T08:46:04.981Z</time></trkpt><trkpt lat="41.1753276" lon="14.9651758"><ele>231.00000000000003</ele><time>2026-04-19T08:46:06.954Z</time></trkpt><trkpt lat="41.1753065" lon="14.9650394"><ele>231.00000000000003</ele><time>2026-04-19T08:46:08.954Z</time></trkpt><trkpt lat="41.1753282" lon="14.9649104"><ele>231.0</ele><time>2026-04-19T08:46:10.956Z</time></trkpt><trkpt lat="41.1754199" lon="14.9648348"><ele>231.0</ele><time>2026-04-19T08:46:12.952Z</time></trkpt><trkpt lat="41.1755299" lon="14.9648078"><ele>229.0</ele><time>2026-04-19T08:46:14.956Z</time></trkpt><trkpt lat="41.1755628" lon="14.964701"><ele>227.0</ele><time>2026-04-19T08:46:17.959Z</time></trkpt><trkpt lat="41.175618" lon="14.9646368"><ele>225.0</ele><time>2026-04-19T08:46:19.953Z</time></trkpt><trkpt lat="41.1756332" lon="14.9645373"><ele>223.0</ele><time>2026-04-19T08:46:22.027Z</time></trkpt><trkpt lat="41.175592" lon="14.9644033"><ele>221.0</ele><time>2026-04-19T08:46:23.95Z</time></trkpt><trkpt lat="41.1755673" lon="14.9642822"><ele>219.0</ele><time>2026-04-19T08:46:25.955Z</time></trkpt><trkpt lat="41.1754864" lon="14.9642143"><ele>216.39999999999998</ele><time>2026-04-19T08:46:27.946Z</time></trkpt><trkpt lat="41.1753774" lon="14.9640891"><ele>213.79999999999998</ele><time>2026-04-19T08:46:29.952Z</time></trkpt><trkpt lat="41.175312" lon="14.9639935"><ele>211.2</ele><time>2026-04-19T08:46:30.952Z</time></trkpt><trkpt lat="41.1752525" lon="14.9638836"><ele>208.60000000000002</ele><time>2026-04-19T08:46:32.022Z</time></trkpt><trkpt lat="41.1752081" lon="14.9637998"><ele>206.0</ele><time>2026-04-19T08:46:32.955Z</time></trkpt><trkpt lat="41.1751641" lon="14.9636734"><ele>206.0</ele><time>2026-04-19T08:46:33.95Z</time></trkpt><trkpt lat="41.175117" lon="14.9635123"><ele>206.0</ele><time>2026-04-19T08:46:34.949Z</time></trkpt><trkpt lat="41.1750768" lon="14.9633906"><ele>206.0</ele><time>2026-04-19T08:46:35.956Z</time></trkpt><trkpt lat="41.1750703" lon="14.963252"><ele>206.0</ele><time>2026-04-19T08:46:37.947Z</time></trkpt><trkpt lat="41.175194" lon="14.9631598"><ele>204.20000000000002</ele><time>2026-04-19T08:46:40.06Z</time></trkpt><trkpt lat="41.1752657" lon="14.963123"><ele>202.4</ele><time>2026-04-19T08:46:40.965Z</time></trkpt><trkpt lat="41.1753706" lon="14.9631639"><ele>200.6</ele><time>2026-04-19T08:46:43.946Z</time></trkpt><trkpt lat="41.1754842" lon="14.9632405"><ele>198.8</ele><time>2026-04-19T08:46:46.03Z</time></trkpt><trkpt lat="41.1755616" lon="14.9632471"><ele>197.0</ele><time>2026-04-19T08:46:47.027Z</time></trkpt><trkpt lat="41.1756609" lon="14.963235"><ele>197.50000000000003</ele><time>2026-04-19T08:46:47.961Z</time></trkpt><trkpt lat="41.1757421" lon="14.9632444"><ele>198.0</ele><time>2026-04-19T08:46:48.959Z</time></trkpt><trkpt lat="41.1758023" lon="14.9632865"><ele>198.5</ele><time>2026-04-19T08:46:49.964Z</time></trkpt><trkpt lat="41.1758737" lon="14.9632938"><ele>199.0</ele><time>2026-04-19T08:46:51.031Z</time></trkpt><trkpt lat="41.1759462" lon="14.9632509"><ele>199.50000000000003</ele><time>2026-04-19T08:46:52.028Z</time></trkpt><trkpt lat="41.1760195" lon="14.9632532"><ele>200.0</ele><time>2026-04-19T08:46:52.952Z</time></trkpt><trkpt lat="41.1761259" lon="14.9632611"><ele>200.0</ele><time>2026-04-19T08:46:54.95Z</time></trkpt><trkpt lat="41.1762116" lon="14.9632414"><ele>200.0</ele><time>2026-04-19T08:46:57.029Z</time></trkpt><trkpt lat="41.1762902" lon="14.9632658"><ele>200.0</ele><time>2026-04-19T08:46:57.953Z</time></trkpt><trkpt lat="41.1763835" lon="14.9633063"><ele>200.0</ele><time>2026-04-19T08:46:58.957Z</time></trkpt><trkpt lat="41.1764838" lon="14.963375"><ele>200.0</ele><time>2026-04-19T08:46:59.953Z</time></trkpt><trkpt lat="41.1765789" lon="14.9634357"><ele>201.6</ele><time>2026-04-19T08:47:01.073Z</time></trkpt><trkpt lat="41.1766606" lon="14.9634856"><ele>203.2</ele><time>2026-04-19T08:47:02.031Z</time></trkpt><trkpt lat="41.1767553" lon="14.9635367"><ele>204.8</ele><time>2026-04-19T08:47:02.954Z</time></trkpt><trkpt lat="41.176855" lon="14.9635945"><ele>206.4</ele><time>2026-04-19T08:47:03.952Z</time></trkpt><trkpt lat="41.1769563" lon="14.9636456"><ele>208.0</ele><time>2026-04-19T08:47:04.946Z</time></trkpt><trkpt lat="41.1770505" lon="14.9636952"><ele>207.99999999999997</ele><time>2026-04-19T08:47:05.948Z</time></trkpt><trkpt lat="41.1771379" lon="14.9637361"><ele>208.0</ele><time>2026-04-19T08:47:06.948Z</time></trkpt><trkpt lat="41.1772191" lon="14.9637814"><ele>208.0</ele><time>2026-04-19T08:47:07.949Z</time></trkpt><trkpt lat="41.1772969" lon="14.9638299"><ele>208.0</ele><time>2026-04-19T08:47:08.955Z</time></trkpt><trkpt lat="41.1773845" lon="14.9638768"><ele>207.99999999999997</ele><time>2026-04-19T08:47:09.966Z</time></trkpt><trkpt lat="41.1774689" lon="14.963907"><ele>208.0</ele><time>2026-04-19T08:47:10.948Z</time></trkpt><trkpt lat="41.1775724" lon="14.9639499"><ele>207.16666666666666</ele><time>2026-04-19T08:47:12.95Z</time></trkpt><trkpt lat="41.1776364" lon="14.9641044"><ele>206.33333333333331</ele><time>2026-04-19T08:47:14.953Z</time></trkpt><trkpt lat="41.1776567" lon="14.9641846"><ele>205.5</ele><time>2026-04-19T08:47:15.944Z</time></trkpt><trkpt lat="41.1777059" lon="14.9642675"><ele>204.66666666666669</ele><time>2026-04-19T08:47:16.948Z</time></trkpt><trkpt lat="41.177765" lon="14.9643432"><ele>203.83333333333334</ele><time>2026-04-19T08:47:17.949Z</time></trkpt><trkpt lat="41.1778274" lon="14.9644246"><ele>203.0</ele><time>2026-04-19T08:47:18.948Z</time></trkpt><trkpt lat="41.1778933" lon="14.9645151"><ele>203.4</ele><time>2026-04-19T08:47:19.946Z</time></trkpt><trkpt lat="41.1779734" lon="14.9646152"><ele>203.8</ele><time>2026-04-19T08:47:20.947Z</time></trkpt><trkpt lat="41.178054" lon="14.9647043"><ele>204.2</ele><time>2026-04-19T08:47:21.946Z</time></trkpt><trkpt lat="41.1781452" lon="14.9647833"><ele>204.6</ele><time>2026-04-19T08:47:22.948Z</time></trkpt><trkpt lat="41.1782332" lon="14.964866"><ele>205.0</ele><time>2026-04-19T08:47:23.945Z</time></trkpt><trkpt lat="41.1783149" lon="14.9649301"><ele>205.0</ele><time>2026-04-19T08:47:25.032Z</time></trkpt><trkpt lat="41.1784494" lon="14.9649811"><ele>205.0</ele><time>2026-04-19T08:47:27.028Z</time></trkpt><trkpt lat="41.1785474" lon="14.9650221"><ele>205.0</ele><time>2026-04-19T08:47:27.951Z</time></trkpt><trkpt lat="41.1786272" lon="14.9650863"><ele>205.0</ele><time>2026-04-19T08:47:28.952Z</time></trkpt><trkpt lat="41.1786669" lon="14.9652145"><ele>205.0</ele><time>2026-04-19T08:47:31.028Z</time></trkpt><trkpt lat="41.1786606" lon="14.9653712"><ele>208.0</ele><time>2026-04-19T08:47:32.951Z</time></trkpt><trkpt lat="41.1786564" lon="14.9654804"><ele>211.0</ele><time>2026-04-19T08:47:35.029Z</time></trkpt><trkpt lat="41.1785618" lon="14.9654424"><ele>214.0</ele><time>2026-04-19T08:47:36.942Z</time></trkpt><trkpt lat="41.1784699" lon="14.965334"><ele>217.0</ele><time>2026-04-19T08:47:37.945Z</time></trkpt><trkpt lat="41.1783538" lon="14.9652119"><ele>217.0</ele><time>2026-04-19T08:47:39.029Z</time></trkpt><trkpt lat="41.1782282" lon="14.9650887"><ele>217.0</ele><time>2026-04-19T08:47:40.028Z</time></trkpt><trkpt lat="41.1781125" lon="14.9649704"><ele>217.0</ele><time>2026-04-19T08:47:41.034Z</time></trkpt><trkpt lat="41.1780208" lon="14.9648928"><ele>217.0</ele><time>2026-04-19T08:47:41.951Z</time></trkpt><trkpt lat="41.1779464" lon="14.9648448"><ele>216.66666666666666</ele><time>2026-04-19T08:47:42.947Z</time></trkpt><trkpt lat="41.177884" lon="14.9648303"><ele>216.33333333333331</ele><time>2026-04-19T08:47:43.943Z</time></trkpt><trkpt lat="41.1778128" lon="14.9647684"><ele>216.0</ele><time>2026-04-19T08:47:46.952Z</time></trkpt><trkpt lat="41.1778079" lon="14.9646542"><ele>215.66666666666669</ele><time>2026-04-19T08:47:48.948Z</time></trkpt><trkpt lat="41.1777768" lon="14.9645632"><ele>215.33333333333334</ele><time>2026-04-19T08:47:49.954Z</time></trkpt><trkpt lat="41.1776954" lon="14.9644536"><ele>215.0</ele><time>2026-04-19T08:47:50.952Z</time></trkpt><trkpt lat="41.1775923" lon="14.9643209"><ele>213.25</ele><time>2026-04-19T08:47:51.947Z</time></trkpt><trkpt lat="41.1774751" lon="14.9641851"><ele>211.5</ele><time>2026-04-19T08:47:52.95Z</time></trkpt><trkpt lat="41.1773553" lon="14.9640583"><ele>209.75</ele><time>2026-04-19T08:47:53.946Z</time></trkpt><trkpt lat="41.1772476" lon="14.9639463"><ele>208.0</ele><time>2026-04-19T08:47:54.95Z</time></trkpt><trkpt lat="41.1771258" lon="14.9638461"><ele>208.0</ele><time>2026-04-19T08:47:55.951Z</time></trkpt><trkpt lat="41.1770068" lon="14.9637802"><ele>208.0</ele><time>2026-04-19T08:47:56.945Z</time></trkpt><trkpt lat="41.1769023" lon="14.9637422"><ele>208.0</ele><time>2026-04-19T08:47:57.951Z</time></trkpt><trkpt lat="41.1767848" lon="14.9637335"><ele>208.0</ele><time>2026-04-19T08:47:58.959Z</time></trkpt><trkpt lat="41.1766714" lon="14.9637381"><ele>208.0</ele><time>2026-04-19T08:47:59.948Z</time></trkpt><trkpt lat="41.176574" lon="14.9637571"><ele>208.0</ele><time>2026-04-19T08:48:00.949Z</time></trkpt><trkpt lat="41.1764743" lon="14.9637786"><ele>208.0</ele><time>2026-04-19T08:48:01.95Z</time></trkpt><trkpt lat="41.1763744" lon="14.9638005"><ele>208.0</ele><time>2026-04-19T08:48:02.952Z</time></trkpt><trkpt lat="41.1763051" lon="14.9637789"><ele>208.0</ele><time>2026-04-19T08:48:03.948Z</time></trkpt><trkpt lat="41.1762139" lon="14.963756"><ele>208.60000000000002</ele><time>2026-04-19T08:48:06.028Z</time></trkpt><trkpt lat="41.1761694" lon="14.9638692"><ele>209.20000000000002</ele><time>2026-04-19T08:48:07.951Z</time></trkpt><trkpt lat="41.1761908" lon="14.9640157"><ele>209.8</ele><time>2026-04-19T08:48:10.041Z</time></trkpt><trkpt lat="41.1761496" lon="14.9641259"><ele>210.4</ele><time>2026-04-19T08:48:11.956Z</time></trkpt><trkpt lat="41.1761547" lon="14.9642287"><ele>211.0</ele><time>2026-04-19T08:48:15.025Z</time></trkpt><trkpt lat="41.1762587" lon="14.9642463"><ele>213.4</ele><time>2026-04-19T08:48:16.949Z</time></trkpt><trkpt lat="41.1763477" lon="14.9642459"><ele>215.8</ele><time>2026-04-19T08:48:17.947Z</time></trkpt><trkpt lat="41.1764349" lon="14.9642557"><ele>218.20000000000002</ele><time>2026-04-19T08:48:18.946Z</time></trkpt><trkpt lat="41.1765107" lon="14.9642847"><ele>220.60000000000002</ele><time>2026-04-19T08:48:19.948Z</time></trkpt><trkpt lat="41.1765879" lon="14.9644085"><ele>223.0</ele><time>2026-04-19T08:48:21.951Z</time></trkpt><trkpt lat="41.176668" lon="14.9645093"><ele>222.99999999999997</ele><time>2026-04-19T08:48:23.951Z</time></trkpt><trkpt lat="41.1767613" lon="14.9645018"><ele>223.0</ele><time>2026-04-19T08:48:25.952Z</time></trkpt><trkpt lat="41.1768483" lon="14.9644687"><ele>223.0</ele><time>2026-04-19T08:48:28.951Z</time></trkpt><trkpt lat="41.1769329" lon="14.9645132"><ele>223.0</ele><time>2026-04-19T08:48:31.947Z</time></trkpt><trkpt lat="41.1770061" lon="14.9645545"><ele>222.99999999999997</ele><time>2026-04-19T08:48:33.948Z</time></trkpt><trkpt lat="41.1770565" lon="14.9646067"><ele>223.0</ele><time>2026-04-19T08:48:36.029Z</time></trkpt><trkpt lat="41.1770552" lon="14.9646964"><ele>223.0</ele><time>2026-04-19T08:48:37.955Z</time></trkpt><trkpt lat="41.1770337" lon="14.9648038"><ele>223.0</ele><time>2026-04-19T08:48:39.97Z</time></trkpt><trkpt lat="41.1770436" lon="14.9648929"><ele>223.0</ele><time>2026-04-19T08:48:41.952Z</time></trkpt><trkpt lat="41.1771356" lon="14.9650157"><ele>223.0</ele><time>2026-04-19T08:48:44.032Z</time></trkpt><trkpt lat="41.1772124" lon="14.9650772"><ele>223.0</ele><time>2026-04-19T08:48:44.97Z</time></trkpt><trkpt lat="41.1772906" lon="14.9651438"><ele>224.60000000000002</ele><time>2026-04-19T08:48:46.025Z</time></trkpt><trkpt lat="41.177366" lon="14.9652167"><ele>226.20000000000002</ele><time>2026-04-19T08:48:46.96Z</time></trkpt><trkpt lat="41.1774458" lon="14.9652707"><ele>227.8</ele><time>2026-04-19T08:48:47.956Z</time></trkpt><trkpt lat="41.1775508" lon="14.9653441"><ele>229.4</ele><time>2026-04-19T08:48:48.954Z</time></trkpt><trkpt lat="41.1776676" lon="14.9654369"><ele>231.0</ele><time>2026-04-19T08:48:49.958Z</time></trkpt><trkpt lat="41.1777593" lon="14.9655144"><ele>231.0</ele><time>2026-04-19T08:48:50.951Z</time></trkpt><trkpt lat="41.1778319" lon="14.9655937"><ele>231.00000000000003</ele><time>2026-04-19T08:48:51.985Z</time></trkpt><trkpt lat="41.1778938" lon="14.9656662"><ele>231.00000000000003</ele><time>2026-04-19T08:48:52.96Z</time></trkpt><trkpt lat="41.1779646" lon="14.9657641"><ele>231.0</ele><time>2026-04-19T08:48:53.953Z</time></trkpt><trkpt lat="41.1780433" lon="14.965861"><ele>231.0</ele><time>2026-04-19T08:48:54.981Z</time></trkpt><trkpt lat="41.1781144" lon="14.965951"><ele>230.0</ele><time>2026-04-19T08:48:55.955Z</time></trkpt><trkpt lat="41.1781598" lon="14.9660335"><ele>229.0</ele><time>2026-04-19T08:48:57.028Z</time></trkpt><trkpt lat="41.178193" lon="14.9661457"><ele>228.0</ele><time>2026-04-19T08:48:57.945Z</time></trkpt><trkpt lat="41.1782066" lon="14.9662488"><ele>227.0</ele><time>2026-04-19T08:48:58.943Z</time></trkpt><trkpt lat="41.1782218" lon="14.9663434"><ele>226.0</ele><time>2026-04-19T08:49:00.033Z</time></trkpt><trkpt lat="41.1782207" lon="14.9664361"><ele>225.0</ele><time>2026-04-19T08:49:01.03Z</time></trkpt><trkpt lat="41.1782528" lon="14.9665177"><ele>225.0</ele><time>2026-04-19T08:49:02.029Z</time></trkpt><trkpt lat="41.1783404" lon="14.9665895"><ele>225.0</ele><time>2026-04-19T08:49:02.957Z</time></trkpt><trkpt lat="41.1784157" lon="14.9666545"><ele>225.0</ele><time>2026-04-19T08:49:03.959Z</time></trkpt><trkpt lat="41.178465" lon="14.966721"><ele>225.0</ele><time>2026-04-19T08:49:05.059Z</time></trkpt><trkpt lat="41.1785212" lon="14.9668032"><ele>225.0</ele><time>2026-04-19T08:49:06.941Z</time></trkpt><trkpt lat="41.1786017" lon="14.9669393"><ele>225.6</ele><time>2026-04-19T08:49:08.952Z</time></trkpt><trkpt lat="41.1786412" lon="14.9670354"><ele>226.2</ele><time>2026-04-19T08:49:10.028Z</time></trkpt><trkpt lat="41.1787023" lon="14.9671047"><ele>226.8</ele><time>2026-04-19T08:49:11.032Z</time></trkpt><trkpt lat="41.1788045" lon="14.9671458"><ele>227.4</ele><time>2026-04-19T08:49:12.032Z</time></trkpt><trkpt lat="41.1789019" lon="14.9672045"><ele>228.0</ele><time>2026-04-19T08:49:12.945Z</time></trkpt><trkpt lat="41.1789872" lon="14.9672544"><ele>225.5</ele><time>2026-04-19T08:49:13.947Z</time></trkpt><trkpt lat="41.1790522" lon="14.9672788"><ele>223.0</ele><time>2026-04-19T08:49:14.946Z</time></trkpt><trkpt lat="41.1791493" lon="14.9672705"><ele>220.5</ele><time>2026-04-19T08:49:16.945Z</time></trkpt><trkpt lat="41.1791829" lon="14.9671723"><ele>218.0</ele><time>2026-04-19T08:49:19.946Z</time></trkpt><trkpt lat="41.1791978" lon="14.9670449"><ele>215.5</ele><time>2026-04-19T08:49:21.949Z</time></trkpt><trkpt lat="41.1792559" lon="14.9669405"><ele>213.0</ele><time>2026-04-19T08:49:23.951Z</time></trkpt><trkpt lat="41.1793263" lon="14.9669593"><ele>213.0</ele><time>2026-04-19T08:49:26.949Z</time></trkpt><trkpt lat="41.1794" lon="14.9670046"><ele>213.0</ele><time>2026-04-19T08:49:37.947Z</time></trkpt><trkpt lat="41.1794636" lon="14.967165"><ele>213.0</ele><time>2026-04-19T08:49:39.942Z</time></trkpt><trkpt lat="41.1794955" lon="14.9672757"><ele>213.0</ele><time>2026-04-19T08:49:40.948Z</time></trkpt><trkpt lat="41.1795255" lon="14.9674049"><ele>213.0</ele><time>2026-04-19T08:49:41.944Z</time></trkpt><trkpt lat="41.179555" lon="14.9675359"><ele>216.5</ele><time>2026-04-19T08:49:42.944Z</time></trkpt><trkpt lat="41.1795845" lon="14.9676609"><ele>220.0</ele><time>2026-04-19T08:49:44.017Z</time></trkpt><trkpt lat="41.1796116" lon="14.9677804"><ele>223.5</ele><time>2026-04-19T08:49:45.043Z</time></trkpt><trkpt lat="41.1796702" lon="14.9680277"><ele>227.0</ele><time>2026-04-19T08:49:46.949Z</time></trkpt><trkpt lat="41.1797009" lon="14.9681609"><ele>227.0</ele><time>2026-04-19T08:49:47.944Z</time></trkpt><trkpt lat="41.1797294" lon="14.9682946"><ele>227.0</ele><time>2026-04-19T08:49:48.942Z</time></trkpt><trkpt lat="41.1797489" lon="14.9684254"><ele>227.0</ele><time>2026-04-19T08:49:49.941Z</time></trkpt><trkpt lat="41.1797671" lon="14.9685513"><ele>227.0</ele><time>2026-04-19T08:49:50.945Z</time></trkpt><trkpt lat="41.1797815" lon="14.9686903"><ele>227.0</ele><time>2026-04-19T08:49:51.997Z</time></trkpt><trkpt lat="41.1797975" lon="14.9688489"><ele>229.5</ele><time>2026-04-19T08:49:52.945Z</time></trkpt><trkpt lat="41.1798087" lon="14.9690317"><ele>232.0</ele><time>2026-04-19T08:49:53.945Z</time></trkpt><trkpt lat="41.1798248" lon="14.9692141"><ele>234.5</ele><time>2026-04-19T08:49:54.944Z</time></trkpt><trkpt lat="41.1798392" lon="14.9693832"><ele>237.0</ele><time>2026-04-19T08:49:56.03Z</time></trkpt><trkpt lat="41.1798553" lon="14.9695435"><ele>229.75</ele><time>2026-04-19T08:49:57.029Z</time></trkpt><trkpt lat="41.1798742" lon="14.9696974"><ele>222.5</ele><time>2026-04-19T08:49:57.944Z</time></trkpt><trkpt lat="41.1799104" lon="14.9698496"><ele>215.25</ele><time>2026-04-19T08:49:58.942Z</time></trkpt><trkpt lat="41.1799615" lon="14.9700051"><ele>208.0</ele><time>2026-04-19T08:49:59.942Z</time></trkpt><trkpt lat="41.1800233" lon="14.9701677"><ele>207.75</ele><time>2026-04-19T08:50:01.028Z</time></trkpt><trkpt lat="41.1800879" lon="14.9703447"><ele>207.5</ele><time>2026-04-19T08:50:02.028Z</time></trkpt><trkpt lat="41.1801583" lon="14.970518"><ele>207.25</ele><time>2026-04-19T08:50:02.947Z</time></trkpt><trkpt lat="41.1802398" lon="14.9706811"><ele>207.0</ele><time>2026-04-19T08:50:03.947Z</time></trkpt><trkpt lat="41.1803237" lon="14.9708266"><ele>207.25</ele><time>2026-04-19T08:50:05.072Z</time></trkpt><trkpt lat="41.1803991" lon="14.9709586"><ele>207.5</ele><time>2026-04-19T08:50:06.033Z</time></trkpt><trkpt lat="41.1804621" lon="14.9710802"><ele>207.75</ele><time>2026-04-19T08:50:07.031Z</time></trkpt><trkpt lat="41.180522" lon="14.9712144"><ele>208.0</ele><time>2026-04-19T08:50:07.946Z</time></trkpt><trkpt lat="41.1805806" lon="14.9713659"><ele>208.0</ele><time>2026-04-19T08:50:09.011Z</time></trkpt><trkpt lat="41.1806388" lon="14.9715277"><ele>208.0</ele><time>2026-04-19T08:50:09.94Z</time></trkpt><trkpt lat="41.180701" lon="14.9716913"><ele>208.0</ele><time>2026-04-19T08:50:11.017Z</time></trkpt><trkpt lat="41.1807576" lon="14.9718498"><ele>208.0</ele><time>2026-04-19T08:50:12.008Z</time></trkpt><trkpt lat="41.1808097" lon="14.9720048"><ele>207.5</ele><time>2026-04-19T08:50:12.944Z</time></trkpt><trkpt lat="41.1808541" lon="14.9721708"><ele>207.0</ele><time>2026-04-19T08:50:13.947Z</time></trkpt><trkpt lat="41.1808963" lon="14.9723564"><ele>206.5</ele><time>2026-04-19T08:50:15.026Z</time></trkpt><trkpt lat="41.1809307" lon="14.9725515"><ele>206.0</ele><time>2026-04-19T08:50:16.034Z</time></trkpt><trkpt lat="41.1809604" lon="14.9727444"><ele>205.75</ele><time>2026-04-19T08:50:17.035Z</time></trkpt><trkpt lat="41.180985" lon="14.9729287"><ele>205.5</ele><time>2026-04-19T08:50:17.967Z</time></trkpt><trkpt lat="41.1810122" lon="14.9730847"><ele>205.25</ele><time>2026-04-19T08:50:19.019Z</time></trkpt><trkpt lat="41.1810562" lon="14.9732162"><ele>205.0</ele><time>2026-04-19T08:50:19.952Z</time></trkpt><trkpt lat="41.1811154" lon="14.9733396"><ele>205.0</ele><time>2026-04-19T08:50:20.952Z</time></trkpt><trkpt lat="41.1811884" lon="14.9734624"><ele>205.0</ele><time>2026-04-19T08:50:21.948Z</time></trkpt><trkpt lat="41.1812841" lon="14.9735685"><ele>205.0</ele><time>2026-04-19T08:50:22.948Z</time></trkpt><trkpt lat="41.1814063" lon="14.9736612"><ele>205.0</ele><time>2026-04-19T08:50:23.953Z</time></trkpt><trkpt lat="41.1815292" lon="14.9737689"><ele>205.5</ele><time>2026-04-19T08:50:25.014Z</time></trkpt><trkpt lat="41.1816464" lon="14.9738702"><ele>206.0</ele><time>2026-04-19T08:50:26.03Z</time></trkpt><trkpt lat="41.1817543" lon="14.9739715"><ele>206.5</ele><time>2026-04-19T08:50:27.029Z</time></trkpt><trkpt lat="41.1818656" lon="14.9740724"><ele>207.0</ele><time>2026-04-19T08:50:27.952Z</time></trkpt><trkpt lat="41.1819776" lon="14.9741773"><ele>207.0</ele><time>2026-04-19T08:50:28.951Z</time></trkpt><trkpt lat="41.1820944" lon="14.9742968"><ele>207.0</ele><time>2026-04-19T08:50:29.957Z</time></trkpt><trkpt lat="41.1822068" lon="14.9744097"><ele>207.0</ele><time>2026-04-19T08:50:30.948Z</time></trkpt><trkpt lat="41.1823064" lon="14.9745187"><ele>207.0</ele><time>2026-04-19T08:50:31.95Z</time></trkpt><trkpt lat="41.1824026" lon="14.9746253"><ele>207.25</ele><time>2026-04-19T08:50:32.951Z</time></trkpt><trkpt lat="41.1825044" lon="14.9747236"><ele>207.5</ele><time>2026-04-19T08:50:34.029Z</time></trkpt><trkpt lat="41.1826115" lon="14.9748205"><ele>207.75</ele><time>2026-04-19T08:50:35.036Z</time></trkpt><trkpt lat="41.1827178" lon="14.9749077"><ele>208.0</ele><time>2026-04-19T08:50:36.029Z</time></trkpt><trkpt lat="41.1828187" lon="14.9749961"><ele>208.0</ele><time>2026-04-19T08:50:36.96Z</time></trkpt><trkpt lat="41.182915" lon="14.9750826"><ele>208.0</ele><time>2026-04-19T08:50:37.962Z</time></trkpt><trkpt lat="41.1830053" lon="14.9751619"><ele>208.0</ele><time>2026-04-19T08:50:38.956Z</time></trkpt><trkpt lat="41.1831038" lon="14.975242"><ele>208.0</ele><time>2026-04-19T08:50:39.96Z</time></trkpt><trkpt lat="41.1832015" lon="14.9753194"><ele>208.0</ele><time>2026-04-19T08:50:40.961Z</time></trkpt><trkpt lat="41.1833052" lon="14.9753884"><ele>208.0</ele><time>2026-04-19T08:50:41.959Z</time></trkpt><trkpt lat="41.1834099" lon="14.9754549"><ele>208.0</ele><time>2026-04-19T08:50:42.961Z</time></trkpt><trkpt lat="41.1835258" lon="14.9755261"><ele>208.0</ele><time>2026-04-19T08:50:43.961Z</time></trkpt><trkpt lat="41.1836426" lon="14.9755937"><ele>208.0</ele><time>2026-04-19T08:50:45.033Z</time></trkpt><trkpt lat="41.1837696" lon="14.9756695"><ele>208.0</ele><time>2026-04-19T08:50:46.029Z</time></trkpt><trkpt lat="41.1838951" lon="14.9757493"><ele>208.0</ele><time>2026-04-19T08:50:47.026Z</time></trkpt><trkpt lat="41.1840241" lon="14.9758343"><ele>208.0</ele><time>2026-04-19T08:50:47.949Z</time></trkpt><trkpt lat="41.1841459" lon="14.9759174"><ele>208.0</ele><time>2026-04-19T08:50:48.953Z</time></trkpt><trkpt lat="41.1842571" lon="14.9759995"><ele>208.0</ele><time>2026-04-19T08:50:49.94Z</time></trkpt><trkpt lat="41.184363" lon="14.9760796"><ele>208.0</ele><time>2026-04-19T08:50:51.018Z</time></trkpt><trkpt lat="41.1844697" lon="14.9761843"><ele>208.0</ele><time>2026-04-19T08:50:52.03Z</time></trkpt><trkpt lat="41.1845704" lon="14.9763103"><ele>208.0</ele><time>2026-04-19T08:50:52.947Z</time></trkpt><trkpt lat="41.1846684" lon="14.9764344"><ele>208.0</ele><time>2026-04-19T08:50:53.952Z</time></trkpt><trkpt lat="41.1847678" lon="14.9765627"><ele>208.0</ele><time>2026-04-19T08:50:55.043Z</time></trkpt><trkpt lat="41.1848755" lon="14.9766984"><ele>208.0</ele><time>2026-04-19T08:50:56.029Z</time></trkpt><trkpt lat="41.1849907" lon="14.9768329"><ele>208.25</ele><time>2026-04-19T08:50:57.029Z</time></trkpt><trkpt lat="41.1851021" lon="14.9769562"><ele>208.5</ele><time>2026-04-19T08:50:57.95Z</time></trkpt><trkpt lat="41.1852102" lon="14.9770693"><ele>208.75</ele><time>2026-04-19T08:50:58.946Z</time></trkpt><trkpt lat="41.1853159" lon="14.9771614"><ele>209.0</ele><time>2026-04-19T08:50:59.967Z</time></trkpt><trkpt lat="41.1854249" lon="14.9772188"><ele>209.0</ele><time>2026-04-19T08:51:01.035Z</time></trkpt><trkpt lat="41.1855514" lon="14.9772678"><ele>209.0</ele><time>2026-04-19T08:51:01.951Z</time></trkpt><trkpt lat="41.1856925" lon="14.9772931"><ele>209.0</ele><time>2026-04-19T08:51:02.956Z</time></trkpt><trkpt lat="41.1858286" lon="14.9773064"><ele>209.0</ele><time>2026-04-19T08:51:03.954Z</time></trkpt><trkpt lat="41.1859594" lon="14.9773109"><ele>210.0</ele><time>2026-04-19T08:51:05.027Z</time></trkpt><trkpt lat="41.186098" lon="14.9773044"><ele>211.0</ele><time>2026-04-19T08:51:06.049Z</time></trkpt><trkpt lat="41.186233" lon="14.977294"><ele>212.0</ele><time>2026-04-19T08:51:06.956Z</time></trkpt><trkpt lat="41.1863624" lon="14.9772829"><ele>213.0</ele><time>2026-04-19T08:51:07.956Z</time></trkpt><trkpt lat="41.1864969" lon="14.9772856"><ele>213.0</ele><time>2026-04-19T08:51:08.955Z</time></trkpt><trkpt lat="41.1866301" lon="14.9773027"><ele>213.0</ele><time>2026-04-19T08:51:09.948Z</time></trkpt><trkpt lat="41.1867562" lon="14.9773299"><ele>213.0</ele><time>2026-04-19T08:51:10.951Z</time></trkpt><trkpt lat="41.1868864" lon="14.9773716"><ele>213.0</ele><time>2026-04-19T08:51:11.954Z</time></trkpt><trkpt lat="41.1870194" lon="14.9774155"><ele>213.0</ele><time>2026-04-19T08:51:12.959Z</time></trkpt><trkpt lat="41.1871522" lon="14.9774609"><ele>213.0</ele><time>2026-04-19T08:51:13.95Z</time></trkpt><trkpt lat="41.1872833" lon="14.9774968"><ele>213.0</ele><time>2026-04-19T08:51:15.025Z</time></trkpt><trkpt lat="41.1874087" lon="14.9775172"><ele>213.0</ele><time>2026-04-19T08:51:15.95Z</time></trkpt><trkpt lat="41.1875261" lon="14.9775379"><ele>213.25</ele><time>2026-04-19T08:51:17.026Z</time></trkpt><trkpt lat="41.1876377" lon="14.977569"><ele>213.5</ele><time>2026-04-19T08:51:17.953Z</time></trkpt><trkpt lat="41.1877497" lon="14.9776297"><ele>213.75</ele><time>2026-04-19T08:51:18.952Z</time></trkpt><trkpt lat="41.1878654" lon="14.9777162"><ele>214.0</ele><time>2026-04-19T08:51:19.952Z</time></trkpt><trkpt lat="41.1879718" lon="14.9778188"><ele>214.0</ele><time>2026-04-19T08:51:20.952Z</time></trkpt><trkpt lat="41.1880815" lon="14.9779433"><ele>214.0</ele><time>2026-04-19T08:51:21.958Z</time></trkpt><trkpt lat="41.1881962" lon="14.9780613"><ele>214.0</ele><time>2026-04-19T08:51:22.958Z</time></trkpt><trkpt lat="41.1883119" lon="14.9781706"><ele>214.0</ele><time>2026-04-19T08:51:24.019Z</time></trkpt><trkpt lat="41.1884284" lon="14.9782776"><ele>214.25</ele><time>2026-04-19T08:51:24.957Z</time></trkpt><trkpt lat="41.1885435" lon="14.978371"><ele>214.5</ele><time>2026-04-19T08:51:25.953Z</time></trkpt><trkpt lat="41.1886636" lon="14.9784539"><ele>214.75</ele><time>2026-04-19T08:51:26.953Z</time></trkpt><trkpt lat="41.1887789" lon="14.978539"><ele>215.0</ele><time>2026-04-19T08:51:27.95Z</time></trkpt><trkpt lat="41.1888843" lon="14.9786154"><ele>215.00000000000003</ele><time>2026-04-19T08:51:28.956Z</time></trkpt><trkpt lat="41.1889834" lon="14.9786815"><ele>215.0</ele><time>2026-04-19T08:51:29.957Z</time></trkpt><trkpt lat="41.1890588" lon="14.9787325"><ele>215.0</ele><time>2026-04-19T08:51:30.954Z</time></trkpt><trkpt lat="41.1891186" lon="14.9787618"><ele>215.0</ele><time>2026-04-19T08:51:31.954Z</time></trkpt><trkpt lat="41.1892156" lon="14.9787139"><ele>215.00000000000003</ele><time>2026-04-19T08:51:33.95Z</time></trkpt><trkpt lat="41.1892581" lon="14.9786396"><ele>215.0</ele><time>2026-04-19T08:51:35.032Z</time></trkpt><trkpt lat="41.1893028" lon="14.9785557"><ele>215.16666666666669</ele><time>2026-04-19T08:51:36.029Z</time></trkpt><trkpt lat="41.1893441" lon="14.9784808"><ele>215.33333333333334</ele><time>2026-04-19T08:51:36.974Z</time></trkpt><trkpt lat="41.1894256" lon="14.9784305"><ele>215.5</ele><time>2026-04-19T08:51:38.948Z</time></trkpt><trkpt lat="41.1895224" lon="14.9784956"><ele>215.66666666666669</ele><time>2026-04-19T08:51:40.946Z</time></trkpt><trkpt lat="41.1895714" lon="14.9785565"><ele>215.83333333333334</ele><time>2026-04-19T08:51:41.95Z</time></trkpt><trkpt lat="41.1896394" lon="14.9786507"><ele>216.0</ele><time>2026-04-19T08:51:43.948Z</time></trkpt><trkpt lat="41.1896868" lon="14.9787434"><ele>216.0</ele><time>2026-04-19T08:51:46.948Z</time></trkpt><trkpt lat="41.1897291" lon="14.9788403"><ele>216.0</ele><time>2026-04-19T08:51:49.957Z</time></trkpt><trkpt lat="41.1897618" lon="14.9789336"><ele>216.0</ele><time>2026-04-19T08:51:59.978Z</time></trkpt><trkpt lat="41.1897944" lon="14.979016"><ele>216.0</ele><time>2026-04-19T08:52:02.948Z</time></trkpt><trkpt lat="41.1898275" lon="14.9790988"><ele>216.0</ele><time>2026-04-19T08:52:04.946Z</time></trkpt><trkpt lat="41.1898608" lon="14.9791966"><ele>216.0</ele><time>2026-04-19T08:52:07.032Z</time></trkpt><trkpt lat="41.1898874" lon="14.9793529"><ele>216.16666666666666</ele><time>2026-04-19T08:52:08.947Z</time></trkpt><trkpt lat="41.1899008" lon="14.9794549"><ele>216.33333333333331</ele><time>2026-04-19T08:52:09.945Z</time></trkpt><trkpt lat="41.1899189" lon="14.9795592"><ele>216.5</ele><time>2026-04-19T08:52:10.948Z</time></trkpt><trkpt lat="41.1899312" lon="14.9796594"><ele>216.66666666666666</ele><time>2026-04-19T08:52:11.949Z</time></trkpt><trkpt lat="41.1899401" lon="14.9797639"><ele>216.83333333333331</ele><time>2026-04-19T08:52:12.948Z</time></trkpt><trkpt lat="41.1899547" lon="14.9798618"><ele>217.0</ele><time>2026-04-19T08:52:13.945Z</time></trkpt><trkpt lat="41.189971" lon="14.9799643"><ele>217.0</ele><time>2026-04-19T08:52:15.034Z</time></trkpt><trkpt lat="41.189991" lon="14.9800567"><ele>217.0</ele><time>2026-04-19T08:52:16.025Z</time></trkpt><trkpt lat="41.1900119" lon="14.9801384"><ele>217.0</ele><time>2026-04-19T08:52:16.979Z</time></trkpt><trkpt lat="41.1900368" lon="14.9802288"><ele>217.0</ele><time>2026-04-19T08:52:17.95Z</time></trkpt><trkpt lat="41.1900634" lon="14.9803215"><ele>217.0</ele><time>2026-04-19T08:52:18.961Z</time></trkpt><trkpt lat="41.1900909" lon="14.9804057"><ele>217.0</ele><time>2026-04-19T08:52:19.953Z</time></trkpt><trkpt lat="41.1901293" lon="14.9804844"><ele>217.0</ele><time>2026-04-19T08:52:20.948Z</time></trkpt><trkpt lat="41.190176" lon="14.9805728"><ele>216.99999999999997</ele><time>2026-04-19T08:52:21.956Z</time></trkpt><trkpt lat="41.1902118" lon="14.9806657"><ele>217.0</ele><time>2026-04-19T08:52:22.961Z</time></trkpt><trkpt lat="41.1902431" lon="14.980762"><ele>217.0</ele><time>2026-04-19T08:52:23.954Z</time></trkpt><trkpt lat="41.1902726" lon="14.9808506"><ele>217.0</ele><time>2026-04-19T08:52:24.95Z</time></trkpt><trkpt lat="41.1903262" lon="14.9809906"><ele>216.99999999999997</ele><time>2026-04-19T08:52:26.948Z</time></trkpt><trkpt lat="41.1903694" lon="14.9810717"><ele>217.0</ele><time>2026-04-19T08:52:28.956Z</time></trkpt><trkpt lat="41.1904217" lon="14.9811702"><ele>216.99999999999997</ele><time>2026-04-19T08:52:32.039Z</time></trkpt><trkpt lat="41.1904986" lon="14.9813044"><ele>217.0</ele><time>2026-04-19T08:52:33.958Z</time></trkpt><trkpt lat="41.1905574" lon="14.9813726"><ele>217.0</ele><time>2026-04-19T08:52:34.96Z</time></trkpt><trkpt lat="41.1906121" lon="14.981422"><ele>217.0</ele><time>2026-04-19T08:52:35.959Z</time></trkpt><trkpt lat="41.190691" lon="14.9814737"><ele>216.99999999999997</ele><time>2026-04-19T08:52:37.954Z</time></trkpt><trkpt lat="41.1907558" lon="14.9815256"><ele>217.0</ele><time>2026-04-19T08:52:39.962Z</time></trkpt><trkpt lat="41.1908229" lon="14.9815966"><ele>216.99999999999997</ele><time>2026-04-19T08:52:42.961Z</time></trkpt><trkpt lat="41.1908677" lon="14.9816577"><ele>217.0</ele><time>2026-04-19T08:52:44.956Z</time></trkpt><trkpt lat="41.1909471" lon="14.9817403"><ele>217.0</ele><time>2026-04-19T08:52:46.959Z</time></trkpt><trkpt lat="41.1910061" lon="14.9817931"><ele>217.0</ele><time>2026-04-19T08:52:47.956Z</time></trkpt><trkpt lat="41.1910637" lon="14.9818545"><ele>216.99999999999997</ele><time>2026-04-19T08:52:49.03Z</time></trkpt><trkpt lat="41.1911238" lon="14.9819237"><ele>217.0</ele><time>2026-04-19T08:52:50.03Z</time></trkpt><trkpt lat="41.1911752" lon="14.9819997"><ele>216.99999999999997</ele><time>2026-04-19T08:52:51.033Z</time></trkpt><trkpt lat="41.1912188" lon="14.982078"><ele>217.0</ele><time>2026-04-19T08:52:51.948Z</time></trkpt><trkpt lat="41.1912517" lon="14.9821682"><ele>217.0</ele><time>2026-04-19T08:52:52.949Z</time></trkpt><trkpt lat="41.1912837" lon="14.9822557"><ele>217.0</ele><time>2026-04-19T08:52:53.953Z</time></trkpt><trkpt lat="41.1913144" lon="14.9823306"><ele>216.99999999999997</ele><time>2026-04-19T08:52:54.973Z</time></trkpt><trkpt lat="41.1913363" lon="14.9824655"><ele>217.0</ele><time>2026-04-19T08:52:57.019Z</time></trkpt><trkpt lat="41.1913136" lon="14.9825449"><ele>217.16666666666666</ele><time>2026-04-19T08:52:57.948Z</time></trkpt><trkpt lat="41.1912619" lon="14.9826129"><ele>217.33333333333331</ele><time>2026-04-19T08:52:58.955Z</time></trkpt><trkpt lat="41.19119" lon="14.9826776"><ele>217.5</ele><time>2026-04-19T08:53:00.063Z</time></trkpt><trkpt lat="41.1911118" lon="14.9827275"><ele>217.66666666666669</ele><time>2026-04-19T08:53:01.027Z</time></trkpt><trkpt lat="41.1910565" lon="14.9827839"><ele>217.83333333333334</ele><time>2026-04-19T08:53:02.026Z</time></trkpt><trkpt lat="41.1910271" lon="14.9828827"><ele>218.0</ele><time>2026-04-19T08:53:03.958Z</time></trkpt><trkpt lat="41.1910436" lon="14.9829671"><ele>218.0</ele><time>2026-04-19T08:53:04.965Z</time></trkpt><trkpt lat="41.1910978" lon="14.9830833"><ele>218.0</ele><time>2026-04-19T08:53:05.958Z</time></trkpt><trkpt lat="41.1911432" lon="14.9832087"><ele>218.0</ele><time>2026-04-19T08:53:06.956Z</time></trkpt><trkpt lat="41.1911899" lon="14.9833239"><ele>218.0</ele><time>2026-04-19T08:53:07.957Z</time></trkpt><trkpt lat="41.1912263" lon="14.9834027"><ele>218.0</ele><time>2026-04-19T08:53:08.958Z</time></trkpt><trkpt lat="41.1912524" lon="14.9834986"><ele>218.33333333333334</ele><time>2026-04-19T08:53:10.951Z</time></trkpt><trkpt lat="41.1912695" lon="14.9835863"><ele>218.66666666666669</ele><time>2026-04-19T08:53:13.949Z</time></trkpt><trkpt lat="41.1913" lon="14.9836839"><ele>219.0</ele><time>2026-04-19T08:53:18.962Z</time></trkpt><trkpt lat="41.1913167" lon="14.9837844"><ele>219.33333333333331</ele><time>2026-04-19T08:53:21.955Z</time></trkpt><trkpt lat="41.1913342" lon="14.9839154"><ele>219.66666666666666</ele><time>2026-04-19T08:53:23.956Z</time></trkpt><trkpt lat="41.1913435" lon="14.9840141"><ele>220.0</ele><time>2026-04-19T08:53:24.961Z</time></trkpt><trkpt lat="41.1913544" lon="14.9841281"><ele>219.66666666666666</ele><time>2026-04-19T08:53:25.962Z</time></trkpt><trkpt lat="41.1913589" lon="14.9842307"><ele>219.33333333333331</ele><time>2026-04-19T08:53:26.954Z</time></trkpt><trkpt lat="41.1913642" lon="14.9843277"><ele>219.0</ele><time>2026-04-19T08:53:27.956Z</time></trkpt><trkpt lat="41.1913771" lon="14.9844813"><ele>218.66666666666669</ele><time>2026-04-19T08:53:29.959Z</time></trkpt><trkpt lat="41.1913914" lon="14.9845754"><ele>218.33333333333334</ele><time>2026-04-19T08:53:30.959Z</time></trkpt><trkpt lat="41.1914061" lon="14.984679"><ele>218.0</ele><time>2026-04-19T08:53:31.959Z</time></trkpt><trkpt lat="41.1914165" lon="14.9847866"><ele>218.00000000000003</ele><time>2026-04-19T08:53:32.958Z</time></trkpt><trkpt lat="41.191421" lon="14.9849029"><ele>218.0</ele><time>2026-04-19T08:53:33.96Z</time></trkpt><trkpt lat="41.19142" lon="14.985013"><ele>218.0</ele><time>2026-04-19T08:53:35.013Z</time></trkpt><trkpt lat="41.1914208" lon="14.9851211"><ele>218.0</ele><time>2026-04-19T08:53:35.956Z</time></trkpt><trkpt lat="41.1914261" lon="14.9852147"><ele>218.00000000000003</ele><time>2026-04-19T08:53:37.027Z</time></trkpt><trkpt lat="41.1914339" lon="14.985312"><ele>218.0</ele><time>2026-04-19T08:53:37.947Z</time></trkpt><trkpt lat="41.1914365" lon="14.9854112"><ele>218.50000000000003</ele><time>2026-04-19T08:53:38.945Z</time></trkpt><trkpt lat="41.1914446" lon="14.9855108"><ele>219.0</ele><time>2026-04-19T08:53:39.947Z</time></trkpt><trkpt lat="41.1914541" lon="14.9856124"><ele>219.5</ele><time>2026-04-19T08:53:40.957Z</time></trkpt><trkpt lat="41.1914684" lon="14.9857244"><ele>220.0</ele><time>2026-04-19T08:53:41.948Z</time></trkpt><trkpt lat="41.1914858" lon="14.985837"><ele>220.50000000000003</ele><time>2026-04-19T08:53:42.945Z</time></trkpt><trkpt lat="41.1915012" lon="14.9859518"><ele>221.0</ele><time>2026-04-19T08:53:44.035Z</time></trkpt><trkpt lat="41.1915235" lon="14.9860659"><ele>221.00000000000003</ele><time>2026-04-19T08:53:44.953Z</time></trkpt><trkpt lat="41.1915497" lon="14.9861859"><ele>221.0</ele><time>2026-04-19T08:53:46.029Z</time></trkpt><trkpt lat="41.1915789" lon="14.9862921"><ele>221.0</ele><time>2026-04-19T08:53:47.031Z</time></trkpt><trkpt lat="41.1916145" lon="14.9863845"><ele>221.0</ele><time>2026-04-19T08:53:47.947Z</time></trkpt><trkpt lat="41.1916569" lon="14.9864621"><ele>221.00000000000003</ele><time>2026-04-19T08:53:48.953Z</time></trkpt><trkpt lat="41.1917042" lon="14.9865312"><ele>221.0</ele><time>2026-04-19T08:53:49.972Z</time></trkpt><trkpt lat="41.1917569" lon="14.9866114"><ele>221.16666666666669</ele><time>2026-04-19T08:53:51.029Z</time></trkpt><trkpt lat="41.1918128" lon="14.986696"><ele>221.33333333333334</ele><time>2026-04-19T08:53:52.03Z</time></trkpt><trkpt lat="41.1918683" lon="14.9867759"><ele>221.5</ele><time>2026-04-19T08:53:52.947Z</time></trkpt><trkpt lat="41.1919199" lon="14.9868483"><ele>221.66666666666669</ele><time>2026-04-19T08:53:54.028Z</time></trkpt><trkpt lat="41.1919772" lon="14.9869436"><ele>221.83333333333334</ele><time>2026-04-19T08:53:56.029Z</time></trkpt><trkpt lat="41.1920139" lon="14.9870508"><ele>222.0</ele><time>2026-04-19T08:53:58.943Z</time></trkpt><trkpt lat="41.1920597" lon="14.987117"><ele>222.0</ele><time>2026-04-19T08:54:02.946Z</time></trkpt><trkpt lat="41.1921143" lon="14.9872176"><ele>222.0</ele><time>2026-04-19T08:54:05.949Z</time></trkpt><trkpt lat="41.1921525" lon="14.9872926"><ele>222.0</ele><time>2026-04-19T08:54:06.95Z</time></trkpt><trkpt lat="41.1922031" lon="14.9874281"><ele>222.0</ele><time>2026-04-19T08:54:08.944Z</time></trkpt><trkpt lat="41.192235" lon="14.9875128"><ele>222.0</ele><time>2026-04-19T08:54:09.941Z</time></trkpt><trkpt lat="41.1922738" lon="14.9876032"><ele>222.0</ele><time>2026-04-19T08:54:11.032Z</time></trkpt><trkpt lat="41.1923092" lon="14.9876961"><ele>222.16666666666666</ele><time>2026-04-19T08:54:11.955Z</time></trkpt><trkpt lat="41.1923267" lon="14.9877943"><ele>222.33333333333331</ele><time>2026-04-19T08:54:12.955Z</time></trkpt><trkpt lat="41.1923373" lon="14.9879024"><ele>222.5</ele><time>2026-04-19T08:54:13.951Z</time></trkpt><trkpt lat="41.1923567" lon="14.9879985"><ele>222.66666666666666</ele><time>2026-04-19T08:54:14.95Z</time></trkpt><trkpt lat="41.192386" lon="14.9880854"><ele>222.83333333333331</ele><time>2026-04-19T08:54:15.957Z</time></trkpt><trkpt lat="41.1924185" lon="14.9881761"><ele>223.0</ele><time>2026-04-19T08:54:17.028Z</time></trkpt><trkpt lat="41.1924451" lon="14.9882688"><ele>223.83333333333331</ele><time>2026-04-19T08:54:17.946Z</time></trkpt><trkpt lat="41.1924586" lon="14.988369"><ele>224.66666666666666</ele><time>2026-04-19T08:54:18.943Z</time></trkpt><trkpt lat="41.1924618" lon="14.9884649"><ele>225.5</ele><time>2026-04-19T08:54:19.942Z</time></trkpt><trkpt lat="41.192502" lon="14.9886033"><ele>226.33333333333331</ele><time>2026-04-19T08:54:22.03Z</time></trkpt><trkpt lat="41.1925401" lon="14.9886774"><ele>227.16666666666666</ele><time>2026-04-19T08:54:22.957Z</time></trkpt><trkpt lat="41.1925877" lon="14.988774"><ele>228.0</ele><time>2026-04-19T08:54:24.03Z</time></trkpt><trkpt lat="41.1926473" lon="14.9888644"><ele>228.0</ele><time>2026-04-19T08:54:25.03Z</time></trkpt><trkpt lat="41.1927163" lon="14.9889557"><ele>228.0</ele><time>2026-04-19T08:54:26.036Z</time></trkpt><trkpt lat="41.1928021" lon="14.9890473"><ele>228.0</ele><time>2026-04-19T08:54:27.056Z</time></trkpt><trkpt lat="41.1929797" lon="14.9892271"><ele>228.0</ele><time>2026-04-19T08:54:29.014Z</time></trkpt><trkpt lat="41.193049" lon="14.9892978"><ele>229.66666666666666</ele><time>2026-04-19T08:54:30.015Z</time></trkpt><trkpt lat="41.1930933" lon="14.9893752"><ele>231.33333333333331</ele><time>2026-04-19T08:54:31.031Z</time></trkpt><trkpt lat="41.1931194" lon="14.9894667"><ele>233.0</ele><time>2026-04-19T08:54:32.031Z</time></trkpt><trkpt lat="41.1931387" lon="14.9895707"><ele>234.66666666666666</ele><time>2026-04-19T08:54:32.957Z</time></trkpt><trkpt lat="41.1931431" lon="14.9896896"><ele>236.33333333333331</ele><time>2026-04-19T08:54:33.957Z</time></trkpt><trkpt lat="41.1931301" lon="14.9898191"><ele>238.0</ele><time>2026-04-19T08:54:35.014Z</time></trkpt><trkpt lat="41.1931003" lon="14.9899305"><ele>236.99999999999997</ele><time>2026-04-19T08:54:36.033Z</time></trkpt><trkpt lat="41.1930806" lon="14.9900424"><ele>236.0</ele><time>2026-04-19T08:54:37.032Z</time></trkpt><trkpt lat="41.1930783" lon="14.9901516"><ele>235.0</ele><time>2026-04-19T08:54:37.956Z</time></trkpt><trkpt lat="41.193084" lon="14.9902715"><ele>234.0</ele><time>2026-04-19T08:54:38.964Z</time></trkpt><trkpt lat="41.1931032" lon="14.9903988"><ele>232.99999999999997</ele><time>2026-04-19T08:54:39.95Z</time></trkpt><trkpt lat="41.1931337" lon="14.9905095"><ele>232.0</ele><time>2026-04-19T08:54:41.033Z</time></trkpt><trkpt lat="41.1932188" lon="14.9906085"><ele>231.99999999999997</ele><time>2026-04-19T08:54:42.948Z</time></trkpt><trkpt lat="41.1932981" lon="14.9906521"><ele>232.0</ele><time>2026-04-19T08:54:44.951Z</time></trkpt><trkpt lat="41.193361" lon="14.9907143"><ele>232.0</ele><time>2026-04-19T08:54:46.951Z</time></trkpt><trkpt lat="41.19342" lon="14.9908385"><ele>232.0</ele><time>2026-04-19T08:54:49.029Z</time></trkpt><trkpt lat="41.1934868" lon="14.9908854"><ele>231.99999999999997</ele><time>2026-04-19T08:54:51.946Z</time></trkpt><trkpt lat="41.1935621" lon="14.9909592"><ele>232.0</ele><time>2026-04-19T08:54:54.948Z</time></trkpt><trkpt lat="41.1936484" lon="14.9910497"><ele>231.16666666666666</ele><time>2026-04-19T08:54:57.028Z</time></trkpt><trkpt lat="41.1937088" lon="14.9910932"><ele>230.33333333333331</ele><time>2026-04-19T08:54:57.948Z</time></trkpt><trkpt lat="41.1937801" lon="14.9911507"><ele>229.5</ele><time>2026-04-19T08:54:58.937Z</time></trkpt><trkpt lat="41.193845" lon="14.9912281"><ele>228.66666666666669</ele><time>2026-04-19T08:54:59.979Z</time></trkpt><trkpt lat="41.1939019" lon="14.99133"><ele>227.83333333333334</ele><time>2026-04-19T08:55:00.949Z</time></trkpt><trkpt lat="41.1939419" lon="14.9913986"><ele>227.0</ele><time>2026-04-19T08:55:01.941Z</time></trkpt><trkpt lat="41.194018" lon="14.991439"><ele>227.0</ele><time>2026-04-19T08:55:03.947Z</time></trkpt><trkpt lat="41.1940901" lon="14.9914666"><ele>227.0</ele><time>2026-04-19T08:55:05.948Z</time></trkpt><trkpt lat="41.1942608" lon="14.991589"><ele>227.0</ele><time>2026-04-19T08:55:08.947Z</time></trkpt><trkpt lat="41.1943303" lon="14.9916865"><ele>227.0</ele><time>2026-04-19T08:55:09.944Z</time></trkpt><trkpt lat="41.1943835" lon="14.9917801"><ele>228.2</ele><time>2026-04-19T08:55:11.025Z</time></trkpt><trkpt lat="41.1944169" lon="14.9918747"><ele>229.39999999999998</ele><time>2026-04-19T08:55:12.031Z</time></trkpt><trkpt lat="41.1944406" lon="14.991979"><ele>230.60000000000002</ele><time>2026-04-19T08:55:12.951Z</time></trkpt><trkpt lat="41.1944469" lon="14.9920973"><ele>231.8</ele><time>2026-04-19T08:55:13.946Z</time></trkpt><trkpt lat="41.1944513" lon="14.9922316"><ele>233.0</ele><time>2026-04-19T08:55:14.964Z</time></trkpt><trkpt lat="41.1944593" lon="14.9923692"><ele>235.0</ele><time>2026-04-19T08:55:16.03Z</time></trkpt><trkpt lat="41.1944987" lon="14.992508"><ele>237.0</ele><time>2026-04-19T08:55:17.028Z</time></trkpt><trkpt lat="41.1945497" lon="14.9926527"><ele>239.0</ele><time>2026-04-19T08:55:17.947Z</time></trkpt><trkpt lat="41.1946028" lon="14.9928017"><ele>241.0</ele><time>2026-04-19T08:55:18.949Z</time></trkpt><trkpt lat="41.1946502" lon="14.992956"><ele>241.0</ele><time>2026-04-19T08:55:19.964Z</time></trkpt><trkpt lat="41.194696" lon="14.9931043"><ele>241.0</ele><time>2026-04-19T08:55:21.035Z</time></trkpt><trkpt lat="41.1947432" lon="14.9932487"><ele>241.0</ele><time>2026-04-19T08:55:22.026Z</time></trkpt><trkpt lat="41.1948043" lon="14.9933849"><ele>241.0</ele><time>2026-04-19T08:55:22.954Z</time></trkpt><trkpt lat="41.1948753" lon="14.9935152"><ele>238.75</ele><time>2026-04-19T08:55:23.953Z</time></trkpt><trkpt lat="41.194947" lon="14.9936481"><ele>236.5</ele><time>2026-04-19T08:55:24.972Z</time></trkpt><trkpt lat="41.1950211" lon="14.9937922"><ele>234.25</ele><time>2026-04-19T08:55:26.028Z</time></trkpt><trkpt lat="41.1950983" lon="14.9939353"><ele>232.0</ele><time>2026-04-19T08:55:27.028Z</time></trkpt><trkpt lat="41.195173" lon="14.9940725"><ele>233.6</ele><time>2026-04-19T08:55:27.952Z</time></trkpt><trkpt lat="41.1952383" lon="14.994193"><ele>235.2</ele><time>2026-04-19T08:55:28.947Z</time></trkpt><trkpt lat="41.195292" lon="14.9942863"><ele>236.8</ele><time>2026-04-19T08:55:29.945Z</time></trkpt><trkpt lat="41.1953283" lon="14.9943563"><ele>238.4</ele><time>2026-04-19T08:55:31.02Z</time></trkpt><trkpt lat="41.1953618" lon="14.9944567"><ele>240.0</ele><time>2026-04-19T08:55:32.949Z</time></trkpt><trkpt lat="41.1954354" lon="14.9945872"><ele>240.0</ele><time>2026-04-19T08:55:34.95Z</time></trkpt><trkpt lat="41.1954893" lon="14.9946615"><ele>240.0</ele><time>2026-04-19T08:55:35.946Z</time></trkpt><trkpt lat="41.1955464" lon="14.9947362"><ele>240.0</ele><time>2026-04-19T08:55:36.95Z</time></trkpt><trkpt lat="41.1956024" lon="14.9948143"><ele>240.0</ele><time>2026-04-19T08:55:37.954Z</time></trkpt><trkpt lat="41.1956641" lon="14.994896"><ele>240.0</ele><time>2026-04-19T08:55:38.956Z</time></trkpt><trkpt lat="41.1957259" lon="14.994989"><ele>240.0</ele><time>2026-04-19T08:55:39.948Z</time></trkpt><trkpt lat="41.1957881" lon="14.9950809"><ele>238.66666666666666</ele><time>2026-04-19T08:55:40.952Z</time></trkpt><trkpt lat="41.1958466" lon="14.9951713"><ele>237.33333333333331</ele><time>2026-04-19T08:55:41.956Z</time></trkpt><trkpt lat="41.1959052" lon="14.9952614"><ele>236.0</ele><time>2026-04-19T08:55:42.947Z</time></trkpt><trkpt lat="41.1959657" lon="14.995346"><ele>234.66666666666666</ele><time>2026-04-19T08:55:43.954Z</time></trkpt><trkpt lat="41.1960285" lon="14.9954292"><ele>233.33333333333331</ele><time>2026-04-19T08:55:44.964Z</time></trkpt><trkpt lat="41.1960897" lon="14.9955105"><ele>232.0</ele><time>2026-04-19T08:55:45.947Z</time></trkpt><trkpt lat="41.1961557" lon="14.995605"><ele>232.0</ele><time>2026-04-19T08:55:47.035Z</time></trkpt><trkpt lat="41.1962225" lon="14.9957051"><ele>232.0</ele><time>2026-04-19T08:55:47.951Z</time></trkpt><trkpt lat="41.1962824" lon="14.9958094"><ele>232.0</ele><time>2026-04-19T08:55:48.952Z</time></trkpt><trkpt lat="41.1963413" lon="14.9959227"><ele>232.0</ele><time>2026-04-19T08:55:49.95Z</time></trkpt><trkpt lat="41.1963977" lon="14.9960259"><ele>232.0</ele><time>2026-04-19T08:55:50.954Z</time></trkpt><trkpt lat="41.1964495" lon="14.9961283"><ele>232.16666666666666</ele><time>2026-04-19T08:55:51.948Z</time></trkpt><trkpt lat="41.1965002" lon="14.9962369"><ele>232.33333333333331</ele><time>2026-04-19T08:55:52.947Z</time></trkpt><trkpt lat="41.1965505" lon="14.9963205"><ele>232.5</ele><time>2026-04-19T08:55:54.03Z</time></trkpt><trkpt lat="41.196592" lon="14.9963996"><ele>232.66666666666669</ele><time>2026-04-19T08:55:55.031Z</time></trkpt><trkpt lat="41.1966401" lon="14.9964786"><ele>232.83333333333334</ele><time>2026-04-19T08:55:55.945Z</time></trkpt><trkpt lat="41.1966826" lon="14.9965458"><ele>233.0</ele><time>2026-04-19T08:55:57.025Z</time></trkpt><trkpt lat="41.1967462" lon="14.9966183"><ele>234.2</ele><time>2026-04-19T08:55:58.955Z</time></trkpt><trkpt lat="41.1968414" lon="14.9967328"><ele>235.4</ele><time>2026-04-19T08:56:00.952Z</time></trkpt><trkpt lat="41.1968882" lon="14.9968261"><ele>236.59999999999997</ele><time>2026-04-19T08:56:02.024Z</time></trkpt><trkpt lat="41.1969393" lon="14.9969381"><ele>237.79999999999998</ele><time>2026-04-19T08:56:02.951Z</time></trkpt><trkpt lat="41.196998" lon="14.9970354"><ele>239.0</ele><time>2026-04-19T08:56:03.952Z</time></trkpt><trkpt lat="41.1970623" lon="14.9971273"><ele>239.0</ele><time>2026-04-19T08:56:04.947Z</time></trkpt><trkpt lat="41.1971258" lon="14.9972226"><ele>239.0</ele><time>2026-04-19T08:56:05.952Z</time></trkpt><trkpt lat="41.197199" lon="14.997321"><ele>239.0</ele><time>2026-04-19T08:56:06.958Z</time></trkpt><trkpt lat="41.1972912" lon="14.9974292"><ele>239.0</ele><time>2026-04-19T08:56:07.949Z</time></trkpt><trkpt lat="41.1973881" lon="14.9975409"><ele>240.79999999999998</ele><time>2026-04-19T08:56:08.948Z</time></trkpt><trkpt lat="41.1974796" lon="14.9976521"><ele>242.59999999999997</ele><time>2026-04-19T08:56:09.976Z</time></trkpt><trkpt lat="41.197557" lon="14.9977479"><ele>244.4</ele><time>2026-04-19T08:56:10.966Z</time></trkpt><trkpt lat="41.1976325" lon="14.9978206"><ele>246.2</ele><time>2026-04-19T08:56:11.95Z</time></trkpt><trkpt lat="41.1977233" lon="14.997894"><ele>248.0</ele><time>2026-04-19T08:56:12.947Z</time></trkpt><trkpt lat="41.1978231" lon="14.9979729"><ele>248.0</ele><time>2026-04-19T08:56:13.949Z</time></trkpt><trkpt lat="41.1979317" lon="14.9980563"><ele>248.0</ele><time>2026-04-19T08:56:14.95Z</time></trkpt><trkpt lat="41.1980549" lon="14.9981452"><ele>248.0</ele><time>2026-04-19T08:56:15.953Z</time></trkpt><trkpt lat="41.1981657" lon="14.9982164"><ele>248.0</ele><time>2026-04-19T08:56:16.952Z</time></trkpt><trkpt lat="41.1982573" lon="14.9982498"><ele>249.00000000000003</ele><time>2026-04-19T08:56:17.949Z</time></trkpt><trkpt lat="41.1983421" lon="14.9982729"><ele>250.0</ele><time>2026-04-19T08:56:19.04Z</time></trkpt><trkpt lat="41.1984264" lon="14.9982931"><ele>251.0</ele><time>2026-04-19T08:56:20.025Z</time></trkpt><trkpt lat="41.1985319" lon="14.9983222"><ele>252.0</ele><time>2026-04-19T08:56:22.032Z</time></trkpt><trkpt lat="41.1986028" lon="14.9983294"><ele>253.00000000000003</ele><time>2026-04-19T08:56:22.993Z</time></trkpt><trkpt lat="41.1986922" lon="14.9983548"><ele>254.0</ele><time>2026-04-19T08:56:24.028Z</time></trkpt><trkpt lat="41.1987895" lon="14.9983921"><ele>254.0</ele><time>2026-04-19T08:56:25.029Z</time></trkpt><trkpt lat="41.1988932" lon="14.998427"><ele>253.99999999999997</ele><time>2026-04-19T08:56:26.027Z</time></trkpt><trkpt lat="41.1989982" lon="14.9984641"><ele>253.99999999999997</ele><time>2026-04-19T08:56:27.029Z</time></trkpt><trkpt lat="41.199092" lon="14.998506"><ele>254.0</ele><time>2026-04-19T08:56:27.949Z</time></trkpt><trkpt lat="41.1991944" lon="14.9985544"><ele>254.0</ele><time>2026-04-19T08:56:29.956Z</time></trkpt><trkpt lat="41.1992558" lon="14.998589"><ele>251.2</ele><time>2026-04-19T08:56:30.948Z</time></trkpt><trkpt lat="41.1993232" lon="14.9986455"><ele>248.39999999999998</ele><time>2026-04-19T08:56:31.953Z</time></trkpt><trkpt lat="41.1994117" lon="14.9987312"><ele>245.6</ele><time>2026-04-19T08:56:32.951Z</time></trkpt><trkpt lat="41.1995095" lon="14.9988147"><ele>242.8</ele><time>2026-04-19T08:56:33.96Z</time></trkpt><trkpt lat="41.1996045" lon="14.998888"><ele>240.0</ele><time>2026-04-19T08:56:35.021Z</time></trkpt><trkpt lat="41.1997" lon="14.9989516"><ele>240.0</ele><time>2026-04-19T08:56:36.018Z</time></trkpt><trkpt lat="41.199794" lon="14.9990004"><ele>240.0</ele><time>2026-04-19T08:56:37.03Z</time></trkpt><trkpt lat="41.1998891" lon="14.9990311"><ele>240.0</ele><time>2026-04-19T08:56:37.95Z</time></trkpt><trkpt lat="41.1999917" lon="14.9990548"><ele>240.0</ele><time>2026-04-19T08:56:38.951Z</time></trkpt><trkpt lat="41.2001012" lon="14.9990785"><ele>240.0</ele><time>2026-04-19T08:56:39.951Z</time></trkpt><trkpt lat="41.2002156" lon="14.9990951"><ele>238.75</ele><time>2026-04-19T08:56:41.03Z</time></trkpt><trkpt lat="41.2003279" lon="14.9990966"><ele>237.5</ele><time>2026-04-19T08:56:42.028Z</time></trkpt><trkpt lat="41.2004431" lon="14.9990965"><ele>236.25</ele><time>2026-04-19T08:56:42.954Z</time></trkpt><trkpt lat="41.2005534" lon="14.9991116"><ele>235.0</ele><time>2026-04-19T08:56:43.956Z</time></trkpt><trkpt lat="41.2006651" lon="14.9991451"><ele>235.25</ele><time>2026-04-19T08:56:44.948Z</time></trkpt><trkpt lat="41.2007806" lon="14.9991744"><ele>235.5</ele><time>2026-04-19T08:56:45.949Z</time></trkpt><trkpt lat="41.2008948" lon="14.9992058"><ele>235.75</ele><time>2026-04-19T08:56:46.943Z</time></trkpt><trkpt lat="41.2010065" lon="14.9992376"><ele>236.0</ele><time>2026-04-19T08:56:47.953Z</time></trkpt><trkpt lat="41.2011222" lon="14.9992736"><ele>236.0</ele><time>2026-04-19T08:56:48.957Z</time></trkpt><trkpt lat="41.2012339" lon="14.9993155"><ele>236.00000000000003</ele><time>2026-04-19T08:56:49.955Z</time></trkpt><trkpt lat="41.2013379" lon="14.9993611"><ele>236.00000000000003</ele><time>2026-04-19T08:56:50.947Z</time></trkpt><trkpt lat="41.201436" lon="14.9994225"><ele>236.0</ele><time>2026-04-19T08:56:52.034Z</time></trkpt><trkpt lat="41.2015336" lon="14.9994799"><ele>236.0</ele><time>2026-04-19T08:56:52.96Z</time></trkpt><trkpt lat="41.2016257" lon="14.9995353"><ele>236.20000000000002</ele><time>2026-04-19T08:56:54.028Z</time></trkpt><trkpt lat="41.201713" lon="14.9996083"><ele>236.40000000000003</ele><time>2026-04-19T08:56:54.953Z</time></trkpt><trkpt lat="41.2018078" lon="14.999691"><ele>236.6</ele><time>2026-04-19T08:56:55.954Z</time></trkpt><trkpt lat="41.2019102" lon="14.9997742"><ele>236.8</ele><time>2026-04-19T08:56:56.949Z</time></trkpt><trkpt lat="41.202007" lon="14.9998443"><ele>237.0</ele><time>2026-04-19T08:56:57.948Z</time></trkpt><trkpt lat="41.2021098" lon="14.9999216"><ele>237.0</ele><time>2026-04-19T08:56:58.949Z</time></trkpt><trkpt lat="41.2022145" lon="15.0000022"><ele>237.0</ele><time>2026-04-19T08:57:00.027Z</time></trkpt><trkpt lat="41.2023165" lon="15.0000742"><ele>237.0</ele><time>2026-04-19T08:57:01.028Z</time></trkpt><trkpt lat="41.2024152" lon="15.000131"><ele>237.0</ele><time>2026-04-19T08:57:01.958Z</time></trkpt><trkpt lat="41.2025157" lon="15.0001813"><ele>236.8</ele><time>2026-04-19T08:57:02.956Z</time></trkpt><trkpt lat="41.2026138" lon="15.0002441"><ele>236.6</ele><time>2026-04-19T08:57:03.96Z</time></trkpt><trkpt lat="41.2027169" lon="15.0002941"><ele>236.40000000000003</ele><time>2026-04-19T08:57:04.961Z</time></trkpt><trkpt lat="41.2028248" lon="15.0003208"><ele>236.20000000000002</ele><time>2026-04-19T08:57:05.958Z</time></trkpt><trkpt lat="41.2029234" lon="15.000347"><ele>236.0</ele><time>2026-04-19T08:57:06.965Z</time></trkpt><trkpt lat="41.2030031" lon="15.0003907"><ele>236.0</ele><time>2026-04-19T08:57:07.961Z</time></trkpt><trkpt lat="41.2030632" lon="15.0004713"><ele>236.00000000000003</ele><time>2026-04-19T08:57:08.961Z</time></trkpt><trkpt lat="41.2031254" lon="15.0005707"><ele>236.00000000000003</ele><time>2026-04-19T08:57:09.959Z</time></trkpt><trkpt lat="41.2031834" lon="15.0006736"><ele>236.0</ele><time>2026-04-19T08:57:10.958Z</time></trkpt><trkpt lat="41.2032472" lon="15.0007826"><ele>236.0</ele><time>2026-04-19T08:57:11.959Z</time></trkpt><trkpt lat="41.2033059" lon="15.0008684"><ele>236.66666666666669</ele><time>2026-04-19T08:57:12.96Z</time></trkpt><trkpt lat="41.203357" lon="15.0009326"><ele>237.33333333333334</ele><time>2026-04-19T08:57:13.961Z</time></trkpt><trkpt lat="41.2034281" lon="15.0010581"><ele>238.0</ele><time>2026-04-19T08:57:15.959Z</time></trkpt><trkpt lat="41.2034814" lon="15.0011466"><ele>238.66666666666669</ele><time>2026-04-19T08:57:17.962Z</time></trkpt><trkpt lat="41.2035314" lon="15.0012251"><ele>239.33333333333334</ele><time>2026-04-19T08:57:20.961Z</time></trkpt><trkpt lat="41.2035795" lon="15.0012973"><ele>240.0</ele><time>2026-04-19T08:57:23.946Z</time></trkpt><trkpt lat="41.2036705" lon="15.0013999"><ele>240.0</ele><time>2026-04-19T08:57:25.952Z</time></trkpt><trkpt lat="41.2037446" lon="15.0014661"><ele>240.0</ele><time>2026-04-19T08:57:26.948Z</time></trkpt><trkpt lat="41.2038205" lon="15.0015258"><ele>240.0</ele><time>2026-04-19T08:57:27.95Z</time></trkpt><trkpt lat="41.2038953" lon="15.0015844"><ele>240.0</ele><time>2026-04-19T08:57:28.944Z</time></trkpt><trkpt lat="41.2039655" lon="15.0016422"><ele>240.0</ele><time>2026-04-19T08:57:29.971Z</time></trkpt><trkpt lat="41.2040494" lon="15.001697"><ele>240.0</ele><time>2026-04-19T08:57:30.976Z</time></trkpt><trkpt lat="41.2041349" lon="15.001761"><ele>240.16666666666666</ele><time>2026-04-19T08:57:31.946Z</time></trkpt><trkpt lat="41.2042209" lon="15.001829"><ele>240.33333333333331</ele><time>2026-04-19T08:57:32.948Z</time></trkpt><trkpt lat="41.2042963" lon="15.0018875"><ele>240.5</ele><time>2026-04-19T08:57:33.943Z</time></trkpt><trkpt lat="41.204324" lon="15.0019681"><ele>240.66666666666666</ele><time>2026-04-19T08:57:35.948Z</time></trkpt><trkpt lat="41.2042356" lon="15.0020629"><ele>240.83333333333331</ele><time>2026-04-19T08:57:37.944Z</time></trkpt><trkpt lat="41.2041725" lon="15.0021061"><ele>241.0</ele><time>2026-04-19T08:57:38.944Z</time></trkpt><trkpt lat="41.2041042" lon="15.0021568"><ele>241.0</ele><time>2026-04-19T08:57:40.042Z</time></trkpt><trkpt lat="41.2040296" lon="15.002215"><ele>241.00000000000003</ele><time>2026-04-19T08:57:41.026Z</time></trkpt><trkpt lat="41.2039473" lon="15.0022837"><ele>241.00000000000003</ele><time>2026-04-19T08:57:42.022Z</time></trkpt><trkpt lat="41.2038639" lon="15.0023662"><ele>241.0</ele><time>2026-04-19T08:57:42.992Z</time></trkpt><trkpt lat="41.2037891" lon="15.0024369"><ele>241.0</ele><time>2026-04-19T08:57:44.031Z</time></trkpt><trkpt lat="41.2037075" lon="15.0024962"><ele>244.4</ele><time>2026-04-19T08:57:45.03Z</time></trkpt><trkpt lat="41.203624" lon="15.0025544"><ele>247.8</ele><time>2026-04-19T08:57:46.029Z</time></trkpt><trkpt lat="41.2035478" lon="15.0026308"><ele>251.20000000000002</ele><time>2026-04-19T08:57:47.025Z</time></trkpt><trkpt lat="41.203473" lon="15.0027142"><ele>254.60000000000002</ele><time>2026-04-19T08:57:47.946Z</time></trkpt><trkpt lat="41.2034029" lon="15.0028006"><ele>258.0</ele><time>2026-04-19T08:57:48.948Z</time></trkpt><trkpt lat="41.2033342" lon="15.0028849"><ele>258.0</ele><time>2026-04-19T08:57:50.033Z</time></trkpt><trkpt lat="41.2032655" lon="15.002977"><ele>258.0</ele><time>2026-04-19T08:57:51.027Z</time></trkpt><trkpt lat="41.2031945" lon="15.0030671"><ele>258.0</ele><time>2026-04-19T08:57:51.978Z</time></trkpt><trkpt lat="41.2031168" lon="15.003165"><ele>258.0</ele><time>2026-04-19T08:57:52.95Z</time></trkpt><trkpt lat="41.2030406" lon="15.0032664"><ele>258.0</ele><time>2026-04-19T08:57:53.95Z</time></trkpt><trkpt lat="41.2029734" lon="15.0033527"><ele>260.4</ele><time>2026-04-19T08:57:55.04Z</time></trkpt><trkpt lat="41.2029123" lon="15.0034526"><ele>262.8</ele><time>2026-04-19T08:57:56.032Z</time></trkpt><trkpt lat="41.202851" lon="15.0035524"><ele>265.2</ele><time>2026-04-19T08:57:56.96Z</time></trkpt><trkpt lat="41.2027831" lon="15.0036406"><ele>267.6</ele><time>2026-04-19T08:57:57.952Z</time></trkpt><trkpt lat="41.2027062" lon="15.0037281"><ele>270.0</ele><time>2026-04-19T08:57:58.95Z</time></trkpt><trkpt lat="41.2026403" lon="15.0038133"><ele>270.0</ele><time>2026-04-19T08:58:00.028Z</time></trkpt><trkpt lat="41.2025886" lon="15.0038993"><ele>270.0</ele><time>2026-04-19T08:58:00.982Z</time></trkpt><trkpt lat="41.202538" lon="15.0039867"><ele>270.0</ele><time>2026-04-19T08:58:01.939Z</time></trkpt><trkpt lat="41.2024966" lon="15.004078"><ele>270.0</ele><time>2026-04-19T08:58:02.936Z</time></trkpt><trkpt lat="41.2024772" lon="15.0041821"><ele>270.0</ele><time>2026-04-19T08:58:03.941Z</time></trkpt><trkpt lat="41.2024912" lon="15.004273"><ele>270.0</ele><time>2026-04-19T08:58:04.944Z</time></trkpt><trkpt lat="41.2025496" lon="15.0043844"><ele>272.85714285714283</ele><time>2026-04-19T08:58:06.944Z</time></trkpt><trkpt lat="41.2025436" lon="15.0044897"><ele>275.71428571428567</ele><time>2026-04-19T08:58:08.938Z</time></trkpt><trkpt lat="41.2025022" lon="15.0045681"><ele>278.57142857142856</ele><time>2026-04-19T08:58:09.94Z</time></trkpt><trkpt lat="41.2024696" lon="15.0046568"><ele>281.42857142857144</ele><time>2026-04-19T08:58:10.945Z</time></trkpt><trkpt lat="41.2024455" lon="15.0047495"><ele>284.28571428571433</ele><time>2026-04-19T08:58:12.032Z</time></trkpt><trkpt lat="41.2024232" lon="15.0048465"><ele>287.14285714285717</ele><time>2026-04-19T08:58:12.944Z</time></trkpt><trkpt lat="41.2024291" lon="15.0049368"><ele>290.0</ele><time>2026-04-19T08:58:13.949Z</time></trkpt><trkpt lat="41.2024787" lon="15.0050547"><ele>292.0</ele><time>2026-04-19T08:58:15.947Z</time></trkpt><trkpt lat="41.2024601" lon="15.0051355"><ele>294.0</ele><time>2026-04-19T08:58:17.95Z</time></trkpt><trkpt lat="41.2024084" lon="15.0052035"><ele>296.0</ele><time>2026-04-19T08:58:18.951Z</time></trkpt><trkpt lat="41.2023671" lon="15.0052821"><ele>298.0</ele><time>2026-04-19T08:58:20.03Z</time></trkpt><trkpt lat="41.2023172" lon="15.0053704"><ele>300.0</ele><time>2026-04-19T08:58:21.032Z</time></trkpt><trkpt lat="41.2022607" lon="15.0054407"><ele>302.0</ele><time>2026-04-19T08:58:22.026Z</time></trkpt><trkpt lat="41.2021301" lon="15.0054999"><ele>302.0</ele><time>2026-04-19T08:58:23.942Z</time></trkpt><trkpt lat="41.2020383" lon="15.0054994"><ele>302.0</ele><time>2026-04-19T08:58:24.945Z</time></trkpt><trkpt lat="41.2019502" lon="15.0054802"><ele>302.0</ele><time>2026-04-19T08:58:25.944Z</time></trkpt><trkpt lat="41.2018627" lon="15.0054396"><ele>302.0</ele><time>2026-04-19T08:58:26.95Z</time></trkpt><trkpt lat="41.2018" lon="15.0053987"><ele>302.0</ele><time>2026-04-19T08:58:27.944Z</time></trkpt><trkpt lat="41.201678" lon="15.0054177"><ele>302.0</ele><time>2026-04-19T08:58:30.029Z</time></trkpt><trkpt lat="41.2016039" lon="15.0054313"><ele>302.0</ele><time>2026-04-19T08:58:31.026Z</time></trkpt><trkpt lat="41.2015231" lon="15.0054462"><ele>302.0</ele><time>2026-04-19T08:58:32.027Z</time></trkpt><trkpt lat="41.2014506" lon="15.0054779"><ele>302.0</ele><time>2026-04-19T08:58:32.955Z</time></trkpt><trkpt lat="41.2013752" lon="15.0055281"><ele>302.0</ele><time>2026-04-19T08:58:33.95Z</time></trkpt><trkpt lat="41.2013003" lon="15.0055636"><ele>302.0</ele><time>2026-04-19T08:58:35.039Z</time></trkpt><trkpt lat="41.2012207" lon="15.0055737"><ele>303.2</ele><time>2026-04-19T08:58:35.946Z</time></trkpt><trkpt lat="41.20114" lon="15.0055602"><ele>304.4</ele><time>2026-04-19T08:58:37.015Z</time></trkpt><trkpt lat="41.2010639" lon="15.0055281"><ele>305.6</ele><time>2026-04-19T08:58:37.944Z</time></trkpt><trkpt lat="41.2010034" lon="15.0054829"><ele>306.8</ele><time>2026-04-19T08:58:38.955Z</time></trkpt><trkpt lat="41.2008688" lon="15.0054435"><ele>308.0</ele><time>2026-04-19T08:58:41.016Z</time></trkpt><trkpt lat="41.2007772" lon="15.005433"><ele>308.0</ele><time>2026-04-19T08:58:42.028Z</time></trkpt><trkpt lat="41.2006841" lon="15.0054044"><ele>308.0</ele><time>2026-04-19T08:58:42.946Z</time></trkpt><trkpt lat="41.2005944" lon="15.0053559"><ele>308.0</ele><time>2026-04-19T08:58:43.945Z</time></trkpt><trkpt lat="41.2005186" lon="15.0053204"><ele>308.0</ele><time>2026-04-19T08:58:44.97Z</time></trkpt><trkpt lat="41.2004245" lon="15.0053734"><ele>308.0</ele><time>2026-04-19T08:58:47.027Z</time></trkpt><trkpt lat="41.2003835" lon="15.0054405"><ele>308.0</ele><time>2026-04-19T08:58:47.97Z</time></trkpt><trkpt lat="41.2003415" lon="15.0055155"><ele>311.0</ele><time>2026-04-19T08:58:49.029Z</time></trkpt><trkpt lat="41.200297" lon="15.0055905"><ele>314.0</ele><time>2026-04-19T08:58:50.024Z</time></trkpt><trkpt lat="41.2002355" lon="15.005643"><ele>317.0</ele><time>2026-04-19T08:58:51.023Z</time></trkpt><trkpt lat="41.2001155" lon="15.0056331"><ele>320.0</ele><time>2026-04-19T08:58:52.965Z</time></trkpt><trkpt lat="41.2000243" lon="15.0056189"><ele>323.0</ele><time>2026-04-19T08:58:55.03Z</time></trkpt><trkpt lat="41.1999282" lon="15.0056659"><ele>325.33333333333337</ele><time>2026-04-19T08:58:56.952Z</time></trkpt><trkpt lat="41.1998062" lon="15.0057106"><ele>327.6666666666667</ele><time>2026-04-19T08:58:59.033Z</time></trkpt><trkpt lat="41.199736" lon="15.0057488"><ele>330.0</ele><time>2026-04-19T08:59:00.025Z</time></trkpt><trkpt lat="41.1996786" lon="15.0057844"><ele>332.3333333333333</ele><time>2026-04-19T08:59:00.949Z</time></trkpt><trkpt lat="41.1996199" lon="15.0058301"><ele>334.66666666666663</ele><time>2026-04-19T08:59:01.958Z</time></trkpt><trkpt lat="41.1995588" lon="15.0058742"><ele>337.0</ele><time>2026-04-19T08:59:02.958Z</time></trkpt><trkpt lat="41.1994836" lon="15.0059038"><ele>338.66666666666663</ele><time>2026-04-19T08:59:04.958Z</time></trkpt><trkpt lat="41.1995206" lon="15.0060213"><ele>340.3333333333333</ele><time>2026-04-19T08:59:08.962Z</time></trkpt><trkpt lat="41.1995685" lon="15.0060984"><ele>342.0</ele><time>2026-04-19T08:59:09.964Z</time></trkpt><trkpt lat="41.199629" lon="15.0061851"><ele>343.6666666666667</ele><time>2026-04-19T08:59:10.963Z</time></trkpt><trkpt lat="41.199683" lon="15.0062706"><ele>345.33333333333337</ele><time>2026-04-19T08:59:11.958Z</time></trkpt><trkpt lat="41.19973" lon="15.0063454"><ele>347.0</ele><time>2026-04-19T08:59:12.959Z</time></trkpt><trkpt lat="41.1997085" lon="15.0064636"><ele>347.0</ele><time>2026-04-19T08:59:14.959Z</time></trkpt><trkpt lat="41.1996319" lon="15.0065414"><ele>347.0</ele><time>2026-04-19T08:59:16.961Z</time></trkpt><trkpt lat="41.1995209" lon="15.0065846"><ele>347.0</ele><time>2026-04-19T08:59:17.957Z</time></trkpt><trkpt lat="41.1994223" lon="15.0065994"><ele>347.0</ele><time>2026-04-19T08:59:18.954Z</time></trkpt><trkpt lat="41.1993105" lon="15.0066025"><ele>347.0</ele><time>2026-04-19T08:59:20.03Z</time></trkpt><trkpt lat="41.1992216" lon="15.0066135"><ele>347.0</ele><time>2026-04-19T08:59:21.028Z</time></trkpt><trkpt lat="41.1991473" lon="15.0066452"><ele>347.0</ele><time>2026-04-19T08:59:22.029Z</time></trkpt><trkpt lat="41.1990699" lon="15.0066911"><ele>347.0</ele><time>2026-04-19T08:59:22.948Z</time></trkpt><trkpt lat="41.1989911" lon="15.0067359"><ele>347.0</ele><time>2026-04-19T08:59:23.947Z</time></trkpt><trkpt lat="41.198908" lon="15.0068033"><ele>347.0</ele><time>2026-04-19T08:59:24.949Z</time></trkpt><trkpt lat="41.1988153" lon="15.0068839"><ele>351.6</ele><time>2026-04-19T08:59:25.949Z</time></trkpt><trkpt lat="41.1987336" lon="15.006963"><ele>356.20000000000005</ele><time>2026-04-19T08:59:26.949Z</time></trkpt><trkpt lat="41.1986485" lon="15.0070536"><ele>360.8</ele><time>2026-04-19T08:59:27.947Z</time></trkpt><trkpt lat="41.1985626" lon="15.0071374"><ele>365.4</ele><time>2026-04-19T08:59:28.947Z</time></trkpt><trkpt lat="41.1985156" lon="15.0071942"><ele>370.0</ele><time>2026-04-19T08:59:29.946Z</time></trkpt><trkpt lat="41.1985117" lon="15.0073283"><ele>370.0</ele><time>2026-04-19T08:59:31.949Z</time></trkpt><trkpt lat="41.1985953" lon="15.0074354"><ele>370.0</ele><time>2026-04-19T08:59:33.95Z</time></trkpt><trkpt lat="41.1986591" lon="15.0074545"><ele>370.0</ele><time>2026-04-19T08:59:34.945Z</time></trkpt><trkpt lat="41.1987283" lon="15.0074608"><ele>370.0</ele><time>2026-04-19T08:59:35.947Z</time></trkpt><trkpt lat="41.1988066" lon="15.0074734"><ele>370.0</ele><time>2026-04-19T08:59:36.948Z</time></trkpt><trkpt lat="41.1988932" lon="15.0075406"><ele>370.0</ele><time>2026-04-19T08:59:37.949Z</time></trkpt><trkpt lat="41.1989795" lon="15.0076296"><ele>376.8</ele><time>2026-04-19T08:59:38.949Z</time></trkpt><trkpt lat="41.1990537" lon="15.0077027"><ele>383.6</ele><time>2026-04-19T08:59:39.947Z</time></trkpt><trkpt lat="41.199131" lon="15.0077688"><ele>390.4</ele><time>2026-04-19T08:59:40.95Z</time></trkpt><trkpt lat="41.1992128" lon="15.007825"><ele>397.2</ele><time>2026-04-19T08:59:41.945Z</time></trkpt><trkpt lat="41.1993141" lon="15.0078701"><ele>404.0</ele><time>2026-04-19T08:59:42.953Z</time></trkpt><trkpt lat="41.1994128" lon="15.0079167"><ele>404.0</ele><time>2026-04-19T08:59:43.945Z</time></trkpt><trkpt lat="41.1995032" lon="15.0079675"><ele>404.0</ele><time>2026-04-19T08:59:44.951Z</time></trkpt><trkpt lat="41.1995925" lon="15.0080265"><ele>404.0</ele><time>2026-04-19T08:59:45.95Z</time></trkpt><trkpt lat="41.1996792" lon="15.0080863"><ele>404.0</ele><time>2026-04-19T08:59:47.039Z</time></trkpt><trkpt lat="41.1997619" lon="15.0081354"><ele>404.0</ele><time>2026-04-19T08:59:47.946Z</time></trkpt><trkpt lat="41.1998447" lon="15.0081953"><ele>403.79999999999995</ele><time>2026-04-19T08:59:48.95Z</time></trkpt><trkpt lat="41.1999281" lon="15.0082624"><ele>403.59999999999997</ele><time>2026-04-19T08:59:49.961Z</time></trkpt><trkpt lat="41.2000112" lon="15.0083483"><ele>403.4</ele><time>2026-04-19T08:59:51.03Z</time></trkpt><trkpt lat="41.2000979" lon="15.0084456"><ele>403.2</ele><time>2026-04-19T08:59:52.026Z</time></trkpt><trkpt lat="41.20018" lon="15.0085312"><ele>403.0</ele><time>2026-04-19T08:59:52.945Z</time></trkpt><trkpt lat="41.2002574" lon="15.0085818"><ele>406.83333333333337</ele><time>2026-04-19T08:59:53.95Z</time></trkpt><trkpt lat="41.2003393" lon="15.0085973"><ele>410.6666666666667</ele><time>2026-04-19T08:59:56.027Z</time></trkpt><trkpt lat="41.2004084" lon="15.0085653"><ele>414.5</ele><time>2026-04-19T08:59:57.954Z</time></trkpt><trkpt lat="41.2004814" lon="15.0085017"><ele>418.33333333333337</ele><time>2026-04-19T08:59:58.956Z</time></trkpt><trkpt lat="41.2005634" lon="15.0084418"><ele>422.1666666666667</ele><time>2026-04-19T09:00:00.025Z</time></trkpt><trkpt lat="41.2006397" lon="15.0084031"><ele>426.0</ele><time>2026-04-19T09:00:01.03Z</time></trkpt><trkpt lat="41.200708" lon="15.0083758"><ele>426.0</ele><time>2026-04-19T09:00:02.028Z</time></trkpt><trkpt lat="41.200779" lon="15.0083544"><ele>426.0</ele><time>2026-04-19T09:00:02.952Z</time></trkpt><trkpt lat="41.2008389" lon="15.0083079"><ele>426.0</ele><time>2026-04-19T09:00:03.953Z</time></trkpt><trkpt lat="41.2009007" lon="15.0082355"><ele>426.0</ele><time>2026-04-19T09:00:04.955Z</time></trkpt><trkpt lat="41.2009621" lon="15.0081381"><ele>426.0</ele><time>2026-04-19T09:00:05.947Z</time></trkpt><trkpt lat="41.201029" lon="15.0080453"><ele>426.0</ele><time>2026-04-19T09:00:06.952Z</time></trkpt><trkpt lat="41.201102" lon="15.0079595"><ele>423.1666666666667</ele><time>2026-04-19T09:00:07.96Z</time></trkpt><trkpt lat="41.2011693" lon="15.0079089"><ele>420.33333333333337</ele><time>2026-04-19T09:00:08.953Z</time></trkpt><trkpt lat="41.2012328" lon="15.0078852"><ele>417.5</ele><time>2026-04-19T09:00:09.955Z</time></trkpt><trkpt lat="41.2013676" lon="15.0078975"><ele>414.6666666666667</ele><time>2026-04-19T09:00:11.952Z</time></trkpt><trkpt lat="41.20144" lon="15.0079402"><ele>411.83333333333337</ele><time>2026-04-19T09:00:12.949Z</time></trkpt><trkpt lat="41.2015081" lon="15.0080059"><ele>409.0</ele><time>2026-04-19T09:00:13.95Z</time></trkpt><trkpt lat="41.2015884" lon="15.0080935"><ele>410.0</ele><time>2026-04-19T09:00:14.951Z</time></trkpt><trkpt lat="41.201675" lon="15.0081871"><ele>411.0</ele><time>2026-04-19T09:00:15.951Z</time></trkpt><trkpt lat="41.201737" lon="15.0082771"><ele>412.0</ele><time>2026-04-19T09:00:17.027Z</time></trkpt><trkpt lat="41.2017872" lon="15.0083729"><ele>413.0</ele><time>2026-04-19T09:00:17.95Z</time></trkpt><trkpt lat="41.2018257" lon="15.008486"><ele>414.0</ele><time>2026-04-19T09:00:18.958Z</time></trkpt><trkpt lat="41.2018601" lon="15.0086108"><ele>414.0</ele><time>2026-04-19T09:00:19.972Z</time></trkpt><trkpt lat="41.2018841" lon="15.0087374"><ele>414.0</ele><time>2026-04-19T09:00:20.951Z</time></trkpt><trkpt lat="41.2018887" lon="15.008875"><ele>414.0</ele><time>2026-04-19T09:00:22.037Z</time></trkpt><trkpt lat="41.2018946" lon="15.009026"><ele>414.0</ele><time>2026-04-19T09:00:22.945Z</time></trkpt><trkpt lat="41.2019075" lon="15.0091794"><ele>414.0</ele><time>2026-04-19T09:00:23.941Z</time></trkpt><trkpt lat="41.2019293" lon="15.009306"><ele>414.0</ele><time>2026-04-19T09:00:24.976Z</time></trkpt><trkpt lat="41.2019727" lon="15.0094271"><ele>414.0</ele><time>2026-04-19T09:00:25.946Z</time></trkpt><trkpt lat="41.202031" lon="15.0095454"><ele>414.0</ele><time>2026-04-19T09:00:27.035Z</time></trkpt><trkpt lat="41.2020906" lon="15.00967"><ele>414.0</ele><time>2026-04-19T09:00:27.949Z</time></trkpt><trkpt lat="41.202131" lon="15.0097649"><ele>414.0</ele><time>2026-04-19T09:00:28.957Z</time></trkpt><trkpt lat="41.2021559" lon="15.0098629"><ele>414.0</ele><time>2026-04-19T09:00:29.992Z</time></trkpt><trkpt lat="41.2021782" lon="15.009983"><ele>414.0</ele><time>2026-04-19T09:00:31.026Z</time></trkpt><trkpt lat="41.2022004" lon="15.0101307"><ele>414.0</ele><time>2026-04-19T09:00:32.026Z</time></trkpt><trkpt lat="41.2022292" lon="15.0102885"><ele>414.0</ele><time>2026-04-19T09:00:32.941Z</time></trkpt><trkpt lat="41.2022569" lon="15.0104237"><ele>414.0</ele><time>2026-04-19T09:00:33.945Z</time></trkpt><trkpt lat="41.2022756" lon="15.0105488"><ele>413.4</ele><time>2026-04-19T09:00:34.949Z</time></trkpt><trkpt lat="41.2022694" lon="15.0106809"><ele>412.79999999999995</ele><time>2026-04-19T09:00:36.03Z</time></trkpt><trkpt lat="41.2022548" lon="15.0108222"><ele>412.20000000000005</ele><time>2026-04-19T09:00:37.03Z</time></trkpt><trkpt lat="41.2022514" lon="15.0109684"><ele>411.6</ele><time>2026-04-19T09:00:37.95Z</time></trkpt><trkpt lat="41.20226" lon="15.0111361"><ele>411.0</ele><time>2026-04-19T09:00:38.951Z</time></trkpt><trkpt lat="41.2022745" lon="15.0113018"><ele>410.0</ele><time>2026-04-19T09:00:39.95Z</time></trkpt><trkpt lat="41.2022821" lon="15.0114631"><ele>409.0</ele><time>2026-04-19T09:00:41.017Z</time></trkpt><trkpt lat="41.2022916" lon="15.0116187"><ele>408.0</ele><time>2026-04-19T09:00:42.03Z</time></trkpt><trkpt lat="41.2023038" lon="15.0117735"><ele>407.0</ele><time>2026-04-19T09:00:42.952Z</time></trkpt><trkpt lat="41.2023141" lon="15.0119279"><ele>406.20000000000005</ele><time>2026-04-19T09:00:43.951Z</time></trkpt><trkpt lat="41.2023163" lon="15.0120872"><ele>405.4</ele><time>2026-04-19T09:00:44.945Z</time></trkpt><trkpt lat="41.2023113" lon="15.0122179"><ele>404.6</ele><time>2026-04-19T09:00:45.947Z</time></trkpt><trkpt lat="41.2023119" lon="15.0123125"><ele>403.79999999999995</ele><time>2026-04-19T09:00:46.951Z</time></trkpt><trkpt lat="41.2022623" lon="15.0124391"><ele>403.0</ele><time>2026-04-19T09:00:48.939Z</time></trkpt><trkpt lat="41.2022074" lon="15.0124903"><ele>402.79999999999995</ele><time>2026-04-19T09:00:49.941Z</time></trkpt><trkpt lat="41.2021342" lon="15.0125507"><ele>402.6</ele><time>2026-04-19T09:00:50.944Z</time></trkpt><trkpt lat="41.2020575" lon="15.0126179"><ele>402.4</ele><time>2026-04-19T09:00:51.95Z</time></trkpt><trkpt lat="41.2019949" lon="15.0126961"><ele>402.20000000000005</ele><time>2026-04-19T09:00:52.949Z</time></trkpt><trkpt lat="41.2019576" lon="15.0128356"><ele>402.0</ele><time>2026-04-19T09:00:54.955Z</time></trkpt><trkpt lat="41.2019705" lon="15.0129437"><ele>402.0</ele><time>2026-04-19T09:00:55.946Z</time></trkpt><trkpt lat="41.2020076" lon="15.0130764"><ele>402.0</ele><time>2026-04-19T09:00:56.946Z</time></trkpt><trkpt lat="41.2020649" lon="15.0132345"><ele>402.0</ele><time>2026-04-19T09:00:57.936Z</time></trkpt><trkpt lat="41.20209" lon="15.0133585"><ele>402.0</ele><time>2026-04-19T09:00:58.954Z</time></trkpt><trkpt lat="41.2021834" lon="15.0134887"><ele>400.40000000000003</ele><time>2026-04-19T09:01:00.949Z</time></trkpt><trkpt lat="41.2022603" lon="15.0135643"><ele>398.8</ele><time>2026-04-19T09:01:01.949Z</time></trkpt><trkpt lat="41.2023394" lon="15.013662"><ele>397.2</ele><time>2026-04-19T09:01:02.947Z</time></trkpt><trkpt lat="41.2024217" lon="15.0137776"><ele>395.6</ele><time>2026-04-19T09:01:03.945Z</time></trkpt><trkpt lat="41.2024851" lon="15.0138878"><ele>394.0</ele><time>2026-04-19T09:01:04.952Z</time></trkpt><trkpt lat="41.2025601" lon="15.0140041"><ele>389.6</ele><time>2026-04-19T09:01:05.945Z</time></trkpt><trkpt lat="41.2026146" lon="15.0141286"><ele>385.2</ele><time>2026-04-19T09:01:06.946Z</time></trkpt><trkpt lat="41.2026613" lon="15.0142649"><ele>380.8</ele><time>2026-04-19T09:01:07.948Z</time></trkpt><trkpt lat="41.202727" lon="15.0143916"><ele>376.40000000000003</ele><time>2026-04-19T09:01:08.958Z</time></trkpt><trkpt lat="41.2027843" lon="15.014499"><ele>372.0</ele><time>2026-04-19T09:01:09.949Z</time></trkpt><trkpt lat="41.2028464" lon="15.0146487"><ele>372.0</ele><time>2026-04-19T09:01:11.946Z</time></trkpt><trkpt lat="41.2028811" lon="15.0147408"><ele>372.0</ele><time>2026-04-19T09:01:12.952Z</time></trkpt><trkpt lat="41.2029198" lon="15.0148228"><ele>372.0</ele><time>2026-04-19T09:01:13.944Z</time></trkpt><trkpt lat="41.2029708" lon="15.0148861"><ele>372.0</ele><time>2026-04-19T09:01:14.941Z</time></trkpt><trkpt lat="41.2030332" lon="15.0149634"><ele>372.0</ele><time>2026-04-19T09:01:15.95Z</time></trkpt><trkpt lat="41.2031093" lon="15.0150554"><ele>372.0</ele><time>2026-04-19T09:01:16.948Z</time></trkpt><trkpt lat="41.2031827" lon="15.0151393"><ele>371.0</ele><time>2026-04-19T09:01:17.949Z</time></trkpt><trkpt lat="41.2032577" lon="15.0152016"><ele>370.0</ele><time>2026-04-19T09:01:18.949Z</time></trkpt><trkpt lat="41.2033382" lon="15.0152626"><ele>369.0</ele><time>2026-04-19T09:01:19.95Z</time></trkpt><trkpt lat="41.2034139" lon="15.0153498"><ele>368.0</ele><time>2026-04-19T09:01:21.027Z</time></trkpt><trkpt lat="41.2034859" lon="15.0154538"><ele>367.0</ele><time>2026-04-19T09:01:22.029Z</time></trkpt><trkpt lat="41.2035542" lon="15.0155706"><ele>367.0</ele><time>2026-04-19T09:01:22.947Z</time></trkpt><trkpt lat="41.2036103" lon="15.015679"><ele>367.0</ele><time>2026-04-19T09:01:23.946Z</time></trkpt><trkpt lat="41.2036527" lon="15.0157703"><ele>367.0</ele><time>2026-04-19T09:01:25.047Z</time></trkpt><trkpt lat="41.2036861" lon="15.0158664"><ele>367.0</ele><time>2026-04-19T09:01:26.013Z</time></trkpt><trkpt lat="41.203705" lon="15.0159779"><ele>367.0</ele><time>2026-04-19T09:01:27.008Z</time></trkpt><trkpt lat="41.2037187" lon="15.0161094"><ele>367.0</ele><time>2026-04-19T09:01:27.945Z</time></trkpt><trkpt lat="41.2037304" lon="15.0162476"><ele>369.8</ele><time>2026-04-19T09:01:28.949Z</time></trkpt><trkpt lat="41.2037413" lon="15.0163938"><ele>372.6</ele><time>2026-04-19T09:01:30.018Z</time></trkpt><trkpt lat="41.2037457" lon="15.0165388"><ele>375.40000000000003</ele><time>2026-04-19T09:01:31.029Z</time></trkpt><trkpt lat="41.2037546" lon="15.0166707"><ele>378.20000000000005</ele><time>2026-04-19T09:01:32.028Z</time></trkpt><trkpt lat="41.2037641" lon="15.016802"><ele>381.0</ele><time>2026-04-19T09:01:32.954Z</time></trkpt><trkpt lat="41.2037674" lon="15.0169515"><ele>382.6</ele><time>2026-04-19T09:01:33.95Z</time></trkpt><trkpt lat="41.2037763" lon="15.0171005"><ele>384.20000000000005</ele><time>2026-04-19T09:01:34.949Z</time></trkpt><trkpt lat="41.2037822" lon="15.0172146"><ele>385.79999999999995</ele><time>2026-04-19T09:01:35.956Z</time></trkpt><trkpt lat="41.2037565" lon="15.0173208"><ele>387.4</ele><time>2026-04-19T09:01:37.954Z</time></trkpt><trkpt lat="41.2036073" lon="15.0173909"><ele>389.0</ele><time>2026-04-19T09:01:40.03Z</time></trkpt><trkpt lat="41.2035032" lon="15.0174413"><ele>390.25</ele><time>2026-04-19T09:01:40.961Z</time></trkpt><trkpt lat="41.2033948" lon="15.0175178"><ele>391.5</ele><time>2026-04-19T09:01:41.964Z</time></trkpt><trkpt lat="41.2032911" lon="15.0176066"><ele>392.75</ele><time>2026-04-19T09:01:42.959Z</time></trkpt><trkpt lat="41.203185" lon="15.017691"><ele>394.0</ele><time>2026-04-19T09:01:43.961Z</time></trkpt><trkpt lat="41.2030786" lon="15.0177791"><ele>397.0</ele><time>2026-04-19T09:01:44.962Z</time></trkpt><trkpt lat="41.2029863" lon="15.0178549"><ele>400.0</ele><time>2026-04-19T09:01:45.964Z</time></trkpt><trkpt lat="41.2029091" lon="15.0179051"><ele>403.0</ele><time>2026-04-19T09:01:46.961Z</time></trkpt><trkpt lat="41.2028333" lon="15.0179261"><ele>406.0</ele><time>2026-04-19T09:01:47.957Z</time></trkpt><trkpt lat="41.202743" lon="15.0179267"><ele>409.0</ele><time>2026-04-19T09:01:48.958Z</time></trkpt><trkpt lat="41.2026551" lon="15.0178946"><ele>409.0</ele><time>2026-04-19T09:01:49.96Z</time></trkpt><trkpt lat="41.2025542" lon="15.0178387"><ele>409.0</ele><time>2026-04-19T09:01:50.959Z</time></trkpt><trkpt lat="41.2024531" lon="15.0177774"><ele>409.0</ele><time>2026-04-19T09:01:52.004Z</time></trkpt><trkpt lat="41.2023377" lon="15.0177359"><ele>409.0</ele><time>2026-04-19T09:01:52.96Z</time></trkpt><trkpt lat="41.2022248" lon="15.0177029"><ele>411.79999999999995</ele><time>2026-04-19T09:01:53.963Z</time></trkpt><trkpt lat="41.2021133" lon="15.0176858"><ele>414.59999999999997</ele><time>2026-04-19T09:01:54.954Z</time></trkpt><trkpt lat="41.2020125" lon="15.0176794"><ele>417.4</ele><time>2026-04-19T09:01:55.961Z</time></trkpt><trkpt lat="41.2019126" lon="15.0176787"><ele>420.2</ele><time>2026-04-19T09:01:56.959Z</time></trkpt><trkpt lat="41.2018283" lon="15.0176642"><ele>423.0</ele><time>2026-04-19T09:01:57.963Z</time></trkpt><trkpt lat="41.2017654" lon="15.0176491"><ele>423.0</ele><time>2026-04-19T09:01:59.027Z</time></trkpt><trkpt lat="41.2016888" lon="15.0176347"><ele>423.0</ele><time>2026-04-19T09:02:01.029Z</time></trkpt><trkpt lat="41.2016327" lon="15.0176876"><ele>423.0</ele><time>2026-04-19T09:04:41.945Z</time></trkpt><trkpt lat="41.2016374" lon="15.0177783"><ele>423.0</ele><time>2026-04-19T09:04:47.959Z</time></trkpt><trkpt lat="41.2016639" lon="15.0178591"><ele>423.0</ele><time>2026-04-19T09:04:52.96Z</time></trkpt><trkpt lat="41.2016797" lon="15.0179421"><ele>423.0</ele><time>2026-04-19T09:04:57.961Z</time></trkpt><trkpt lat="41.2016087" lon="15.0179406"><ele>423.0</ele><time>2026-04-19T09:05:15.95Z</time></trkpt><trkpt lat="41.2015403" lon="15.0179384"><ele>423.0</ele><time>2026-04-19T09:05:27.95Z</time></trkpt><trkpt lat="41.2016066" lon="15.0179259"><ele>423.0</ele><time>2026-04-19T09:06:04.97Z</time></trkpt><trkpt lat="41.2016457" lon="15.0178517"><ele>423.0</ele><time>2026-04-19T09:06:12.953Z</time></trkpt><trkpt lat="41.2016762" lon="15.0177627"><ele>423.0</ele><time>2026-04-19T09:06:17.907Z</time></trkpt><trkpt lat="41.2017346" lon="15.0178146"><ele>423.0</ele><time>2026-04-19T09:09:34.956Z</time></trkpt><trkpt lat="41.2017968" lon="15.0178493"><ele>423.0</ele><time>2026-04-19T09:10:14.997Z</time></trkpt><trkpt lat="41.2018415" lon="15.0179203"><ele>423.0</ele><time>2026-04-19T09:10:22.964Z</time></trkpt><trkpt lat="41.2017737" lon="15.0179337"><ele>423.0</ele><time>2026-04-19T09:10:37.951Z</time></trkpt><trkpt lat="41.2017078" lon="15.0179094"><ele>423.0</ele><time>2026-04-19T09:10:43.39Z</time></trkpt><trkpt lat="41.2016359" lon="15.0179053"><ele>423.0</ele><time>2026-04-19T09:10:51.954Z</time></trkpt><trkpt lat="41.2015711" lon="15.0179334"><ele>423.0</ele><time>2026-04-19T09:10:59.949Z</time></trkpt><trkpt lat="41.2015093" lon="15.0179829"><ele>423.0</ele><time>2026-04-19T09:11:09.951Z</time></trkpt><trkpt lat="41.2015101" lon="15.0180797"><ele>423.0</ele><time>2026-04-19T09:11:36.891Z</time></trkpt><trkpt lat="41.2015649" lon="15.0181228"><ele>423.0</ele><time>2026-04-19T09:11:38.961Z</time></trkpt><trkpt lat="41.2016157" lon="15.0181767"><ele>423.0</ele><time>2026-04-19T09:11:41.945Z</time></trkpt><trkpt lat="41.2015806" lon="15.0182793"><ele>423.0</ele><time>2026-04-19T09:11:48.94Z</time></trkpt><trkpt lat="41.2015099" lon="15.0182939"><ele>423.0</ele><time>2026-04-19T09:11:51.952Z</time></trkpt><trkpt lat="41.2014439" lon="15.0182714"><ele>423.0</ele><time>2026-04-19T09:11:58.949Z</time></trkpt><trkpt lat="41.2014734" lon="15.018149"><ele>423.0</ele><time>2026-04-19T09:13:14.948Z</time></trkpt><trkpt lat="41.2014389" lon="15.018041"><ele>423.0</ele><time>2026-04-19T09:13:17.954Z</time></trkpt><trkpt lat="41.201382" lon="15.0179724"><ele>425.3333333333333</ele><time>2026-04-19T09:13:21.914Z</time></trkpt><trkpt lat="41.2012972" lon="15.017959"><ele>427.66666666666663</ele><time>2026-04-19T09:13:25.952Z</time></trkpt><trkpt lat="41.2012265" lon="15.0180124"><ele>430.0</ele><time>2026-04-19T09:13:28.94Z</time></trkpt><trkpt lat="41.2011578" lon="15.018055"><ele>432.3333333333333</ele><time>2026-04-19T09:13:31.948Z</time></trkpt><trkpt lat="41.2012016" lon="15.0179627"><ele>434.66666666666663</ele><time>2026-04-19T09:13:39.952Z</time></trkpt><trkpt lat="41.2012952" lon="15.0179178"><ele>437.0</ele><time>2026-04-19T09:13:42.915Z</time></trkpt><trkpt lat="41.2013656" lon="15.0179"><ele>436.99999999999994</ele><time>2026-04-19T09:13:46.948Z</time></trkpt><trkpt lat="41.2014307" lon="15.0179958"><ele>437.0</ele><time>2026-04-19T09:13:49.941Z</time></trkpt><trkpt lat="41.2015027" lon="15.0179793"><ele>437.0</ele><time>2026-04-19T09:13:52.947Z</time></trkpt><trkpt lat="41.2015546" lon="15.0179169"><ele>437.0</ele><time>2026-04-19T09:13:55.951Z</time></trkpt><trkpt lat="41.2015826" lon="15.0178314"><ele>436.99999999999994</ele><time>2026-04-19T09:14:02.949Z</time></trkpt><trkpt lat="41.2015999" lon="15.0177265"><ele>437.0</ele><time>2026-04-19T09:14:06.947Z</time></trkpt><trkpt lat="41.2015813" lon="15.0176124"><ele>437.0</ele><time>2026-04-19T09:14:09.953Z</time></trkpt><trkpt lat="41.2014951" lon="15.0175437"><ele>437.00000000000006</ele><time>2026-04-19T09:14:38.955Z</time></trkpt><trkpt lat="41.2014361" lon="15.0175028"><ele>437.00000000000006</ele><time>2026-04-19T09:14:40.953Z</time></trkpt><trkpt lat="41.2013509" lon="15.017472"><ele>437.0</ele><time>2026-04-19T09:14:41.948Z</time></trkpt><trkpt lat="41.2012183" lon="15.0174355"><ele>437.0</ele><time>2026-04-19T09:14:42.949Z</time></trkpt><trkpt lat="41.2010867" lon="15.017408"><ele>435.40000000000003</ele><time>2026-04-19T09:14:43.954Z</time></trkpt><trkpt lat="41.2009661" lon="15.0173835"><ele>433.80000000000007</ele><time>2026-04-19T09:14:44.949Z</time></trkpt><trkpt lat="41.2008574" lon="15.0173704"><ele>432.2</ele><time>2026-04-19T09:14:45.948Z</time></trkpt><trkpt lat="41.2007632" lon="15.0173769"><ele>430.6</ele><time>2026-04-19T09:14:46.949Z</time></trkpt><trkpt lat="41.2006784" lon="15.0174249"><ele>429.0</ele><time>2026-04-19T09:14:47.943Z</time></trkpt><trkpt lat="41.2006088" lon="15.0175104"><ele>432.4</ele><time>2026-04-19T09:14:48.946Z</time></trkpt><trkpt lat="41.200553" lon="15.0176188"><ele>435.79999999999995</ele><time>2026-04-19T09:14:49.943Z</time></trkpt><trkpt lat="41.2005029" lon="15.017745"><ele>439.20000000000005</ele><time>2026-04-19T09:14:50.956Z</time></trkpt><trkpt lat="41.200458" lon="15.0178772"><ele>442.6</ele><time>2026-04-19T09:14:51.948Z</time></trkpt><trkpt lat="41.2003912" lon="15.0179991"><ele>446.0</ele><time>2026-04-19T09:14:52.952Z</time></trkpt><trkpt lat="41.2003012" lon="15.0180959"><ele>446.0</ele><time>2026-04-19T09:14:53.951Z</time></trkpt><trkpt lat="41.2002042" lon="15.0181719"><ele>446.0</ele><time>2026-04-19T09:14:54.953Z</time></trkpt><trkpt lat="41.2000993" lon="15.0182454"><ele>446.0</ele><time>2026-04-19T09:14:55.946Z</time></trkpt><trkpt lat="41.1999975" lon="15.0183253"><ele>446.0</ele><time>2026-04-19T09:14:56.952Z</time></trkpt><trkpt lat="41.1999052" lon="15.0183786"><ele>449.8</ele><time>2026-04-19T09:14:57.948Z</time></trkpt><trkpt lat="41.1998112" lon="15.0183953"><ele>453.6</ele><time>2026-04-19T09:14:58.945Z</time></trkpt><trkpt lat="41.1997071" lon="15.0183823"><ele>457.4</ele><time>2026-04-19T09:14:59.945Z</time></trkpt><trkpt lat="41.1995929" lon="15.0183541"><ele>461.2</ele><time>2026-04-19T09:15:00.949Z</time></trkpt><trkpt lat="41.1994837" lon="15.0183275"><ele>465.0</ele><time>2026-04-19T09:15:01.95Z</time></trkpt><trkpt lat="41.1993779" lon="15.018325"><ele>465.0</ele><time>2026-04-19T09:15:02.95Z</time></trkpt><trkpt lat="41.1992741" lon="15.0183515"><ele>465.0</ele><time>2026-04-19T09:15:03.952Z</time></trkpt><trkpt lat="41.1991934" lon="15.0184129"><ele>465.0</ele><time>2026-04-19T09:15:04.95Z</time></trkpt><trkpt lat="41.19915" lon="15.0185404"><ele>465.0</ele><time>2026-04-19T09:15:05.947Z</time></trkpt><trkpt lat="41.1991157" lon="15.0187033"><ele>465.0</ele><time>2026-04-19T09:15:06.947Z</time></trkpt><trkpt lat="41.1990831" lon="15.0188667"><ele>465.0</ele><time>2026-04-19T09:15:07.948Z</time></trkpt><trkpt lat="41.1990507" lon="15.0190305"><ele>465.0</ele><time>2026-04-19T09:15:08.951Z</time></trkpt><trkpt lat="41.1990144" lon="15.0191929"><ele>465.0</ele><time>2026-04-19T09:15:09.948Z</time></trkpt><trkpt lat="41.1989749" lon="15.0193735"><ele>465.0</ele><time>2026-04-19T09:15:10.951Z</time></trkpt><trkpt lat="41.1989273" lon="15.0195446"><ele>466.8</ele><time>2026-04-19T09:15:11.949Z</time></trkpt><trkpt lat="41.1988833" lon="15.0196973"><ele>468.6</ele><time>2026-04-19T09:15:12.946Z</time></trkpt><trkpt lat="41.1988527" lon="15.0198378"><ele>470.4</ele><time>2026-04-19T09:15:13.949Z</time></trkpt><trkpt lat="41.1988225" lon="15.0199611"><ele>472.2</ele><time>2026-04-19T09:15:14.945Z</time></trkpt><trkpt lat="41.1987877" lon="15.0200707"><ele>474.0</ele><time>2026-04-19T09:15:15.949Z</time></trkpt><trkpt lat="41.1987313" lon="15.0201831"><ele>475.2</ele><time>2026-04-19T09:15:17.018Z</time></trkpt><trkpt lat="41.198673" lon="15.0202919"><ele>476.4</ele><time>2026-04-19T09:15:17.946Z</time></trkpt><trkpt lat="41.1986109" lon="15.0203977"><ele>477.6</ele><time>2026-04-19T09:15:18.948Z</time></trkpt><trkpt lat="41.1985457" lon="15.0204958"><ele>478.8</ele><time>2026-04-19T09:15:19.962Z</time></trkpt><trkpt lat="41.1984787" lon="15.0205593"><ele>480.0</ele><time>2026-04-19T09:15:20.948Z</time></trkpt><trkpt lat="41.1983859" lon="15.0205815"><ele>480.0</ele><time>2026-04-19T09:15:21.952Z</time></trkpt><trkpt lat="41.1982688" lon="15.0205836"><ele>480.0</ele><time>2026-04-19T09:15:22.941Z</time></trkpt><trkpt lat="41.1981397" lon="15.0205836"><ele>480.0</ele><time>2026-04-19T09:15:24.011Z</time></trkpt><trkpt lat="41.1980154" lon="15.020595"><ele>480.0</ele><time>2026-04-19T09:15:24.949Z</time></trkpt><trkpt lat="41.1978839" lon="15.0206276"><ele>482.8</ele><time>2026-04-19T09:15:26.013Z</time></trkpt><trkpt lat="41.1977676" lon="15.0206724"><ele>485.6</ele><time>2026-04-19T09:15:26.949Z</time></trkpt><trkpt lat="41.1976722" lon="15.0207273"><ele>488.4</ele><time>2026-04-19T09:15:27.95Z</time></trkpt><trkpt lat="41.1975958" lon="15.0207995"><ele>491.2</ele><time>2026-04-19T09:15:28.946Z</time></trkpt><trkpt lat="41.1975328" lon="15.0208922"><ele>494.0</ele><time>2026-04-19T09:15:29.951Z</time></trkpt><trkpt lat="41.1974782" lon="15.0210048"><ele>494.16666666666663</ele><time>2026-04-19T09:15:30.948Z</time></trkpt><trkpt lat="41.1974239" lon="15.0211036"><ele>494.3333333333333</ele><time>2026-04-19T09:15:31.946Z</time></trkpt><trkpt lat="41.197362" lon="15.0211851"><ele>494.5</ele><time>2026-04-19T09:15:32.944Z</time></trkpt><trkpt lat="41.1972946" lon="15.0212519"><ele>494.66666666666663</ele><time>2026-04-19T09:15:33.953Z</time></trkpt><trkpt lat="41.1972082" lon="15.0212834"><ele>494.8333333333333</ele><time>2026-04-19T09:15:34.949Z</time></trkpt><trkpt lat="41.1971279" lon="15.0212891"><ele>495.0</ele><time>2026-04-19T09:15:35.948Z</time></trkpt><trkpt lat="41.1970417" lon="15.0212731"><ele>497.2</ele><time>2026-04-19T09:15:36.946Z</time></trkpt><trkpt lat="41.1969435" lon="15.0212429"><ele>499.4</ele><time>2026-04-19T09:15:37.949Z</time></trkpt><trkpt lat="41.1968424" lon="15.0212007"><ele>501.6</ele><time>2026-04-19T09:15:38.952Z</time></trkpt><trkpt lat="41.1967469" lon="15.021156"><ele>503.8</ele><time>2026-04-19T09:15:39.951Z</time></trkpt><trkpt lat="41.1966627" lon="15.0211321"><ele>506.0</ele><time>2026-04-19T09:15:41.036Z</time></trkpt><trkpt lat="41.1965759" lon="15.0211187"><ele>505.8</ele><time>2026-04-19T09:15:42.029Z</time></trkpt><trkpt lat="41.19649" lon="15.0211301"><ele>505.6</ele><time>2026-04-19T09:15:42.962Z</time></trkpt><trkpt lat="41.1963962" lon="15.0211866"><ele>505.4</ele><time>2026-04-19T09:15:43.958Z</time></trkpt><trkpt lat="41.1963006" lon="15.0212728"><ele>505.2</ele><time>2026-04-19T09:15:45.042Z</time></trkpt><trkpt lat="41.1962117" lon="15.0213677"><ele>505.0</ele><time>2026-04-19T09:15:46.032Z</time></trkpt><trkpt lat="41.1961237" lon="15.0214813"><ele>505.0</ele><time>2026-04-19T09:15:47.014Z</time></trkpt><trkpt lat="41.1960272" lon="15.0216024"><ele>505.0</ele><time>2026-04-19T09:15:47.949Z</time></trkpt><trkpt lat="41.1959368" lon="15.0217233"><ele>505.0</ele><time>2026-04-19T09:15:49.014Z</time></trkpt><trkpt lat="41.1958441" lon="15.0218522"><ele>505.0</ele><time>2026-04-19T09:15:50.028Z</time></trkpt><trkpt lat="41.1957502" lon="15.0219724"><ele>505.0</ele><time>2026-04-19T09:15:50.952Z</time></trkpt><trkpt lat="41.1956663" lon="15.0220976"><ele>505.0</ele><time>2026-04-19T09:15:52.038Z</time></trkpt><trkpt lat="41.1955819" lon="15.022216"><ele>505.0</ele><time>2026-04-19T09:15:52.954Z</time></trkpt><trkpt lat="41.1955133" lon="15.0223588"><ele>505.0</ele><time>2026-04-19T09:15:53.949Z</time></trkpt><trkpt lat="41.1954539" lon="15.0225079"><ele>505.0</ele><time>2026-04-19T09:15:55.067Z</time></trkpt><trkpt lat="41.1953972" lon="15.0226657"><ele>505.0</ele><time>2026-04-19T09:15:56.03Z</time></trkpt><trkpt lat="41.1953424" lon="15.0228222"><ele>505.0</ele><time>2026-04-19T09:15:57.029Z</time></trkpt><trkpt lat="41.1952862" lon="15.0229732"><ele>505.0</ele><time>2026-04-19T09:15:57.96Z</time></trkpt><trkpt lat="41.195226" lon="15.0231208"><ele>505.0</ele><time>2026-04-19T09:15:59.027Z</time></trkpt><trkpt lat="41.1951441" lon="15.0232504"><ele>505.0</ele><time>2026-04-19T09:16:00.034Z</time></trkpt><trkpt lat="41.195061" lon="15.023386"><ele>505.0</ele><time>2026-04-19T09:16:01.026Z</time></trkpt><trkpt lat="41.1949745" lon="15.0235058"><ele>505.0</ele><time>2026-04-19T09:16:02.032Z</time></trkpt><trkpt lat="41.1949061" lon="15.0236171"><ele>504.5</ele><time>2026-04-19T09:16:02.951Z</time></trkpt><trkpt lat="41.194853" lon="15.0237531"><ele>504.0</ele><time>2026-04-19T09:16:04.024Z</time></trkpt><trkpt lat="41.1948176" lon="15.0239037"><ele>503.5</ele><time>2026-04-19T09:16:05.027Z</time></trkpt><trkpt lat="41.194787" lon="15.0240586"><ele>503.0</ele><time>2026-04-19T09:16:06.024Z</time></trkpt><trkpt lat="41.1947414" lon="15.0241936"><ele>506.99999999999994</ele><time>2026-04-19T09:16:06.952Z</time></trkpt><trkpt lat="41.1946903" lon="15.0242957"><ele>511.0</ele><time>2026-04-19T09:16:07.952Z</time></trkpt><trkpt lat="41.1946794" lon="15.0244062"><ele>515.0</ele><time>2026-04-19T09:16:08.944Z</time></trkpt><trkpt lat="41.1946804" lon="15.0245159"><ele>519.0</ele><time>2026-04-19T09:16:09.937Z</time></trkpt><trkpt lat="41.1946737" lon="15.0246151"><ele>523.0</ele><time>2026-04-19T09:16:10.957Z</time></trkpt><trkpt lat="41.1946588" lon="15.0247447"><ele>527.0</ele><time>2026-04-19T09:16:11.941Z</time></trkpt><trkpt lat="41.1946488" lon="15.0248803"><ele>527.8000000000001</ele><time>2026-04-19T09:16:12.945Z</time></trkpt><trkpt lat="41.1946425" lon="15.0250158"><ele>528.6</ele><time>2026-04-19T09:16:13.946Z</time></trkpt><trkpt lat="41.1946176" lon="15.0251472"><ele>529.4000000000001</ele><time>2026-04-19T09:16:14.941Z</time></trkpt><trkpt lat="41.1945904" lon="15.0252888"><ele>530.2</ele><time>2026-04-19T09:16:15.953Z</time></trkpt><trkpt lat="41.1945704" lon="15.0254492"><ele>531.0</ele><time>2026-04-19T09:16:16.951Z</time></trkpt><trkpt lat="41.1945366" lon="15.0256637"><ele>531.5</ele><time>2026-04-19T09:16:17.943Z</time></trkpt><trkpt lat="41.1945099" lon="15.0258347"><ele>532.0</ele><time>2026-04-19T09:16:18.951Z</time></trkpt><trkpt lat="41.1944829" lon="15.0260035"><ele>532.5</ele><time>2026-04-19T09:16:19.939Z</time></trkpt><trkpt lat="41.1944504" lon="15.0261687"><ele>533.0</ele><time>2026-04-19T09:16:20.963Z</time></trkpt><trkpt lat="41.1944133" lon="15.0263311"><ele>533.0</ele><time>2026-04-19T09:16:21.952Z</time></trkpt><trkpt lat="41.1943858" lon="15.0265029"><ele>533.0</ele><time>2026-04-19T09:16:22.954Z</time></trkpt><trkpt lat="41.1943542" lon="15.0266851"><ele>533.0</ele><time>2026-04-19T09:16:23.954Z</time></trkpt><trkpt lat="41.1943298" lon="15.0268762"><ele>533.0</ele><time>2026-04-19T09:16:24.949Z</time></trkpt><trkpt lat="41.1943104" lon="15.0270841"><ele>534.75</ele><time>2026-04-19T09:16:25.949Z</time></trkpt><trkpt lat="41.1942825" lon="15.0272839"><ele>536.5</ele><time>2026-04-19T09:16:26.949Z</time></trkpt><trkpt lat="41.1942454" lon="15.0274562"><ele>538.25</ele><time>2026-04-19T09:16:27.944Z</time></trkpt><trkpt lat="41.1942129" lon="15.0276067"><ele>540.0</ele><time>2026-04-19T09:16:28.948Z</time></trkpt><trkpt lat="41.1941968" lon="15.0277492"><ele>542.25</ele><time>2026-04-19T09:16:30.027Z</time></trkpt><trkpt lat="41.1941931" lon="15.0279084"><ele>544.5</ele><time>2026-04-19T09:16:31.031Z</time></trkpt><trkpt lat="41.1941895" lon="15.0280875"><ele>546.75</ele><time>2026-04-19T09:16:32.029Z</time></trkpt><trkpt lat="41.1941651" lon="15.0282375"><ele>549.0</ele><time>2026-04-19T09:16:32.956Z</time></trkpt><trkpt lat="41.1941415" lon="15.0283559"><ele>550.2</ele><time>2026-04-19T09:16:33.951Z</time></trkpt><trkpt lat="41.1941123" lon="15.0284569"><ele>551.4</ele><time>2026-04-19T09:16:36.044Z</time></trkpt><trkpt lat="41.1940713" lon="15.0285224"><ele>552.6</ele><time>2026-04-19T09:16:39.95Z</time></trkpt><trkpt lat="41.1940924" lon="15.0286781"><ele>553.8</ele><time>2026-04-19T09:16:42.031Z</time></trkpt><trkpt lat="41.1941189" lon="15.0288008"><ele>555.0</ele><time>2026-04-19T09:16:42.951Z</time></trkpt><trkpt lat="41.1941774" lon="15.0289543"><ele>555.0</ele><time>2026-04-19T09:16:43.945Z</time></trkpt><trkpt lat="41.1942415" lon="15.029121"><ele>555.0</ele><time>2026-04-19T09:16:44.948Z</time></trkpt><trkpt lat="41.1943064" lon="15.0293017"><ele>555.0</ele><time>2026-04-19T09:16:45.949Z</time></trkpt><trkpt lat="41.1943683" lon="15.0294774"><ele>555.0</ele><time>2026-04-19T09:16:46.953Z</time></trkpt><trkpt lat="41.1944254" lon="15.0296505"><ele>555.5</ele><time>2026-04-19T09:16:47.945Z</time></trkpt><trkpt lat="41.1944793" lon="15.0298194"><ele>556.0</ele><time>2026-04-19T09:16:48.949Z</time></trkpt><trkpt lat="41.1945267" lon="15.0299875"><ele>556.5</ele><time>2026-04-19T09:16:50.026Z</time></trkpt><trkpt lat="41.1945753" lon="15.0301493"><ele>557.0</ele><time>2026-04-19T09:16:51.03Z</time></trkpt><trkpt lat="41.1946281" lon="15.0303035"><ele>558.5</ele><time>2026-04-19T09:16:52.018Z</time></trkpt><trkpt lat="41.1946901" lon="15.0304573"><ele>560.0</ele><time>2026-04-19T09:16:52.948Z</time></trkpt><trkpt lat="41.1947715" lon="15.0305865"><ele>561.5</ele><time>2026-04-19T09:16:53.941Z</time></trkpt><trkpt lat="41.1948706" lon="15.0306921"><ele>563.0</ele><time>2026-04-19T09:16:54.949Z</time></trkpt><trkpt lat="41.194986" lon="15.0307692"><ele>559.5</ele><time>2026-04-19T09:16:55.95Z</time></trkpt><trkpt lat="41.1951097" lon="15.0308231"><ele>556.0</ele><time>2026-04-19T09:16:56.941Z</time></trkpt><trkpt lat="41.1952354" lon="15.0308781"><ele>552.5</ele><time>2026-04-19T09:16:57.944Z</time></trkpt><trkpt lat="41.1953612" lon="15.0309228"><ele>549.0</ele><time>2026-04-19T09:16:58.945Z</time></trkpt><trkpt lat="41.1954838" lon="15.0309755"><ele>549.0</ele><time>2026-04-19T09:17:00.028Z</time></trkpt><trkpt lat="41.1955943" lon="15.0310373"><ele>549.0</ele><time>2026-04-19T09:17:01.007Z</time></trkpt><trkpt lat="41.1956976" lon="15.0311116"><ele>549.0</ele><time>2026-04-19T09:17:01.94Z</time></trkpt><trkpt lat="41.1957906" lon="15.0311898"><ele>549.0</ele><time>2026-04-19T09:17:02.949Z</time></trkpt><trkpt lat="41.1958819" lon="15.031279"><ele>548.5</ele><time>2026-04-19T09:17:03.95Z</time></trkpt><trkpt lat="41.195965" lon="15.0314149"><ele>548.0</ele><time>2026-04-19T09:17:05.029Z</time></trkpt><trkpt lat="41.1960509" lon="15.0315718"><ele>547.5</ele><time>2026-04-19T09:17:06.03Z</time></trkpt><trkpt lat="41.1961543" lon="15.0317427"><ele>547.0</ele><time>2026-04-19T09:17:07.032Z</time></trkpt><trkpt lat="41.1962559" lon="15.0319122"><ele>547.0</ele><time>2026-04-19T09:17:07.95Z</time></trkpt><trkpt lat="41.1963454" lon="15.0320844"><ele>547.0</ele><time>2026-04-19T09:17:08.954Z</time></trkpt><trkpt lat="41.1964272" lon="15.0322745"><ele>547.0</ele><time>2026-04-19T09:17:09.95Z</time></trkpt><trkpt lat="41.1965012" lon="15.0324723"><ele>543.3333333333334</ele><time>2026-04-19T09:17:12.033Z</time></trkpt><trkpt lat="41.1965706" lon="15.0326757"><ele>539.6666666666666</ele><time>2026-04-19T09:17:12.942Z</time></trkpt><trkpt lat="41.196643" lon="15.0328688"><ele>536.0</ele><time>2026-04-19T09:17:13.944Z</time></trkpt><trkpt lat="41.1967189" lon="15.0330524"><ele>536.0</ele><time>2026-04-19T09:17:14.94Z</time></trkpt><trkpt lat="41.1967968" lon="15.0332224"><ele>536.0</ele><time>2026-04-19T09:17:15.945Z</time></trkpt><trkpt lat="41.196871" lon="15.0333815"><ele>536.0</ele><time>2026-04-19T09:17:17.009Z</time></trkpt><trkpt lat="41.1969381" lon="15.0335189"><ele>536.0</ele><time>2026-04-19T09:17:17.946Z</time></trkpt><trkpt lat="41.1969968" lon="15.0336436"><ele>537.6</ele><time>2026-04-19T09:17:18.939Z</time></trkpt><trkpt lat="41.1970444" lon="15.0337534"><ele>539.2</ele><time>2026-04-19T09:17:19.944Z</time></trkpt><trkpt lat="41.1970796" lon="15.0338378"><ele>540.8</ele><time>2026-04-19T09:17:21.012Z</time></trkpt><trkpt lat="41.1971061" lon="15.0339613"><ele>542.4</ele><time>2026-04-19T09:17:22.945Z</time></trkpt><trkpt lat="41.1970439" lon="15.0340259"><ele>544.0</ele><time>2026-04-19T09:17:24.941Z</time></trkpt><trkpt lat="41.1968214" lon="15.0340371"><ele>544.0</ele><time>2026-04-19T09:17:27.765Z</time></trkpt><trkpt lat="41.1967286" lon="15.0340119"><ele>544.0</ele><time>2026-04-19T09:17:28.768Z</time></trkpt><trkpt lat="41.1966106" lon="15.033984"><ele>544.0</ele><time>2026-04-19T09:17:29.772Z</time></trkpt><trkpt lat="41.1964851" lon="15.0339773"><ele>544.0</ele><time>2026-04-19T09:17:30.766Z</time></trkpt><trkpt lat="41.1963724" lon="15.0339617"><ele>547.2</ele><time>2026-04-19T09:17:31.764Z</time></trkpt><trkpt lat="41.1962822" lon="15.0339625"><ele>550.4</ele><time>2026-04-19T09:17:32.764Z</time></trkpt><trkpt lat="41.1961982" lon="15.0339665"><ele>553.6</ele><time>2026-04-19T09:17:33.764Z</time></trkpt><trkpt lat="41.1960574" lon="15.0339305"><ele>556.8</ele><time>2026-04-19T09:17:36.458Z</time></trkpt><trkpt lat="41.1959958" lon="15.0339031"><ele>560.0</ele><time>2026-04-19T09:17:39.387Z</time></trkpt><trkpt lat="41.1960555" lon="15.0339858"><ele>560.0</ele><time>2026-04-19T09:17:44.386Z</time></trkpt><trkpt lat="41.1960983" lon="15.0340767"><ele>560.0</ele><time>2026-04-19T09:17:46.386Z</time></trkpt><trkpt lat="41.1960788" lon="15.0341579"><ele>560.0</ele><time>2026-04-19T09:17:48.383Z</time></trkpt><trkpt lat="41.195995" lon="15.0342773"><ele>560.0</ele><time>2026-04-19T09:17:50.384Z</time></trkpt><trkpt lat="41.1959219" lon="15.0343736"><ele>560.0</ele><time>2026-04-19T09:17:52.388Z</time></trkpt><trkpt lat="41.1958688" lon="15.0344261"><ele>560.0</ele><time>2026-04-19T09:17:54.389Z</time></trkpt><trkpt lat="41.1958353" lon="15.0345089"><ele>560.0</ele><time>2026-04-19T09:17:57.379Z</time></trkpt><trkpt lat="41.1958486" lon="15.0346"><ele>560.0</ele><time>2026-04-19T09:18:41.01Z</time></trkpt><trkpt lat="41.1958428" lon="15.0345166"><ele>560.0</ele><time>2026-04-19T09:38:50.954Z</time></trkpt><trkpt lat="41.1957734" lon="15.0344389"><ele>560.0</ele><time>2026-04-19T09:38:54.967Z</time></trkpt><trkpt lat="41.1957176" lon="15.034351"><ele>560.0</ele><time>2026-04-19T09:38:56.956Z</time></trkpt><trkpt lat="41.195665" lon="15.0343021"><ele>560.0</ele><time>2026-04-19T09:38:57.954Z</time></trkpt><trkpt lat="41.1956182" lon="15.034244"><ele>560.0</ele><time>2026-04-19T09:38:58.956Z</time></trkpt><trkpt lat="41.1955531" lon="15.0341261"><ele>561.5</ele><time>2026-04-19T09:39:00.958Z</time></trkpt><trkpt lat="41.1955019" lon="15.0340093"><ele>563.0</ele><time>2026-04-19T09:39:02.954Z</time></trkpt><trkpt lat="41.1954573" lon="15.0339161"><ele>564.5</ele><time>2026-04-19T09:39:04.957Z</time></trkpt><trkpt lat="41.1954029" lon="15.0338283"><ele>566.0</ele><time>2026-04-19T09:39:07.963Z</time></trkpt><trkpt lat="41.1953669" lon="15.0337497"><ele>567.5</ele><time>2026-04-19T09:39:52.96Z</time></trkpt><trkpt lat="41.1953735" lon="15.0336542"><ele>569.0</ele><time>2026-04-19T09:41:04.96Z</time></trkpt><trkpt lat="41.1954246" lon="15.0335578"><ele>569.0</ele><time>2026-04-19T09:41:07.957Z</time></trkpt><trkpt lat="41.1954667" lon="15.0334739"><ele>569.0</ele><time>2026-04-19T09:41:09.959Z</time></trkpt><trkpt lat="41.1955057" lon="15.0334079"><ele>569.0</ele><time>2026-04-19T09:41:11.959Z</time></trkpt><trkpt lat="41.1955321" lon="15.0332659"><ele>569.0</ele><time>2026-04-19T09:41:14.956Z</time></trkpt><trkpt lat="41.1954901" lon="15.033175"><ele>569.0</ele><time>2026-04-19T09:41:15.955Z</time></trkpt><trkpt lat="41.1954336" lon="15.0330808"><ele>569.0</ele><time>2026-04-19T09:41:16.955Z</time></trkpt><trkpt lat="41.1953694" lon="15.0329702"><ele>568.75</ele><time>2026-04-19T09:41:17.952Z</time></trkpt><trkpt lat="41.1953004" lon="15.0328431"><ele>568.5</ele><time>2026-04-19T09:41:18.956Z</time></trkpt><trkpt lat="41.1952286" lon="15.0327159"><ele>568.25</ele><time>2026-04-19T09:41:19.951Z</time></trkpt><trkpt lat="41.1951475" lon="15.0325907"><ele>568.0</ele><time>2026-04-19T09:41:20.957Z</time></trkpt><trkpt lat="41.1950664" lon="15.0324768"><ele>566.0</ele><time>2026-04-19T09:41:21.955Z</time></trkpt><trkpt lat="41.1949804" lon="15.03235"><ele>564.0</ele><time>2026-04-19T09:41:22.954Z</time></trkpt><trkpt lat="41.1948906" lon="15.0322333"><ele>562.0</ele><time>2026-04-19T09:41:23.957Z</time></trkpt><trkpt lat="41.1947922" lon="15.0321284"><ele>560.0</ele><time>2026-04-19T09:41:24.956Z</time></trkpt><trkpt lat="41.1946833" lon="15.0320344"><ele>562.5</ele><time>2026-04-19T09:41:25.951Z</time></trkpt><trkpt lat="41.1945751" lon="15.0319389"><ele>565.0</ele><time>2026-04-19T09:41:26.949Z</time></trkpt><trkpt lat="41.194466" lon="15.0318325"><ele>567.5</ele><time>2026-04-19T09:41:27.955Z</time></trkpt><trkpt lat="41.1943615" lon="15.031727"><ele>570.0</ele><time>2026-04-19T09:41:28.953Z</time></trkpt><trkpt lat="41.1942619" lon="15.0316251"><ele>570.0</ele><time>2026-04-19T09:41:29.952Z</time></trkpt><trkpt lat="41.1941661" lon="15.031526"><ele>570.0</ele><time>2026-04-19T09:41:30.955Z</time></trkpt><trkpt lat="41.194084" lon="15.0314205"><ele>570.0</ele><time>2026-04-19T09:41:31.957Z</time></trkpt><trkpt lat="41.1940194" lon="15.0312897"><ele>570.0</ele><time>2026-04-19T09:41:32.952Z</time></trkpt><trkpt lat="41.1939672" lon="15.0311385"><ele>575.5</ele><time>2026-04-19T09:41:33.953Z</time></trkpt><trkpt lat="41.1939274" lon="15.0309822"><ele>581.0</ele><time>2026-04-19T09:41:34.954Z</time></trkpt><trkpt lat="41.1939006" lon="15.0308225"><ele>586.5</ele><time>2026-04-19T09:41:35.95Z</time></trkpt><trkpt lat="41.1938796" lon="15.0306796"><ele>592.0</ele><time>2026-04-19T09:41:36.956Z</time></trkpt><trkpt lat="41.193846" lon="15.0305429"><ele>592.0</ele><time>2026-04-19T09:41:37.957Z</time></trkpt><trkpt lat="41.19379" lon="15.0304102"><ele>592.0</ele><time>2026-04-19T09:41:38.956Z</time></trkpt><trkpt lat="41.1937274" lon="15.0302768"><ele>592.0</ele><time>2026-04-19T09:41:39.957Z</time></trkpt><trkpt lat="41.1936866" lon="15.0301225"><ele>592.0</ele><time>2026-04-19T09:41:40.96Z</time></trkpt><trkpt lat="41.1936447" lon="15.0299576"><ele>590.5</ele><time>2026-04-19T09:41:41.957Z</time></trkpt><trkpt lat="41.1936115" lon="15.029781"><ele>589.0</ele><time>2026-04-19T09:41:42.957Z</time></trkpt><trkpt lat="41.1935831" lon="15.0295956"><ele>587.5</ele><time>2026-04-19T09:41:43.957Z</time></trkpt><trkpt lat="41.1935549" lon="15.0294094"><ele>586.0</ele><time>2026-04-19T09:41:44.946Z</time></trkpt><trkpt lat="41.1935276" lon="15.0292266"><ele>584.0</ele><time>2026-04-19T09:41:45.95Z</time></trkpt><trkpt lat="41.1935047" lon="15.0290381"><ele>582.0</ele><time>2026-04-19T09:41:46.951Z</time></trkpt><trkpt lat="41.1934776" lon="15.0288423"><ele>580.0</ele><time>2026-04-19T09:41:47.954Z</time></trkpt><trkpt lat="41.1934599" lon="15.0286344"><ele>580.0</ele><time>2026-04-19T09:41:48.952Z</time></trkpt><trkpt lat="41.1934433" lon="15.0284347"><ele>580.0</ele><time>2026-04-19T09:41:49.957Z</time></trkpt><trkpt lat="41.1934211" lon="15.028235"><ele>580.0</ele><time>2026-04-19T09:41:50.952Z</time></trkpt><trkpt lat="41.19339" lon="15.0280393"><ele>577.25</ele><time>2026-04-19T09:41:51.952Z</time></trkpt><trkpt lat="41.1933548" lon="15.0278523"><ele>574.5</ele><time>2026-04-19T09:41:52.955Z</time></trkpt><trkpt lat="41.193312" lon="15.0276769"><ele>571.75</ele><time>2026-04-19T09:41:53.957Z</time></trkpt><trkpt lat="41.1932717" lon="15.0275057"><ele>569.0</ele><time>2026-04-19T09:41:55.019Z</time></trkpt><trkpt lat="41.1932298" lon="15.0273528"><ele>569.5</ele><time>2026-04-19T09:41:55.951Z</time></trkpt><trkpt lat="41.1931793" lon="15.0272222"><ele>570.0</ele><time>2026-04-19T09:41:57.055Z</time></trkpt><trkpt lat="41.1931092" lon="15.0270954"><ele>570.5</ele><time>2026-04-19T09:41:57.955Z</time></trkpt><trkpt lat="41.193028" lon="15.026966"><ele>571.0</ele><time>2026-04-19T09:41:58.957Z</time></trkpt><trkpt lat="41.1929576" lon="15.0268237"><ele>571.0</ele><time>2026-04-19T09:41:59.958Z</time></trkpt><trkpt lat="41.1929012" lon="15.0266623"><ele>571.0</ele><time>2026-04-19T09:42:00.956Z</time></trkpt><trkpt lat="41.1928514" lon="15.0265138"><ele>571.0</ele><time>2026-04-19T09:42:01.948Z</time></trkpt><trkpt lat="41.1927889" lon="15.0263817"><ele>571.0</ele><time>2026-04-19T09:42:02.955Z</time></trkpt><trkpt lat="41.1927272" lon="15.0262729"><ele>568.8</ele><time>2026-04-19T09:42:04.022Z</time></trkpt><trkpt lat="41.1926321" lon="15.0261733"><ele>566.6</ele><time>2026-04-19T09:42:04.949Z</time></trkpt><trkpt lat="41.192547" lon="15.0260746"><ele>564.4</ele><time>2026-04-19T09:42:05.942Z</time></trkpt><trkpt lat="41.1924814" lon="15.0259624"><ele>562.2</ele><time>2026-04-19T09:42:06.953Z</time></trkpt><trkpt lat="41.1924331" lon="15.0258543"><ele>560.0</ele><time>2026-04-19T09:42:07.956Z</time></trkpt><trkpt lat="41.1924071" lon="15.0257438"><ele>558.4</ele><time>2026-04-19T09:42:08.951Z</time></trkpt><trkpt lat="41.1924054" lon="15.0256323"><ele>556.8</ele><time>2026-04-19T09:42:09.949Z</time></trkpt><trkpt lat="41.1924365" lon="15.0255254"><ele>555.2</ele><time>2026-04-19T09:42:10.956Z</time></trkpt><trkpt lat="41.1924863" lon="15.0254124"><ele>553.6</ele><time>2026-04-19T09:42:12.036Z</time></trkpt><trkpt lat="41.1925304" lon="15.025293"><ele>552.0</ele><time>2026-04-19T09:42:13.017Z</time></trkpt><trkpt lat="41.1925614" lon="15.0251923"><ele>552.0</ele><time>2026-04-19T09:42:14.033Z</time></trkpt><trkpt lat="41.1925647" lon="15.0250989"><ele>552.0</ele><time>2026-04-19T09:42:14.952Z</time></trkpt><trkpt lat="41.1925225" lon="15.0249884"><ele>552.0</ele><time>2026-04-19T09:42:16.959Z</time></trkpt><trkpt lat="41.1923696" lon="15.0250513"><ele>552.0</ele><time>2026-04-19T09:42:18.953Z</time></trkpt><trkpt lat="41.1922474" lon="15.0250825"><ele>552.0</ele><time>2026-04-19T09:42:19.948Z</time></trkpt><trkpt lat="41.1921054" lon="15.0250993"><ele>547.6666666666666</ele><time>2026-04-19T09:42:20.982Z</time></trkpt><trkpt lat="41.191959" lon="15.025101"><ele>543.3333333333333</ele><time>2026-04-19T09:42:22.019Z</time></trkpt><trkpt lat="41.1918069" lon="15.0250949"><ele>539.0</ele><time>2026-04-19T09:42:23.028Z</time></trkpt><trkpt lat="41.1916516" lon="15.0250918"><ele>539.0</ele><time>2026-04-19T09:42:24.022Z</time></trkpt><trkpt lat="41.1915116" lon="15.0250903"><ele>539.0</ele><time>2026-04-19T09:42:25.026Z</time></trkpt><trkpt lat="41.1913791" lon="15.0250882"><ele>539.0</ele><time>2026-04-19T09:42:25.961Z</time></trkpt><trkpt lat="41.191258" lon="15.0250906"><ele>539.0</ele><time>2026-04-19T09:42:26.962Z</time></trkpt><trkpt lat="41.1911447" lon="15.0250879"><ele>533.8</ele><time>2026-04-19T09:42:27.96Z</time></trkpt><trkpt lat="41.1910449" lon="15.0250921"><ele>528.5999999999999</ele><time>2026-04-19T09:42:29.031Z</time></trkpt><trkpt lat="41.1909484" lon="15.0250943"><ele>523.4</ele><time>2026-04-19T09:42:30.028Z</time></trkpt><trkpt lat="41.1908521" lon="15.025087"><ele>518.1999999999999</ele><time>2026-04-19T09:42:30.95Z</time></trkpt><trkpt lat="41.1907587" lon="15.0250421"><ele>513.0</ele><time>2026-04-19T09:42:32.027Z</time></trkpt><trkpt lat="41.190682" lon="15.0249915"><ele>509.28571428571433</ele><time>2026-04-19T09:42:33.03Z</time></trkpt><trkpt lat="41.1906105" lon="15.0249589"><ele>505.57142857142856</ele><time>2026-04-19T09:42:33.952Z</time></trkpt><trkpt lat="41.1905325" lon="15.0249618"><ele>501.8571428571429</ele><time>2026-04-19T09:42:35.028Z</time></trkpt><trkpt lat="41.190453" lon="15.0250077"><ele>498.14285714285717</ele><time>2026-04-19T09:42:35.947Z</time></trkpt><trkpt lat="41.1903963" lon="15.0250678"><ele>494.42857142857144</ele><time>2026-04-19T09:42:36.951Z</time></trkpt><trkpt lat="41.1903521" lon="15.025136"><ele>490.7142857142857</ele><time>2026-04-19T09:42:37.944Z</time></trkpt><trkpt lat="41.1903129" lon="15.0252027"><ele>487.0</ele><time>2026-04-19T09:42:39.032Z</time></trkpt><trkpt lat="41.1902909" lon="15.0252828"><ele>487.0</ele><time>2026-04-19T09:42:40.03Z</time></trkpt><trkpt lat="41.1903007" lon="15.0253842"><ele>487.00000000000006</ele><time>2026-04-19T09:42:40.958Z</time></trkpt><trkpt lat="41.1903334" lon="15.0254956"><ele>487.00000000000006</ele><time>2026-04-19T09:42:41.96Z</time></trkpt><trkpt lat="41.1903954" lon="15.025615"><ele>487.0</ele><time>2026-04-19T09:42:42.958Z</time></trkpt><trkpt lat="41.1904644" lon="15.0257372"><ele>487.0</ele><time>2026-04-19T09:42:44.031Z</time></trkpt><trkpt lat="41.1905325" lon="15.0258745"><ele>486.25</ele><time>2026-04-19T09:42:45.027Z</time></trkpt><trkpt lat="41.1905884" lon="15.0260341"><ele>485.5</ele><time>2026-04-19T09:42:45.957Z</time></trkpt><trkpt lat="41.1906362" lon="15.0262095"><ele>484.75</ele><time>2026-04-19T09:42:46.958Z</time></trkpt><trkpt lat="41.1906592" lon="15.0264038"><ele>484.0</ele><time>2026-04-19T09:42:47.957Z</time></trkpt><trkpt lat="41.1906764" lon="15.0265984"><ele>494.5</ele><time>2026-04-19T09:42:48.952Z</time></trkpt><trkpt lat="41.1906956" lon="15.0267918"><ele>505.0</ele><time>2026-04-19T09:42:49.961Z</time></trkpt><trkpt lat="41.1907108" lon="15.026988"><ele>515.5</ele><time>2026-04-19T09:42:50.958Z</time></trkpt><trkpt lat="41.1907191" lon="15.027174"><ele>526.0</ele><time>2026-04-19T09:42:51.957Z</time></trkpt><trkpt lat="41.1907128" lon="15.0273351"><ele>527.2</ele><time>2026-04-19T09:42:53.02Z</time></trkpt><trkpt lat="41.1907015" lon="15.0274822"><ele>528.4000000000001</ele><time>2026-04-19T09:42:54.025Z</time></trkpt><trkpt lat="41.190712" lon="15.0276088"><ele>529.6</ele><time>2026-04-19T09:42:55.016Z</time></trkpt><trkpt lat="41.1907646" lon="15.0277343"><ele>530.8000000000001</ele><time>2026-04-19T09:42:55.954Z</time></trkpt><trkpt lat="41.1908245" lon="15.0278557"><ele>532.0</ele><time>2026-04-19T09:42:56.95Z</time></trkpt><trkpt lat="41.190883" lon="15.0279807"><ele>532.0</ele><time>2026-04-19T09:42:57.951Z</time></trkpt><trkpt lat="41.1909359" lon="15.0281044"><ele>532.0</ele><time>2026-04-19T09:42:58.952Z</time></trkpt><trkpt lat="41.190975" lon="15.0282176"><ele>532.0</ele><time>2026-04-19T09:42:59.955Z</time></trkpt><trkpt lat="41.191019" lon="15.0283276"><ele>532.0</ele><time>2026-04-19T09:43:00.955Z</time></trkpt><trkpt lat="41.1910642" lon="15.0284157"><ele>532.0</ele><time>2026-04-19T09:43:01.955Z</time></trkpt><trkpt lat="41.1910996" lon="15.0285232"><ele>532.0</ele><time>2026-04-19T09:43:03.95Z</time></trkpt><trkpt lat="41.1910184" lon="15.0285469"><ele>532.0</ele><time>2026-04-19T09:43:05.951Z</time></trkpt><trkpt lat="41.1909596" lon="15.0284879"><ele>532.0</ele><time>2026-04-19T09:43:06.947Z</time></trkpt><trkpt lat="41.1908822" lon="15.0284065"><ele>532.0</ele><time>2026-04-19T09:43:07.951Z</time></trkpt><trkpt lat="41.190809" lon="15.0283019"><ele>532.0</ele><time>2026-04-19T09:43:09.029Z</time></trkpt><trkpt lat="41.1907361" lon="15.0281869"><ele>524.2</ele><time>2026-04-19T09:43:10.027Z</time></trkpt><trkpt lat="41.1906651" lon="15.028067"><ele>516.4000000000001</ele><time>2026-04-19T09:43:10.947Z</time></trkpt><trkpt lat="41.190588" lon="15.0279637"><ele>508.59999999999997</ele><time>2026-04-19T09:43:11.949Z</time></trkpt><trkpt lat="41.1905094" lon="15.0278641"><ele>500.79999999999995</ele><time>2026-04-19T09:43:13.048Z</time></trkpt><trkpt lat="41.1904192" lon="15.0277742"><ele>493.0</ele><time>2026-04-19T09:43:14.029Z</time></trkpt><trkpt lat="41.1903162" lon="15.0276896"><ele>493.0</ele><time>2026-04-19T09:43:15.036Z</time></trkpt><trkpt lat="41.1902003" lon="15.0275979"><ele>493.0</ele><time>2026-04-19T09:43:15.941Z</time></trkpt><trkpt lat="41.1900795" lon="15.0275167"><ele>493.0</ele><time>2026-04-19T09:43:16.944Z</time></trkpt><trkpt lat="41.1899595" lon="15.0274406"><ele>493.0</ele><time>2026-04-19T09:43:17.994Z</time></trkpt><trkpt lat="41.1898397" lon="15.0273795"><ele>488.25</ele><time>2026-04-19T09:43:19.031Z</time></trkpt><trkpt lat="41.1897183" lon="15.0273192"><ele>483.5</ele><time>2026-04-19T09:43:20.029Z</time></trkpt><trkpt lat="41.1895955" lon="15.0272492"><ele>478.75</ele><time>2026-04-19T09:43:20.96Z</time></trkpt><trkpt lat="41.1894687" lon="15.0271817"><ele>474.0</ele><time>2026-04-19T09:43:21.948Z</time></trkpt><trkpt lat="41.1893444" lon="15.0271266"><ele>474.0</ele><time>2026-04-19T09:43:23.022Z</time></trkpt><trkpt lat="41.1892121" lon="15.0270796"><ele>474.0</ele><time>2026-04-19T09:43:23.964Z</time></trkpt><trkpt lat="41.1890896" lon="15.0270281"><ele>474.0</ele><time>2026-04-19T09:43:24.976Z</time></trkpt><trkpt lat="41.1889798" lon="15.026961"><ele>474.0</ele><time>2026-04-19T09:43:25.95Z</time></trkpt><trkpt lat="41.1888731" lon="15.0268955"><ele>473.2</ele><time>2026-04-19T09:43:26.948Z</time></trkpt><trkpt lat="41.1887644" lon="15.0268372"><ele>472.4</ele><time>2026-04-19T09:43:27.956Z</time></trkpt><trkpt lat="41.1886525" lon="15.0267909"><ele>471.6</ele><time>2026-04-19T09:43:28.951Z</time></trkpt><trkpt lat="41.1885459" lon="15.026752"><ele>470.8</ele><time>2026-04-19T09:43:30.031Z</time></trkpt><trkpt lat="41.188453" lon="15.0267131"><ele>470.0</ele><time>2026-04-19T09:43:30.955Z</time></trkpt><trkpt lat="41.1883648" lon="15.0266705"><ele>467.0</ele><time>2026-04-19T09:43:31.953Z</time></trkpt><trkpt lat="41.1882755" lon="15.0266097"><ele>464.0</ele><time>2026-04-19T09:43:32.952Z</time></trkpt><trkpt lat="41.1881909" lon="15.0265503"><ele>461.0</ele><time>2026-04-19T09:43:34.035Z</time></trkpt><trkpt lat="41.1881066" lon="15.0264916"><ele>458.0</ele><time>2026-04-19T09:43:34.955Z</time></trkpt><trkpt lat="41.188029" lon="15.0263852"><ele>455.0</ele><time>2026-04-19T09:43:35.959Z</time></trkpt><trkpt lat="41.1879585" lon="15.0262861"><ele>452.8</ele><time>2026-04-19T09:43:36.96Z</time></trkpt><trkpt lat="41.1878782" lon="15.0262112"><ele>450.6</ele><time>2026-04-19T09:43:37.96Z</time></trkpt><trkpt lat="41.1877917" lon="15.0261341"><ele>448.4</ele><time>2026-04-19T09:43:38.96Z</time></trkpt><trkpt lat="41.1876966" lon="15.0260683"><ele>446.2</ele><time>2026-04-19T09:43:39.955Z</time></trkpt><trkpt lat="41.1875892" lon="15.0260127"><ele>444.0</ele><time>2026-04-19T09:43:40.961Z</time></trkpt><trkpt lat="41.1874772" lon="15.025958"><ele>439.0</ele><time>2026-04-19T09:43:42.078Z</time></trkpt><trkpt lat="41.187267" lon="15.025872"><ele>434.0</ele><time>2026-04-19T09:43:43.96Z</time></trkpt><trkpt lat="41.1871664" lon="15.0258351"><ele>429.0</ele><time>2026-04-19T09:43:44.962Z</time></trkpt><trkpt lat="41.1870776" lon="15.0258054"><ele>424.0</ele><time>2026-04-19T09:43:45.962Z</time></trkpt><trkpt lat="41.1869981" lon="15.0257635"><ele>421.4</ele><time>2026-04-19T09:43:46.961Z</time></trkpt><trkpt lat="41.1869253" lon="15.0257109"><ele>418.79999999999995</ele><time>2026-04-19T09:43:47.961Z</time></trkpt><trkpt lat="41.1868459" lon="15.0256533"><ele>416.20000000000005</ele><time>2026-04-19T09:43:49.038Z</time></trkpt><trkpt lat="41.1867667" lon="15.0255816"><ele>413.6</ele><time>2026-04-19T09:43:49.953Z</time></trkpt><trkpt lat="41.1866878" lon="15.0255082"><ele>411.0</ele><time>2026-04-19T09:43:50.959Z</time></trkpt><trkpt lat="41.1866014" lon="15.0254411"><ele>411.0</ele><time>2026-04-19T09:43:51.96Z</time></trkpt><trkpt lat="41.1865117" lon="15.025375"><ele>411.0</ele><time>2026-04-19T09:43:52.962Z</time></trkpt><trkpt lat="41.1864276" lon="15.0253214"><ele>411.0</ele><time>2026-04-19T09:43:53.956Z</time></trkpt><trkpt lat="41.1863449" lon="15.0252695"><ele>411.0</ele><time>2026-04-19T09:43:54.96Z</time></trkpt><trkpt lat="41.1862513" lon="15.0252274"><ele>411.0</ele><time>2026-04-19T09:43:55.959Z</time></trkpt><trkpt lat="41.1861589" lon="15.0251772"><ele>407.4</ele><time>2026-04-19T09:43:56.954Z</time></trkpt><trkpt lat="41.1860645" lon="15.025134"><ele>403.8</ele><time>2026-04-19T09:43:58.03Z</time></trkpt><trkpt lat="41.1859752" lon="15.0251041"><ele>400.2</ele><time>2026-04-19T09:43:59.024Z</time></trkpt><trkpt lat="41.1858847" lon="15.0250698"><ele>396.59999999999997</ele><time>2026-04-19T09:44:00.031Z</time></trkpt><trkpt lat="41.1857948" lon="15.0250417"><ele>393.0</ele><time>2026-04-19T09:44:00.949Z</time></trkpt><trkpt lat="41.185711" lon="15.0250141"><ele>387.4</ele><time>2026-04-19T09:44:01.946Z</time></trkpt><trkpt lat="41.1856277" lon="15.0249877"><ele>381.79999999999995</ele><time>2026-04-19T09:44:02.975Z</time></trkpt><trkpt lat="41.185544" lon="15.0249421"><ele>376.2</ele><time>2026-04-19T09:44:04.041Z</time></trkpt><trkpt lat="41.1854548" lon="15.0248891"><ele>370.6</ele><time>2026-04-19T09:44:05.029Z</time></trkpt><trkpt lat="41.1853665" lon="15.0248422"><ele>365.0</ele><time>2026-04-19T09:44:05.959Z</time></trkpt><trkpt lat="41.1852743" lon="15.024802"><ele>365.0</ele><time>2026-04-19T09:44:06.958Z</time></trkpt><trkpt lat="41.1851858" lon="15.0247946"><ele>365.0</ele><time>2026-04-19T09:44:07.954Z</time></trkpt><trkpt lat="41.1850888" lon="15.0248116"><ele>365.0</ele><time>2026-04-19T09:44:09.031Z</time></trkpt><trkpt lat="41.1849906" lon="15.0248365"><ele>365.0</ele><time>2026-04-19T09:44:10.03Z</time></trkpt><trkpt lat="41.1849115" lon="15.0248587"><ele>365.0</ele><time>2026-04-19T09:44:10.942Z</time></trkpt><trkpt lat="41.184839" lon="15.0248825"><ele>365.0</ele><time>2026-04-19T09:44:11.948Z</time></trkpt><trkpt lat="41.1847421" lon="15.0249113"><ele>361.0</ele><time>2026-04-19T09:44:13.031Z</time></trkpt><trkpt lat="41.1846428" lon="15.0249393"><ele>357.0</ele><time>2026-04-19T09:44:14.031Z</time></trkpt><trkpt lat="41.184563" lon="15.0249523"><ele>353.0</ele><time>2026-04-19T09:44:15.032Z</time></trkpt><trkpt lat="41.1844925" lon="15.0249675"><ele>349.0</ele><time>2026-04-19T09:44:15.996Z</time></trkpt><trkpt lat="41.1844169" lon="15.0249708"><ele>345.0</ele><time>2026-04-19T09:44:17.025Z</time></trkpt><trkpt lat="41.1843234" lon="15.0249842"><ele>341.0</ele><time>2026-04-19T09:44:18.03Z</time></trkpt><trkpt lat="41.1842442" lon="15.0249877"><ele>340.83333333333337</ele><time>2026-04-19T09:44:19.032Z</time></trkpt><trkpt lat="41.1841809" lon="15.024965"><ele>340.6666666666667</ele><time>2026-04-19T09:44:20.018Z</time></trkpt><trkpt lat="41.1841208" lon="15.0249241"><ele>340.5</ele><time>2026-04-19T09:44:20.95Z</time></trkpt><trkpt lat="41.1840537" lon="15.024869"><ele>340.3333333333333</ele><time>2026-04-19T09:44:22.03Z</time></trkpt><trkpt lat="41.1839666" lon="15.0248239"><ele>340.16666666666663</ele><time>2026-04-19T09:44:23.029Z</time></trkpt><trkpt lat="41.1838668" lon="15.0248036"><ele>340.0</ele><time>2026-04-19T09:44:23.955Z</time></trkpt><trkpt lat="41.1837745" lon="15.024787"><ele>338.0</ele><time>2026-04-19T09:44:24.953Z</time></trkpt><trkpt lat="41.1836899" lon="15.0247716"><ele>336.0</ele><time>2026-04-19T09:44:25.958Z</time></trkpt><trkpt lat="41.1836197" lon="15.0247217"><ele>334.0</ele><time>2026-04-19T09:44:26.956Z</time></trkpt><trkpt lat="41.1835613" lon="15.0246525"><ele>332.0</ele><time>2026-04-19T09:44:27.961Z</time></trkpt><trkpt lat="41.1835052" lon="15.0245877"><ele>330.0</ele><time>2026-04-19T09:44:28.956Z</time></trkpt><trkpt lat="41.1834484" lon="15.0245319"><ele>328.0</ele><time>2026-04-19T09:44:30.03Z</time></trkpt><trkpt lat="41.1833888" lon="15.0244913"><ele>328.0</ele><time>2026-04-19T09:44:30.951Z</time></trkpt><trkpt lat="41.1833272" lon="15.0244717"><ele>328.0</ele><time>2026-04-19T09:44:31.953Z</time></trkpt><trkpt lat="41.1832369" lon="15.0244521"><ele>328.0</ele><time>2026-04-19T09:44:33.95Z</time></trkpt><trkpt lat="41.1831401" lon="15.0243838"><ele>328.0</ele><time>2026-04-19T09:44:35.948Z</time></trkpt><trkpt lat="41.1830994" lon="15.0242963"><ele>328.0</ele><time>2026-04-19T09:44:36.951Z</time></trkpt><trkpt lat="41.1830604" lon="15.0241387"><ele>329.59999999999997</ele><time>2026-04-19T09:44:39.04Z</time></trkpt><trkpt lat="41.1829807" lon="15.0240804"><ele>331.2</ele><time>2026-04-19T09:44:40.949Z</time></trkpt><trkpt lat="41.1828606" lon="15.0240876"><ele>332.8</ele><time>2026-04-19T09:44:42.95Z</time></trkpt><trkpt lat="41.1827758" lon="15.0241349"><ele>334.4</ele><time>2026-04-19T09:44:43.945Z</time></trkpt><trkpt lat="41.1826871" lon="15.0241907"><ele>336.0</ele><time>2026-04-19T09:44:44.967Z</time></trkpt><trkpt lat="41.1825956" lon="15.0242398"><ele>336.0</ele><time>2026-04-19T09:44:45.944Z</time></trkpt><trkpt lat="41.1824946" lon="15.0242785"><ele>336.0</ele><time>2026-04-19T09:44:46.951Z</time></trkpt><trkpt lat="41.1823866" lon="15.0242818"><ele>336.0</ele><time>2026-04-19T09:44:48.036Z</time></trkpt><trkpt lat="41.1822681" lon="15.0242697"><ele>336.0</ele><time>2026-04-19T09:44:49.036Z</time></trkpt><trkpt lat="41.1821516" lon="15.024254"><ele>336.0</ele><time>2026-04-19T09:44:50.029Z</time></trkpt><trkpt lat="41.1820261" lon="15.0242257"><ele>337.8</ele><time>2026-04-19T09:44:50.947Z</time></trkpt><trkpt lat="41.1819129" lon="15.0241906"><ele>339.6</ele><time>2026-04-19T09:44:51.957Z</time></trkpt><trkpt lat="41.1818184" lon="15.0241659"><ele>341.4</ele><time>2026-04-19T09:44:52.947Z</time></trkpt><trkpt lat="41.1817419" lon="15.0241501"><ele>343.2</ele><time>2026-04-19T09:44:54.015Z</time></trkpt><trkpt lat="41.1816277" lon="15.0241939"><ele>345.0</ele><time>2026-04-19T09:44:55.96Z</time></trkpt><trkpt lat="41.1815639" lon="15.0242427"><ele>346.5</ele><time>2026-04-19T09:44:57.016Z</time></trkpt><trkpt lat="41.1814819" lon="15.0242625"><ele>348.0</ele><time>2026-04-19T09:44:57.949Z</time></trkpt><trkpt lat="41.1813853" lon="15.0242531"><ele>349.5</ele><time>2026-04-19T09:44:59.031Z</time></trkpt><trkpt lat="41.181299" lon="15.0242222"><ele>351.0</ele><time>2026-04-19T09:44:59.948Z</time></trkpt><trkpt lat="41.1812301" lon="15.0241811"><ele>352.5</ele><time>2026-04-19T09:45:00.945Z</time></trkpt><trkpt lat="41.1811852" lon="15.0241011"><ele>354.0</ele><time>2026-04-19T09:45:02.032Z</time></trkpt><trkpt lat="41.1811432" lon="15.023998"><ele>356.6</ele><time>2026-04-19T09:45:03.029Z</time></trkpt><trkpt lat="41.181112" lon="15.0238677"><ele>359.2</ele><time>2026-04-19T09:45:04.031Z</time></trkpt><trkpt lat="41.1810717" lon="15.0237292"><ele>361.8</ele><time>2026-04-19T09:45:04.961Z</time></trkpt><trkpt lat="41.1810261" lon="15.023574"><ele>364.40000000000003</ele><time>2026-04-19T09:45:05.943Z</time></trkpt><trkpt lat="41.180989" lon="15.0234378"><ele>367.0</ele><time>2026-04-19T09:45:06.947Z</time></trkpt><trkpt lat="41.1809788" lon="15.0233421"><ele>370.0</ele><time>2026-04-19T09:45:08.033Z</time></trkpt><trkpt lat="41.1810227" lon="15.0232718"><ele>373.0</ele><time>2026-04-19T09:45:09.032Z</time></trkpt><trkpt lat="41.1811756" lon="15.0232241"><ele>376.0</ele><time>2026-04-19T09:45:10.956Z</time></trkpt><trkpt lat="41.1813091" lon="15.023214"><ele>379.0</ele><time>2026-04-19T09:45:11.956Z</time></trkpt><trkpt lat="41.1814463" lon="15.0232135"><ele>377.79999999999995</ele><time>2026-04-19T09:45:12.959Z</time></trkpt><trkpt lat="41.1815701" lon="15.0232351"><ele>376.59999999999997</ele><time>2026-04-19T09:45:13.956Z</time></trkpt><trkpt lat="41.1816797" lon="15.0232656"><ele>375.4</ele><time>2026-04-19T09:45:14.958Z</time></trkpt><trkpt lat="41.1817472" lon="15.0232909"><ele>374.2</ele><time>2026-04-19T09:45:15.963Z</time></trkpt><trkpt lat="41.1818135" lon="15.0232366"><ele>373.0</ele><time>2026-04-19T09:45:18.942Z</time></trkpt><trkpt lat="41.1817359" lon="15.0230481"><ele>373.0</ele><time>2026-04-19T09:45:20.944Z</time></trkpt><trkpt lat="41.1816656" lon="15.0229002"><ele>373.0</ele><time>2026-04-19T09:45:22.028Z</time></trkpt><trkpt lat="41.1816096" lon="15.0227345"><ele>373.0</ele><time>2026-04-19T09:45:23.036Z</time></trkpt><trkpt lat="41.1815548" lon="15.0225743"><ele>373.0</ele><time>2026-04-19T09:45:23.952Z</time></trkpt><trkpt lat="41.1814886" lon="15.0224329"><ele>378.75</ele><time>2026-04-19T09:45:24.957Z</time></trkpt><trkpt lat="41.1814055" lon="15.0222996"><ele>384.5</ele><time>2026-04-19T09:45:25.96Z</time></trkpt><trkpt lat="41.1812975" lon="15.0221641"><ele>390.25</ele><time>2026-04-19T09:45:26.949Z</time></trkpt><trkpt lat="41.1811944" lon="15.0220521"><ele>396.0</ele><time>2026-04-19T09:45:28.035Z</time></trkpt><trkpt lat="41.1811203" lon="15.0219661"><ele>396.0</ele><time>2026-04-19T09:45:29.036Z</time></trkpt><trkpt lat="41.1810743" lon="15.0218692"><ele>396.0</ele><time>2026-04-19T09:45:30.019Z</time></trkpt><trkpt lat="41.1810442" lon="15.0217557"><ele>396.0</ele><time>2026-04-19T09:45:30.949Z</time></trkpt><trkpt lat="41.181011" lon="15.021614"><ele>396.0</ele><time>2026-04-19T09:45:31.953Z</time></trkpt><trkpt lat="41.1809705" lon="15.0214699"><ele>396.0</ele><time>2026-04-19T09:45:32.952Z</time></trkpt><trkpt lat="41.1809266" lon="15.021337"><ele>399.4</ele><time>2026-04-19T09:45:33.949Z</time></trkpt><trkpt lat="41.1808869" lon="15.0212421"><ele>402.8</ele><time>2026-04-19T09:45:34.951Z</time></trkpt><trkpt lat="41.1808371" lon="15.0211056"><ele>406.2</ele><time>2026-04-19T09:45:36.948Z</time></trkpt><trkpt lat="41.1807901" lon="15.0210253"><ele>409.59999999999997</ele><time>2026-04-19T09:45:38.031Z</time></trkpt><trkpt lat="41.1807352" lon="15.0209269"><ele>413.0</ele><time>2026-04-19T09:45:38.952Z</time></trkpt><trkpt lat="41.1806674" lon="15.020828"><ele>416.5</ele><time>2026-04-19T09:45:39.952Z</time></trkpt><trkpt lat="41.1805994" lon="15.0207219"><ele>420.0</ele><time>2026-04-19T09:45:40.95Z</time></trkpt><trkpt lat="41.1805202" lon="15.0206054"><ele>423.5</ele><time>2026-04-19T09:45:41.957Z</time></trkpt><trkpt lat="41.1804446" lon="15.020488"><ele>427.0</ele><time>2026-04-19T09:45:42.949Z</time></trkpt><trkpt lat="41.1803738" lon="15.0203638"><ele>427.0</ele><time>2026-04-19T09:45:43.949Z</time></trkpt><trkpt lat="41.1803057" lon="15.020243"><ele>427.00000000000006</ele><time>2026-04-19T09:45:45.031Z</time></trkpt><trkpt lat="41.1802395" lon="15.0201369"><ele>427.00000000000006</ele><time>2026-04-19T09:45:45.954Z</time></trkpt><trkpt lat="41.1801699" lon="15.0200268"><ele>427.0</ele><time>2026-04-19T09:45:46.955Z</time></trkpt><trkpt lat="41.1800953" lon="15.0199127"><ele>427.0</ele><time>2026-04-19T09:45:47.946Z</time></trkpt><trkpt lat="41.180016" lon="15.0198019"><ele>427.5</ele><time>2026-04-19T09:45:48.952Z</time></trkpt><trkpt lat="41.1799288" lon="15.0196719"><ele>428.0</ele><time>2026-04-19T09:45:49.95Z</time></trkpt><trkpt lat="41.1798481" lon="15.0195493"><ele>428.5</ele><time>2026-04-19T09:45:50.954Z</time></trkpt><trkpt lat="41.1797735" lon="15.0194354"><ele>429.0</ele><time>2026-04-19T09:45:51.953Z</time></trkpt><trkpt lat="41.1796999" lon="15.0193249"><ele>433.0</ele><time>2026-04-19T09:45:53.034Z</time></trkpt><trkpt lat="41.1796255" lon="15.0192164"><ele>437.0</ele><time>2026-04-19T09:45:54.035Z</time></trkpt><trkpt lat="41.1795494" lon="15.0191007"><ele>441.0</ele><time>2026-04-19T09:45:55.035Z</time></trkpt><trkpt lat="41.1794716" lon="15.0189845"><ele>445.0</ele><time>2026-04-19T09:45:55.951Z</time></trkpt><trkpt lat="41.1794013" lon="15.0188651"><ele>445.25</ele><time>2026-04-19T09:45:56.956Z</time></trkpt><trkpt lat="41.1793298" lon="15.0187481"><ele>445.5</ele><time>2026-04-19T09:45:57.954Z</time></trkpt><trkpt lat="41.1792608" lon="15.0186172"><ele>445.75</ele><time>2026-04-19T09:45:58.954Z</time></trkpt><trkpt lat="41.1791762" lon="15.018481"><ele>446.0</ele><time>2026-04-19T09:45:59.947Z</time></trkpt><trkpt lat="41.1791063" lon="15.0183612"><ele>447.0</ele><time>2026-04-19T09:46:00.953Z</time></trkpt><trkpt lat="41.1790582" lon="15.0182735"><ele>448.0</ele><time>2026-04-19T09:46:01.946Z</time></trkpt><trkpt lat="41.1790142" lon="15.018126"><ele>449.0</ele><time>2026-04-19T09:46:04.035Z</time></trkpt><trkpt lat="41.1789808" lon="15.018048"><ele>450.0</ele><time>2026-04-19T09:46:04.951Z</time></trkpt><trkpt lat="41.1789359" lon="15.01796"><ele>451.0</ele><time>2026-04-19T09:46:05.952Z</time></trkpt><trkpt lat="41.1788574" lon="15.0178599"><ele>451.0</ele><time>2026-04-19T09:46:06.953Z</time></trkpt><trkpt lat="41.1787619" lon="15.0177475"><ele>451.0</ele><time>2026-04-19T09:46:07.948Z</time></trkpt><trkpt lat="41.1786743" lon="15.0176152"><ele>451.0</ele><time>2026-04-19T09:46:08.955Z</time></trkpt><trkpt lat="41.1785906" lon="15.0174796"><ele>451.0</ele><time>2026-04-19T09:46:10.03Z</time></trkpt><trkpt lat="41.1785208" lon="15.0173303"><ele>448.75</ele><time>2026-04-19T09:46:10.947Z</time></trkpt><trkpt lat="41.178457" lon="15.0171853"><ele>446.5</ele><time>2026-04-19T09:46:12.029Z</time></trkpt><trkpt lat="41.1783886" lon="15.0170386"><ele>444.25</ele><time>2026-04-19T09:46:12.955Z</time></trkpt><trkpt lat="41.1783031" lon="15.0168996"><ele>442.0</ele><time>2026-04-19T09:46:14.035Z</time></trkpt><trkpt lat="41.1782018" lon="15.0167606"><ele>440.75</ele><time>2026-04-19T09:46:15.039Z</time></trkpt><trkpt lat="41.1780959" lon="15.0166254"><ele>439.5</ele><time>2026-04-19T09:46:15.947Z</time></trkpt><trkpt lat="41.1779822" lon="15.0164956"><ele>438.25</ele><time>2026-04-19T09:46:16.945Z</time></trkpt><trkpt lat="41.1778665" lon="15.0163794"><ele>437.0</ele><time>2026-04-19T09:46:17.958Z</time></trkpt><trkpt lat="41.1777584" lon="15.01627"><ele>437.0</ele><time>2026-04-19T09:46:19.023Z</time></trkpt><trkpt lat="41.1776599" lon="15.0161717"><ele>437.0</ele><time>2026-04-19T09:46:19.969Z</time></trkpt><trkpt lat="41.1775638" lon="15.0160846"><ele>437.0</ele><time>2026-04-19T09:46:20.956Z</time></trkpt><trkpt lat="41.1774544" lon="15.0160052"><ele>437.0</ele><time>2026-04-19T09:46:21.961Z</time></trkpt><trkpt lat="41.1773284" lon="15.0159422"><ele>437.75</ele><time>2026-04-19T09:46:22.955Z</time></trkpt><trkpt lat="41.1771938" lon="15.0158935"><ele>438.5</ele><time>2026-04-19T09:46:24.029Z</time></trkpt><trkpt lat="41.1770568" lon="15.0158583"><ele>439.25</ele><time>2026-04-19T09:46:25.023Z</time></trkpt><trkpt lat="41.1769131" lon="15.0158526"><ele>440.0</ele><time>2026-04-19T09:46:25.944Z</time></trkpt><trkpt lat="41.1767679" lon="15.0158711"><ele>440.0</ele><time>2026-04-19T09:46:26.947Z</time></trkpt><trkpt lat="41.1766346" lon="15.0158811"><ele>440.0</ele><time>2026-04-19T09:46:27.993Z</time></trkpt><trkpt lat="41.1765156" lon="15.0158754"><ele>440.0</ele><time>2026-04-19T09:46:28.939Z</time></trkpt><trkpt lat="41.1764159" lon="15.0158549"><ele>440.0</ele><time>2026-04-19T09:46:30.017Z</time></trkpt><trkpt lat="41.1763466" lon="15.0157913"><ele>440.0</ele><time>2026-04-19T09:46:30.949Z</time></trkpt><trkpt lat="41.1762868" lon="15.0157"><ele>439.75</ele><time>2026-04-19T09:46:31.953Z</time></trkpt><trkpt lat="41.1762127" lon="15.0156033"><ele>439.5</ele><time>2026-04-19T09:46:32.961Z</time></trkpt><trkpt lat="41.1761298" lon="15.0155281"><ele>439.25</ele><time>2026-04-19T09:46:33.958Z</time></trkpt><trkpt lat="41.1760207" lon="15.0154618"><ele>439.0</ele><time>2026-04-19T09:46:35.063Z</time></trkpt><trkpt lat="41.1757686" lon="15.0153499"><ele>439.0</ele><time>2026-04-19T09:46:36.95Z</time></trkpt><trkpt lat="41.1756321" lon="15.0152868"><ele>439.0</ele><time>2026-04-19T09:46:37.959Z</time></trkpt><trkpt lat="41.175486" lon="15.0152378"><ele>439.0</ele><time>2026-04-19T09:46:38.941Z</time></trkpt><trkpt lat="41.1753336" lon="15.0151978"><ele>439.0</ele><time>2026-04-19T09:46:39.945Z</time></trkpt><trkpt lat="41.1751881" lon="15.0151523"><ele>439.0</ele><time>2026-04-19T09:46:40.939Z</time></trkpt><trkpt lat="41.175044" lon="15.0150984"><ele>439.0</ele><time>2026-04-19T09:46:41.937Z</time></trkpt><trkpt lat="41.174901" lon="15.0150309"><ele>438.0</ele><time>2026-04-19T09:46:42.934Z</time></trkpt><trkpt lat="41.1747441" lon="15.0149646"><ele>437.0</ele><time>2026-04-19T09:46:43.944Z</time></trkpt><trkpt lat="41.1745676" lon="15.0149168"><ele>436.0</ele><time>2026-04-19T09:46:44.945Z</time></trkpt><trkpt lat="41.1744026" lon="15.0148516"><ele>436.0</ele><time>2026-04-19T09:46:45.948Z</time></trkpt><trkpt lat="41.1742585" lon="15.0147991"><ele>436.0</ele><time>2026-04-19T09:46:46.966Z</time></trkpt><trkpt lat="41.1741274" lon="15.0147396"><ele>436.0</ele><time>2026-04-19T09:46:47.938Z</time></trkpt><trkpt lat="41.1739956" lon="15.0146848"><ele>436.0</ele><time>2026-04-19T09:46:48.938Z</time></trkpt><trkpt lat="41.1738643" lon="15.0146316"><ele>435.0</ele><time>2026-04-19T09:46:49.935Z</time></trkpt><trkpt lat="41.1737413" lon="15.0145691"><ele>434.0</ele><time>2026-04-19T09:46:50.934Z</time></trkpt><trkpt lat="41.1736239" lon="15.0144974"><ele>433.0</ele><time>2026-04-19T09:46:51.937Z</time></trkpt><trkpt lat="41.1735078" lon="15.0144198"><ele>432.0</ele><time>2026-04-19T09:46:52.946Z</time></trkpt><trkpt lat="41.173388" lon="15.0143301"><ele>432.0</ele><time>2026-04-19T09:46:53.961Z</time></trkpt><trkpt lat="41.1732623" lon="15.0142276"><ele>432.0</ele><time>2026-04-19T09:46:54.952Z</time></trkpt><trkpt lat="41.1731246" lon="15.014128"><ele>432.0</ele><time>2026-04-19T09:46:55.941Z</time></trkpt><trkpt lat="41.1729855" lon="15.0140295"><ele>431.66666666666663</ele><time>2026-04-19T09:46:56.936Z</time></trkpt><trkpt lat="41.1728521" lon="15.0139308"><ele>431.3333333333333</ele><time>2026-04-19T09:46:57.943Z</time></trkpt><trkpt lat="41.1727189" lon="15.0138186"><ele>431.0</ele><time>2026-04-19T09:46:58.939Z</time></trkpt><trkpt lat="41.1725796" lon="15.0137142"><ele>431.0</ele><time>2026-04-19T09:46:59.937Z</time></trkpt><trkpt lat="41.172439" lon="15.0136096"><ele>431.0</ele><time>2026-04-19T09:47:00.94Z</time></trkpt><trkpt lat="41.1722973" lon="15.0135064"><ele>431.0</ele><time>2026-04-19T09:47:01.944Z</time></trkpt><trkpt lat="41.1721585" lon="15.0134035"><ele>431.20000000000005</ele><time>2026-04-19T09:47:02.94Z</time></trkpt><trkpt lat="41.1720444" lon="15.0133133"><ele>431.40000000000003</ele><time>2026-04-19T09:47:03.945Z</time></trkpt><trkpt lat="41.171955" lon="15.0132387"><ele>431.6</ele><time>2026-04-19T09:47:04.942Z</time></trkpt><trkpt lat="41.1718795" lon="15.0131807"><ele>431.8</ele><time>2026-04-19T09:47:05.945Z</time></trkpt><trkpt lat="41.1718275" lon="15.0131219"><ele>432.0</ele><time>2026-04-19T09:47:06.944Z</time></trkpt><trkpt lat="41.1717929" lon="15.0129765"><ele>432.0</ele><time>2026-04-19T09:47:08.943Z</time></trkpt><trkpt lat="41.1717995" lon="15.0128528"><ele>432.0</ele><time>2026-04-19T09:47:09.94Z</time></trkpt><trkpt lat="41.1718135" lon="15.0127136"><ele>432.0</ele><time>2026-04-19T09:47:10.947Z</time></trkpt><trkpt lat="41.1718264" lon="15.0125505"><ele>432.0</ele><time>2026-04-19T09:47:11.945Z</time></trkpt><trkpt lat="41.1718407" lon="15.0123808"><ele>432.25</ele><time>2026-04-19T09:47:12.944Z</time></trkpt><trkpt lat="41.1718599" lon="15.0121968"><ele>432.5</ele><time>2026-04-19T09:47:14.029Z</time></trkpt><trkpt lat="41.1718798" lon="15.0119979"><ele>432.75</ele><time>2026-04-19T09:47:15.031Z</time></trkpt><trkpt lat="41.1718984" lon="15.0117952"><ele>433.0</ele><time>2026-04-19T09:47:15.949Z</time></trkpt><trkpt lat="41.1719173" lon="15.0115807"><ele>434.33333333333337</ele><time>2026-04-19T09:47:16.989Z</time></trkpt><trkpt lat="41.1719378" lon="15.0113656"><ele>435.66666666666663</ele><time>2026-04-19T09:47:18.03Z</time></trkpt><trkpt lat="41.1719521" lon="15.0111524"><ele>437.0</ele><time>2026-04-19T09:47:19.029Z</time></trkpt><trkpt lat="41.1719681" lon="15.0109343"><ele>438.5</ele><time>2026-04-19T09:47:19.955Z</time></trkpt><trkpt lat="41.1719805" lon="15.010723"><ele>440.0</ele><time>2026-04-19T09:47:20.949Z</time></trkpt><trkpt lat="41.1719995" lon="15.0105309"><ele>441.5</ele><time>2026-04-19T09:47:21.951Z</time></trkpt><trkpt lat="41.1720188" lon="15.0103435"><ele>443.0</ele><time>2026-04-19T09:47:22.952Z</time></trkpt><trkpt lat="41.172043" lon="15.0101548"><ele>445.0</ele><time>2026-04-19T09:47:23.976Z</time></trkpt><trkpt lat="41.1720683" lon="15.0099808"><ele>447.0</ele><time>2026-04-19T09:47:24.956Z</time></trkpt><trkpt lat="41.1720985" lon="15.0098224"><ele>449.0</ele><time>2026-04-19T09:47:25.952Z</time></trkpt><trkpt lat="41.172121" lon="15.0096732"><ele>451.0</ele><time>2026-04-19T09:47:26.949Z</time></trkpt><trkpt lat="41.1721434" lon="15.0095142"><ele>451.0</ele><time>2026-04-19T09:47:27.951Z</time></trkpt><trkpt lat="41.1721728" lon="15.0093789"><ele>451.0</ele><time>2026-04-19T09:47:28.953Z</time></trkpt><trkpt lat="41.1722214" lon="15.0092618"><ele>451.0</ele><time>2026-04-19T09:47:29.958Z</time></trkpt><trkpt lat="41.1722846" lon="15.0091518"><ele>451.0</ele><time>2026-04-19T09:47:30.953Z</time></trkpt><trkpt lat="41.1723485" lon="15.0090209"><ele>451.0</ele><time>2026-04-19T09:47:32.02Z</time></trkpt><trkpt lat="41.1724107" lon="15.008876"><ele>453.5</ele><time>2026-04-19T09:47:33.013Z</time></trkpt><trkpt lat="41.1724824" lon="15.0087381"><ele>456.0</ele><time>2026-04-19T09:47:34.008Z</time></trkpt><trkpt lat="41.1725531" lon="15.0086058"><ele>458.5</ele><time>2026-04-19T09:47:34.948Z</time></trkpt><trkpt lat="41.172615" lon="15.008483"><ele>461.0</ele><time>2026-04-19T09:47:35.953Z</time></trkpt><trkpt lat="41.1726383" lon="15.0083517"><ele>460.4</ele><time>2026-04-19T09:47:36.951Z</time></trkpt><trkpt lat="41.1726429" lon="15.0082208"><ele>459.8</ele><time>2026-04-19T09:47:37.954Z</time></trkpt><trkpt lat="41.1726278" lon="15.0080763"><ele>459.19999999999993</ele><time>2026-04-19T09:47:38.952Z</time></trkpt><trkpt lat="41.172605" lon="15.0079275"><ele>458.59999999999997</ele><time>2026-04-19T09:47:39.951Z</time></trkpt><trkpt lat="41.1725861" lon="15.0077921"><ele>458.0</ele><time>2026-04-19T09:47:40.954Z</time></trkpt><trkpt lat="41.1725713" lon="15.0077019"><ele>458.0</ele><time>2026-04-19T09:47:41.948Z</time></trkpt><trkpt lat="41.1725263" lon="15.0075807"><ele>457.99999999999994</ele><time>2026-04-19T09:47:43.953Z</time></trkpt><trkpt lat="41.1724925" lon="15.0074999"><ele>457.99999999999994</ele><time>2026-04-19T09:47:44.951Z</time></trkpt><trkpt lat="41.1724505" lon="15.0073948"><ele>458.0</ele><time>2026-04-19T09:47:45.953Z</time></trkpt><trkpt lat="41.1724039" lon="15.0072783"><ele>458.0</ele><time>2026-04-19T09:47:46.95Z</time></trkpt><trkpt lat="41.1723533" lon="15.0071664"><ele>456.99999999999994</ele><time>2026-04-19T09:47:47.955Z</time></trkpt><trkpt lat="41.1723066" lon="15.0070667"><ele>456.0</ele><time>2026-04-19T09:47:48.948Z</time></trkpt><trkpt lat="41.1722589" lon="15.0069788"><ele>455.0</ele><time>2026-04-19T09:47:50.027Z</time></trkpt><trkpt lat="41.1722193" lon="15.0068991"><ele>454.0</ele><time>2026-04-19T09:47:50.96Z</time></trkpt><trkpt lat="41.1721703" lon="15.0068302"><ele>452.99999999999994</ele><time>2026-04-19T09:47:51.962Z</time></trkpt><trkpt lat="41.1721048" lon="15.0067727"><ele>452.0</ele><time>2026-04-19T09:47:52.959Z</time></trkpt><trkpt lat="41.1720121" lon="15.0067188"><ele>451.99999999999994</ele><time>2026-04-19T09:47:53.959Z</time></trkpt><trkpt lat="41.1719334" lon="15.0066739"><ele>452.0</ele><time>2026-04-19T09:47:55.032Z</time></trkpt><trkpt lat="41.1718822" lon="15.0066248"><ele>452.0</ele><time>2026-04-19T09:47:55.957Z</time></trkpt><trkpt lat="41.1718454" lon="15.0065534"><ele>452.0</ele><time>2026-04-19T09:47:56.966Z</time></trkpt><trkpt lat="41.171789" lon="15.0064192"><ele>451.99999999999994</ele><time>2026-04-19T09:47:59.027Z</time></trkpt><trkpt lat="41.1717694" lon="15.006315"><ele>452.0</ele><time>2026-04-19T09:48:00.958Z</time></trkpt><trkpt lat="41.17172" lon="15.0062094"><ele>448.66666666666663</ele><time>2026-04-19T09:48:02.964Z</time></trkpt><trkpt lat="41.1716839" lon="15.0061096"><ele>445.3333333333333</ele><time>2026-04-19T09:48:04.949Z</time></trkpt><trkpt lat="41.1716666" lon="15.0060089"><ele>442.0</ele><time>2026-04-19T09:48:07.951Z</time></trkpt><trkpt lat="41.1717134" lon="15.0058667"><ele>438.66666666666663</ele><time>2026-04-19T09:48:09.952Z</time></trkpt><trkpt lat="41.171743" lon="15.0057752"><ele>435.3333333333333</ele><time>2026-04-19T09:48:10.949Z</time></trkpt><trkpt lat="41.1717524" lon="15.0056865"><ele>432.0</ele><time>2026-04-19T09:48:11.952Z</time></trkpt><trkpt lat="41.1717426" lon="15.0056012"><ele>429.6</ele><time>2026-04-19T09:48:13.033Z</time></trkpt><trkpt lat="41.1717205" lon="15.0055014"><ele>427.20000000000005</ele><time>2026-04-19T09:48:14.036Z</time></trkpt><trkpt lat="41.1716778" lon="15.0053916"><ele>424.8</ele><time>2026-04-19T09:48:14.945Z</time></trkpt><trkpt lat="41.1716195" lon="15.0052689"><ele>422.4</ele><time>2026-04-19T09:48:15.941Z</time></trkpt><trkpt lat="41.1715709" lon="15.0051623"><ele>420.0</ele><time>2026-04-19T09:48:16.942Z</time></trkpt><trkpt lat="41.1715309" lon="15.0050777"><ele>415.0</ele><time>2026-04-19T09:48:17.946Z</time></trkpt><trkpt lat="41.1714951" lon="15.0049951"><ele>410.0</ele><time>2026-04-19T09:48:18.947Z</time></trkpt><trkpt lat="41.1714633" lon="15.0049128"><ele>405.0</ele><time>2026-04-19T09:48:19.944Z</time></trkpt><trkpt lat="41.171426" lon="15.0048412"><ele>400.0</ele><time>2026-04-19T09:48:20.948Z</time></trkpt><trkpt lat="41.1713822" lon="15.0047304"><ele>395.0</ele><time>2026-04-19T09:48:22.964Z</time></trkpt><trkpt lat="41.171296" lon="15.0046472"><ele>390.0</ele><time>2026-04-19T09:48:25.948Z</time></trkpt><trkpt lat="41.1712158" lon="15.0046225"><ele>390.0</ele><time>2026-04-19T09:48:26.948Z</time></trkpt><trkpt lat="41.1711206" lon="15.004621"><ele>390.0</ele><time>2026-04-19T09:48:28.031Z</time></trkpt><trkpt lat="41.1710185" lon="15.0046314"><ele>390.0</ele><time>2026-04-19T09:48:29.034Z</time></trkpt><trkpt lat="41.1709145" lon="15.0046623"><ele>390.0</ele><time>2026-04-19T09:48:30.03Z</time></trkpt><trkpt lat="41.1708021" lon="15.0047337"><ele>390.0</ele><time>2026-04-19T09:48:30.95Z</time></trkpt><trkpt lat="41.1707023" lon="15.0047918"><ele>388.0</ele><time>2026-04-19T09:48:31.95Z</time></trkpt><trkpt lat="41.1706118" lon="15.0048329"><ele>386.0</ele><time>2026-04-19T09:48:32.946Z</time></trkpt><trkpt lat="41.1705371" lon="15.0048625"><ele>384.0</ele><time>2026-04-19T09:48:33.947Z</time></trkpt><trkpt lat="41.1704458" lon="15.0048626"><ele>382.0</ele><time>2026-04-19T09:48:34.951Z</time></trkpt><trkpt lat="41.1703425" lon="15.0048563"><ele>380.0</ele><time>2026-04-19T09:48:35.946Z</time></trkpt><trkpt lat="41.1702423" lon="15.0048609"><ele>380.0</ele><time>2026-04-19T09:48:36.945Z</time></trkpt><trkpt lat="41.170131" lon="15.0048882"><ele>380.0</ele><time>2026-04-19T09:48:37.944Z</time></trkpt><trkpt lat="41.1700143" lon="15.004934"><ele>380.0</ele><time>2026-04-19T09:48:39.074Z</time></trkpt><trkpt lat="41.1698011" lon="15.004964"><ele>380.0</ele><time>2026-04-19T09:48:40.95Z</time></trkpt><trkpt lat="41.169697" lon="15.0049759"><ele>380.2</ele><time>2026-04-19T09:48:41.951Z</time></trkpt><trkpt lat="41.1695948" lon="15.0049813"><ele>380.4</ele><time>2026-04-19T09:48:42.946Z</time></trkpt><trkpt lat="41.169491" lon="15.0049792"><ele>380.6</ele><time>2026-04-19T09:48:43.942Z</time></trkpt><trkpt lat="41.1693883" lon="15.004982"><ele>380.8</ele><time>2026-04-19T09:48:45.033Z</time></trkpt><trkpt lat="41.1692959" lon="15.0049866"><ele>381.0</ele><time>2026-04-19T09:48:45.967Z</time></trkpt><trkpt lat="41.1692035" lon="15.004978"><ele>381.0</ele><time>2026-04-19T09:48:47.023Z</time></trkpt><trkpt lat="41.1691143" lon="15.0049255"><ele>381.0</ele><time>2026-04-19T09:48:47.932Z</time></trkpt><trkpt lat="41.1690225" lon="15.0048526"><ele>381.0</ele><time>2026-04-19T09:48:49.032Z</time></trkpt><trkpt lat="41.1689239" lon="15.00478"><ele>381.0</ele><time>2026-04-19T09:48:49.966Z</time></trkpt><trkpt lat="41.1688225" lon="15.0047103"><ele>381.0</ele><time>2026-04-19T09:48:50.949Z</time></trkpt><trkpt lat="41.1687076" lon="15.004659"><ele>385.25</ele><time>2026-04-19T09:48:51.957Z</time></trkpt><trkpt lat="41.1685871" lon="15.0046258"><ele>389.5</ele><time>2026-04-19T09:48:53.013Z</time></trkpt><trkpt lat="41.1684708" lon="15.0045895"><ele>393.75</ele><time>2026-04-19T09:48:54.031Z</time></trkpt><trkpt lat="41.1683558" lon="15.004536"><ele>398.0</ele><time>2026-04-19T09:48:54.982Z</time></trkpt><trkpt lat="41.1682386" lon="15.0044664"><ele>402.5</ele><time>2026-04-19T09:48:55.95Z</time></trkpt><trkpt lat="41.1681129" lon="15.0044061"><ele>407.0</ele><time>2026-04-19T09:48:56.952Z</time></trkpt><trkpt lat="41.1679965" lon="15.0043615"><ele>411.5</ele><time>2026-04-19T09:48:58.033Z</time></trkpt><trkpt lat="41.1678838" lon="15.0043149"><ele>416.0</ele><time>2026-04-19T09:48:59.028Z</time></trkpt><trkpt lat="41.1677704" lon="15.0042619"><ele>416.0</ele><time>2026-04-19T09:48:59.952Z</time></trkpt><trkpt lat="41.1676461" lon="15.0042147"><ele>416.0</ele><time>2026-04-19T09:49:00.952Z</time></trkpt><trkpt lat="41.1675119" lon="15.0041743"><ele>416.0</ele><time>2026-04-19T09:49:01.952Z</time></trkpt><trkpt lat="41.1673624" lon="15.0041243"><ele>416.0</ele><time>2026-04-19T09:49:03.02Z</time></trkpt><trkpt lat="41.167201" lon="15.0040759"><ele>417.20000000000005</ele><time>2026-04-19T09:49:03.973Z</time></trkpt><trkpt lat="41.1670707" lon="15.0040419"><ele>418.40000000000003</ele><time>2026-04-19T09:49:05.03Z</time></trkpt><trkpt lat="41.1669683" lon="15.0040148"><ele>419.6</ele><time>2026-04-19T09:49:05.951Z</time></trkpt><trkpt lat="41.1668628" lon="15.0039984"><ele>420.8</ele><time>2026-04-19T09:49:06.952Z</time></trkpt><trkpt lat="41.1667629" lon="15.0040026"><ele>422.0</ele><time>2026-04-19T09:49:07.973Z</time></trkpt><trkpt lat="41.1666747" lon="15.004037"><ele>421.99999999999994</ele><time>2026-04-19T09:49:09.016Z</time></trkpt><trkpt lat="41.1665871" lon="15.0040796"><ele>422.0</ele><time>2026-04-19T09:49:10.023Z</time></trkpt><trkpt lat="41.1665086" lon="15.0041023"><ele>422.0</ele><time>2026-04-19T09:49:10.951Z</time></trkpt><trkpt lat="41.1664323" lon="15.004123"><ele>422.0</ele><time>2026-04-19T09:49:11.949Z</time></trkpt><trkpt lat="41.1663544" lon="15.0041278"><ele>421.99999999999994</ele><time>2026-04-19T09:49:12.943Z</time></trkpt><trkpt lat="41.1662577" lon="15.0041041"><ele>422.0</ele><time>2026-04-19T09:49:14.955Z</time></trkpt><trkpt lat="41.1661475" lon="15.0039819"><ele>423.5</ele><time>2026-04-19T09:49:16.968Z</time></trkpt><trkpt lat="41.1660632" lon="15.0038824"><ele>425.0</ele><time>2026-04-19T09:49:17.964Z</time></trkpt><trkpt lat="41.1659686" lon="15.0037643"><ele>426.5</ele><time>2026-04-19T09:49:18.95Z</time></trkpt><trkpt lat="41.1658791" lon="15.0036244"><ele>428.0</ele><time>2026-04-19T09:49:20.035Z</time></trkpt><trkpt lat="41.1657858" lon="15.0034885"><ele>428.0</ele><time>2026-04-19T09:49:20.945Z</time></trkpt><trkpt lat="41.1656967" lon="15.0033614"><ele>428.0</ele><time>2026-04-19T09:49:21.946Z</time></trkpt><trkpt lat="41.1656069" lon="15.0032485"><ele>428.0</ele><time>2026-04-19T09:49:22.95Z</time></trkpt><trkpt lat="41.1655234" lon="15.0031417"><ele>428.0</ele><time>2026-04-19T09:49:23.946Z</time></trkpt><trkpt lat="41.1654457" lon="15.0030356"><ele>425.25</ele><time>2026-04-19T09:49:24.95Z</time></trkpt><trkpt lat="41.1653633" lon="15.0029306"><ele>422.5</ele><time>2026-04-19T09:49:25.953Z</time></trkpt><trkpt lat="41.1652806" lon="15.0028119"><ele>419.75</ele><time>2026-04-19T09:49:26.952Z</time></trkpt><trkpt lat="41.1651993" lon="15.0026809"><ele>417.0</ele><time>2026-04-19T09:49:27.948Z</time></trkpt><trkpt lat="41.1651147" lon="15.0025535"><ele>416.0</ele><time>2026-04-19T09:49:28.944Z</time></trkpt><trkpt lat="41.1650303" lon="15.0024226"><ele>415.0</ele><time>2026-04-19T09:49:29.977Z</time></trkpt><trkpt lat="41.1649499" lon="15.0022965"><ele>414.0</ele><time>2026-04-19T09:49:30.953Z</time></trkpt><trkpt lat="41.1648796" lon="15.0021647"><ele>413.0</ele><time>2026-04-19T09:49:31.953Z</time></trkpt><trkpt lat="41.1648125" lon="15.002029"><ele>412.75</ele><time>2026-04-19T09:49:32.951Z</time></trkpt><trkpt lat="41.1647393" lon="15.0018813"><ele>412.5</ele><time>2026-04-19T09:49:33.952Z</time></trkpt><trkpt lat="41.1646624" lon="15.0017275"><ele>412.25</ele><time>2026-04-19T09:49:34.948Z</time></trkpt><trkpt lat="41.1645858" lon="15.0015809"><ele>412.0</ele><time>2026-04-19T09:49:35.956Z</time></trkpt><trkpt lat="41.1645121" lon="15.0014303"><ele>411.25</ele><time>2026-04-19T09:49:36.951Z</time></trkpt><trkpt lat="41.1644371" lon="15.0012845"><ele>410.5</ele><time>2026-04-19T09:49:37.955Z</time></trkpt><trkpt lat="41.1643673" lon="15.0011397"><ele>409.75</ele><time>2026-04-19T09:49:38.959Z</time></trkpt><trkpt lat="41.1643026" lon="15.001001"><ele>409.0</ele><time>2026-04-19T09:49:39.949Z</time></trkpt><trkpt lat="41.1642382" lon="15.000878"><ele>407.2</ele><time>2026-04-19T09:49:40.95Z</time></trkpt><trkpt lat="41.1641757" lon="15.0007614"><ele>405.4</ele><time>2026-04-19T09:49:41.952Z</time></trkpt><trkpt lat="41.1641155" lon="15.000644"><ele>403.6</ele><time>2026-04-19T09:49:42.945Z</time></trkpt><trkpt lat="41.1640575" lon="15.0005136"><ele>401.8</ele><time>2026-04-19T09:49:43.95Z</time></trkpt><trkpt lat="41.1640053" lon="15.0003707"><ele>400.0</ele><time>2026-04-19T09:49:44.953Z</time></trkpt><trkpt lat="41.163961" lon="15.0002162"><ele>399.0</ele><time>2026-04-19T09:49:45.952Z</time></trkpt><trkpt lat="41.1639198" lon="15.0000559"><ele>398.0</ele><time>2026-04-19T09:49:46.954Z</time></trkpt><trkpt lat="41.1638853" lon="14.9999015"><ele>397.0</ele><time>2026-04-19T09:49:47.95Z</time></trkpt><trkpt lat="41.1638574" lon="14.9997316"><ele>396.0</ele><time>2026-04-19T09:49:48.953Z</time></trkpt><trkpt lat="41.1638355" lon="14.9995505"><ele>396.0</ele><time>2026-04-19T09:49:49.951Z</time></trkpt><trkpt lat="41.163814" lon="14.9993674"><ele>396.0</ele><time>2026-04-19T09:49:50.949Z</time></trkpt><trkpt lat="41.1638047" lon="14.999182"><ele>396.0</ele><time>2026-04-19T09:49:51.955Z</time></trkpt><trkpt lat="41.1638017" lon="14.998993"><ele>396.0</ele><time>2026-04-19T09:49:52.948Z</time></trkpt><trkpt lat="41.1638105" lon="14.998814"><ele>394.75</ele><time>2026-04-19T09:49:53.949Z</time></trkpt><trkpt lat="41.1638353" lon="14.9986533"><ele>393.5</ele><time>2026-04-19T09:49:54.96Z</time></trkpt><trkpt lat="41.1638672" lon="14.9984927"><ele>392.25</ele><time>2026-04-19T09:49:55.95Z</time></trkpt><trkpt lat="41.1638951" lon="14.998329"><ele>391.0</ele><time>2026-04-19T09:49:56.953Z</time></trkpt><trkpt lat="41.1639135" lon="14.9981651"><ele>391.0</ele><time>2026-04-19T09:49:57.951Z</time></trkpt><trkpt lat="41.163927" lon="14.9980087"><ele>391.0</ele><time>2026-04-19T09:49:58.944Z</time></trkpt><trkpt lat="41.1639387" lon="14.9978508"><ele>391.0</ele><time>2026-04-19T09:49:59.977Z</time></trkpt><trkpt lat="41.1639465" lon="14.9976961"><ele>391.0</ele><time>2026-04-19T09:50:00.951Z</time></trkpt><trkpt lat="41.1639522" lon="14.9975456"><ele>391.5</ele><time>2026-04-19T09:50:01.948Z</time></trkpt><trkpt lat="41.163959" lon="14.9973885"><ele>392.0</ele><time>2026-04-19T09:50:02.949Z</time></trkpt><trkpt lat="41.163968" lon="14.9972389"><ele>392.5</ele><time>2026-04-19T09:50:03.954Z</time></trkpt><trkpt lat="41.1639887" lon="14.9970872"><ele>393.0</ele><time>2026-04-19T09:50:04.952Z</time></trkpt><trkpt lat="41.1640123" lon="14.9969199"><ele>391.2</ele><time>2026-04-19T09:50:05.952Z</time></trkpt><trkpt lat="41.1640409" lon="14.9967684"><ele>389.4</ele><time>2026-04-19T09:50:06.951Z</time></trkpt><trkpt lat="41.1640682" lon="14.9966285"><ele>387.59999999999997</ele><time>2026-04-19T09:50:07.954Z</time></trkpt><trkpt lat="41.1640939" lon="14.9964977"><ele>385.79999999999995</ele><time>2026-04-19T09:50:08.95Z</time></trkpt><trkpt lat="41.1641256" lon="14.9963707"><ele>384.0</ele><time>2026-04-19T09:50:09.951Z</time></trkpt><trkpt lat="41.1641544" lon="14.9962349"><ele>383.6</ele><time>2026-04-19T09:50:10.957Z</time></trkpt><trkpt lat="41.1641821" lon="14.9960909"><ele>383.2</ele><time>2026-04-19T09:50:11.953Z</time></trkpt><trkpt lat="41.164208" lon="14.9959494"><ele>382.8</ele><time>2026-04-19T09:50:12.955Z</time></trkpt><trkpt lat="41.1642347" lon="14.9958158"><ele>382.40000000000003</ele><time>2026-04-19T09:50:13.942Z</time></trkpt><trkpt lat="41.1642576" lon="14.9956738"><ele>382.0</ele><time>2026-04-19T09:50:14.952Z</time></trkpt><trkpt lat="41.164281" lon="14.9955511"><ele>381.0</ele><time>2026-04-19T09:50:15.953Z</time></trkpt><trkpt lat="41.1643049" lon="14.9954364"><ele>380.0</ele><time>2026-04-19T09:50:16.945Z</time></trkpt><trkpt lat="41.1643287" lon="14.9953154"><ele>379.0</ele><time>2026-04-19T09:50:17.946Z</time></trkpt><trkpt lat="41.164344" lon="14.9951805"><ele>378.0</ele><time>2026-04-19T09:50:18.955Z</time></trkpt><trkpt lat="41.1643492" lon="14.9950362"><ele>377.0</ele><time>2026-04-19T09:50:19.954Z</time></trkpt><trkpt lat="41.1643592" lon="14.9948766"><ele>375.0</ele><time>2026-04-19T09:50:20.952Z</time></trkpt><trkpt lat="41.1643707" lon="14.9947183"><ele>373.0</ele><time>2026-04-19T09:50:21.952Z</time></trkpt><trkpt lat="41.1643802" lon="14.9945665"><ele>371.0</ele><time>2026-04-19T09:50:22.951Z</time></trkpt><trkpt lat="41.1643903" lon="14.9944224"><ele>369.0</ele><time>2026-04-19T09:50:23.95Z</time></trkpt><trkpt lat="41.1643978" lon="14.9942753"><ele>366.0</ele><time>2026-04-19T09:50:24.951Z</time></trkpt><trkpt lat="41.1644077" lon="14.994125"><ele>363.0</ele><time>2026-04-19T09:50:25.953Z</time></trkpt><trkpt lat="41.1644147" lon="14.9939687"><ele>360.0</ele><time>2026-04-19T09:50:26.951Z</time></trkpt><trkpt lat="41.1644179" lon="14.9938074"><ele>357.0</ele><time>2026-04-19T09:50:27.95Z</time></trkpt><trkpt lat="41.1644159" lon="14.9936496"><ele>357.0</ele><time>2026-04-19T09:50:28.952Z</time></trkpt><trkpt lat="41.1644138" lon="14.9935053"><ele>357.0</ele><time>2026-04-19T09:50:29.955Z</time></trkpt><trkpt lat="41.1644153" lon="14.9933701"><ele>357.0</ele><time>2026-04-19T09:50:30.949Z</time></trkpt><trkpt lat="41.1644171" lon="14.9932275"><ele>357.0</ele><time>2026-04-19T09:50:31.951Z</time></trkpt><trkpt lat="41.1644217" lon="14.993081"><ele>357.0</ele><time>2026-04-19T09:50:32.952Z</time></trkpt><trkpt lat="41.1644335" lon="14.9929358"><ele>354.8</ele><time>2026-04-19T09:50:33.952Z</time></trkpt><trkpt lat="41.1644513" lon="14.9927997"><ele>352.6</ele><time>2026-04-19T09:50:34.949Z</time></trkpt><trkpt lat="41.1644806" lon="14.992663"><ele>350.40000000000003</ele><time>2026-04-19T09:50:35.955Z</time></trkpt><trkpt lat="41.1645251" lon="14.9925258"><ele>348.20000000000005</ele><time>2026-04-19T09:50:36.948Z</time></trkpt><trkpt lat="41.1645876" lon="14.9923881"><ele>346.0</ele><time>2026-04-19T09:50:37.951Z</time></trkpt><trkpt lat="41.1646464" lon="14.99225"><ele>344.5</ele><time>2026-04-19T09:50:38.951Z</time></trkpt><trkpt lat="41.1647052" lon="14.9921175"><ele>343.0</ele><time>2026-04-19T09:50:39.946Z</time></trkpt><trkpt lat="41.1647625" lon="14.9919918"><ele>341.5</ele><time>2026-04-19T09:50:40.953Z</time></trkpt><trkpt lat="41.1648279" lon="14.9918662"><ele>340.0</ele><time>2026-04-19T09:50:41.95Z</time></trkpt><trkpt lat="41.1648939" lon="14.991748"><ele>338.8</ele><time>2026-04-19T09:50:42.955Z</time></trkpt><trkpt lat="41.1649619" lon="14.9916304"><ele>337.6</ele><time>2026-04-19T09:50:43.947Z</time></trkpt><trkpt lat="41.1650379" lon="14.9915114"><ele>336.4</ele><time>2026-04-19T09:50:44.95Z</time></trkpt><trkpt lat="41.1651117" lon="14.9914008"><ele>335.2</ele><time>2026-04-19T09:50:45.955Z</time></trkpt><trkpt lat="41.1651826" lon="14.9913051"><ele>334.0</ele><time>2026-04-19T09:50:46.952Z</time></trkpt><trkpt lat="41.1652489" lon="14.9912054"><ele>334.0</ele><time>2026-04-19T09:50:47.947Z</time></trkpt><trkpt lat="41.165317" lon="14.9911007"><ele>334.0</ele><time>2026-04-19T09:50:48.953Z</time></trkpt><trkpt lat="41.1653956" lon="14.9910059"><ele>334.0</ele><time>2026-04-19T09:50:49.954Z</time></trkpt><trkpt lat="41.165472" lon="14.9909149"><ele>334.0</ele><time>2026-04-19T09:50:50.948Z</time></trkpt><trkpt lat="41.1655379" lon="14.9908543"><ele>334.0</ele><time>2026-04-19T09:50:51.952Z</time></trkpt><trkpt lat="41.1656245" lon="14.9907281"><ele>332.4</ele><time>2026-04-19T09:50:53.028Z</time></trkpt><trkpt lat="41.1656548" lon="14.9905876"><ele>330.79999999999995</ele><time>2026-04-19T09:50:55.018Z</time></trkpt><trkpt lat="41.165649" lon="14.9904397"><ele>329.20000000000005</ele><time>2026-04-19T09:50:57.026Z</time></trkpt><trkpt lat="41.1656379" lon="14.9903364"><ele>327.6</ele><time>2026-04-19T09:50:58.017Z</time></trkpt><trkpt lat="41.1656386" lon="14.9902239"><ele>326.0</ele><time>2026-04-19T09:50:59.014Z</time></trkpt><trkpt lat="41.1656397" lon="14.9901253"><ele>326.0</ele><time>2026-04-19T09:51:00.029Z</time></trkpt><trkpt lat="41.1656333" lon="14.9900274"><ele>326.0</ele><time>2026-04-19T09:51:01.019Z</time></trkpt><trkpt lat="41.1656252" lon="14.9899321"><ele>326.0</ele><time>2026-04-19T09:51:02.047Z</time></trkpt><trkpt lat="41.1656234" lon="14.9898257"><ele>326.0</ele><time>2026-04-19T09:51:03.029Z</time></trkpt><trkpt lat="41.1656222" lon="14.9896956"><ele>326.0</ele><time>2026-04-19T09:51:04.016Z</time></trkpt><trkpt lat="41.1656158" lon="14.9895675"><ele>326.0</ele><time>2026-04-19T09:51:05.029Z</time></trkpt><trkpt lat="41.165612" lon="14.98944"><ele>324.40000000000003</ele><time>2026-04-19T09:51:06.031Z</time></trkpt><trkpt lat="41.1656036" lon="14.9893155"><ele>322.8</ele><time>2026-04-19T09:51:07.017Z</time></trkpt><trkpt lat="41.1655958" lon="14.9891899"><ele>321.20000000000005</ele><time>2026-04-19T09:51:08.019Z</time></trkpt><trkpt lat="41.1655912" lon="14.9890557"><ele>319.6</ele><time>2026-04-19T09:51:09.027Z</time></trkpt><trkpt lat="41.1655764" lon="14.9889171"><ele>318.0</ele><time>2026-04-19T09:51:10.019Z</time></trkpt><trkpt lat="41.1655656" lon="14.9887759"><ele>315.8</ele><time>2026-04-19T09:51:11.026Z</time></trkpt><trkpt lat="41.1655652" lon="14.9886306"><ele>313.6</ele><time>2026-04-19T09:51:12.034Z</time></trkpt><trkpt lat="41.1655715" lon="14.9884853"><ele>311.4</ele><time>2026-04-19T09:51:13.019Z</time></trkpt><trkpt lat="41.165584" lon="14.9883594"><ele>309.2</ele><time>2026-04-19T09:51:14.026Z</time></trkpt><trkpt lat="41.1656084" lon="14.9882597"><ele>307.0</ele><time>2026-04-19T09:51:15.017Z</time></trkpt><trkpt lat="41.16565" lon="14.9881685"><ele>305.5</ele><time>2026-04-19T09:51:16.024Z</time></trkpt><trkpt lat="41.1656825" lon="14.9880875"><ele>304.0</ele><time>2026-04-19T09:51:17.024Z</time></trkpt><trkpt lat="41.1657026" lon="14.9880055"><ele>302.5</ele><time>2026-04-19T09:51:18.032Z</time></trkpt><trkpt lat="41.1656748" lon="14.9878711"><ele>301.0</ele><time>2026-04-19T09:51:20.029Z</time></trkpt><trkpt lat="41.165652" lon="14.9877687"><ele>299.5</ele><time>2026-04-19T09:51:21.037Z</time></trkpt><trkpt lat="41.1656227" lon="14.9876546"><ele>298.0</ele><time>2026-04-19T09:51:22.023Z</time></trkpt><trkpt lat="41.1655912" lon="14.9875333"><ele>294.6</ele><time>2026-04-19T09:51:23.029Z</time></trkpt><trkpt lat="41.1655531" lon="14.9874085"><ele>291.20000000000005</ele><time>2026-04-19T09:51:24.032Z</time></trkpt><trkpt lat="41.1655161" lon="14.9872675"><ele>287.8</ele><time>2026-04-19T09:51:25.028Z</time></trkpt><trkpt lat="41.1654939" lon="14.9871227"><ele>284.40000000000003</ele><time>2026-04-19T09:51:26.03Z</time></trkpt><trkpt lat="41.1654817" lon="14.9869788"><ele>281.0</ele><time>2026-04-19T09:51:27.024Z</time></trkpt><trkpt lat="41.1654651" lon="14.9868352"><ele>281.0</ele><time>2026-04-19T09:51:28.031Z</time></trkpt><trkpt lat="41.1654469" lon="14.9866899"><ele>281.0</ele><time>2026-04-19T09:51:29.022Z</time></trkpt><trkpt lat="41.1654238" lon="14.9865557"><ele>281.0</ele><time>2026-04-19T09:51:30.028Z</time></trkpt><trkpt lat="41.1654002" lon="14.986432"><ele>281.0</ele><time>2026-04-19T09:51:31.018Z</time></trkpt><trkpt lat="41.165364" lon="14.9863239"><ele>281.0</ele><time>2026-04-19T09:51:32.027Z</time></trkpt><trkpt lat="41.1653163" lon="14.9862066"><ele>278.6</ele><time>2026-04-19T09:51:33.029Z</time></trkpt><trkpt lat="41.1652706" lon="14.9860863"><ele>276.20000000000005</ele><time>2026-04-19T09:51:34.026Z</time></trkpt><trkpt lat="41.1652267" lon="14.9859811"><ele>273.79999999999995</ele><time>2026-04-19T09:51:35.03Z</time></trkpt><trkpt lat="41.1651982" lon="14.9858755"><ele>271.4</ele><time>2026-04-19T09:51:36.027Z</time></trkpt><trkpt lat="41.1651864" lon="14.9857852"><ele>269.0</ele><time>2026-04-19T09:51:37.026Z</time></trkpt><trkpt lat="41.1655958" lon="14.9891899"><ele>276.59999999999997</ele><time>2026-04-19T09:51:08.019Z</time></trkpt><trkpt lat="41.1655912" lon="14.9890557"><ele>284.2</ele><time>2026-04-19T09:51:09.027Z</time></trkpt><trkpt lat="41.1655764" lon="14.9889171"><ele>291.79999999999995</ele><time>2026-04-19T09:51:10.019Z</time></trkpt><trkpt lat="41.1655656" lon="14.9887759"><ele>299.4</ele><time>2026-04-19T09:51:11.026Z</time></trkpt><trkpt lat="41.1655652" lon="14.9886306"><ele>307.0</ele><time>2026-04-19T09:51:12.034Z</time></trkpt><trkpt lat="41.1655715" lon="14.9884853"><ele>307.0</ele><time>2026-04-19T09:51:13.019Z</time></trkpt><trkpt lat="41.165584" lon="14.9883594"><ele>307.0</ele><time>2026-04-19T09:51:14.026Z</time></trkpt><trkpt lat="41.1656084" lon="14.9882597"><ele>307.0</ele><time>2026-04-19T09:51:15.017Z</time></trkpt><trkpt lat="41.16565" lon="14.9881685"><ele>307.0</ele><time>2026-04-19T09:51:16.024Z</time></trkpt><trkpt lat="41.1656825" lon="14.9880875"><ele>307.0</ele><time>2026-04-19T09:51:17.024Z</time></trkpt><trkpt lat="41.1657026" lon="14.9880055"><ele>307.0</ele><time>2026-04-19T09:51:18.032Z</time></trkpt><trkpt lat="41.1656748" lon="14.9878711"><ele>304.6</ele><time>2026-04-19T09:51:20.029Z</time></trkpt><trkpt lat="41.165652" lon="14.9877687"><ele>302.2</ele><time>2026-04-19T09:51:21.037Z</time></trkpt><trkpt lat="41.1656227" lon="14.9876546"><ele>299.8</ele><time>2026-04-19T09:51:22.023Z</time></trkpt><trkpt lat="41.1655912" lon="14.9875333"><ele>297.4</ele><time>2026-04-19T09:51:23.029Z</time></trkpt><trkpt lat="41.1655531" lon="14.9874085"><ele>295.0</ele><time>2026-04-19T09:51:24.032Z</time></trkpt><trkpt lat="41.1655161" lon="14.9872675"><ele>292.2</ele><time>2026-04-19T09:51:25.028Z</time></trkpt><trkpt lat="41.1654939" lon="14.9871227"><ele>289.4</ele><time>2026-04-19T09:51:26.03Z</time></trkpt><trkpt lat="41.1654817" lon="14.9869788"><ele>286.6</ele><time>2026-04-19T09:51:27.024Z</time></trkpt><trkpt lat="41.1654651" lon="14.9868352"><ele>283.8</ele><time>2026-04-19T09:51:28.031Z</time></trkpt><trkpt lat="41.1654469" lon="14.9866899"><ele>281.0</ele><time>2026-04-19T09:51:29.022Z</time></trkpt><trkpt lat="41.1654238" lon="14.9865557"><ele>278.6</ele><time>2026-04-19T09:51:30.028Z</time></trkpt><trkpt lat="41.1654002" lon="14.986432"><ele>276.20000000000005</ele><time>2026-04-19T09:51:31.018Z</time></trkpt><trkpt lat="41.165364" lon="14.9863239"><ele>273.79999999999995</ele><time>2026-04-19T09:51:32.027Z</time></trkpt><trkpt lat="41.1653163" lon="14.9862066"><ele>271.4</ele><time>2026-04-19T09:51:33.029Z</time></trkpt><trkpt lat="41.1652706" lon="14.9860863"><ele>269.0</ele><time>2026-04-19T09:51:34.026Z</time></trkpt><trkpt lat="41.1652267" lon="14.9859811"><ele>269.0</ele><time>2026-04-19T09:51:35.03Z</time></trkpt><trkpt lat="41.1651982" lon="14.9858755"><ele>269.0</ele><time>2026-04-19T09:51:36.027Z</time></trkpt><trkpt lat="41.1651864" lon="14.9857852"><ele>269.0</ele><time>2026-04-19T09:51:37.026Z</time></trkpt><trkpt lat="41.1652361" lon="14.9856169"><ele>269.0</ele><time>2026-04-19T09:51:39.032Z</time></trkpt><trkpt lat="41.1652917" lon="14.9855068"><ele>269.0</ele><time>2026-04-19T09:51:40.027Z</time></trkpt><trkpt lat="41.1653529" lon="14.9853931"><ele>266.83333333333337</ele><time>2026-04-19T09:51:41.03Z</time></trkpt><trkpt lat="41.1653957" lon="14.9852939"><ele>264.6666666666667</ele><time>2026-04-19T09:51:42.034Z</time></trkpt><trkpt lat="41.1654269" lon="14.9852014"><ele>262.5</ele><time>2026-04-19T09:51:43.026Z</time></trkpt><trkpt lat="41.1654481" lon="14.9851048"><ele>260.3333333333333</ele><time>2026-04-19T09:51:44.024Z</time></trkpt><trkpt lat="41.1654685" lon="14.9849848"><ele>258.16666666666663</ele><time>2026-04-19T09:51:45.028Z</time></trkpt><trkpt lat="41.1654821" lon="14.9848595"><ele>256.0</ele><time>2026-04-19T09:51:46.026Z</time></trkpt><trkpt lat="41.1654888" lon="14.9847363"><ele>253.16666666666666</ele><time>2026-04-19T09:51:47.028Z</time></trkpt><trkpt lat="41.1654903" lon="14.9846135"><ele>250.33333333333331</ele><time>2026-04-19T09:51:48.025Z</time></trkpt><trkpt lat="41.1654912" lon="14.9844917"><ele>247.5</ele><time>2026-04-19T09:51:49.029Z</time></trkpt><trkpt lat="41.1654832" lon="14.9843889"><ele>244.66666666666669</ele><time>2026-04-19T09:51:50.026Z</time></trkpt><trkpt lat="41.1654711" lon="14.9842927"><ele>241.83333333333334</ele><time>2026-04-19T09:51:51.032Z</time></trkpt><trkpt lat="41.165436" lon="14.9841944"><ele>239.0</ele><time>2026-04-19T09:51:52.028Z</time></trkpt><trkpt lat="41.1653895" lon="14.9840908"><ele>236.50000000000003</ele><time>2026-04-19T09:51:53.027Z</time></trkpt><trkpt lat="41.1653428" lon="14.983985"><ele>234.0</ele><time>2026-04-19T09:51:54.028Z</time></trkpt><trkpt lat="41.1653033" lon="14.9838852"><ele>231.5</ele><time>2026-04-19T09:51:55.026Z</time></trkpt><trkpt lat="41.1652695" lon="14.9837823"><ele>229.0</ele><time>2026-04-19T09:51:56.027Z</time></trkpt><trkpt lat="41.1652492" lon="14.9836721"><ele>226.50000000000003</ele><time>2026-04-19T09:51:57.027Z</time></trkpt><trkpt lat="41.1652458" lon="14.9835677"><ele>224.0</ele><time>2026-04-19T09:51:58.026Z</time></trkpt><trkpt lat="41.1653124" lon="14.9834567"><ele>224.00000000000003</ele><time>2026-04-19T09:52:00.019Z</time></trkpt><trkpt lat="41.1653794" lon="14.9834342"><ele>224.0</ele><time>2026-04-19T09:52:01.025Z</time></trkpt><trkpt lat="41.1654513" lon="14.9834348"><ele>224.0</ele><time>2026-04-19T09:52:02.023Z</time></trkpt><trkpt lat="41.1655387" lon="14.9834329"><ele>224.0</ele><time>2026-04-19T09:52:03.026Z</time></trkpt><trkpt lat="41.1656056" lon="14.9834328"><ele>224.00000000000003</ele><time>2026-04-19T09:52:04.027Z</time></trkpt><trkpt lat="41.1656703" lon="14.9833834"><ele>224.0</ele><time>2026-04-19T09:52:06.024Z</time></trkpt><trkpt lat="41.1657311" lon="14.9833131"><ele>223.6</ele><time>2026-04-19T09:52:08.027Z</time></trkpt><trkpt lat="41.1657706" lon="14.9832224"><ele>223.2</ele><time>2026-04-19T09:52:09.022Z</time></trkpt><trkpt lat="41.1658033" lon="14.9831257"><ele>222.79999999999998</ele><time>2026-04-19T09:52:10.032Z</time></trkpt><trkpt lat="41.1658242" lon="14.9830102"><ele>222.39999999999998</ele><time>2026-04-19T09:52:11.024Z</time></trkpt><trkpt lat="41.1658553" lon="14.9828882"><ele>222.0</ele><time>2026-04-19T09:52:12.027Z</time></trkpt><trkpt lat="41.1658905" lon="14.9827561"><ele>222.0</ele><time>2026-04-19T09:52:13.027Z</time></trkpt><trkpt lat="41.1659328" lon="14.9826079"><ele>222.0</ele><time>2026-04-19T09:52:14.028Z</time></trkpt><trkpt lat="41.1659817" lon="14.9824404"><ele>222.0</ele><time>2026-04-19T09:52:15.022Z</time></trkpt><trkpt lat="41.1660358" lon="14.9822854"><ele>222.0</ele><time>2026-04-19T09:52:16.029Z</time></trkpt><trkpt lat="41.1660966" lon="14.9821427"><ele>224.5</ele><time>2026-04-19T09:52:17.022Z</time></trkpt><trkpt lat="41.1661631" lon="14.9820033"><ele>227.0</ele><time>2026-04-19T09:52:18.027Z</time></trkpt><trkpt lat="41.1662279" lon="14.9818546"><ele>229.5</ele><time>2026-04-19T09:52:19.025Z</time></trkpt><trkpt lat="41.1662924" lon="14.9817054"><ele>232.0</ele><time>2026-04-19T09:52:20.028Z</time></trkpt><trkpt lat="41.1663466" lon="14.9815411"><ele>237.0</ele><time>2026-04-19T09:52:21.028Z</time></trkpt><trkpt lat="41.1664024" lon="14.9813736"><ele>242.0</ele><time>2026-04-19T09:52:22.026Z</time></trkpt><trkpt lat="41.1664629" lon="14.9811939"><ele>247.0</ele><time>2026-04-19T09:52:23.02Z</time></trkpt><trkpt lat="41.1665194" lon="14.9810276"><ele>252.0</ele><time>2026-04-19T09:52:24.025Z</time></trkpt><trkpt lat="41.166576" lon="14.9808595"><ele>258.5</ele><time>2026-04-19T09:52:25.031Z</time></trkpt><trkpt lat="41.1666272" lon="14.9807003"><ele>265.0</ele><time>2026-04-19T09:52:26.027Z</time></trkpt><trkpt lat="41.1666731" lon="14.9805427"><ele>271.5</ele><time>2026-04-19T09:52:27.028Z</time></trkpt><trkpt lat="41.1667205" lon="14.9803954"><ele>278.0</ele><time>2026-04-19T09:52:28.029Z</time></trkpt><trkpt lat="41.1667646" lon="14.9802433"><ele>278.0</ele><time>2026-04-19T09:52:29.024Z</time></trkpt><trkpt lat="41.166796" lon="14.9800974"><ele>278.0</ele><time>2026-04-19T09:52:30.022Z</time></trkpt><trkpt lat="41.1668065" lon="14.9799871"><ele>278.0</ele><time>2026-04-19T09:52:31.028Z</time></trkpt><trkpt lat="41.1668098" lon="14.9798838"><ele>278.0</ele><time>2026-04-19T09:52:32.027Z</time></trkpt><trkpt lat="41.1668191" lon="14.9797666"><ele>278.0</ele><time>2026-04-19T09:52:33.027Z</time></trkpt><trkpt lat="41.1668276" lon="14.9796376"><ele>282.25</ele><time>2026-04-19T09:52:34.025Z</time></trkpt><trkpt lat="41.1668353" lon="14.9794883"><ele>286.5</ele><time>2026-04-19T09:52:35.027Z</time></trkpt><trkpt lat="41.1668394" lon="14.9793298"><ele>290.75</ele><time>2026-04-19T09:52:36.022Z</time></trkpt><trkpt lat="41.1668465" lon="14.9791797"><ele>295.0</ele><time>2026-04-19T09:52:37.026Z</time></trkpt><trkpt lat="41.1668542" lon="14.9790184"><ele>299.0</ele><time>2026-04-19T09:52:38.036Z</time></trkpt><trkpt lat="41.1668597" lon="14.9788428"><ele>303.0</ele><time>2026-04-19T09:52:39.03Z</time></trkpt><trkpt lat="41.1668631" lon="14.9786746"><ele>307.0</ele><time>2026-04-19T09:52:40.027Z</time></trkpt><trkpt lat="41.1668684" lon="14.9785104"><ele>311.0</ele><time>2026-04-19T09:52:41.031Z</time></trkpt><trkpt lat="41.1668757" lon="14.978345"><ele>315.25</ele><time>2026-04-19T09:52:42.032Z</time></trkpt><trkpt lat="41.1668875" lon="14.9781762"><ele>319.5</ele><time>2026-04-19T09:52:43.026Z</time></trkpt><trkpt lat="41.1668916" lon="14.978005"><ele>323.75</ele><time>2026-04-19T09:52:44.033Z</time></trkpt><trkpt lat="41.1668959" lon="14.9778628"><ele>328.0</ele><time>2026-04-19T09:52:45.032Z</time></trkpt><trkpt lat="41.1669" lon="14.9777405"><ele>328.0</ele><time>2026-04-19T09:52:46.029Z</time></trkpt><trkpt lat="41.1669117" lon="14.9776104"><ele>328.0</ele><time>2026-04-19T09:52:47.029Z</time></trkpt><trkpt lat="41.1669298" lon="14.9774816"><ele>328.0</ele><time>2026-04-19T09:52:48.028Z</time></trkpt><trkpt lat="41.1669504" lon="14.9774008"><ele>328.0</ele><time>2026-04-19T09:52:49.029Z</time></trkpt><trkpt lat="41.1670516" lon="14.9774116"><ele>328.0</ele><time>2026-04-19T09:52:52.028Z</time></trkpt><trkpt lat="41.1671334" lon="14.9774462"><ele>328.0</ele><time>2026-04-19T09:52:53.03Z</time></trkpt><trkpt lat="41.1672234" lon="14.9774994"><ele>328.0</ele><time>2026-04-19T09:52:54.025Z</time></trkpt><trkpt lat="41.1673264" lon="14.977552"><ele>328.0</ele><time>2026-04-19T09:52:55.029Z</time></trkpt><trkpt lat="41.1674402" lon="14.9775874"><ele>328.0</ele><time>2026-04-19T09:52:56.028Z</time></trkpt><trkpt lat="41.1675608" lon="14.9776017"><ele>328.0</ele><time>2026-04-19T09:52:57.024Z</time></trkpt><trkpt lat="41.1676728" lon="14.9775772"><ele>334.25</ele><time>2026-04-19T09:52:58.031Z</time></trkpt><trkpt lat="41.1677699" lon="14.9775092"><ele>340.5</ele><time>2026-04-19T09:52:59.021Z</time></trkpt><trkpt lat="41.1678624" lon="14.9774153"><ele>346.75</ele><time>2026-04-19T09:53:00.028Z</time></trkpt><trkpt lat="41.1679568" lon="14.9773253"><ele>353.0</ele><time>2026-04-19T09:53:01.026Z</time></trkpt><trkpt lat="41.1680544" lon="14.977232"><ele>353.0</ele><time>2026-04-19T09:53:02.023Z</time></trkpt><trkpt lat="41.1681541" lon="14.9771401"><ele>353.0</ele><time>2026-04-19T09:53:03.026Z</time></trkpt><trkpt lat="41.1682532" lon="14.9770412"><ele>353.0</ele><time>2026-04-19T09:53:04.031Z</time></trkpt><trkpt lat="41.1683291" lon="14.9769334"><ele>353.0</ele><time>2026-04-19T09:53:05.029Z</time></trkpt><trkpt lat="41.168384" lon="14.9768294"><ele>353.5</ele><time>2026-04-19T09:53:06.03Z</time></trkpt><trkpt lat="41.1684357" lon="14.976731"><ele>354.0</ele><time>2026-04-19T09:53:07.025Z</time></trkpt><trkpt lat="41.1684907" lon="14.976656"><ele>354.5</ele><time>2026-04-19T09:53:08.029Z</time></trkpt><trkpt lat="41.1685593" lon="14.9765998"><ele>355.0</ele><time>2026-04-19T09:53:09.03Z</time></trkpt><trkpt lat="41.1686262" lon="14.9765714"><ele>355.5</ele><time>2026-04-19T09:53:10.025Z</time></trkpt><trkpt lat="41.1686914" lon="14.9765636"><ele>356.0</ele><time>2026-04-19T09:53:11.024Z</time></trkpt><trkpt lat="41.168758" lon="14.9765786"><ele>356.0</ele><time>2026-04-19T09:53:12.023Z</time></trkpt><trkpt lat="41.1688349" lon="14.9766153"><ele>356.0</ele><time>2026-04-19T09:53:13.022Z</time></trkpt><trkpt lat="41.1689145" lon="14.9766731"><ele>356.0</ele><time>2026-04-19T09:53:14.022Z</time></trkpt><trkpt lat="41.1689869" lon="14.9767441"><ele>356.0</ele><time>2026-04-19T09:53:15.024Z</time></trkpt><trkpt lat="41.1690408" lon="14.9768209"><ele>356.0</ele><time>2026-04-19T09:53:16.023Z</time></trkpt><trkpt lat="41.1691158" lon="14.9769107"><ele>356.0</ele><time>2026-04-19T09:53:18.023Z</time></trkpt><trkpt lat="41.1691764" lon="14.9769356"><ele>357.20000000000005</ele><time>2026-04-19T09:53:23.022Z</time></trkpt><trkpt lat="41.169234" lon="14.9768545"><ele>358.40000000000003</ele><time>2026-04-19T09:53:33.025Z</time></trkpt><trkpt lat="41.1693044" lon="14.9767533"><ele>359.6</ele><time>2026-04-19T09:53:34.029Z</time></trkpt><trkpt lat="41.169372" lon="14.9766626"><ele>360.8</ele><time>2026-04-19T09:53:35.022Z</time></trkpt><trkpt lat="41.1694533" lon="14.9765926"><ele>362.0</ele><time>2026-04-19T09:53:36.026Z</time></trkpt><trkpt lat="41.1695452" lon="14.9765416"><ele>362.0</ele><time>2026-04-19T09:53:37.028Z</time></trkpt><trkpt lat="41.1696363" lon="14.9765075"><ele>362.0</ele><time>2026-04-19T09:53:38.021Z</time></trkpt><trkpt lat="41.1697341" lon="14.9764811"><ele>362.0</ele><time>2026-04-19T09:53:39.024Z</time></trkpt><trkpt lat="41.1698334" lon="14.9764639"><ele>362.0</ele><time>2026-04-19T09:53:40.023Z</time></trkpt><trkpt lat="41.1699378" lon="14.9764482"><ele>362.0</ele><time>2026-04-19T09:53:41.028Z</time></trkpt><trkpt lat="41.170041" lon="14.9764272"><ele>364.25</ele><time>2026-04-19T09:53:42.026Z</time></trkpt><trkpt lat="41.1701494" lon="14.97638"><ele>366.5</ele><time>2026-04-19T09:53:43.024Z</time></trkpt><trkpt lat="41.1702556" lon="14.9762983"><ele>368.75</ele><time>2026-04-19T09:53:44.023Z</time></trkpt><trkpt lat="41.1703534" lon="14.9762195"><ele>371.0</ele><time>2026-04-19T09:53:45.025Z</time></trkpt><trkpt lat="41.1704435" lon="14.9761513"><ele>371.0</ele><time>2026-04-19T09:53:46.022Z</time></trkpt><trkpt lat="41.1705229" lon="14.9760989"><ele>371.0</ele><time>2026-04-19T09:53:47.025Z</time></trkpt><trkpt lat="41.1706067" lon="14.9760783"><ele>371.0</ele><time>2026-04-19T09:53:48.027Z</time></trkpt><trkpt lat="41.1707047" lon="14.9760597"><ele>371.0</ele><time>2026-04-19T09:53:49.024Z</time></trkpt><trkpt lat="41.1707908" lon="14.9760541"><ele>371.0</ele><time>2026-04-19T09:53:50.031Z</time></trkpt><trkpt lat="41.1708661" lon="14.9760017"><ele>371.0</ele><time>2026-04-19T09:53:52.026Z</time></trkpt><trkpt lat="41.1708515" lon="14.9758796"><ele>369.6</ele><time>2026-04-19T09:53:54.03Z</time></trkpt><trkpt lat="41.1708254" lon="14.9757945"><ele>368.20000000000005</ele><time>2026-04-19T09:53:55.031Z</time></trkpt><trkpt lat="41.1708377" lon="14.9756633"><ele>366.79999999999995</ele><time>2026-04-19T09:53:56.018Z</time></trkpt><trkpt lat="41.1708619" lon="14.9755145"><ele>365.4</ele><time>2026-04-19T09:53:57.029Z</time></trkpt><trkpt lat="41.1708932" lon="14.9753784"><ele>364.0</ele><time>2026-04-19T09:53:58.028Z</time></trkpt><trkpt lat="41.1709222" lon="14.9752572"><ele>364.0</ele><time>2026-04-19T09:53:59.027Z</time></trkpt><trkpt lat="41.1709598" lon="14.9751478"><ele>364.0</ele><time>2026-04-19T09:54:00.028Z</time></trkpt><trkpt lat="41.1709909" lon="14.9750297"><ele>364.0</ele><time>2026-04-19T09:54:01.025Z</time></trkpt><trkpt lat="41.1710086" lon="14.9748956"><ele>364.0</ele><time>2026-04-19T09:54:02.027Z</time></trkpt><trkpt lat="41.171018" lon="14.9747457"><ele>364.0</ele><time>2026-04-19T09:54:03.032Z</time></trkpt><trkpt lat="41.1710314" lon="14.974593"><ele>362.0</ele><time>2026-04-19T09:54:04.026Z</time></trkpt><trkpt lat="41.171043" lon="14.9744522"><ele>360.0</ele><time>2026-04-19T09:54:05.024Z</time></trkpt><trkpt lat="41.1710489" lon="14.9743073"><ele>358.0</ele><time>2026-04-19T09:54:06.029Z</time></trkpt><trkpt lat="41.1710432" lon="14.974181"><ele>356.0</ele><time>2026-04-19T09:54:07.024Z</time></trkpt><trkpt lat="41.1710254" lon="14.9740548"><ele>354.0</ele><time>2026-04-19T09:54:08.03Z</time></trkpt><trkpt lat="41.1709971" lon="14.9739193"><ele>351.79999999999995</ele><time>2026-04-19T09:54:09.025Z</time></trkpt><trkpt lat="41.1709674" lon="14.9737854"><ele>349.59999999999997</ele><time>2026-04-19T09:54:10.027Z</time></trkpt><trkpt lat="41.1709416" lon="14.9736477"><ele>347.4</ele><time>2026-04-19T09:54:11.031Z</time></trkpt><trkpt lat="41.1709215" lon="14.9735063"><ele>345.2</ele><time>2026-04-19T09:54:12.032Z</time></trkpt><trkpt lat="41.1709002" lon="14.9733627"><ele>343.0</ele><time>2026-04-19T09:54:13.029Z</time></trkpt><trkpt lat="41.1708798" lon="14.9732202"><ele>341.3333333333333</ele><time>2026-04-19T09:54:14.03Z</time></trkpt><trkpt lat="41.1708531" lon="14.9731033"><ele>339.66666666666663</ele><time>2026-04-19T09:54:15.023Z</time></trkpt><trkpt lat="41.1708232" lon="14.9729999"><ele>338.0</ele><time>2026-04-19T09:54:16.027Z</time></trkpt><trkpt lat="41.1707917" lon="14.9729189"><ele>336.3333333333333</ele><time>2026-04-19T09:54:17.03Z</time></trkpt><trkpt lat="41.1707445" lon="14.9728609"><ele>334.6666666666667</ele><time>2026-04-19T09:54:18.026Z</time></trkpt><trkpt lat="41.1706765" lon="14.9728182"><ele>333.0</ele><time>2026-04-19T09:54:19.026Z</time></trkpt><trkpt lat="41.1705964" lon="14.9727816"><ele>330.59999999999997</ele><time>2026-04-19T09:54:20.027Z</time></trkpt><trkpt lat="41.1705254" lon="14.9727121"><ele>328.2</ele><time>2026-04-19T09:54:21.029Z</time></trkpt><trkpt lat="41.1704662" lon="14.9726092"><ele>325.8</ele><time>2026-04-19T09:54:22.026Z</time></trkpt><trkpt lat="41.1704061" lon="14.9725081"><ele>323.4</ele><time>2026-04-19T09:54:23.027Z</time></trkpt><trkpt lat="41.1703533" lon="14.9723918"><ele>321.0</ele><time>2026-04-19T09:54:24.03Z</time></trkpt><trkpt lat="41.1702994" lon="14.9722862"><ele>319.8</ele><time>2026-04-19T09:54:25.029Z</time></trkpt><trkpt lat="41.1702524" lon="14.9721638"><ele>318.6</ele><time>2026-04-19T09:54:26.03Z</time></trkpt><trkpt lat="41.1702105" lon="14.9720419"><ele>317.4</ele><time>2026-04-19T09:54:27.028Z</time></trkpt><trkpt lat="41.1701782" lon="14.9719346"><ele>316.2</ele><time>2026-04-19T09:54:28.027Z</time></trkpt><trkpt lat="41.1701636" lon="14.9718241"><ele>315.0</ele><time>2026-04-19T09:54:29.027Z</time></trkpt><trkpt lat="41.1701633" lon="14.971701"><ele>312.6666666666667</ele><time>2026-04-19T09:54:30.027Z</time></trkpt><trkpt lat="41.17017" lon="14.9715854"><ele>310.3333333333333</ele><time>2026-04-19T09:54:31.027Z</time></trkpt><trkpt lat="41.1701827" lon="14.971484"><ele>308.0</ele><time>2026-04-19T09:54:32.028Z</time></trkpt><trkpt lat="41.1701936" lon="14.9713954"><ele>305.66666666666663</ele><time>2026-04-19T09:54:33.032Z</time></trkpt><trkpt lat="41.1701523" lon="14.9712928"><ele>303.3333333333333</ele><time>2026-04-19T09:54:35.022Z</time></trkpt><trkpt lat="41.1700431" lon="14.9712663"><ele>301.0</ele><time>2026-04-19T09:54:37.026Z</time></trkpt><trkpt lat="41.1699783" lon="14.9712698"><ele>301.0</ele><time>2026-04-19T09:54:38.024Z</time></trkpt><trkpt lat="41.1698624" lon="14.9713439"><ele>301.0</ele><time>2026-04-19T09:54:40.017Z</time></trkpt><trkpt lat="41.1697995" lon="14.9714135"><ele>301.0</ele><time>2026-04-19T09:54:41.028Z</time></trkpt><trkpt lat="41.1697368" lon="14.971487"><ele>301.0</ele><time>2026-04-19T09:54:42.022Z</time></trkpt><trkpt lat="41.1696824" lon="14.9715451"><ele>301.0</ele><time>2026-04-19T09:54:43.029Z</time></trkpt><trkpt lat="41.1695882" lon="14.9715399"><ele>297.8</ele><time>2026-04-19T09:54:45.018Z</time></trkpt><trkpt lat="41.1695174" lon="14.9714306"><ele>294.6</ele><time>2026-04-19T09:54:47.024Z</time></trkpt><trkpt lat="41.1694894" lon="14.9713182"><ele>291.4</ele><time>2026-04-19T09:54:48.022Z</time></trkpt><trkpt lat="41.1694545" lon="14.9711881"><ele>288.2</ele><time>2026-04-19T09:54:49.025Z</time></trkpt><trkpt lat="41.1694178" lon="14.971041"><ele>285.0</ele><time>2026-04-19T09:54:50.03Z</time></trkpt><trkpt lat="41.1693852" lon="14.9709015"><ele>282.6</ele><time>2026-04-19T09:54:51.027Z</time></trkpt><trkpt lat="41.1693547" lon="14.9707804"><ele>280.2</ele><time>2026-04-19T09:54:52.025Z</time></trkpt><trkpt lat="41.1693238" lon="14.9706695"><ele>277.8</ele><time>2026-04-19T09:54:53.024Z</time></trkpt><trkpt lat="41.1693058" lon="14.9705605"><ele>275.4</ele><time>2026-04-19T09:54:54.029Z</time></trkpt><trkpt lat="41.1692927" lon="14.9704409"><ele>273.0</ele><time>2026-04-19T09:54:55.027Z</time></trkpt><trkpt lat="41.169279" lon="14.9703148"><ele>273.0</ele><time>2026-04-19T09:54:56.028Z</time></trkpt><trkpt lat="41.1692681" lon="14.9702196"><ele>273.0</ele><time>2026-04-19T09:54:57.028Z</time></trkpt><trkpt lat="41.1692627" lon="14.9701172"><ele>273.0</ele><time>2026-04-19T09:54:58.029Z</time></trkpt><trkpt lat="41.1692571" lon="14.9700157"><ele>273.0</ele><time>2026-04-19T09:54:59.026Z</time></trkpt><trkpt lat="41.1692573" lon="14.9699165"><ele>273.0</ele><time>2026-04-19T09:55:00.029Z</time></trkpt><trkpt lat="41.1692641" lon="14.969756"><ele>273.0</ele><time>2026-04-19T09:55:02.026Z</time></trkpt><trkpt lat="41.1692804" lon="14.9695783"><ele>271.1666666666667</ele><time>2026-04-19T09:55:04.023Z</time></trkpt><trkpt lat="41.1692989" lon="14.9694924"><ele>269.3333333333333</ele><time>2026-04-19T09:55:05.027Z</time></trkpt><trkpt lat="41.169314" lon="14.9693908"><ele>267.5</ele><time>2026-04-19T09:55:06.027Z</time></trkpt><trkpt lat="41.1693238" lon="14.9692648"><ele>265.66666666666663</ele><time>2026-04-19T09:55:07.031Z</time></trkpt><trkpt lat="41.169324" lon="14.9691336"><ele>263.8333333333333</ele><time>2026-04-19T09:55:08.028Z</time></trkpt><trkpt lat="41.1693161" lon="14.9689986"><ele>262.0</ele><time>2026-04-19T09:55:09.027Z</time></trkpt><trkpt lat="41.169309" lon="14.9688689"><ele>259.2</ele><time>2026-04-19T09:55:10.029Z</time></trkpt><trkpt lat="41.1692994" lon="14.9687487"><ele>256.4</ele><time>2026-04-19T09:55:11.032Z</time></trkpt><trkpt lat="41.1692928" lon="14.9686312"><ele>253.60000000000002</ele><time>2026-04-19T09:55:12.024Z</time></trkpt><trkpt lat="41.1692792" lon="14.9685131"><ele>250.8</ele><time>2026-04-19T09:55:13.026Z</time></trkpt><trkpt lat="41.1692662" lon="14.9683796"><ele>248.0</ele><time>2026-04-19T09:55:14.027Z</time></trkpt><trkpt lat="41.1692591" lon="14.9682387"><ele>244.5</ele><time>2026-04-19T09:55:15.026Z</time></trkpt><trkpt lat="41.1692496" lon="14.9680888"><ele>241.0</ele><time>2026-04-19T09:55:16.029Z</time></trkpt><trkpt lat="41.1692385" lon="14.9679372"><ele>237.5</ele><time>2026-04-19T09:55:17.028Z</time></trkpt><trkpt lat="41.1692254" lon="14.9677868"><ele>234.0</ele><time>2026-04-19T09:55:18.019Z</time></trkpt><trkpt lat="41.1692113" lon="14.9676381"><ele>231.0</ele><time>2026-04-19T09:55:19.027Z</time></trkpt><trkpt lat="41.1691983" lon="14.9674901"><ele>228.0</ele><time>2026-04-19T09:55:20.033Z</time></trkpt><trkpt lat="41.1691837" lon="14.9673272"><ele>225.0</ele><time>2026-04-19T09:55:21.025Z</time></trkpt><trkpt lat="41.1691693" lon="14.9671681"><ele>222.0</ele><time>2026-04-19T09:55:22.027Z</time></trkpt><trkpt lat="41.1691566" lon="14.9670152"><ele>222.0</ele><time>2026-04-19T09:55:23.029Z</time></trkpt><trkpt lat="41.1691457" lon="14.9668586"><ele>222.0</ele><time>2026-04-19T09:55:24.028Z</time></trkpt><trkpt lat="41.1691346" lon="14.9667056"><ele>222.0</ele><time>2026-04-19T09:55:25.027Z</time></trkpt><trkpt lat="41.1691171" lon="14.966551"><ele>222.0</ele><time>2026-04-19T09:55:26.025Z</time></trkpt><trkpt lat="41.1691072" lon="14.9664147"><ele>219.39999999999998</ele><time>2026-04-19T09:55:27.033Z</time></trkpt><trkpt lat="41.1690999" lon="14.9662925"><ele>216.79999999999998</ele><time>2026-04-19T09:55:28.028Z</time></trkpt><trkpt lat="41.1690937" lon="14.9661571"><ele>214.2</ele><time>2026-04-19T09:55:29.017Z</time></trkpt><trkpt lat="41.1690843" lon="14.9660132"><ele>211.6</ele><time>2026-04-19T09:55:30.027Z</time></trkpt><trkpt lat="41.1690776" lon="14.9658817"><ele>209.0</ele><time>2026-04-19T09:55:31.028Z</time></trkpt><trkpt lat="41.1690703" lon="14.9657682"><ele>207.66666666666669</ele><time>2026-04-19T09:55:32.028Z</time></trkpt><trkpt lat="41.1690612" lon="14.9656703"><ele>206.33333333333334</ele><time>2026-04-19T09:55:33.033Z</time></trkpt><trkpt lat="41.1690433" lon="14.9655882"><ele>205.0</ele><time>2026-04-19T09:55:34.028Z</time></trkpt><trkpt lat="41.1690237" lon="14.965503"><ele>203.66666666666669</ele><time>2026-04-19T09:55:35.028Z</time></trkpt><trkpt lat="41.1690091" lon="14.9654083"><ele>202.33333333333334</ele><time>2026-04-19T09:55:36.025Z</time></trkpt><trkpt lat="41.168998" lon="14.9652784"><ele>201.0</ele><time>2026-04-19T09:55:37.027Z</time></trkpt><trkpt lat="41.1689849" lon="14.9651352"><ele>198.25</ele><time>2026-04-19T09:55:38.028Z</time></trkpt><trkpt lat="41.168971" lon="14.964984"><ele>195.5</ele><time>2026-04-19T09:55:39.029Z</time></trkpt><trkpt lat="41.1689555" lon="14.9648208"><ele>192.75</ele><time>2026-04-19T09:55:40.027Z</time></trkpt><trkpt lat="41.1689419" lon="14.9646654"><ele>190.0</ele><time>2026-04-19T09:55:41.026Z</time></trkpt><trkpt lat="41.1689277" lon="14.9645124"><ele>190.0</ele><time>2026-04-19T09:55:42.017Z</time></trkpt><trkpt lat="41.1689134" lon="14.9643628"><ele>190.0</ele><time>2026-04-19T09:55:43.026Z</time></trkpt><trkpt lat="41.1689005" lon="14.9642291"><ele>190.0</ele><time>2026-04-19T09:55:44.026Z</time></trkpt><trkpt lat="41.1688969" lon="14.964137"><ele>190.0</ele><time>2026-04-19T09:55:45.027Z</time></trkpt><trkpt lat="41.1689358" lon="14.9640323"><ele>190.0</ele><time>2026-04-19T09:55:47.028Z</time></trkpt><trkpt lat="41.1690175" lon="14.9639629"><ele>190.0</ele><time>2026-04-19T09:55:49.023Z</time></trkpt><trkpt lat="41.1690845" lon="14.963949"><ele>190.0</ele><time>2026-04-19T09:57:03.96Z</time></trkpt><trkpt lat="41.169172" lon="14.9639611"><ele>190.0</ele><time>2026-04-19T09:58:14.947Z</time></trkpt><trkpt lat="41.1692563" lon="14.9639705"><ele>190.0</ele><time>2026-04-19T09:58:15.949Z</time></trkpt><trkpt lat="41.1693826" lon="14.9639853"><ele>190.0</ele><time>2026-04-19T09:58:16.942Z</time></trkpt><trkpt lat="41.1695298" lon="14.9639887"><ele>190.0</ele><time>2026-04-19T09:58:18.028Z</time></trkpt><trkpt lat="41.1697058" lon="14.9639943"><ele>190.0</ele><time>2026-04-19T09:58:18.95Z</time></trkpt><trkpt lat="41.1698863" lon="14.9640001"><ele>190.0</ele><time>2026-04-19T09:58:19.952Z</time></trkpt><trkpt lat="41.1700436" lon="14.9640086"><ele>190.0</ele><time>2026-04-19T09:58:20.951Z</time></trkpt><trkpt lat="41.1702022" lon="14.9640202"><ele>190.0</ele><time>2026-04-19T09:58:21.953Z</time></trkpt><trkpt lat="41.1703744" lon="14.9640458"><ele>190.0</ele><time>2026-04-19T09:58:22.952Z</time></trkpt><trkpt lat="41.170542" lon="14.9640775"><ele>190.5</ele><time>2026-04-19T09:58:24.074Z</time></trkpt><trkpt lat="41.1708724" lon="14.9641404"><ele>191.0</ele><time>2026-04-19T09:58:25.945Z</time></trkpt><trkpt lat="41.1710449" lon="14.964165"><ele>191.0</ele><time>2026-04-19T09:58:26.954Z</time></trkpt><trkpt lat="41.1712178" lon="14.96419"><ele>191.0</ele><time>2026-04-19T09:58:27.954Z</time></trkpt><trkpt lat="41.1713781" lon="14.964207"><ele>191.0</ele><time>2026-04-19T09:58:28.953Z</time></trkpt><trkpt lat="41.171544" lon="14.9642131"><ele>193.0</ele><time>2026-04-19T09:58:29.957Z</time></trkpt><trkpt lat="41.1717106" lon="14.9642106"><ele>195.0</ele><time>2026-04-19T09:58:30.96Z</time></trkpt><trkpt lat="41.1718654" lon="14.9642097"><ele>197.0</ele><time>2026-04-19T09:58:31.969Z</time></trkpt><trkpt lat="41.1720113" lon="14.9642091"><ele>196.25</ele><time>2026-04-19T09:58:33.08Z</time></trkpt><trkpt lat="41.1721428" lon="14.9641903"><ele>195.5</ele><time>2026-04-19T09:58:34.033Z</time></trkpt><trkpt lat="41.172262" lon="14.9641494"><ele>194.75</ele><time>2026-04-19T09:58:34.948Z</time></trkpt><trkpt lat="41.172375" lon="14.9640847"><ele>194.0</ele><time>2026-04-19T09:58:35.95Z</time></trkpt><trkpt lat="41.1724765" lon="14.9639951"><ele>194.0</ele><time>2026-04-19T09:58:36.966Z</time></trkpt><trkpt lat="41.1725831" lon="14.9638764"><ele>194.0</ele><time>2026-04-19T09:58:37.948Z</time></trkpt><trkpt lat="41.1726954" lon="14.9637458"><ele>194.0</ele><time>2026-04-19T09:58:38.95Z</time></trkpt><trkpt lat="41.1728039" lon="14.9636328"><ele>194.0</ele><time>2026-04-19T09:58:39.955Z</time></trkpt><trkpt lat="41.1729046" lon="14.9635455"><ele>194.0</ele><time>2026-04-19T09:58:41.019Z</time></trkpt><trkpt lat="41.173009" lon="14.9634837"><ele>194.0</ele><time>2026-04-19T09:58:42.03Z</time></trkpt><trkpt lat="41.173138" lon="14.9634414"><ele>194.0</ele><time>2026-04-19T09:58:43.022Z</time></trkpt><trkpt lat="41.1732757" lon="14.9633801"><ele>194.0</ele><time>2026-04-19T09:58:43.952Z</time></trkpt><trkpt lat="41.1734237" lon="14.9633253"><ele>194.0</ele><time>2026-04-19T09:58:44.954Z</time></trkpt><trkpt lat="41.1735839" lon="14.963276"><ele>194.0</ele><time>2026-04-19T09:58:45.953Z</time></trkpt><trkpt lat="41.1737273" lon="14.9632313"><ele>194.0</ele><time>2026-04-19T09:58:46.954Z</time></trkpt><trkpt lat="41.1738422" lon="14.9632015"><ele>194.0</ele><time>2026-04-19T09:58:47.949Z</time></trkpt><trkpt lat="41.1739321" lon="14.9631699"><ele>194.00000000000003</ele><time>2026-04-19T09:58:48.949Z</time></trkpt><trkpt lat="41.1740079" lon="14.9631288"><ele>194.0</ele><time>2026-04-19T09:58:49.951Z</time></trkpt><trkpt lat="41.1740673" lon="14.9630877"><ele>194.0</ele><time>2026-04-19T09:58:50.954Z</time></trkpt><trkpt lat="41.1741456" lon="14.9630176"><ele>194.0</ele><time>2026-04-19T09:58:52.953Z</time></trkpt><trkpt lat="41.1742069" lon="14.9629865"><ele>194.00000000000003</ele><time>2026-04-19T09:59:00.964Z</time></trkpt><trkpt lat="41.1742679" lon="14.9630259"><ele>194.0</ele><time>2026-04-19T10:00:34.954Z</time></trkpt><trkpt lat="41.1743048" lon="14.9631627"><ele>194.00000000000003</ele><time>2026-04-19T10:00:53.951Z</time></trkpt><trkpt lat="41.1743357" lon="14.9632686"><ele>194.0</ele><time>2026-04-19T10:00:54.947Z</time></trkpt><trkpt lat="41.17437" lon="14.9633415"><ele>194.0</ele><time>2026-04-19T10:00:55.954Z</time></trkpt><trkpt lat="41.1744328" lon="14.9634496"><ele>194.0</ele><time>2026-04-19T10:00:57.945Z</time></trkpt><trkpt lat="41.1744574" lon="14.9635817"><ele>194.00000000000003</ele><time>2026-04-19T10:00:59.951Z</time></trkpt><trkpt lat="41.1744357" lon="14.9636613"><ele>194.0</ele><time>2026-04-19T10:01:00.952Z</time></trkpt><trkpt lat="41.1743815" lon="14.9637237"><ele>195.0</ele><time>2026-04-19T10:01:01.947Z</time></trkpt><trkpt lat="41.1743374" lon="14.9637881"><ele>196.0</ele><time>2026-04-19T10:01:02.944Z</time></trkpt><trkpt lat="41.1743332" lon="14.9638894"><ele>197.0</ele><time>2026-04-19T10:01:04.95Z</time></trkpt><trkpt lat="41.1745119" lon="14.9638707"><ele>198.0</ele><time>2026-04-19T10:01:06.948Z</time></trkpt><trkpt lat="41.1746286" lon="14.963818"><ele>199.0</ele><time>2026-04-19T10:01:07.947Z</time></trkpt><trkpt lat="41.1747011" lon="14.9637912"><ele>199.0</ele><time>2026-04-19T10:01:08.953Z</time></trkpt><trkpt lat="41.1747792" lon="14.963782"><ele>199.0</ele><time>2026-04-19T10:01:09.944Z</time></trkpt><trkpt lat="41.1748272" lon="14.9638386"><ele>199.0</ele><time>2026-04-19T10:01:10.951Z</time></trkpt><trkpt lat="41.1748628" lon="14.9639511"><ele>199.0</ele><time>2026-04-19T10:01:12.949Z</time></trkpt><trkpt lat="41.1749089" lon="14.9640459"><ele>199.0</ele><time>2026-04-19T10:01:14.947Z</time></trkpt><trkpt lat="41.1750677" lon="14.9640953"><ele>199.0</ele><time>2026-04-19T10:01:17.947Z</time></trkpt><trkpt lat="41.174974" lon="14.9641211"><ele>199.0</ele><time>2026-04-19T10:01:19.032Z</time></trkpt><trkpt lat="41.1748862" lon="14.96418"><ele>199.0</ele><time>2026-04-19T10:01:19.952Z</time></trkpt><trkpt lat="41.174811" lon="14.9641789"><ele>199.0</ele><time>2026-04-19T10:01:21.95Z</time></trkpt><trkpt lat="41.1747213" lon="14.9642107"><ele>199.0</ele><time>2026-04-19T10:01:23.951Z</time></trkpt><trkpt lat="41.1746004" lon="14.9642562"><ele>201.6</ele><time>2026-04-19T10:01:25.952Z</time></trkpt><trkpt lat="41.1745305" lon="14.9643117"><ele>204.2</ele><time>2026-04-19T10:01:27.948Z</time></trkpt><trkpt lat="41.1744846" lon="14.964423"><ele>206.79999999999998</ele><time>2026-04-19T10:01:29.96Z</time></trkpt><trkpt lat="41.1744467" lon="14.9645225"><ele>209.39999999999998</ele><time>2026-04-19T10:01:30.944Z</time></trkpt><trkpt lat="41.174394" lon="14.9646045"><ele>212.0</ele><time>2026-04-19T10:01:32.035Z</time></trkpt><trkpt lat="41.1743042" lon="14.9646906"><ele>212.00000000000003</ele><time>2026-04-19T10:01:33.952Z</time></trkpt><trkpt lat="41.1742465" lon="14.964738"><ele>212.0</ele><time>2026-04-19T10:01:34.958Z</time></trkpt><trkpt lat="41.1742042" lon="14.9648519"><ele>212.0</ele><time>2026-04-19T10:01:36.962Z</time></trkpt><trkpt lat="41.1742258" lon="14.9649381"><ele>212.0</ele><time>2026-04-19T10:01:37.96Z</time></trkpt><trkpt lat="41.1742433" lon="14.9650244"><ele>212.00000000000003</ele><time>2026-04-19T10:01:39.031Z</time></trkpt><trkpt lat="41.1742373" lon="14.9651294"><ele>212.0</ele><time>2026-04-19T10:01:40.949Z</time></trkpt><trkpt lat="41.1741995" lon="14.9652223"><ele>214.39999999999998</ele><time>2026-04-19T10:01:42.953Z</time></trkpt><trkpt lat="41.1742035" lon="14.9654892"><ele>216.79999999999998</ele><time>2026-04-19T10:01:46.037Z</time></trkpt><trkpt lat="41.1742129" lon="14.9655916"><ele>219.2</ele><time>2026-04-19T10:01:46.951Z</time></trkpt><trkpt lat="41.1742069" lon="14.9656877"><ele>221.6</ele><time>2026-04-19T10:01:47.954Z</time></trkpt><trkpt lat="41.1742278" lon="14.9657885"><ele>224.0</ele><time>2026-04-19T10:01:49.953Z</time></trkpt><trkpt lat="41.1742913" lon="14.9658765"><ele>226.6</ele><time>2026-04-19T10:01:52.952Z</time></trkpt><trkpt lat="41.174363" lon="14.9659124"><ele>229.2</ele><time>2026-04-19T10:01:54.941Z</time></trkpt><trkpt lat="41.1744575" lon="14.9659924"><ele>231.79999999999998</ele><time>2026-04-19T10:01:56.947Z</time></trkpt><trkpt lat="41.1745575" lon="14.9660817"><ele>234.39999999999998</ele><time>2026-04-19T10:01:58.949Z</time></trkpt><trkpt lat="41.174577" lon="14.9661661"><ele>237.0</ele><time>2026-04-19T10:01:59.955Z</time></trkpt><trkpt lat="41.1745948" lon="14.9662775"><ele>237.0</ele><time>2026-04-19T10:02:00.949Z</time></trkpt><trkpt lat="41.1746035" lon="14.9663822"><ele>237.0</ele><time>2026-04-19T10:02:01.944Z</time></trkpt><trkpt lat="41.1746089" lon="14.9664912"><ele>237.0</ele><time>2026-04-19T10:02:02.948Z</time></trkpt><trkpt lat="41.1745999" lon="14.9666039"><ele>237.0</ele><time>2026-04-19T10:02:03.951Z</time></trkpt><trkpt lat="41.1746487" lon="14.9667312"><ele>237.0</ele><time>2026-04-19T10:02:05.952Z</time></trkpt><trkpt lat="41.1746918" lon="14.9668789"><ele>239.0</ele><time>2026-04-19T10:02:07.949Z</time></trkpt><trkpt lat="41.1747584" lon="14.9669743"><ele>241.0</ele><time>2026-04-19T10:02:09.949Z</time></trkpt><trkpt lat="41.1748284" lon="14.9670056"><ele>243.0</ele><time>2026-04-19T10:02:10.941Z</time></trkpt><trkpt lat="41.17489" lon="14.9670342"><ele>245.0</ele><time>2026-04-19T10:02:11.953Z</time></trkpt><trkpt lat="41.1749578" lon="14.9669377"><ele>247.0</ele><time>2026-04-19T10:02:13.949Z</time></trkpt><trkpt lat="41.1749677" lon="14.9668541"><ele>249.0</ele><time>2026-04-19T10:02:16.951Z</time></trkpt><trkpt lat="41.1749766" lon="14.9667373"><ele>249.16666666666666</ele><time>2026-04-19T10:02:20.064Z</time></trkpt><trkpt lat="41.1749473" lon="14.9666294"><ele>249.33333333333331</ele><time>2026-04-19T10:02:22Z</time></trkpt><trkpt lat="41.1749363" lon="14.966509"><ele>249.5</ele><time>2026-04-19T10:02:23.947Z</time></trkpt><trkpt lat="41.174985" lon="14.9664245"><ele>249.66666666666666</ele><time>2026-04-19T10:02:26.948Z</time></trkpt><trkpt lat="41.1750466" lon="14.9664919"><ele>249.83333333333331</ele><time>2026-04-19T10:02:29.952Z</time></trkpt><trkpt lat="41.1750843" lon="14.9666152"><ele>250.0</ele><time>2026-04-19T10:02:32.028Z</time></trkpt><trkpt lat="41.1751529" lon="14.9665813"><ele>250.0</ele><time>2026-04-19T10:02:34.947Z</time></trkpt><trkpt lat="41.1751981" lon="14.9664873"><ele>250.0</ele><time>2026-04-19T10:02:36.948Z</time></trkpt><trkpt lat="41.175255" lon="14.9663811"><ele>250.0</ele><time>2026-04-19T10:02:37.95Z</time></trkpt><trkpt lat="41.1753056" lon="14.9662797"><ele>250.0</ele><time>2026-04-19T10:02:38.952Z</time></trkpt><trkpt lat="41.1753694" lon="14.9661646"><ele>250.0</ele><time>2026-04-19T10:02:39.952Z</time></trkpt><trkpt lat="41.1754154" lon="14.9660512"><ele>250.0</ele><time>2026-04-19T10:02:40.952Z</time></trkpt><trkpt lat="41.1754471" lon="14.9659728"><ele>250.0</ele><time>2026-04-19T10:02:42.954Z</time></trkpt><trkpt lat="41.1754475" lon="14.965804"><ele>250.0</ele><time>2026-04-19T10:02:45.953Z</time></trkpt><trkpt lat="41.1754225" lon="14.9656698"><ele>250.0</ele><time>2026-04-19T10:02:46.952Z</time></trkpt><trkpt lat="41.1754086" lon="14.9655335"><ele>250.0</ele><time>2026-04-19T10:02:48.03Z</time></trkpt><trkpt lat="41.1753808" lon="14.9654102"><ele>246.2</ele><time>2026-04-19T10:02:49.026Z</time></trkpt><trkpt lat="41.1753338" lon="14.9653154"><ele>242.4</ele><time>2026-04-19T10:02:49.943Z</time></trkpt><trkpt lat="41.1753202" lon="14.9651592"><ele>238.60000000000002</ele><time>2026-04-19T10:02:52.045Z</time></trkpt><trkpt lat="41.1753206" lon="14.9650653"><ele>234.8</ele><time>2026-04-19T10:02:53.03Z</time></trkpt><trkpt lat="41.175335" lon="14.9649239"><ele>231.0</ele><time>2026-04-19T10:02:54.952Z</time></trkpt><trkpt lat="41.1754051" lon="14.964836"><ele>228.60000000000002</ele><time>2026-04-19T10:02:56.952Z</time></trkpt><trkpt lat="41.1754999" lon="14.964829"><ele>226.20000000000002</ele><time>2026-04-19T10:02:59.022Z</time></trkpt><trkpt lat="41.1755409" lon="14.9647379"><ele>223.79999999999998</ele><time>2026-04-19T10:03:01.95Z</time></trkpt><trkpt lat="41.1756307" lon="14.9646385"><ele>221.39999999999998</ele><time>2026-04-19T10:03:03.952Z</time></trkpt><trkpt lat="41.1756808" lon="14.9645503"><ele>219.0</ele><time>2026-04-19T10:03:05.945Z</time></trkpt><trkpt lat="41.1756266" lon="14.9644201"><ele>219.0</ele><time>2026-04-19T10:03:08.038Z</time></trkpt><trkpt lat="41.1755616" lon="14.9642876"><ele>218.99999999999997</ele><time>2026-04-19T10:03:09.974Z</time></trkpt><trkpt lat="41.175451" lon="14.9642122"><ele>218.99999999999997</ele><time>2026-04-19T10:03:11.952Z</time></trkpt><trkpt lat="41.1753691" lon="14.9640899"><ele>219.0</ele><time>2026-04-19T10:03:13.946Z</time></trkpt><trkpt lat="41.1753361" lon="14.9639912"><ele>219.0</ele><time>2026-04-19T10:03:14.95Z</time></trkpt><trkpt lat="41.1753056" lon="14.9639037"><ele>216.39999999999998</ele><time>2026-04-19T10:03:16.02Z</time></trkpt><trkpt lat="41.1752709" lon="14.9638216"><ele>213.79999999999998</ele><time>2026-04-19T10:03:17.027Z</time></trkpt><trkpt lat="41.175238" lon="14.9637168"><ele>211.2</ele><time>2026-04-19T10:03:18.029Z</time></trkpt><trkpt lat="41.1751869" lon="14.9635694"><ele>208.60000000000002</ele><time>2026-04-19T10:03:19.028Z</time></trkpt><trkpt lat="41.1751292" lon="14.9634224"><ele>206.0</ele><time>2026-04-19T10:03:19.967Z</time></trkpt><trkpt lat="41.1751057" lon="14.9633242"><ele>204.20000000000002</ele><time>2026-04-19T10:03:20.964Z</time></trkpt><trkpt lat="41.1751355" lon="14.9631986"><ele>202.4</ele><time>2026-04-19T10:03:23.024Z</time></trkpt><trkpt lat="41.1752205" lon="14.9631544"><ele>200.6</ele><time>2026-04-19T10:03:24.027Z</time></trkpt><trkpt lat="41.1753006" lon="14.9631128"><ele>198.8</ele><time>2026-04-19T10:03:24.951Z</time></trkpt><trkpt lat="41.1753944" lon="14.9631673"><ele>197.0</ele><time>2026-04-19T10:03:27.953Z</time></trkpt><trkpt lat="41.175461" lon="14.9632055"><ele>197.00000000000003</ele><time>2026-04-19T10:03:28.951Z</time></trkpt><trkpt lat="41.1755246" lon="14.9632355"><ele>197.0</ele><time>2026-04-19T10:03:29.953Z</time></trkpt><trkpt lat="41.1755917" lon="14.9632424"><ele>197.0</ele><time>2026-04-19T10:03:31.027Z</time></trkpt><trkpt lat="41.175698" lon="14.9632333"><ele>197.0</ele><time>2026-04-19T10:03:32.029Z</time></trkpt><trkpt lat="41.1757837" lon="14.9632583"><ele>197.00000000000003</ele><time>2026-04-19T10:03:32.955Z</time></trkpt><trkpt lat="41.1758356" lon="14.9633112"><ele>197.0</ele><time>2026-04-19T10:03:33.951Z</time></trkpt><trkpt lat="41.1759523" lon="14.9632817"><ele>197.6</ele><time>2026-04-19T10:03:35.954Z</time></trkpt><trkpt lat="41.1760191" lon="14.9632896"><ele>198.2</ele><time>2026-04-19T10:03:36.951Z</time></trkpt><trkpt lat="41.1761214" lon="14.9632897"><ele>198.8</ele><time>2026-04-19T10:03:38.967Z</time></trkpt><trkpt lat="41.1762393" lon="14.9632604"><ele>199.4</ele><time>2026-04-19T10:03:40.957Z</time></trkpt><trkpt lat="41.1763266" lon="14.9632963"><ele>200.0</ele><time>2026-04-19T10:03:41.955Z</time></trkpt><trkpt lat="41.1764307" lon="14.9633483"><ele>202.0</ele><time>2026-04-19T10:03:42.947Z</time></trkpt><trkpt lat="41.1765395" lon="14.9634131"><ele>204.0</ele><time>2026-04-19T10:03:43.947Z</time></trkpt><trkpt lat="41.1766484" lon="14.9634758"><ele>206.0</ele><time>2026-04-19T10:03:44.952Z</time></trkpt><trkpt lat="41.1767578" lon="14.9635327"><ele>208.0</ele><time>2026-04-19T10:03:45.949Z</time></trkpt><trkpt lat="41.1768746" lon="14.9635929"><ele>208.0</ele><time>2026-04-19T10:03:46.95Z</time></trkpt><trkpt lat="41.1769918" lon="14.9636524"><ele>208.0</ele><time>2026-04-19T10:03:47.992Z</time></trkpt><trkpt lat="41.1770922" lon="14.9637095"><ele>208.0</ele><time>2026-04-19T10:03:48.948Z</time></trkpt><trkpt lat="41.1771697" lon="14.9637605"><ele>208.0</ele><time>2026-04-19T10:03:49.949Z</time></trkpt><trkpt lat="41.1772415" lon="14.9638084"><ele>208.0</ele><time>2026-04-19T10:03:50.951Z</time></trkpt><trkpt lat="41.1773241" lon="14.963854"><ele>207.16666666666666</ele><time>2026-04-19T10:03:51.955Z</time></trkpt><trkpt lat="41.1774186" lon="14.963896"><ele>206.33333333333331</ele><time>2026-04-19T10:03:52.951Z</time></trkpt><trkpt lat="41.1775048" lon="14.9639212"><ele>205.5</ele><time>2026-04-19T10:03:53.953Z</time></trkpt><trkpt lat="41.1775732" lon="14.9639487"><ele>204.66666666666669</ele><time>2026-04-19T10:03:54.952Z</time></trkpt><trkpt lat="41.1776123" lon="14.9640174"><ele>203.83333333333334</ele><time>2026-04-19T10:03:55.952Z</time></trkpt><trkpt lat="41.1776344" lon="14.9641099"><ele>203.0</ele><time>2026-04-19T10:03:56.95Z</time></trkpt><trkpt lat="41.1776641" lon="14.9642031"><ele>205.00000000000003</ele><time>2026-04-19T10:03:57.947Z</time></trkpt><trkpt lat="41.177715" lon="14.9642693"><ele>207.0</ele><time>2026-04-19T10:03:58.953Z</time></trkpt><trkpt lat="41.1777879" lon="14.9643289"><ele>209.0</ele><time>2026-04-19T10:03:59.955Z</time></trkpt><trkpt lat="41.1778549" lon="14.9644123"><ele>211.0</ele><time>2026-04-19T10:04:00.954Z</time></trkpt><trkpt lat="41.1779136" lon="14.9645064"><ele>213.00000000000003</ele><time>2026-04-19T10:04:01.954Z</time></trkpt><trkpt lat="41.177981" lon="14.9646179"><ele>215.0</ele><time>2026-04-19T10:04:02.954Z</time></trkpt><trkpt lat="41.1780703" lon="14.9647066"><ele>215.0</ele><time>2026-04-19T10:04:03.952Z</time></trkpt><trkpt lat="41.1781599" lon="14.9647779"><ele>215.0</ele><time>2026-04-19T10:04:04.955Z</time></trkpt><trkpt lat="41.1782623" lon="14.9648638"><ele>215.0</ele><time>2026-04-19T10:04:05.951Z</time></trkpt><trkpt lat="41.1783375" lon="14.9649249"><ele>215.0</ele><time>2026-04-19T10:04:06.948Z</time></trkpt><trkpt lat="41.1784742" lon="14.9649632"><ele>215.33333333333334</ele><time>2026-04-19T10:04:08.95Z</time></trkpt><trkpt lat="41.1785697" lon="14.9650054"><ele>215.66666666666669</ele><time>2026-04-19T10:04:09.95Z</time></trkpt><trkpt lat="41.178654" lon="14.9650688"><ele>216.0</ele><time>2026-04-19T10:04:10.954Z</time></trkpt><trkpt lat="41.1787006" lon="14.9652045"><ele>216.33333333333331</ele><time>2026-04-19T10:04:12.946Z</time></trkpt><trkpt lat="41.1786886" lon="14.9652959"><ele>216.66666666666666</ele><time>2026-04-19T10:04:13.954Z</time></trkpt><trkpt lat="41.1786862" lon="14.9653856"><ele>217.0</ele><time>2026-04-19T10:04:14.947Z</time></trkpt><trkpt lat="41.1786919" lon="14.9655177"><ele>217.0</ele><time>2026-04-19T10:04:17.026Z</time></trkpt><trkpt lat="41.1785946" lon="14.9654613"><ele>217.0</ele><time>2026-04-19T10:04:18.951Z</time></trkpt><trkpt lat="41.1784688" lon="14.9653304"><ele>217.0</ele><time>2026-04-19T10:04:19.952Z</time></trkpt><trkpt lat="41.1783248" lon="14.9651886"><ele>217.0</ele><time>2026-04-19T10:04:20.953Z</time></trkpt><trkpt lat="41.1781892" lon="14.9650483"><ele>216.6</ele><time>2026-04-19T10:04:22.011Z</time></trkpt><trkpt lat="41.1780832" lon="14.9649323"><ele>216.2</ele><time>2026-04-19T10:04:23.018Z</time></trkpt><trkpt lat="41.1780098" lon="14.9648639"><ele>215.8</ele><time>2026-04-19T10:04:23.953Z</time></trkpt><trkpt lat="41.1779389" lon="14.9648334"><ele>215.4</ele><time>2026-04-19T10:04:24.956Z</time></trkpt><trkpt lat="41.1778513" lon="14.9648182"><ele>215.0</ele><time>2026-04-19T10:04:26.953Z</time></trkpt><trkpt lat="41.1778131" lon="14.9647385"><ele>215.0</ele><time>2026-04-19T10:04:28.953Z</time></trkpt><trkpt lat="41.177811" lon="14.964625"><ele>215.0</ele><time>2026-04-19T10:04:30.951Z</time></trkpt><trkpt lat="41.1777622" lon="14.9645509"><ele>215.0</ele><time>2026-04-19T10:04:32.014Z</time></trkpt><trkpt lat="41.1776525" lon="14.9644344"><ele>215.0</ele><time>2026-04-19T10:04:32.949Z</time></trkpt><trkpt lat="41.1775321" lon="14.9642785"><ele>212.66666666666669</ele><time>2026-04-19T10:04:33.95Z</time></trkpt><trkpt lat="41.1773891" lon="14.9641226"><ele>210.33333333333331</ele><time>2026-04-19T10:04:34.948Z</time></trkpt><trkpt lat="41.1772793" lon="14.9639908"><ele>208.0</ele><time>2026-04-19T10:04:35.951Z</time></trkpt><trkpt lat="41.1771722" lon="14.9638983"><ele>208.0</ele><time>2026-04-19T10:04:36.956Z</time></trkpt><trkpt lat="41.1770383" lon="14.9638251"><ele>208.0</ele><time>2026-04-19T10:04:38.032Z</time></trkpt><trkpt lat="41.17692" lon="14.9637693"><ele>208.0</ele><time>2026-04-19T10:04:39.028Z</time></trkpt><trkpt lat="41.1768025" lon="14.9637562"><ele>208.0</ele><time>2026-04-19T10:04:39.946Z</time></trkpt><trkpt lat="41.176687" lon="14.9637557"><ele>208.0</ele><time>2026-04-19T10:04:40.947Z</time></trkpt><trkpt lat="41.176576" lon="14.9637566"><ele>208.0</ele><time>2026-04-19T10:04:41.949Z</time></trkpt><trkpt lat="41.1764603" lon="14.9637843"><ele>208.0</ele><time>2026-04-19T10:04:42.945Z</time></trkpt><trkpt lat="41.1763541" lon="14.963807"><ele>208.0</ele><time>2026-04-19T10:04:43.947Z</time></trkpt><trkpt lat="41.1762804" lon="14.9638101"><ele>208.0</ele><time>2026-04-19T10:04:44.948Z</time></trkpt><trkpt lat="41.1761985" lon="14.9637858"><ele>208.60000000000002</ele><time>2026-04-19T10:04:47.029Z</time></trkpt><trkpt lat="41.1761717" lon="14.9638641"><ele>209.20000000000002</ele><time>2026-04-19T10:04:48.96Z</time></trkpt><trkpt lat="41.176177" lon="14.9639618"><ele>209.8</ele><time>2026-04-19T10:04:51.029Z</time></trkpt><trkpt lat="41.1761327" lon="14.9641078"><ele>210.4</ele><time>2026-04-19T10:04:52.96Z</time></trkpt><trkpt lat="41.1761446" lon="14.964192"><ele>211.0</ele><time>2026-04-19T10:04:54.959Z</time></trkpt><trkpt lat="41.1763248" lon="14.9641894"><ele>211.0</ele><time>2026-04-19T10:04:56.953Z</time></trkpt><trkpt lat="41.1764132" lon="14.9641921"><ele>211.0</ele><time>2026-04-19T10:04:58.031Z</time></trkpt><trkpt lat="41.1765328" lon="14.9642676"><ele>211.0</ele><time>2026-04-19T10:04:59.955Z</time></trkpt><trkpt lat="41.1765934" lon="14.9643346"><ele>211.0</ele><time>2026-04-19T10:05:00.96Z</time></trkpt><trkpt lat="41.176647" lon="14.9644593"><ele>211.0</ele><time>2026-04-19T10:05:02.959Z</time></trkpt><trkpt lat="41.1767548" lon="14.9645204"><ele>212.99999999999997</ele><time>2026-04-19T10:05:04.962Z</time></trkpt><trkpt lat="41.1768009" lon="14.9644618"><ele>215.0</ele><time>2026-04-19T10:05:07.038Z</time></trkpt><trkpt lat="41.1768871" lon="14.9644644"><ele>217.0</ele><time>2026-04-19T10:05:09.951Z</time></trkpt><trkpt lat="41.1769809" lon="14.9645152"><ele>219.0</ele><time>2026-04-19T10:05:12.952Z</time></trkpt><trkpt lat="41.17703" lon="14.964569"><ele>220.99999999999997</ele><time>2026-04-19T10:05:14.954Z</time></trkpt><trkpt lat="41.1770537" lon="14.9646696"><ele>223.0</ele><time>2026-04-19T10:05:18.035Z</time></trkpt><trkpt lat="41.1770515" lon="14.9647593"><ele>222.99999999999997</ele><time>2026-04-19T10:05:19.955Z</time></trkpt><trkpt lat="41.177064" lon="14.9648525"><ele>223.0</ele><time>2026-04-19T10:05:21.968Z</time></trkpt><trkpt lat="41.1770825" lon="14.964956"><ele>223.0</ele><time>2026-04-19T10:05:23.96Z</time></trkpt><trkpt lat="41.177151" lon="14.9650337"><ele>223.0</ele><time>2026-04-19T10:05:26.043Z</time></trkpt><trkpt lat="41.1772232" lon="14.9650758"><ele>222.99999999999997</ele><time>2026-04-19T10:05:27.039Z</time></trkpt><trkpt lat="41.1773329" lon="14.9651473"><ele>223.0</ele><time>2026-04-19T10:05:27.975Z</time></trkpt><trkpt lat="41.1774389" lon="14.9652252"><ele>225.0</ele><time>2026-04-19T10:05:28.947Z</time></trkpt><trkpt lat="41.1775463" lon="14.9653269"><ele>227.0</ele><time>2026-04-19T10:05:29.95Z</time></trkpt><trkpt lat="41.1776587" lon="14.9654233"><ele>229.0</ele><time>2026-04-19T10:05:30.951Z</time></trkpt><trkpt lat="41.1777668" lon="14.9654908"><ele>231.0</ele><time>2026-04-19T10:05:31.945Z</time></trkpt><trkpt lat="41.1778485" lon="14.9655888"><ele>231.0</ele><time>2026-04-19T10:05:32.939Z</time></trkpt><trkpt lat="41.1779251" lon="14.9657008"><ele>231.00000000000003</ele><time>2026-04-19T10:05:33.948Z</time></trkpt><trkpt lat="41.1780169" lon="14.965804"><ele>231.00000000000003</ele><time>2026-04-19T10:05:34.948Z</time></trkpt><trkpt lat="41.1780953" lon="14.9658786"><ele>231.0</ele><time>2026-04-19T10:05:35.945Z</time></trkpt><trkpt lat="41.1781431" lon="14.9659579"><ele>231.0</ele><time>2026-04-19T10:05:37.02Z</time></trkpt><trkpt lat="41.1781795" lon="14.966055"><ele>230.0</ele><time>2026-04-19T10:05:38.012Z</time></trkpt><trkpt lat="41.1782041" lon="14.9661575"><ele>229.0</ele><time>2026-04-19T10:05:38.959Z</time></trkpt><trkpt lat="41.1782202" lon="14.9662667"><ele>228.0</ele><time>2026-04-19T10:05:39.945Z</time></trkpt><trkpt lat="41.1782263" lon="14.9663803"><ele>227.0</ele><time>2026-04-19T10:05:40.952Z</time></trkpt><trkpt lat="41.1782381" lon="14.9664798"><ele>226.0</ele><time>2026-04-19T10:05:41.976Z</time></trkpt><trkpt lat="41.1782677" lon="14.9665579"><ele>225.0</ele><time>2026-04-19T10:05:42.95Z</time></trkpt><trkpt lat="41.178345" lon="14.9666264"><ele>225.5</ele><time>2026-04-19T10:05:43.947Z</time></trkpt><trkpt lat="41.1784151" lon="14.9666991"><ele>226.0</ele><time>2026-04-19T10:05:44.946Z</time></trkpt><trkpt lat="41.1784754" lon="14.9667694"><ele>226.5</ele><time>2026-04-19T10:05:45.948Z</time></trkpt><trkpt lat="41.1785331" lon="14.9668407"><ele>227.0</ele><time>2026-04-19T10:05:46.945Z</time></trkpt><trkpt lat="41.1785937" lon="14.9669167"><ele>227.5</ele><time>2026-04-19T10:05:48.029Z</time></trkpt><trkpt lat="41.1786508" lon="14.9669884"><ele>228.0</ele><time>2026-04-19T10:05:48.959Z</time></trkpt><trkpt lat="41.1786989" lon="14.9670827"><ele>228.0</ele><time>2026-04-19T10:05:49.963Z</time></trkpt><trkpt lat="41.1787595" lon="14.9671727"><ele>228.0</ele><time>2026-04-19T10:05:50.964Z</time></trkpt><trkpt lat="41.1788623" lon="14.9672248"><ele>228.0</ele><time>2026-04-19T10:05:51.967Z</time></trkpt><trkpt lat="41.1789633" lon="14.9672565"><ele>228.0</ele><time>2026-04-19T10:05:52.962Z</time></trkpt><trkpt lat="41.1790677" lon="14.9672935"><ele>228.0</ele><time>2026-04-19T10:05:54.962Z</time></trkpt><trkpt lat="41.1791652" lon="14.9672883"><ele>225.85714285714283</ele><time>2026-04-19T10:05:56.969Z</time></trkpt><trkpt lat="41.1791929" lon="14.9671928"><ele>223.7142857142857</ele><time>2026-04-19T10:05:59.97Z</time></trkpt><trkpt lat="41.179207" lon="14.9671077"><ele>221.57142857142856</ele><time>2026-04-19T10:06:01.035Z</time></trkpt><trkpt lat="41.179233" lon="14.9670303"><ele>219.42857142857142</ele><time>2026-04-19T10:06:02.03Z</time></trkpt><trkpt lat="41.1792581" lon="14.9669457"><ele>217.28571428571428</ele><time>2026-04-19T10:06:03.028Z</time></trkpt><trkpt lat="41.1793226" lon="14.9668706"><ele>215.1428571428571</ele><time>2026-04-19T10:06:04.959Z</time></trkpt><trkpt lat="41.1793807" lon="14.9669223"><ele>213.0</ele><time>2026-04-19T10:06:06.958Z</time></trkpt><trkpt lat="41.1794442" lon="14.96697"><ele>213.0</ele><time>2026-04-19T10:06:09.025Z</time></trkpt><trkpt lat="41.1794922" lon="14.9671286"><ele>213.0</ele><time>2026-04-19T10:06:10.961Z</time></trkpt><trkpt lat="41.1795187" lon="14.9672341"><ele>213.0</ele><time>2026-04-19T10:06:11.954Z</time></trkpt><trkpt lat="41.1795491" lon="14.9673529"><ele>213.0</ele><time>2026-04-19T10:06:12.96Z</time></trkpt><trkpt lat="41.1795792" lon="14.9674791"><ele>213.0</ele><time>2026-04-19T10:06:13.956Z</time></trkpt><trkpt lat="41.1796065" lon="14.9676071"><ele>215.8</ele><time>2026-04-19T10:06:14.952Z</time></trkpt><trkpt lat="41.1796372" lon="14.9677377"><ele>218.60000000000002</ele><time>2026-04-19T10:06:15.959Z</time></trkpt><trkpt lat="41.179669" lon="14.9678686"><ele>221.39999999999998</ele><time>2026-04-19T10:06:17.084Z</time></trkpt><trkpt lat="41.1797012" lon="14.9679949"><ele>224.2</ele><time>2026-04-19T10:06:18.027Z</time></trkpt><trkpt lat="41.1797326" lon="14.9681107"><ele>227.0</ele><time>2026-04-19T10:06:19.028Z</time></trkpt><trkpt lat="41.179756" lon="14.9682177"><ele>227.00000000000003</ele><time>2026-04-19T10:06:19.953Z</time></trkpt><trkpt lat="41.1797722" lon="14.9683219"><ele>227.0</ele><time>2026-04-19T10:06:20.958Z</time></trkpt><trkpt lat="41.1797855" lon="14.9684173"><ele>227.0</ele><time>2026-04-19T10:06:21.952Z</time></trkpt><trkpt lat="41.1797982" lon="14.9685147"><ele>227.0</ele><time>2026-04-19T10:06:22.951Z</time></trkpt><trkpt lat="41.1798136" lon="14.968633"><ele>227.00000000000003</ele><time>2026-04-19T10:06:23.956Z</time></trkpt><trkpt lat="41.179827" lon="14.9687627"><ele>227.0</ele><time>2026-04-19T10:06:24.953Z</time></trkpt><trkpt lat="41.1798333" lon="14.9689149"><ele>229.75</ele><time>2026-04-19T10:06:25.954Z</time></trkpt><trkpt lat="41.179842" lon="14.9690655"><ele>232.5</ele><time>2026-04-19T10:06:27.053Z</time></trkpt><trkpt lat="41.1798513" lon="14.9692234"><ele>235.25</ele><time>2026-04-19T10:06:28.027Z</time></trkpt><trkpt lat="41.1798605" lon="14.9693839"><ele>238.0</ele><time>2026-04-19T10:06:29.031Z</time></trkpt><trkpt lat="41.179871" lon="14.9695316"><ele>230.5</ele><time>2026-04-19T10:06:29.96Z</time></trkpt><trkpt lat="41.1798947" lon="14.9696699"><ele>223.0</ele><time>2026-04-19T10:06:30.962Z</time></trkpt><trkpt lat="41.1799292" lon="14.9698178"><ele>215.5</ele><time>2026-04-19T10:06:31.988Z</time></trkpt><trkpt lat="41.1799748" lon="14.9699644"><ele>208.0</ele><time>2026-04-19T10:06:32.962Z</time></trkpt><trkpt lat="41.1800237" lon="14.9701073"><ele>207.75</ele><time>2026-04-19T10:06:34.03Z</time></trkpt><trkpt lat="41.1800745" lon="14.9702604"><ele>207.5</ele><time>2026-04-19T10:06:34.954Z</time></trkpt><trkpt lat="41.1801363" lon="14.9704198"><ele>207.25</ele><time>2026-04-19T10:06:35.951Z</time></trkpt><trkpt lat="41.1801983" lon="14.9705682"><ele>207.0</ele><time>2026-04-19T10:06:37.023Z</time></trkpt><trkpt lat="41.1802617" lon="14.9707039"><ele>207.0</ele><time>2026-04-19T10:06:38.028Z</time></trkpt><trkpt lat="41.1803388" lon="14.9708384"><ele>207.0</ele><time>2026-04-19T10:06:39.032Z</time></trkpt><trkpt lat="41.1804106" lon="14.970967"><ele>207.0</ele><time>2026-04-19T10:06:39.951Z</time></trkpt><trkpt lat="41.1804807" lon="14.9710865"><ele>207.0</ele><time>2026-04-19T10:06:40.949Z</time></trkpt><trkpt lat="41.1805465" lon="14.9712182"><ele>207.25</ele><time>2026-04-19T10:06:41.976Z</time></trkpt><trkpt lat="41.1806085" lon="14.9713758"><ele>207.5</ele><time>2026-04-19T10:06:43.025Z</time></trkpt><trkpt lat="41.1806637" lon="14.9715392"><ele>207.75</ele><time>2026-04-19T10:06:44.033Z</time></trkpt><trkpt lat="41.1807201" lon="14.9717005"><ele>208.0</ele><time>2026-04-19T10:06:44.948Z</time></trkpt><trkpt lat="41.1807756" lon="14.9718678"><ele>207.5</ele><time>2026-04-19T10:06:45.946Z</time></trkpt><trkpt lat="41.1808261" lon="14.9720247"><ele>207.0</ele><time>2026-04-19T10:06:46.959Z</time></trkpt><trkpt lat="41.1808709" lon="14.9721805"><ele>206.5</ele><time>2026-04-19T10:06:48.032Z</time></trkpt><trkpt lat="41.18091" lon="14.9723423"><ele>206.0</ele><time>2026-04-19T10:06:49.034Z</time></trkpt><trkpt lat="41.1809457" lon="14.9725212"><ele>205.75</ele><time>2026-04-19T10:06:49.952Z</time></trkpt><trkpt lat="41.1809727" lon="14.9727056"><ele>205.5</ele><time>2026-04-19T10:06:50.947Z</time></trkpt><trkpt lat="41.1809944" lon="14.9728773"><ele>205.25</ele><time>2026-04-19T10:06:51.949Z</time></trkpt><trkpt lat="41.1810211" lon="14.9730312"><ele>205.0</ele><time>2026-04-19T10:06:52.956Z</time></trkpt><trkpt lat="41.1810558" lon="14.9731682"><ele>205.0</ele><time>2026-04-19T10:06:53.95Z</time></trkpt><trkpt lat="41.181105" lon="14.9732854"><ele>205.0</ele><time>2026-04-19T10:06:54.947Z</time></trkpt><trkpt lat="41.1811722" lon="14.9733936"><ele>205.0</ele><time>2026-04-19T10:06:55.949Z</time></trkpt><trkpt lat="41.1812543" lon="14.9735019"><ele>205.0</ele><time>2026-04-19T10:06:56.952Z</time></trkpt><trkpt lat="41.1813563" lon="14.9735948"><ele>205.0</ele><time>2026-04-19T10:06:58.028Z</time></trkpt><trkpt lat="41.1814623" lon="14.9736857"><ele>205.5</ele><time>2026-04-19T10:06:59.029Z</time></trkpt><trkpt lat="41.1815647" lon="14.9737805"><ele>206.0</ele><time>2026-04-19T10:06:59.96Z</time></trkpt><trkpt lat="41.1816656" lon="14.9738735"><ele>206.5</ele><time>2026-04-19T10:07:00.957Z</time></trkpt><trkpt lat="41.181766" lon="14.9739607"><ele>207.0</ele><time>2026-04-19T10:07:01.954Z</time></trkpt><trkpt lat="41.1818719" lon="14.9740586"><ele>207.0</ele><time>2026-04-19T10:07:02.96Z</time></trkpt><trkpt lat="41.1819766" lon="14.9741604"><ele>207.0</ele><time>2026-04-19T10:07:03.956Z</time></trkpt><trkpt lat="41.1820795" lon="14.9742667"><ele>207.0</ele><time>2026-04-19T10:07:04.959Z</time></trkpt><trkpt lat="41.1821781" lon="14.9743648"><ele>207.0</ele><time>2026-04-19T10:07:06.036Z</time></trkpt><trkpt lat="41.1822742" lon="14.9744618"><ele>207.25</ele><time>2026-04-19T10:07:06.949Z</time></trkpt><trkpt lat="41.1823741" lon="14.9745679"><ele>207.5</ele><time>2026-04-19T10:07:08.017Z</time></trkpt><trkpt lat="41.1824716" lon="14.9746776"><ele>207.75</ele><time>2026-04-19T10:07:08.948Z</time></trkpt><trkpt lat="41.1825772" lon="14.9747721"><ele>208.0</ele><time>2026-04-19T10:07:09.948Z</time></trkpt><trkpt lat="41.1826792" lon="14.9748597"><ele>208.0</ele><time>2026-04-19T10:07:10.947Z</time></trkpt><trkpt lat="41.1827783" lon="14.9749399"><ele>208.0</ele><time>2026-04-19T10:07:11.951Z</time></trkpt><trkpt lat="41.182878" lon="14.9750297"><ele>208.0</ele><time>2026-04-19T10:07:12.953Z</time></trkpt><trkpt lat="41.1829823" lon="14.9751185"><ele>208.0</ele><time>2026-04-19T10:07:13.948Z</time></trkpt><trkpt lat="41.183089" lon="14.9752031"><ele>208.0</ele><time>2026-04-19T10:07:14.944Z</time></trkpt><trkpt lat="41.1831984" lon="14.9752809"><ele>208.0</ele><time>2026-04-19T10:07:15.954Z</time></trkpt><trkpt lat="41.1833074" lon="14.9753583"><ele>208.0</ele><time>2026-04-19T10:07:17.033Z</time></trkpt><trkpt lat="41.1834129" lon="14.9754343"><ele>208.0</ele><time>2026-04-19T10:07:17.979Z</time></trkpt><trkpt lat="41.1835215" lon="14.9755074"><ele>208.0</ele><time>2026-04-19T10:07:19.032Z</time></trkpt><trkpt lat="41.1836307" lon="14.9755797"><ele>208.0</ele><time>2026-04-19T10:07:19.948Z</time></trkpt><trkpt lat="41.1837523" lon="14.9756495"><ele>208.0</ele><time>2026-04-19T10:07:20.95Z</time></trkpt><trkpt lat="41.1838769" lon="14.9757279"><ele>208.0</ele><time>2026-04-19T10:07:21.969Z</time></trkpt><trkpt lat="41.1839944" lon="14.9757975"><ele>208.0</ele><time>2026-04-19T10:07:22.944Z</time></trkpt><trkpt lat="41.1841171" lon="14.9758764"><ele>208.0</ele><time>2026-04-19T10:07:24.013Z</time></trkpt><trkpt lat="41.18424" lon="14.9759679"><ele>208.0</ele><time>2026-04-19T10:07:24.941Z</time></trkpt><trkpt lat="41.1843553" lon="14.9760601"><ele>208.0</ele><time>2026-04-19T10:07:25.948Z</time></trkpt><trkpt lat="41.1844692" lon="14.9761709"><ele>208.0</ele><time>2026-04-19T10:07:27.057Z</time></trkpt><trkpt lat="41.1845733" lon="14.9762958"><ele>208.0</ele><time>2026-04-19T10:07:28.013Z</time></trkpt><trkpt lat="41.1846738" lon="14.9764223"><ele>208.0</ele><time>2026-04-19T10:07:28.945Z</time></trkpt><trkpt lat="41.1847772" lon="14.9765511"><ele>208.0</ele><time>2026-04-19T10:07:29.949Z</time></trkpt><trkpt lat="41.1848811" lon="14.9766711"><ele>208.25</ele><time>2026-04-19T10:07:30.945Z</time></trkpt><trkpt lat="41.1849828" lon="14.9767973"><ele>208.5</ele><time>2026-04-19T10:07:32.026Z</time></trkpt><trkpt lat="41.1850919" lon="14.976923"><ele>208.75</ele><time>2026-04-19T10:07:33.028Z</time></trkpt><trkpt lat="41.1851983" lon="14.9770397"><ele>209.0</ele><time>2026-04-19T10:07:34.031Z</time></trkpt><trkpt lat="41.185298" lon="14.9771346"><ele>209.0</ele><time>2026-04-19T10:07:34.955Z</time></trkpt><trkpt lat="41.1854058" lon="14.9772048"><ele>209.0</ele><time>2026-04-19T10:07:35.954Z</time></trkpt><trkpt lat="41.1855297" lon="14.9772546"><ele>209.0</ele><time>2026-04-19T10:07:37.065Z</time></trkpt><trkpt lat="41.1857868" lon="14.97731"><ele>210.0</ele><time>2026-04-19T10:07:39.019Z</time></trkpt><trkpt lat="41.1859141" lon="14.977313"><ele>211.0</ele><time>2026-04-19T10:07:39.95Z</time></trkpt><trkpt lat="41.1860424" lon="14.9773066"><ele>212.0</ele><time>2026-04-19T10:07:40.952Z</time></trkpt><trkpt lat="41.1861679" lon="14.9772904"><ele>213.0</ele><time>2026-04-19T10:07:41.948Z</time></trkpt><trkpt lat="41.1862916" lon="14.9772789"><ele>213.0</ele><time>2026-04-19T10:07:42.954Z</time></trkpt><trkpt lat="41.1864175" lon="14.9772781"><ele>213.0</ele><time>2026-04-19T10:07:43.95Z</time></trkpt><trkpt lat="41.1865403" lon="14.9772843"><ele>213.0</ele><time>2026-04-19T10:07:44.95Z</time></trkpt><trkpt lat="41.1866606" lon="14.9772977"><ele>213.0</ele><time>2026-04-19T10:07:45.955Z</time></trkpt><trkpt lat="41.1867847" lon="14.9773275"><ele>213.0</ele><time>2026-04-19T10:07:47.031Z</time></trkpt><trkpt lat="41.1869129" lon="14.9773685"><ele>213.0</ele><time>2026-04-19T10:07:48.029Z</time></trkpt><trkpt lat="41.1870337" lon="14.9774076"><ele>213.0</ele><time>2026-04-19T10:07:49.026Z</time></trkpt><trkpt lat="41.1871543" lon="14.9774471"><ele>213.0</ele><time>2026-04-19T10:07:49.946Z</time></trkpt><trkpt lat="41.1872724" lon="14.977476"><ele>213.0</ele><time>2026-04-19T10:07:50.943Z</time></trkpt><trkpt lat="41.1873799" lon="14.977501"><ele>213.0</ele><time>2026-04-19T10:07:51.95Z</time></trkpt><trkpt lat="41.1874782" lon="14.9775157"><ele>213.0</ele><time>2026-04-19T10:07:52.951Z</time></trkpt><trkpt lat="41.1875779" lon="14.9775318"><ele>213.0</ele><time>2026-04-19T10:07:53.946Z</time></trkpt><trkpt lat="41.1876768" lon="14.9775661"><ele>213.0</ele><time>2026-04-19T10:07:54.945Z</time></trkpt><trkpt lat="41.1877828" lon="14.9776326"><ele>213.25</ele><time>2026-04-19T10:07:56.031Z</time></trkpt><trkpt lat="41.1878833" lon="14.977715"><ele>213.5</ele><time>2026-04-19T10:07:57.036Z</time></trkpt><trkpt lat="41.1879846" lon="14.9778162"><ele>213.75</ele><time>2026-04-19T10:07:58.031Z</time></trkpt><trkpt lat="41.1880889" lon="14.977924"><ele>214.0</ele><time>2026-04-19T10:07:59.019Z</time></trkpt><trkpt lat="41.1881953" lon="14.9780266"><ele>214.25</ele><time>2026-04-19T10:07:59.951Z</time></trkpt><trkpt lat="41.1882984" lon="14.9781269"><ele>214.5</ele><time>2026-04-19T10:08:00.952Z</time></trkpt><trkpt lat="41.1884042" lon="14.9782167"><ele>214.75</ele><time>2026-04-19T10:08:01.952Z</time></trkpt><trkpt lat="41.1885119" lon="14.9783054"><ele>215.0</ele><time>2026-04-19T10:08:03.017Z</time></trkpt><trkpt lat="41.1886211" lon="14.9783946"><ele>215.0</ele><time>2026-04-19T10:08:03.946Z</time></trkpt><trkpt lat="41.1887286" lon="14.9784779"><ele>215.0</ele><time>2026-04-19T10:08:04.951Z</time></trkpt><trkpt lat="41.1888415" lon="14.978554"><ele>215.0</ele><time>2026-04-19T10:08:05.95Z</time></trkpt><trkpt lat="41.1889515" lon="14.9786247"><ele>215.0</ele><time>2026-04-19T10:08:07.017Z</time></trkpt><trkpt lat="41.1890499" lon="14.9787009"><ele>215.16666666666669</ele><time>2026-04-19T10:08:07.992Z</time></trkpt><trkpt lat="41.1891139" lon="14.9787522"><ele>215.33333333333334</ele><time>2026-04-19T10:08:08.984Z</time></trkpt><trkpt lat="41.1891798" lon="14.9787676"><ele>215.5</ele><time>2026-04-19T10:08:10.949Z</time></trkpt><trkpt lat="41.1892479" lon="14.9786496"><ele>215.66666666666669</ele><time>2026-04-19T10:08:12.955Z</time></trkpt><trkpt lat="41.1893032" lon="14.978559"><ele>215.83333333333334</ele><time>2026-04-19T10:08:13.95Z</time></trkpt><trkpt lat="41.1893575" lon="14.9784984"><ele>216.0</ele><time>2026-04-19T10:08:14.952Z</time></trkpt><trkpt lat="41.1894468" lon="14.9784655"><ele>216.0</ele><time>2026-04-19T10:08:16.945Z</time></trkpt><trkpt lat="41.1895475" lon="14.9785295"><ele>216.0</ele><time>2026-04-19T10:08:18.944Z</time></trkpt><trkpt lat="41.1896286" lon="14.9786385"><ele>216.0</ele><time>2026-04-19T10:08:20.949Z</time></trkpt><trkpt lat="41.1896709" lon="14.9787015"><ele>216.0</ele><time>2026-04-19T10:08:28.946Z</time></trkpt><trkpt lat="41.1897069" lon="14.9787854"><ele>216.0</ele><time>2026-04-19T10:08:33.946Z</time></trkpt><trkpt lat="41.1897379" lon="14.9788688"><ele>216.0</ele><time>2026-04-19T10:08:37.944Z</time></trkpt><trkpt lat="41.1897764" lon="14.9789404"><ele>216.0</ele><time>2026-04-19T10:08:53.027Z</time></trkpt><trkpt lat="41.1898123" lon="14.9790286"><ele>216.0</ele><time>2026-04-19T10:08:58.956Z</time></trkpt><trkpt lat="41.1898637" lon="14.9791226"><ele>216.0</ele><time>2026-04-19T10:09:02.032Z</time></trkpt><trkpt lat="41.1898915" lon="14.979223"><ele>216.0</ele><time>2026-04-19T10:09:03.953Z</time></trkpt><trkpt lat="41.1899006" lon="14.979306"><ele>216.0</ele><time>2026-04-19T10:09:04.951Z</time></trkpt><trkpt lat="41.1898989" lon="14.9794587"><ele>216.0</ele><time>2026-04-19T10:09:06.947Z</time></trkpt><trkpt lat="41.1898995" lon="14.9796095"><ele>216.20000000000002</ele><time>2026-04-19T10:09:09.033Z</time></trkpt><trkpt lat="41.189921" lon="14.9797724"><ele>216.40000000000003</ele><time>2026-04-19T10:09:10.944Z</time></trkpt><trkpt lat="41.1899516" lon="14.9799259"><ele>216.6</ele><time>2026-04-19T10:09:12.942Z</time></trkpt><trkpt lat="41.1899743" lon="14.980005"><ele>216.8</ele><time>2026-04-19T10:09:13.943Z</time></trkpt><trkpt lat="41.1900003" lon="14.9800995"><ele>217.0</ele><time>2026-04-19T10:09:14.944Z</time></trkpt><trkpt lat="41.1900244" lon="14.9801955"><ele>216.99999999999997</ele><time>2026-04-19T10:09:15.946Z</time></trkpt><trkpt lat="41.1900501" lon="14.9802842"><ele>217.0</ele><time>2026-04-19T10:09:16.942Z</time></trkpt><trkpt lat="41.1900766" lon="14.9803737"><ele>217.0</ele><time>2026-04-19T10:09:18.03Z</time></trkpt><trkpt lat="41.1901077" lon="14.9804513"><ele>217.0</ele><time>2026-04-19T10:09:18.966Z</time></trkpt><trkpt lat="41.1901751" lon="14.9805796"><ele>216.99999999999997</ele><time>2026-04-19T10:09:20.961Z</time></trkpt><trkpt lat="41.1902077" lon="14.9806604"><ele>217.0</ele><time>2026-04-19T10:09:22.031Z</time></trkpt><trkpt lat="41.1902327" lon="14.9807452"><ele>217.0</ele><time>2026-04-19T10:09:23.026Z</time></trkpt><trkpt lat="41.1902748" lon="14.9808793"><ele>217.0</ele><time>2026-04-19T10:09:24.965Z</time></trkpt><trkpt lat="41.1903146" lon="14.9809717"><ele>217.0</ele><time>2026-04-19T10:09:26.963Z</time></trkpt><trkpt lat="41.1903684" lon="14.9810338"><ele>217.0</ele><time>2026-04-19T10:09:28.972Z</time></trkpt><trkpt lat="41.1904193" lon="14.9811309"><ele>217.0</ele><time>2026-04-19T10:09:31.969Z</time></trkpt><trkpt lat="41.1904775" lon="14.9812521"><ele>216.99999999999997</ele><time>2026-04-19T10:09:33.974Z</time></trkpt><trkpt lat="41.1905174" lon="14.9813246"><ele>217.0</ele><time>2026-04-19T10:09:34.97Z</time></trkpt><trkpt lat="41.190568" lon="14.9813795"><ele>217.0</ele><time>2026-04-19T10:09:35.967Z</time></trkpt><trkpt lat="41.1906636" lon="14.9814522"><ele>217.0</ele><time>2026-04-19T10:09:37.981Z</time></trkpt><trkpt lat="41.1907536" lon="14.9815157"><ele>216.99999999999997</ele><time>2026-04-19T10:09:39.969Z</time></trkpt><trkpt lat="41.1908231" lon="14.9815876"><ele>217.0</ele><time>2026-04-19T10:09:41.962Z</time></trkpt><trkpt lat="41.1909066" lon="14.9816739"><ele>216.99999999999997</ele><time>2026-04-19T10:09:44.963Z</time></trkpt><trkpt lat="41.1909577" lon="14.9817277"><ele>217.0</ele><time>2026-04-19T10:09:45.97Z</time></trkpt><trkpt lat="41.1910127" lon="14.9817881"><ele>217.0</ele><time>2026-04-19T10:09:46.965Z</time></trkpt><trkpt lat="41.1910689" lon="14.9818566"><ele>217.0</ele><time>2026-04-19T10:09:47.973Z</time></trkpt><trkpt lat="41.1911293" lon="14.981927"><ele>216.99999999999997</ele><time>2026-04-19T10:09:48.964Z</time></trkpt><trkpt lat="41.1911911" lon="14.9819981"><ele>217.0</ele><time>2026-04-19T10:09:49.967Z</time></trkpt><trkpt lat="41.1912422" lon="14.9820759"><ele>217.0</ele><time>2026-04-19T10:09:50.972Z</time></trkpt><trkpt lat="41.1912815" lon="14.9821639"><ele>217.0</ele><time>2026-04-19T10:09:51.968Z</time></trkpt><trkpt lat="41.1913103" lon="14.9822406"><ele>217.0</ele><time>2026-04-19T10:09:53.028Z</time></trkpt><trkpt lat="41.1913442" lon="14.9823755"><ele>217.0</ele><time>2026-04-19T10:09:54.95Z</time></trkpt><trkpt lat="41.1913232" lon="14.9825356"><ele>217.0</ele><time>2026-04-19T10:09:56.976Z</time></trkpt><trkpt lat="41.19123" lon="14.9826544"><ele>217.16666666666666</ele><time>2026-04-19T10:09:59.022Z</time></trkpt><trkpt lat="41.1911588" lon="14.98271"><ele>217.33333333333331</ele><time>2026-04-19T10:09:59.948Z</time></trkpt><trkpt lat="41.1910853" lon="14.9827696"><ele>217.5</ele><time>2026-04-19T10:10:00.952Z</time></trkpt><trkpt lat="41.1910392" lon="14.9828305"><ele>217.66666666666669</ele><time>2026-04-19T10:10:02.049Z</time></trkpt><trkpt lat="41.1910477" lon="14.9829677"><ele>217.83333333333334</ele><time>2026-04-19T10:10:03.952Z</time></trkpt><trkpt lat="41.1910905" lon="14.9830635"><ele>218.0</ele><time>2026-04-19T10:10:04.956Z</time></trkpt><trkpt lat="41.1911381" lon="14.9831714"><ele>218.00000000000003</ele><time>2026-04-19T10:10:05.95Z</time></trkpt><trkpt lat="41.191184" lon="14.9832819"><ele>218.0</ele><time>2026-04-19T10:10:07.029Z</time></trkpt><trkpt lat="41.1912253" lon="14.9833754"><ele>218.0</ele><time>2026-04-19T10:10:08.028Z</time></trkpt><trkpt lat="41.1912729" lon="14.9834951"><ele>218.0</ele><time>2026-04-19T10:10:09.95Z</time></trkpt><trkpt lat="41.1912894" lon="14.9835831"><ele>218.00000000000003</ele><time>2026-04-19T10:10:12.949Z</time></trkpt><trkpt lat="41.1912983" lon="14.9836776"><ele>218.0</ele><time>2026-04-19T10:10:17.982Z</time></trkpt><trkpt lat="41.1913329" lon="14.9837989"><ele>218.0</ele><time>2026-04-19T10:10:20.953Z</time></trkpt><trkpt lat="41.1913366" lon="14.9838885"><ele>218.0</ele><time>2026-04-19T10:10:22.026Z</time></trkpt><trkpt lat="41.1913367" lon="14.9839787"><ele>218.0</ele><time>2026-04-19T10:10:23.026Z</time></trkpt><trkpt lat="41.1913504" lon="14.9841421"><ele>218.0</ele><time>2026-04-19T10:10:24.945Z</time></trkpt><trkpt lat="41.1913518" lon="14.9842853"><ele>218.0</ele><time>2026-04-19T10:10:26.949Z</time></trkpt><trkpt lat="41.1913551" lon="14.9844211"><ele>218.00000000000003</ele><time>2026-04-19T10:10:28.945Z</time></trkpt><trkpt lat="41.1913692" lon="14.9845872"><ele>218.0</ele><time>2026-04-19T10:10:30.966Z</time></trkpt><trkpt lat="41.1913746" lon="14.9846785"><ele>218.0</ele><time>2026-04-19T10:10:31.97Z</time></trkpt><trkpt lat="41.1913774" lon="14.9847736"><ele>218.0</ele><time>2026-04-19T10:10:32.943Z</time></trkpt><trkpt lat="41.191375" lon="14.9848683"><ele>218.00000000000003</ele><time>2026-04-19T10:10:33.97Z</time></trkpt><trkpt lat="41.1913736" lon="14.9849643"><ele>218.0</ele><time>2026-04-19T10:10:34.95Z</time></trkpt><trkpt lat="41.1913759" lon="14.9850486"><ele>218.42857142857144</ele><time>2026-04-19T10:10:35.947Z</time></trkpt><trkpt lat="41.1913852" lon="14.9851388"><ele>218.85714285714286</ele><time>2026-04-19T10:10:36.946Z</time></trkpt><trkpt lat="41.1913984" lon="14.9852338"><ele>219.28571428571428</ele><time>2026-04-19T10:10:38.028Z</time></trkpt><trkpt lat="41.1914047" lon="14.9853312"><ele>219.71428571428572</ele><time>2026-04-19T10:10:39.03Z</time></trkpt><trkpt lat="41.1914077" lon="14.9854284"><ele>220.14285714285714</ele><time>2026-04-19T10:10:39.947Z</time></trkpt><trkpt lat="41.1914177" lon="14.9855196"><ele>220.57142857142858</ele><time>2026-04-19T10:10:40.949Z</time></trkpt><trkpt lat="41.1914362" lon="14.9856201"><ele>221.0</ele><time>2026-04-19T10:10:41.947Z</time></trkpt><trkpt lat="41.1914546" lon="14.9857363"><ele>221.00000000000003</ele><time>2026-04-19T10:10:43.03Z</time></trkpt><trkpt lat="41.1914738" lon="14.9858569"><ele>221.0</ele><time>2026-04-19T10:10:43.958Z</time></trkpt><trkpt lat="41.1914965" lon="14.9859821"><ele>221.0</ele><time>2026-04-19T10:10:44.961Z</time></trkpt><trkpt lat="41.1915247" lon="14.9860976"><ele>221.0</ele><time>2026-04-19T10:10:46.034Z</time></trkpt><trkpt lat="41.1915574" lon="14.9862032"><ele>221.00000000000003</ele><time>2026-04-19T10:10:47.022Z</time></trkpt><trkpt lat="41.191582" lon="14.986302"><ele>221.0</ele><time>2026-04-19T10:10:48.027Z</time></trkpt><trkpt lat="41.1916121" lon="14.9863872"><ele>221.00000000000003</ele><time>2026-04-19T10:10:49.006Z</time></trkpt><trkpt lat="41.1916474" lon="14.9864653"><ele>221.0</ele><time>2026-04-19T10:10:49.95Z</time></trkpt><trkpt lat="41.1916842" lon="14.9865399"><ele>221.0</ele><time>2026-04-19T10:10:50.944Z</time></trkpt><trkpt lat="41.1917256" lon="14.9866146"><ele>221.0</ele><time>2026-04-19T10:10:51.968Z</time></trkpt><trkpt lat="41.19178" lon="14.9866918"><ele>221.00000000000003</ele><time>2026-04-19T10:10:53.03Z</time></trkpt><trkpt lat="41.1918494" lon="14.9867719"><ele>221.0</ele><time>2026-04-19T10:10:54.027Z</time></trkpt><trkpt lat="41.1919066" lon="14.9868376"><ele>221.16666666666669</ele><time>2026-04-19T10:10:54.946Z</time></trkpt><trkpt lat="41.1919692" lon="14.9869373"><ele>221.33333333333334</ele><time>2026-04-19T10:10:57.029Z</time></trkpt><trkpt lat="41.1920189" lon="14.9870235"><ele>221.5</ele><time>2026-04-19T10:10:58.947Z</time></trkpt><trkpt lat="41.1920636" lon="14.9870965"><ele>221.66666666666669</ele><time>2026-04-19T10:11:03.032Z</time></trkpt><trkpt lat="41.1921132" lon="14.9871556"><ele>221.83333333333334</ele><time>2026-04-19T10:11:05.946Z</time></trkpt><trkpt lat="41.1921557" lon="14.9872875"><ele>222.0</ele><time>2026-04-19T10:11:08.954Z</time></trkpt><trkpt lat="41.1921709" lon="14.9873715"><ele>223.39999999999998</ele><time>2026-04-19T10:11:09.949Z</time></trkpt><trkpt lat="41.1922254" lon="14.9875241"><ele>224.79999999999998</ele><time>2026-04-19T10:11:11.997Z</time></trkpt><trkpt lat="41.1922637" lon="14.987613"><ele>226.2</ele><time>2026-04-19T10:11:12.957Z</time></trkpt><trkpt lat="41.1922928" lon="14.98772"><ele>227.6</ele><time>2026-04-19T10:11:13.948Z</time></trkpt><trkpt lat="41.1923065" lon="14.9878362"><ele>229.0</ele><time>2026-04-19T10:11:14.952Z</time></trkpt><trkpt lat="41.1923238" lon="14.9879473"><ele>228.83333333333331</ele><time>2026-04-19T10:11:15.949Z</time></trkpt><trkpt lat="41.1923534" lon="14.9880432"><ele>228.66666666666666</ele><time>2026-04-19T10:11:16.947Z</time></trkpt><trkpt lat="41.1923811" lon="14.9881343"><ele>228.5</ele><time>2026-04-19T10:11:18.056Z</time></trkpt><trkpt lat="41.1924083" lon="14.9882328"><ele>228.33333333333331</ele><time>2026-04-19T10:11:19.009Z</time></trkpt><trkpt lat="41.1924308" lon="14.9883391"><ele>228.16666666666666</ele><time>2026-04-19T10:11:19.947Z</time></trkpt><trkpt lat="41.1924472" lon="14.9884507"><ele>228.0</ele><time>2026-04-19T10:11:20.954Z</time></trkpt><trkpt lat="41.1924696" lon="14.9885364"><ele>228.0</ele><time>2026-04-19T10:11:21.947Z</time></trkpt><trkpt lat="41.1925422" lon="14.9886959"><ele>228.0</ele><time>2026-04-19T10:11:23.948Z</time></trkpt><trkpt lat="41.1926036" lon="14.9887948"><ele>228.0</ele><time>2026-04-19T10:11:24.95Z</time></trkpt><trkpt lat="41.1926728" lon="14.9888964"><ele>228.0</ele><time>2026-04-19T10:11:25.946Z</time></trkpt><trkpt lat="41.1927574" lon="14.9889942"><ele>228.0</ele><time>2026-04-19T10:11:26.951Z</time></trkpt><trkpt lat="41.1928524" lon="14.9890859"><ele>228.0</ele><time>2026-04-19T10:11:27.949Z</time></trkpt><trkpt lat="41.192946" lon="14.9891717"><ele>228.0</ele><time>2026-04-19T10:11:28.954Z</time></trkpt><trkpt lat="41.1930342" lon="14.989264"><ele>228.0</ele><time>2026-04-19T10:11:29.946Z</time></trkpt><trkpt lat="41.1930956" lon="14.9893522"><ele>228.0</ele><time>2026-04-19T10:11:30.954Z</time></trkpt><trkpt lat="41.1931255" lon="14.9894482"><ele>230.0</ele><time>2026-04-19T10:11:31.953Z</time></trkpt><trkpt lat="41.1931456" lon="14.9895578"><ele>232.0</ele><time>2026-04-19T10:11:32.952Z</time></trkpt><trkpt lat="41.1931512" lon="14.9896774"><ele>234.0</ele><time>2026-04-19T10:11:33.952Z</time></trkpt><trkpt lat="41.1931405" lon="14.9898019"><ele>236.0</ele><time>2026-04-19T10:11:34.956Z</time></trkpt><trkpt lat="41.1931135" lon="14.9899302"><ele>238.0</ele><time>2026-04-19T10:11:35.951Z</time></trkpt><trkpt lat="41.1930905" lon="14.9900412"><ele>236.99999999999997</ele><time>2026-04-19T10:11:36.955Z</time></trkpt><trkpt lat="41.1930839" lon="14.9901539"><ele>236.0</ele><time>2026-04-19T10:11:37.954Z</time></trkpt><trkpt lat="41.1930849" lon="14.990266"><ele>235.0</ele><time>2026-04-19T10:11:39.031Z</time></trkpt><trkpt lat="41.1930964" lon="14.9903772"><ele>234.0</ele><time>2026-04-19T10:11:39.954Z</time></trkpt><trkpt lat="41.1931206" lon="14.9904836"><ele>232.99999999999997</ele><time>2026-04-19T10:11:40.955Z</time></trkpt><trkpt lat="41.1931599" lon="14.9905689"><ele>232.0</ele><time>2026-04-19T10:11:42.051Z</time></trkpt><trkpt lat="41.1932588" lon="14.9906225"><ele>231.99999999999997</ele><time>2026-04-19T10:11:44.035Z</time></trkpt><trkpt lat="41.193344" lon="14.9906773"><ele>232.0</ele><time>2026-04-19T10:11:45.954Z</time></trkpt><trkpt lat="41.1934119" lon="14.990797"><ele>232.0</ele><time>2026-04-19T10:11:47.946Z</time></trkpt><trkpt lat="41.1934618" lon="14.9908626"><ele>232.0</ele><time>2026-04-19T10:11:49.951Z</time></trkpt><trkpt lat="41.1935307" lon="14.9909077"><ele>231.99999999999997</ele><time>2026-04-19T10:11:53.95Z</time></trkpt><trkpt lat="41.1935939" lon="14.9910003"><ele>232.0</ele><time>2026-04-19T10:11:56.956Z</time></trkpt><trkpt lat="41.1936981" lon="14.9911004"><ele>231.16666666666666</ele><time>2026-04-19T10:11:58.948Z</time></trkpt><trkpt lat="41.1937675" lon="14.9911693"><ele>230.33333333333331</ele><time>2026-04-19T10:11:59.982Z</time></trkpt><trkpt lat="41.193824" lon="14.9912414"><ele>229.5</ele><time>2026-04-19T10:12:00.955Z</time></trkpt><trkpt lat="41.1938713" lon="14.9913187"><ele>228.66666666666669</ele><time>2026-04-19T10:12:01.952Z</time></trkpt><trkpt lat="41.1939187" lon="14.9913859"><ele>227.83333333333334</ele><time>2026-04-19T10:12:02.948Z</time></trkpt><trkpt lat="41.193989" lon="14.9914465"><ele>227.0</ele><time>2026-04-19T10:12:04.951Z</time></trkpt><trkpt lat="41.1940582" lon="14.9915237"><ele>227.00000000000003</ele><time>2026-04-19T10:12:06.951Z</time></trkpt><trkpt lat="41.1941563" lon="14.9916056"><ele>227.0</ele><time>2026-04-19T10:12:08.948Z</time></trkpt><trkpt lat="41.1942122" lon="14.9916519"><ele>227.0</ele><time>2026-04-19T10:12:09.95Z</time></trkpt><trkpt lat="41.1942705" lon="14.9917039"><ele>227.0</ele><time>2026-04-19T10:12:11.03Z</time></trkpt><trkpt lat="41.1943321" lon="14.9917585"><ele>227.00000000000003</ele><time>2026-04-19T10:12:12.028Z</time></trkpt><trkpt lat="41.1943819" lon="14.9918174"><ele>227.0</ele><time>2026-04-19T10:12:13.029Z</time></trkpt><trkpt lat="41.1944305" lon="14.9919559"><ele>228.2</ele><time>2026-04-19T10:12:14.951Z</time></trkpt><trkpt lat="41.1944326" lon="14.9920614"><ele>229.39999999999998</ele><time>2026-04-19T10:12:15.95Z</time></trkpt><trkpt lat="41.1944397" lon="14.9921829"><ele>230.60000000000002</ele><time>2026-04-19T10:12:16.95Z</time></trkpt><trkpt lat="41.1944472" lon="14.9923056"><ele>231.8</ele><time>2026-04-19T10:12:18.025Z</time></trkpt><trkpt lat="41.1944698" lon="14.9924265"><ele>233.0</ele><time>2026-04-19T10:12:18.947Z</time></trkpt><trkpt lat="41.1945083" lon="14.9925452"><ele>235.0</ele><time>2026-04-19T10:12:19.953Z</time></trkpt><trkpt lat="41.1945596" lon="14.9926775"><ele>237.0</ele><time>2026-04-19T10:12:20.951Z</time></trkpt><trkpt lat="41.1946096" lon="14.9928201"><ele>239.0</ele><time>2026-04-19T10:12:22.032Z</time></trkpt><trkpt lat="41.1946596" lon="14.992972"><ele>241.0</ele><time>2026-04-19T10:12:23.032Z</time></trkpt><trkpt lat="41.1947118" lon="14.9931229"><ele>241.0</ele><time>2026-04-19T10:12:23.976Z</time></trkpt><trkpt lat="41.1947731" lon="14.993269"><ele>241.0</ele><time>2026-04-19T10:12:24.949Z</time></trkpt><trkpt lat="41.1948427" lon="14.9934166"><ele>241.0</ele><time>2026-04-19T10:12:25.947Z</time></trkpt><trkpt lat="41.19492" lon="14.99356"><ele>241.0</ele><time>2026-04-19T10:12:27.025Z</time></trkpt><trkpt lat="41.1950006" lon="14.9937058"><ele>240.75</ele><time>2026-04-19T10:12:28.029Z</time></trkpt><trkpt lat="41.1950774" lon="14.9938545"><ele>240.5</ele><time>2026-04-19T10:12:28.951Z</time></trkpt><trkpt lat="41.1951499" lon="14.9939969"><ele>240.25</ele><time>2026-04-19T10:12:29.942Z</time></trkpt><trkpt lat="41.1952164" lon="14.9941233"><ele>240.0</ele><time>2026-04-19T10:12:30.947Z</time></trkpt><trkpt lat="41.195274" lon="14.9942337"><ele>240.0</ele><time>2026-04-19T10:12:32.031Z</time></trkpt><trkpt lat="41.1953151" lon="14.9943246"><ele>240.0</ele><time>2026-04-19T10:12:32.952Z</time></trkpt><trkpt lat="41.1953475" lon="14.9943994"><ele>240.0</ele><time>2026-04-19T10:12:34.025Z</time></trkpt><trkpt lat="41.1954041" lon="14.994533"><ele>240.0</ele><time>2026-04-19T10:12:35.95Z</time></trkpt><trkpt lat="41.1954583" lon="14.9946028"><ele>240.0</ele><time>2026-04-19T10:12:36.956Z</time></trkpt><trkpt lat="41.195516" lon="14.9946835"><ele>240.0</ele><time>2026-04-19T10:12:37.948Z</time></trkpt><trkpt lat="41.1955738" lon="14.9947618"><ele>240.0</ele><time>2026-04-19T10:12:38.953Z</time></trkpt><trkpt lat="41.1956322" lon="14.994843"><ele>240.0</ele><time>2026-04-19T10:12:39.955Z</time></trkpt><trkpt lat="41.195694" lon="14.9949322"><ele>240.0</ele><time>2026-04-19T10:12:41.039Z</time></trkpt><trkpt lat="41.1957556" lon="14.9950233"><ele>240.0</ele><time>2026-04-19T10:12:42.028Z</time></trkpt><trkpt lat="41.1958214" lon="14.995116"><ele>240.0</ele><time>2026-04-19T10:12:43.023Z</time></trkpt><trkpt lat="41.1958844" lon="14.9952088"><ele>238.66666666666666</ele><time>2026-04-19T10:12:43.957Z</time></trkpt><trkpt lat="41.1959415" lon="14.9952981"><ele>237.33333333333331</ele><time>2026-04-19T10:12:44.954Z</time></trkpt><trkpt lat="41.1960023" lon="14.9953791"><ele>236.0</ele><time>2026-04-19T10:12:45.958Z</time></trkpt><trkpt lat="41.19606" lon="14.9954486"><ele>234.66666666666666</ele><time>2026-04-19T10:12:46.957Z</time></trkpt><trkpt lat="41.1961218" lon="14.9955226"><ele>233.33333333333331</ele><time>2026-04-19T10:12:47.953Z</time></trkpt><trkpt lat="41.1961876" lon="14.995611"><ele>232.0</ele><time>2026-04-19T10:12:49.021Z</time></trkpt><trkpt lat="41.1962499" lon="14.9957134"><ele>232.0</ele><time>2026-04-19T10:12:49.955Z</time></trkpt><trkpt lat="41.1963066" lon="14.9958267"><ele>232.0</ele><time>2026-04-19T10:12:50.954Z</time></trkpt><trkpt lat="41.1963616" lon="14.9959444"><ele>232.0</ele><time>2026-04-19T10:12:51.956Z</time></trkpt><trkpt lat="41.1964162" lon="14.9960489"><ele>232.0</ele><time>2026-04-19T10:12:52.979Z</time></trkpt><trkpt lat="41.1964757" lon="14.9961541"><ele>232.0</ele><time>2026-04-19T10:12:53.952Z</time></trkpt><trkpt lat="41.1965319" lon="14.9962587"><ele>232.2</ele><time>2026-04-19T10:12:54.958Z</time></trkpt><trkpt lat="41.1965795" lon="14.9963597"><ele>232.39999999999998</ele><time>2026-04-19T10:12:55.955Z</time></trkpt><trkpt lat="41.1966247" lon="14.9964499"><ele>232.60000000000002</ele><time>2026-04-19T10:12:56.957Z</time></trkpt><trkpt lat="41.1966715" lon="14.9965321"><ele>232.8</ele><time>2026-04-19T10:12:58.029Z</time></trkpt><trkpt lat="41.1967456" lon="14.9966194"><ele>233.0</ele><time>2026-04-19T10:12:59.954Z</time></trkpt><trkpt lat="41.1968338" lon="14.9967133"><ele>234.00000000000003</ele><time>2026-04-19T10:13:02.031Z</time></trkpt><trkpt lat="41.1968796" lon="14.9968024"><ele>235.0</ele><time>2026-04-19T10:13:03.018Z</time></trkpt><trkpt lat="41.1969289" lon="14.9969087"><ele>236.0</ele><time>2026-04-19T10:13:04.012Z</time></trkpt><trkpt lat="41.1969689" lon="14.9969932"><ele>237.0</ele><time>2026-04-19T10:13:04.948Z</time></trkpt><trkpt lat="41.1970175" lon="14.9970668"><ele>238.00000000000003</ele><time>2026-04-19T10:13:05.951Z</time></trkpt><trkpt lat="41.1970637" lon="14.9971429"><ele>239.0</ele><time>2026-04-19T10:13:06.946Z</time></trkpt><trkpt lat="41.1971278" lon="14.9972327"><ele>239.0</ele><time>2026-04-19T10:13:08.031Z</time></trkpt><trkpt lat="41.1971969" lon="14.9973244"><ele>238.99999999999997</ele><time>2026-04-19T10:13:09.033Z</time></trkpt><trkpt lat="41.1972733" lon="14.9974184"><ele>238.99999999999997</ele><time>2026-04-19T10:13:09.95Z</time></trkpt><trkpt lat="41.1973539" lon="14.9975113"><ele>239.0</ele><time>2026-04-19T10:13:10.951Z</time></trkpt><trkpt lat="41.1974301" lon="14.9976015"><ele>239.0</ele><time>2026-04-19T10:13:11.951Z</time></trkpt><trkpt lat="41.1975114" lon="14.9976785"><ele>240.79999999999998</ele><time>2026-04-19T10:13:13.03Z</time></trkpt><trkpt lat="41.197595" lon="14.9977588"><ele>242.59999999999997</ele><time>2026-04-19T10:13:14.035Z</time></trkpt><trkpt lat="41.1976798" lon="14.9978374"><ele>244.4</ele><time>2026-04-19T10:13:14.952Z</time></trkpt><trkpt lat="41.197768" lon="14.997917"><ele>246.2</ele><time>2026-04-19T10:13:15.951Z</time></trkpt><trkpt lat="41.1978639" lon="14.9979947"><ele>248.0</ele><time>2026-04-19T10:13:16.98Z</time></trkpt><trkpt lat="41.1979638" lon="14.9980699"><ele>248.0</ele><time>2026-04-19T10:13:18.031Z</time></trkpt><trkpt lat="41.1980731" lon="14.9981408"><ele>248.0</ele><time>2026-04-19T10:13:18.952Z</time></trkpt><trkpt lat="41.198167" lon="14.9982044"><ele>248.0</ele><time>2026-04-19T10:13:19.958Z</time></trkpt><trkpt lat="41.1982629" lon="14.9982464"><ele>248.0</ele><time>2026-04-19T10:13:20.954Z</time></trkpt><trkpt lat="41.1983595" lon="14.9982719"><ele>248.0</ele><time>2026-04-19T10:13:22.019Z</time></trkpt><trkpt lat="41.1984548" lon="14.9982852"><ele>249.2</ele><time>2026-04-19T10:13:22.949Z</time></trkpt><trkpt lat="41.1985363" lon="14.9983077"><ele>250.4</ele><time>2026-04-19T10:13:23.971Z</time></trkpt><trkpt lat="41.1986005" lon="14.9983243"><ele>251.59999999999997</ele><time>2026-04-19T10:13:24.952Z</time></trkpt><trkpt lat="41.1987389" lon="14.9983621"><ele>252.79999999999998</ele><time>2026-04-19T10:13:26.951Z</time></trkpt><trkpt lat="41.1988243" lon="14.9983977"><ele>254.0</ele><time>2026-04-19T10:13:27.951Z</time></trkpt><trkpt lat="41.1989232" lon="14.9984298"><ele>251.66666666666669</ele><time>2026-04-19T10:13:28.944Z</time></trkpt><trkpt lat="41.1990253" lon="14.9984609"><ele>249.33333333333334</ele><time>2026-04-19T10:13:29.957Z</time></trkpt><trkpt lat="41.1991169" lon="14.9985003"><ele>247.0</ele><time>2026-04-19T10:13:30.953Z</time></trkpt><trkpt lat="41.199194" lon="14.9985431"><ele>244.66666666666669</ele><time>2026-04-19T10:13:32.05Z</time></trkpt><trkpt lat="41.1992646" lon="14.9985892"><ele>242.33333333333334</ele><time>2026-04-19T10:13:32.951Z</time></trkpt><trkpt lat="41.1993358" lon="14.9986537"><ele>240.0</ele><time>2026-04-19T10:13:33.954Z</time></trkpt><trkpt lat="41.1994195" lon="14.9987319"><ele>240.0</ele><time>2026-04-19T10:13:34.948Z</time></trkpt><trkpt lat="41.1995008" lon="14.998811"><ele>240.0</ele><time>2026-04-19T10:13:35.955Z</time></trkpt><trkpt lat="41.199584" lon="14.9988711"><ele>240.0</ele><time>2026-04-19T10:13:36.95Z</time></trkpt><trkpt lat="41.1996771" lon="14.9989323"><ele>240.0</ele><time>2026-04-19T10:13:37.954Z</time></trkpt><trkpt lat="41.1997769" lon="14.9989888"><ele>240.0</ele><time>2026-04-19T10:13:39.012Z</time></trkpt><trkpt lat="41.1998798" lon="14.9990386"><ele>238.75</ele><time>2026-04-19T10:13:39.955Z</time></trkpt><trkpt lat="41.1999863" lon="14.9990653"><ele>237.5</ele><time>2026-04-19T10:13:40.96Z</time></trkpt><trkpt lat="41.2001094" lon="14.9990775"><ele>236.25</ele><time>2026-04-19T10:13:41.969Z</time></trkpt><trkpt lat="41.2002225" lon="14.9990883"><ele>235.0</ele><time>2026-04-19T10:13:42.952Z</time></trkpt><trkpt lat="41.2003391" lon="14.9990862"><ele>235.0</ele><time>2026-04-19T10:13:43.955Z</time></trkpt><trkpt lat="41.2004597" lon="14.9990852"><ele>235.0</ele><time>2026-04-19T10:13:44.951Z</time></trkpt><trkpt lat="41.2005749" lon="14.9991061"><ele>235.0</ele><time>2026-04-19T10:13:45.951Z</time></trkpt><trkpt lat="41.2006833" lon="14.9991342"><ele>235.0</ele><time>2026-04-19T10:13:47.04Z</time></trkpt><trkpt lat="41.2007941" lon="14.9991758"><ele>235.25</ele><time>2026-04-19T10:13:48.028Z</time></trkpt><trkpt lat="41.2009063" lon="14.9992151"><ele>235.5</ele><time>2026-04-19T10:13:49.04Z</time></trkpt><trkpt lat="41.2010221" lon="14.9992566"><ele>235.75</ele><time>2026-04-19T10:13:49.951Z</time></trkpt><trkpt lat="41.2011404" lon="14.9992923"><ele>236.0</ele><time>2026-04-19T10:13:50.965Z</time></trkpt><trkpt lat="41.2012512" lon="14.9993355"><ele>236.0</ele><time>2026-04-19T10:13:52.034Z</time></trkpt><trkpt lat="41.2013557" lon="14.9993851"><ele>236.00000000000003</ele><time>2026-04-19T10:13:53.029Z</time></trkpt><trkpt lat="41.2014589" lon="14.9994469"><ele>236.00000000000003</ele><time>2026-04-19T10:13:54.01Z</time></trkpt><trkpt lat="41.2015555" lon="14.9995031"><ele>236.0</ele><time>2026-04-19T10:13:54.941Z</time></trkpt><trkpt lat="41.2016414" lon="14.9995478"><ele>236.0</ele><time>2026-04-19T10:13:55.941Z</time></trkpt><trkpt lat="41.2017267" lon="14.9996074"><ele>236.20000000000002</ele><time>2026-04-19T10:13:57.039Z</time></trkpt><trkpt lat="41.201821" lon="14.9996902"><ele>236.40000000000003</ele><time>2026-04-19T10:13:57.945Z</time></trkpt><trkpt lat="41.2019151" lon="14.9997697"><ele>236.6</ele><time>2026-04-19T10:13:58.946Z</time></trkpt><trkpt lat="41.202009" lon="14.9998427"><ele>236.8</ele><time>2026-04-19T10:13:59.95Z</time></trkpt><trkpt lat="41.2021026" lon="14.9999174"><ele>237.0</ele><time>2026-04-19T10:14:00.945Z</time></trkpt><trkpt lat="41.2022012" lon="14.9999949"><ele>237.0</ele><time>2026-04-19T10:14:01.94Z</time></trkpt><trkpt lat="41.2022996" lon="15.0000617"><ele>237.0</ele><time>2026-04-19T10:14:02.948Z</time></trkpt><trkpt lat="41.2024079" lon="15.0001253"><ele>237.0</ele><time>2026-04-19T10:14:04.027Z</time></trkpt><trkpt lat="41.202513" lon="15.0001886"><ele>237.0</ele><time>2026-04-19T10:14:04.954Z</time></trkpt><trkpt lat="41.2026182" lon="15.000253"><ele>236.8</ele><time>2026-04-19T10:14:05.953Z</time></trkpt><trkpt lat="41.2027156" lon="15.0002994"><ele>236.6</ele><time>2026-04-19T10:14:07.051Z</time></trkpt><trkpt lat="41.2028173" lon="15.0003261"><ele>236.40000000000003</ele><time>2026-04-19T10:14:08.026Z</time></trkpt><trkpt lat="41.2029242" lon="15.0003485"><ele>236.20000000000002</ele><time>2026-04-19T10:14:09.034Z</time></trkpt><trkpt lat="41.2030153" lon="15.0003778"><ele>236.0</ele><time>2026-04-19T10:14:09.954Z</time></trkpt><trkpt lat="41.2030879" lon="15.0004415"><ele>236.00000000000003</ele><time>2026-04-19T10:14:10.957Z</time></trkpt><trkpt lat="41.2031498" lon="15.0005322"><ele>236.0</ele><time>2026-04-19T10:14:11.991Z</time></trkpt><trkpt lat="41.2032072" lon="15.0006327"><ele>236.0</ele><time>2026-04-19T10:14:13.033Z</time></trkpt><trkpt lat="41.2032657" lon="15.000728"><ele>236.0</ele><time>2026-04-19T10:14:14.03Z</time></trkpt><trkpt lat="41.2033113" lon="15.0008223"><ele>236.00000000000003</ele><time>2026-04-19T10:14:14.963Z</time></trkpt><trkpt lat="41.2033514" lon="15.0008875"><ele>236.0</ele><time>2026-04-19T10:14:15.948Z</time></trkpt><trkpt lat="41.2034216" lon="15.0010232"><ele>236.66666666666669</ele><time>2026-04-19T10:14:17.95Z</time></trkpt><trkpt lat="41.2034566" lon="15.001101"><ele>237.33333333333334</ele><time>2026-04-19T10:14:18.951Z</time></trkpt><trkpt lat="41.2035098" lon="15.0011919"><ele>238.0</ele><time>2026-04-19T10:14:20.948Z</time></trkpt><trkpt lat="41.2035512" lon="15.001257"><ele>238.66666666666669</ele><time>2026-04-19T10:14:22.949Z</time></trkpt><trkpt lat="41.2036033" lon="15.0013207"><ele>239.33333333333334</ele><time>2026-04-19T10:14:25.945Z</time></trkpt><trkpt lat="41.2036701" lon="15.001413"><ele>240.0</ele><time>2026-04-19T10:14:27.947Z</time></trkpt><trkpt lat="41.2037284" lon="15.0014728"><ele>240.0</ele><time>2026-04-19T10:14:28.949Z</time></trkpt><trkpt lat="41.2037892" lon="15.0015177"><ele>240.0</ele><time>2026-04-19T10:14:29.946Z</time></trkpt><trkpt lat="41.2038508" lon="15.0015547"><ele>240.0</ele><time>2026-04-19T10:14:30.949Z</time></trkpt><trkpt lat="41.2039259" lon="15.0015986"><ele>240.0</ele><time>2026-04-19T10:14:31.945Z</time></trkpt><trkpt lat="41.2040025" lon="15.0016536"><ele>240.0</ele><time>2026-04-19T10:14:33.032Z</time></trkpt><trkpt lat="41.2040868" lon="15.0017089"><ele>240.0</ele><time>2026-04-19T10:14:34.028Z</time></trkpt><trkpt lat="41.2041745" lon="15.0017731"><ele>240.2</ele><time>2026-04-19T10:14:34.944Z</time></trkpt><trkpt lat="41.204263" lon="15.0018357"><ele>240.4</ele><time>2026-04-19T10:14:35.949Z</time></trkpt><trkpt lat="41.2043292" lon="15.0018891"><ele>240.60000000000002</ele><time>2026-04-19T10:14:36.955Z</time></trkpt><trkpt lat="41.2043074" lon="15.0020028"><ele>240.8</ele><time>2026-04-19T10:14:39.951Z</time></trkpt><trkpt lat="41.2042068" lon="15.002108"><ele>241.0</ele><time>2026-04-19T10:14:41.947Z</time></trkpt><trkpt lat="41.204145" lon="15.0021616"><ele>241.0</ele><time>2026-04-19T10:14:43.014Z</time></trkpt><trkpt lat="41.2040746" lon="15.0022194"><ele>241.00000000000003</ele><time>2026-04-19T10:14:43.952Z</time></trkpt><trkpt lat="41.2039947" lon="15.0022969"><ele>241.00000000000003</ele><time>2026-04-19T10:14:44.947Z</time></trkpt><trkpt lat="41.2039109" lon="15.0023747"><ele>241.0</ele><time>2026-04-19T10:14:45.943Z</time></trkpt><trkpt lat="41.2038402" lon="15.0024407"><ele>241.0</ele><time>2026-04-19T10:14:46.947Z</time></trkpt><trkpt lat="41.2037634" lon="15.0025003"><ele>243.83333333333331</ele><time>2026-04-19T10:14:47.947Z</time></trkpt><trkpt lat="41.203686" lon="15.0025484"><ele>246.66666666666666</ele><time>2026-04-19T10:14:48.942Z</time></trkpt><trkpt lat="41.2036109" lon="15.0026051"><ele>249.5</ele><time>2026-04-19T10:14:49.967Z</time></trkpt><trkpt lat="41.2035372" lon="15.002682"><ele>252.33333333333331</ele><time>2026-04-19T10:14:50.939Z</time></trkpt><trkpt lat="41.2034669" lon="15.0027589"><ele>255.16666666666666</ele><time>2026-04-19T10:14:51.956Z</time></trkpt><trkpt lat="41.2033991" lon="15.0028371"><ele>258.0</ele><time>2026-04-19T10:14:52.942Z</time></trkpt><trkpt lat="41.2033372" lon="15.0029204"><ele>258.0</ele><time>2026-04-19T10:14:53.946Z</time></trkpt><trkpt lat="41.2032793" lon="15.0030061"><ele>258.0</ele><time>2026-04-19T10:14:54.945Z</time></trkpt><trkpt lat="41.2032266" lon="15.0030826"><ele>258.0</ele><time>2026-04-19T10:14:55.943Z</time></trkpt><trkpt lat="41.2031675" lon="15.0031629"><ele>258.0</ele><time>2026-04-19T10:14:56.948Z</time></trkpt><trkpt lat="41.2031046" lon="15.0032427"><ele>258.0</ele><time>2026-04-19T10:14:57.943Z</time></trkpt><trkpt lat="41.2030385" lon="15.0033162"><ele>258.0</ele><time>2026-04-19T10:14:59.026Z</time></trkpt><trkpt lat="41.2029759" lon="15.0034001"><ele>260.4</ele><time>2026-04-19T10:14:59.954Z</time></trkpt><trkpt lat="41.2029108" lon="15.0035055"><ele>262.8</ele><time>2026-04-19T10:15:00.951Z</time></trkpt><trkpt lat="41.2028495" lon="15.0036044"><ele>265.2</ele><time>2026-04-19T10:15:01.947Z</time></trkpt><trkpt lat="41.2027822" lon="15.0036901"><ele>267.6</ele><time>2026-04-19T10:15:03.03Z</time></trkpt><trkpt lat="41.2027119" lon="15.0037703"><ele>270.0</ele><time>2026-04-19T10:15:04.03Z</time></trkpt><trkpt lat="41.202646" lon="15.0038587"><ele>270.0</ele><time>2026-04-19T10:15:04.945Z</time></trkpt><trkpt lat="41.2025874" lon="15.0039412"><ele>270.0</ele><time>2026-04-19T10:15:05.943Z</time></trkpt><trkpt lat="41.2025406" lon="15.0040261"><ele>270.0</ele><time>2026-04-19T10:15:06.951Z</time></trkpt><trkpt lat="41.2025065" lon="15.004102"><ele>270.0</ele><time>2026-04-19T10:15:08.029Z</time></trkpt><trkpt lat="41.2025013" lon="15.0042586"><ele>270.0</ele><time>2026-04-19T10:15:09.94Z</time></trkpt><trkpt lat="41.2025455" lon="15.0043262"><ele>270.0</ele><time>2026-04-19T10:15:10.944Z</time></trkpt><trkpt lat="41.2026029" lon="15.0044155"><ele>272.85714285714283</ele><time>2026-04-19T10:15:13.027Z</time></trkpt><trkpt lat="41.2025486" lon="15.0045414"><ele>275.71428571428567</ele><time>2026-04-19T10:15:14.937Z</time></trkpt><trkpt lat="41.202511" lon="15.0046222"><ele>278.57142857142856</ele><time>2026-04-19T10:15:15.938Z</time></trkpt><trkpt lat="41.2024807" lon="15.0046961"><ele>281.42857142857144</ele><time>2026-04-19T10:15:17.03Z</time></trkpt><trkpt lat="41.2024628" lon="15.0047849"><ele>284.28571428571433</ele><time>2026-04-19T10:15:18.031Z</time></trkpt><trkpt lat="41.202448" lon="15.0048703"><ele>287.14285714285717</ele><time>2026-04-19T10:15:18.982Z</time></trkpt><trkpt lat="41.2024517" lon="15.0049551"><ele>290.0</ele><time>2026-04-19T10:15:19.947Z</time></trkpt><trkpt lat="41.2024921" lon="15.0050564"><ele>292.0</ele><time>2026-04-19T10:15:21.947Z</time></trkpt><trkpt lat="41.2024398" lon="15.0051839"><ele>294.0</ele><time>2026-04-19T10:15:23.95Z</time></trkpt><trkpt lat="41.2023932" lon="15.0052604"><ele>296.0</ele><time>2026-04-19T10:15:24.945Z</time></trkpt><trkpt lat="41.2023455" lon="15.0053497"><ele>298.0</ele><time>2026-04-19T10:15:26.035Z</time></trkpt><trkpt lat="41.2022931" lon="15.0054325"><ele>300.0</ele><time>2026-04-19T10:15:27.027Z</time></trkpt><trkpt lat="41.2022345" lon="15.005478"><ele>302.0</ele><time>2026-04-19T10:15:28.018Z</time></trkpt><trkpt lat="41.2021613" lon="15.0055053"><ele>302.0</ele><time>2026-04-19T10:15:28.947Z</time></trkpt><trkpt lat="41.2020725" lon="15.0055218"><ele>302.0</ele><time>2026-04-19T10:15:29.946Z</time></trkpt><trkpt lat="41.201978" lon="15.0055075"><ele>302.0</ele><time>2026-04-19T10:15:30.946Z</time></trkpt><trkpt lat="41.2019001" lon="15.0054653"><ele>302.0</ele><time>2026-04-19T10:15:31.948Z</time></trkpt><trkpt lat="41.2018391" lon="15.0054221"><ele>302.0</ele><time>2026-04-19T10:15:32.956Z</time></trkpt><trkpt lat="41.2017251" lon="15.0054136"><ele>302.0</ele><time>2026-04-19T10:15:34.948Z</time></trkpt><trkpt lat="41.2016478" lon="15.0054316"><ele>302.0</ele><time>2026-04-19T10:15:35.942Z</time></trkpt><trkpt lat="41.2015662" lon="15.0054452"><ele>302.0</ele><time>2026-04-19T10:15:37.055Z</time></trkpt><trkpt lat="41.2014853" lon="15.005466"><ele>302.0</ele><time>2026-04-19T10:15:38.027Z</time></trkpt><trkpt lat="41.2013666" lon="15.0055576"><ele>302.0</ele><time>2026-04-19T10:15:39.948Z</time></trkpt><trkpt lat="41.201303" lon="15.0055964"><ele>303.0</ele><time>2026-04-19T10:15:40.987Z</time></trkpt><trkpt lat="41.2012243" lon="15.0056115"><ele>304.0</ele><time>2026-04-19T10:15:42.029Z</time></trkpt><trkpt lat="41.2011455" lon="15.0056013"><ele>305.0</ele><time>2026-04-19T10:15:43.017Z</time></trkpt><trkpt lat="41.2010687" lon="15.0055545"><ele>306.0</ele><time>2026-04-19T10:15:44.027Z</time></trkpt><trkpt lat="41.2009983" lon="15.0055038"><ele>307.0</ele><time>2026-04-19T10:15:44.952Z</time></trkpt><trkpt lat="41.2009334" lon="15.0054786"><ele>308.0</ele><time>2026-04-19T10:15:45.943Z</time></trkpt><trkpt lat="41.2008504" lon="15.0054806"><ele>308.0</ele><time>2026-04-19T10:15:47.044Z</time></trkpt><trkpt lat="41.2007647" lon="15.0054797"><ele>308.0</ele><time>2026-04-19T10:15:47.953Z</time></trkpt><trkpt lat="41.2006798" lon="15.0054582"><ele>308.0</ele><time>2026-04-19T10:15:49.027Z</time></trkpt><trkpt lat="41.2006111" lon="15.0054155"><ele>308.0</ele><time>2026-04-19T10:15:49.948Z</time></trkpt><trkpt lat="41.200537" lon="15.0053743"><ele>308.0</ele><time>2026-04-19T10:15:50.948Z</time></trkpt><trkpt lat="41.2004559" lon="15.0053929"><ele>308.0</ele><time>2026-04-19T10:15:53.028Z</time></trkpt><trkpt lat="41.2003714" lon="15.0055244"><ele>311.0</ele><time>2026-04-19T10:15:54.947Z</time></trkpt><trkpt lat="41.2003194" lon="15.0056086"><ele>314.0</ele><time>2026-04-19T10:15:55.941Z</time></trkpt><trkpt lat="41.2002597" lon="15.0056664"><ele>317.0</ele><time>2026-04-19T10:15:56.941Z</time></trkpt><trkpt lat="41.20015" lon="15.005658"><ele>320.0</ele><time>2026-04-19T10:15:59.029Z</time></trkpt><trkpt lat="41.2000511" lon="15.0056284"><ele>323.0</ele><time>2026-04-19T10:16:00.96Z</time></trkpt><trkpt lat="41.1999695" lon="15.0056553"><ele>323.0</ele><time>2026-04-19T10:16:02.959Z</time></trkpt><trkpt lat="41.199848" lon="15.0056908"><ele>323.0</ele><time>2026-04-19T10:16:04.958Z</time></trkpt><trkpt lat="41.19976" lon="15.0057142"><ele>323.0</ele><time>2026-04-19T10:16:05.957Z</time></trkpt><trkpt lat="41.1996703" lon="15.0057434"><ele>323.0</ele><time>2026-04-19T10:16:06.972Z</time></trkpt><trkpt lat="41.1995944" lon="15.0057929"><ele>323.0</ele><time>2026-04-19T10:16:07.961Z</time></trkpt><trkpt lat="41.199516" lon="15.0058389"><ele>327.79999999999995</ele><time>2026-04-19T10:16:08.957Z</time></trkpt><trkpt lat="41.1994348" lon="15.0059022"><ele>332.6</ele><time>2026-04-19T10:16:10.958Z</time></trkpt><trkpt lat="41.1995183" lon="15.0059632"><ele>337.4</ele><time>2026-04-19T10:16:14.953Z</time></trkpt><trkpt lat="41.1995704" lon="15.0060739"><ele>342.20000000000005</ele><time>2026-04-19T10:16:16.956Z</time></trkpt><trkpt lat="41.1996606" lon="15.0062087"><ele>347.0</ele><time>2026-04-19T10:16:18.956Z</time></trkpt><trkpt lat="41.1997041" lon="15.0063715"><ele>347.0</ele><time>2026-04-19T10:16:20.96Z</time></trkpt><trkpt lat="41.1997016" lon="15.0064968"><ele>347.0</ele><time>2026-04-19T10:16:22.958Z</time></trkpt><trkpt lat="41.1996413" lon="15.0065474"><ele>347.0</ele><time>2026-04-19T10:16:24.957Z</time></trkpt><trkpt lat="41.1995535" lon="15.0065401"><ele>347.0</ele><time>2026-04-19T10:16:26.96Z</time></trkpt><trkpt lat="41.1994888" lon="15.0065586"><ele>347.0</ele><time>2026-04-19T10:16:27.956Z</time></trkpt><trkpt lat="41.199399" lon="15.0066148"><ele>347.0</ele><time>2026-04-19T10:16:28.963Z</time></trkpt><trkpt lat="41.1992931" lon="15.0066763"><ele>352.75</ele><time>2026-04-19T10:16:29.962Z</time></trkpt><trkpt lat="41.1991766" lon="15.0067435"><ele>358.5</ele><time>2026-04-19T10:16:30.959Z</time></trkpt><trkpt lat="41.1990596" lon="15.0068314"><ele>364.25</ele><time>2026-04-19T10:16:31.958Z</time></trkpt><trkpt lat="41.1989356" lon="15.0069236"><ele>370.0</ele><time>2026-04-19T10:16:32.962Z</time></trkpt><trkpt lat="41.1988143" lon="15.0070099"><ele>370.0</ele><time>2026-04-19T10:16:33.956Z</time></trkpt><trkpt lat="41.1987166" lon="15.007074"><ele>370.0</ele><time>2026-04-19T10:16:34.963Z</time></trkpt><trkpt lat="41.198645" lon="15.0071351"><ele>370.0</ele><time>2026-04-19T10:16:35.957Z</time></trkpt><trkpt lat="41.1985844" lon="15.0072368"><ele>370.0</ele><time>2026-04-19T10:16:36.959Z</time></trkpt><trkpt lat="41.1985793" lon="15.0073275"><ele>370.0</ele><time>2026-04-19T10:16:37.955Z</time></trkpt><trkpt lat="41.1986732" lon="15.0074426"><ele>370.0</ele><time>2026-04-19T10:16:39.958Z</time></trkpt><trkpt lat="41.1987503" lon="15.0074591"><ele>370.0</ele><time>2026-04-19T10:16:40.96Z</time></trkpt><trkpt lat="41.1988324" lon="15.007479"><ele>370.0</ele><time>2026-04-19T10:16:41.953Z</time></trkpt><trkpt lat="41.1989175" lon="15.0075219"><ele>370.0</ele><time>2026-04-19T10:16:43.031Z</time></trkpt><trkpt lat="41.1990039" lon="15.0075955"><ele>370.0</ele><time>2026-04-19T10:16:44.016Z</time></trkpt><trkpt lat="41.1990863" lon="15.0076924"><ele>378.5</ele><time>2026-04-19T10:16:44.947Z</time></trkpt><trkpt lat="41.1991778" lon="15.0077639"><ele>387.0</ele><time>2026-04-19T10:16:45.939Z</time></trkpt><trkpt lat="41.199275" lon="15.0078146"><ele>395.5</ele><time>2026-04-19T10:16:47.066Z</time></trkpt><trkpt lat="41.1994553" lon="15.0079071"><ele>404.0</ele><time>2026-04-19T10:16:49.027Z</time></trkpt><trkpt lat="41.1995441" lon="15.0079601"><ele>404.0</ele><time>2026-04-19T10:16:49.944Z</time></trkpt><trkpt lat="41.1996174" lon="15.008026"><ele>404.0</ele><time>2026-04-19T10:16:50.946Z</time></trkpt><trkpt lat="41.1996966" lon="15.0080899"><ele>404.0</ele><time>2026-04-19T10:16:51.961Z</time></trkpt><trkpt lat="41.1997906" lon="15.008146"><ele>404.0</ele><time>2026-04-19T10:16:53.028Z</time></trkpt><trkpt lat="41.199882" lon="15.0081902"><ele>404.0</ele><time>2026-04-19T10:16:54.032Z</time></trkpt><trkpt lat="41.1999678" lon="15.0082549"><ele>409.5</ele><time>2026-04-19T10:16:54.945Z</time></trkpt><trkpt lat="41.2000535" lon="15.0083295"><ele>415.0</ele><time>2026-04-19T10:16:55.946Z</time></trkpt><trkpt lat="41.2001398" lon="15.0084218"><ele>420.5</ele><time>2026-04-19T10:16:57.062Z</time></trkpt><trkpt lat="41.2002939" lon="15.0085593"><ele>426.0</ele><time>2026-04-19T10:16:59.032Z</time></trkpt><trkpt lat="41.2003677" lon="15.0085941"><ele>426.0</ele><time>2026-04-19T10:16:59.951Z</time></trkpt><trkpt lat="41.2004719" lon="15.0085989"><ele>426.0</ele><time>2026-04-19T10:17:01.971Z</time></trkpt><trkpt lat="41.2005711" lon="15.0084947"><ele>426.0</ele><time>2026-04-19T10:17:03.971Z</time></trkpt><trkpt lat="41.2006314" lon="15.0084392"><ele>426.0</ele><time>2026-04-19T10:17:04.947Z</time></trkpt><trkpt lat="41.2006884" lon="15.0083917"><ele>426.0</ele><time>2026-04-19T10:17:06.031Z</time></trkpt><trkpt lat="41.2007501" lon="15.0083741"><ele>426.0</ele><time>2026-04-19T10:17:07.037Z</time></trkpt><trkpt lat="41.2008132" lon="15.0083617"><ele>423.1666666666667</ele><time>2026-04-19T10:17:07.962Z</time></trkpt><trkpt lat="41.2008719" lon="15.0083143"><ele>420.33333333333337</ele><time>2026-04-19T10:17:08.959Z</time></trkpt><trkpt lat="41.2009356" lon="15.0082297"><ele>417.5</ele><time>2026-04-19T10:17:09.961Z</time></trkpt><trkpt lat="41.2009932" lon="15.0081341"><ele>414.6666666666667</ele><time>2026-04-19T10:17:10.951Z</time></trkpt><trkpt lat="41.2010504" lon="15.0080535"><ele>411.83333333333337</ele><time>2026-04-19T10:17:11.967Z</time></trkpt><trkpt lat="41.2010997" lon="15.0079768"><ele>409.0</ele><time>2026-04-19T10:17:12.963Z</time></trkpt><trkpt lat="41.2011527" lon="15.007911"><ele>409.0</ele><time>2026-04-19T10:17:13.953Z</time></trkpt><trkpt lat="41.2012347" lon="15.0078274"><ele>409.0</ele><time>2026-04-19T10:17:15.96Z</time></trkpt><trkpt lat="41.2013611" lon="15.0078195"><ele>409.0</ele><time>2026-04-19T10:17:17.949Z</time></trkpt><trkpt lat="41.2014574" lon="15.0078905"><ele>409.0</ele><time>2026-04-19T10:17:18.949Z</time></trkpt><trkpt lat="41.2015556" lon="15.0079936"><ele>410.0</ele><time>2026-04-19T10:17:19.958Z</time></trkpt><trkpt lat="41.2016472" lon="15.0081"><ele>411.0</ele><time>2026-04-19T10:17:20.962Z</time></trkpt><trkpt lat="41.2017233" lon="15.00821"><ele>412.0</ele><time>2026-04-19T10:17:21.956Z</time></trkpt><trkpt lat="41.2017934" lon="15.0083124"><ele>413.0</ele><time>2026-04-19T10:17:23.002Z</time></trkpt><trkpt lat="41.2018516" lon="15.0084146"><ele>414.0</ele><time>2026-04-19T10:17:23.965Z</time></trkpt><trkpt lat="41.2018987" lon="15.0085338"><ele>414.0</ele><time>2026-04-19T10:17:24.962Z</time></trkpt><trkpt lat="41.2019399" lon="15.0086659"><ele>414.0</ele><time>2026-04-19T10:17:25.961Z</time></trkpt><trkpt lat="41.2019441" lon="15.0087988"><ele>414.0</ele><time>2026-04-19T10:17:26.957Z</time></trkpt><trkpt lat="41.2019429" lon="15.0089406"><ele>414.0</ele><time>2026-04-19T10:17:27.962Z</time></trkpt><trkpt lat="41.2019452" lon="15.0090808"><ele>414.0</ele><time>2026-04-19T10:17:28.963Z</time></trkpt><trkpt lat="41.2019621" lon="15.0092174"><ele>414.0</ele><time>2026-04-19T10:17:29.96Z</time></trkpt><trkpt lat="41.2019888" lon="15.0093521"><ele>414.0</ele><time>2026-04-19T10:17:30.963Z</time></trkpt><trkpt lat="41.2020404" lon="15.0094816"><ele>414.0</ele><time>2026-04-19T10:17:32.029Z</time></trkpt><trkpt lat="41.2020971" lon="15.0096083"><ele>414.0</ele><time>2026-04-19T10:17:33.027Z</time></trkpt><trkpt lat="41.2021413" lon="15.0097256"><ele>414.0</ele><time>2026-04-19T10:17:34.023Z</time></trkpt><trkpt lat="41.2021743" lon="15.0098289"><ele>414.0</ele><time>2026-04-19T10:17:34.949Z</time></trkpt><trkpt lat="41.2021967" lon="15.009947"><ele>414.0</ele><time>2026-04-19T10:17:35.943Z</time></trkpt><trkpt lat="41.2022119" lon="15.0100819"><ele>414.0</ele><time>2026-04-19T10:17:36.975Z</time></trkpt><trkpt lat="41.2022321" lon="15.010236"><ele>414.0</ele><time>2026-04-19T10:17:37.945Z</time></trkpt><trkpt lat="41.2022574" lon="15.0103877"><ele>414.0</ele><time>2026-04-19T10:17:38.951Z</time></trkpt><trkpt lat="41.2022801" lon="15.0105262"><ele>413.4</ele><time>2026-04-19T10:17:39.952Z</time></trkpt><trkpt lat="41.2022914" lon="15.0106471"><ele>412.79999999999995</ele><time>2026-04-19T10:17:40.955Z</time></trkpt><trkpt lat="41.2022864" lon="15.0107802"><ele>412.20000000000005</ele><time>2026-04-19T10:17:42.019Z</time></trkpt><trkpt lat="41.202267" lon="15.0109321"><ele>411.6</ele><time>2026-04-19T10:17:43.029Z</time></trkpt><trkpt lat="41.2022658" lon="15.0110887"><ele>411.0</ele><time>2026-04-19T10:17:43.988Z</time></trkpt><trkpt lat="41.2022738" lon="15.0112527"><ele>410.0</ele><time>2026-04-19T10:17:44.957Z</time></trkpt><trkpt lat="41.2022786" lon="15.0114127"><ele>409.0</ele><time>2026-04-19T10:17:45.964Z</time></trkpt><trkpt lat="41.2022936" lon="15.0115629"><ele>408.0</ele><time>2026-04-19T10:17:47.016Z</time></trkpt><trkpt lat="41.2023134" lon="15.0117093"><ele>407.0</ele><time>2026-04-19T10:17:48.025Z</time></trkpt><trkpt lat="41.2023283" lon="15.011854"><ele>406.20000000000005</ele><time>2026-04-19T10:17:49.022Z</time></trkpt><trkpt lat="41.2023341" lon="15.0119955"><ele>405.4</ele><time>2026-04-19T10:17:49.958Z</time></trkpt><trkpt lat="41.2023288" lon="15.0121363"><ele>404.6</ele><time>2026-04-19T10:17:50.962Z</time></trkpt><trkpt lat="41.2023267" lon="15.0122517"><ele>403.79999999999995</ele><time>2026-04-19T10:17:51.976Z</time></trkpt><trkpt lat="41.2023219" lon="15.0123405"><ele>403.0</ele><time>2026-04-19T10:17:53.036Z</time></trkpt><trkpt lat="41.2022601" lon="15.0124626"><ele>402.79999999999995</ele><time>2026-04-19T10:17:54.946Z</time></trkpt><trkpt lat="41.2021862" lon="15.0125171"><ele>402.6</ele><time>2026-04-19T10:17:55.951Z</time></trkpt><trkpt lat="41.2020922" lon="15.0125865"><ele>402.4</ele><time>2026-04-19T10:17:56.988Z</time></trkpt><trkpt lat="41.2020071" lon="15.0126576"><ele>402.20000000000005</ele><time>2026-04-19T10:17:57.949Z</time></trkpt><trkpt lat="41.2019399" lon="15.0127206"><ele>402.0</ele><time>2026-04-19T10:17:58.948Z</time></trkpt><trkpt lat="41.2019338" lon="15.0129055"><ele>402.0</ele><time>2026-04-19T10:18:00.952Z</time></trkpt><trkpt lat="41.2019672" lon="15.0130161"><ele>402.0</ele><time>2026-04-19T10:18:01.947Z</time></trkpt><trkpt lat="41.2020215" lon="15.0131281"><ele>402.0</ele><time>2026-04-19T10:18:02.953Z</time></trkpt><trkpt lat="41.2020649" lon="15.0132506"><ele>402.0</ele><time>2026-04-19T10:18:03.964Z</time></trkpt><trkpt lat="41.2021085" lon="15.0133651"><ele>402.0</ele><time>2026-04-19T10:18:04.95Z</time></trkpt><trkpt lat="41.2021487" lon="15.0134552"><ele>400.40000000000003</ele><time>2026-04-19T10:18:06.029Z</time></trkpt><trkpt lat="41.2022023" lon="15.0135153"><ele>398.8</ele><time>2026-04-19T10:18:06.955Z</time></trkpt><trkpt lat="41.2022644" lon="15.0135902"><ele>397.2</ele><time>2026-04-19T10:18:07.946Z</time></trkpt><trkpt lat="41.2023398" lon="15.0136665"><ele>395.6</ele><time>2026-04-19T10:18:08.946Z</time></trkpt><trkpt lat="41.2024123" lon="15.0137738"><ele>394.0</ele><time>2026-04-19T10:18:09.949Z</time></trkpt><trkpt lat="41.2024893" lon="15.0138857"><ele>389.6</ele><time>2026-04-19T10:18:10.949Z</time></trkpt><trkpt lat="41.2025542" lon="15.0139987"><ele>385.2</ele><time>2026-04-19T10:18:11.948Z</time></trkpt><trkpt lat="41.2026089" lon="15.0141149"><ele>380.8</ele><time>2026-04-19T10:18:13.031Z</time></trkpt><trkpt lat="41.2026577" lon="15.0142442"><ele>376.40000000000003</ele><time>2026-04-19T10:18:14.03Z</time></trkpt><trkpt lat="41.2027139" lon="15.0143713"><ele>372.0</ele><time>2026-04-19T10:18:14.95Z</time></trkpt><trkpt lat="41.2027692" lon="15.014476"><ele>372.0</ele><time>2026-04-19T10:18:15.955Z</time></trkpt><trkpt lat="41.2028159" lon="15.0145488"><ele>372.0</ele><time>2026-04-19T10:18:16.952Z</time></trkpt><trkpt lat="41.2028714" lon="15.0146926"><ele>372.0</ele><time>2026-04-19T10:18:18.955Z</time></trkpt><trkpt lat="41.2029096" lon="15.0147726"><ele>372.0</ele><time>2026-04-19T10:18:19.95Z</time></trkpt><trkpt lat="41.2029562" lon="15.0148417"><ele>372.0</ele><time>2026-04-19T10:18:21.028Z</time></trkpt><trkpt lat="41.203008" lon="15.014903"><ele>372.0</ele><time>2026-04-19T10:18:21.975Z</time></trkpt><trkpt lat="41.2030726" lon="15.0149687"><ele>371.1666666666667</ele><time>2026-04-19T10:18:22.946Z</time></trkpt><trkpt lat="41.2031486" lon="15.0150478"><ele>370.3333333333333</ele><time>2026-04-19T10:18:24.03Z</time></trkpt><trkpt lat="41.2032181" lon="15.0151253"><ele>369.5</ele><time>2026-04-19T10:18:24.95Z</time></trkpt><trkpt lat="41.2032891" lon="15.0151936"><ele>368.66666666666663</ele><time>2026-04-19T10:18:25.952Z</time></trkpt><trkpt lat="41.2033602" lon="15.0152591"><ele>367.8333333333333</ele><time>2026-04-19T10:18:27.049Z</time></trkpt><trkpt lat="41.2034242" lon="15.0153273"><ele>367.0</ele><time>2026-04-19T10:18:27.953Z</time></trkpt><trkpt lat="41.2034818" lon="15.0154278"><ele>367.0</ele><time>2026-04-19T10:18:28.953Z</time></trkpt><trkpt lat="41.2035503" lon="15.0155341"><ele>367.0</ele><time>2026-04-19T10:18:29.953Z</time></trkpt><trkpt lat="41.2036105" lon="15.0156411"><ele>367.0</ele><time>2026-04-19T10:18:30.95Z</time></trkpt><trkpt lat="41.2036649" lon="15.0157456"><ele>367.0</ele><time>2026-04-19T10:18:32.014Z</time></trkpt><trkpt lat="41.2037091" lon="15.0158553"><ele>367.0</ele><time>2026-04-19T10:18:33.028Z</time></trkpt><trkpt lat="41.2037365" lon="15.0159636"><ele>370.5</ele><time>2026-04-19T10:18:34.012Z</time></trkpt><trkpt lat="41.2037464" lon="15.0160774"><ele>374.0</ele><time>2026-04-19T10:18:34.955Z</time></trkpt><trkpt lat="41.2037448" lon="15.0161929"><ele>377.5</ele><time>2026-04-19T10:18:35.951Z</time></trkpt><trkpt lat="41.2037439" lon="15.0163202"><ele>381.0</ele><time>2026-04-19T10:18:37.049Z</time></trkpt><trkpt lat="41.2037527" lon="15.0166256"><ele>383.0</ele><time>2026-04-19T10:18:38.958Z</time></trkpt><trkpt lat="41.2037687" lon="15.0167995"><ele>385.0</ele><time>2026-04-19T10:18:39.954Z</time></trkpt><trkpt lat="41.2037895" lon="15.0169838"><ele>387.0</ele><time>2026-04-19T10:18:40.949Z</time></trkpt><trkpt lat="41.2038025" lon="15.0171549"><ele>389.0</ele><time>2026-04-19T10:18:41.946Z</time></trkpt><trkpt lat="41.2038008" lon="15.0172658"><ele>389.0</ele><time>2026-04-19T10:18:42.943Z</time></trkpt><trkpt lat="41.2037514" lon="15.0173419"><ele>389.0</ele><time>2026-04-19T10:18:44.956Z</time></trkpt><trkpt lat="41.2036682" lon="15.0173875"><ele>389.0</ele><time>2026-04-19T10:18:45.949Z</time></trkpt><trkpt lat="41.2035534" lon="15.0174605"><ele>389.0</ele><time>2026-04-19T10:18:46.942Z</time></trkpt><trkpt lat="41.2034308" lon="15.0175428"><ele>389.0</ele><time>2026-04-19T10:18:47.95Z</time></trkpt><trkpt lat="41.2033123" lon="15.0176224"><ele>390.0</ele><time>2026-04-19T10:18:48.946Z</time></trkpt><trkpt lat="41.2032162" lon="15.0176982"><ele>391.0</ele><time>2026-04-19T10:18:49.941Z</time></trkpt><trkpt lat="41.2031269" lon="15.0177766"><ele>392.0</ele><time>2026-04-19T10:18:50.943Z</time></trkpt><trkpt lat="41.2030392" lon="15.017848"><ele>393.0</ele><time>2026-04-19T10:18:51.945Z</time></trkpt><trkpt lat="41.2029525" lon="15.0178972"><ele>394.0</ele><time>2026-04-19T10:18:52.948Z</time></trkpt><trkpt lat="41.2028736" lon="15.0179184"><ele>397.0</ele><time>2026-04-19T10:18:53.963Z</time></trkpt><trkpt lat="41.2027862" lon="15.0179267"><ele>400.0</ele><time>2026-04-19T10:18:54.947Z</time></trkpt><trkpt lat="41.2027017" lon="15.017909"><ele>403.0</ele><time>2026-04-19T10:18:55.943Z</time></trkpt><trkpt lat="41.2026145" lon="15.0178579"><ele>406.0</ele><time>2026-04-19T10:18:56.964Z</time></trkpt><trkpt lat="41.2025216" lon="15.0178107"><ele>409.0</ele><time>2026-04-19T10:18:57.95Z</time></trkpt><trkpt lat="41.2024298" lon="15.0177544"><ele>411.79999999999995</ele><time>2026-04-19T10:18:58.953Z</time></trkpt><trkpt lat="41.2023274" lon="15.0177144"><ele>414.59999999999997</ele><time>2026-04-19T10:18:59.952Z</time></trkpt><trkpt lat="41.2022139" lon="15.0177026"><ele>417.4</ele><time>2026-04-19T10:19:00.951Z</time></trkpt><trkpt lat="41.2021152" lon="15.0176956"><ele>420.2</ele><time>2026-04-19T10:19:02.014Z</time></trkpt><trkpt lat="41.2020168" lon="15.0176912"><ele>423.0</ele><time>2026-04-19T10:19:02.953Z</time></trkpt><trkpt lat="41.2019212" lon="15.0176826"><ele>423.0</ele><time>2026-04-19T10:19:04.027Z</time></trkpt><trkpt lat="41.2018409" lon="15.0176635"><ele>423.0</ele><time>2026-04-19T10:19:04.949Z</time></trkpt><trkpt lat="41.2017727" lon="15.0176409"><ele>423.0</ele><time>2026-04-19T10:19:05.951Z</time></trkpt><trkpt lat="41.2017032" lon="15.017627"><ele>423.0</ele><time>2026-04-19T10:19:07.95Z</time></trkpt><trkpt lat="41.2016726" lon="15.0177057"><ele>423.0</ele><time>2026-04-19T10:20:56.947Z</time></trkpt><trkpt lat="41.2016578" lon="15.0177915"><ele>423.0</ele><time>2026-04-19T10:21:02.939Z</time></trkpt><trkpt lat="41.2016905" lon="15.017875"><ele>423.0</ele><time>2026-04-19T10:21:09.947Z</time></trkpt><trkpt lat="41.2017585" lon="15.0179071"><ele>423.0</ele><time>2026-04-19T10:21:15.95Z</time></trkpt><trkpt lat="41.2018202" lon="15.0179318"><ele>423.0</ele><time>2026-04-19T10:21:19.945Z</time></trkpt><trkpt lat="41.2018924" lon="15.0179383"><ele>423.0</ele><time>2026-04-19T10:21:24.944Z</time></trkpt><trkpt lat="41.2018281" lon="15.0179083"><ele>423.0</ele><time>2026-04-19T10:21:36.026Z</time></trkpt><trkpt lat="41.201755" lon="15.0179238"><ele>423.0</ele><time>2026-04-19T10:21:40.905Z</time></trkpt><trkpt lat="41.2017004" lon="15.0179831"><ele>423.0</ele><time>2026-04-19T10:21:44.033Z</time></trkpt><trkpt lat="41.2016424" lon="15.0180193"><ele>423.0</ele><time>2026-04-19T10:21:47.953Z</time></trkpt><trkpt lat="41.2015723" lon="15.0180533"><ele>423.0</ele><time>2026-04-19T10:21:54.509Z</time></trkpt><trkpt lat="41.2015345" lon="15.0181269"><ele>423.0</ele><time>2026-04-19T10:22:01.96Z</time></trkpt><trkpt lat="41.2015197" lon="15.0182142"><ele>423.0</ele><time>2026-04-19T10:22:08.368Z</time></trkpt><trkpt lat="41.2015516" lon="15.018292"><ele>423.0</ele><time>2026-04-19T10:22:19.952Z</time></trkpt><trkpt lat="41.2016286" lon="15.0183188"><ele>423.0</ele><time>2026-04-19T10:22:24.955Z</time></trkpt><trkpt lat="41.2016358" lon="15.0184127"><ele>423.0</ele><time>2026-04-19T10:22:30.951Z</time></trkpt><trkpt lat="41.2016455" lon="15.0185025"><ele>423.0</ele><time>2026-04-19T10:22:34.948Z</time></trkpt><trkpt lat="41.2015905" lon="15.0185465"><ele>423.0</ele><time>2026-04-19T10:22:43.947Z</time></trkpt><trkpt lat="41.2016604" lon="15.0184822"><ele>423.0</ele><time>2026-04-19T10:22:50.951Z</time></trkpt><trkpt lat="41.2016203" lon="15.0183972"><ele>423.0</ele><time>2026-04-19T10:22:52.943Z</time></trkpt><trkpt lat="41.2015809" lon="15.0183169"><ele>423.0</ele><time>2026-04-19T10:22:54.96Z</time></trkpt><trkpt lat="41.2015287" lon="15.018263"><ele>423.0</ele><time>2026-04-19T10:23:00.954Z</time></trkpt><trkpt lat="41.2014674" lon="15.0182246"><ele>423.0</ele><time>2026-04-19T10:23:05.943Z</time></trkpt><trkpt lat="41.2015216" lon="15.0181591"><ele>423.0</ele><time>2026-04-19T10:24:18.945Z</time></trkpt><trkpt lat="41.2015128" lon="15.0180554"><ele>423.0</ele><time>2026-04-19T10:24:22.953Z</time></trkpt><trkpt lat="41.2014628" lon="15.0179952"><ele>423.0</ele><time>2026-04-19T10:24:25.948Z</time></trkpt><trkpt lat="41.2014702" lon="15.0178983"><ele>423.0</ele><time>2026-04-19T10:24:54.951Z</time></trkpt><trkpt lat="41.2015137" lon="15.0178304"><ele>423.0</ele><time>2026-04-19T10:24:57.983Z</time></trkpt><trkpt lat="41.2015841" lon="15.0178078"><ele>423.0</ele><time>2026-04-19T10:25:03.952Z</time></trkpt><trkpt lat="41.2015811" lon="15.0177136"><ele>423.0</ele><time>2026-04-19T10:25:08.944Z</time></trkpt><trkpt lat="41.2015567" lon="15.0176214"><ele>423.0</ele><time>2026-04-19T10:25:14.956Z</time></trkpt><trkpt lat="41.2015182" lon="15.0175209"><ele>424.2</ele><time>2026-04-19T10:26:03.945Z</time></trkpt><trkpt lat="41.2014245" lon="15.0174546"><ele>425.4</ele><time>2026-04-19T10:26:05.947Z</time></trkpt><trkpt lat="41.2013248" lon="15.0174181"><ele>426.59999999999997</ele><time>2026-04-19T10:26:06.94Z</time></trkpt><trkpt lat="41.2012116" lon="15.0173916"><ele>427.79999999999995</ele><time>2026-04-19T10:26:07.941Z</time></trkpt><trkpt lat="41.201093" lon="15.0173699"><ele>429.0</ele><time>2026-04-19T10:26:09.035Z</time></trkpt><trkpt lat="41.200968" lon="15.0173553"><ele>429.0</ele><time>2026-04-19T10:26:09.953Z</time></trkpt><trkpt lat="41.2008511" lon="15.0173493"><ele>429.0</ele><time>2026-04-19T10:26:10.954Z</time></trkpt><trkpt lat="41.2007544" lon="15.0173735"><ele>429.0</ele><time>2026-04-19T10:26:11.946Z</time></trkpt><trkpt lat="41.2006569" lon="15.017431"><ele>429.0</ele><time>2026-04-19T10:26:12.954Z</time></trkpt><trkpt lat="41.2005787" lon="15.017537"><ele>429.0</ele><time>2026-04-19T10:26:13.944Z</time></trkpt><trkpt lat="41.2005155" lon="15.0176807"><ele>431.8333333333333</ele><time>2026-04-19T10:26:14.948Z</time></trkpt><trkpt lat="41.2004629" lon="15.0178231"><ele>434.66666666666663</ele><time>2026-04-19T10:26:16.03Z</time></trkpt><trkpt lat="41.2004136" lon="15.0179306"><ele>437.5</ele><time>2026-04-19T10:26:17.044Z</time></trkpt><trkpt lat="41.2003487" lon="15.0180118"><ele>440.3333333333333</ele><time>2026-04-19T10:26:18.026Z</time></trkpt><trkpt lat="41.2002952" lon="15.0180767"><ele>443.16666666666663</ele><time>2026-04-19T10:26:19.03Z</time></trkpt><trkpt lat="41.2002387" lon="15.0181206"><ele>446.0</ele><time>2026-04-19T10:26:19.954Z</time></trkpt><trkpt lat="41.2001688" lon="15.0181719"><ele>445.99999999999994</ele><time>2026-04-19T10:26:21.953Z</time></trkpt><trkpt lat="41.2001117" lon="15.0182152"><ele>446.0</ele><time>2026-04-19T10:26:25.986Z</time></trkpt><trkpt lat="41.2000308" lon="15.0182732"><ele>446.0</ele><time>2026-04-19T10:26:28.95Z</time></trkpt><trkpt lat="41.1998987" lon="15.0183496"><ele>446.0</ele><time>2026-04-19T10:26:30.952Z</time></trkpt><trkpt lat="41.1998317" lon="15.0183599"><ele>445.99999999999994</ele><time>2026-04-19T10:26:31.959Z</time></trkpt><trkpt lat="41.1997646" lon="15.0183347"><ele>446.0</ele><time>2026-04-19T10:26:32.961Z</time></trkpt><trkpt lat="41.1996835" lon="15.01831"><ele>447.4</ele><time>2026-04-19T10:26:33.957Z</time></trkpt><trkpt lat="41.1995965" lon="15.0182902"><ele>448.8</ele><time>2026-04-19T10:26:34.951Z</time></trkpt><trkpt lat="41.1994923" lon="15.0182955"><ele>450.19999999999993</ele><time>2026-04-19T10:26:35.953Z</time></trkpt><trkpt lat="41.1993965" lon="15.0183248"><ele>451.59999999999997</ele><time>2026-04-19T10:26:36.955Z</time></trkpt><trkpt lat="41.1993044" lon="15.0183831"><ele>453.0</ele><time>2026-04-19T10:26:37.95Z</time></trkpt><trkpt lat="41.1992179" lon="15.0184706"><ele>455.4</ele><time>2026-04-19T10:26:38.952Z</time></trkpt><trkpt lat="41.1991595" lon="15.0185881"><ele>457.79999999999995</ele><time>2026-04-19T10:26:39.954Z</time></trkpt><trkpt lat="41.1991002" lon="15.0187034"><ele>460.2</ele><time>2026-04-19T10:26:40.952Z</time></trkpt><trkpt lat="41.1990616" lon="15.0188399"><ele>462.6</ele><time>2026-04-19T10:26:41.952Z</time></trkpt><trkpt lat="41.1990394" lon="15.0189854"><ele>465.0</ele><time>2026-04-19T10:26:43.027Z</time></trkpt><trkpt lat="41.1990092" lon="15.0191426"><ele>466.8</ele><time>2026-04-19T10:26:44.027Z</time></trkpt><trkpt lat="41.1989759" lon="15.0193045"><ele>468.6</ele><time>2026-04-19T10:26:44.951Z</time></trkpt><trkpt lat="41.1989397" lon="15.0194457"><ele>470.4</ele><time>2026-04-19T10:26:45.951Z</time></trkpt><trkpt lat="41.1989072" lon="15.019575"><ele>472.2</ele><time>2026-04-19T10:26:46.956Z</time></trkpt><trkpt lat="41.1988725" lon="15.0196892"><ele>474.0</ele><time>2026-04-19T10:26:48.029Z</time></trkpt><trkpt lat="41.1988421" lon="15.0198011"><ele>474.0</ele><time>2026-04-19T10:26:49.031Z</time></trkpt><trkpt lat="41.1988129" lon="15.0199037"><ele>474.0</ele><time>2026-04-19T10:26:49.944Z</time></trkpt><trkpt lat="41.1987746" lon="15.0200027"><ele>474.0</ele><time>2026-04-19T10:26:50.939Z</time></trkpt><trkpt lat="41.1987216" lon="15.0201087"><ele>474.0</ele><time>2026-04-19T10:26:51.96Z</time></trkpt><trkpt lat="41.1986676" lon="15.0202302"><ele>474.0</ele><time>2026-04-19T10:26:53.033Z</time></trkpt><trkpt lat="41.1986072" lon="15.020348"><ele>475.2</ele><time>2026-04-19T10:26:54.028Z</time></trkpt><trkpt lat="41.1985475" lon="15.0204541"><ele>476.4</ele><time>2026-04-19T10:26:54.957Z</time></trkpt><trkpt lat="41.1984755" lon="15.0205274"><ele>477.6</ele><time>2026-04-19T10:26:55.952Z</time></trkpt><trkpt lat="41.1983845" lon="15.0205628"><ele>478.8</ele><time>2026-04-19T10:26:57.053Z</time></trkpt><trkpt lat="41.1982711" lon="15.0205709"><ele>480.0</ele><time>2026-04-19T10:26:58.031Z</time></trkpt><trkpt lat="41.1981595" lon="15.0205706"><ele>483.5</ele><time>2026-04-19T10:26:59.031Z</time></trkpt><trkpt lat="41.19803" lon="15.0205779"><ele>487.0</ele><time>2026-04-19T10:26:59.96Z</time></trkpt><trkpt lat="41.1979054" lon="15.0206058"><ele>490.5</ele><time>2026-04-19T10:27:01.022Z</time></trkpt><trkpt lat="41.1977868" lon="15.0206465"><ele>494.0</ele><time>2026-04-19T10:27:01.96Z</time></trkpt><trkpt lat="41.1976873" lon="15.0206898"><ele>494.0</ele><time>2026-04-19T10:27:03.03Z</time></trkpt><trkpt lat="41.1975982" lon="15.0207471"><ele>494.0</ele><time>2026-04-19T10:27:03.944Z</time></trkpt><trkpt lat="41.1975238" lon="15.0208187"><ele>494.0</ele><time>2026-04-19T10:27:04.945Z</time></trkpt><trkpt lat="41.1974688" lon="15.020915"><ele>494.0</ele><time>2026-04-19T10:27:05.951Z</time></trkpt><trkpt lat="41.1974327" lon="15.0210296"><ele>494.0</ele><time>2026-04-19T10:27:07.027Z</time></trkpt><trkpt lat="41.1973712" lon="15.0211257"><ele>495.99999999999994</ele><time>2026-04-19T10:27:08.019Z</time></trkpt><trkpt lat="41.1973076" lon="15.0212098"><ele>498.0</ele><time>2026-04-19T10:27:08.949Z</time></trkpt><trkpt lat="41.1972382" lon="15.0212543"><ele>500.0</ele><time>2026-04-19T10:27:09.959Z</time></trkpt><trkpt lat="41.1971659" lon="15.0212719"><ele>502.0</ele><time>2026-04-19T10:27:10.957Z</time></trkpt><trkpt lat="41.1970906" lon="15.0212556"><ele>503.99999999999994</ele><time>2026-04-19T10:27:11.96Z</time></trkpt><trkpt lat="41.1969981" lon="15.0212197"><ele>506.0</ele><time>2026-04-19T10:27:12.955Z</time></trkpt><trkpt lat="41.1968982" lon="15.0211727"><ele>506.0</ele><time>2026-04-19T10:27:13.956Z</time></trkpt><trkpt lat="41.1967971" lon="15.021125"><ele>506.0</ele><time>2026-04-19T10:27:14.96Z</time></trkpt><trkpt lat="41.1967088" lon="15.0210978"><ele>506.0</ele><time>2026-04-19T10:27:16.075Z</time></trkpt><trkpt lat="41.1966295" lon="15.0210965"><ele>506.0</ele><time>2026-04-19T10:27:17.029Z</time></trkpt><trkpt lat="41.1965447" lon="15.0211137"><ele>506.0</ele><time>2026-04-19T10:27:18.014Z</time></trkpt><trkpt lat="41.1964601" lon="15.0211405"><ele>505.8</ele><time>2026-04-19T10:27:18.957Z</time></trkpt><trkpt lat="41.1963776" lon="15.0212044"><ele>505.6</ele><time>2026-04-19T10:27:19.953Z</time></trkpt><trkpt lat="41.196294" lon="15.0212849"><ele>505.4</ele><time>2026-04-19T10:27:20.954Z</time></trkpt><trkpt lat="41.1962102" lon="15.0213811"><ele>505.2</ele><time>2026-04-19T10:27:21.955Z</time></trkpt><trkpt lat="41.1961287" lon="15.0214782"><ele>505.0</ele><time>2026-04-19T10:27:22.957Z</time></trkpt><trkpt lat="41.196047" lon="15.021588"><ele>503.5</ele><time>2026-04-19T10:27:24.036Z</time></trkpt><trkpt lat="41.1959602" lon="15.0217092"><ele>502.0</ele><time>2026-04-19T10:27:24.959Z</time></trkpt><trkpt lat="41.1958686" lon="15.0218248"><ele>500.5</ele><time>2026-04-19T10:27:25.956Z</time></trkpt><trkpt lat="41.1957783" lon="15.021934"><ele>499.0</ele><time>2026-04-19T10:27:26.96Z</time></trkpt><trkpt lat="41.195695" lon="15.0220515"><ele>500.5</ele><time>2026-04-19T10:27:27.955Z</time></trkpt><trkpt lat="41.1956191" lon="15.0221736"><ele>502.0</ele><time>2026-04-19T10:27:29.038Z</time></trkpt><trkpt lat="41.1955404" lon="15.0223116"><ele>503.5</ele><time>2026-04-19T10:27:29.962Z</time></trkpt><trkpt lat="41.1954711" lon="15.0224669"><ele>505.0</ele><time>2026-04-19T10:27:30.961Z</time></trkpt><trkpt lat="41.1954069" lon="15.0226395"><ele>505.0</ele><time>2026-04-19T10:27:31.998Z</time></trkpt><trkpt lat="41.1953544" lon="15.0228041"><ele>505.0</ele><time>2026-04-19T10:27:32.955Z</time></trkpt><trkpt lat="41.1952998" lon="15.0229503"><ele>505.0</ele><time>2026-04-19T10:27:33.959Z</time></trkpt><trkpt lat="41.1952359" lon="15.023086"><ele>505.0</ele><time>2026-04-19T10:27:34.962Z</time></trkpt><trkpt lat="41.1951663" lon="15.0232145"><ele>504.5</ele><time>2026-04-19T10:27:36.033Z</time></trkpt><trkpt lat="41.195087" lon="15.0233492"><ele>504.0</ele><time>2026-04-19T10:27:37.025Z</time></trkpt><trkpt lat="41.1950061" lon="15.0234628"><ele>503.5</ele><time>2026-04-19T10:27:38.021Z</time></trkpt><trkpt lat="41.1949334" lon="15.0235696"><ele>503.0</ele><time>2026-04-19T10:27:39.023Z</time></trkpt><trkpt lat="41.1948746" lon="15.0236734"><ele>507.4</ele><time>2026-04-19T10:27:39.952Z</time></trkpt><trkpt lat="41.1948279" lon="15.0237748"><ele>511.79999999999995</ele><time>2026-04-19T10:27:40.948Z</time></trkpt><trkpt lat="41.1947913" lon="15.0238708"><ele>516.2</ele><time>2026-04-19T10:27:41.98Z</time></trkpt><trkpt lat="41.1947535" lon="15.0239667"><ele>520.6</ele><time>2026-04-19T10:27:42.965Z</time></trkpt><trkpt lat="41.1947072" lon="15.0240689"><ele>525.0</ele><time>2026-04-19T10:27:44.052Z</time></trkpt><trkpt lat="41.1946122" lon="15.0242513"><ele>525.4</ele><time>2026-04-19T10:27:45.952Z</time></trkpt><trkpt lat="41.194587" lon="15.0243319"><ele>525.8</ele><time>2026-04-19T10:27:46.978Z</time></trkpt><trkpt lat="41.1945943" lon="15.0244311"><ele>526.2</ele><time>2026-04-19T10:27:48.024Z</time></trkpt><trkpt lat="41.194599" lon="15.0245609"><ele>526.6</ele><time>2026-04-19T10:27:49.028Z</time></trkpt><trkpt lat="41.194595" lon="15.0246953"><ele>527.0</ele><time>2026-04-19T10:27:49.944Z</time></trkpt><trkpt lat="41.1945819" lon="15.0248457"><ele>528.0</ele><time>2026-04-19T10:27:50.944Z</time></trkpt><trkpt lat="41.1945704" lon="15.0250119"><ele>529.0</ele><time>2026-04-19T10:27:51.951Z</time></trkpt><trkpt lat="41.1945549" lon="15.0251816"><ele>530.0</ele><time>2026-04-19T10:27:52.95Z</time></trkpt><trkpt lat="41.1945368" lon="15.0253591"><ele>531.0</ele><time>2026-04-19T10:27:53.944Z</time></trkpt><trkpt lat="41.1945129" lon="15.0255264"><ele>531.0</ele><time>2026-04-19T10:27:54.949Z</time></trkpt><trkpt lat="41.1944958" lon="15.0256823"><ele>531.0</ele><time>2026-04-19T10:27:55.951Z</time></trkpt><trkpt lat="41.1944907" lon="15.025821"><ele>531.0</ele><time>2026-04-19T10:27:56.946Z</time></trkpt><trkpt lat="41.1944723" lon="15.025918"><ele>531.0</ele><time>2026-04-19T10:27:58.022Z</time></trkpt><trkpt lat="41.194456" lon="15.0260375"><ele>531.0</ele><time>2026-04-19T10:27:59.952Z</time></trkpt><trkpt lat="41.1944207" lon="15.0261897"><ele>531.4</ele><time>2026-04-19T10:28:01.95Z</time></trkpt><trkpt lat="41.1943838" lon="15.0262922"><ele>531.8</ele><time>2026-04-19T10:28:02.952Z</time></trkpt><trkpt lat="41.1943532" lon="15.0264075"><ele>532.1999999999999</ele><time>2026-04-19T10:28:04.033Z</time></trkpt><trkpt lat="41.1943306" lon="15.0265229"><ele>532.6</ele><time>2026-04-19T10:28:04.951Z</time></trkpt><trkpt lat="41.1943073" lon="15.0266309"><ele>533.0</ele><time>2026-04-19T10:28:05.948Z</time></trkpt><trkpt lat="41.1942853" lon="15.0267738"><ele>534.75</ele><time>2026-04-19T10:28:06.943Z</time></trkpt><trkpt lat="41.1942536" lon="15.0269221"><ele>536.5</ele><time>2026-04-19T10:28:07.949Z</time></trkpt><trkpt lat="41.1942272" lon="15.0270944"><ele>538.25</ele><time>2026-04-19T10:28:08.949Z</time></trkpt><trkpt lat="41.1941877" lon="15.0272704"><ele>540.0</ele><time>2026-04-19T10:28:09.947Z</time></trkpt><trkpt lat="41.1941575" lon="15.0274251"><ele>542.25</ele><time>2026-04-19T10:28:10.945Z</time></trkpt><trkpt lat="41.1941459" lon="15.0275661"><ele>544.5</ele><time>2026-04-19T10:28:11.97Z</time></trkpt><trkpt lat="41.1941572" lon="15.0277131"><ele>546.75</ele><time>2026-04-19T10:28:12.946Z</time></trkpt><trkpt lat="41.1941724" lon="15.0278699"><ele>549.0</ele><time>2026-04-19T10:28:14.032Z</time></trkpt><trkpt lat="41.1941802" lon="15.0280206"><ele>549.0</ele><time>2026-04-19T10:28:14.955Z</time></trkpt><trkpt lat="41.1941558" lon="15.0281704"><ele>549.0</ele><time>2026-04-19T10:28:15.954Z</time></trkpt><trkpt lat="41.194137" lon="15.0282662"><ele>549.0</ele><time>2026-04-19T10:28:17.027Z</time></trkpt><trkpt lat="41.1941149" lon="15.0283799"><ele>549.0</ele><time>2026-04-19T10:28:19.022Z</time></trkpt><trkpt lat="41.1940983" lon="15.0284731"><ele>549.0</ele><time>2026-04-19T10:28:20.952Z</time></trkpt><trkpt lat="41.1940787" lon="15.0285542"><ele>549.0</ele><time>2026-04-19T10:28:21.958Z</time></trkpt><trkpt lat="41.194079" lon="15.0286452"><ele>550.5</ele><time>2026-04-19T10:28:22.968Z</time></trkpt><trkpt lat="41.1940928" lon="15.0287619"><ele>552.0</ele><time>2026-04-19T10:28:24.022Z</time></trkpt><trkpt lat="41.1941615" lon="15.0289469"><ele>553.5</ele><time>2026-04-19T10:28:24.954Z</time></trkpt><trkpt lat="41.1942394" lon="15.0291442"><ele>555.0</ele><time>2026-04-19T10:28:25.949Z</time></trkpt><trkpt lat="41.1943133" lon="15.0293416"><ele>555.6666666666666</ele><time>2026-04-19T10:28:26.955Z</time></trkpt><trkpt lat="41.1943838" lon="15.029534"><ele>556.3333333333333</ele><time>2026-04-19T10:28:27.953Z</time></trkpt><trkpt lat="41.1944472" lon="15.0297164"><ele>557.0</ele><time>2026-04-19T10:28:28.954Z</time></trkpt><trkpt lat="41.1945064" lon="15.0298932"><ele>558.5</ele><time>2026-04-19T10:28:29.947Z</time></trkpt><trkpt lat="41.1945617" lon="15.0300641"><ele>560.0</ele><time>2026-04-19T10:28:30.967Z</time></trkpt><trkpt lat="41.1946234" lon="15.0302236"><ele>561.5</ele><time>2026-04-19T10:28:31.956Z</time></trkpt><trkpt lat="41.1946948" lon="15.0303791"><ele>563.0</ele><time>2026-04-19T10:28:32.952Z</time></trkpt><trkpt lat="41.1947867" lon="15.030516"><ele>559.5</ele><time>2026-04-19T10:28:33.953Z</time></trkpt><trkpt lat="41.1948901" lon="15.0306271"><ele>556.0</ele><time>2026-04-19T10:28:34.991Z</time></trkpt><trkpt lat="41.195007" lon="15.0307231"><ele>552.5</ele><time>2026-04-19T10:28:35.951Z</time></trkpt><trkpt lat="41.1951338" lon="15.0307853"><ele>549.0</ele><time>2026-04-19T10:28:36.953Z</time></trkpt><trkpt lat="41.1952622" lon="15.0308369"><ele>549.0</ele><time>2026-04-19T10:28:37.952Z</time></trkpt><trkpt lat="41.1954042" lon="15.0308912"><ele>549.0</ele><time>2026-04-19T10:28:38.949Z</time></trkpt><trkpt lat="41.19553" lon="15.0309417"><ele>549.0</ele><time>2026-04-19T10:28:39.952Z</time></trkpt><trkpt lat="41.1956441" lon="15.0310054"><ele>549.0</ele><time>2026-04-19T10:28:40.95Z</time></trkpt><trkpt lat="41.195752" lon="15.0310858"><ele>546.0</ele><time>2026-04-19T10:28:41.95Z</time></trkpt><trkpt lat="41.1958454" lon="15.0311792"><ele>543.0</ele><time>2026-04-19T10:28:42.948Z</time></trkpt><trkpt lat="41.1959362" lon="15.0312995"><ele>540.0</ele><time>2026-04-19T10:28:43.947Z</time></trkpt><trkpt lat="41.1960176" lon="15.0314371"><ele>537.0</ele><time>2026-04-19T10:28:44.949Z</time></trkpt><trkpt lat="41.1961094" lon="15.0315927"><ele>539.5</ele><time>2026-04-19T10:28:45.952Z</time></trkpt><trkpt lat="41.196202" lon="15.0317501"><ele>542.0</ele><time>2026-04-19T10:28:46.962Z</time></trkpt><trkpt lat="41.196289" lon="15.031905"><ele>544.5</ele><time>2026-04-19T10:28:47.952Z</time></trkpt><trkpt lat="41.1963611" lon="15.0320637"><ele>547.0</ele><time>2026-04-19T10:28:48.951Z</time></trkpt><trkpt lat="41.1964268" lon="15.0322388"><ele>547.0</ele><time>2026-04-19T10:28:49.952Z</time></trkpt><trkpt lat="41.1964921" lon="15.0324112"><ele>547.0</ele><time>2026-04-19T10:28:50.955Z</time></trkpt><trkpt lat="41.1965588" lon="15.0325976"><ele>547.0</ele><time>2026-04-19T10:28:51.95Z</time></trkpt><trkpt lat="41.1966235" lon="15.0327781"><ele>546.25</ele><time>2026-04-19T10:28:52.956Z</time></trkpt><trkpt lat="41.1966892" lon="15.03295"><ele>545.5</ele><time>2026-04-19T10:28:53.955Z</time></trkpt><trkpt lat="41.1967551" lon="15.0331077"><ele>544.75</ele><time>2026-04-19T10:28:54.95Z</time></trkpt><trkpt lat="41.1968233" lon="15.0332515"><ele>544.0</ele><time>2026-04-19T10:28:55.953Z</time></trkpt><trkpt lat="41.1968896" lon="15.033387"><ele>544.0</ele><time>2026-04-19T10:28:56.948Z</time></trkpt><trkpt lat="41.1969531" lon="15.0335087"><ele>544.0</ele><time>2026-04-19T10:28:57.95Z</time></trkpt><trkpt lat="41.1970084" lon="15.0336233"><ele>544.0</ele><time>2026-04-19T10:28:58.951Z</time></trkpt><trkpt lat="41.1970478" lon="15.0337251"><ele>544.0</ele><time>2026-04-19T10:28:59.975Z</time></trkpt><trkpt lat="41.1970869" lon="15.0338052"><ele>544.0</ele><time>2026-04-19T10:29:00.952Z</time></trkpt><trkpt lat="41.1971205" lon="15.0338762"><ele>544.0</ele><time>2026-04-19T10:29:01.95Z</time></trkpt><trkpt lat="41.1971229" lon="15.0339615"><ele>544.0</ele><time>2026-04-19T10:29:03.953Z</time></trkpt><trkpt lat="41.1970538" lon="15.0340228"><ele>544.0</ele><time>2026-04-19T10:29:05.949Z</time></trkpt><trkpt lat="41.1969719" lon="15.0340232"><ele>544.0</ele><time>2026-04-19T10:29:06.952Z</time></trkpt><trkpt lat="41.1968815" lon="15.0340037"><ele>544.0</ele><time>2026-04-19T10:29:07.952Z</time></trkpt><trkpt lat="41.1967715" lon="15.0339724"><ele>544.0</ele><time>2026-04-19T10:29:08.949Z</time></trkpt><trkpt lat="41.1966254" lon="15.0339395"><ele>548.0</ele><time>2026-04-19T10:29:09.946Z</time></trkpt><trkpt lat="41.1964801" lon="15.0339156"><ele>552.0</ele><time>2026-04-19T10:29:10.95Z</time></trkpt><trkpt lat="41.1963494" lon="15.0339097"><ele>556.0</ele><time>2026-04-19T10:29:11.947Z</time></trkpt><trkpt lat="41.1962462" lon="15.0339213"><ele>560.0</ele><time>2026-04-19T10:29:12.951Z</time></trkpt><trkpt lat="41.1961637" lon="15.0339404"><ele>560.0</ele><time>2026-04-19T10:29:13.949Z</time></trkpt><trkpt lat="41.1960958" lon="15.0339341"><ele>560.0</ele><time>2026-04-19T10:29:14.956Z</time></trkpt><trkpt lat="41.196013" lon="15.0339222"><ele>560.0</ele><time>2026-04-19T10:29:16.948Z</time></trkpt><trkpt lat="41.1960561" lon="15.0340188"><ele>560.0</ele><time>2026-04-19T10:29:22.953Z</time></trkpt><trkpt lat="41.1960165" lon="15.0341549"><ele>560.0</ele><time>2026-04-19T10:29:24.954Z</time></trkpt><trkpt lat="41.1959576" lon="15.0342195"><ele>560.0</ele><time>2026-04-19T10:29:25.951Z</time></trkpt><trkpt lat="41.1958735" lon="15.0343284"><ele>560.5</ele><time>2026-04-19T10:29:27.959Z</time></trkpt><trkpt lat="41.1958091" lon="15.0343835"><ele>561.0</ele><time>2026-04-19T10:29:29.952Z</time></trkpt><trkpt lat="41.195817" lon="15.0344931"><ele>561.5</ele><time>2026-04-19T10:29:33.954Z</time></trkpt><trkpt lat="41.1958392" lon="15.0345782"><ele>562.0</ele><time>2026-04-19T10:29:37.955Z</time></trkpt><trkpt lat="41.1958124" lon="15.0346704"><ele>562.5</ele><time>2026-04-19T10:40:09.944Z</time></trkpt><trkpt lat="41.195856" lon="15.0345924"><ele>563.0</ele><time>2026-04-19T10:52:55.953Z</time></trkpt><trkpt lat="41.1958282" lon="15.0344712"><ele>563.0</ele><time>2026-04-19T10:53:10.966Z</time></trkpt><trkpt lat="41.1957341" lon="15.0343859"><ele>563.0</ele><time>2026-04-19T10:53:13.028Z</time></trkpt><trkpt lat="41.1956885" lon="15.0343209"><ele>563.0</ele><time>2026-04-19T10:53:14.026Z</time></trkpt><trkpt lat="41.1956407" lon="15.0342594"><ele>563.0</ele><time>2026-04-19T10:53:14.947Z</time></trkpt><trkpt lat="41.1955855" lon="15.0341997"><ele>563.0</ele><time>2026-04-19T10:53:15.95Z</time></trkpt><trkpt lat="41.1955457" lon="15.0341316"><ele>563.0</ele><time>2026-04-19T10:53:16.947Z</time></trkpt><trkpt lat="41.1955031" lon="15.0340658"><ele>563.0</ele><time>2026-04-19T10:53:17.95Z</time></trkpt><trkpt lat="41.1954397" lon="15.0339414"><ele>563.7142857142857</ele><time>2026-04-19T10:53:19.946Z</time></trkpt><trkpt lat="41.1953931" lon="15.0338285"><ele>564.4285714285714</ele><time>2026-04-19T10:53:21.948Z</time></trkpt><trkpt lat="41.1953636" lon="15.033739"><ele>565.1428571428571</ele><time>2026-04-19T10:53:23.947Z</time></trkpt><trkpt lat="41.1953744" lon="15.0336509"><ele>565.8571428571429</ele><time>2026-04-19T10:56:01.964Z</time></trkpt><trkpt lat="41.1954104" lon="15.0335819"><ele>566.5714285714286</ele><time>2026-04-19T10:56:04.959Z</time></trkpt><trkpt lat="41.1954452" lon="15.03351"><ele>567.2857142857142</ele><time>2026-04-19T10:56:07.959Z</time></trkpt><trkpt lat="41.1954783" lon="15.0334223"><ele>568.0</ele><time>2026-04-19T10:56:11.964Z</time></trkpt><trkpt lat="41.1955158" lon="15.0333046"><ele>568.0</ele><time>2026-04-19T10:56:14.947Z</time></trkpt><trkpt lat="41.1954814" lon="15.0331442"><ele>568.0</ele><time>2026-04-19T10:56:16.952Z</time></trkpt><trkpt lat="41.1954404" lon="15.0330546"><ele>568.0</ele><time>2026-04-19T10:56:17.951Z</time></trkpt><trkpt lat="41.1954008" lon="15.0329635"><ele>568.0</ele><time>2026-04-19T10:56:18.944Z</time></trkpt><trkpt lat="41.1953567" lon="15.0328731"><ele>568.0</ele><time>2026-04-19T10:56:19.95Z</time></trkpt><trkpt lat="41.1953004" lon="15.0327765"><ele>568.0</ele><time>2026-04-19T10:56:20.955Z</time></trkpt><trkpt lat="41.1952483" lon="15.0326874"><ele>568.0</ele><time>2026-04-19T10:56:22.03Z</time></trkpt><trkpt lat="41.1951884" lon="15.0325908"><ele>568.0</ele><time>2026-04-19T10:56:23.029Z</time></trkpt><trkpt lat="41.1951299" lon="15.0324951"><ele>568.0</ele><time>2026-04-19T10:56:23.95Z</time></trkpt><trkpt lat="41.1950754" lon="15.0324054"><ele>568.0</ele><time>2026-04-19T10:56:24.949Z</time></trkpt><trkpt lat="41.1950156" lon="15.032314"><ele>566.4</ele><time>2026-04-19T10:56:25.949Z</time></trkpt><trkpt lat="41.1949578" lon="15.0322254"><ele>564.8</ele><time>2026-04-19T10:56:26.949Z</time></trkpt><trkpt lat="41.1948956" lon="15.0321426"><ele>563.2</ele><time>2026-04-19T10:56:27.947Z</time></trkpt><trkpt lat="41.194826" lon="15.0320643"><ele>561.6</ele><time>2026-04-19T10:56:28.944Z</time></trkpt><trkpt lat="41.1947452" lon="15.0319898"><ele>560.0</ele><time>2026-04-19T10:56:29.953Z</time></trkpt><trkpt lat="41.1946693" lon="15.0319169"><ele>562.0</ele><time>2026-04-19T10:56:30.952Z</time></trkpt><trkpt lat="41.1945831" lon="15.0318394"><ele>564.0</ele><time>2026-04-19T10:56:31.95Z</time></trkpt><trkpt lat="41.1944886" lon="15.0317535"><ele>566.0</ele><time>2026-04-19T10:56:32.948Z</time></trkpt><trkpt lat="41.1943959" lon="15.0316605"><ele>568.0</ele><time>2026-04-19T10:56:34.013Z</time></trkpt><trkpt lat="41.1943082" lon="15.0315814"><ele>570.0</ele><time>2026-04-19T10:56:34.947Z</time></trkpt><trkpt lat="41.1942252" lon="15.0314955"><ele>570.0</ele><time>2026-04-19T10:56:35.941Z</time></trkpt><trkpt lat="41.1941503" lon="15.0314079"><ele>570.0</ele><time>2026-04-19T10:56:37.039Z</time></trkpt><trkpt lat="41.1940868" lon="15.0313115"><ele>570.0</ele><time>2026-04-19T10:56:37.949Z</time></trkpt><trkpt lat="41.1940405" lon="15.0311897"><ele>570.0</ele><time>2026-04-19T10:56:39.019Z</time></trkpt><trkpt lat="41.1940028" lon="15.0310494"><ele>570.0</ele><time>2026-04-19T10:56:39.986Z</time></trkpt><trkpt lat="41.1939672" lon="15.0309106"><ele>574.4</ele><time>2026-04-19T10:56:40.962Z</time></trkpt><trkpt lat="41.1939261" lon="15.0307858"><ele>578.8</ele><time>2026-04-19T10:56:41.95Z</time></trkpt><trkpt lat="41.1938941" lon="15.0306591"><ele>583.2</ele><time>2026-04-19T10:56:42.945Z</time></trkpt><trkpt lat="41.1938584" lon="15.0305463"><ele>587.6</ele><time>2026-04-19T10:56:44.034Z</time></trkpt><trkpt lat="41.1938216" lon="15.0304303"><ele>592.0</ele><time>2026-04-19T10:56:44.962Z</time></trkpt><trkpt lat="41.1937683" lon="15.0303105"><ele>592.0</ele><time>2026-04-19T10:56:45.955Z</time></trkpt><trkpt lat="41.1937167" lon="15.0301841"><ele>592.0</ele><time>2026-04-19T10:56:46.987Z</time></trkpt><trkpt lat="41.1936879" lon="15.0300422"><ele>592.0</ele><time>2026-04-19T10:56:47.956Z</time></trkpt><trkpt lat="41.1936475" lon="15.0298939"><ele>592.0</ele><time>2026-04-19T10:56:49.038Z</time></trkpt><trkpt lat="41.1936111" lon="15.029738"><ele>590.5</ele><time>2026-04-19T10:56:49.958Z</time></trkpt><trkpt lat="41.1935823" lon="15.0295793"><ele>589.0</ele><time>2026-04-19T10:56:51.027Z</time></trkpt><trkpt lat="41.1935526" lon="15.0294095"><ele>587.5</ele><time>2026-04-19T10:56:51.954Z</time></trkpt><trkpt lat="41.1935231" lon="15.0292355"><ele>586.0</ele><time>2026-04-19T10:56:53.02Z</time></trkpt><trkpt lat="41.1934917" lon="15.0290776"><ele>584.8</ele><time>2026-04-19T10:56:53.954Z</time></trkpt><trkpt lat="41.1934738" lon="15.0289333"><ele>583.6</ele><time>2026-04-19T10:56:54.956Z</time></trkpt><trkpt lat="41.1934574" lon="15.0287935"><ele>582.4</ele><time>2026-04-19T10:56:55.955Z</time></trkpt><trkpt lat="41.1934401" lon="15.0286456"><ele>581.2</ele><time>2026-04-19T10:56:57.028Z</time></trkpt><trkpt lat="41.193432" lon="15.0284911"><ele>580.0</ele><time>2026-04-19T10:56:57.958Z</time></trkpt><trkpt lat="41.193422" lon="15.0283309"><ele>577.25</ele><time>2026-04-19T10:56:58.963Z</time></trkpt><trkpt lat="41.1934019" lon="15.0281541"><ele>574.5</ele><time>2026-04-19T10:56:59.958Z</time></trkpt><trkpt lat="41.1933665" lon="15.0279788"><ele>571.75</ele><time>2026-04-19T10:57:00.961Z</time></trkpt><trkpt lat="41.1933308" lon="15.0278046"><ele>569.0</ele><time>2026-04-19T10:57:01.959Z</time></trkpt><trkpt lat="41.1932923" lon="15.0276347"><ele>569.5</ele><time>2026-04-19T10:57:02.971Z</time></trkpt><trkpt lat="41.1932503" lon="15.0274736"><ele>570.0</ele><time>2026-04-19T10:57:03.958Z</time></trkpt><trkpt lat="41.1932064" lon="15.0273296"><ele>570.5</ele><time>2026-04-19T10:57:04.957Z</time></trkpt><trkpt lat="41.193153" lon="15.0271939"><ele>571.0</ele><time>2026-04-19T10:57:05.956Z</time></trkpt><trkpt lat="41.1930947" lon="15.0270627"><ele>571.0</ele><time>2026-04-19T10:57:06.955Z</time></trkpt><trkpt lat="41.1930339" lon="15.0269509"><ele>571.0</ele><time>2026-04-19T10:57:07.955Z</time></trkpt><trkpt lat="41.1929785" lon="15.0268323"><ele>571.0</ele><time>2026-04-19T10:57:08.955Z</time></trkpt><trkpt lat="41.1929267" lon="15.026693"><ele>571.0</ele><time>2026-04-19T10:57:09.96Z</time></trkpt><trkpt lat="41.1928732" lon="15.0265456"><ele>571.0</ele><time>2026-04-19T10:57:10.958Z</time></trkpt><trkpt lat="41.1928216" lon="15.0263942"><ele>568.8</ele><time>2026-04-19T10:57:11.957Z</time></trkpt><trkpt lat="41.1927626" lon="15.0262637"><ele>566.6</ele><time>2026-04-19T10:57:12.964Z</time></trkpt><trkpt lat="41.1926969" lon="15.0261437"><ele>564.4</ele><time>2026-04-19T10:57:13.947Z</time></trkpt><trkpt lat="41.1926243" lon="15.0260437"><ele>562.2</ele><time>2026-04-19T10:57:14.959Z</time></trkpt><trkpt lat="41.1925468" lon="15.0259558"><ele>560.0</ele><time>2026-04-19T10:57:15.958Z</time></trkpt><trkpt lat="41.1924687" lon="15.0258804"><ele>558.6666666666666</ele><time>2026-04-19T10:57:16.96Z</time></trkpt><trkpt lat="41.1924067" lon="15.0258026"><ele>557.3333333333333</ele><time>2026-04-19T10:57:17.956Z</time></trkpt><trkpt lat="41.1923832" lon="15.0257134"><ele>556.0</ele><time>2026-04-19T10:57:18.959Z</time></trkpt><trkpt lat="41.1923898" lon="15.0256005"><ele>554.6666666666666</ele><time>2026-04-19T10:57:19.948Z</time></trkpt><trkpt lat="41.1924201" lon="15.0254799"><ele>553.3333333333334</ele><time>2026-04-19T10:57:20.962Z</time></trkpt><trkpt lat="41.1924631" lon="15.0253523"><ele>552.0</ele><time>2026-04-19T10:57:22.029Z</time></trkpt><trkpt lat="41.1924899" lon="15.0252374"><ele>552.0</ele><time>2026-04-19T10:57:22.95Z</time></trkpt><trkpt lat="41.1925092" lon="15.0251489"><ele>552.0</ele><time>2026-04-19T10:57:23.968Z</time></trkpt><trkpt lat="41.1925255" lon="15.0250118"><ele>552.0</ele><time>2026-04-19T10:57:25.948Z</time></trkpt><trkpt lat="41.1924534" lon="15.0249514"><ele>552.0</ele><time>2026-04-19T10:57:28.938Z</time></trkpt><trkpt lat="41.1923593" lon="15.0249902"><ele>552.0</ele><time>2026-04-19T10:57:29.951Z</time></trkpt><trkpt lat="41.1922409" lon="15.0250141"><ele>548.75</ele><time>2026-04-19T10:57:31.025Z</time></trkpt><trkpt lat="41.1921064" lon="15.025025"><ele>545.5</ele><time>2026-04-19T10:57:32.019Z</time></trkpt><trkpt lat="41.1919716" lon="15.0250384"><ele>542.25</ele><time>2026-04-19T10:57:33.018Z</time></trkpt><trkpt lat="41.1918311" lon="15.0250424"><ele>539.0</ele><time>2026-04-19T10:57:33.949Z</time></trkpt><trkpt lat="41.1917031" lon="15.0250406"><ele>539.0</ele><time>2026-04-19T10:57:34.949Z</time></trkpt><trkpt lat="41.191573" lon="15.0250343"><ele>539.0</ele><time>2026-04-19T10:57:35.947Z</time></trkpt><trkpt lat="41.1914491" lon="15.0250265"><ele>539.0</ele><time>2026-04-19T10:57:36.947Z</time></trkpt><trkpt lat="41.1913281" lon="15.0250236"><ele>539.0</ele><time>2026-04-19T10:57:37.951Z</time></trkpt><trkpt lat="41.1912122" lon="15.0250326"><ele>533.8</ele><time>2026-04-19T10:57:38.946Z</time></trkpt><trkpt lat="41.1911023" lon="15.0250437"><ele>528.5999999999999</ele><time>2026-04-19T10:57:39.953Z</time></trkpt><trkpt lat="41.1910043" lon="15.0250514"><ele>523.4</ele><time>2026-04-19T10:57:40.952Z</time></trkpt><trkpt lat="41.1909097" lon="15.0250483"><ele>518.1999999999999</ele><time>2026-04-19T10:57:42.033Z</time></trkpt><trkpt lat="41.1908181" lon="15.0250293"><ele>513.0</ele><time>2026-04-19T10:57:42.968Z</time></trkpt><trkpt lat="41.1907281" lon="15.0249916"><ele>508.6666666666667</ele><time>2026-04-19T10:57:43.941Z</time></trkpt><trkpt lat="41.1906472" lon="15.0249645"><ele>504.33333333333337</ele><time>2026-04-19T10:57:44.944Z</time></trkpt><trkpt lat="41.1905779" lon="15.0249631"><ele>500.0</ele><time>2026-04-19T10:57:45.944Z</time></trkpt><trkpt lat="41.1905075" lon="15.0249799"><ele>495.6666666666667</ele><time>2026-04-19T10:57:46.942Z</time></trkpt><trkpt lat="41.1904427" lon="15.0250459"><ele>491.33333333333337</ele><time>2026-04-19T10:57:47.942Z</time></trkpt><trkpt lat="41.1903773" lon="15.0251237"><ele>487.0</ele><time>2026-04-19T10:57:49.029Z</time></trkpt><trkpt lat="41.1903237" lon="15.0251999"><ele>487.0</ele><time>2026-04-19T10:57:49.946Z</time></trkpt><trkpt lat="41.1903051" lon="15.0253459"><ele>487.00000000000006</ele><time>2026-04-19T10:57:51.963Z</time></trkpt><trkpt lat="41.1903307" lon="15.0254546"><ele>487.00000000000006</ele><time>2026-04-19T10:57:53.028Z</time></trkpt><trkpt lat="41.1903766" lon="15.0255657"><ele>487.0</ele><time>2026-04-19T10:57:53.959Z</time></trkpt><trkpt lat="41.1904403" lon="15.0256797"><ele>487.0</ele><time>2026-04-19T10:57:54.948Z</time></trkpt><trkpt lat="41.190504" lon="15.0258036"><ele>486.40000000000003</ele><time>2026-04-19T10:57:55.949Z</time></trkpt><trkpt lat="41.190553" lon="15.0259209"><ele>485.80000000000007</ele><time>2026-04-19T10:57:57.027Z</time></trkpt><trkpt lat="41.1905864" lon="15.0260415"><ele>485.2</ele><time>2026-04-19T10:57:58.026Z</time></trkpt><trkpt lat="41.1906107" lon="15.0261864"><ele>484.6</ele><time>2026-04-19T10:57:59.029Z</time></trkpt><trkpt lat="41.1906253" lon="15.0263433"><ele>484.0</ele><time>2026-04-19T10:57:59.952Z</time></trkpt><trkpt lat="41.1906328" lon="15.0265018"><ele>485.5</ele><time>2026-04-19T10:58:00.949Z</time></trkpt><trkpt lat="41.1906397" lon="15.0266681"><ele>487.0</ele><time>2026-04-19T10:58:01.947Z</time></trkpt><trkpt lat="41.1906477" lon="15.0268535"><ele>488.5</ele><time>2026-04-19T10:58:03.029Z</time></trkpt><trkpt lat="41.19065" lon="15.0270526"><ele>490.0</ele><time>2026-04-19T10:58:04.029Z</time></trkpt><trkpt lat="41.1906431" lon="15.027247"><ele>490.0</ele><time>2026-04-19T10:58:04.956Z</time></trkpt><trkpt lat="41.1906408" lon="15.0274104"><ele>490.0</ele><time>2026-04-19T10:58:05.946Z</time></trkpt><trkpt lat="41.1906719" lon="15.0275524"><ele>490.0</ele><time>2026-04-19T10:58:07.04Z</time></trkpt><trkpt lat="41.1907288" lon="15.0276898"><ele>490.0</ele><time>2026-04-19T10:58:08.024Z</time></trkpt><trkpt lat="41.1908079" lon="15.0278341"><ele>496.4</ele><time>2026-04-19T10:58:09.029Z</time></trkpt><trkpt lat="41.1908689" lon="15.0279726"><ele>502.8</ele><time>2026-04-19T10:58:09.948Z</time></trkpt><trkpt lat="41.190917" lon="15.0280994"><ele>509.20000000000005</ele><time>2026-04-19T10:58:10.944Z</time></trkpt><trkpt lat="41.1909549" lon="15.0282135"><ele>515.6</ele><time>2026-04-19T10:58:11.999Z</time></trkpt><trkpt lat="41.1909943" lon="15.0283303"><ele>522.0</ele><time>2026-04-19T10:58:13.027Z</time></trkpt><trkpt lat="41.191043" lon="15.0284179"><ele>522.0</ele><time>2026-04-19T10:58:13.946Z</time></trkpt><trkpt lat="41.1910808" lon="15.028512"><ele>522.0</ele><time>2026-04-19T10:58:15.943Z</time></trkpt><trkpt lat="41.191012" lon="15.0285043"><ele>522.0</ele><time>2026-04-19T10:58:17.939Z</time></trkpt><trkpt lat="41.1909395" lon="15.0284367"><ele>522.0</ele><time>2026-04-19T10:58:18.95Z</time></trkpt><trkpt lat="41.1908622" lon="15.0283647"><ele>522.0</ele><time>2026-04-19T10:58:19.945Z</time></trkpt><trkpt lat="41.1907897" lon="15.0282781"><ele>522.0</ele><time>2026-04-19T10:58:21.025Z</time></trkpt><trkpt lat="41.1907253" lon="15.0281726"><ele>516.2</ele><time>2026-04-19T10:58:22.026Z</time></trkpt><trkpt lat="41.1906628" lon="15.0280601"><ele>510.40000000000003</ele><time>2026-04-19T10:58:22.952Z</time></trkpt><trkpt lat="41.1905945" lon="15.0279496"><ele>504.59999999999997</ele><time>2026-04-19T10:58:23.947Z</time></trkpt><trkpt lat="41.1905142" lon="15.0278598"><ele>498.79999999999995</ele><time>2026-04-19T10:58:24.949Z</time></trkpt><trkpt lat="41.1904237" lon="15.0277713"><ele>493.0</ele><time>2026-04-19T10:58:25.95Z</time></trkpt><trkpt lat="41.1903283" lon="15.0276949"><ele>493.0</ele><time>2026-04-19T10:58:26.951Z</time></trkpt><trkpt lat="41.1902161" lon="15.0276125"><ele>493.0</ele><time>2026-04-19T10:58:27.989Z</time></trkpt><trkpt lat="41.190102" lon="15.0275285"><ele>493.0</ele><time>2026-04-19T10:58:29.026Z</time></trkpt><trkpt lat="41.1899895" lon="15.0274527"><ele>493.0</ele><time>2026-04-19T10:58:29.976Z</time></trkpt><trkpt lat="41.1898729" lon="15.0273861"><ele>488.25</ele><time>2026-04-19T10:58:31.027Z</time></trkpt><trkpt lat="41.1897559" lon="15.027316"><ele>483.5</ele><time>2026-04-19T10:58:31.95Z</time></trkpt><trkpt lat="41.1896315" lon="15.0272489"><ele>478.75</ele><time>2026-04-19T10:58:32.951Z</time></trkpt><trkpt lat="41.1895053" lon="15.0271812"><ele>474.0</ele><time>2026-04-19T10:58:33.954Z</time></trkpt><trkpt lat="41.189382" lon="15.0271227"><ele>474.0</ele><time>2026-04-19T10:58:34.955Z</time></trkpt><trkpt lat="41.1892639" lon="15.0270728"><ele>474.0</ele><time>2026-04-19T10:58:35.949Z</time></trkpt><trkpt lat="41.1891427" lon="15.0270284"><ele>474.0</ele><time>2026-04-19T10:58:36.947Z</time></trkpt><trkpt lat="41.1890346" lon="15.026966"><ele>474.0</ele><time>2026-04-19T10:58:38.024Z</time></trkpt><trkpt lat="41.1889333" lon="15.0269117"><ele>473.2</ele><time>2026-04-19T10:58:38.967Z</time></trkpt><trkpt lat="41.188829" lon="15.0268576"><ele>472.4</ele><time>2026-04-19T10:58:39.952Z</time></trkpt><trkpt lat="41.188726" lon="15.0268043"><ele>471.6</ele><time>2026-04-19T10:58:41.031Z</time></trkpt><trkpt lat="41.1886255" lon="15.0267577"><ele>470.8</ele><time>2026-04-19T10:58:42.016Z</time></trkpt><trkpt lat="41.1885245" lon="15.0267146"><ele>470.0</ele><time>2026-04-19T10:58:42.946Z</time></trkpt><trkpt lat="41.1884268" lon="15.0266778"><ele>467.0</ele><time>2026-04-19T10:58:44.028Z</time></trkpt><trkpt lat="41.1883417" lon="15.0266348"><ele>464.0</ele><time>2026-04-19T10:58:44.954Z</time></trkpt><trkpt lat="41.1882568" lon="15.0265749"><ele>461.0</ele><time>2026-04-19T10:58:45.945Z</time></trkpt><trkpt lat="41.1881752" lon="15.0265125"><ele>458.0</ele><time>2026-04-19T10:58:46.972Z</time></trkpt><trkpt lat="41.1881033" lon="15.0264385"><ele>455.0</ele><time>2026-04-19T10:58:48.028Z</time></trkpt><trkpt lat="41.188029" lon="15.0263442"><ele>452.8</ele><time>2026-04-19T10:58:49.028Z</time></trkpt><trkpt lat="41.1879517" lon="15.0262503"><ele>450.6</ele><time>2026-04-19T10:58:49.942Z</time></trkpt><trkpt lat="41.1878792" lon="15.0261716"><ele>448.4</ele><time>2026-04-19T10:58:50.944Z</time></trkpt><trkpt lat="41.1877982" lon="15.0261096"><ele>446.2</ele><time>2026-04-19T10:58:51.948Z</time></trkpt><trkpt lat="41.1876975" lon="15.0260491"><ele>444.0</ele><time>2026-04-19T10:58:53.035Z</time></trkpt><trkpt lat="41.1875938" lon="15.0259934"><ele>444.0</ele><time>2026-04-19T10:58:54.027Z</time></trkpt><trkpt lat="41.1874909" lon="15.025941"><ele>444.0</ele><time>2026-04-19T10:58:54.949Z</time></trkpt><trkpt lat="41.1873838" lon="15.0258957"><ele>444.0</ele><time>2026-04-19T10:58:55.954Z</time></trkpt><trkpt lat="41.1872747" lon="15.0258594"><ele>444.0</ele><time>2026-04-19T10:58:56.951Z</time></trkpt><trkpt lat="41.1871754" lon="15.0258342"><ele>444.0</ele><time>2026-04-19T10:58:58.034Z</time></trkpt><trkpt lat="41.1870949" lon="15.025803"><ele>438.5</ele><time>2026-04-19T10:58:59.027Z</time></trkpt><trkpt lat="41.1870195" lon="15.0257725"><ele>433.0</ele><time>2026-04-19T10:58:59.956Z</time></trkpt><trkpt lat="41.1869514" lon="15.0257403"><ele>427.5</ele><time>2026-04-19T10:59:00.956Z</time></trkpt><trkpt lat="41.1868785" lon="15.0256937"><ele>422.0</ele><time>2026-04-19T10:59:01.984Z</time></trkpt><trkpt lat="41.1868044" lon="15.0256321"><ele>416.5</ele><time>2026-04-19T10:59:03.028Z</time></trkpt><trkpt lat="41.1867257" lon="15.0255616"><ele>411.0</ele><time>2026-04-19T10:59:03.951Z</time></trkpt><trkpt lat="41.1866423" lon="15.0254802"><ele>411.0</ele><time>2026-04-19T10:59:04.948Z</time></trkpt><trkpt lat="41.1865546" lon="15.0253997"><ele>411.0</ele><time>2026-04-19T10:59:05.937Z</time></trkpt><trkpt lat="41.1864714" lon="15.0253482"><ele>411.0</ele><time>2026-04-19T10:59:06.942Z</time></trkpt><trkpt lat="41.1863866" lon="15.0253063"><ele>411.0</ele><time>2026-04-19T10:59:07.944Z</time></trkpt><trkpt lat="41.1863042" lon="15.0252593"><ele>411.0</ele><time>2026-04-19T10:59:08.94Z</time></trkpt><trkpt lat="41.1862155" lon="15.0252047"><ele>407.4</ele><time>2026-04-19T10:59:09.944Z</time></trkpt><trkpt lat="41.1861205" lon="15.0251481"><ele>403.8</ele><time>2026-04-19T10:59:10.936Z</time></trkpt><trkpt lat="41.1860232" lon="15.0251177"><ele>400.2</ele><time>2026-04-19T10:59:11.946Z</time></trkpt><trkpt lat="41.1859309" lon="15.0250989"><ele>396.59999999999997</ele><time>2026-04-19T10:59:12.944Z</time></trkpt><trkpt lat="41.1858433" lon="15.0250722"><ele>393.0</ele><time>2026-04-19T10:59:13.947Z</time></trkpt><trkpt lat="41.1857575" lon="15.0250509"><ele>388.3333333333333</ele><time>2026-04-19T10:59:14.951Z</time></trkpt><trkpt lat="41.1856777" lon="15.0250208"><ele>383.6666666666667</ele><time>2026-04-19T10:59:15.95Z</time></trkpt><trkpt lat="41.1856026" lon="15.02499"><ele>379.0</ele><time>2026-04-19T10:59:16.954Z</time></trkpt><trkpt lat="41.1855281" lon="15.0249513"><ele>374.33333333333337</ele><time>2026-04-19T10:59:17.951Z</time></trkpt><trkpt lat="41.1854578" lon="15.0249073"><ele>369.6666666666667</ele><time>2026-04-19T10:59:18.95Z</time></trkpt><trkpt lat="41.185375" lon="15.0248583"><ele>365.0</ele><time>2026-04-19T10:59:19.949Z</time></trkpt><trkpt lat="41.1852755" lon="15.0248147"><ele>365.0</ele><time>2026-04-19T10:59:20.949Z</time></trkpt><trkpt lat="41.1851778" lon="15.0247889"><ele>365.0</ele><time>2026-04-19T10:59:21.943Z</time></trkpt><trkpt lat="41.185084" lon="15.0247908"><ele>365.0</ele><time>2026-04-19T10:59:22.942Z</time></trkpt><trkpt lat="41.1850074" lon="15.0248142"><ele>365.0</ele><time>2026-04-19T10:59:23.95Z</time></trkpt><trkpt lat="41.1849343" lon="15.0248473"><ele>365.0</ele><time>2026-04-19T10:59:24.941Z</time></trkpt><trkpt lat="41.1848552" lon="15.0248701"><ele>365.0</ele><time>2026-04-19T10:59:25.952Z</time></trkpt><trkpt lat="41.1847659" lon="15.0248864"><ele>360.0</ele><time>2026-04-19T10:59:26.949Z</time></trkpt><trkpt lat="41.1846725" lon="15.0249059"><ele>355.0</ele><time>2026-04-19T10:59:27.941Z</time></trkpt><trkpt lat="41.1845831" lon="15.0249254"><ele>350.0</ele><time>2026-04-19T10:59:28.95Z</time></trkpt><trkpt lat="41.1844939" lon="15.0249376"><ele>345.0</ele><time>2026-04-19T10:59:29.948Z</time></trkpt><trkpt lat="41.184394" lon="15.0249462"><ele>340.0</ele><time>2026-04-19T10:59:30.948Z</time></trkpt><trkpt lat="41.1842998" lon="15.024954"><ele>340.0</ele><time>2026-04-19T10:59:31.947Z</time></trkpt><trkpt lat="41.1842253" lon="15.0249366"><ele>340.0</ele><time>2026-04-19T10:59:32.952Z</time></trkpt><trkpt lat="41.1841532" lon="15.0249"><ele>340.0</ele><time>2026-04-19T10:59:33.942Z</time></trkpt><trkpt lat="41.1840805" lon="15.0248499"><ele>340.0</ele><time>2026-04-19T10:59:34.946Z</time></trkpt><trkpt lat="41.1839887" lon="15.0248058"><ele>340.0</ele><time>2026-04-19T10:59:35.947Z</time></trkpt><trkpt lat="41.1838743" lon="15.02478"><ele>340.0</ele><time>2026-04-19T10:59:36.943Z</time></trkpt><trkpt lat="41.1837663" lon="15.0247586"><ele>337.6</ele><time>2026-04-19T10:59:37.957Z</time></trkpt><trkpt lat="41.1836803" lon="15.0247332"><ele>335.2</ele><time>2026-04-19T10:59:38.942Z</time></trkpt><trkpt lat="41.1836058" lon="15.0246789"><ele>332.79999999999995</ele><time>2026-04-19T10:59:39.94Z</time></trkpt><trkpt lat="41.183549" lon="15.0246132"><ele>330.4</ele><time>2026-04-19T10:59:40.944Z</time></trkpt><trkpt lat="41.1834734" lon="15.0244958"><ele>328.0</ele><time>2026-04-19T10:59:42.95Z</time></trkpt><trkpt lat="41.183397" lon="15.024413"><ele>328.0</ele><time>2026-04-19T10:59:44.954Z</time></trkpt><trkpt lat="41.1833059" lon="15.0243893"><ele>328.0</ele><time>2026-04-19T10:59:47.025Z</time></trkpt><trkpt lat="41.1832244" lon="15.0243801"><ele>328.0</ele><time>2026-04-19T10:59:48.965Z</time></trkpt><trkpt lat="41.183116" lon="15.0243329"><ele>328.0</ele><time>2026-04-19T10:59:51.028Z</time></trkpt><trkpt lat="41.1830435" lon="15.0242252"><ele>328.0</ele><time>2026-04-19T10:59:52.951Z</time></trkpt><trkpt lat="41.1829364" lon="15.0241538"><ele>329.59999999999997</ele><time>2026-04-19T10:59:54.949Z</time></trkpt><trkpt lat="41.1828651" lon="15.0241592"><ele>331.2</ele><time>2026-04-19T10:59:55.947Z</time></trkpt><trkpt lat="41.1827725" lon="15.024192"><ele>332.8</ele><time>2026-04-19T10:59:56.949Z</time></trkpt><trkpt lat="41.1826659" lon="15.0242499"><ele>334.4</ele><time>2026-04-19T10:59:57.945Z</time></trkpt><trkpt lat="41.1825698" lon="15.0242868"><ele>336.0</ele><time>2026-04-19T10:59:58.955Z</time></trkpt><trkpt lat="41.1824796" lon="15.0242941"><ele>336.0</ele><time>2026-04-19T10:59:59.946Z</time></trkpt><trkpt lat="41.1823525" lon="15.0242749"><ele>336.0</ele><time>2026-04-19T11:00:00.95Z</time></trkpt><trkpt lat="41.1822164" lon="15.0242606"><ele>336.0</ele><time>2026-04-19T11:00:01.947Z</time></trkpt><trkpt lat="41.1820941" lon="15.0242176"><ele>336.0</ele><time>2026-04-19T11:00:02.945Z</time></trkpt><trkpt lat="41.1819904" lon="15.0241672"><ele>337.8</ele><time>2026-04-19T11:00:03.948Z</time></trkpt><trkpt lat="41.1818862" lon="15.0241221"><ele>339.6</ele><time>2026-04-19T11:00:04.948Z</time></trkpt><trkpt lat="41.1817836" lon="15.0240896"><ele>341.4</ele><time>2026-04-19T11:00:05.948Z</time></trkpt><trkpt lat="41.1816997" lon="15.024085"><ele>343.2</ele><time>2026-04-19T11:00:06.951Z</time></trkpt><trkpt lat="41.1816353" lon="15.0241208"><ele>345.0</ele><time>2026-04-19T11:00:08.03Z</time></trkpt><trkpt lat="41.181564" lon="15.0241764"><ele>346.8</ele><time>2026-04-19T11:00:09.029Z</time></trkpt><trkpt lat="41.1814733" lon="15.0242205"><ele>348.6</ele><time>2026-04-19T11:00:09.947Z</time></trkpt><trkpt lat="41.1813685" lon="15.0242303"><ele>350.4</ele><time>2026-04-19T11:00:11.014Z</time></trkpt><trkpt lat="41.1812795" lon="15.0242088"><ele>352.2</ele><time>2026-04-19T11:00:11.96Z</time></trkpt><trkpt lat="41.1811969" lon="15.0241852"><ele>354.0</ele><time>2026-04-19T11:00:13.03Z</time></trkpt><trkpt lat="41.1811341" lon="15.0241276"><ele>356.6</ele><time>2026-04-19T11:00:14.025Z</time></trkpt><trkpt lat="41.1811033" lon="15.024031"><ele>359.2</ele><time>2026-04-19T11:00:14.979Z</time></trkpt><trkpt lat="41.1810794" lon="15.0239014"><ele>361.8</ele><time>2026-04-19T11:00:15.963Z</time></trkpt><trkpt lat="41.1810501" lon="15.0237629"><ele>364.40000000000003</ele><time>2026-04-19T11:00:16.955Z</time></trkpt><trkpt lat="41.1810146" lon="15.0236175"><ele>367.0</ele><time>2026-04-19T11:00:17.962Z</time></trkpt><trkpt lat="41.1809773" lon="15.0234756"><ele>367.0</ele><time>2026-04-19T11:00:18.966Z</time></trkpt><trkpt lat="41.1809545" lon="15.0233399"><ele>367.0</ele><time>2026-04-19T11:00:19.965Z</time></trkpt><trkpt lat="41.1809645" lon="15.0232397"><ele>367.0</ele><time>2026-04-19T11:00:20.966Z</time></trkpt><trkpt lat="41.1810246" lon="15.0231876"><ele>367.0</ele><time>2026-04-19T11:00:22.028Z</time></trkpt><trkpt lat="41.1811021" lon="15.0231652"><ele>367.0</ele><time>2026-04-19T11:00:23.029Z</time></trkpt><trkpt lat="41.1812082" lon="15.0231479"><ele>367.0</ele><time>2026-04-19T11:00:24.031Z</time></trkpt><trkpt lat="41.1813381" lon="15.0231416"><ele>368.20000000000005</ele><time>2026-04-19T11:00:24.963Z</time></trkpt><trkpt lat="41.18147" lon="15.0231598"><ele>369.4</ele><time>2026-04-19T11:00:25.964Z</time></trkpt><trkpt lat="41.1815857" lon="15.0231887"><ele>370.6</ele><time>2026-04-19T11:00:27.083Z</time></trkpt><trkpt lat="41.1816882" lon="15.0232315"><ele>371.79999999999995</ele><time>2026-04-19T11:00:28.03Z</time></trkpt><trkpt lat="41.1817663" lon="15.0232233"><ele>373.0</ele><time>2026-04-19T11:00:29.957Z</time></trkpt><trkpt lat="41.181752" lon="15.0231407"><ele>373.0</ele><time>2026-04-19T11:00:31.971Z</time></trkpt><trkpt lat="41.1817104" lon="15.02303"><ele>373.0</ele><time>2026-04-19T11:00:32.964Z</time></trkpt><trkpt lat="41.181675" lon="15.0229053"><ele>373.0</ele><time>2026-04-19T11:00:33.962Z</time></trkpt><trkpt lat="41.1816366" lon="15.0227495"><ele>373.0</ele><time>2026-04-19T11:00:34.963Z</time></trkpt><trkpt lat="41.1815768" lon="15.0225906"><ele>378.75</ele><time>2026-04-19T11:00:35.96Z</time></trkpt><trkpt lat="41.1815064" lon="15.0224383"><ele>384.5</ele><time>2026-04-19T11:00:36.956Z</time></trkpt><trkpt lat="41.1814365" lon="15.0223104"><ele>390.25</ele><time>2026-04-19T11:00:37.955Z</time></trkpt><trkpt lat="41.1813397" lon="15.0221785"><ele>396.0</ele><time>2026-04-19T11:00:38.96Z</time></trkpt><trkpt lat="41.181246" lon="15.0220786"><ele>396.0</ele><time>2026-04-19T11:00:39.962Z</time></trkpt><trkpt lat="41.181175" lon="15.0220122"><ele>396.0</ele><time>2026-04-19T11:00:40.958Z</time></trkpt><trkpt lat="41.1811152" lon="15.0219302"><ele>396.0</ele><time>2026-04-19T11:00:41.977Z</time></trkpt><trkpt lat="41.1810667" lon="15.0218386"><ele>396.0</ele><time>2026-04-19T11:00:42.959Z</time></trkpt><trkpt lat="41.1810252" lon="15.021726"><ele>396.0</ele><time>2026-04-19T11:00:43.954Z</time></trkpt><trkpt lat="41.1809869" lon="15.0215845"><ele>400.25</ele><time>2026-04-19T11:00:44.962Z</time></trkpt><trkpt lat="41.1809436" lon="15.0214249"><ele>404.5</ele><time>2026-04-19T11:00:45.954Z</time></trkpt><trkpt lat="41.1808965" lon="15.0212874"><ele>408.75</ele><time>2026-04-19T11:00:46.961Z</time></trkpt><trkpt lat="41.1808426" lon="15.0211648"><ele>413.0</ele><time>2026-04-19T11:00:47.963Z</time></trkpt><trkpt lat="41.1807871" lon="15.021041"><ele>413.0</ele><time>2026-04-19T11:00:48.961Z</time></trkpt><trkpt lat="41.1807247" lon="15.0209013"><ele>413.0</ele><time>2026-04-19T11:00:49.955Z</time></trkpt><trkpt lat="41.1806506" lon="15.0207602"><ele>413.0</ele><time>2026-04-19T11:00:50.96Z</time></trkpt><trkpt lat="41.1805751" lon="15.0206405"><ele>413.0</ele><time>2026-04-19T11:00:51.961Z</time></trkpt><trkpt lat="41.180496" lon="15.0205303"><ele>416.5</ele><time>2026-04-19T11:00:53.018Z</time></trkpt><trkpt lat="41.1804224" lon="15.0204095"><ele>420.0</ele><time>2026-04-19T11:00:54.03Z</time></trkpt><trkpt lat="41.1803575" lon="15.0202792"><ele>423.5</ele><time>2026-04-19T11:00:54.952Z</time></trkpt><trkpt lat="41.1802919" lon="15.0201636"><ele>427.0</ele><time>2026-04-19T11:00:55.951Z</time></trkpt><trkpt lat="41.1802189" lon="15.0200522"><ele>427.5</ele><time>2026-04-19T11:00:57.056Z</time></trkpt><trkpt lat="41.1801368" lon="15.019939"><ele>428.0</ele><time>2026-04-19T11:00:58.031Z</time></trkpt><trkpt lat="41.180059" lon="15.0198275"><ele>428.5</ele><time>2026-04-19T11:00:59.028Z</time></trkpt><trkpt lat="41.1799787" lon="15.0197089"><ele>429.0</ele><time>2026-04-19T11:00:59.954Z</time></trkpt><trkpt lat="41.1798829" lon="15.0195834"><ele>433.0</ele><time>2026-04-19T11:01:00.961Z</time></trkpt><trkpt lat="41.1797961" lon="15.0194631"><ele>437.0</ele><time>2026-04-19T11:01:02.063Z</time></trkpt><trkpt lat="41.1797217" lon="15.0193657"><ele>441.0</ele><time>2026-04-19T11:01:03.025Z</time></trkpt><trkpt lat="41.1796429" lon="15.0192582"><ele>445.0</ele><time>2026-04-19T11:01:03.964Z</time></trkpt><trkpt lat="41.1795616" lon="15.0191404"><ele>445.25</ele><time>2026-04-19T11:01:04.948Z</time></trkpt><trkpt lat="41.179484" lon="15.0190213"><ele>445.5</ele><time>2026-04-19T11:01:05.951Z</time></trkpt><trkpt lat="41.1794034" lon="15.0188891"><ele>445.75</ele><time>2026-04-19T11:01:07.03Z</time></trkpt><trkpt lat="41.1793301" lon="15.0187621"><ele>446.0</ele><time>2026-04-19T11:01:08.027Z</time></trkpt><trkpt lat="41.1792597" lon="15.0186251"><ele>446.0</ele><time>2026-04-19T11:01:08.958Z</time></trkpt><trkpt lat="41.1791802" lon="15.0184834"><ele>446.0</ele><time>2026-04-19T11:01:09.955Z</time></trkpt><trkpt lat="41.1791077" lon="15.0183559"><ele>446.0</ele><time>2026-04-19T11:01:10.958Z</time></trkpt><trkpt lat="41.1790591" lon="15.0182573"><ele>446.0</ele><time>2026-04-19T11:01:11.948Z</time></trkpt><trkpt lat="41.1790141" lon="15.0180992"><ele>447.0</ele><time>2026-04-19T11:01:13.954Z</time></trkpt><trkpt lat="41.1789711" lon="15.0180142"><ele>448.0</ele><time>2026-04-19T11:01:14.951Z</time></trkpt><trkpt lat="41.1789141" lon="15.0179225"><ele>449.0</ele><time>2026-04-19T11:01:15.949Z</time></trkpt><trkpt lat="41.1788465" lon="15.0178193"><ele>450.0</ele><time>2026-04-19T11:01:17.017Z</time></trkpt><trkpt lat="41.1787666" lon="15.0176998"><ele>451.0</ele><time>2026-04-19T11:01:17.951Z</time></trkpt><trkpt lat="41.178682" lon="15.0175584"><ele>448.75</ele><time>2026-04-19T11:01:18.954Z</time></trkpt><trkpt lat="41.1785941" lon="15.0174059"><ele>446.5</ele><time>2026-04-19T11:01:19.953Z</time></trkpt><trkpt lat="41.1785159" lon="15.0172538"><ele>444.25</ele><time>2026-04-19T11:01:20.951Z</time></trkpt><trkpt lat="41.1784344" lon="15.0171047"><ele>442.0</ele><time>2026-04-19T11:01:21.95Z</time></trkpt><trkpt lat="41.1783521" lon="15.0169591"><ele>442.0</ele><time>2026-04-19T11:01:22.959Z</time></trkpt><trkpt lat="41.1782527" lon="15.0168192"><ele>442.0</ele><time>2026-04-19T11:01:23.953Z</time></trkpt><trkpt lat="41.1781487" lon="15.0166727"><ele>442.0</ele><time>2026-04-19T11:01:24.948Z</time></trkpt><trkpt lat="41.178039" lon="15.0165388"><ele>442.0</ele><time>2026-04-19T11:01:25.956Z</time></trkpt><trkpt lat="41.1779231" lon="15.0164173"><ele>440.75</ele><time>2026-04-19T11:01:26.951Z</time></trkpt><trkpt lat="41.1778053" lon="15.0162994"><ele>439.5</ele><time>2026-04-19T11:01:27.959Z</time></trkpt><trkpt lat="41.1776941" lon="15.0161917"><ele>438.25</ele><time>2026-04-19T11:01:28.954Z</time></trkpt><trkpt lat="41.1775957" lon="15.016089"><ele>437.0</ele><time>2026-04-19T11:01:29.951Z</time></trkpt><trkpt lat="41.1774818" lon="15.0160054"><ele>437.0</ele><time>2026-04-19T11:01:30.951Z</time></trkpt><trkpt lat="41.1773539" lon="15.0159396"><ele>437.0</ele><time>2026-04-19T11:01:31.948Z</time></trkpt><trkpt lat="41.1772221" lon="15.0158792"><ele>437.0</ele><time>2026-04-19T11:01:32.954Z</time></trkpt><trkpt lat="41.1770869" lon="15.0158489"><ele>437.0</ele><time>2026-04-19T11:01:33.957Z</time></trkpt><trkpt lat="41.1769482" lon="15.0158381"><ele>437.75</ele><time>2026-04-19T11:01:34.957Z</time></trkpt><trkpt lat="41.1768105" lon="15.0158497"><ele>438.5</ele><time>2026-04-19T11:01:35.945Z</time></trkpt><trkpt lat="41.1766738" lon="15.0158616"><ele>439.25</ele><time>2026-04-19T11:01:37.027Z</time></trkpt><trkpt lat="41.1765497" lon="15.0158687"><ele>440.0</ele><time>2026-04-19T11:01:38.025Z</time></trkpt><trkpt lat="41.1764475" lon="15.0158448"><ele>439.8</ele><time>2026-04-19T11:01:39.033Z</time></trkpt><trkpt lat="41.1763645" lon="15.015777"><ele>439.6</ele><time>2026-04-19T11:01:39.957Z</time></trkpt><trkpt lat="41.1762916" lon="15.0156861"><ele>439.4</ele><time>2026-04-19T11:01:40.956Z</time></trkpt><trkpt lat="41.1762135" lon="15.0156002"><ele>439.2</ele><time>2026-04-19T11:01:41.994Z</time></trkpt><trkpt lat="41.1761176" lon="15.0155261"><ele>439.0</ele><time>2026-04-19T11:01:43.023Z</time></trkpt><trkpt lat="41.1759987" lon="15.0154678"><ele>439.0</ele><time>2026-04-19T11:01:44.048Z</time></trkpt><trkpt lat="41.1758692" lon="15.015421"><ele>439.0</ele><time>2026-04-19T11:01:44.955Z</time></trkpt><trkpt lat="41.1757356" lon="15.0153755"><ele>439.0</ele><time>2026-04-19T11:01:45.959Z</time></trkpt><trkpt lat="41.1756042" lon="15.0153238"><ele>439.0</ele><time>2026-04-19T11:01:46.974Z</time></trkpt><trkpt lat="41.1754708" lon="15.0152714"><ele>439.0</ele><time>2026-04-19T11:01:47.957Z</time></trkpt><trkpt lat="41.1753402" lon="15.0152263"><ele>439.0</ele><time>2026-04-19T11:01:49.033Z</time></trkpt><trkpt lat="41.1752001" lon="15.0151704"><ele>439.0</ele><time>2026-04-19T11:01:49.958Z</time></trkpt><trkpt lat="41.175054" lon="15.0151093"><ele>439.0</ele><time>2026-04-19T11:01:50.958Z</time></trkpt><trkpt lat="41.1749031" lon="15.0150455"><ele>438.0</ele><time>2026-04-19T11:01:51.956Z</time></trkpt><trkpt lat="41.1747452" lon="15.0149778"><ele>437.0</ele><time>2026-04-19T11:01:53.048Z</time></trkpt><trkpt lat="41.1745919" lon="15.0149163"><ele>436.0</ele><time>2026-04-19T11:01:53.948Z</time></trkpt><trkpt lat="41.1744343" lon="15.0148504"><ele>436.0</ele><time>2026-04-19T11:01:54.946Z</time></trkpt><trkpt lat="41.1742753" lon="15.0147839"><ele>436.0</ele><time>2026-04-19T11:01:55.946Z</time></trkpt><trkpt lat="41.174121" lon="15.0147204"><ele>436.0</ele><time>2026-04-19T11:01:56.971Z</time></trkpt><trkpt lat="41.1739638" lon="15.0146503"><ele>434.6666666666667</ele><time>2026-04-19T11:01:57.951Z</time></trkpt><trkpt lat="41.1738132" lon="15.0145853"><ele>433.33333333333337</ele><time>2026-04-19T11:01:58.947Z</time></trkpt><trkpt lat="41.1736663" lon="15.0145131"><ele>432.0</ele><time>2026-04-19T11:01:59.943Z</time></trkpt><trkpt lat="41.1735224" lon="15.0144244"><ele>432.0</ele><time>2026-04-19T11:02:00.946Z</time></trkpt><trkpt lat="41.173375" lon="15.0143176"><ele>432.0</ele><time>2026-04-19T11:02:01.951Z</time></trkpt><trkpt lat="41.1732314" lon="15.0142072"><ele>432.0</ele><time>2026-04-19T11:02:02.948Z</time></trkpt><trkpt lat="41.1730859" lon="15.0140975"><ele>431.66666666666663</ele><time>2026-04-19T11:02:03.947Z</time></trkpt><trkpt lat="41.1729384" lon="15.0139894"><ele>431.3333333333333</ele><time>2026-04-19T11:02:04.947Z</time></trkpt><trkpt lat="41.1727904" lon="15.0138761"><ele>431.0</ele><time>2026-04-19T11:02:05.945Z</time></trkpt><trkpt lat="41.1726379" lon="15.0137655"><ele>431.0</ele><time>2026-04-19T11:02:07.018Z</time></trkpt><trkpt lat="41.1724887" lon="15.0136547"><ele>431.0</ele><time>2026-04-19T11:02:07.938Z</time></trkpt><trkpt lat="41.1723439" lon="15.0135416"><ele>431.0</ele><time>2026-04-19T11:02:08.944Z</time></trkpt><trkpt lat="41.1721989" lon="15.0134379"><ele>431.0</ele><time>2026-04-19T11:02:09.948Z</time></trkpt><trkpt lat="41.1720676" lon="15.0133423"><ele>431.0</ele><time>2026-04-19T11:02:10.95Z</time></trkpt><trkpt lat="41.17196" lon="15.013259"><ele>431.0</ele><time>2026-04-19T11:02:11.949Z</time></trkpt><trkpt lat="41.1718774" lon="15.01319"><ele>431.0</ele><time>2026-04-19T11:02:12.945Z</time></trkpt><trkpt lat="41.1718192" lon="15.0131267"><ele>431.0</ele><time>2026-04-19T11:02:14.035Z</time></trkpt><trkpt lat="41.1717715" lon="15.0129849"><ele>431.20000000000005</ele><time>2026-04-19T11:02:15.944Z</time></trkpt><trkpt lat="41.1717857" lon="15.0128823"><ele>431.40000000000003</ele><time>2026-04-19T11:02:16.951Z</time></trkpt><trkpt lat="41.171814" lon="15.0127403"><ele>431.6</ele><time>2026-04-19T11:02:17.949Z</time></trkpt><trkpt lat="41.1718302" lon="15.0125812"><ele>431.8</ele><time>2026-04-19T11:02:18.95Z</time></trkpt><trkpt lat="41.1718412" lon="15.0123995"><ele>432.0</ele><time>2026-04-19T11:02:19.95Z</time></trkpt><trkpt lat="41.1718567" lon="15.0122058"><ele>432.33333333333337</ele><time>2026-04-19T11:02:20.954Z</time></trkpt><trkpt lat="41.1718755" lon="15.0120017"><ele>432.6666666666667</ele><time>2026-04-19T11:02:21.946Z</time></trkpt><trkpt lat="41.1718922" lon="15.0117854"><ele>433.0</ele><time>2026-04-19T11:02:23.026Z</time></trkpt><trkpt lat="41.1719095" lon="15.0115673"><ele>434.33333333333337</ele><time>2026-04-19T11:02:24.023Z</time></trkpt><trkpt lat="41.1719286" lon="15.0113525"><ele>435.66666666666663</ele><time>2026-04-19T11:02:24.953Z</time></trkpt><trkpt lat="41.1719448" lon="15.0111359"><ele>437.0</ele><time>2026-04-19T11:02:25.956Z</time></trkpt><trkpt lat="41.1719653" lon="15.0109135"><ele>439.0</ele><time>2026-04-19T11:02:26.959Z</time></trkpt><trkpt lat="41.1719829" lon="15.0106865"><ele>441.0</ele><time>2026-04-19T11:02:28.031Z</time></trkpt><trkpt lat="41.1720038" lon="15.0104707"><ele>443.0</ele><time>2026-04-19T11:02:29.034Z</time></trkpt><trkpt lat="41.1720311" lon="15.0102629"><ele>443.0</ele><time>2026-04-19T11:02:29.965Z</time></trkpt><trkpt lat="41.17206" lon="15.0100623"><ele>443.0</ele><time>2026-04-19T11:02:30.966Z</time></trkpt><trkpt lat="41.1720902" lon="15.0098853"><ele>443.0</ele><time>2026-04-19T11:02:31.956Z</time></trkpt><trkpt lat="41.1721178" lon="15.0097266"><ele>443.0</ele><time>2026-04-19T11:02:32.971Z</time></trkpt><trkpt lat="41.1721322" lon="15.0095718"><ele>445.0</ele><time>2026-04-19T11:02:34.024Z</time></trkpt><trkpt lat="41.1721602" lon="15.0094332"><ele>447.0</ele><time>2026-04-19T11:02:34.969Z</time></trkpt><trkpt lat="41.1722085" lon="15.00931"><ele>449.0</ele><time>2026-04-19T11:02:35.958Z</time></trkpt><trkpt lat="41.1722754" lon="15.0091757"><ele>451.0</ele><time>2026-04-19T11:02:36.993Z</time></trkpt><trkpt lat="41.1723403" lon="15.0090278"><ele>453.5</ele><time>2026-04-19T11:02:38.032Z</time></trkpt><trkpt lat="41.1724015" lon="15.0088677"><ele>456.0</ele><time>2026-04-19T11:02:39.027Z</time></trkpt><trkpt lat="41.1724668" lon="15.0087066"><ele>458.5</ele><time>2026-04-19T11:02:39.954Z</time></trkpt><trkpt lat="41.1725431" lon="15.0085479"><ele>461.0</ele><time>2026-04-19T11:02:40.953Z</time></trkpt><trkpt lat="41.1726027" lon="15.0084024"><ele>460.4</ele><time>2026-04-19T11:02:41.974Z</time></trkpt><trkpt lat="41.1726349" lon="15.0082734"><ele>459.8</ele><time>2026-04-19T11:02:43.031Z</time></trkpt><trkpt lat="41.1726306" lon="15.0081362"><ele>459.19999999999993</ele><time>2026-04-19T11:02:44.026Z</time></trkpt><trkpt lat="41.1726002" lon="15.0079737"><ele>458.59999999999997</ele><time>2026-04-19T11:02:44.964Z</time></trkpt><trkpt lat="41.1725814" lon="15.0078204"><ele>458.0</ele><time>2026-04-19T11:02:45.957Z</time></trkpt><trkpt lat="41.1725684" lon="15.0077187"><ele>457.99999999999994</ele><time>2026-04-19T11:02:47.036Z</time></trkpt><trkpt lat="41.1725354" lon="15.0076155"><ele>458.0</ele><time>2026-04-19T11:02:48.959Z</time></trkpt><trkpt lat="41.1725079" lon="15.0075368"><ele>458.0</ele><time>2026-04-19T11:02:49.958Z</time></trkpt><trkpt lat="41.1724734" lon="15.0074401"><ele>458.0</ele><time>2026-04-19T11:02:50.956Z</time></trkpt><trkpt lat="41.1724233" lon="15.0073268"><ele>457.99999999999994</ele><time>2026-04-19T11:02:51.96Z</time></trkpt><trkpt lat="41.1723746" lon="15.0072127"><ele>458.0</ele><time>2026-04-19T11:02:53.042Z</time></trkpt><trkpt lat="41.1723319" lon="15.0071058"><ele>456.99999999999994</ele><time>2026-04-19T11:02:54.024Z</time></trkpt><trkpt lat="41.1722873" lon="15.0070043"><ele>456.0</ele><time>2026-04-19T11:02:54.959Z</time></trkpt><trkpt lat="41.1722445" lon="15.0069189"><ele>455.0</ele><time>2026-04-19T11:02:55.963Z</time></trkpt><trkpt lat="41.1722041" lon="15.0068506"><ele>454.0</ele><time>2026-04-19T11:02:56.962Z</time></trkpt><trkpt lat="41.1721524" lon="15.0067886"><ele>452.99999999999994</ele><time>2026-04-19T11:02:57.961Z</time></trkpt><trkpt lat="41.1720828" lon="15.006728"><ele>452.0</ele><time>2026-04-19T11:02:58.962Z</time></trkpt><trkpt lat="41.1719993" lon="15.0066686"><ele>448.0</ele><time>2026-04-19T11:02:59.965Z</time></trkpt><trkpt lat="41.1719244" lon="15.006615"><ele>444.00000000000006</ele><time>2026-04-19T11:03:00.97Z</time></trkpt><trkpt lat="41.171866" lon="15.006557"><ele>440.00000000000006</ele><time>2026-04-19T11:03:01.985Z</time></trkpt><trkpt lat="41.1718187" lon="15.0064941"><ele>436.0</ele><time>2026-04-19T11:03:02.961Z</time></trkpt><trkpt lat="41.171757" lon="15.0063587"><ele>432.0</ele><time>2026-04-19T11:03:04.953Z</time></trkpt><trkpt lat="41.1717095" lon="15.0061995"><ele>432.0</ele><time>2026-04-19T11:03:06.943Z</time></trkpt><trkpt lat="41.1716792" lon="15.0061227"><ele>432.00000000000006</ele><time>2026-04-19T11:03:07.95Z</time></trkpt><trkpt lat="41.1716663" lon="15.0059851"><ele>432.00000000000006</ele><time>2026-04-19T11:03:09.95Z</time></trkpt><trkpt lat="41.171726" lon="15.005829"><ele>432.0</ele><time>2026-04-19T11:03:11.959Z</time></trkpt><trkpt lat="41.1717542" lon="15.0057474"><ele>432.0</ele><time>2026-04-19T11:03:12.949Z</time></trkpt><trkpt lat="41.1717503" lon="15.0055724"><ele>430.0</ele><time>2026-04-19T11:03:14.96Z</time></trkpt><trkpt lat="41.1717253" lon="15.0054741"><ele>428.0</ele><time>2026-04-19T11:03:15.953Z</time></trkpt><trkpt lat="41.1716811" lon="15.0053719"><ele>426.0</ele><time>2026-04-19T11:03:16.96Z</time></trkpt><trkpt lat="41.1716342" lon="15.0052594"><ele>424.0</ele><time>2026-04-19T11:03:18.019Z</time></trkpt><trkpt lat="41.1715895" lon="15.0051567"><ele>422.0</ele><time>2026-04-19T11:03:19.038Z</time></trkpt><trkpt lat="41.1715455" lon="15.0050625"><ele>420.0</ele><time>2026-04-19T11:03:19.959Z</time></trkpt><trkpt lat="41.1715035" lon="15.0049709"><ele>415.0</ele><time>2026-04-19T11:03:20.959Z</time></trkpt><trkpt lat="41.1714658" lon="15.004892"><ele>410.0</ele><time>2026-04-19T11:03:22.052Z</time></trkpt><trkpt lat="41.171429" lon="15.004817"><ele>405.0</ele><time>2026-04-19T11:03:22.988Z</time></trkpt><trkpt lat="41.1713812" lon="15.00469"><ele>400.0</ele><time>2026-04-19T11:03:24.954Z</time></trkpt><trkpt lat="41.1712938" lon="15.0046342"><ele>395.0</ele><time>2026-04-19T11:03:26.966Z</time></trkpt><trkpt lat="41.1711977" lon="15.0046144"><ele>390.0</ele><time>2026-04-19T11:03:27.949Z</time></trkpt><trkpt lat="41.1710883" lon="15.0046023"><ele>390.0</ele><time>2026-04-19T11:03:29.031Z</time></trkpt><trkpt lat="41.1709717" lon="15.0046185"><ele>390.0</ele><time>2026-04-19T11:03:29.945Z</time></trkpt><trkpt lat="41.1708776" lon="15.0046636"><ele>390.0</ele><time>2026-04-19T11:03:30.95Z</time></trkpt><trkpt lat="41.1707886" lon="15.0047208"><ele>390.0</ele><time>2026-04-19T11:03:32.065Z</time></trkpt><trkpt lat="41.1707036" lon="15.0047684"><ele>390.0</ele><time>2026-04-19T11:03:33.024Z</time></trkpt><trkpt lat="41.1706035" lon="15.0048228"><ele>388.0</ele><time>2026-04-19T11:03:34.024Z</time></trkpt><trkpt lat="41.1705169" lon="15.0048553"><ele>386.0</ele><time>2026-04-19T11:03:34.948Z</time></trkpt><trkpt lat="41.1704406" lon="15.0048544"><ele>384.0</ele><time>2026-04-19T11:03:35.947Z</time></trkpt><trkpt lat="41.1703415" lon="15.0048512"><ele>382.0</ele><time>2026-04-19T11:03:36.952Z</time></trkpt><trkpt lat="41.1702418" lon="15.0048442"><ele>380.0</ele><time>2026-04-19T11:03:37.953Z</time></trkpt><trkpt lat="41.1701276" lon="15.0048565"><ele>380.0</ele><time>2026-04-19T11:03:38.942Z</time></trkpt><trkpt lat="41.1700092" lon="15.0048822"><ele>380.0</ele><time>2026-04-19T11:03:39.941Z</time></trkpt><trkpt lat="41.169892" lon="15.0049163"><ele>380.0</ele><time>2026-04-19T11:03:40.948Z</time></trkpt><trkpt lat="41.1697815" lon="15.0049453"><ele>380.0</ele><time>2026-04-19T11:03:41.947Z</time></trkpt><trkpt lat="41.1696782" lon="15.0049588"><ele>380.2</ele><time>2026-04-19T11:03:43.03Z</time></trkpt><trkpt lat="41.1695717" lon="15.0049553"><ele>380.4</ele><time>2026-04-19T11:03:44.025Z</time></trkpt><trkpt lat="41.169458" lon="15.0049563"><ele>380.6</ele><time>2026-04-19T11:03:44.945Z</time></trkpt><trkpt lat="41.1693512" lon="15.004963"><ele>380.8</ele><time>2026-04-19T11:03:45.947Z</time></trkpt><trkpt lat="41.1692602" lon="15.0049703"><ele>381.0</ele><time>2026-04-19T11:03:46.953Z</time></trkpt><trkpt lat="41.1691689" lon="15.0049443"><ele>381.0</ele><time>2026-04-19T11:03:47.941Z</time></trkpt><trkpt lat="41.1690796" lon="15.0048875"><ele>381.0</ele><time>2026-04-19T11:03:48.943Z</time></trkpt><trkpt lat="41.1689913" lon="15.0048149"><ele>381.0</ele><time>2026-04-19T11:03:49.942Z</time></trkpt><trkpt lat="41.1689067" lon="15.0047441"><ele>381.0</ele><time>2026-04-19T11:03:50.941Z</time></trkpt><trkpt lat="41.1688253" lon="15.004698"><ele>381.0</ele><time>2026-04-19T11:03:52.032Z</time></trkpt><trkpt lat="41.1687401" lon="15.0046698"><ele>384.4</ele><time>2026-04-19T11:03:53.028Z</time></trkpt><trkpt lat="41.1686484" lon="15.0046443"><ele>387.8</ele><time>2026-04-19T11:03:53.946Z</time></trkpt><trkpt lat="41.1685478" lon="15.0046195"><ele>391.2</ele><time>2026-04-19T11:03:54.945Z</time></trkpt><trkpt lat="41.1684441" lon="15.0045856"><ele>394.59999999999997</ele><time>2026-04-19T11:03:55.948Z</time></trkpt><trkpt lat="41.1683402" lon="15.0045367"><ele>398.0</ele><time>2026-04-19T11:03:56.945Z</time></trkpt><trkpt lat="41.1682388" lon="15.0044787"><ele>401.59999999999997</ele><time>2026-04-19T11:03:57.943Z</time></trkpt><trkpt lat="41.1681355" lon="15.0044204"><ele>405.2</ele><time>2026-04-19T11:03:58.944Z</time></trkpt><trkpt lat="41.1680318" lon="15.0043787"><ele>408.8</ele><time>2026-04-19T11:03:59.949Z</time></trkpt><trkpt lat="41.1679294" lon="15.0043447"><ele>412.4</ele><time>2026-04-19T11:04:00.944Z</time></trkpt><trkpt lat="41.167831" lon="15.0043073"><ele>416.0</ele><time>2026-04-19T11:04:02.012Z</time></trkpt><trkpt lat="41.1677381" lon="15.0042712"><ele>415.99999999999994</ele><time>2026-04-19T11:04:03.033Z</time></trkpt><trkpt lat="41.1676613" lon="15.0042399"><ele>416.0</ele><time>2026-04-19T11:04:04.032Z</time></trkpt><trkpt lat="41.1675953" lon="15.0042132"><ele>416.0</ele><time>2026-04-19T11:04:04.959Z</time></trkpt><trkpt lat="41.1674752" lon="15.0041901"><ele>416.0</ele><time>2026-04-19T11:04:07.065Z</time></trkpt><trkpt lat="41.1674029" lon="15.0041614"><ele>415.99999999999994</ele><time>2026-04-19T11:04:08.03Z</time></trkpt><trkpt lat="41.1673259" lon="15.0041186"><ele>416.0</ele><time>2026-04-19T11:04:08.947Z</time></trkpt><trkpt lat="41.1672352" lon="15.004086"><ele>417.5</ele><time>2026-04-19T11:04:09.949Z</time></trkpt><trkpt lat="41.1671236" lon="15.0040584"><ele>419.0</ele><time>2026-04-19T11:04:10.946Z</time></trkpt><trkpt lat="41.1670111" lon="15.0040307"><ele>420.5</ele><time>2026-04-19T11:04:12.016Z</time></trkpt><trkpt lat="41.1668924" lon="15.004012"><ele>422.0</ele><time>2026-04-19T11:04:13.023Z</time></trkpt><trkpt lat="41.1667822" lon="15.0040037"><ele>421.99999999999994</ele><time>2026-04-19T11:04:14.029Z</time></trkpt><trkpt lat="41.1666886" lon="15.0040233"><ele>422.0</ele><time>2026-04-19T11:04:14.969Z</time></trkpt><trkpt lat="41.1665998" lon="15.0040563"><ele>422.0</ele><time>2026-04-19T11:04:15.965Z</time></trkpt><trkpt lat="41.166518" lon="15.0040685"><ele>422.0</ele><time>2026-04-19T11:04:16.956Z</time></trkpt><trkpt lat="41.166432" lon="15.0040824"><ele>421.99999999999994</ele><time>2026-04-19T11:04:18.027Z</time></trkpt><trkpt lat="41.1663456" lon="15.0040976"><ele>422.0</ele><time>2026-04-19T11:04:18.948Z</time></trkpt><trkpt lat="41.1662825" lon="15.0041044"><ele>423.20000000000005</ele><time>2026-04-19T11:04:19.944Z</time></trkpt><trkpt lat="41.1661776" lon="15.0040393"><ele>424.4</ele><time>2026-04-19T11:04:22.021Z</time></trkpt><trkpt lat="41.1661088" lon="15.0039617"><ele>425.59999999999997</ele><time>2026-04-19T11:04:23.026Z</time></trkpt><trkpt lat="41.1660314" lon="15.0038626"><ele>426.79999999999995</ele><time>2026-04-19T11:04:24.031Z</time></trkpt><trkpt lat="41.1659533" lon="15.003749"><ele>428.0</ele><time>2026-04-19T11:04:24.959Z</time></trkpt><trkpt lat="41.165866" lon="15.0036232"><ele>428.0</ele><time>2026-04-19T11:04:25.961Z</time></trkpt><trkpt lat="41.1657808" lon="15.0034884"><ele>428.0</ele><time>2026-04-19T11:04:26.966Z</time></trkpt><trkpt lat="41.1656888" lon="15.0033665"><ele>428.0</ele><time>2026-04-19T11:04:27.958Z</time></trkpt><trkpt lat="41.1655955" lon="15.0032492"><ele>428.0</ele><time>2026-04-19T11:04:28.961Z</time></trkpt><trkpt lat="41.1655122" lon="15.0031448"><ele>425.25</ele><time>2026-04-19T11:04:29.961Z</time></trkpt><trkpt lat="41.1654331" lon="15.0030345"><ele>422.5</ele><time>2026-04-19T11:04:30.959Z</time></trkpt><trkpt lat="41.1653512" lon="15.0029158"><ele>419.75</ele><time>2026-04-19T11:04:31.963Z</time></trkpt><trkpt lat="41.1652682" lon="15.0027884"><ele>417.0</ele><time>2026-04-19T11:04:32.961Z</time></trkpt><trkpt lat="41.1651872" lon="15.0026611"><ele>417.0</ele><time>2026-04-19T11:04:34.034Z</time></trkpt><trkpt lat="41.1651046" lon="15.0025341"><ele>417.0</ele><time>2026-04-19T11:04:34.953Z</time></trkpt><trkpt lat="41.1650197" lon="15.0024055"><ele>417.0</ele><time>2026-04-19T11:04:35.954Z</time></trkpt><trkpt lat="41.1649387" lon="15.0022766"><ele>417.0</ele><time>2026-04-19T11:04:36.955Z</time></trkpt><trkpt lat="41.1648582" lon="15.0021359"><ele>415.75</ele><time>2026-04-19T11:04:37.954Z</time></trkpt><trkpt lat="41.1647824" lon="15.0019873"><ele>414.5</ele><time>2026-04-19T11:04:38.951Z</time></trkpt><trkpt lat="41.1647048" lon="15.0018353"><ele>413.25</ele><time>2026-04-19T11:04:39.953Z</time></trkpt><trkpt lat="41.1646305" lon="15.0016856"><ele>412.0</ele><time>2026-04-19T11:04:40.98Z</time></trkpt><trkpt lat="41.1645527" lon="15.0015319"><ele>411.25</ele><time>2026-04-19T11:04:41.951Z</time></trkpt><trkpt lat="41.1644755" lon="15.0013778"><ele>410.5</ele><time>2026-04-19T11:04:43.029Z</time></trkpt><trkpt lat="41.1644036" lon="15.0012258"><ele>409.75</ele><time>2026-04-19T11:04:43.951Z</time></trkpt><trkpt lat="41.1643309" lon="15.0010791"><ele>409.0</ele><time>2026-04-19T11:04:44.954Z</time></trkpt><trkpt lat="41.1642618" lon="15.0009356"><ele>406.75</ele><time>2026-04-19T11:04:45.954Z</time></trkpt><trkpt lat="41.1641905" lon="15.0007939"><ele>404.5</ele><time>2026-04-19T11:04:46.944Z</time></trkpt><trkpt lat="41.1641232" lon="15.0006619"><ele>402.25</ele><time>2026-04-19T11:04:47.945Z</time></trkpt><trkpt lat="41.164063" lon="15.0005272"><ele>400.0</ele><time>2026-04-19T11:04:48.951Z</time></trkpt><trkpt lat="41.1640105" lon="15.0003874"><ele>399.0</ele><time>2026-04-19T11:04:49.947Z</time></trkpt><trkpt lat="41.1639621" lon="15.0002221"><ele>398.0</ele><time>2026-04-19T11:04:50.952Z</time></trkpt><trkpt lat="41.163922" lon="15.0000553"><ele>397.0</ele><time>2026-04-19T11:04:51.949Z</time></trkpt><trkpt lat="41.1638857" lon="14.999894"><ele>396.0</ele><time>2026-04-19T11:04:52.959Z</time></trkpt><trkpt lat="41.1638565" lon="14.9997327"><ele>396.0</ele><time>2026-04-19T11:04:53.954Z</time></trkpt><trkpt lat="41.1638396" lon="14.9995622"><ele>396.0</ele><time>2026-04-19T11:04:54.955Z</time></trkpt><trkpt lat="41.1638243" lon="14.999387"><ele>396.0</ele><time>2026-04-19T11:04:55.954Z</time></trkpt><trkpt lat="41.1638124" lon="14.9992076"><ele>396.0</ele><time>2026-04-19T11:04:56.947Z</time></trkpt><trkpt lat="41.1638065" lon="14.9990366"><ele>394.5</ele><time>2026-04-19T11:04:57.952Z</time></trkpt><trkpt lat="41.1638141" lon="14.9988769"><ele>393.0</ele><time>2026-04-19T11:04:58.957Z</time></trkpt><trkpt lat="41.1638324" lon="14.9987226"><ele>391.5</ele><time>2026-04-19T11:04:59.954Z</time></trkpt><trkpt lat="41.1638629" lon="14.9985727"><ele>390.0</ele><time>2026-04-19T11:05:00.95Z</time></trkpt><trkpt lat="41.1638926" lon="14.9984186"><ele>390.25</ele><time>2026-04-19T11:05:01.954Z</time></trkpt><trkpt lat="41.1639159" lon="14.998254"><ele>390.5</ele><time>2026-04-19T11:05:02.951Z</time></trkpt><trkpt lat="41.1639311" lon="14.9980842"><ele>390.75</ele><time>2026-04-19T11:05:03.953Z</time></trkpt><trkpt lat="41.1639407" lon="14.9979155"><ele>391.0</ele><time>2026-04-19T11:05:04.955Z</time></trkpt><trkpt lat="41.1639496" lon="14.99775"><ele>391.0</ele><time>2026-04-19T11:05:05.952Z</time></trkpt><trkpt lat="41.1639599" lon="14.9975813"><ele>391.0</ele><time>2026-04-19T11:05:07.041Z</time></trkpt><trkpt lat="41.163965" lon="14.9974218"><ele>391.0</ele><time>2026-04-19T11:05:07.949Z</time></trkpt><trkpt lat="41.1639729" lon="14.9972634"><ele>391.0</ele><time>2026-04-19T11:05:09.03Z</time></trkpt><trkpt lat="41.1639845" lon="14.9971034"><ele>391.5</ele><time>2026-04-19T11:05:09.944Z</time></trkpt><trkpt lat="41.1640061" lon="14.9969398"><ele>392.0</ele><time>2026-04-19T11:05:10.944Z</time></trkpt><trkpt lat="41.1640384" lon="14.9967846"><ele>392.5</ele><time>2026-04-19T11:05:11.961Z</time></trkpt><trkpt lat="41.1640652" lon="14.9966393"><ele>393.0</ele><time>2026-04-19T11:05:12.944Z</time></trkpt><trkpt lat="41.1640946" lon="14.9964786"><ele>390.25</ele><time>2026-04-19T11:05:14.031Z</time></trkpt><trkpt lat="41.1641296" lon="14.9963095"><ele>387.5</ele><time>2026-04-19T11:05:14.989Z</time></trkpt><trkpt lat="41.1641659" lon="14.9961429"><ele>384.75</ele><time>2026-04-19T11:05:16.035Z</time></trkpt><trkpt lat="41.1642002" lon="14.9959833"><ele>382.0</ele><time>2026-04-19T11:05:16.958Z</time></trkpt><trkpt lat="41.164227" lon="14.9958371"><ele>381.0</ele><time>2026-04-19T11:05:17.963Z</time></trkpt><trkpt lat="41.1642531" lon="14.9957019"><ele>380.0</ele><time>2026-04-19T11:05:18.963Z</time></trkpt><trkpt lat="41.1642723" lon="14.9955748"><ele>379.0</ele><time>2026-04-19T11:05:19.964Z</time></trkpt><trkpt lat="41.164294" lon="14.9954439"><ele>378.0</ele><time>2026-04-19T11:05:20.962Z</time></trkpt><trkpt lat="41.1643177" lon="14.9953014"><ele>377.0</ele><time>2026-04-19T11:05:21.955Z</time></trkpt><trkpt lat="41.164337" lon="14.9951507"><ele>375.0</ele><time>2026-04-19T11:05:23.026Z</time></trkpt><trkpt lat="41.1643532" lon="14.9949869"><ele>373.0</ele><time>2026-04-19T11:05:24.028Z</time></trkpt><trkpt lat="41.1643658" lon="14.9948214"><ele>371.0</ele><time>2026-04-19T11:05:24.955Z</time></trkpt><trkpt lat="41.1643798" lon="14.9946568"><ele>369.0</ele><time>2026-04-19T11:05:25.955Z</time></trkpt><trkpt lat="41.1643878" lon="14.9945079"><ele>369.0</ele><time>2026-04-19T11:05:26.958Z</time></trkpt><trkpt lat="41.1643966" lon="14.994366"><ele>369.0</ele><time>2026-04-19T11:05:27.957Z</time></trkpt><trkpt lat="41.164404" lon="14.9942193"><ele>369.0</ele><time>2026-04-19T11:05:28.956Z</time></trkpt><trkpt lat="41.1644126" lon="14.9940686"><ele>369.0</ele><time>2026-04-19T11:05:29.962Z</time></trkpt><trkpt lat="41.1644191" lon="14.9939116"><ele>366.0</ele><time>2026-04-19T11:05:31.024Z</time></trkpt><trkpt lat="41.1644212" lon="14.9937475"><ele>363.0</ele><time>2026-04-19T11:05:31.955Z</time></trkpt><trkpt lat="41.1644179" lon="14.9935838"><ele>360.0</ele><time>2026-04-19T11:05:32.964Z</time></trkpt><trkpt lat="41.1644153" lon="14.9934157"><ele>357.0</ele><time>2026-04-19T11:05:33.952Z</time></trkpt><trkpt lat="41.1644178" lon="14.9932547"><ele>354.25</ele><time>2026-04-19T11:05:34.95Z</time></trkpt><trkpt lat="41.1644254" lon="14.9930907"><ele>351.5</ele><time>2026-04-19T11:05:35.953Z</time></trkpt><trkpt lat="41.1644409" lon="14.992936"><ele>348.75</ele><time>2026-04-19T11:05:36.953Z</time></trkpt><trkpt lat="41.1644628" lon="14.9927876"><ele>346.0</ele><time>2026-04-19T11:05:37.954Z</time></trkpt><trkpt lat="41.1644942" lon="14.9926416"><ele>344.5</ele><time>2026-04-19T11:05:38.965Z</time></trkpt><trkpt lat="41.1645455" lon="14.9924972"><ele>343.0</ele><time>2026-04-19T11:05:39.954Z</time></trkpt><trkpt lat="41.1646048" lon="14.9923481"><ele>341.5</ele><time>2026-04-19T11:05:41.033Z</time></trkpt><trkpt lat="41.1646705" lon="14.9922065"><ele>340.0</ele><time>2026-04-19T11:05:42.031Z</time></trkpt><trkpt lat="41.1647352" lon="14.9920647"><ele>340.0</ele><time>2026-04-19T11:05:43.026Z</time></trkpt><trkpt lat="41.1647975" lon="14.9919357"><ele>340.0</ele><time>2026-04-19T11:05:44.032Z</time></trkpt><trkpt lat="41.1648575" lon="14.9918086"><ele>340.0</ele><time>2026-04-19T11:05:44.956Z</time></trkpt><trkpt lat="41.1649246" lon="14.9916892"><ele>340.0</ele><time>2026-04-19T11:05:45.957Z</time></trkpt><trkpt lat="41.1649973" lon="14.9915765"><ele>338.5</ele><time>2026-04-19T11:05:47.059Z</time></trkpt><trkpt lat="41.1650753" lon="14.9914621"><ele>337.0</ele><time>2026-04-19T11:05:48.033Z</time></trkpt><trkpt lat="41.1651516" lon="14.9913565"><ele>335.5</ele><time>2026-04-19T11:05:48.966Z</time></trkpt><trkpt lat="41.1652226" lon="14.991245"><ele>334.0</ele><time>2026-04-19T11:05:49.953Z</time></trkpt><trkpt lat="41.1652995" lon="14.9911328"><ele>334.0</ele><time>2026-04-19T11:05:50.954Z</time></trkpt><trkpt lat="41.1653766" lon="14.9910319"><ele>334.0</ele><time>2026-04-19T11:05:51.952Z</time></trkpt><trkpt lat="41.1654543" lon="14.9909454"><ele>334.0</ele><time>2026-04-19T11:05:52.985Z</time></trkpt><trkpt lat="41.1655314" lon="14.9908669"><ele>334.0</ele><time>2026-04-19T11:05:53.951Z</time></trkpt><trkpt lat="41.1655891" lon="14.990804"><ele>334.0</ele><time>2026-04-19T11:05:54.956Z</time></trkpt><trkpt lat="41.1656347" lon="14.9907362"><ele>332.66666666666663</ele><time>2026-04-19T11:05:55.956Z</time></trkpt><trkpt lat="41.1656612" lon="14.9906513"><ele>331.3333333333333</ele><time>2026-04-19T11:05:56.955Z</time></trkpt><trkpt lat="41.1656644" lon="14.9905416"><ele>330.0</ele><time>2026-04-19T11:05:57.954Z</time></trkpt><trkpt lat="41.1656593" lon="14.9904193"><ele>328.6666666666667</ele><time>2026-04-19T11:05:59.04Z</time></trkpt><trkpt lat="41.1656484" lon="14.9902917"><ele>327.33333333333337</ele><time>2026-04-19T11:05:59.954Z</time></trkpt><trkpt lat="41.1656411" lon="14.9901702"><ele>326.0</ele><time>2026-04-19T11:06:00.951Z</time></trkpt><trkpt lat="41.1656375" lon="14.9900481"><ele>324.6666666666667</ele><time>2026-04-19T11:06:01.958Z</time></trkpt><trkpt lat="41.1656321" lon="14.9899339"><ele>323.33333333333337</ele><time>2026-04-19T11:06:03.036Z</time></trkpt><trkpt lat="41.1656258" lon="14.9898166"><ele>322.0</ele><time>2026-04-19T11:06:04.031Z</time></trkpt><trkpt lat="41.1656261" lon="14.9896928"><ele>320.6666666666667</ele><time>2026-04-19T11:06:04.961Z</time></trkpt><trkpt lat="41.1656248" lon="14.9895754"><ele>319.3333333333333</ele><time>2026-04-19T11:06:05.958Z</time></trkpt><trkpt lat="41.1656202" lon="14.9894661"><ele>318.0</ele><time>2026-04-19T11:06:06.959Z</time></trkpt><trkpt lat="41.1656137" lon="14.9893533"><ele>318.0</ele><time>2026-04-19T11:06:07.956Z</time></trkpt><trkpt lat="41.1656071" lon="14.9892344"><ele>318.0</ele><time>2026-04-19T11:06:08.963Z</time></trkpt><trkpt lat="41.1655985" lon="14.9891067"><ele>318.0</ele><time>2026-04-19T11:06:09.965Z</time></trkpt><trkpt lat="41.1655884" lon="14.9889752"><ele>318.0</ele><time>2026-04-19T11:06:10.959Z</time></trkpt><trkpt lat="41.165576" lon="14.9888488"><ele>318.0</ele><time>2026-04-19T11:06:12.031Z</time></trkpt><trkpt lat="41.16557" lon="14.988729"><ele>315.8</ele><time>2026-04-19T11:06:12.948Z</time></trkpt><trkpt lat="41.1655699" lon="14.9886074"><ele>313.6</ele><time>2026-04-19T11:06:13.948Z</time></trkpt><trkpt lat="41.1655739" lon="14.9884791"><ele>311.4</ele><time>2026-04-19T11:06:14.962Z</time></trkpt><trkpt lat="41.1655906" lon="14.988349"><ele>309.2</ele><time>2026-04-19T11:06:15.946Z</time></trkpt><trkpt lat="41.1656225" lon="14.9882383"><ele>307.0</ele><time>2026-04-19T11:06:16.945Z</time></trkpt><trkpt lat="41.1656621" lon="14.9881442"><ele>305.5</ele><time>2026-04-19T11:06:17.948Z</time></trkpt><trkpt lat="41.1656979" lon="14.988067"><ele>304.0</ele><time>2026-04-19T11:06:18.948Z</time></trkpt><trkpt lat="41.1656903" lon="14.9879267"><ele>302.5</ele><time>2026-04-19T11:06:20.951Z</time></trkpt><trkpt lat="41.1656615" lon="14.9878412"><ele>301.0</ele><time>2026-04-19T11:06:21.973Z</time></trkpt><trkpt lat="41.1656373" lon="14.9877355"><ele>299.5</ele><time>2026-04-19T11:06:22.946Z</time></trkpt><trkpt lat="41.1656022" lon="14.9876131"><ele>298.0</ele><time>2026-04-19T11:06:23.947Z</time></trkpt><trkpt lat="41.1655683" lon="14.987483"><ele>294.6</ele><time>2026-04-19T11:06:24.952Z</time></trkpt><trkpt lat="41.1655332" lon="14.987351"><ele>291.20000000000005</ele><time>2026-04-19T11:06:25.95Z</time></trkpt><trkpt lat="41.1655003" lon="14.9872094"><ele>287.8</ele><time>2026-04-19T11:06:26.947Z</time></trkpt><trkpt lat="41.1654823" lon="14.9870699"><ele>284.40000000000003</ele><time>2026-04-19T11:06:27.945Z</time></trkpt><trkpt lat="41.1654676" lon="14.98693"><ele>281.0</ele><time>2026-04-19T11:06:29.012Z</time></trkpt><trkpt lat="41.1654519" lon="14.9867911"><ele>278.6</ele><time>2026-04-19T11:06:29.946Z</time></trkpt><trkpt lat="41.1654358" lon="14.9866526"><ele>276.20000000000005</ele><time>2026-04-19T11:06:30.946Z</time></trkpt><trkpt lat="41.165415" lon="14.9865201"><ele>273.79999999999995</ele><time>2026-04-19T11:06:31.95Z</time></trkpt><trkpt lat="41.165394" lon="14.986396"><ele>271.4</ele><time>2026-04-19T11:06:32.946Z</time></trkpt><trkpt lat="41.1653533" lon="14.9862853"><ele>269.0</ele><time>2026-04-19T11:06:34.022Z</time></trkpt><trkpt lat="41.1653051" lon="14.9861696"><ele>269.0</ele><time>2026-04-19T11:06:34.942Z</time></trkpt><trkpt lat="41.1652563" lon="14.9860531"><ele>269.0</ele><time>2026-04-19T11:06:35.943Z</time></trkpt><trkpt lat="41.165215" lon="14.985951"><ele>269.0</ele><time>2026-04-19T11:06:36.939Z</time></trkpt><trkpt lat="41.1651804" lon="14.9858525"><ele>269.0</ele><time>2026-04-19T11:06:38.002Z</time></trkpt><trkpt lat="41.1651884" lon="14.985696"><ele>269.0</ele><time>2026-04-19T11:06:39.946Z</time></trkpt><trkpt lat="41.1652356" lon="14.9856158"><ele>266.83333333333337</ele><time>2026-04-19T11:06:40.95Z</time></trkpt><trkpt lat="41.1652921" lon="14.9855082"><ele>264.6666666666667</ele><time>2026-04-19T11:06:41.948Z</time></trkpt><trkpt lat="41.1653486" lon="14.9853994"><ele>262.5</ele><time>2026-04-19T11:06:43.012Z</time></trkpt><trkpt lat="41.165394" lon="14.9853014"><ele>260.3333333333333</ele><time>2026-04-19T11:06:44.013Z</time></trkpt><trkpt lat="41.1654252" lon="14.985215"><ele>258.16666666666663</ele><time>2026-04-19T11:06:44.942Z</time></trkpt><trkpt lat="41.1654508" lon="14.9851218"><ele>256.0</ele><time>2026-04-19T11:06:45.941Z</time></trkpt><trkpt lat="41.1654696" lon="14.9850144"><ele>252.60000000000002</ele><time>2026-04-19T11:06:46.942Z</time></trkpt><trkpt lat="41.1654818" lon="14.9848848"><ele>249.20000000000002</ele><time>2026-04-19T11:06:48.011Z</time></trkpt><trkpt lat="41.1654872" lon="14.9847526"><ele>245.79999999999998</ele><time>2026-04-19T11:06:49.01Z</time></trkpt><trkpt lat="41.1654869" lon="14.9846271"><ele>242.39999999999998</ele><time>2026-04-19T11:06:49.949Z</time></trkpt><trkpt lat="41.1654861" lon="14.9845026"><ele>239.0</ele><time>2026-04-19T11:06:50.947Z</time></trkpt><trkpt lat="41.1654807" lon="14.9843975"><ele>239.0</ele><time>2026-04-19T11:06:52.059Z</time></trkpt><trkpt lat="41.1654464" lon="14.9841989"><ele>238.99999999999997</ele><time>2026-04-19T11:06:54.011Z</time></trkpt><trkpt lat="41.1654067" lon="14.9840912"><ele>238.99999999999997</ele><time>2026-04-19T11:06:54.95Z</time></trkpt><trkpt lat="41.1653521" lon="14.9839753"><ele>239.0</ele><time>2026-04-19T11:06:55.944Z</time></trkpt><trkpt lat="41.1653028" lon="14.9838625"><ele>239.0</ele><time>2026-04-19T11:06:56.942Z</time></trkpt><trkpt lat="41.1652657" lon="14.9837557"><ele>236.50000000000003</ele><time>2026-04-19T11:06:57.943Z</time></trkpt><trkpt lat="41.1652448" lon="14.9836489"><ele>234.0</ele><time>2026-04-19T11:06:58.944Z</time></trkpt><trkpt lat="41.1652461" lon="14.9835616"><ele>231.5</ele><time>2026-04-19T11:06:59.945Z</time></trkpt><trkpt lat="41.1653065" lon="14.9834716"><ele>229.0</ele><time>2026-04-19T11:07:02.007Z</time></trkpt><trkpt lat="41.1653788" lon="14.9834577"><ele>226.50000000000003</ele><time>2026-04-19T11:07:03.008Z</time></trkpt><trkpt lat="41.1654729" lon="14.9834469"><ele>224.0</ele><time>2026-04-19T11:07:04.013Z</time></trkpt><trkpt lat="41.1655651" lon="14.9834371"><ele>224.00000000000003</ele><time>2026-04-19T11:07:04.944Z</time></trkpt><trkpt lat="41.1656367" lon="14.9834342"><ele>224.0</ele><time>2026-04-19T11:07:06.946Z</time></trkpt><trkpt lat="41.1656963" lon="14.9833738"><ele>224.0</ele><time>2026-04-19T11:07:10.946Z</time></trkpt><trkpt lat="41.1657349" lon="14.9832868"><ele>224.0</ele><time>2026-04-19T11:07:12.948Z</time></trkpt><trkpt lat="41.1658021" lon="14.9831475"><ele>224.00000000000003</ele><time>2026-04-19T11:07:14.953Z</time></trkpt><trkpt lat="41.1658273" lon="14.9830422"><ele>224.0</ele><time>2026-04-19T11:07:15.942Z</time></trkpt><trkpt lat="41.1658526" lon="14.9829365"><ele>223.5</ele><time>2026-04-19T11:07:16.943Z</time></trkpt><trkpt lat="41.1658857" lon="14.9828011"><ele>223.0</ele><time>2026-04-19T11:07:18.027Z</time></trkpt><trkpt lat="41.1659197" lon="14.9826455"><ele>222.5</ele><time>2026-04-19T11:07:18.96Z</time></trkpt><trkpt lat="41.1659662" lon="14.982488"><ele>222.0</ele><time>2026-04-19T11:07:19.95Z</time></trkpt><trkpt lat="41.1660183" lon="14.9823425"><ele>224.0</ele><time>2026-04-19T11:07:20.949Z</time></trkpt><trkpt lat="41.1660693" lon="14.9822129"><ele>226.0</ele><time>2026-04-19T11:07:21.945Z</time></trkpt><trkpt lat="41.1661213" lon="14.9820966"><ele>228.0</ele><time>2026-04-19T11:07:22.948Z</time></trkpt><trkpt lat="41.1661748" lon="14.981984"><ele>230.0</ele><time>2026-04-19T11:07:23.949Z</time></trkpt><trkpt lat="41.1662309" lon="14.9818568"><ele>232.0</ele><time>2026-04-19T11:07:24.949Z</time></trkpt><trkpt lat="41.1662779" lon="14.981737"><ele>236.0</ele><time>2026-04-19T11:07:26.028Z</time></trkpt><trkpt lat="41.1663212" lon="14.9816132"><ele>240.0</ele><time>2026-04-19T11:07:27.03Z</time></trkpt><trkpt lat="41.1663667" lon="14.9814923"><ele>244.0</ele><time>2026-04-19T11:07:28Z</time></trkpt><trkpt lat="41.166407" lon="14.9813662"><ele>248.0</ele><time>2026-04-19T11:07:29.025Z</time></trkpt><trkpt lat="41.1664523" lon="14.981236"><ele>252.0</ele><time>2026-04-19T11:07:29.96Z</time></trkpt><trkpt lat="41.1664899" lon="14.98111"><ele>252.0</ele><time>2026-04-19T11:07:30.96Z</time></trkpt><trkpt lat="41.166525" lon="14.9809973"><ele>252.0</ele><time>2026-04-19T11:07:32.046Z</time></trkpt><trkpt lat="41.166562" lon="14.9808866"><ele>252.0</ele><time>2026-04-19T11:07:33.028Z</time></trkpt><trkpt lat="41.1665976" lon="14.9807848"><ele>252.0</ele><time>2026-04-19T11:07:34.03Z</time></trkpt><trkpt lat="41.1666346" lon="14.980675"><ele>252.0</ele><time>2026-04-19T11:07:34.954Z</time></trkpt><trkpt lat="41.1666735" lon="14.9805585"><ele>256.3333333333333</ele><time>2026-04-19T11:07:35.949Z</time></trkpt><trkpt lat="41.1667106" lon="14.980446"><ele>260.6666666666667</ele><time>2026-04-19T11:07:36.97Z</time></trkpt><trkpt lat="41.1667445" lon="14.980334"><ele>265.0</ele><time>2026-04-19T11:07:37.952Z</time></trkpt><trkpt lat="41.1667696" lon="14.9802215"><ele>269.33333333333337</ele><time>2026-04-19T11:07:38.973Z</time></trkpt><trkpt lat="41.1667912" lon="14.9801101"><ele>273.6666666666667</ele><time>2026-04-19T11:07:39.952Z</time></trkpt><trkpt lat="41.1668027" lon="14.9800014"><ele>278.0</ele><time>2026-04-19T11:07:41.032Z</time></trkpt><trkpt lat="41.1668098" lon="14.9798901"><ele>281.4</ele><time>2026-04-19T11:07:42.032Z</time></trkpt><trkpt lat="41.1668131" lon="14.9797748"><ele>284.8</ele><time>2026-04-19T11:07:43.032Z</time></trkpt><trkpt lat="41.1668167" lon="14.979646"><ele>288.2</ele><time>2026-04-19T11:07:43.959Z</time></trkpt><trkpt lat="41.1668235" lon="14.9795196"><ele>291.6</ele><time>2026-04-19T11:07:44.963Z</time></trkpt><trkpt lat="41.1668333" lon="14.9793893"><ele>295.0</ele><time>2026-04-19T11:07:45.957Z</time></trkpt><trkpt lat="41.1668418" lon="14.9792592"><ele>298.2</ele><time>2026-04-19T11:07:46.958Z</time></trkpt><trkpt lat="41.1668454" lon="14.97913"><ele>301.4</ele><time>2026-04-19T11:07:47.964Z</time></trkpt><trkpt lat="41.1668528" lon="14.9789981"><ele>304.6</ele><time>2026-04-19T11:07:48.964Z</time></trkpt><trkpt lat="41.1668577" lon="14.978867"><ele>307.8</ele><time>2026-04-19T11:07:49.961Z</time></trkpt><trkpt lat="41.1668567" lon="14.9787356"><ele>311.0</ele><time>2026-04-19T11:07:50.964Z</time></trkpt><trkpt lat="41.1668595" lon="14.9786077"><ele>311.0</ele><time>2026-04-19T11:07:52.012Z</time></trkpt><trkpt lat="41.1668691" lon="14.9784699"><ele>311.0</ele><time>2026-04-19T11:07:52.96Z</time></trkpt><trkpt lat="41.1668763" lon="14.9783492"><ele>311.0</ele><time>2026-04-19T11:07:53.959Z</time></trkpt><trkpt lat="41.1668795" lon="14.9782365"><ele>311.0</ele><time>2026-04-19T11:07:54.961Z</time></trkpt><trkpt lat="41.1668849" lon="14.9781178"><ele>311.0</ele><time>2026-04-19T11:07:55.96Z</time></trkpt><trkpt lat="41.1668897" lon="14.9779919"><ele>313.83333333333337</ele><time>2026-04-19T11:07:56.959Z</time></trkpt><trkpt lat="41.1668884" lon="14.977886"><ele>316.6666666666667</ele><time>2026-04-19T11:07:57.962Z</time></trkpt><trkpt lat="41.1668906" lon="14.9777846"><ele>319.5</ele><time>2026-04-19T11:07:59.034Z</time></trkpt><trkpt lat="41.1668986" lon="14.9776754"><ele>322.3333333333333</ele><time>2026-04-19T11:07:59.963Z</time></trkpt><trkpt lat="41.1669066" lon="14.9775684"><ele>325.16666666666663</ele><time>2026-04-19T11:08:00.96Z</time></trkpt><trkpt lat="41.1669208" lon="14.9774716"><ele>328.0</ele><time>2026-04-19T11:08:01.967Z</time></trkpt><trkpt lat="41.1669719" lon="14.9773801"><ele>328.0</ele><time>2026-04-19T11:08:03.969Z</time></trkpt><trkpt lat="41.1670532" lon="14.9773968"><ele>328.0</ele><time>2026-04-19T11:08:05.966Z</time></trkpt><trkpt lat="41.1671121" lon="14.977441"><ele>328.0</ele><time>2026-04-19T11:08:06.959Z</time></trkpt><trkpt lat="41.1671979" lon="14.977483"><ele>328.0</ele><time>2026-04-19T11:08:07.96Z</time></trkpt><trkpt lat="41.1672948" lon="14.9775376"><ele>328.0</ele><time>2026-04-19T11:08:08.963Z</time></trkpt><trkpt lat="41.1674088" lon="14.9775952"><ele>331.2</ele><time>2026-04-19T11:08:09.962Z</time></trkpt><trkpt lat="41.1675279" lon="14.9776069"><ele>334.4</ele><time>2026-04-19T11:08:10.963Z</time></trkpt><trkpt lat="41.1676339" lon="14.977592"><ele>337.59999999999997</ele><time>2026-04-19T11:08:11.966Z</time></trkpt><trkpt lat="41.1677351" lon="14.9775403"><ele>340.79999999999995</ele><time>2026-04-19T11:08:12.963Z</time></trkpt><trkpt lat="41.1678245" lon="14.9774476"><ele>344.0</ele><time>2026-04-19T11:08:14.028Z</time></trkpt><trkpt lat="41.1679112" lon="14.9773657"><ele>345.79999999999995</ele><time>2026-04-19T11:08:14.97Z</time></trkpt><trkpt lat="41.1679886" lon="14.9772834"><ele>347.59999999999997</ele><time>2026-04-19T11:08:15.968Z</time></trkpt><trkpt lat="41.1680716" lon="14.9772038"><ele>349.4</ele><time>2026-04-19T11:08:16.966Z</time></trkpt><trkpt lat="41.16816" lon="14.977117"><ele>351.2</ele><time>2026-04-19T11:08:17.966Z</time></trkpt><trkpt lat="41.1682389" lon="14.9770158"><ele>353.0</ele><time>2026-04-19T11:08:19.03Z</time></trkpt><trkpt lat="41.1683115" lon="14.9769028"><ele>353.5</ele><time>2026-04-19T11:08:19.957Z</time></trkpt><trkpt lat="41.1683779" lon="14.9767951"><ele>354.0</ele><time>2026-04-19T11:08:20.958Z</time></trkpt><trkpt lat="41.1684364" lon="14.9767023"><ele>354.5</ele><time>2026-04-19T11:08:22.058Z</time></trkpt><trkpt lat="41.1684967" lon="14.9766331"><ele>355.0</ele><time>2026-04-19T11:08:23.025Z</time></trkpt><trkpt lat="41.1685678" lon="14.9765905"><ele>355.5</ele><time>2026-04-19T11:08:24.036Z</time></trkpt><trkpt lat="41.1686384" lon="14.9765655"><ele>356.0</ele><time>2026-04-19T11:08:24.956Z</time></trkpt><trkpt lat="41.1687683" lon="14.9765742"><ele>356.0</ele><time>2026-04-19T11:08:26.952Z</time></trkpt><trkpt lat="41.1688496" lon="14.9766171"><ele>356.0</ele><time>2026-04-19T11:08:28.039Z</time></trkpt><trkpt lat="41.1689336" lon="14.9766798"><ele>356.0</ele><time>2026-04-19T11:08:29.029Z</time></trkpt><trkpt lat="41.1690103" lon="14.976757"><ele>356.0</ele><time>2026-04-19T11:08:29.951Z</time></trkpt><trkpt lat="41.1690793" lon="14.9768262"><ele>356.0</ele><time>2026-04-19T11:08:30.948Z</time></trkpt><trkpt lat="41.1691576" lon="14.9769095"><ele>357.20000000000005</ele><time>2026-04-19T11:08:33.037Z</time></trkpt><trkpt lat="41.1692246" lon="14.9768417"><ele>358.40000000000003</ele><time>2026-04-19T11:08:42.959Z</time></trkpt><trkpt lat="41.1692819" lon="14.9767449"><ele>359.6</ele><time>2026-04-19T11:08:43.954Z</time></trkpt><trkpt lat="41.1693596" lon="14.9766636"><ele>360.8</ele><time>2026-04-19T11:08:44.96Z</time></trkpt><trkpt lat="41.1694505" lon="14.976589"><ele>362.0</ele><time>2026-04-19T11:08:45.949Z</time></trkpt><trkpt lat="41.1695407" lon="14.9765312"><ele>362.0</ele><time>2026-04-19T11:08:47.03Z</time></trkpt><trkpt lat="41.1696437" lon="14.9764883"><ele>362.0</ele><time>2026-04-19T11:08:48.034Z</time></trkpt><trkpt lat="41.169751" lon="14.9764634"><ele>362.0</ele><time>2026-04-19T11:08:48.954Z</time></trkpt><trkpt lat="41.1698644" lon="14.9764418"><ele>362.0</ele><time>2026-04-19T11:08:49.954Z</time></trkpt><trkpt lat="41.1699769" lon="14.9764279"><ele>362.0</ele><time>2026-04-19T11:08:50.947Z</time></trkpt><trkpt lat="41.1700877" lon="14.976389"><ele>363.8</ele><time>2026-04-19T11:08:51.951Z</time></trkpt><trkpt lat="41.1701991" lon="14.9763253"><ele>365.6</ele><time>2026-04-19T11:08:52.951Z</time></trkpt><trkpt lat="41.1703068" lon="14.9762393"><ele>367.40000000000003</ele><time>2026-04-19T11:08:54.028Z</time></trkpt><trkpt lat="41.1703945" lon="14.9761723"><ele>369.20000000000005</ele><time>2026-04-19T11:08:54.946Z</time></trkpt><trkpt lat="41.1704595" lon="14.9761148"><ele>371.0</ele><time>2026-04-19T11:08:55.944Z</time></trkpt><trkpt lat="41.1705375" lon="14.9760592"><ele>371.0</ele><time>2026-04-19T11:08:56.979Z</time></trkpt><trkpt lat="41.1706328" lon="14.9760409"><ele>371.0</ele><time>2026-04-19T11:08:58.023Z</time></trkpt><trkpt lat="41.170726" lon="14.9760453"><ele>371.0</ele><time>2026-04-19T11:08:59.026Z</time></trkpt><trkpt lat="41.170824" lon="14.9760318"><ele>371.0</ele><time>2026-04-19T11:09:01.031Z</time></trkpt><trkpt lat="41.1708262" lon="14.9758657"><ele>371.0</ele><time>2026-04-19T11:09:03.957Z</time></trkpt><trkpt lat="41.1708205" lon="14.9757373"><ele>369.25</ele><time>2026-04-19T11:09:04.954Z</time></trkpt><trkpt lat="41.1708335" lon="14.9755932"><ele>367.5</ele><time>2026-04-19T11:09:06.029Z</time></trkpt><trkpt lat="41.1708646" lon="14.975439"><ele>365.75</ele><time>2026-04-19T11:09:07.031Z</time></trkpt><trkpt lat="41.1709085" lon="14.9752888"><ele>364.0</ele><time>2026-04-19T11:09:07.953Z</time></trkpt><trkpt lat="41.1709484" lon="14.975153"><ele>361.5</ele><time>2026-04-19T11:09:08.955Z</time></trkpt><trkpt lat="41.1709776" lon="14.9750101"><ele>359.0</ele><time>2026-04-19T11:09:09.951Z</time></trkpt><trkpt lat="41.1710011" lon="14.9748614"><ele>356.5</ele><time>2026-04-19T11:09:10.955Z</time></trkpt><trkpt lat="41.1710127" lon="14.9747169"><ele>354.0</ele><time>2026-04-19T11:09:11.952Z</time></trkpt><trkpt lat="41.1710248" lon="14.9745576"><ele>354.0</ele><time>2026-04-19T11:09:12.95Z</time></trkpt><trkpt lat="41.1710323" lon="14.9743969"><ele>354.0</ele><time>2026-04-19T11:09:13.957Z</time></trkpt><trkpt lat="41.1710296" lon="14.9742372"><ele>354.0</ele><time>2026-04-19T11:09:14.951Z</time></trkpt><trkpt lat="41.1710116" lon="14.9740809"><ele>354.0</ele><time>2026-04-19T11:09:16.033Z</time></trkpt><trkpt lat="41.1709813" lon="14.9739219"><ele>351.25</ele><time>2026-04-19T11:09:16.949Z</time></trkpt><trkpt lat="41.1709531" lon="14.9737711"><ele>348.5</ele><time>2026-04-19T11:09:17.952Z</time></trkpt><trkpt lat="41.170924" lon="14.9736156"><ele>345.75</ele><time>2026-04-19T11:09:18.951Z</time></trkpt><trkpt lat="41.1709054" lon="14.9734569"><ele>343.0</ele><time>2026-04-19T11:09:19.959Z</time></trkpt><trkpt lat="41.1708846" lon="14.9733056"><ele>341.3333333333333</ele><time>2026-04-19T11:09:20.955Z</time></trkpt><trkpt lat="41.1708622" lon="14.9731628"><ele>339.66666666666663</ele><time>2026-04-19T11:09:22.017Z</time></trkpt><trkpt lat="41.1708395" lon="14.9730385"><ele>338.0</ele><time>2026-04-19T11:09:23.02Z</time></trkpt><trkpt lat="41.170803" lon="14.9729401"><ele>336.3333333333333</ele><time>2026-04-19T11:09:24.03Z</time></trkpt><trkpt lat="41.1707539" lon="14.9728739"><ele>334.6666666666667</ele><time>2026-04-19T11:09:24.959Z</time></trkpt><trkpt lat="41.1706856" lon="14.9728324"><ele>333.0</ele><time>2026-04-19T11:09:25.956Z</time></trkpt><trkpt lat="41.1706082" lon="14.9728008"><ele>330.59999999999997</ele><time>2026-04-19T11:09:27.04Z</time></trkpt><trkpt lat="41.1705239" lon="14.9727565"><ele>328.2</ele><time>2026-04-19T11:09:28.037Z</time></trkpt><trkpt lat="41.1704586" lon="14.9726821"><ele>325.8</ele><time>2026-04-19T11:09:29.028Z</time></trkpt><trkpt lat="41.1703985" lon="14.9725639"><ele>323.4</ele><time>2026-04-19T11:09:29.95Z</time></trkpt><trkpt lat="41.1703486" lon="14.9724472"><ele>321.0</ele><time>2026-04-19T11:09:30.951Z</time></trkpt><trkpt lat="41.170297" lon="14.9723299"><ele>319.8</ele><time>2026-04-19T11:09:32.075Z</time></trkpt><trkpt lat="41.1702496" lon="14.972206"><ele>318.6</ele><time>2026-04-19T11:09:33.031Z</time></trkpt><trkpt lat="41.1702074" lon="14.9720863"><ele>317.4</ele><time>2026-04-19T11:09:34.033Z</time></trkpt><trkpt lat="41.1701746" lon="14.9719735"><ele>316.2</ele><time>2026-04-19T11:09:34.969Z</time></trkpt><trkpt lat="41.170159" lon="14.9718515"><ele>315.0</ele><time>2026-04-19T11:09:36.038Z</time></trkpt><trkpt lat="41.170156" lon="14.9717344"><ele>312.2</ele><time>2026-04-19T11:09:37.025Z</time></trkpt><trkpt lat="41.1701639" lon="14.9716228"><ele>309.4</ele><time>2026-04-19T11:09:38.03Z</time></trkpt><trkpt lat="41.1701763" lon="14.9715143"><ele>306.6</ele><time>2026-04-19T11:09:39.029Z</time></trkpt><trkpt lat="41.1701835" lon="14.9714236"><ele>303.8</ele><time>2026-04-19T11:09:39.962Z</time></trkpt><trkpt lat="41.1701618" lon="14.9712978"><ele>301.0</ele><time>2026-04-19T11:09:42.046Z</time></trkpt><trkpt lat="41.1700475" lon="14.9712436"><ele>301.0</ele><time>2026-04-19T11:09:43.951Z</time></trkpt><trkpt lat="41.1699738" lon="14.9712333"><ele>301.0</ele><time>2026-04-19T11:09:44.945Z</time></trkpt><trkpt lat="41.1698932" lon="14.9712539"><ele>301.0</ele><time>2026-04-19T11:09:45.952Z</time></trkpt><trkpt lat="41.1698147" lon="14.9713116"><ele>301.0</ele><time>2026-04-19T11:09:47.056Z</time></trkpt><trkpt lat="41.1697443" lon="14.9714045"><ele>301.0</ele><time>2026-04-19T11:09:48.03Z</time></trkpt><trkpt lat="41.1696759" lon="14.9714824"><ele>301.0</ele><time>2026-04-19T11:09:48.956Z</time></trkpt><trkpt lat="41.169585" lon="14.9715205"><ele>297.8</ele><time>2026-04-19T11:09:50.959Z</time></trkpt><trkpt lat="41.1695208" lon="14.97147"><ele>294.6</ele><time>2026-04-19T11:09:52.952Z</time></trkpt><trkpt lat="41.1694701" lon="14.971281"><ele>291.4</ele><time>2026-04-19T11:09:54.953Z</time></trkpt><trkpt lat="41.1694296" lon="14.9711587"><ele>288.2</ele><time>2026-04-19T11:09:55.96Z</time></trkpt><trkpt lat="41.1693995" lon="14.9710293"><ele>285.0</ele><time>2026-04-19T11:09:56.959Z</time></trkpt><trkpt lat="41.1693656" lon="14.9708935"><ele>282.6</ele><time>2026-04-19T11:09:57.947Z</time></trkpt><trkpt lat="41.1693421" lon="14.9707722"><ele>280.2</ele><time>2026-04-19T11:09:58.957Z</time></trkpt><trkpt lat="41.16932" lon="14.9706635"><ele>277.8</ele><time>2026-04-19T11:09:59.958Z</time></trkpt><trkpt lat="41.1693011" lon="14.9705437"><ele>275.4</ele><time>2026-04-19T11:10:00.957Z</time></trkpt><trkpt lat="41.1692833" lon="14.9704174"><ele>273.0</ele><time>2026-04-19T11:10:01.955Z</time></trkpt><trkpt lat="41.1692739" lon="14.9703046"><ele>273.0</ele><time>2026-04-19T11:10:03.032Z</time></trkpt><trkpt lat="41.1692643" lon="14.970213"><ele>273.0</ele><time>2026-04-19T11:10:04.029Z</time></trkpt><trkpt lat="41.1692601" lon="14.9701249"><ele>273.0</ele><time>2026-04-19T11:10:04.946Z</time></trkpt><trkpt lat="41.169254" lon="14.9700325"><ele>273.0</ele><time>2026-04-19T11:10:05.95Z</time></trkpt><trkpt lat="41.1692492" lon="14.9699454"><ele>273.0</ele><time>2026-04-19T11:10:06.947Z</time></trkpt><trkpt lat="41.1692598" lon="14.9698574"><ele>273.0</ele><time>2026-04-19T11:10:08.029Z</time></trkpt><trkpt lat="41.1692629" lon="14.9697673"><ele>273.0</ele><time>2026-04-19T11:10:09.029Z</time></trkpt><trkpt lat="41.1692599" lon="14.9696746"><ele>270.8</ele><time>2026-04-19T11:10:09.952Z</time></trkpt><trkpt lat="41.1692697" lon="14.9695781"><ele>268.6</ele><time>2026-04-19T11:10:10.949Z</time></trkpt><trkpt lat="41.1692887" lon="14.9694632"><ele>266.4</ele><time>2026-04-19T11:10:11.953Z</time></trkpt><trkpt lat="41.1693086" lon="14.9693392"><ele>264.2</ele><time>2026-04-19T11:10:13.03Z</time></trkpt><trkpt lat="41.1693169" lon="14.9692047"><ele>262.0</ele><time>2026-04-19T11:10:14.036Z</time></trkpt><trkpt lat="41.1693119" lon="14.9690777"><ele>259.2</ele><time>2026-04-19T11:10:14.959Z</time></trkpt><trkpt lat="41.1693086" lon="14.9689447"><ele>256.4</ele><time>2026-04-19T11:10:15.959Z</time></trkpt><trkpt lat="41.1693054" lon="14.9688216"><ele>253.60000000000002</ele><time>2026-04-19T11:10:16.981Z</time></trkpt><trkpt lat="41.169304" lon="14.9687013"><ele>250.8</ele><time>2026-04-19T11:10:18.032Z</time></trkpt><trkpt lat="41.1692967" lon="14.9685705"><ele>248.0</ele><time>2026-04-19T11:10:19.029Z</time></trkpt><trkpt lat="41.1692817" lon="14.9684258"><ele>245.2</ele><time>2026-04-19T11:10:19.955Z</time></trkpt><trkpt lat="41.1692677" lon="14.968279"><ele>242.4</ele><time>2026-04-19T11:10:20.954Z</time></trkpt><trkpt lat="41.1692533" lon="14.968132"><ele>239.59999999999997</ele><time>2026-04-19T11:10:21.972Z</time></trkpt><trkpt lat="41.1692403" lon="14.9679836"><ele>236.79999999999998</ele><time>2026-04-19T11:10:23.036Z</time></trkpt><trkpt lat="41.1692285" lon="14.9678341"><ele>234.0</ele><time>2026-04-19T11:10:23.966Z</time></trkpt><trkpt lat="41.1692135" lon="14.9676833"><ele>234.0</ele><time>2026-04-19T11:10:24.977Z</time></trkpt><trkpt lat="41.1692009" lon="14.9675369"><ele>234.0</ele><time>2026-04-19T11:10:25.971Z</time></trkpt><trkpt lat="41.1691841" lon="14.9673829"><ele>234.0</ele><time>2026-04-19T11:10:26.968Z</time></trkpt><trkpt lat="41.1691719" lon="14.9672279"><ele>234.0</ele><time>2026-04-19T11:10:27.973Z</time></trkpt><trkpt lat="41.1691587" lon="14.967074"><ele>231.0</ele><time>2026-04-19T11:10:29.023Z</time></trkpt><trkpt lat="41.1691447" lon="14.9669208"><ele>228.0</ele><time>2026-04-19T11:10:29.965Z</time></trkpt><trkpt lat="41.1691275" lon="14.966771"><ele>225.0</ele><time>2026-04-19T11:10:30.965Z</time></trkpt><trkpt lat="41.1691159" lon="14.9666256"><ele>222.0</ele><time>2026-04-19T11:10:31.969Z</time></trkpt><trkpt lat="41.1691048" lon="14.9664776"><ele>219.39999999999998</ele><time>2026-04-19T11:10:32.973Z</time></trkpt><trkpt lat="41.1690977" lon="14.9663448"><ele>216.79999999999998</ele><time>2026-04-19T11:10:33.97Z</time></trkpt><trkpt lat="41.1690887" lon="14.9662244"><ele>214.2</ele><time>2026-04-19T11:10:34.971Z</time></trkpt><trkpt lat="41.169081" lon="14.9660936"><ele>211.6</ele><time>2026-04-19T11:10:36.076Z</time></trkpt><trkpt lat="41.1690729" lon="14.9659539"><ele>209.0</ele><time>2026-04-19T11:10:37.03Z</time></trkpt><trkpt lat="41.1690633" lon="14.9658294"><ele>207.66666666666669</ele><time>2026-04-19T11:10:38.029Z</time></trkpt><trkpt lat="41.1690476" lon="14.9657155"><ele>206.33333333333334</ele><time>2026-04-19T11:10:38.96Z</time></trkpt><trkpt lat="41.169029" lon="14.9656175"><ele>205.0</ele><time>2026-04-19T11:10:39.962Z</time></trkpt><trkpt lat="41.1690122" lon="14.9655331"><ele>203.66666666666669</ele><time>2026-04-19T11:10:40.963Z</time></trkpt><trkpt lat="41.1689982" lon="14.965439"><ele>202.33333333333334</ele><time>2026-04-19T11:10:41.962Z</time></trkpt><trkpt lat="41.168986" lon="14.9653131"><ele>201.0</ele><time>2026-04-19T11:10:42.962Z</time></trkpt><trkpt lat="41.1689805" lon="14.9651643"><ele>198.25</ele><time>2026-04-19T11:10:44.027Z</time></trkpt><trkpt lat="41.1689662" lon="14.9650088"><ele>195.5</ele><time>2026-04-19T11:10:44.952Z</time></trkpt><trkpt lat="41.1689537" lon="14.9648408"><ele>192.75</ele><time>2026-04-19T11:10:45.956Z</time></trkpt><trkpt lat="41.1689386" lon="14.964672"><ele>190.0</ele><time>2026-04-19T11:10:46.952Z</time></trkpt><trkpt lat="41.1689284" lon="14.9645117"><ele>190.0</ele><time>2026-04-19T11:10:47.96Z</time></trkpt><trkpt lat="41.1689139" lon="14.9643472"><ele>190.0</ele><time>2026-04-19T11:10:48.95Z</time></trkpt><trkpt lat="41.1689028" lon="14.9642072"><ele>190.0</ele><time>2026-04-19T11:10:49.952Z</time></trkpt><trkpt lat="41.1689087" lon="14.9641222"><ele>190.0</ele><time>2026-04-19T11:10:50.951Z</time></trkpt><trkpt lat="41.1689622" lon="14.9640151"><ele>190.0</ele><time>2026-04-19T11:10:53.035Z</time></trkpt><trkpt lat="41.1690278" lon="14.9639977"><ele>190.0</ele><time>2026-04-19T11:10:53.958Z</time></trkpt><trkpt lat="41.1691075" lon="14.9639942"><ele>190.0</ele><time>2026-04-19T11:10:54.954Z</time></trkpt><trkpt lat="41.1692096" lon="14.9639931"><ele>190.0</ele><time>2026-04-19T11:10:56.031Z</time></trkpt><trkpt lat="41.1693283" lon="14.963993"><ele>190.0</ele><time>2026-04-19T11:10:57.027Z</time></trkpt><trkpt lat="41.1694721" lon="14.9639935"><ele>190.0</ele><time>2026-04-19T11:10:58.032Z</time></trkpt><trkpt lat="41.169636" lon="14.9639881"><ele>190.0</ele><time>2026-04-19T11:10:59.03Z</time></trkpt><trkpt lat="41.1698033" lon="14.9639925"><ele>190.0</ele><time>2026-04-19T11:10:59.946Z</time></trkpt><trkpt lat="41.1699629" lon="14.9639915"><ele>190.0</ele><time>2026-04-19T11:11:00.95Z</time></trkpt><trkpt lat="41.1701188" lon="14.9639993"><ele>190.0</ele><time>2026-04-19T11:11:01.957Z</time></trkpt><trkpt lat="41.1702768" lon="14.9640203"><ele>190.0</ele><time>2026-04-19T11:11:02.952Z</time></trkpt><trkpt lat="41.1704392" lon="14.9640487"><ele>190.0</ele><time>2026-04-19T11:11:03.948Z</time></trkpt><trkpt lat="41.170591" lon="14.9640815"><ele>190.33333333333334</ele><time>2026-04-19T11:11:04.947Z</time></trkpt><trkpt lat="41.1707422" lon="14.9641131"><ele>190.66666666666666</ele><time>2026-04-19T11:11:06.031Z</time></trkpt><trkpt lat="41.1709024" lon="14.9641309"><ele>191.0</ele><time>2026-04-19T11:11:06.949Z</time></trkpt><trkpt lat="41.1710597" lon="14.9641511"><ele>191.0</ele><time>2026-04-19T11:11:07.952Z</time></trkpt><trkpt lat="41.1712109" lon="14.9641672"><ele>191.0</ele><time>2026-04-19T11:11:09.027Z</time></trkpt><trkpt lat="41.1713631" lon="14.9641802"><ele>191.0</ele><time>2026-04-19T11:11:09.951Z</time></trkpt><trkpt lat="41.1715198" lon="14.9641891"><ele>191.25</ele><time>2026-04-19T11:11:10.952Z</time></trkpt><trkpt lat="41.1716722" lon="14.9641934"><ele>191.5</ele><time>2026-04-19T11:11:11.953Z</time></trkpt><trkpt lat="41.1718144" lon="14.9641933"><ele>191.75</ele><time>2026-04-19T11:11:13.014Z</time></trkpt><trkpt lat="41.1719556" lon="14.9641882"><ele>192.0</ele><time>2026-04-19T11:11:14.031Z</time></trkpt><trkpt lat="41.172083" lon="14.9641781"><ele>192.0</ele><time>2026-04-19T11:11:14.947Z</time></trkpt><trkpt lat="41.1722007" lon="14.964149"><ele>192.0</ele><time>2026-04-19T11:11:15.948Z</time></trkpt><trkpt lat="41.1723098" lon="14.9641073"><ele>192.0</ele><time>2026-04-19T11:11:16.946Z</time></trkpt><trkpt lat="41.1724089" lon="14.9640321"><ele>192.0</ele><time>2026-04-19T11:11:18.033Z</time></trkpt><trkpt lat="41.1725062" lon="14.9639282"><ele>192.5</ele><time>2026-04-19T11:11:19.027Z</time></trkpt><trkpt lat="41.1726034" lon="14.9638151"><ele>193.0</ele><time>2026-04-19T11:11:19.95Z</time></trkpt><trkpt lat="41.1727013" lon="14.9637036"><ele>193.5</ele><time>2026-04-19T11:11:20.948Z</time></trkpt><trkpt lat="41.1728" lon="14.9636068"><ele>194.0</ele><time>2026-04-19T11:11:21.945Z</time></trkpt><trkpt lat="41.1729023" lon="14.9635254"><ele>194.0</ele><time>2026-04-19T11:11:22.947Z</time></trkpt><trkpt lat="41.1730152" lon="14.9634614"><ele>194.0</ele><time>2026-04-19T11:11:23.952Z</time></trkpt><trkpt lat="41.1731302" lon="14.9634234"><ele>194.0</ele><time>2026-04-19T11:11:24.954Z</time></trkpt><trkpt lat="41.1732354" lon="14.9633917"><ele>194.0</ele><time>2026-04-19T11:11:26.029Z</time></trkpt><trkpt lat="41.1733435" lon="14.9633598"><ele>194.0</ele><time>2026-04-19T11:11:27.031Z</time></trkpt><trkpt lat="41.1734496" lon="14.9633367"><ele>194.0</ele><time>2026-04-19T11:11:27.951Z</time></trkpt><trkpt lat="41.1735609" lon="14.9633008"><ele>194.0</ele><time>2026-04-19T11:11:28.953Z</time></trkpt><trkpt lat="41.1736717" lon="14.9632642"><ele>194.0</ele><time>2026-04-19T11:11:29.95Z</time></trkpt><trkpt lat="41.1737901" lon="14.9632298"><ele>194.00000000000003</ele><time>2026-04-19T11:11:30.954Z</time></trkpt><trkpt lat="41.1738948" lon="14.9631908"><ele>194.0</ele><time>2026-04-19T11:11:31.947Z</time></trkpt><trkpt lat="41.1739766" lon="14.9631535"><ele>194.0</ele><time>2026-04-19T11:11:32.953Z</time></trkpt><trkpt lat="41.1740368" lon="14.9631148"><ele>194.0</ele><time>2026-04-19T11:11:34.028Z</time></trkpt><trkpt lat="41.1741236" lon="14.9630325"><ele>194.00000000000003</ele><time>2026-04-19T11:11:35.955Z</time></trkpt><trkpt lat="41.1741897" lon="14.9629773"><ele>194.0</ele><time>2026-04-19T11:11:38.954Z</time></trkpt><trkpt lat="41.1742487" lon="14.9630169"><ele>194.0</ele><time>2026-04-19T11:12:14.952Z</time></trkpt><trkpt lat="41.1742663" lon="14.9631022"><ele>194.0</ele><time>2026-04-19T11:12:30.949Z</time></trkpt><trkpt lat="41.1743122" lon="14.9632423"><ele>194.0</ele><time>2026-04-19T11:12:32.951Z</time></trkpt><trkpt lat="41.1743645" lon="14.9633656"><ele>194.0</ele><time>2026-04-19T11:12:34.949Z</time></trkpt><trkpt lat="41.1744173" lon="14.9635043"><ele>194.0</ele><time>2026-04-19T11:12:36.945Z</time></trkpt><trkpt lat="41.1743934" lon="14.9636467"><ele>195.0</ele><time>2026-04-19T11:12:38.951Z</time></trkpt><trkpt lat="41.1743505" lon="14.9637115"><ele>196.0</ele><time>2026-04-19T11:12:39.947Z</time></trkpt><trkpt lat="41.1742943" lon="14.9638007"><ele>197.0</ele><time>2026-04-19T11:12:41.945Z</time></trkpt><trkpt lat="41.1743792" lon="14.9638465"><ele>198.0</ele><time>2026-04-19T11:12:43.948Z</time></trkpt><trkpt lat="41.1744957" lon="14.9638249"><ele>199.0</ele><time>2026-04-19T11:12:44.954Z</time></trkpt><trkpt lat="41.1746142" lon="14.9637998"><ele>198.99999999999997</ele><time>2026-04-19T11:12:45.943Z</time></trkpt><trkpt lat="41.1746854" lon="14.9637847"><ele>199.0</ele><time>2026-04-19T11:12:46.948Z</time></trkpt><trkpt lat="41.1747416" lon="14.9638235"><ele>199.0</ele><time>2026-04-19T11:12:47.944Z</time></trkpt><trkpt lat="41.1747846" lon="14.9638858"><ele>199.0</ele><time>2026-04-19T11:12:48.942Z</time></trkpt><trkpt lat="41.1748181" lon="14.9639593"><ele>199.0</ele><time>2026-04-19T11:12:49.946Z</time></trkpt><trkpt lat="41.1748551" lon="14.9640529"><ele>198.99999999999997</ele><time>2026-04-19T11:12:51.947Z</time></trkpt><trkpt lat="41.1749275" lon="14.9640981"><ele>199.0</ele><time>2026-04-19T11:12:53.949Z</time></trkpt><trkpt lat="41.1748491" lon="14.9641814"><ele>199.0</ele><time>2026-04-19T11:12:57.961Z</time></trkpt><trkpt lat="41.1747856" lon="14.9641588"><ele>199.0</ele><time>2026-04-19T11:12:59.954Z</time></trkpt><trkpt lat="41.1746702" lon="14.9642068"><ele>199.0</ele><time>2026-04-19T11:13:01.957Z</time></trkpt><trkpt lat="41.1745639" lon="14.9642691"><ele>199.0</ele><time>2026-04-19T11:13:04.026Z</time></trkpt><trkpt lat="41.1744872" lon="14.9643204"><ele>199.0</ele><time>2026-04-19T11:13:05.952Z</time></trkpt><trkpt lat="41.1744403" lon="14.9644526"><ele>201.16666666666666</ele><time>2026-04-19T11:13:07.956Z</time></trkpt><trkpt lat="41.1744032" lon="14.9645711"><ele>203.33333333333331</ele><time>2026-04-19T11:13:09.035Z</time></trkpt><trkpt lat="41.1743624" lon="14.9646841"><ele>205.5</ele><time>2026-04-19T11:13:09.944Z</time></trkpt><trkpt lat="41.1743195" lon="14.9647708"><ele>207.66666666666669</ele><time>2026-04-19T11:13:10.972Z</time></trkpt><trkpt lat="41.1742268" lon="14.9647886"><ele>209.83333333333334</ele><time>2026-04-19T11:13:13.024Z</time></trkpt><trkpt lat="41.1741504" lon="14.9648384"><ele>212.0</ele><time>2026-04-19T11:13:14.954Z</time></trkpt><trkpt lat="41.1741239" lon="14.9649428"><ele>214.39999999999998</ele><time>2026-04-19T11:13:18.056Z</time></trkpt><trkpt lat="41.1741397" lon="14.9650409"><ele>216.79999999999998</ele><time>2026-04-19T11:13:19.952Z</time></trkpt><trkpt lat="41.1741297" lon="14.9651634"><ele>219.2</ele><time>2026-04-19T11:13:21.953Z</time></trkpt><trkpt lat="41.1741458" lon="14.9653805"><ele>221.6</ele><time>2026-04-19T11:13:23.954Z</time></trkpt><trkpt lat="41.1741569" lon="14.9655201"><ele>224.0</ele><time>2026-04-19T11:13:24.96Z</time></trkpt><trkpt lat="41.1741663" lon="14.9656533"><ele>224.00000000000003</ele><time>2026-04-19T11:13:25.956Z</time></trkpt><trkpt lat="41.1741849" lon="14.9657791"><ele>224.0</ele><time>2026-04-19T11:13:27.028Z</time></trkpt><trkpt lat="41.1741853" lon="14.9659051"><ele>224.0</ele><time>2026-04-19T11:13:28.953Z</time></trkpt><trkpt lat="41.174223" lon="14.9659964"><ele>224.0</ele><time>2026-04-19T11:13:31.03Z</time></trkpt><trkpt lat="41.1743121" lon="14.9660532"><ele>224.00000000000003</ele><time>2026-04-19T11:13:32.951Z</time></trkpt><trkpt lat="41.1743775" lon="14.9660566"><ele>224.0</ele><time>2026-04-19T11:13:33.953Z</time></trkpt><trkpt lat="41.1744662" lon="14.9660288"><ele>226.6</ele><time>2026-04-19T11:13:35.952Z</time></trkpt><trkpt lat="41.1744999" lon="14.9661043"><ele>229.2</ele><time>2026-04-19T11:13:38.969Z</time></trkpt><trkpt lat="41.1744842" lon="14.9662769"><ele>231.79999999999998</ele><time>2026-04-19T11:13:40.955Z</time></trkpt><trkpt lat="41.1745063" lon="14.96642"><ele>234.39999999999998</ele><time>2026-04-19T11:13:41.954Z</time></trkpt><trkpt lat="41.1745564" lon="14.9665555"><ele>237.0</ele><time>2026-04-19T11:13:42.953Z</time></trkpt><trkpt lat="41.174592" lon="14.9666541"><ele>239.39999999999998</ele><time>2026-04-19T11:13:43.954Z</time></trkpt><trkpt lat="41.174653" lon="14.9667717"><ele>241.79999999999998</ele><time>2026-04-19T11:13:45.95Z</time></trkpt><trkpt lat="41.1746767" lon="14.9668614"><ele>244.2</ele><time>2026-04-19T11:13:46.955Z</time></trkpt><trkpt lat="41.1746905" lon="14.9669503"><ele>246.6</ele><time>2026-04-19T11:13:47.949Z</time></trkpt><trkpt lat="41.1747555" lon="14.9670382"><ele>249.0</ele><time>2026-04-19T11:13:49.951Z</time></trkpt><trkpt lat="41.1748704" lon="14.9670625"><ele>249.16666666666666</ele><time>2026-04-19T11:13:51.962Z</time></trkpt><trkpt lat="41.1749241" lon="14.9670068"><ele>249.33333333333331</ele><time>2026-04-19T11:13:53.951Z</time></trkpt><trkpt lat="41.174948" lon="14.9669245"><ele>249.5</ele><time>2026-04-19T11:13:55.97Z</time></trkpt><trkpt lat="41.1749334" lon="14.966826"><ele>249.66666666666666</ele><time>2026-04-19T11:13:57.953Z</time></trkpt><trkpt lat="41.1749025" lon="14.9667095"><ele>249.83333333333331</ele><time>2026-04-19T11:14:01.02Z</time></trkpt><trkpt lat="41.1748972" lon="14.9665717"><ele>250.0</ele><time>2026-04-19T11:14:02.948Z</time></trkpt><trkpt lat="41.174928" lon="14.9664905"><ele>249.99999999999997</ele><time>2026-04-19T11:14:04.954Z</time></trkpt><trkpt lat="41.1749911" lon="14.9664256"><ele>250.0</ele><time>2026-04-19T11:14:06.952Z</time></trkpt><trkpt lat="41.1750571" lon="14.9664862"><ele>250.0</ele><time>2026-04-19T11:14:12.95Z</time></trkpt><trkpt lat="41.1751248" lon="14.9664759"><ele>250.0</ele><time>2026-04-19T11:14:14.948Z</time></trkpt><trkpt lat="41.1752104" lon="14.9664085"><ele>249.99999999999997</ele><time>2026-04-19T11:14:16.946Z</time></trkpt><trkpt lat="41.1752625" lon="14.9663391"><ele>250.0</ele><time>2026-04-19T11:14:17.944Z</time></trkpt><trkpt lat="41.1753159" lon="14.9662526"><ele>250.0</ele><time>2026-04-19T11:14:18.943Z</time></trkpt><trkpt lat="41.1753593" lon="14.9661804"><ele>250.0</ele><time>2026-04-19T11:14:19.947Z</time></trkpt><trkpt lat="41.1754172" lon="14.9660573"><ele>250.0</ele><time>2026-04-19T11:14:21.951Z</time></trkpt><trkpt lat="41.175412" lon="14.9659479"><ele>250.0</ele><time>2026-04-19T11:14:23.942Z</time></trkpt><trkpt lat="41.1754002" lon="14.965786"><ele>250.0</ele><time>2026-04-19T11:14:25.951Z</time></trkpt><trkpt lat="41.175372" lon="14.9656488"><ele>246.83333333333331</ele><time>2026-04-19T11:14:26.95Z</time></trkpt><trkpt lat="41.1753393" lon="14.9655148"><ele>243.66666666666666</ele><time>2026-04-19T11:14:27.953Z</time></trkpt><trkpt lat="41.1753094" lon="14.9654101"><ele>240.5</ele><time>2026-04-19T11:14:28.951Z</time></trkpt><trkpt lat="41.1753084" lon="14.9653077"><ele>237.33333333333331</ele><time>2026-04-19T11:14:29.954Z</time></trkpt><trkpt lat="41.1753108" lon="14.9652037"><ele>234.16666666666666</ele><time>2026-04-19T11:14:30.965Z</time></trkpt><trkpt lat="41.1753204" lon="14.9651151"><ele>231.0</ele><time>2026-04-19T11:14:31.948Z</time></trkpt><trkpt lat="41.1753333" lon="14.9649623"><ele>228.60000000000002</ele><time>2026-04-19T11:14:33.947Z</time></trkpt><trkpt lat="41.1754399" lon="14.9648638"><ele>226.20000000000002</ele><time>2026-04-19T11:14:35.95Z</time></trkpt><trkpt lat="41.1755049" lon="14.9648486"><ele>223.79999999999998</ele><time>2026-04-19T11:14:36.945Z</time></trkpt><trkpt lat="41.1755486" lon="14.9647865"><ele>221.39999999999998</ele><time>2026-04-19T11:14:39.025Z</time></trkpt><trkpt lat="41.1756216" lon="14.9646793"><ele>219.0</ele><time>2026-04-19T11:14:41.947Z</time></trkpt><trkpt lat="41.175642" lon="14.9645739"><ele>219.0</ele><time>2026-04-19T11:14:43.952Z</time></trkpt><trkpt lat="41.175617" lon="14.964493"><ele>219.0</ele><time>2026-04-19T11:14:44.952Z</time></trkpt><trkpt lat="41.1755817" lon="14.9643912"><ele>219.0</ele><time>2026-04-19T11:14:45.957Z</time></trkpt><trkpt lat="41.1755561" lon="14.9643092"><ele>219.0</ele><time>2026-04-19T11:14:47.028Z</time></trkpt><trkpt lat="41.1755151" lon="14.964234"><ele>219.0</ele><time>2026-04-19T11:14:48.955Z</time></trkpt><trkpt lat="41.1754475" lon="14.9641744"><ele>219.0</ele><time>2026-04-19T11:14:50.956Z</time></trkpt><trkpt lat="41.1753528" lon="14.9640263"><ele>216.39999999999998</ele><time>2026-04-19T11:14:52.955Z</time></trkpt><trkpt lat="41.1753146" lon="14.9639594"><ele>213.79999999999998</ele><time>2026-04-19T11:14:53.955Z</time></trkpt><trkpt lat="41.1752694" lon="14.9638522"><ele>211.2</ele><time>2026-04-19T11:14:54.954Z</time></trkpt><trkpt lat="41.1752057" lon="14.9637232"><ele>208.60000000000002</ele><time>2026-04-19T11:14:55.952Z</time></trkpt><trkpt lat="41.1751469" lon="14.9635864"><ele>206.0</ele><time>2026-04-19T11:14:56.953Z</time></trkpt><trkpt lat="41.1750992" lon="14.9634482"><ele>204.50000000000003</ele><time>2026-04-19T11:14:57.952Z</time></trkpt><trkpt lat="41.1750708" lon="14.9633573"><ele>203.0</ele><time>2026-04-19T11:14:58.956Z</time></trkpt><trkpt lat="41.1750859" lon="14.9632461"><ele>201.5</ele><time>2026-04-19T11:15:00.95Z</time></trkpt><trkpt lat="41.1751816" lon="14.9632046"><ele>200.0</ele><time>2026-04-19T11:15:01.962Z</time></trkpt><trkpt lat="41.1752683" lon="14.9631627"><ele>198.50000000000003</ele><time>2026-04-19T11:15:02.954Z</time></trkpt><trkpt lat="41.1753486" lon="14.9631517"><ele>197.0</ele><time>2026-04-19T11:15:04.954Z</time></trkpt><trkpt lat="41.1754393" lon="14.9632269"><ele>197.00000000000003</ele><time>2026-04-19T11:15:06.954Z</time></trkpt><trkpt lat="41.175513" lon="14.9632409"><ele>197.0</ele><time>2026-04-19T11:15:07.954Z</time></trkpt><trkpt lat="41.1756042" lon="14.963241"><ele>197.0</ele><time>2026-04-19T11:15:09.03Z</time></trkpt><trkpt lat="41.1756974" lon="14.9632347"><ele>197.0</ele><time>2026-04-19T11:15:09.969Z</time></trkpt><trkpt lat="41.1757796" lon="14.9632484"><ele>197.00000000000003</ele><time>2026-04-19T11:15:11.033Z</time></trkpt><trkpt lat="41.1758466" lon="14.9632637"><ele>197.0</ele><time>2026-04-19T11:15:11.949Z</time></trkpt><trkpt lat="41.1759725" lon="14.9632241"><ele>197.6</ele><time>2026-04-19T11:15:13.945Z</time></trkpt><trkpt lat="41.1760682" lon="14.9632561"><ele>198.2</ele><time>2026-04-19T11:15:15.952Z</time></trkpt><trkpt lat="41.1761632" lon="14.9632544"><ele>198.8</ele><time>2026-04-19T11:15:17.947Z</time></trkpt><trkpt lat="41.1762419" lon="14.963261"><ele>199.4</ele><time>2026-04-19T11:15:18.952Z</time></trkpt><trkpt lat="41.1763286" lon="14.9632923"><ele>200.0</ele><time>2026-04-19T11:15:19.944Z</time></trkpt><trkpt lat="41.1764294" lon="14.9633568"><ele>201.6</ele><time>2026-04-19T11:15:20.952Z</time></trkpt><trkpt lat="41.1765273" lon="14.9634107"><ele>203.2</ele><time>2026-04-19T11:15:21.947Z</time></trkpt><trkpt lat="41.1766157" lon="14.9634558"><ele>204.8</ele><time>2026-04-19T11:15:22.952Z</time></trkpt><trkpt lat="41.1767176" lon="14.9635102"><ele>206.4</ele><time>2026-04-19T11:15:23.952Z</time></trkpt><trkpt lat="41.1768276" lon="14.9635734"><ele>208.0</ele><time>2026-04-19T11:15:24.95Z</time></trkpt><trkpt lat="41.1769382" lon="14.9636272"><ele>208.0</ele><time>2026-04-19T11:15:26.038Z</time></trkpt><trkpt lat="41.1770343" lon="14.9636778"><ele>208.0</ele><time>2026-04-19T11:15:26.958Z</time></trkpt><trkpt lat="41.1771328" lon="14.963723"><ele>208.0</ele><time>2026-04-19T11:15:27.959Z</time></trkpt><trkpt lat="41.1772199" lon="14.9637718"><ele>208.0</ele><time>2026-04-19T11:15:28.98Z</time></trkpt><trkpt lat="41.1772996" lon="14.9638195"><ele>208.0</ele><time>2026-04-19T11:15:29.961Z</time></trkpt><trkpt lat="41.1773772" lon="14.9638609"><ele>207.16666666666666</ele><time>2026-04-19T11:15:30.96Z</time></trkpt><trkpt lat="41.1774642" lon="14.963891"><ele>206.33333333333331</ele><time>2026-04-19T11:15:31.959Z</time></trkpt><trkpt lat="41.1775357" lon="14.9639221"><ele>205.5</ele><time>2026-04-19T11:15:33.04Z</time></trkpt><trkpt lat="41.1775882" lon="14.9639815"><ele>204.66666666666669</ele><time>2026-04-19T11:15:33.964Z</time></trkpt><trkpt lat="41.1776186" lon="14.9640549"><ele>203.83333333333334</ele><time>2026-04-19T11:15:34.962Z</time></trkpt><trkpt lat="41.1776607" lon="14.9642089"><ele>203.0</ele><time>2026-04-19T11:15:36.963Z</time></trkpt><trkpt lat="41.1777159" lon="14.9642574"><ele>205.4</ele><time>2026-04-19T11:15:38.028Z</time></trkpt><trkpt lat="41.1777789" lon="14.9643201"><ele>207.8</ele><time>2026-04-19T11:15:39.026Z</time></trkpt><trkpt lat="41.1778339" lon="14.9644204"><ele>210.2</ele><time>2026-04-19T11:15:39.96Z</time></trkpt><trkpt lat="41.1778952" lon="14.9645267"><ele>212.6</ele><time>2026-04-19T11:15:40.955Z</time></trkpt><trkpt lat="41.1779635" lon="14.9646115"><ele>215.0</ele><time>2026-04-19T11:15:41.953Z</time></trkpt><trkpt lat="41.1780373" lon="14.9646891"><ele>215.0</ele><time>2026-04-19T11:15:43.028Z</time></trkpt><trkpt lat="41.1781279" lon="14.9647624"><ele>215.0</ele><time>2026-04-19T11:15:44.027Z</time></trkpt><trkpt lat="41.1782228" lon="14.964842"><ele>215.0</ele><time>2026-04-19T11:15:44.951Z</time></trkpt><trkpt lat="41.1783065" lon="14.9649081"><ele>215.0</ele><time>2026-04-19T11:15:45.949Z</time></trkpt><trkpt lat="41.178431" lon="14.964947"><ele>215.0</ele><time>2026-04-19T11:15:48.034Z</time></trkpt><trkpt lat="41.1785155" lon="14.9649757"><ele>215.4</ele><time>2026-04-19T11:15:49.024Z</time></trkpt><trkpt lat="41.1786048" lon="14.9650389"><ele>215.8</ele><time>2026-04-19T11:15:49.991Z</time></trkpt><trkpt lat="41.1786763" lon="14.9651097"><ele>216.2</ele><time>2026-04-19T11:15:51.031Z</time></trkpt><trkpt lat="41.1786887" lon="14.9652681"><ele>216.6</ele><time>2026-04-19T11:15:52.941Z</time></trkpt><trkpt lat="41.1786817" lon="14.9653704"><ele>217.0</ele><time>2026-04-19T11:15:53.954Z</time></trkpt><trkpt lat="41.1786748" lon="14.9654723"><ele>217.0</ele><time>2026-04-19T11:15:55.944Z</time></trkpt><trkpt lat="41.1785567" lon="14.9653956"><ele>217.0</ele><time>2026-04-19T11:15:57.94Z</time></trkpt><trkpt lat="41.1784626" lon="14.9652923"><ele>217.0</ele><time>2026-04-19T11:15:58.981Z</time></trkpt><trkpt lat="41.1783566" lon="14.9651545"><ele>217.0</ele><time>2026-04-19T11:15:59.951Z</time></trkpt><trkpt lat="41.178227" lon="14.9650236"><ele>216.6</ele><time>2026-04-19T11:16:00.952Z</time></trkpt><trkpt lat="41.1780993" lon="14.9649134"><ele>216.2</ele><time>2026-04-19T11:16:01.948Z</time></trkpt><trkpt lat="41.1780051" lon="14.9648462"><ele>215.8</ele><time>2026-04-19T11:16:02.94Z</time></trkpt><trkpt lat="41.1779428" lon="14.9648266"><ele>215.4</ele><time>2026-04-19T11:16:03.951Z</time></trkpt><trkpt lat="41.1778761" lon="14.9648073"><ele>215.0</ele><time>2026-04-19T11:16:04.952Z</time></trkpt><trkpt lat="41.1778501" lon="14.9647168"><ele>215.0</ele><time>2026-04-19T11:16:08.952Z</time></trkpt><trkpt lat="41.1778016" lon="14.9646078"><ele>215.0</ele><time>2026-04-19T11:16:10.952Z</time></trkpt><trkpt lat="41.1777165" lon="14.9644795"><ele>215.0</ele><time>2026-04-19T11:16:11.952Z</time></trkpt><trkpt lat="41.1776069" lon="14.9643507"><ele>215.0</ele><time>2026-04-19T11:16:12.956Z</time></trkpt><trkpt lat="41.1774791" lon="14.9641971"><ele>212.66666666666669</ele><time>2026-04-19T11:16:13.956Z</time></trkpt><trkpt lat="41.1773546" lon="14.9640452"><ele>210.33333333333331</ele><time>2026-04-19T11:16:14.977Z</time></trkpt><trkpt lat="41.1772293" lon="14.9639217"><ele>208.0</ele><time>2026-04-19T11:16:15.949Z</time></trkpt><trkpt lat="41.1770835" lon="14.9638257"><ele>208.0</ele><time>2026-04-19T11:16:16.953Z</time></trkpt><trkpt lat="41.1769518" lon="14.9637673"><ele>208.0</ele><time>2026-04-19T11:16:17.949Z</time></trkpt><trkpt lat="41.1768359" lon="14.963749"><ele>208.0</ele><time>2026-04-19T11:16:18.95Z</time></trkpt><trkpt lat="41.1767227" lon="14.9637454"><ele>208.0</ele><time>2026-04-19T11:16:19.948Z</time></trkpt><trkpt lat="41.1766006" lon="14.9637498"><ele>208.60000000000002</ele><time>2026-04-19T11:16:20.949Z</time></trkpt><trkpt lat="41.1764834" lon="14.9637625"><ele>209.20000000000002</ele><time>2026-04-19T11:16:22.029Z</time></trkpt><trkpt lat="41.1763798" lon="14.9637727"><ele>209.8</ele><time>2026-04-19T11:16:22.947Z</time></trkpt><trkpt lat="41.1762948" lon="14.9637674"><ele>210.4</ele><time>2026-04-19T11:16:24.011Z</time></trkpt><trkpt lat="41.176197" lon="14.9637472"><ele>211.0</ele><time>2026-04-19T11:16:25.947Z</time></trkpt><trkpt lat="41.1761806" lon="14.9638766"><ele>211.0</ele><time>2026-04-19T11:16:28.937Z</time></trkpt><trkpt lat="41.1761661" lon="14.9640216"><ele>211.0</ele><time>2026-04-19T11:16:30.945Z</time></trkpt><trkpt lat="41.1761371" lon="14.9641257"><ele>211.0</ele><time>2026-04-19T11:16:32.949Z</time></trkpt><trkpt lat="41.1761894" lon="14.9642097"><ele>211.0</ele><time>2026-04-19T11:16:34.945Z</time></trkpt><trkpt lat="41.1763227" lon="14.9642363"><ele>211.0</ele><time>2026-04-19T11:16:36.948Z</time></trkpt><trkpt lat="41.1763983" lon="14.9642406"><ele>212.71428571428572</ele><time>2026-04-19T11:16:37.94Z</time></trkpt><trkpt lat="41.1764613" lon="14.9642391"><ele>214.42857142857144</ele><time>2026-04-19T11:16:38.953Z</time></trkpt><trkpt lat="41.1765268" lon="14.9642577"><ele>216.14285714285714</ele><time>2026-04-19T11:16:40.949Z</time></trkpt><trkpt lat="41.1765835" lon="14.9643479"><ele>217.85714285714286</ele><time>2026-04-19T11:16:44.035Z</time></trkpt><trkpt lat="41.1766525" lon="14.9643929"><ele>219.57142857142856</ele><time>2026-04-19T11:16:45.963Z</time></trkpt><trkpt lat="41.1767203" lon="14.9643991"><ele>221.28571428571428</ele><time>2026-04-19T11:16:47.964Z</time></trkpt><trkpt lat="41.1767947" lon="14.9643932"><ele>223.0</ele><time>2026-04-19T11:16:49.968Z</time></trkpt><trkpt lat="41.1768938" lon="14.9644401"><ele>222.99999999999997</ele><time>2026-04-19T11:16:53.042Z</time></trkpt><trkpt lat="41.1769687" lon="14.964484"><ele>223.0</ele><time>2026-04-19T11:16:54.95Z</time></trkpt><trkpt lat="41.1770343" lon="14.9645733"><ele>223.0</ele><time>2026-04-19T11:16:57.951Z</time></trkpt><trkpt lat="41.1770363" lon="14.9646808"><ele>223.0</ele><time>2026-04-19T11:16:59.951Z</time></trkpt><trkpt lat="41.1770287" lon="14.964809"><ele>222.99999999999997</ele><time>2026-04-19T11:17:02.948Z</time></trkpt><trkpt lat="41.1770648" lon="14.9649258"><ele>223.0</ele><time>2026-04-19T11:17:04.949Z</time></trkpt><trkpt lat="41.1771503" lon="14.9650174"><ele>225.0</ele><time>2026-04-19T11:17:06.949Z</time></trkpt><trkpt lat="41.1772381" lon="14.9650667"><ele>227.0</ele><time>2026-04-19T11:17:08.956Z</time></trkpt><trkpt lat="41.1773753" lon="14.9651314"><ele>229.0</ele><time>2026-04-19T11:17:10.957Z</time></trkpt><trkpt lat="41.1774893" lon="14.9652404"><ele>231.0</ele><time>2026-04-19T11:17:11.967Z</time></trkpt><trkpt lat="41.1775945" lon="14.9653429"><ele>231.0</ele><time>2026-04-19T11:17:13.03Z</time></trkpt><trkpt lat="41.1776914" lon="14.9654411"><ele>231.0</ele><time>2026-04-19T11:17:14.027Z</time></trkpt><trkpt lat="41.1777729" lon="14.965541"><ele>231.0</ele><time>2026-04-19T11:17:14.951Z</time></trkpt><trkpt lat="41.177844" lon="14.9656474"><ele>231.0</ele><time>2026-04-19T11:17:15.947Z</time></trkpt><trkpt lat="41.1779304" lon="14.9657594"><ele>229.8</ele><time>2026-04-19T11:17:16.954Z</time></trkpt><trkpt lat="41.1780156" lon="14.9658623"><ele>228.60000000000002</ele><time>2026-04-19T11:17:17.946Z</time></trkpt><trkpt lat="41.1780892" lon="14.9659651"><ele>227.4</ele><time>2026-04-19T11:17:18.947Z</time></trkpt><trkpt lat="41.1781594" lon="14.9660681"><ele>226.2</ele><time>2026-04-19T11:17:19.951Z</time></trkpt><trkpt lat="41.1781905" lon="14.9661703"><ele>225.0</ele><time>2026-04-19T11:17:21.03Z</time></trkpt><trkpt lat="41.1782218" lon="14.966289"><ele>225.0</ele><time>2026-04-19T11:17:22.028Z</time></trkpt><trkpt lat="41.1782332" lon="14.966387"><ele>225.0</ele><time>2026-04-19T11:17:23.028Z</time></trkpt><trkpt lat="41.178272" lon="14.9664872"><ele>225.0</ele><time>2026-04-19T11:17:23.953Z</time></trkpt><trkpt lat="41.1783354" lon="14.9665615"><ele>225.0</ele><time>2026-04-19T11:17:24.957Z</time></trkpt><trkpt lat="41.1784226" lon="14.9666578"><ele>225.0</ele><time>2026-04-19T11:17:25.946Z</time></trkpt><trkpt lat="41.1784824" lon="14.9667172"><ele>225.0</ele><time>2026-04-19T11:17:26.957Z</time></trkpt><trkpt lat="41.1785413" lon="14.9668133"><ele>225.6</ele><time>2026-04-19T11:17:29.025Z</time></trkpt><trkpt lat="41.1786249" lon="14.9669124"><ele>226.2</ele><time>2026-04-19T11:17:30.957Z</time></trkpt><trkpt lat="41.178666" lon="14.9669782"><ele>226.8</ele><time>2026-04-19T11:17:31.952Z</time></trkpt><trkpt lat="41.178743" lon="14.9670368"><ele>227.4</ele><time>2026-04-19T11:17:32.963Z</time></trkpt><trkpt lat="41.1788517" lon="14.9670857"><ele>228.0</ele><time>2026-04-19T11:17:33.954Z</time></trkpt><trkpt lat="41.1789534" lon="14.9671492"><ele>225.5</ele><time>2026-04-19T11:17:34.956Z</time></trkpt><trkpt lat="41.1790278" lon="14.9672021"><ele>223.0</ele><time>2026-04-19T11:17:35.953Z</time></trkpt><trkpt lat="41.1791226" lon="14.9672573"><ele>220.5</ele><time>2026-04-19T11:17:38.033Z</time></trkpt><trkpt lat="41.1791828" lon="14.9671801"><ele>218.0</ele><time>2026-04-19T11:17:40.951Z</time></trkpt><trkpt lat="41.1791989" lon="14.9670693"><ele>215.5</ele><time>2026-04-19T11:17:43.029Z</time></trkpt><trkpt lat="41.1792386" lon="14.9669861"><ele>213.0</ele><time>2026-04-19T11:17:44.947Z</time></trkpt><trkpt lat="41.1793267" lon="14.9669869"><ele>213.0</ele><time>2026-04-19T11:17:47.953Z</time></trkpt><trkpt lat="41.1793954" lon="14.9670104"><ele>213.0</ele><time>2026-04-19T11:17:49.948Z</time></trkpt><trkpt lat="41.1794652" lon="14.9671137"><ele>213.0</ele><time>2026-04-19T11:17:51.949Z</time></trkpt><trkpt lat="41.1794872" lon="14.9672151"><ele>213.0</ele><time>2026-04-19T11:17:52.949Z</time></trkpt><trkpt lat="41.1795194" lon="14.9673297"><ele>213.0</ele><time>2026-04-19T11:17:54.013Z</time></trkpt><trkpt lat="41.1795463" lon="14.9674392"><ele>213.0</ele><time>2026-04-19T11:17:54.946Z</time></trkpt><trkpt lat="41.1795753" lon="14.9675451"><ele>215.8</ele><time>2026-04-19T11:17:55.952Z</time></trkpt><trkpt lat="41.1796024" lon="14.9676559"><ele>218.60000000000002</ele><time>2026-04-19T11:17:56.946Z</time></trkpt><trkpt lat="41.1796306" lon="14.9677787"><ele>221.39999999999998</ele><time>2026-04-19T11:17:57.945Z</time></trkpt><trkpt lat="41.1796647" lon="14.9679144"><ele>224.2</ele><time>2026-04-19T11:17:58.943Z</time></trkpt><trkpt lat="41.1796938" lon="14.9680579"><ele>227.0</ele><time>2026-04-19T11:17:59.946Z</time></trkpt><trkpt lat="41.1797188" lon="14.9681931"><ele>227.0</ele><time>2026-04-19T11:18:00.942Z</time></trkpt><trkpt lat="41.1797408" lon="14.9683245"><ele>227.0</ele><time>2026-04-19T11:18:01.943Z</time></trkpt><trkpt lat="41.1797548" lon="14.968459"><ele>227.0</ele><time>2026-04-19T11:18:03.018Z</time></trkpt><trkpt lat="41.1797664" lon="14.9685918"><ele>227.0</ele><time>2026-04-19T11:18:04.034Z</time></trkpt><trkpt lat="41.1797717" lon="14.9687484"><ele>227.0</ele><time>2026-04-19T11:18:04.949Z</time></trkpt><trkpt lat="41.1797841" lon="14.9689072"><ele>229.5</ele><time>2026-04-19T11:18:05.95Z</time></trkpt><trkpt lat="41.1797967" lon="14.9690584"><ele>232.0</ele><time>2026-04-19T11:18:06.94Z</time></trkpt><trkpt lat="41.1798108" lon="14.9692181"><ele>234.5</ele><time>2026-04-19T11:18:07.95Z</time></trkpt><trkpt lat="41.1798226" lon="14.9693839"><ele>237.0</ele><time>2026-04-19T11:18:08.951Z</time></trkpt><trkpt lat="41.1798354" lon="14.9695324"><ele>231.2</ele><time>2026-04-19T11:18:09.951Z</time></trkpt><trkpt lat="41.179853" lon="14.9696755"><ele>225.39999999999998</ele><time>2026-04-19T11:18:11.012Z</time></trkpt><trkpt lat="41.1798812" lon="14.9698108"><ele>219.60000000000002</ele><time>2026-04-19T11:18:11.952Z</time></trkpt><trkpt lat="41.1799246" lon="14.9699427"><ele>213.8</ele><time>2026-04-19T11:18:12.943Z</time></trkpt><trkpt lat="41.1799768" lon="14.9700695"><ele>208.0</ele><time>2026-04-19T11:18:13.952Z</time></trkpt><trkpt lat="41.180035" lon="14.9702152"><ele>207.75</ele><time>2026-04-19T11:18:14.946Z</time></trkpt><trkpt lat="41.1800959" lon="14.9703767"><ele>207.5</ele><time>2026-04-19T11:18:15.952Z</time></trkpt><trkpt lat="41.1801566" lon="14.970521"><ele>207.25</ele><time>2026-04-19T11:18:17.015Z</time></trkpt><trkpt lat="41.1802208" lon="14.970659"><ele>207.0</ele><time>2026-04-19T11:18:18.027Z</time></trkpt><trkpt lat="41.1802816" lon="14.9707797"><ele>207.2</ele><time>2026-04-19T11:18:19.026Z</time></trkpt><trkpt lat="41.180349" lon="14.9708876"><ele>207.39999999999998</ele><time>2026-04-19T11:18:19.962Z</time></trkpt><trkpt lat="41.1804101" lon="14.9709846"><ele>207.60000000000002</ele><time>2026-04-19T11:18:20.954Z</time></trkpt><trkpt lat="41.1804624" lon="14.9710844"><ele>207.8</ele><time>2026-04-19T11:18:21.957Z</time></trkpt><trkpt lat="41.1805103" lon="14.9711929"><ele>208.0</ele><time>2026-04-19T11:18:23.029Z</time></trkpt><trkpt lat="41.1805526" lon="14.9712963"><ele>208.0</ele><time>2026-04-19T11:18:24.029Z</time></trkpt><trkpt lat="41.1805899" lon="14.9714097"><ele>208.0</ele><time>2026-04-19T11:18:24.948Z</time></trkpt><trkpt lat="41.1806334" lon="14.9715231"><ele>208.0</ele><time>2026-04-19T11:18:25.96Z</time></trkpt><trkpt lat="41.18068" lon="14.9716461"><ele>208.0</ele><time>2026-04-19T11:18:26.967Z</time></trkpt><trkpt lat="41.1807333" lon="14.9717694"><ele>208.0</ele><time>2026-04-19T11:18:27.95Z</time></trkpt><trkpt lat="41.1807761" lon="14.9718912"><ele>207.60000000000002</ele><time>2026-04-19T11:18:29.02Z</time></trkpt><trkpt lat="41.1808148" lon="14.9720173"><ele>207.20000000000002</ele><time>2026-04-19T11:18:29.95Z</time></trkpt><trkpt lat="41.1808454" lon="14.9721598"><ele>206.8</ele><time>2026-04-19T11:18:30.951Z</time></trkpt><trkpt lat="41.180873" lon="14.9723149"><ele>206.4</ele><time>2026-04-19T11:18:32.038Z</time></trkpt><trkpt lat="41.1809042" lon="14.9724623"><ele>206.0</ele><time>2026-04-19T11:18:32.953Z</time></trkpt><trkpt lat="41.1809309" lon="14.9726284"><ele>205.75</ele><time>2026-04-19T11:18:33.952Z</time></trkpt><trkpt lat="41.1809533" lon="14.9727966"><ele>205.5</ele><time>2026-04-19T11:18:34.95Z</time></trkpt><trkpt lat="41.1809801" lon="14.9729608"><ele>205.25</ele><time>2026-04-19T11:18:35.951Z</time></trkpt><trkpt lat="41.1810105" lon="14.9730934"><ele>205.0</ele><time>2026-04-19T11:18:37.031Z</time></trkpt><trkpt lat="41.1810517" lon="14.9732229"><ele>205.0</ele><time>2026-04-19T11:18:37.958Z</time></trkpt><trkpt lat="41.1811053" lon="14.9733457"><ele>205.0</ele><time>2026-04-19T11:18:38.96Z</time></trkpt><trkpt lat="41.1811818" lon="14.9734524"><ele>205.0</ele><time>2026-04-19T11:18:39.958Z</time></trkpt><trkpt lat="41.1812778" lon="14.9735518"><ele>205.0</ele><time>2026-04-19T11:18:40.961Z</time></trkpt><trkpt lat="41.1814027" lon="14.9736546"><ele>205.5</ele><time>2026-04-19T11:18:41.962Z</time></trkpt><trkpt lat="41.1815306" lon="14.9737611"><ele>206.0</ele><time>2026-04-19T11:18:42.967Z</time></trkpt><trkpt lat="41.1816444" lon="14.973876"><ele>206.5</ele><time>2026-04-19T11:18:44.027Z</time></trkpt><trkpt lat="41.1817529" lon="14.9739819"><ele>207.0</ele><time>2026-04-19T11:18:44.97Z</time></trkpt><trkpt lat="41.1818683" lon="14.9740885"><ele>207.0</ele><time>2026-04-19T11:18:45.96Z</time></trkpt><trkpt lat="41.1819862" lon="14.9741966"><ele>207.0</ele><time>2026-04-19T11:18:46.962Z</time></trkpt><trkpt lat="41.182098" lon="14.9743133"><ele>207.0</ele><time>2026-04-19T11:18:47.964Z</time></trkpt><trkpt lat="41.1822128" lon="14.9744264"><ele>207.0</ele><time>2026-04-19T11:18:48.965Z</time></trkpt><trkpt lat="41.1823229" lon="14.974545"><ele>207.25</ele><time>2026-04-19T11:18:49.965Z</time></trkpt><trkpt lat="41.182433" lon="14.9746386"><ele>207.5</ele><time>2026-04-19T11:18:50.965Z</time></trkpt><trkpt lat="41.1825324" lon="14.9747299"><ele>207.75</ele><time>2026-04-19T11:18:52.025Z</time></trkpt><trkpt lat="41.1826322" lon="14.9748277"><ele>208.0</ele><time>2026-04-19T11:18:53.028Z</time></trkpt><trkpt lat="41.1827412" lon="14.9749158"><ele>208.0</ele><time>2026-04-19T11:18:54.026Z</time></trkpt><trkpt lat="41.1828525" lon="14.9750082"><ele>208.0</ele><time>2026-04-19T11:18:54.948Z</time></trkpt><trkpt lat="41.1829711" lon="14.9751108"><ele>208.0</ele><time>2026-04-19T11:18:55.946Z</time></trkpt><trkpt lat="41.1830962" lon="14.9752093"><ele>208.0</ele><time>2026-04-19T11:18:56.947Z</time></trkpt><trkpt lat="41.1832224" lon="14.9752976"><ele>208.0</ele><time>2026-04-19T11:18:57.948Z</time></trkpt><trkpt lat="41.1833531" lon="14.9753794"><ele>208.0</ele><time>2026-04-19T11:18:58.954Z</time></trkpt><trkpt lat="41.1834829" lon="14.9754607"><ele>208.0</ele><time>2026-04-19T11:18:59.965Z</time></trkpt><trkpt lat="41.1836153" lon="14.9755413"><ele>208.0</ele><time>2026-04-19T11:19:01.03Z</time></trkpt><trkpt lat="41.1837453" lon="14.9756172"><ele>208.0</ele><time>2026-04-19T11:19:02.03Z</time></trkpt><trkpt lat="41.1838709" lon="14.9757024"><ele>208.0</ele><time>2026-04-19T11:19:03.025Z</time></trkpt><trkpt lat="41.1840008" lon="14.9757945"><ele>208.0</ele><time>2026-04-19T11:19:04.017Z</time></trkpt><trkpt lat="41.1841322" lon="14.9758824"><ele>208.0</ele><time>2026-04-19T11:19:04.952Z</time></trkpt><trkpt lat="41.1842625" lon="14.9759754"><ele>208.0</ele><time>2026-04-19T11:19:05.952Z</time></trkpt><trkpt lat="41.1843782" lon="14.9760714"><ele>208.0</ele><time>2026-04-19T11:19:06.986Z</time></trkpt><trkpt lat="41.1844843" lon="14.9761794"><ele>208.0</ele><time>2026-04-19T11:19:07.95Z</time></trkpt><trkpt lat="41.1845933" lon="14.9763002"><ele>208.0</ele><time>2026-04-19T11:19:08.952Z</time></trkpt><trkpt lat="41.1847002" lon="14.9764332"><ele>208.0</ele><time>2026-04-19T11:19:09.954Z</time></trkpt><trkpt lat="41.1848049" lon="14.976577"><ele>208.0</ele><time>2026-04-19T11:19:11.016Z</time></trkpt><trkpt lat="41.1849051" lon="14.976716"><ele>208.0</ele><time>2026-04-19T11:19:12.03Z</time></trkpt><trkpt lat="41.1850097" lon="14.9768486"><ele>208.0</ele><time>2026-04-19T11:19:13.018Z</time></trkpt><trkpt lat="41.1851144" lon="14.9769676"><ele>208.25</ele><time>2026-04-19T11:19:14.037Z</time></trkpt><trkpt lat="41.1852219" lon="14.9770684"><ele>208.5</ele><time>2026-04-19T11:19:14.945Z</time></trkpt><trkpt lat="41.1853206" lon="14.9771502"><ele>208.75</ele><time>2026-04-19T11:19:16.032Z</time></trkpt><trkpt lat="41.1854209" lon="14.9772083"><ele>209.0</ele><time>2026-04-19T11:19:17.028Z</time></trkpt><trkpt lat="41.1855408" lon="14.9772513"><ele>209.0</ele><time>2026-04-19T11:19:18.031Z</time></trkpt><trkpt lat="41.1856753" lon="14.9772856"><ele>209.0</ele><time>2026-04-19T11:19:19.034Z</time></trkpt><trkpt lat="41.1858099" lon="14.9772997"><ele>209.0</ele><time>2026-04-19T11:19:19.947Z</time></trkpt><trkpt lat="41.1859482" lon="14.977302"><ele>209.0</ele><time>2026-04-19T11:19:20.95Z</time></trkpt><trkpt lat="41.1860828" lon="14.977287"><ele>210.0</ele><time>2026-04-19T11:19:21.96Z</time></trkpt><trkpt lat="41.1862132" lon="14.977277"><ele>211.0</ele><time>2026-04-19T11:19:23.033Z</time></trkpt><trkpt lat="41.1863472" lon="14.9772706"><ele>212.0</ele><time>2026-04-19T11:19:23.968Z</time></trkpt><trkpt lat="41.1864853" lon="14.9772795"><ele>213.0</ele><time>2026-04-19T11:19:24.962Z</time></trkpt><trkpt lat="41.1866135" lon="14.9772931"><ele>213.0</ele><time>2026-04-19T11:19:25.965Z</time></trkpt><trkpt lat="41.1867314" lon="14.9773092"><ele>213.0</ele><time>2026-04-19T11:19:27.028Z</time></trkpt><trkpt lat="41.1868428" lon="14.9773415"><ele>213.0</ele><time>2026-04-19T11:19:27.954Z</time></trkpt><trkpt lat="41.1869652" lon="14.9773833"><ele>213.0</ele><time>2026-04-19T11:19:28.944Z</time></trkpt><trkpt lat="41.1870939" lon="14.9774204"><ele>213.0</ele><time>2026-04-19T11:19:29.945Z</time></trkpt><trkpt lat="41.1872242" lon="14.977451"><ele>213.0</ele><time>2026-04-19T11:19:30.945Z</time></trkpt><trkpt lat="41.187349" lon="14.977474"><ele>213.0</ele><time>2026-04-19T11:19:31.944Z</time></trkpt><trkpt lat="41.187466" lon="14.9774867"><ele>213.0</ele><time>2026-04-19T11:19:33.015Z</time></trkpt><trkpt lat="41.1875753" lon="14.9775122"><ele>213.25</ele><time>2026-04-19T11:19:34.03Z</time></trkpt><trkpt lat="41.1876849" lon="14.9775659"><ele>213.5</ele><time>2026-04-19T11:19:34.947Z</time></trkpt><trkpt lat="41.1877962" lon="14.9776548"><ele>213.75</ele><time>2026-04-19T11:19:35.95Z</time></trkpt><trkpt lat="41.1879152" lon="14.9777659"><ele>214.0</ele><time>2026-04-19T11:19:36.957Z</time></trkpt><trkpt lat="41.188039" lon="14.9778923"><ele>214.0</ele><time>2026-04-19T11:19:37.951Z</time></trkpt><trkpt lat="41.1881618" lon="14.9780186"><ele>214.0</ele><time>2026-04-19T11:19:38.948Z</time></trkpt><trkpt lat="41.1882854" lon="14.9781397"><ele>214.0</ele><time>2026-04-19T11:19:39.949Z</time></trkpt><trkpt lat="41.1884072" lon="14.9782503"><ele>214.2</ele><time>2026-04-19T11:19:40.95Z</time></trkpt><trkpt lat="41.1885032" lon="14.9783357"><ele>214.39999999999998</ele><time>2026-04-19T11:19:42.029Z</time></trkpt><trkpt lat="41.1885922" lon="14.9784087"><ele>214.6</ele><time>2026-04-19T11:19:43.034Z</time></trkpt><trkpt lat="41.1886928" lon="14.9784802"><ele>214.8</ele><time>2026-04-19T11:19:44.031Z</time></trkpt><trkpt lat="41.1887882" lon="14.9785564"><ele>215.0</ele><time>2026-04-19T11:19:44.948Z</time></trkpt><trkpt lat="41.1888885" lon="14.9786205"><ele>215.00000000000003</ele><time>2026-04-19T11:19:45.946Z</time></trkpt><trkpt lat="41.1889757" lon="14.9786755"><ele>215.0</ele><time>2026-04-19T11:19:46.951Z</time></trkpt><trkpt lat="41.189046" lon="14.9787209"><ele>215.0</ele><time>2026-04-19T11:19:47.949Z</time></trkpt><trkpt lat="41.1891044" lon="14.9787567"><ele>215.0</ele><time>2026-04-19T11:19:48.953Z</time></trkpt><trkpt lat="41.1891773" lon="14.978748"><ele>215.00000000000003</ele><time>2026-04-19T11:19:51.031Z</time></trkpt><trkpt lat="41.1892606" lon="14.9786192"><ele>215.0</ele><time>2026-04-19T11:19:52.947Z</time></trkpt><trkpt lat="41.1893029" lon="14.9785408"><ele>215.16666666666669</ele><time>2026-04-19T11:19:53.95Z</time></trkpt><trkpt lat="41.1893881" lon="14.9784639"><ele>215.33333333333334</ele><time>2026-04-19T11:19:55.947Z</time></trkpt><trkpt lat="41.1894748" lon="14.9784718"><ele>215.5</ele><time>2026-04-19T11:19:57.949Z</time></trkpt><trkpt lat="41.1895521" lon="14.9785397"><ele>215.66666666666669</ele><time>2026-04-19T11:19:59.948Z</time></trkpt><trkpt lat="41.1896157" lon="14.9786367"><ele>215.83333333333334</ele><time>2026-04-19T11:20:01.949Z</time></trkpt><trkpt lat="41.1896594" lon="14.978704"><ele>216.0</ele><time>2026-04-19T11:20:06.032Z</time></trkpt><trkpt lat="41.1896952" lon="14.9787926"><ele>216.0</ele><time>2026-04-19T11:20:11.947Z</time></trkpt><trkpt lat="41.1897403" lon="14.9788869"><ele>216.0</ele><time>2026-04-19T11:20:21.944Z</time></trkpt><trkpt lat="41.189772" lon="14.9789767"><ele>216.0</ele><time>2026-04-19T11:20:26.941Z</time></trkpt><trkpt lat="41.1897979" lon="14.9790562"><ele>216.0</ele><time>2026-04-19T11:20:29.958Z</time></trkpt><trkpt lat="41.1898203" lon="14.979156"><ele>216.0</ele><time>2026-04-19T11:20:32.96Z</time></trkpt><trkpt lat="41.1898639" lon="14.9793316"><ele>216.0</ele><time>2026-04-19T11:20:36.961Z</time></trkpt><trkpt lat="41.1898833" lon="14.9794455"><ele>216.16666666666666</ele><time>2026-04-19T11:20:37.955Z</time></trkpt><trkpt lat="41.1898969" lon="14.9795498"><ele>216.33333333333331</ele><time>2026-04-19T11:20:38.959Z</time></trkpt><trkpt lat="41.1899116" lon="14.9796543"><ele>216.5</ele><time>2026-04-19T11:20:39.944Z</time></trkpt><trkpt lat="41.1899222" lon="14.9797536"><ele>216.66666666666666</ele><time>2026-04-19T11:20:40.956Z</time></trkpt><trkpt lat="41.189931" lon="14.9798535"><ele>216.83333333333331</ele><time>2026-04-19T11:20:41.96Z</time></trkpt><trkpt lat="41.1899489" lon="14.9799514"><ele>217.0</ele><time>2026-04-19T11:20:42.957Z</time></trkpt><trkpt lat="41.1899744" lon="14.9800551"><ele>216.99999999999997</ele><time>2026-04-19T11:20:43.958Z</time></trkpt><trkpt lat="41.1899987" lon="14.9801547"><ele>217.0</ele><time>2026-04-19T11:20:44.955Z</time></trkpt><trkpt lat="41.1900221" lon="14.9802474"><ele>217.0</ele><time>2026-04-19T11:20:45.957Z</time></trkpt><trkpt lat="41.1900444" lon="14.9803337"><ele>217.0</ele><time>2026-04-19T11:20:46.957Z</time></trkpt><trkpt lat="41.1901033" lon="14.980476"><ele>216.99999999999997</ele><time>2026-04-19T11:20:48.967Z</time></trkpt><trkpt lat="41.190143" lon="14.9805483"><ele>217.0</ele><time>2026-04-19T11:20:49.958Z</time></trkpt><trkpt lat="41.1901806" lon="14.9806314"><ele>216.99999999999997</ele><time>2026-04-19T11:20:50.957Z</time></trkpt><trkpt lat="41.1902107" lon="14.9807149"><ele>217.0</ele><time>2026-04-19T11:20:51.958Z</time></trkpt><trkpt lat="41.1902539" lon="14.9808519"><ele>217.0</ele><time>2026-04-19T11:20:53.956Z</time></trkpt><trkpt lat="41.1902982" lon="14.9809544"><ele>217.0</ele><time>2026-04-19T11:20:55.957Z</time></trkpt><trkpt lat="41.1903369" lon="14.981029"><ele>216.99999999999997</ele><time>2026-04-19T11:20:57.958Z</time></trkpt><trkpt lat="41.19039" lon="14.9811124"><ele>217.0</ele><time>2026-04-19T11:20:59.961Z</time></trkpt><trkpt lat="41.1904596" lon="14.9812431"><ele>216.99999999999997</ele><time>2026-04-19T11:21:01.952Z</time></trkpt><trkpt lat="41.1905076" lon="14.9813101"><ele>217.0</ele><time>2026-04-19T11:21:02.958Z</time></trkpt><trkpt lat="41.1905614" lon="14.9813612"><ele>217.0</ele><time>2026-04-19T11:21:03.959Z</time></trkpt><trkpt lat="41.1906499" lon="14.9814428"><ele>217.0</ele><time>2026-04-19T11:21:05.954Z</time></trkpt><trkpt lat="41.1907257" lon="14.9815154"><ele>216.99999999999997</ele><time>2026-04-19T11:21:07.958Z</time></trkpt><trkpt lat="41.1907892" lon="14.9815771"><ele>217.0</ele><time>2026-04-19T11:21:09.955Z</time></trkpt><trkpt lat="41.1908398" lon="14.981642"><ele>216.99999999999997</ele><time>2026-04-19T11:21:11.955Z</time></trkpt><trkpt lat="41.1909156" lon="14.9817421"><ele>217.0</ele><time>2026-04-19T11:21:13.954Z</time></trkpt><trkpt lat="41.1909656" lon="14.9817957"><ele>217.0</ele><time>2026-04-19T11:21:14.959Z</time></trkpt><trkpt lat="41.1910192" lon="14.9818499"><ele>217.0</ele><time>2026-04-19T11:21:15.953Z</time></trkpt><trkpt lat="41.1910768" lon="14.9819099"><ele>216.99999999999997</ele><time>2026-04-19T11:21:16.963Z</time></trkpt><trkpt lat="41.1911361" lon="14.9819711"><ele>217.0</ele><time>2026-04-19T11:21:17.957Z</time></trkpt><trkpt lat="41.1911853" lon="14.982033"><ele>216.99999999999997</ele><time>2026-04-19T11:21:18.958Z</time></trkpt><trkpt lat="41.1912237" lon="14.9821061"><ele>217.0</ele><time>2026-04-19T11:21:19.954Z</time></trkpt><trkpt lat="41.1912564" lon="14.9821904"><ele>217.0</ele><time>2026-04-19T11:21:20.958Z</time></trkpt><trkpt lat="41.1912823" lon="14.9822776"><ele>217.0</ele><time>2026-04-19T11:21:21.957Z</time></trkpt><trkpt lat="41.1912966" lon="14.9823622"><ele>216.99999999999997</ele><time>2026-04-19T11:21:22.955Z</time></trkpt><trkpt lat="41.1912883" lon="14.9824938"><ele>217.0</ele><time>2026-04-19T11:21:24.958Z</time></trkpt><trkpt lat="41.1912221" lon="14.9826073"><ele>217.16666666666666</ele><time>2026-04-19T11:21:26.965Z</time></trkpt><trkpt lat="41.1911585" lon="14.9826608"><ele>217.33333333333331</ele><time>2026-04-19T11:21:27.957Z</time></trkpt><trkpt lat="41.1910821" lon="14.9827145"><ele>217.5</ele><time>2026-04-19T11:21:28.96Z</time></trkpt><trkpt lat="41.191026" lon="14.9827709"><ele>217.66666666666669</ele><time>2026-04-19T11:21:29.958Z</time></trkpt><trkpt lat="41.1910285" lon="14.9829228"><ele>217.83333333333334</ele><time>2026-04-19T11:21:31.957Z</time></trkpt><trkpt lat="41.1910731" lon="14.9830367"><ele>218.0</ele><time>2026-04-19T11:21:32.953Z</time></trkpt><trkpt lat="41.1911146" lon="14.9831575"><ele>218.00000000000003</ele><time>2026-04-19T11:21:33.956Z</time></trkpt><trkpt lat="41.1911637" lon="14.9832892"><ele>218.0</ele><time>2026-04-19T11:21:34.953Z</time></trkpt><trkpt lat="41.1912044" lon="14.9833959"><ele>218.0</ele><time>2026-04-19T11:21:35.96Z</time></trkpt><trkpt lat="41.1912399" lon="14.9835077"><ele>218.0</ele><time>2026-04-19T11:21:37.96Z</time></trkpt><trkpt lat="41.1912585" lon="14.9835924"><ele>218.00000000000003</ele><time>2026-04-19T11:21:44.968Z</time></trkpt><trkpt lat="41.191288" lon="14.9836697"><ele>218.0</ele><time>2026-04-19T11:21:49.956Z</time></trkpt><trkpt lat="41.1912839" lon="14.9837952"><ele>218.0</ele><time>2026-04-19T11:21:52.963Z</time></trkpt><trkpt lat="41.1913058" lon="14.9839491"><ele>218.0</ele><time>2026-04-19T11:21:54.955Z</time></trkpt><trkpt lat="41.1913229" lon="14.9840412"><ele>218.0</ele><time>2026-04-19T11:21:55.955Z</time></trkpt><trkpt lat="41.1913282" lon="14.9842055"><ele>218.0</ele><time>2026-04-19T11:21:57.955Z</time></trkpt><trkpt lat="41.1913326" lon="14.9842988"><ele>218.0</ele><time>2026-04-19T11:21:58.953Z</time></trkpt><trkpt lat="41.1913398" lon="14.9843921"><ele>218.0</ele><time>2026-04-19T11:21:59.959Z</time></trkpt><trkpt lat="41.191348" lon="14.9844841"><ele>218.0</ele><time>2026-04-19T11:22:00.957Z</time></trkpt><trkpt lat="41.1913553" lon="14.9845774"><ele>218.0</ele><time>2026-04-19T11:22:01.955Z</time></trkpt><trkpt lat="41.1913617" lon="14.9846765"><ele>218.0</ele><time>2026-04-19T11:22:02.957Z</time></trkpt><trkpt lat="41.1913652" lon="14.9847773"><ele>218.0</ele><time>2026-04-19T11:22:03.96Z</time></trkpt><trkpt lat="41.1913704" lon="14.9848832"><ele>218.0</ele><time>2026-04-19T11:22:04.958Z</time></trkpt><trkpt lat="41.1913724" lon="14.9849859"><ele>218.0</ele><time>2026-04-19T11:22:05.958Z</time></trkpt><trkpt lat="41.1913851" lon="14.9851498"><ele>218.60000000000002</ele><time>2026-04-19T11:22:07.956Z</time></trkpt><trkpt lat="41.1913923" lon="14.9852433"><ele>219.20000000000002</ele><time>2026-04-19T11:22:08.961Z</time></trkpt><trkpt lat="41.1914025" lon="14.9853999"><ele>219.8</ele><time>2026-04-19T11:22:10.959Z</time></trkpt><trkpt lat="41.1914116" lon="14.9855668"><ele>220.4</ele><time>2026-04-19T11:22:12.954Z</time></trkpt><trkpt lat="41.1914247" lon="14.9856549"><ele>221.0</ele><time>2026-04-19T11:22:13.961Z</time></trkpt><trkpt lat="41.1914406" lon="14.9857593"><ele>221.00000000000003</ele><time>2026-04-19T11:22:14.951Z</time></trkpt><trkpt lat="41.1914555" lon="14.9858726"><ele>221.0</ele><time>2026-04-19T11:22:15.951Z</time></trkpt><trkpt lat="41.1914671" lon="14.9859853"><ele>221.0</ele><time>2026-04-19T11:22:16.959Z</time></trkpt><trkpt lat="41.1914861" lon="14.9860961"><ele>221.0</ele><time>2026-04-19T11:22:17.953Z</time></trkpt><trkpt lat="41.1915151" lon="14.9861869"><ele>221.00000000000003</ele><time>2026-04-19T11:22:18.954Z</time></trkpt><trkpt lat="41.1915454" lon="14.9862612"><ele>221.0</ele><time>2026-04-19T11:22:19.956Z</time></trkpt><trkpt lat="41.1915956" lon="14.9863986"><ele>221.00000000000003</ele><time>2026-04-19T11:22:21.956Z</time></trkpt><trkpt lat="41.1916403" lon="14.9864742"><ele>221.0</ele><time>2026-04-19T11:22:22.964Z</time></trkpt><trkpt lat="41.1916952" lon="14.9865421"><ele>221.0</ele><time>2026-04-19T11:22:23.96Z</time></trkpt><trkpt lat="41.1917451" lon="14.9866127"><ele>221.0</ele><time>2026-04-19T11:22:24.952Z</time></trkpt><trkpt lat="41.1917984" lon="14.9866875"><ele>221.0</ele><time>2026-04-19T11:22:25.956Z</time></trkpt><trkpt lat="41.1918502" lon="14.9867666"><ele>221.00000000000003</ele><time>2026-04-19T11:22:26.959Z</time></trkpt><trkpt lat="41.1918923" lon="14.986832"><ele>221.0</ele><time>2026-04-19T11:22:27.956Z</time></trkpt><trkpt lat="41.1919442" lon="14.986911"><ele>221.16666666666669</ele><time>2026-04-19T11:22:29.954Z</time></trkpt><trkpt lat="41.1919766" lon="14.9869847"><ele>221.33333333333334</ele><time>2026-04-19T11:22:31.957Z</time></trkpt><trkpt lat="41.1920221" lon="14.9870651"><ele>221.5</ele><time>2026-04-19T11:22:39.96Z</time></trkpt><trkpt lat="41.1920683" lon="14.9871395"><ele>221.66666666666669</ele><time>2026-04-19T11:22:44.956Z</time></trkpt><trkpt lat="41.1920848" lon="14.9872609"><ele>221.83333333333334</ele><time>2026-04-19T11:22:47.958Z</time></trkpt><trkpt lat="41.1921325" lon="14.9874052"><ele>222.0</ele><time>2026-04-19T11:22:49.951Z</time></trkpt><trkpt lat="41.1921758" lon="14.9874784"><ele>222.16666666666666</ele><time>2026-04-19T11:22:50.949Z</time></trkpt><trkpt lat="41.1922215" lon="14.9875505"><ele>222.33333333333331</ele><time>2026-04-19T11:22:51.96Z</time></trkpt><trkpt lat="41.1922623" lon="14.9876296"><ele>222.5</ele><time>2026-04-19T11:22:52.958Z</time></trkpt><trkpt lat="41.1922908" lon="14.9877151"><ele>222.66666666666666</ele><time>2026-04-19T11:22:53.952Z</time></trkpt><trkpt lat="41.1923061" lon="14.9878126"><ele>222.83333333333331</ele><time>2026-04-19T11:22:54.952Z</time></trkpt><trkpt lat="41.1923187" lon="14.9879186"><ele>223.0</ele><time>2026-04-19T11:22:55.952Z</time></trkpt><trkpt lat="41.1923513" lon="14.9880166"><ele>222.99999999999997</ele><time>2026-04-19T11:22:56.956Z</time></trkpt><trkpt lat="41.1923898" lon="14.9881076"><ele>223.0</ele><time>2026-04-19T11:22:57.939Z</time></trkpt><trkpt lat="41.1924227" lon="14.988209"><ele>223.0</ele><time>2026-04-19T11:22:58.957Z</time></trkpt><trkpt lat="41.1924391" lon="14.9883019"><ele>223.0</ele><time>2026-04-19T11:22:59.957Z</time></trkpt><trkpt lat="41.1924489" lon="14.9883902"><ele>222.99999999999997</ele><time>2026-04-19T11:23:00.951Z</time></trkpt><trkpt lat="41.1924723" lon="14.9885473"><ele>223.0</ele><time>2026-04-19T11:23:02.954Z</time></trkpt><trkpt lat="41.1925094" lon="14.9886429"><ele>224.0</ele><time>2026-04-19T11:23:03.956Z</time></trkpt><trkpt lat="41.1925621" lon="14.9887371"><ele>225.0</ele><time>2026-04-19T11:23:04.955Z</time></trkpt><trkpt lat="41.1926237" lon="14.9888323"><ele>226.0</ele><time>2026-04-19T11:23:05.954Z</time></trkpt><trkpt lat="41.1926893" lon="14.9889254"><ele>227.0</ele><time>2026-04-19T11:23:06.956Z</time></trkpt><trkpt lat="41.1927646" lon="14.9890078"><ele>228.0</ele><time>2026-04-19T11:23:07.952Z</time></trkpt><trkpt lat="41.1928499" lon="14.9890908"><ele>228.0</ele><time>2026-04-19T11:23:08.953Z</time></trkpt><trkpt lat="41.1929397" lon="14.9891737"><ele>228.0</ele><time>2026-04-19T11:23:09.954Z</time></trkpt><trkpt lat="41.1930218" lon="14.9892543"><ele>228.0</ele><time>2026-04-19T11:23:10.955Z</time></trkpt><trkpt lat="41.1930764" lon="14.9893361"><ele>228.0</ele><time>2026-04-19T11:23:11.955Z</time></trkpt><trkpt lat="41.1931085" lon="14.9894341"><ele>228.0</ele><time>2026-04-19T11:23:12.955Z</time></trkpt><trkpt lat="41.1931196" lon="14.9895488"><ele>229.66666666666666</ele><time>2026-04-19T11:23:13.956Z</time></trkpt><trkpt lat="41.1931208" lon="14.9896837"><ele>231.33333333333331</ele><time>2026-04-19T11:23:14.953Z</time></trkpt><trkpt lat="41.1931054" lon="14.9898144"><ele>233.0</ele><time>2026-04-19T11:23:15.955Z</time></trkpt><trkpt lat="41.1930804" lon="14.9899233"><ele>234.66666666666666</ele><time>2026-04-19T11:23:16.953Z</time></trkpt><trkpt lat="41.1930649" lon="14.9900258"><ele>236.33333333333331</ele><time>2026-04-19T11:23:17.953Z</time></trkpt><trkpt lat="41.1930581" lon="14.9901365"><ele>238.0</ele><time>2026-04-19T11:23:18.955Z</time></trkpt><trkpt lat="41.1930661" lon="14.9902645"><ele>236.99999999999997</ele><time>2026-04-19T11:23:19.957Z</time></trkpt><trkpt lat="41.1930795" lon="14.9903872"><ele>236.0</ele><time>2026-04-19T11:23:20.958Z</time></trkpt><trkpt lat="41.1931067" lon="14.9905006"><ele>235.0</ele><time>2026-04-19T11:23:21.957Z</time></trkpt><trkpt lat="41.1931459" lon="14.9905705"><ele>234.0</ele><time>2026-04-19T11:23:22.958Z</time></trkpt><trkpt lat="41.1932509" lon="14.9906084"><ele>232.99999999999997</ele><time>2026-04-19T11:23:24.959Z</time></trkpt><trkpt lat="41.1933281" lon="14.9906624"><ele>232.0</ele><time>2026-04-19T11:23:26.959Z</time></trkpt><trkpt lat="41.1933913" lon="14.9907794"><ele>233.2</ele><time>2026-04-19T11:23:28.956Z</time></trkpt><trkpt lat="41.1934493" lon="14.9908576"><ele>234.39999999999998</ele><time>2026-04-19T11:23:30.959Z</time></trkpt><trkpt lat="41.1935137" lon="14.9909193"><ele>235.60000000000002</ele><time>2026-04-19T11:23:33.956Z</time></trkpt><trkpt lat="41.1935911" lon="14.9909953"><ele>236.8</ele><time>2026-04-19T11:23:35.952Z</time></trkpt><trkpt lat="41.1936819" lon="14.991086"><ele>238.0</ele><time>2026-04-19T11:23:37.957Z</time></trkpt><trkpt lat="41.1937524" lon="14.9911546"><ele>237.99999999999997</ele><time>2026-04-19T11:23:38.959Z</time></trkpt><trkpt lat="41.1938149" lon="14.9912263"><ele>238.0</ele><time>2026-04-19T11:23:39.962Z</time></trkpt><trkpt lat="41.1938658" lon="14.9913035"><ele>238.0</ele><time>2026-04-19T11:23:40.952Z</time></trkpt><trkpt lat="41.1939403" lon="14.9913859"><ele>238.0</ele><time>2026-04-19T11:23:42.961Z</time></trkpt><trkpt lat="41.1940092" lon="14.9913942"><ele>237.99999999999997</ele><time>2026-04-19T11:23:44.959Z</time></trkpt><trkpt lat="41.1940719" lon="14.991417"><ele>238.0</ele><time>2026-04-19T11:23:45.96Z</time></trkpt><trkpt lat="41.1941375" lon="14.9914629"><ele>237.16666666666666</ele><time>2026-04-19T11:23:46.955Z</time></trkpt><trkpt lat="41.1942079" lon="14.9915222"><ele>236.33333333333331</ele><time>2026-04-19T11:23:47.959Z</time></trkpt><trkpt lat="41.1942732" lon="14.9915983"><ele>235.5</ele><time>2026-04-19T11:23:48.959Z</time></trkpt><trkpt lat="41.194335" lon="14.9916904"><ele>234.66666666666669</ele><time>2026-04-19T11:23:49.952Z</time></trkpt><trkpt lat="41.1943816" lon="14.9917895"><ele>233.83333333333334</ele><time>2026-04-19T11:23:50.958Z</time></trkpt><trkpt lat="41.1944178" lon="14.9918825"><ele>233.0</ele><time>2026-04-19T11:23:51.952Z</time></trkpt><trkpt lat="41.1944383" lon="14.9919707"><ele>233.0</ele><time>2026-04-19T11:23:52.952Z</time></trkpt><trkpt lat="41.1944413" lon="14.9920845"><ele>233.0</ele><time>2026-04-19T11:23:53.958Z</time></trkpt><trkpt lat="41.194445" lon="14.9922113"><ele>233.0</ele><time>2026-04-19T11:23:54.953Z</time></trkpt><trkpt lat="41.194457" lon="14.9923423"><ele>233.0</ele><time>2026-04-19T11:23:55.956Z</time></trkpt><trkpt lat="41.19449" lon="14.9924745"><ele>233.0</ele><time>2026-04-19T11:23:56.953Z</time></trkpt><trkpt lat="41.1945382" lon="14.992609"><ele>234.60000000000002</ele><time>2026-04-19T11:23:57.958Z</time></trkpt><trkpt lat="41.1945915" lon="14.992736"><ele>236.20000000000002</ele><time>2026-04-19T11:23:58.96Z</time></trkpt><trkpt lat="41.1946353" lon="14.9928704"><ele>237.8</ele><time>2026-04-19T11:23:59.952Z</time></trkpt><trkpt lat="41.1946706" lon="14.9930155"><ele>239.4</ele><time>2026-04-19T11:24:00.956Z</time></trkpt><trkpt lat="41.1947137" lon="14.9931532"><ele>241.0</ele><time>2026-04-19T11:24:01.955Z</time></trkpt><trkpt lat="41.194772" lon="14.9932911"><ele>239.20000000000002</ele><time>2026-04-19T11:24:02.955Z</time></trkpt><trkpt lat="41.1948377" lon="14.9934128"><ele>237.40000000000003</ele><time>2026-04-19T11:24:03.955Z</time></trkpt><trkpt lat="41.1948979" lon="14.993532"><ele>235.6</ele><time>2026-04-19T11:24:04.952Z</time></trkpt><trkpt lat="41.1949567" lon="14.9936462"><ele>233.8</ele><time>2026-04-19T11:24:05.951Z</time></trkpt><trkpt lat="41.195018" lon="14.9937637"><ele>232.0</ele><time>2026-04-19T11:24:06.959Z</time></trkpt><trkpt lat="41.1950811" lon="14.9938861"><ele>232.0</ele><time>2026-04-19T11:24:07.952Z</time></trkpt><trkpt lat="41.1951394" lon="14.9940015"><ele>232.0</ele><time>2026-04-19T11:24:08.957Z</time></trkpt><trkpt lat="41.1951939" lon="14.9941069"><ele>232.0</ele><time>2026-04-19T11:24:09.955Z</time></trkpt><trkpt lat="41.1952456" lon="14.9942022"><ele>232.0</ele><time>2026-04-19T11:24:10.95Z</time></trkpt><trkpt lat="41.1952893" lon="14.9942835"><ele>232.0</ele><time>2026-04-19T11:24:11.95Z</time></trkpt><trkpt lat="41.195355" lon="14.9944053"><ele>231.49999999999997</ele><time>2026-04-19T11:24:13.957Z</time></trkpt><trkpt lat="41.1954185" lon="14.9945426"><ele>231.0</ele><time>2026-04-19T11:24:15.958Z</time></trkpt><trkpt lat="41.1954768" lon="14.9946187"><ele>230.5</ele><time>2026-04-19T11:24:16.954Z</time></trkpt><trkpt lat="41.1955346" lon="14.9946911"><ele>230.0</ele><time>2026-04-19T11:24:17.953Z</time></trkpt><trkpt lat="41.1955812" lon="14.9947556"><ele>229.49999999999997</ele><time>2026-04-19T11:24:18.957Z</time></trkpt><trkpt lat="41.1956283" lon="14.9948262"><ele>229.0</ele><time>2026-04-19T11:24:19.953Z</time></trkpt><trkpt lat="41.1956781" lon="14.9949051"><ele>228.99999999999997</ele><time>2026-04-19T11:24:20.953Z</time></trkpt><trkpt lat="41.1957331" lon="14.9949868"><ele>229.0</ele><time>2026-04-19T11:24:21.954Z</time></trkpt><trkpt lat="41.1957909" lon="14.9950789"><ele>229.0</ele><time>2026-04-19T11:24:22.958Z</time></trkpt><trkpt lat="41.1958536" lon="14.9951764"><ele>229.0</ele><time>2026-04-19T11:24:23.954Z</time></trkpt><trkpt lat="41.1959131" lon="14.99527"><ele>228.99999999999997</ele><time>2026-04-19T11:24:24.957Z</time></trkpt><trkpt lat="41.1959683" lon="14.9953542"><ele>229.0</ele><time>2026-04-19T11:24:25.958Z</time></trkpt><trkpt lat="41.1960294" lon="14.9954284"><ele>229.6</ele><time>2026-04-19T11:24:26.957Z</time></trkpt><trkpt lat="41.1960962" lon="14.9955133"><ele>230.2</ele><time>2026-04-19T11:24:27.95Z</time></trkpt><trkpt lat="41.1961667" lon="14.9956021"><ele>230.79999999999998</ele><time>2026-04-19T11:24:28.958Z</time></trkpt><trkpt lat="41.1962277" lon="14.9956989"><ele>231.39999999999998</ele><time>2026-04-19T11:24:29.954Z</time></trkpt><trkpt lat="41.1962834" lon="14.9958053"><ele>232.0</ele><time>2026-04-19T11:24:30.947Z</time></trkpt><trkpt lat="41.1963386" lon="14.9959181"><ele>232.2</ele><time>2026-04-19T11:24:31.951Z</time></trkpt><trkpt lat="41.196396" lon="14.9960337"><ele>232.39999999999998</ele><time>2026-04-19T11:24:32.949Z</time></trkpt><trkpt lat="41.1964556" lon="14.9961456"><ele>232.60000000000002</ele><time>2026-04-19T11:24:33.952Z</time></trkpt><trkpt lat="41.1965166" lon="14.9962537"><ele>232.8</ele><time>2026-04-19T11:24:34.955Z</time></trkpt><trkpt lat="41.1965637" lon="14.9963432"><ele>233.0</ele><time>2026-04-19T11:24:35.952Z</time></trkpt><trkpt lat="41.1965993" lon="14.9964236"><ele>233.00000000000003</ele><time>2026-04-19T11:24:36.957Z</time></trkpt><trkpt lat="41.1966427" lon="14.9965049"><ele>233.0</ele><time>2026-04-19T11:24:37.954Z</time></trkpt><trkpt lat="41.1966834" lon="14.9966158"><ele>233.0</ele><time>2026-04-19T11:24:39.954Z</time></trkpt><trkpt lat="41.1967041" lon="14.9966992"><ele>233.0</ele><time>2026-04-19T11:24:41.954Z</time></trkpt><trkpt lat="41.1967932" lon="14.9967562"><ele>233.00000000000003</ele><time>2026-04-19T11:24:43.954Z</time></trkpt><trkpt lat="41.1968508" lon="14.9967945"><ele>233.0</ele><time>2026-04-19T11:24:44.953Z</time></trkpt><trkpt lat="41.1969062" lon="14.9968452"><ele>234.00000000000003</ele><time>2026-04-19T11:24:45.959Z</time></trkpt><trkpt lat="41.1969526" lon="14.9969189"><ele>235.0</ele><time>2026-04-19T11:24:46.95Z</time></trkpt><trkpt lat="41.1970026" lon="14.9970103"><ele>236.0</ele><time>2026-04-19T11:24:47.952Z</time></trkpt><trkpt lat="41.1970554" lon="14.9970929"><ele>237.0</ele><time>2026-04-19T11:24:48.952Z</time></trkpt><trkpt lat="41.1971143" lon="14.997179"><ele>238.00000000000003</ele><time>2026-04-19T11:24:49.954Z</time></trkpt><trkpt lat="41.1971829" lon="14.9972711"><ele>239.0</ele><time>2026-04-19T11:24:50.958Z</time></trkpt><trkpt lat="41.1972545" lon="14.997372"><ele>238.2</ele><time>2026-04-19T11:24:51.948Z</time></trkpt><trkpt lat="41.1973361" lon="14.9974738"><ele>237.39999999999998</ele><time>2026-04-19T11:24:52.96Z</time></trkpt><trkpt lat="41.1974162" lon="14.997571"><ele>236.6</ele><time>2026-04-19T11:24:53.952Z</time></trkpt><trkpt lat="41.1974928" lon="14.9976516"><ele>235.8</ele><time>2026-04-19T11:24:54.955Z</time></trkpt><trkpt lat="41.197568" lon="14.99773"><ele>235.0</ele><time>2026-04-19T11:24:55.955Z</time></trkpt><trkpt lat="41.1976499" lon="14.9978089"><ele>238.25</ele><time>2026-04-19T11:24:56.954Z</time></trkpt><trkpt lat="41.1977376" lon="14.9978873"><ele>241.5</ele><time>2026-04-19T11:24:57.951Z</time></trkpt><trkpt lat="41.1978395" lon="14.9979652"><ele>244.75</ele><time>2026-04-19T11:24:58.959Z</time></trkpt><trkpt lat="41.1979451" lon="14.998046"><ele>248.0</ele><time>2026-04-19T11:24:59.954Z</time></trkpt><trkpt lat="41.1980566" lon="14.9981293"><ele>248.0</ele><time>2026-04-19T11:25:00.96Z</time></trkpt><trkpt lat="41.1981592" lon="14.9982035"><ele>248.0</ele><time>2026-04-19T11:25:01.959Z</time></trkpt><trkpt lat="41.1982545" lon="14.9982522"><ele>248.0</ele><time>2026-04-19T11:25:02.956Z</time></trkpt><trkpt lat="41.1983555" lon="14.998271"><ele>248.0</ele><time>2026-04-19T11:25:03.957Z</time></trkpt><trkpt lat="41.1984427" lon="14.9982761"><ele>248.0</ele><time>2026-04-19T11:25:04.957Z</time></trkpt><trkpt lat="41.1985134" lon="14.9982766"><ele>249.00000000000003</ele><time>2026-04-19T11:25:05.954Z</time></trkpt><trkpt lat="41.1985808" lon="14.9982863"><ele>250.0</ele><time>2026-04-19T11:25:06.954Z</time></trkpt><trkpt lat="41.1986551" lon="14.9983047"><ele>251.0</ele><time>2026-04-19T11:25:07.949Z</time></trkpt><trkpt lat="41.1987399" lon="14.9983282"><ele>252.0</ele><time>2026-04-19T11:25:08.951Z</time></trkpt><trkpt lat="41.1988381" lon="14.998359"><ele>253.00000000000003</ele><time>2026-04-19T11:25:09.953Z</time></trkpt><trkpt lat="41.1989395" lon="14.9983878"><ele>254.0</ele><time>2026-04-19T11:25:10.956Z</time></trkpt><trkpt lat="41.1990296" lon="14.998423"><ele>251.66666666666669</ele><time>2026-04-19T11:25:11.944Z</time></trkpt><trkpt lat="41.1991143" lon="14.9984605"><ele>249.33333333333334</ele><time>2026-04-19T11:25:12.955Z</time></trkpt><trkpt lat="41.1991881" lon="14.9985009"><ele>247.0</ele><time>2026-04-19T11:25:13.956Z</time></trkpt><trkpt lat="41.1992544" lon="14.9985488"><ele>244.66666666666669</ele><time>2026-04-19T11:25:14.961Z</time></trkpt><trkpt lat="41.1993275" lon="14.9986083"><ele>242.33333333333334</ele><time>2026-04-19T11:25:15.953Z</time></trkpt><trkpt lat="41.1994103" lon="14.9986964"><ele>240.0</ele><time>2026-04-19T11:25:16.955Z</time></trkpt><trkpt lat="41.1995003" lon="14.9987844"><ele>240.0</ele><time>2026-04-19T11:25:17.951Z</time></trkpt><trkpt lat="41.1995945" lon="14.9988552"><ele>240.0</ele><time>2026-04-19T11:25:18.953Z</time></trkpt><trkpt lat="41.1996844" lon="14.9989204"><ele>240.0</ele><time>2026-04-19T11:25:19.953Z</time></trkpt><trkpt lat="41.1997736" lon="14.9989748"><ele>240.0</ele><time>2026-04-19T11:25:20.952Z</time></trkpt><trkpt lat="41.1998739" lon="14.9990122"><ele>240.0</ele><time>2026-04-19T11:25:21.954Z</time></trkpt><trkpt lat="41.1999814" lon="14.9990362"><ele>238.75</ele><time>2026-04-19T11:25:22.955Z</time></trkpt><trkpt lat="41.2000942" lon="14.999049"><ele>237.5</ele><time>2026-04-19T11:25:23.96Z</time></trkpt><trkpt lat="41.2002115" lon="14.9990615"><ele>236.25</ele><time>2026-04-19T11:25:24.944Z</time></trkpt><trkpt lat="41.2003312" lon="14.999066"><ele>235.0</ele><time>2026-04-19T11:25:25.953Z</time></trkpt><trkpt lat="41.200452" lon="14.9990674"><ele>235.0</ele><time>2026-04-19T11:25:26.954Z</time></trkpt><trkpt lat="41.2005691" lon="14.9990845"><ele>235.0</ele><time>2026-04-19T11:25:27.954Z</time></trkpt><trkpt lat="41.20068" lon="14.9991211"><ele>235.0</ele><time>2026-04-19T11:25:28.955Z</time></trkpt><trkpt lat="41.2007891" lon="14.9991625"><ele>235.0</ele><time>2026-04-19T11:25:29.953Z</time></trkpt><trkpt lat="41.2009004" lon="14.9991974"><ele>235.2</ele><time>2026-04-19T11:25:30.944Z</time></trkpt><trkpt lat="41.2010134" lon="14.9992198"><ele>235.4</ele><time>2026-04-19T11:25:31.953Z</time></trkpt><trkpt lat="41.2011267" lon="14.9992406"><ele>235.60000000000002</ele><time>2026-04-19T11:25:32.942Z</time></trkpt><trkpt lat="41.2012375" lon="14.9992714"><ele>235.8</ele><time>2026-04-19T11:25:33.99Z</time></trkpt><trkpt lat="41.2013395" lon="14.9993133"><ele>236.0</ele><time>2026-04-19T11:25:34.944Z</time></trkpt><trkpt lat="41.2014437" lon="14.9993719"><ele>236.20000000000002</ele><time>2026-04-19T11:25:35.947Z</time></trkpt><trkpt lat="41.2015442" lon="14.9994339"><ele>236.40000000000003</ele><time>2026-04-19T11:25:36.946Z</time></trkpt><trkpt lat="41.2016317" lon="14.9994992"><ele>236.6</ele><time>2026-04-19T11:25:37.946Z</time></trkpt><trkpt lat="41.201718" lon="14.9995749"><ele>236.8</ele><time>2026-04-19T11:25:38.946Z</time></trkpt><trkpt lat="41.2018082" lon="14.9996614"><ele>237.0</ele><time>2026-04-19T11:25:39.944Z</time></trkpt><trkpt lat="41.2019012" lon="14.9997423"><ele>237.0</ele><time>2026-04-19T11:25:40.944Z</time></trkpt><trkpt lat="41.2019874" lon="14.9998123"><ele>237.0</ele><time>2026-04-19T11:25:42.029Z</time></trkpt><trkpt lat="41.2020749" lon="14.9998813"><ele>237.0</ele><time>2026-04-19T11:25:42.972Z</time></trkpt><trkpt lat="41.2021683" lon="14.999954"><ele>237.0</ele><time>2026-04-19T11:25:43.941Z</time></trkpt><trkpt lat="41.2022659" lon="15.0000279"><ele>237.0</ele><time>2026-04-19T11:25:44.945Z</time></trkpt><trkpt lat="41.2023707" lon="15.0000861"><ele>236.8</ele><time>2026-04-19T11:25:45.952Z</time></trkpt><trkpt lat="41.2024737" lon="15.0001449"><ele>236.6</ele><time>2026-04-19T11:25:46.948Z</time></trkpt><trkpt lat="41.2025731" lon="15.0002081"><ele>236.40000000000003</ele><time>2026-04-19T11:25:47.953Z</time></trkpt><trkpt lat="41.202667" lon="15.0002655"><ele>236.20000000000002</ele><time>2026-04-19T11:25:48.943Z</time></trkpt><trkpt lat="41.2027621" lon="15.0003037"><ele>236.0</ele><time>2026-04-19T11:25:49.975Z</time></trkpt><trkpt lat="41.2028621" lon="15.0003248"><ele>236.0</ele><time>2026-04-19T11:25:50.965Z</time></trkpt><trkpt lat="41.2029552" lon="15.0003628"><ele>236.00000000000003</ele><time>2026-04-19T11:25:51.947Z</time></trkpt><trkpt lat="41.203032" lon="15.0004174"><ele>236.00000000000003</ele><time>2026-04-19T11:25:52.946Z</time></trkpt><trkpt lat="41.203089" lon="15.0005033"><ele>236.0</ele><time>2026-04-19T11:25:53.943Z</time></trkpt><trkpt lat="41.2031409" lon="15.0006082"><ele>236.0</ele><time>2026-04-19T11:25:54.947Z</time></trkpt><trkpt lat="41.2031976" lon="15.0007122"><ele>236.4</ele><time>2026-04-19T11:25:55.947Z</time></trkpt><trkpt lat="41.2032582" lon="15.0008085"><ele>236.8</ele><time>2026-04-19T11:25:56.944Z</time></trkpt><trkpt lat="41.2033083" lon="15.0008847"><ele>237.20000000000002</ele><time>2026-04-19T11:25:57.946Z</time></trkpt><trkpt lat="41.2033733" lon="15.0009966"><ele>237.60000000000002</ele><time>2026-04-19T11:25:59.946Z</time></trkpt><trkpt lat="41.2034401" lon="15.0011154"><ele>238.0</ele><time>2026-04-19T11:26:01.95Z</time></trkpt><trkpt lat="41.2034833" lon="15.001181"><ele>238.33333333333331</ele><time>2026-04-19T11:26:03.95Z</time></trkpt><trkpt lat="41.2035325" lon="15.0012485"><ele>238.66666666666666</ele><time>2026-04-19T11:26:07.025Z</time></trkpt><trkpt lat="41.2035842" lon="15.0013114"><ele>239.0</ele><time>2026-04-19T11:26:10.95Z</time></trkpt><trkpt lat="41.2036564" lon="15.0013833"><ele>239.33333333333331</ele><time>2026-04-19T11:26:12.949Z</time></trkpt><trkpt lat="41.2037368" lon="15.0014413"><ele>239.66666666666666</ele><time>2026-04-19T11:26:13.952Z</time></trkpt><trkpt lat="41.2038124" lon="15.0014964"><ele>240.0</ele><time>2026-04-19T11:26:14.955Z</time></trkpt><trkpt lat="41.2038915" lon="15.0015726"><ele>240.0</ele><time>2026-04-19T11:26:15.947Z</time></trkpt><trkpt lat="41.2039761" lon="15.0016425"><ele>240.0</ele><time>2026-04-19T11:26:16.954Z</time></trkpt><trkpt lat="41.2040702" lon="15.0017128"><ele>240.0</ele><time>2026-04-19T11:26:18.017Z</time></trkpt><trkpt lat="41.2041572" lon="15.0017793"><ele>240.0</ele><time>2026-04-19T11:26:18.95Z</time></trkpt><trkpt lat="41.2042432" lon="15.001842"><ele>240.0</ele><time>2026-04-19T11:26:19.947Z</time></trkpt><trkpt lat="41.2043125" lon="15.0018876"><ele>240.16666666666666</ele><time>2026-04-19T11:26:20.955Z</time></trkpt><trkpt lat="41.2042621" lon="15.0019843"><ele>240.33333333333331</ele><time>2026-04-19T11:26:23.949Z</time></trkpt><trkpt lat="41.2042081" lon="15.0020339"><ele>240.5</ele><time>2026-04-19T11:26:24.951Z</time></trkpt><trkpt lat="41.2041524" lon="15.0020832"><ele>240.66666666666666</ele><time>2026-04-19T11:26:26.031Z</time></trkpt><trkpt lat="41.2040935" lon="15.0021361"><ele>240.83333333333331</ele><time>2026-04-19T11:26:27.028Z</time></trkpt><trkpt lat="41.2040268" lon="15.0021952"><ele>241.0</ele><time>2026-04-19T11:26:28.03Z</time></trkpt><trkpt lat="41.203949" lon="15.0022643"><ele>241.33333333333331</ele><time>2026-04-19T11:26:29.03Z</time></trkpt><trkpt lat="41.2038779" lon="15.002333"><ele>241.66666666666666</ele><time>2026-04-19T11:26:29.943Z</time></trkpt><trkpt lat="41.2038073" lon="15.0023934"><ele>242.0</ele><time>2026-04-19T11:26:30.943Z</time></trkpt><trkpt lat="41.2037326" lon="15.0024453"><ele>242.33333333333331</ele><time>2026-04-19T11:26:31.963Z</time></trkpt><trkpt lat="41.203659" lon="15.0024973"><ele>242.66666666666666</ele><time>2026-04-19T11:26:33.033Z</time></trkpt><trkpt lat="41.20358" lon="15.0025623"><ele>243.0</ele><time>2026-04-19T11:26:34.024Z</time></trkpt><trkpt lat="41.2035044" lon="15.0026529"><ele>245.5</ele><time>2026-04-19T11:26:34.949Z</time></trkpt><trkpt lat="41.203435" lon="15.0027338"><ele>248.0</ele><time>2026-04-19T11:26:35.947Z</time></trkpt><trkpt lat="41.2033727" lon="15.0028158"><ele>250.5</ele><time>2026-04-19T11:26:37.067Z</time></trkpt><trkpt lat="41.2033132" lon="15.0029049"><ele>253.0</ele><time>2026-04-19T11:26:38.026Z</time></trkpt><trkpt lat="41.2032554" lon="15.0029905"><ele>255.5</ele><time>2026-04-19T11:26:39.027Z</time></trkpt><trkpt lat="41.203188" lon="15.0030634"><ele>258.0</ele><time>2026-04-19T11:26:39.944Z</time></trkpt><trkpt lat="41.2031192" lon="15.0031537"><ele>258.4</ele><time>2026-04-19T11:26:40.95Z</time></trkpt><trkpt lat="41.2030463" lon="15.0032565"><ele>258.8</ele><time>2026-04-19T11:26:41.943Z</time></trkpt><trkpt lat="41.2029773" lon="15.0033417"><ele>259.2</ele><time>2026-04-19T11:26:42.941Z</time></trkpt><trkpt lat="41.2029194" lon="15.0034197"><ele>259.6</ele><time>2026-04-19T11:26:43.949Z</time></trkpt><trkpt lat="41.2028667" lon="15.0035107"><ele>260.0</ele><time>2026-04-19T11:26:44.942Z</time></trkpt><trkpt lat="41.2028109" lon="15.0036032"><ele>261.6666666666667</ele><time>2026-04-19T11:26:45.944Z</time></trkpt><trkpt lat="41.2027458" lon="15.0036947"><ele>263.33333333333337</ele><time>2026-04-19T11:26:47.013Z</time></trkpt><trkpt lat="41.2026727" lon="15.0037705"><ele>265.0</ele><time>2026-04-19T11:26:48.002Z</time></trkpt><trkpt lat="41.2026094" lon="15.0038439"><ele>266.6666666666667</ele><time>2026-04-19T11:26:49.03Z</time></trkpt><trkpt lat="41.2025494" lon="15.0039324"><ele>268.3333333333333</ele><time>2026-04-19T11:26:49.947Z</time></trkpt><trkpt lat="41.2024952" lon="15.0040201"><ele>270.0</ele><time>2026-04-19T11:26:50.944Z</time></trkpt><trkpt lat="41.2024602" lon="15.0041007"><ele>273.3333333333333</ele><time>2026-04-19T11:26:51.942Z</time></trkpt><trkpt lat="41.2024368" lon="15.004186"><ele>276.6666666666667</ele><time>2026-04-19T11:26:52.943Z</time></trkpt><trkpt lat="41.2024646" lon="15.0043322"><ele>280.0</ele><time>2026-04-19T11:26:54.942Z</time></trkpt><trkpt lat="41.2025063" lon="15.0044155"><ele>283.33333333333337</ele><time>2026-04-19T11:26:56.946Z</time></trkpt><trkpt lat="41.2024825" lon="15.0045146"><ele>286.6666666666667</ele><time>2026-04-19T11:26:59.947Z</time></trkpt><trkpt lat="41.2024411" lon="15.0046248"><ele>290.0</ele><time>2026-04-19T11:27:01.984Z</time></trkpt><trkpt lat="41.2024132" lon="15.0047418"><ele>290.0</ele><time>2026-04-19T11:27:03.948Z</time></trkpt><trkpt lat="41.2024119" lon="15.004892"><ele>290.0</ele><time>2026-04-19T11:27:05.946Z</time></trkpt><trkpt lat="41.2024478" lon="15.0050309"><ele>290.0</ele><time>2026-04-19T11:27:08.029Z</time></trkpt><trkpt lat="41.202431" lon="15.0051191"><ele>290.0</ele><time>2026-04-19T11:27:09.941Z</time></trkpt><trkpt lat="41.202381" lon="15.005209"><ele>290.0</ele><time>2026-04-19T11:27:10.941Z</time></trkpt><trkpt lat="41.2023189" lon="15.0053195"><ele>292.0</ele><time>2026-04-19T11:27:11.97Z</time></trkpt><trkpt lat="41.2022649" lon="15.0054049"><ele>294.0</ele><time>2026-04-19T11:27:13.026Z</time></trkpt><trkpt lat="41.2022101" lon="15.0054536"><ele>296.0</ele><time>2026-04-19T11:27:14.031Z</time></trkpt><trkpt lat="41.2021455" lon="15.0054757"><ele>298.0</ele><time>2026-04-19T11:27:14.939Z</time></trkpt><trkpt lat="41.2020587" lon="15.0055053"><ele>300.0</ele><time>2026-04-19T11:27:15.964Z</time></trkpt><trkpt lat="41.2019759" lon="15.0055233"><ele>302.0</ele><time>2026-04-19T11:27:16.94Z</time></trkpt><trkpt lat="41.2018922" lon="15.0054822"><ele>302.0</ele><time>2026-04-19T11:27:18.029Z</time></trkpt><trkpt lat="41.2018197" lon="15.0054295"><ele>302.0</ele><time>2026-04-19T11:27:19.029Z</time></trkpt><trkpt lat="41.201759" lon="15.0054054"><ele>302.0</ele><time>2026-04-19T11:27:19.946Z</time></trkpt><trkpt lat="41.2016408" lon="15.005418"><ele>302.0</ele><time>2026-04-19T11:27:21.979Z</time></trkpt><trkpt lat="41.2015573" lon="15.0054342"><ele>302.0</ele><time>2026-04-19T11:27:22.944Z</time></trkpt><trkpt lat="41.2014782" lon="15.0054618"><ele>302.0</ele><time>2026-04-19T11:27:24.023Z</time></trkpt><trkpt lat="41.2014099" lon="15.0054993"><ele>303.0</ele><time>2026-04-19T11:27:24.952Z</time></trkpt><trkpt lat="41.2013367" lon="15.0055552"><ele>304.0</ele><time>2026-04-19T11:27:25.951Z</time></trkpt><trkpt lat="41.2012587" lon="15.0055877"><ele>305.0</ele><time>2026-04-19T11:27:26.992Z</time></trkpt><trkpt lat="41.201173" lon="15.0055979"><ele>306.0</ele><time>2026-04-19T11:27:28.026Z</time></trkpt><trkpt lat="41.2010935" lon="15.0055801"><ele>307.0</ele><time>2026-04-19T11:27:29.025Z</time></trkpt><trkpt lat="41.2010157" lon="15.0055374"><ele>308.0</ele><time>2026-04-19T11:27:29.944Z</time></trkpt><trkpt lat="41.2009469" lon="15.0054996"><ele>308.0</ele><time>2026-04-19T11:27:31.029Z</time></trkpt><trkpt lat="41.2008743" lon="15.0054841"><ele>308.0</ele><time>2026-04-19T11:27:32.031Z</time></trkpt><trkpt lat="41.2007865" lon="15.0054696"><ele>308.0</ele><time>2026-04-19T11:27:33.027Z</time></trkpt><trkpt lat="41.2006867" lon="15.005462"><ele>308.0</ele><time>2026-04-19T11:27:33.945Z</time></trkpt><trkpt lat="41.200602" lon="15.0054204"><ele>308.0</ele><time>2026-04-19T11:27:34.941Z</time></trkpt><trkpt lat="41.200531" lon="15.0053803"><ele>308.0</ele><time>2026-04-19T11:27:35.946Z</time></trkpt><trkpt lat="41.2004264" lon="15.0053705"><ele>310.5</ele><time>2026-04-19T11:27:37.946Z</time></trkpt><trkpt lat="41.200341" lon="15.0054563"><ele>313.0</ele><time>2026-04-19T11:27:39.945Z</time></trkpt><trkpt lat="41.2002945" lon="15.0055433"><ele>315.5</ele><time>2026-04-19T11:27:40.949Z</time></trkpt><trkpt lat="41.2002499" lon="15.0056392"><ele>318.0</ele><time>2026-04-19T11:27:42.026Z</time></trkpt><trkpt lat="41.2001956" lon="15.0056851"><ele>320.5</ele><time>2026-04-19T11:27:42.978Z</time></trkpt><trkpt lat="41.2001284" lon="15.0056905"><ele>323.0</ele><time>2026-04-19T11:27:43.941Z</time></trkpt><trkpt lat="41.2000498" lon="15.0056483"><ele>323.0</ele><time>2026-04-19T11:27:45.941Z</time></trkpt><trkpt lat="41.1999642" lon="15.0056633"><ele>323.0</ele><time>2026-04-19T11:27:49.012Z</time></trkpt><trkpt lat="41.1998863" lon="15.0056765"><ele>323.0</ele><time>2026-04-19T11:27:50.947Z</time></trkpt><trkpt lat="41.1997407" lon="15.0057579"><ele>323.0</ele><time>2026-04-19T11:27:52.942Z</time></trkpt><trkpt lat="41.1996754" lon="15.0057955"><ele>323.0</ele><time>2026-04-19T11:27:53.951Z</time></trkpt><trkpt lat="41.1996076" lon="15.0058467"><ele>327.79999999999995</ele><time>2026-04-19T11:27:54.948Z</time></trkpt><trkpt lat="41.1995438" lon="15.005885"><ele>332.6</ele><time>2026-04-19T11:27:55.946Z</time></trkpt><trkpt lat="41.1994617" lon="15.0059083"><ele>337.4</ele><time>2026-04-19T11:27:58.032Z</time></trkpt><trkpt lat="41.199524" lon="15.0060058"><ele>342.20000000000005</ele><time>2026-04-19T11:28:02.943Z</time></trkpt><trkpt lat="41.1996055" lon="15.0061498"><ele>347.0</ele><time>2026-04-19T11:28:04.947Z</time></trkpt><trkpt lat="41.1996162" lon="15.0062533"><ele>347.0</ele><time>2026-04-19T11:28:07.03Z</time></trkpt><trkpt lat="41.199535" lon="15.0063628"><ele>347.0</ele><time>2026-04-19T11:28:08.952Z</time></trkpt><trkpt lat="41.1994776" lon="15.0064101"><ele>347.0</ele><time>2026-04-19T11:28:09.946Z</time></trkpt><trkpt lat="41.1994185" lon="15.006453"><ele>347.0</ele><time>2026-04-19T11:28:10.943Z</time></trkpt><trkpt lat="41.19935" lon="15.006474"><ele>347.0</ele><time>2026-04-19T11:28:11.944Z</time></trkpt><trkpt lat="41.1992703" lon="15.0064894"><ele>347.0</ele><time>2026-04-19T11:28:12.946Z</time></trkpt><trkpt lat="41.1992043" lon="15.0065322"><ele>347.0</ele><time>2026-04-19T11:28:14.025Z</time></trkpt><trkpt lat="41.1991159" lon="15.0066046"><ele>347.0</ele><time>2026-04-19T11:28:14.953Z</time></trkpt><trkpt lat="41.1990434" lon="15.0066773"><ele>347.0</ele><time>2026-04-19T11:28:15.954Z</time></trkpt><trkpt lat="41.1989748" lon="15.0067551"><ele>347.0</ele><time>2026-04-19T11:28:16.946Z</time></trkpt><trkpt lat="41.1988906" lon="15.0068314"><ele>347.0</ele><time>2026-04-19T11:28:17.953Z</time></trkpt><trkpt lat="41.1987976" lon="15.0069017"><ele>351.6</ele><time>2026-04-19T11:28:18.951Z</time></trkpt><trkpt lat="41.1987004" lon="15.0069715"><ele>356.20000000000005</ele><time>2026-04-19T11:28:19.954Z</time></trkpt><trkpt lat="41.1986173" lon="15.0070535"><ele>360.8</ele><time>2026-04-19T11:28:20.95Z</time></trkpt><trkpt lat="41.1985407" lon="15.0071412"><ele>365.4</ele><time>2026-04-19T11:28:21.952Z</time></trkpt><trkpt lat="41.1984736" lon="15.0072655"><ele>370.0</ele><time>2026-04-19T11:28:23.955Z</time></trkpt><trkpt lat="41.1984879" lon="15.007401"><ele>370.0</ele><time>2026-04-19T11:28:25.953Z</time></trkpt><trkpt lat="41.1985466" lon="15.0074372"><ele>370.0</ele><time>2026-04-19T11:28:26.95Z</time></trkpt><trkpt lat="41.1986283" lon="15.0074551"><ele>370.0</ele><time>2026-04-19T11:28:27.954Z</time></trkpt><trkpt lat="41.1987022" lon="15.0074626"><ele>370.0</ele><time>2026-04-19T11:28:29.031Z</time></trkpt><trkpt lat="41.198786" lon="15.0074853"><ele>370.0</ele><time>2026-04-19T11:28:29.956Z</time></trkpt><trkpt lat="41.1988744" lon="15.0075333"><ele>370.0</ele><time>2026-04-19T11:28:30.956Z</time></trkpt><trkpt lat="41.1989548" lon="15.0075931"><ele>376.8</ele><time>2026-04-19T11:28:31.992Z</time></trkpt><trkpt lat="41.1990393" lon="15.0076651"><ele>383.6</ele><time>2026-04-19T11:28:33.035Z</time></trkpt><trkpt lat="41.1991258" lon="15.007736"><ele>390.4</ele><time>2026-04-19T11:28:34.027Z</time></trkpt><trkpt lat="41.1992077" lon="15.0077804"><ele>397.2</ele><time>2026-04-19T11:28:34.952Z</time></trkpt><trkpt lat="41.1993054" lon="15.0078128"><ele>404.0</ele><time>2026-04-19T11:28:35.953Z</time></trkpt><trkpt lat="41.1993957" lon="15.0078603"><ele>404.0</ele><time>2026-04-19T11:28:36.96Z</time></trkpt><trkpt lat="41.1994833" lon="15.0079122"><ele>404.0</ele><time>2026-04-19T11:28:38.028Z</time></trkpt><trkpt lat="41.1995616" lon="15.0079688"><ele>404.0</ele><time>2026-04-19T11:28:39.027Z</time></trkpt><trkpt lat="41.1996456" lon="15.0080235"><ele>404.0</ele><time>2026-04-19T11:28:39.946Z</time></trkpt><trkpt lat="41.1997282" lon="15.0080765"><ele>404.0</ele><time>2026-04-19T11:28:40.948Z</time></trkpt><trkpt lat="41.1998214" lon="15.0081366"><ele>403.79999999999995</ele><time>2026-04-19T11:28:41.946Z</time></trkpt><trkpt lat="41.1999124" lon="15.0082088"><ele>403.59999999999997</ele><time>2026-04-19T11:28:43.036Z</time></trkpt><trkpt lat="41.2000033" lon="15.0082997"><ele>403.4</ele><time>2026-04-19T11:28:44.029Z</time></trkpt><trkpt lat="41.2000844" lon="15.0083924"><ele>403.2</ele><time>2026-04-19T11:28:44.947Z</time></trkpt><trkpt lat="41.2001548" lon="15.008469"><ele>403.0</ele><time>2026-04-19T11:28:45.938Z</time></trkpt><trkpt lat="41.2002224" lon="15.0085171"><ele>406.83333333333337</ele><time>2026-04-19T11:28:46.947Z</time></trkpt><trkpt lat="41.2002869" lon="15.0085419"><ele>410.6666666666667</ele><time>2026-04-19T11:28:48.028Z</time></trkpt><trkpt lat="41.200383" lon="15.0085398"><ele>414.5</ele><time>2026-04-19T11:28:49.938Z</time></trkpt><trkpt lat="41.2004592" lon="15.0085007"><ele>418.33333333333337</ele><time>2026-04-19T11:28:50.946Z</time></trkpt><trkpt lat="41.2005309" lon="15.0084488"><ele>422.1666666666667</ele><time>2026-04-19T11:28:51.943Z</time></trkpt><trkpt lat="41.2006008" lon="15.0083966"><ele>426.0</ele><time>2026-04-19T11:28:52.95Z</time></trkpt><trkpt lat="41.2006671" lon="15.0083676"><ele>426.0</ele><time>2026-04-19T11:28:53.944Z</time></trkpt><trkpt lat="41.2007364" lon="15.0083462"><ele>426.0</ele><time>2026-04-19T11:28:54.948Z</time></trkpt><trkpt lat="41.2008134" lon="15.0083117"><ele>426.0</ele><time>2026-04-19T11:28:56.009Z</time></trkpt><trkpt lat="41.2008899" lon="15.0082501"><ele>426.0</ele><time>2026-04-19T11:28:57.015Z</time></trkpt><trkpt lat="41.2009437" lon="15.008171"><ele>426.0</ele><time>2026-04-19T11:28:57.953Z</time></trkpt><trkpt lat="41.2009997" lon="15.0080788"><ele>426.0</ele><time>2026-04-19T11:28:58.944Z</time></trkpt><trkpt lat="41.2010699" lon="15.0080012"><ele>423.57142857142856</ele><time>2026-04-19T11:28:59.949Z</time></trkpt><trkpt lat="41.2011354" lon="15.0079431"><ele>421.1428571428571</ele><time>2026-04-19T11:29:00.945Z</time></trkpt><trkpt lat="41.2012058" lon="15.0079104"><ele>418.71428571428567</ele><time>2026-04-19T11:29:01.95Z</time></trkpt><trkpt lat="41.2012746" lon="15.0078921"><ele>416.2857142857143</ele><time>2026-04-19T11:29:02.95Z</time></trkpt><trkpt lat="41.2013439" lon="15.0078989"><ele>413.8571428571429</ele><time>2026-04-19T11:29:04.015Z</time></trkpt><trkpt lat="41.2014151" lon="15.0079273"><ele>411.4285714285714</ele><time>2026-04-19T11:29:04.944Z</time></trkpt><trkpt lat="41.20148" lon="15.0079814"><ele>409.0</ele><time>2026-04-19T11:29:05.945Z</time></trkpt><trkpt lat="41.2015428" lon="15.0080535"><ele>410.0</ele><time>2026-04-19T11:29:06.95Z</time></trkpt><trkpt lat="41.2016213" lon="15.0081409"><ele>411.0</ele><time>2026-04-19T11:29:07.945Z</time></trkpt><trkpt lat="41.2016908" lon="15.0082127"><ele>412.0</ele><time>2026-04-19T11:29:08.948Z</time></trkpt><trkpt lat="41.2017511" lon="15.0082955"><ele>413.0</ele><time>2026-04-19T11:29:09.945Z</time></trkpt><trkpt lat="41.2017955" lon="15.0083955"><ele>414.0</ele><time>2026-04-19T11:29:10.953Z</time></trkpt><trkpt lat="41.2018285" lon="15.0085125"><ele>414.0</ele><time>2026-04-19T11:29:12.031Z</time></trkpt><trkpt lat="41.2018596" lon="15.0086322"><ele>414.0</ele><time>2026-04-19T11:29:13.027Z</time></trkpt><trkpt lat="41.2018847" lon="15.0087397"><ele>414.0</ele><time>2026-04-19T11:29:13.948Z</time></trkpt><trkpt lat="41.2018926" lon="15.0088614"><ele>414.0</ele><time>2026-04-19T11:29:14.95Z</time></trkpt><trkpt lat="41.20189" lon="15.0089938"><ele>414.0</ele><time>2026-04-19T11:29:15.953Z</time></trkpt><trkpt lat="41.201892" lon="15.0091241"><ele>414.0</ele><time>2026-04-19T11:29:16.951Z</time></trkpt><trkpt lat="41.2019044" lon="15.0092509"><ele>414.0</ele><time>2026-04-19T11:29:17.993Z</time></trkpt><trkpt lat="41.2019443" lon="15.0093735"><ele>414.0</ele><time>2026-04-19T11:29:18.956Z</time></trkpt><trkpt lat="41.2019955" lon="15.0094956"><ele>414.0</ele><time>2026-04-19T11:29:19.946Z</time></trkpt><trkpt lat="41.2020569" lon="15.0096237"><ele>414.0</ele><time>2026-04-19T11:29:20.952Z</time></trkpt><trkpt lat="41.2021022" lon="15.0097425"><ele>414.0</ele><time>2026-04-19T11:29:21.95Z</time></trkpt><trkpt lat="41.2021313" lon="15.0098507"><ele>414.0</ele><time>2026-04-19T11:29:22.967Z</time></trkpt><trkpt lat="41.2021504" lon="15.009978"><ele>414.0</ele><time>2026-04-19T11:29:23.954Z</time></trkpt><trkpt lat="41.2021738" lon="15.0101251"><ele>414.0</ele><time>2026-04-19T11:29:24.951Z</time></trkpt><trkpt lat="41.2022021" lon="15.0102757"><ele>414.0</ele><time>2026-04-19T11:29:25.955Z</time></trkpt><trkpt lat="41.2022273" lon="15.0104124"><ele>413.4</ele><time>2026-04-19T11:29:26.952Z</time></trkpt><trkpt lat="41.2022436" lon="15.0105487"><ele>412.79999999999995</ele><time>2026-04-19T11:29:27.953Z</time></trkpt><trkpt lat="41.2022537" lon="15.010681"><ele>412.20000000000005</ele><time>2026-04-19T11:29:28.952Z</time></trkpt><trkpt lat="41.2022455" lon="15.0108207"><ele>411.6</ele><time>2026-04-19T11:29:29.951Z</time></trkpt><trkpt lat="41.2022346" lon="15.01097"><ele>411.0</ele><time>2026-04-19T11:29:30.95Z</time></trkpt><trkpt lat="41.2022405" lon="15.011126"><ele>410.0</ele><time>2026-04-19T11:29:31.95Z</time></trkpt><trkpt lat="41.2022533" lon="15.0112836"><ele>409.0</ele><time>2026-04-19T11:29:32.956Z</time></trkpt><trkpt lat="41.202262" lon="15.0114367"><ele>408.0</ele><time>2026-04-19T11:29:33.954Z</time></trkpt><trkpt lat="41.2022746" lon="15.0115851"><ele>407.0</ele><time>2026-04-19T11:29:34.951Z</time></trkpt><trkpt lat="41.202288" lon="15.0117392"><ele>406.20000000000005</ele><time>2026-04-19T11:29:35.958Z</time></trkpt><trkpt lat="41.202302" lon="15.0118944"><ele>405.4</ele><time>2026-04-19T11:29:36.947Z</time></trkpt><trkpt lat="41.2023104" lon="15.0120405"><ele>404.6</ele><time>2026-04-19T11:29:37.959Z</time></trkpt><trkpt lat="41.2023165" lon="15.0121754"><ele>403.79999999999995</ele><time>2026-04-19T11:29:38.956Z</time></trkpt><trkpt lat="41.2023021" lon="15.012282"><ele>403.0</ele><time>2026-04-19T11:29:39.959Z</time></trkpt><trkpt lat="41.2022701" lon="15.012367"><ele>403.00000000000006</ele><time>2026-04-19T11:29:40.961Z</time></trkpt><trkpt lat="41.2022302" lon="15.0124338"><ele>403.0</ele><time>2026-04-19T11:29:41.944Z</time></trkpt><trkpt lat="41.2021708" lon="15.0124953"><ele>403.0</ele><time>2026-04-19T11:29:42.945Z</time></trkpt><trkpt lat="41.2021094" lon="15.0125537"><ele>403.0</ele><time>2026-04-19T11:29:43.951Z</time></trkpt><trkpt lat="41.2020412" lon="15.0126268"><ele>403.00000000000006</ele><time>2026-04-19T11:29:44.949Z</time></trkpt><trkpt lat="41.2019945" lon="15.0127021"><ele>403.0</ele><time>2026-04-19T11:29:45.941Z</time></trkpt><trkpt lat="41.2019714" lon="15.0128532"><ele>402.79999999999995</ele><time>2026-04-19T11:29:47.95Z</time></trkpt><trkpt lat="41.2019926" lon="15.0129583"><ele>402.6</ele><time>2026-04-19T11:29:48.948Z</time></trkpt><trkpt lat="41.2020339" lon="15.013088"><ele>402.4</ele><time>2026-04-19T11:29:49.947Z</time></trkpt><trkpt lat="41.202079" lon="15.0132127"><ele>402.20000000000005</ele><time>2026-04-19T11:29:50.946Z</time></trkpt><trkpt lat="41.2021016" lon="15.0133359"><ele>402.0</ele><time>2026-04-19T11:29:51.947Z</time></trkpt><trkpt lat="41.2021318" lon="15.0134312"><ele>400.40000000000003</ele><time>2026-04-19T11:29:52.957Z</time></trkpt><trkpt lat="41.2022189" lon="15.0135303"><ele>398.8</ele><time>2026-04-19T11:29:54.949Z</time></trkpt><trkpt lat="41.2022841" lon="15.0135966"><ele>397.2</ele><time>2026-04-19T11:29:55.952Z</time></trkpt><trkpt lat="41.2023575" lon="15.013695"><ele>395.6</ele><time>2026-04-19T11:29:56.951Z</time></trkpt><trkpt lat="41.2024335" lon="15.013812"><ele>394.0</ele><time>2026-04-19T11:29:57.949Z</time></trkpt><trkpt lat="41.2025105" lon="15.0139282"><ele>389.6</ele><time>2026-04-19T11:29:58.955Z</time></trkpt><trkpt lat="41.202565" lon="15.0140418"><ele>385.2</ele><time>2026-04-19T11:29:59.95Z</time></trkpt><trkpt lat="41.2026031" lon="15.0141616"><ele>380.8</ele><time>2026-04-19T11:30:00.951Z</time></trkpt><trkpt lat="41.2026532" lon="15.0142785"><ele>376.40000000000003</ele><time>2026-04-19T11:30:02.027Z</time></trkpt><trkpt lat="41.2027149" lon="15.0143904"><ele>372.0</ele><time>2026-04-19T11:30:02.961Z</time></trkpt><trkpt lat="41.2027678" lon="15.0144937"><ele>372.0</ele><time>2026-04-19T11:30:03.952Z</time></trkpt><trkpt lat="41.2028123" lon="15.0145685"><ele>372.0</ele><time>2026-04-19T11:30:04.948Z</time></trkpt><trkpt lat="41.2028486" lon="15.0146539"><ele>372.0</ele><time>2026-04-19T11:30:05.95Z</time></trkpt><trkpt lat="41.2028907" lon="15.0147504"><ele>372.0</ele><time>2026-04-19T11:30:07.015Z</time></trkpt><trkpt lat="41.2029419" lon="15.0148342"><ele>372.0</ele><time>2026-04-19T11:30:08.019Z</time></trkpt><trkpt lat="41.2030034" lon="15.0149095"><ele>372.0</ele><time>2026-04-19T11:30:09.019Z</time></trkpt><trkpt lat="41.2030729" lon="15.0149956"><ele>371.0</ele><time>2026-04-19T11:30:09.951Z</time></trkpt><trkpt lat="41.2031445" lon="15.0150849"><ele>370.0</ele><time>2026-04-19T11:30:10.953Z</time></trkpt><trkpt lat="41.2032156" lon="15.0151551"><ele>369.0</ele><time>2026-04-19T11:30:11.951Z</time></trkpt><trkpt lat="41.2032854" lon="15.0152242"><ele>368.0</ele><time>2026-04-19T11:30:13.03Z</time></trkpt><trkpt lat="41.2033496" lon="15.0152978"><ele>367.0</ele><time>2026-04-19T11:30:13.959Z</time></trkpt><trkpt lat="41.2034182" lon="15.0153808"><ele>367.0</ele><time>2026-04-19T11:30:14.961Z</time></trkpt><trkpt lat="41.2034796" lon="15.0154721"><ele>367.0</ele><time>2026-04-19T11:30:15.963Z</time></trkpt><trkpt lat="41.2035388" lon="15.0155736"><ele>367.0</ele><time>2026-04-19T11:30:17.033Z</time></trkpt><trkpt lat="41.203594" lon="15.0156789"><ele>367.0</ele><time>2026-04-19T11:30:18.032Z</time></trkpt><trkpt lat="41.2036405" lon="15.0157845"><ele>367.0</ele><time>2026-04-19T11:30:19.034Z</time></trkpt><trkpt lat="41.203674" lon="15.0158894"><ele>369.8</ele><time>2026-04-19T11:30:19.955Z</time></trkpt><trkpt lat="41.2036938" lon="15.0159949"><ele>372.6</ele><time>2026-04-19T11:30:20.95Z</time></trkpt><trkpt lat="41.2037057" lon="15.0161129"><ele>375.40000000000003</ele><time>2026-04-19T11:30:21.952Z</time></trkpt><trkpt lat="41.2037089" lon="15.0162349"><ele>378.20000000000005</ele><time>2026-04-19T11:30:23.078Z</time></trkpt><trkpt lat="41.2037169" lon="15.0163692"><ele>381.0</ele><time>2026-04-19T11:30:24.015Z</time></trkpt><trkpt lat="41.2037224" lon="15.0165209"><ele>382.6</ele><time>2026-04-19T11:30:24.953Z</time></trkpt><trkpt lat="41.2037356" lon="15.0166707"><ele>384.20000000000005</ele><time>2026-04-19T11:30:25.956Z</time></trkpt><trkpt lat="41.203746" lon="15.0168278"><ele>385.79999999999995</ele><time>2026-04-19T11:30:26.952Z</time></trkpt><trkpt lat="41.2037511" lon="15.0169792"><ele>387.4</ele><time>2026-04-19T11:30:28.022Z</time></trkpt><trkpt lat="41.2037628" lon="15.0171144"><ele>389.0</ele><time>2026-04-19T11:30:28.962Z</time></trkpt><trkpt lat="41.2037647" lon="15.0172019"><ele>388.99999999999994</ele><time>2026-04-19T11:30:29.96Z</time></trkpt><trkpt lat="41.2037211" lon="15.0173134"><ele>389.0</ele><time>2026-04-19T11:30:31.956Z</time></trkpt><trkpt lat="41.2036657" lon="15.0173603"><ele>389.0</ele><time>2026-04-19T11:30:32.953Z</time></trkpt><trkpt lat="41.2036074" lon="15.0173968"><ele>389.0</ele><time>2026-04-19T11:30:33.953Z</time></trkpt><trkpt lat="41.2035253" lon="15.0174394"><ele>388.99999999999994</ele><time>2026-04-19T11:30:34.95Z</time></trkpt><trkpt lat="41.2034364" lon="15.017492"><ele>389.0</ele><time>2026-04-19T11:30:35.955Z</time></trkpt><trkpt lat="41.2033488" lon="15.0175645"><ele>390.0</ele><time>2026-04-19T11:30:36.95Z</time></trkpt><trkpt lat="41.203265" lon="15.0176331"><ele>391.0</ele><time>2026-04-19T11:30:38.03Z</time></trkpt><trkpt lat="41.2031841" lon="15.0177065"><ele>392.0</ele><time>2026-04-19T11:30:38.946Z</time></trkpt><trkpt lat="41.2031137" lon="15.0177793"><ele>393.0</ele><time>2026-04-19T11:30:39.945Z</time></trkpt><trkpt lat="41.203046" lon="15.0178406"><ele>394.0</ele><time>2026-04-19T11:30:40.945Z</time></trkpt><trkpt lat="41.2029621" lon="15.0179077"><ele>397.0</ele><time>2026-04-19T11:30:42.95Z</time></trkpt><trkpt lat="41.2028843" lon="15.0179264"><ele>400.0</ele><time>2026-04-19T11:31:18.954Z</time></trkpt><trkpt lat="41.202756" lon="15.0179211"><ele>403.0</ele><time>2026-04-19T11:31:20.952Z</time></trkpt><trkpt lat="41.2026751" lon="15.0178923"><ele>406.0</ele><time>2026-04-19T11:31:21.965Z</time></trkpt><trkpt lat="41.2025909" lon="15.0178479"><ele>409.0</ele><time>2026-04-19T11:31:22.95Z</time></trkpt><trkpt lat="41.2025099" lon="15.0178081"><ele>409.0</ele><time>2026-04-19T11:31:23.947Z</time></trkpt><trkpt lat="41.2024199" lon="15.0177698"><ele>409.0</ele><time>2026-04-19T11:31:24.957Z</time></trkpt><trkpt lat="41.2023227" lon="15.017734"><ele>409.0</ele><time>2026-04-19T11:31:26.015Z</time></trkpt><trkpt lat="41.2022292" lon="15.0177033"><ele>409.0</ele><time>2026-04-19T11:31:26.974Z</time></trkpt><trkpt lat="41.2021362" lon="15.0176874"><ele>409.0</ele><time>2026-04-19T11:31:27.951Z</time></trkpt><trkpt lat="41.2020414" lon="15.017678"><ele>411.33333333333337</ele><time>2026-04-19T11:31:28.954Z</time></trkpt><trkpt lat="41.2019469" lon="15.0176675"><ele>413.6666666666667</ele><time>2026-04-19T11:31:29.953Z</time></trkpt><trkpt lat="41.2018632" lon="15.0176578"><ele>416.0</ele><time>2026-04-19T11:31:30.948Z</time></trkpt><trkpt lat="41.2017893" lon="15.0176493"><ele>418.33333333333337</ele><time>2026-04-19T11:31:31.958Z</time></trkpt><trkpt lat="41.2016833" lon="15.0176285"><ele>420.6666666666667</ele><time>2026-04-19T11:31:33.96Z</time></trkpt><trkpt lat="41.2016102" lon="15.0176516"><ele>423.0</ele><time>2026-04-19T11:34:06.959Z</time></trkpt><trkpt lat="41.2015651" lon="15.0175923"><ele>423.0</ele><time>2026-04-19T11:39:04.034Z</time></trkpt><trkpt lat="41.201517" lon="15.0175294"><ele>423.0</ele><time>2026-04-19T11:39:27.951Z</time></trkpt><trkpt lat="41.2014315" lon="15.0175105"><ele>423.0</ele><time>2026-04-19T11:39:28.946Z</time></trkpt><trkpt lat="41.2013546" lon="15.0174859"><ele>423.0</ele><time>2026-04-19T11:39:29.952Z</time></trkpt><trkpt lat="41.2012744" lon="15.0174609"><ele>423.0</ele><time>2026-04-19T11:39:31.033Z</time></trkpt><trkpt lat="41.2011687" lon="15.0174365"><ele>423.0</ele><time>2026-04-19T11:39:31.952Z</time></trkpt><trkpt lat="41.2010518" lon="15.0174199"><ele>424.2</ele><time>2026-04-19T11:39:33.027Z</time></trkpt><trkpt lat="41.2009263" lon="15.0174094"><ele>425.4</ele><time>2026-04-19T11:39:33.968Z</time></trkpt><trkpt lat="41.2008129" lon="15.0173963"><ele>426.59999999999997</ele><time>2026-04-19T11:39:34.964Z</time></trkpt><trkpt lat="41.2007195" lon="15.0174117"><ele>427.79999999999995</ele><time>2026-04-19T11:39:35.964Z</time></trkpt><trkpt lat="41.2006412" lon="15.0174599"><ele>429.0</ele><time>2026-04-19T11:39:37.031Z</time></trkpt><trkpt lat="41.2005824" lon="15.0175549"><ele>432.4</ele><time>2026-04-19T11:39:38.028Z</time></trkpt><trkpt lat="41.2005324" lon="15.0176703"><ele>435.79999999999995</ele><time>2026-04-19T11:39:38.952Z</time></trkpt><trkpt lat="41.2004877" lon="15.017801"><ele>439.20000000000005</ele><time>2026-04-19T11:39:39.953Z</time></trkpt><trkpt lat="41.2004335" lon="15.0179148"><ele>442.6</ele><time>2026-04-19T11:39:40.957Z</time></trkpt><trkpt lat="41.2003657" lon="15.018012"><ele>446.0</ele><time>2026-04-19T11:39:42.026Z</time></trkpt><trkpt lat="41.2002876" lon="15.0180866"><ele>446.0</ele><time>2026-04-19T11:39:43.037Z</time></trkpt><trkpt lat="41.2002096" lon="15.0181458"><ele>446.0</ele><time>2026-04-19T11:39:44.027Z</time></trkpt><trkpt lat="41.2001175" lon="15.0182111"><ele>446.0</ele><time>2026-04-19T11:39:44.951Z</time></trkpt><trkpt lat="41.2000294" lon="15.0182749"><ele>446.0</ele><time>2026-04-19T11:39:45.95Z</time></trkpt><trkpt lat="41.1999456" lon="15.0183473"><ele>446.0</ele><time>2026-04-19T11:39:47.054Z</time></trkpt><trkpt lat="41.1998497" lon="15.0184"><ele>449.8</ele><time>2026-04-19T11:39:48.03Z</time></trkpt><trkpt lat="41.1997468" lon="15.0184169"><ele>453.6</ele><time>2026-04-19T11:39:49.026Z</time></trkpt><trkpt lat="41.1996408" lon="15.0184002"><ele>457.4</ele><time>2026-04-19T11:39:49.946Z</time></trkpt><trkpt lat="41.1995299" lon="15.0183748"><ele>461.2</ele><time>2026-04-19T11:39:50.948Z</time></trkpt><trkpt lat="41.1994341" lon="15.0183551"><ele>465.0</ele><time>2026-04-19T11:39:51.973Z</time></trkpt><trkpt lat="41.1993568" lon="15.0183805"><ele>465.0</ele><time>2026-04-19T11:39:53.026Z</time></trkpt><trkpt lat="41.1992806" lon="15.0184434"><ele>465.0</ele><time>2026-04-19T11:39:54.03Z</time></trkpt><trkpt lat="41.1992097" lon="15.018548"><ele>465.0</ele><time>2026-04-19T11:39:54.947Z</time></trkpt><trkpt lat="41.1991488" lon="15.0186884"><ele>465.0</ele><time>2026-04-19T11:39:55.946Z</time></trkpt><trkpt lat="41.1991039" lon="15.0188099"><ele>465.0</ele><time>2026-04-19T11:39:56.954Z</time></trkpt><trkpt lat="41.1990704" lon="15.0189299"><ele>465.0</ele><time>2026-04-19T11:39:57.956Z</time></trkpt><trkpt lat="41.19905" lon="15.0190531"><ele>465.0</ele><time>2026-04-19T11:39:58.949Z</time></trkpt><trkpt lat="41.199032" lon="15.0191558"><ele>465.0</ele><time>2026-04-19T11:39:59.986Z</time></trkpt><trkpt lat="41.199013" lon="15.0192451"><ele>465.0</ele><time>2026-04-19T11:40:00.966Z</time></trkpt><trkpt lat="41.1989921" lon="15.0193375"><ele>465.0</ele><time>2026-04-19T11:40:01.96Z</time></trkpt><trkpt lat="41.1989653" lon="15.0194252"><ele>465.0</ele><time>2026-04-19T11:40:02.951Z</time></trkpt><trkpt lat="41.1989386" lon="15.0195251"><ele>466.8</ele><time>2026-04-19T11:40:03.945Z</time></trkpt><trkpt lat="41.1989036" lon="15.0196387"><ele>468.6</ele><time>2026-04-19T11:40:04.957Z</time></trkpt><trkpt lat="41.1988608" lon="15.0197675"><ele>470.4</ele><time>2026-04-19T11:40:05.949Z</time></trkpt><trkpt lat="41.1988254" lon="15.0198929"><ele>472.2</ele><time>2026-04-19T11:40:06.956Z</time></trkpt><trkpt lat="41.1987867" lon="15.0200124"><ele>474.0</ele><time>2026-04-19T11:40:07.955Z</time></trkpt><trkpt lat="41.1987397" lon="15.0201161"><ele>475.2</ele><time>2026-04-19T11:40:09.033Z</time></trkpt><trkpt lat="41.1986788" lon="15.0202119"><ele>476.4</ele><time>2026-04-19T11:40:09.948Z</time></trkpt><trkpt lat="41.1986066" lon="15.0203106"><ele>477.6</ele><time>2026-04-19T11:40:11.027Z</time></trkpt><trkpt lat="41.198537" lon="15.0204158"><ele>478.8</ele><time>2026-04-19T11:40:11.957Z</time></trkpt><trkpt lat="41.1984718" lon="15.0205033"><ele>480.0</ele><time>2026-04-19T11:40:12.955Z</time></trkpt><trkpt lat="41.1983998" lon="15.0205639"><ele>480.0</ele><time>2026-04-19T11:40:13.955Z</time></trkpt><trkpt lat="41.198301" lon="15.0205931"><ele>480.0</ele><time>2026-04-19T11:40:14.958Z</time></trkpt><trkpt lat="41.1981985" lon="15.0206005"><ele>480.0</ele><time>2026-04-19T11:40:15.958Z</time></trkpt><trkpt lat="41.1980763" lon="15.0205953"><ele>480.0</ele><time>2026-04-19T11:40:16.987Z</time></trkpt><trkpt lat="41.1979432" lon="15.02062"><ele>482.8</ele><time>2026-04-19T11:40:18.027Z</time></trkpt><trkpt lat="41.1978154" lon="15.0206501"><ele>485.6</ele><time>2026-04-19T11:40:19.032Z</time></trkpt><trkpt lat="41.1976949" lon="15.0206883"><ele>488.4</ele><time>2026-04-19T11:40:19.956Z</time></trkpt><trkpt lat="41.1976057" lon="15.0207446"><ele>491.2</ele><time>2026-04-19T11:40:20.962Z</time></trkpt><trkpt lat="41.197542" lon="15.0208335"><ele>494.0</ele><time>2026-04-19T11:40:21.989Z</time></trkpt><trkpt lat="41.1974841" lon="15.0209399"><ele>494.2</ele><time>2026-04-19T11:40:23.057Z</time></trkpt><trkpt lat="41.1974339" lon="15.0210651"><ele>494.4</ele><time>2026-04-19T11:40:24.031Z</time></trkpt><trkpt lat="41.1973661" lon="15.0211648"><ele>494.6</ele><time>2026-04-19T11:40:24.953Z</time></trkpt><trkpt lat="41.1972925" lon="15.0212366"><ele>494.8</ele><time>2026-04-19T11:40:25.95Z</time></trkpt><trkpt lat="41.1972175" lon="15.0212843"><ele>495.0</ele><time>2026-04-19T11:40:26.955Z</time></trkpt><trkpt lat="41.1971374" lon="15.0213155"><ele>497.2</ele><time>2026-04-19T11:40:28.015Z</time></trkpt><trkpt lat="41.1970592" lon="15.0213119"><ele>499.4</ele><time>2026-04-19T11:40:29.027Z</time></trkpt><trkpt lat="41.1969665" lon="15.0212826"><ele>501.6</ele><time>2026-04-19T11:40:29.966Z</time></trkpt><trkpt lat="41.1968664" lon="15.021227"><ele>503.8</ele><time>2026-04-19T11:40:30.965Z</time></trkpt><trkpt lat="41.196768" lon="15.0211819"><ele>506.0</ele><time>2026-04-19T11:40:32.01Z</time></trkpt><trkpt lat="41.1966836" lon="15.0211399"><ele>506.0</ele><time>2026-04-19T11:40:33.025Z</time></trkpt><trkpt lat="41.1966024" lon="15.0211261"><ele>506.0</ele><time>2026-04-19T11:40:34.039Z</time></trkpt><trkpt lat="41.1965133" lon="15.0211478"><ele>506.0</ele><time>2026-04-19T11:40:34.953Z</time></trkpt><trkpt lat="41.196425" lon="15.0211984"><ele>506.0</ele><time>2026-04-19T11:40:36.027Z</time></trkpt><trkpt lat="41.1963376" lon="15.0212663"><ele>506.0</ele><time>2026-04-19T11:40:37.03Z</time></trkpt><trkpt lat="41.1962501" lon="15.0213472"><ele>505.75</ele><time>2026-04-19T11:40:38.026Z</time></trkpt><trkpt lat="41.1961569" lon="15.0214348"><ele>505.5</ele><time>2026-04-19T11:40:38.962Z</time></trkpt><trkpt lat="41.1960657" lon="15.0215592"><ele>505.25</ele><time>2026-04-19T11:40:39.956Z</time></trkpt><trkpt lat="41.1959703" lon="15.0216834"><ele>505.0</ele><time>2026-04-19T11:40:40.95Z</time></trkpt><trkpt lat="41.1958719" lon="15.0217998"><ele>505.75</ele><time>2026-04-19T11:40:42.033Z</time></trkpt><trkpt lat="41.1957764" lon="15.0219196"><ele>506.5</ele><time>2026-04-19T11:40:43.024Z</time></trkpt><trkpt lat="41.1956865" lon="15.022039"><ele>507.25</ele><time>2026-04-19T11:40:43.957Z</time></trkpt><trkpt lat="41.1956003" lon="15.0221609"><ele>508.0</ele><time>2026-04-19T11:40:44.955Z</time></trkpt><trkpt lat="41.1955281" lon="15.0222902"><ele>508.0</ele><time>2026-04-19T11:40:45.954Z</time></trkpt><trkpt lat="41.1954687" lon="15.0224268"><ele>508.0</ele><time>2026-04-19T11:40:46.954Z</time></trkpt><trkpt lat="41.195412" lon="15.0225751"><ele>508.0</ele><time>2026-04-19T11:40:47.959Z</time></trkpt><trkpt lat="41.1953596" lon="15.0227375"><ele>508.0</ele><time>2026-04-19T11:40:48.958Z</time></trkpt><trkpt lat="41.1953042" lon="15.0228889"><ele>507.0</ele><time>2026-04-19T11:40:49.957Z</time></trkpt><trkpt lat="41.195254" lon="15.0230229"><ele>506.0</ele><time>2026-04-19T11:40:50.956Z</time></trkpt><trkpt lat="41.195193" lon="15.0231384"><ele>505.0</ele><time>2026-04-19T11:40:52.059Z</time></trkpt><trkpt lat="41.1950335" lon="15.0233856"><ele>504.6</ele><time>2026-04-19T11:40:53.96Z</time></trkpt><trkpt lat="41.1949556" lon="15.0235017"><ele>504.2</ele><time>2026-04-19T11:40:54.962Z</time></trkpt><trkpt lat="41.1948851" lon="15.0236134"><ele>503.79999999999995</ele><time>2026-04-19T11:40:55.956Z</time></trkpt><trkpt lat="41.1948266" lon="15.0237197"><ele>503.4</ele><time>2026-04-19T11:40:56.953Z</time></trkpt><trkpt lat="41.1947895" lon="15.0238388"><ele>503.0</ele><time>2026-04-19T11:40:57.966Z</time></trkpt><trkpt lat="41.1947601" lon="15.0239824"><ele>506.66666666666663</ele><time>2026-04-19T11:40:58.958Z</time></trkpt><trkpt lat="41.1947231" lon="15.0241179"><ele>510.3333333333333</ele><time>2026-04-19T11:40:59.951Z</time></trkpt><trkpt lat="41.1946821" lon="15.0242203"><ele>514.0</ele><time>2026-04-19T11:41:01.025Z</time></trkpt><trkpt lat="41.1946508" lon="15.024315"><ele>517.6666666666666</ele><time>2026-04-19T11:41:02.026Z</time></trkpt><trkpt lat="41.1946215" lon="15.0244194"><ele>521.3333333333334</ele><time>2026-04-19T11:41:03.024Z</time></trkpt><trkpt lat="41.1945963" lon="15.0245328"><ele>525.0</ele><time>2026-04-19T11:41:04.022Z</time></trkpt><trkpt lat="41.1945859" lon="15.02467"><ele>525.5</ele><time>2026-04-19T11:41:04.973Z</time></trkpt><trkpt lat="41.194572" lon="15.0248368"><ele>526.0</ele><time>2026-04-19T11:41:05.963Z</time></trkpt><trkpt lat="41.1945684" lon="15.0250099"><ele>526.5</ele><time>2026-04-19T11:41:07.049Z</time></trkpt><trkpt lat="41.1945703" lon="15.025196"><ele>527.0</ele><time>2026-04-19T11:41:07.977Z</time></trkpt><trkpt lat="41.1945609" lon="15.0253794"><ele>528.0</ele><time>2026-04-19T11:41:08.957Z</time></trkpt><trkpt lat="41.1945383" lon="15.025556"><ele>529.0</ele><time>2026-04-19T11:41:09.966Z</time></trkpt><trkpt lat="41.1945083" lon="15.0257454"><ele>530.0</ele><time>2026-04-19T11:41:10.962Z</time></trkpt><trkpt lat="41.1944736" lon="15.0259128"><ele>531.0</ele><time>2026-04-19T11:41:12.025Z</time></trkpt><trkpt lat="41.1944494" lon="15.0260785"><ele>531.5</ele><time>2026-04-19T11:41:13.03Z</time></trkpt><trkpt lat="41.1944222" lon="15.0262412"><ele>532.0</ele><time>2026-04-19T11:41:13.95Z</time></trkpt><trkpt lat="41.1943937" lon="15.0264031"><ele>532.5</ele><time>2026-04-19T11:41:14.951Z</time></trkpt><trkpt lat="41.1943742" lon="15.026565"><ele>533.0</ele><time>2026-04-19T11:41:15.953Z</time></trkpt><trkpt lat="41.1943596" lon="15.0267424"><ele>534.75</ele><time>2026-04-19T11:41:17.028Z</time></trkpt><trkpt lat="41.1943434" lon="15.0269218"><ele>536.5</ele><time>2026-04-19T11:41:17.981Z</time></trkpt><trkpt lat="41.1943255" lon="15.0271031"><ele>538.25</ele><time>2026-04-19T11:41:19.032Z</time></trkpt><trkpt lat="41.1942906" lon="15.0272808"><ele>540.0</ele><time>2026-04-19T11:41:19.949Z</time></trkpt><trkpt lat="41.194244" lon="15.0274405"><ele>541.8</ele><time>2026-04-19T11:41:20.962Z</time></trkpt><trkpt lat="41.1942112" lon="15.0275834"><ele>543.6</ele><time>2026-04-19T11:41:21.985Z</time></trkpt><trkpt lat="41.1941962" lon="15.0277179"><ele>545.4</ele><time>2026-04-19T11:41:22.954Z</time></trkpt><trkpt lat="41.1941834" lon="15.0278523"><ele>547.2</ele><time>2026-04-19T11:41:24.025Z</time></trkpt><trkpt lat="41.1941763" lon="15.0279933"><ele>549.0</ele><time>2026-04-19T11:41:24.953Z</time></trkpt><trkpt lat="41.1941558" lon="15.0281256"><ele>549.0</ele><time>2026-04-19T11:41:25.961Z</time></trkpt><trkpt lat="41.1941308" lon="15.0282562"><ele>549.0</ele><time>2026-04-19T11:41:26.987Z</time></trkpt><trkpt lat="41.1941087" lon="15.0283646"><ele>549.0</ele><time>2026-04-19T11:41:27.955Z</time></trkpt><trkpt lat="41.1940816" lon="15.028469"><ele>549.0</ele><time>2026-04-19T11:41:29.957Z</time></trkpt><trkpt lat="41.1940765" lon="15.0286114"><ele>549.0</ele><time>2026-04-19T11:41:33.03Z</time></trkpt><trkpt lat="41.1940993" lon="15.0287372"><ele>550.5</ele><time>2026-04-19T11:41:33.961Z</time></trkpt><trkpt lat="41.1941423" lon="15.0288738"><ele>552.0</ele><time>2026-04-19T11:41:34.961Z</time></trkpt><trkpt lat="41.1941975" lon="15.0290267"><ele>553.5</ele><time>2026-04-19T11:41:35.96Z</time></trkpt><trkpt lat="41.1942497" lon="15.029182"><ele>555.0</ele><time>2026-04-19T11:41:36.957Z</time></trkpt><trkpt lat="41.1943084" lon="15.0293511"><ele>555.5</ele><time>2026-04-19T11:41:37.96Z</time></trkpt><trkpt lat="41.1943603" lon="15.0295156"><ele>556.0</ele><time>2026-04-19T11:41:38.959Z</time></trkpt><trkpt lat="41.1944146" lon="15.029676"><ele>556.5</ele><time>2026-04-19T11:41:39.958Z</time></trkpt><trkpt lat="41.194465" lon="15.0298335"><ele>557.0</ele><time>2026-04-19T11:41:40.957Z</time></trkpt><trkpt lat="41.1945165" lon="15.0299772"><ele>558.5</ele><time>2026-04-19T11:41:42.028Z</time></trkpt><trkpt lat="41.1945621" lon="15.0301177"><ele>560.0</ele><time>2026-04-19T11:41:42.969Z</time></trkpt><trkpt lat="41.1946096" lon="15.0302551"><ele>561.5</ele><time>2026-04-19T11:41:43.95Z</time></trkpt><trkpt lat="41.1946618" lon="15.030387"><ele>563.0</ele><time>2026-04-19T11:41:44.945Z</time></trkpt><trkpt lat="41.1947274" lon="15.0305117"><ele>563.0</ele><time>2026-04-19T11:41:45.944Z</time></trkpt><trkpt lat="41.1948101" lon="15.0306198"><ele>563.0</ele><time>2026-04-19T11:41:46.946Z</time></trkpt><trkpt lat="41.1949074" lon="15.0307088"><ele>563.0</ele><time>2026-04-19T11:41:48.021Z</time></trkpt><trkpt lat="41.1950154" lon="15.0307807"><ele>563.0</ele><time>2026-04-19T11:41:49.029Z</time></trkpt><trkpt lat="41.1951311" lon="15.0308301"><ele>559.5</ele><time>2026-04-19T11:41:49.945Z</time></trkpt><trkpt lat="41.1952564" lon="15.0308642"><ele>556.0</ele><time>2026-04-19T11:41:50.948Z</time></trkpt><trkpt lat="41.1953781" lon="15.0309075"><ele>552.5</ele><time>2026-04-19T11:41:51.986Z</time></trkpt><trkpt lat="41.1955" lon="15.0309531"><ele>549.0</ele><time>2026-04-19T11:41:53.034Z</time></trkpt><trkpt lat="41.195606" lon="15.0310128"><ele>546.6</ele><time>2026-04-19T11:41:53.945Z</time></trkpt><trkpt lat="41.1957027" lon="15.0310826"><ele>544.2</ele><time>2026-04-19T11:41:54.947Z</time></trkpt><trkpt lat="41.1957903" lon="15.0311611"><ele>541.8000000000001</ele><time>2026-04-19T11:41:55.946Z</time></trkpt><trkpt lat="41.1958589" lon="15.0312657"><ele>539.4</ele><time>2026-04-19T11:41:57.03Z</time></trkpt><trkpt lat="41.1959226" lon="15.0313981"><ele>537.0</ele><time>2026-04-19T11:41:57.986Z</time></trkpt><trkpt lat="41.1960001" lon="15.0315389"><ele>539.5</ele><time>2026-04-19T11:41:59.029Z</time></trkpt><trkpt lat="41.1960794" lon="15.0316835"><ele>542.0</ele><time>2026-04-19T11:41:59.954Z</time></trkpt><trkpt lat="41.1961576" lon="15.0318209"><ele>544.5</ele><time>2026-04-19T11:42:00.955Z</time></trkpt><trkpt lat="41.1962414" lon="15.0319604"><ele>547.0</ele><time>2026-04-19T11:42:02.025Z</time></trkpt><trkpt lat="41.1963212" lon="15.0321108"><ele>547.0</ele><time>2026-04-19T11:42:03.029Z</time></trkpt><trkpt lat="41.1963853" lon="15.0322678"><ele>547.0</ele><time>2026-04-19T11:42:04.026Z</time></trkpt><trkpt lat="41.1964462" lon="15.0324253"><ele>547.0</ele><time>2026-04-19T11:42:04.96Z</time></trkpt><trkpt lat="41.19651" lon="15.032595"><ele>547.0</ele><time>2026-04-19T11:42:05.957Z</time></trkpt><trkpt lat="41.1965691" lon="15.0327633"><ele>546.25</ele><time>2026-04-19T11:42:06.98Z</time></trkpt><trkpt lat="41.1966352" lon="15.0329259"><ele>545.5</ele><time>2026-04-19T11:42:07.955Z</time></trkpt><trkpt lat="41.1967106" lon="15.0330831"><ele>544.75</ele><time>2026-04-19T11:42:09.029Z</time></trkpt><trkpt lat="41.1967846" lon="15.033233"><ele>544.0</ele><time>2026-04-19T11:42:09.96Z</time></trkpt><trkpt lat="41.1968479" lon="15.0333744"><ele>544.0</ele><time>2026-04-19T11:42:10.956Z</time></trkpt><trkpt lat="41.1969105" lon="15.0335008"><ele>544.0</ele><time>2026-04-19T11:42:11.97Z</time></trkpt><trkpt lat="41.196959" lon="15.0336049"><ele>544.0</ele><time>2026-04-19T11:42:13.031Z</time></trkpt><trkpt lat="41.1969982" lon="15.0336949"><ele>544.0</ele><time>2026-04-19T11:42:14.026Z</time></trkpt><trkpt lat="41.1970374" lon="15.0337746"><ele>544.0</ele><time>2026-04-19T11:42:14.949Z</time></trkpt><trkpt lat="41.1970842" lon="15.0338977"><ele>544.0</ele><time>2026-04-19T11:42:16.948Z</time></trkpt><trkpt lat="41.1970748" lon="15.0339959"><ele>544.0</ele><time>2026-04-19T11:42:18.955Z</time></trkpt><trkpt lat="41.1969833" lon="15.0340349"><ele>544.0</ele><time>2026-04-19T11:42:20.958Z</time></trkpt><trkpt lat="41.1969188" lon="15.0340387"><ele>544.0</ele><time>2026-04-19T11:42:21.951Z</time></trkpt><trkpt lat="41.1968357" lon="15.0340267"><ele>544.0</ele><time>2026-04-19T11:42:23.06Z</time></trkpt><trkpt lat="41.1966381" lon="15.0339775"><ele>544.0</ele><time>2026-04-19T11:42:24.95Z</time></trkpt><trkpt lat="41.1965273" lon="15.0339548"><ele>544.0</ele><time>2026-04-19T11:42:25.947Z</time></trkpt><trkpt lat="41.1964131" lon="15.0339316"><ele>544.0</ele><time>2026-04-19T11:42:26.948Z</time></trkpt><trkpt lat="41.196296" lon="15.0339373"><ele>544.0</ele><time>2026-04-19T11:42:27.948Z</time></trkpt><trkpt lat="41.1961991" lon="15.0339498"><ele>544.0</ele><time>2026-04-19T11:42:29.033Z</time></trkpt><trkpt lat="41.1961117" lon="15.0339612"><ele>546.2857142857142</ele><time>2026-04-19T11:42:29.954Z</time></trkpt><trkpt lat="41.1960159" lon="15.0339463"><ele>548.5714285714286</ele><time>2026-04-19T11:42:32.051Z</time></trkpt><trkpt lat="41.1960704" lon="15.0340057"><ele>550.8571428571429</ele><time>2026-04-19T11:42:38.951Z</time></trkpt><trkpt lat="41.1960749" lon="15.0340904"><ele>553.1428571428571</ele><time>2026-04-19T11:42:39.952Z</time></trkpt><trkpt lat="41.1960325" lon="15.0341629"><ele>555.4285714285714</ele><time>2026-04-19T11:42:40.954Z</time></trkpt><trkpt lat="41.1959747" lon="15.0342353"><ele>557.7142857142857</ele><time>2026-04-19T11:42:41.949Z</time></trkpt><trkpt lat="41.1959206" lon="15.034291"><ele>560.0</ele><time>2026-04-19T11:42:42.953Z</time></trkpt><trkpt lat="41.1958716" lon="15.0343455"><ele>560.4285714285714</ele><time>2026-04-19T11:42:43.95Z</time></trkpt><trkpt lat="41.1958108" lon="15.0344062"><ele>560.8571428571429</ele><time>2026-04-19T11:42:45.953Z</time></trkpt><trkpt lat="41.1958184" lon="15.0344899"><ele>561.2857142857142</ele><time>2026-04-19T11:42:49.957Z</time></trkpt><trkpt lat="41.1958231" lon="15.0345916"><ele>561.7142857142858</ele><time>2026-04-19T11:42:54.945Z</time></trkpt><trkpt lat="41.1958691" lon="15.0346712"><ele>562.1428571428571</ele><time>2026-04-19T11:43:49.952Z</time></trkpt><trkpt lat="41.1958093" lon="15.0346435"><ele>562.5714285714286</ele><time>2026-04-19T11:47:21.956Z</time></trkpt><trkpt lat="41.1957983" lon="15.0345565"><ele>563.0</ele><time>2026-04-19T12:08:13.954Z</time></trkpt><trkpt lat="41.1957424" lon="15.0344468"><ele>563.0</ele><time>2026-04-19T12:08:15.954Z</time></trkpt><trkpt lat="41.1956817" lon="15.0343527"><ele>563.0</ele><time>2026-04-19T12:08:17.949Z</time></trkpt><trkpt lat="41.1956094" lon="15.034259"><ele>563.0</ele><time>2026-04-19T12:08:19.948Z</time></trkpt><trkpt lat="41.1955473" lon="15.0341676"><ele>563.0</ele><time>2026-04-19T12:08:21.949Z</time></trkpt><trkpt lat="41.1954903" lon="15.0340865"><ele>563.0</ele><time>2026-04-19T12:08:23.958Z</time></trkpt><trkpt lat="41.1954275" lon="15.0339722"><ele>564.0</ele><time>2026-04-19T12:08:25.95Z</time></trkpt><trkpt lat="41.195377" lon="15.0338856"><ele>565.0</ele><time>2026-04-19T12:08:27.947Z</time></trkpt><trkpt lat="41.1953574" lon="15.0338027"><ele>566.0</ele><time>2026-04-19T12:08:29.953Z</time></trkpt><trkpt lat="41.1953379" lon="15.0337125"><ele>567.0</ele><time>2026-04-19T12:09:16.952Z</time></trkpt><trkpt lat="41.1953895" lon="15.0336424"><ele>568.0</ele><time>2026-04-19T12:11:08.029Z</time></trkpt><trkpt lat="41.1954259" lon="15.0335617"><ele>569.0</ele><time>2026-04-19T12:11:10.951Z</time></trkpt><trkpt lat="41.1954766" lon="15.0334637"><ele>569.0</ele><time>2026-04-19T12:11:14.956Z</time></trkpt><trkpt lat="41.1955328" lon="15.0333805"><ele>569.0</ele><time>2026-04-19T12:11:17.952Z</time></trkpt><trkpt lat="41.1954856" lon="15.0332372"><ele>569.0</ele><time>2026-04-19T12:11:19.954Z</time></trkpt><trkpt lat="41.1954292" lon="15.0331447"><ele>569.0</ele><time>2026-04-19T12:11:20.953Z</time></trkpt><trkpt lat="41.1953755" lon="15.0330457"><ele>569.0</ele><time>2026-04-19T12:11:21.952Z</time></trkpt><trkpt lat="41.1953155" lon="15.0329464"><ele>568.8</ele><time>2026-04-19T12:11:22.957Z</time></trkpt><trkpt lat="41.1952543" lon="15.032837"><ele>568.5999999999999</ele><time>2026-04-19T12:11:23.955Z</time></trkpt><trkpt lat="41.1951949" lon="15.0327257"><ele>568.4</ele><time>2026-04-19T12:11:24.952Z</time></trkpt><trkpt lat="41.1951346" lon="15.0326168"><ele>568.1999999999999</ele><time>2026-04-19T12:11:25.953Z</time></trkpt><trkpt lat="41.1950723" lon="15.032513"><ele>568.0</ele><time>2026-04-19T12:11:26.95Z</time></trkpt><trkpt lat="41.1950122" lon="15.0324098"><ele>566.4</ele><time>2026-04-19T12:11:27.954Z</time></trkpt><trkpt lat="41.1949456" lon="15.0323126"><ele>564.8</ele><time>2026-04-19T12:11:28.959Z</time></trkpt><trkpt lat="41.194874" lon="15.0322173"><ele>563.2</ele><time>2026-04-19T12:11:29.949Z</time></trkpt><trkpt lat="41.1947999" lon="15.0321157"><ele>561.6</ele><time>2026-04-19T12:11:30.949Z</time></trkpt><trkpt lat="41.1947121" lon="15.0320291"><ele>560.0</ele><time>2026-04-19T12:11:31.96Z</time></trkpt><trkpt lat="41.194616" lon="15.031934"><ele>562.5</ele><time>2026-04-19T12:11:32.945Z</time></trkpt><trkpt lat="41.1945139" lon="15.0318363"><ele>565.0</ele><time>2026-04-19T12:11:33.951Z</time></trkpt><trkpt lat="41.1944146" lon="15.0317311"><ele>567.5</ele><time>2026-04-19T12:11:34.953Z</time></trkpt><trkpt lat="41.1943148" lon="15.0316377"><ele>570.0</ele><time>2026-04-19T12:11:35.952Z</time></trkpt><trkpt lat="41.1942109" lon="15.0315658"><ele>570.0</ele><time>2026-04-19T12:11:36.943Z</time></trkpt><trkpt lat="41.1941219" lon="15.0314724"><ele>570.0</ele><time>2026-04-19T12:11:37.988Z</time></trkpt><trkpt lat="41.1940462" lon="15.0313613"><ele>570.0</ele><time>2026-04-19T12:11:38.947Z</time></trkpt><trkpt lat="41.1939829" lon="15.0312234"><ele>570.0</ele><time>2026-04-19T12:11:39.95Z</time></trkpt><trkpt lat="41.1939307" lon="15.0310821"><ele>574.4</ele><time>2026-04-19T12:11:40.953Z</time></trkpt><trkpt lat="41.193899" lon="15.0309385"><ele>578.8</ele><time>2026-04-19T12:11:41.95Z</time></trkpt><trkpt lat="41.1938724" lon="15.0307932"><ele>583.2</ele><time>2026-04-19T12:11:42.957Z</time></trkpt><trkpt lat="41.1938485" lon="15.0306692"><ele>587.6</ele><time>2026-04-19T12:11:43.955Z</time></trkpt><trkpt lat="41.1938215" lon="15.0305577"><ele>592.0</ele><time>2026-04-19T12:11:44.957Z</time></trkpt><trkpt lat="41.1937797" lon="15.0304468"><ele>592.0</ele><time>2026-04-19T12:11:45.954Z</time></trkpt><trkpt lat="41.1937277" lon="15.030342"><ele>592.0</ele><time>2026-04-19T12:11:46.952Z</time></trkpt><trkpt lat="41.1936779" lon="15.0302317"><ele>592.0</ele><time>2026-04-19T12:11:47.949Z</time></trkpt><trkpt lat="41.1936339" lon="15.0301017"><ele>592.0</ele><time>2026-04-19T12:11:48.953Z</time></trkpt><trkpt lat="41.193598" lon="15.029958"><ele>592.0</ele><time>2026-04-19T12:11:49.953Z</time></trkpt><trkpt lat="41.1935634" lon="15.0297893"><ele>590.5</ele><time>2026-04-19T12:11:50.975Z</time></trkpt><trkpt lat="41.1935264" lon="15.0296079"><ele>589.0</ele><time>2026-04-19T12:11:51.95Z</time></trkpt><trkpt lat="41.1935022" lon="15.0294247"><ele>587.5</ele><time>2026-04-19T12:11:52.949Z</time></trkpt><trkpt lat="41.1934756" lon="15.0292272"><ele>586.0</ele><time>2026-04-19T12:11:53.949Z</time></trkpt><trkpt lat="41.1934521" lon="15.0290382"><ele>584.5</ele><time>2026-04-19T12:11:54.955Z</time></trkpt><trkpt lat="41.1934323" lon="15.0288506"><ele>583.0</ele><time>2026-04-19T12:11:55.951Z</time></trkpt><trkpt lat="41.1934133" lon="15.0286642"><ele>581.5</ele><time>2026-04-19T12:11:56.954Z</time></trkpt><trkpt lat="41.1933938" lon="15.028477"><ele>580.0</ele><time>2026-04-19T12:11:57.952Z</time></trkpt><trkpt lat="41.1933749" lon="15.0282939"><ele>577.25</ele><time>2026-04-19T12:11:58.952Z</time></trkpt><trkpt lat="41.1933522" lon="15.0281233"><ele>574.5</ele><time>2026-04-19T12:11:59.952Z</time></trkpt><trkpt lat="41.1933216" lon="15.0279655"><ele>571.75</ele><time>2026-04-19T12:12:00.961Z</time></trkpt><trkpt lat="41.1932917" lon="15.0278053"><ele>569.0</ele><time>2026-04-19T12:12:01.953Z</time></trkpt><trkpt lat="41.1932594" lon="15.0276528"><ele>569.0</ele><time>2026-04-19T12:12:02.954Z</time></trkpt><trkpt lat="41.19323" lon="15.027499"><ele>569.0</ele><time>2026-04-19T12:12:03.946Z</time></trkpt><trkpt lat="41.1932017" lon="15.0273611"><ele>569.0</ele><time>2026-04-19T12:12:04.945Z</time></trkpt><trkpt lat="41.1931765" lon="15.0272364"><ele>569.0</ele><time>2026-04-19T12:12:05.943Z</time></trkpt><trkpt lat="41.1931401" lon="15.0271202"><ele>569.0</ele><time>2026-04-19T12:12:06.954Z</time></trkpt><trkpt lat="41.1930983" lon="15.027006"><ele>569.5</ele><time>2026-04-19T12:12:07.95Z</time></trkpt><trkpt lat="41.1930333" lon="15.0268855"><ele>570.0</ele><time>2026-04-19T12:12:08.946Z</time></trkpt><trkpt lat="41.1929838" lon="15.0267484"><ele>570.5</ele><time>2026-04-19T12:12:09.945Z</time></trkpt><trkpt lat="41.1929287" lon="15.0265966"><ele>571.0</ele><time>2026-04-19T12:12:10.946Z</time></trkpt><trkpt lat="41.1928662" lon="15.02645"><ele>568.25</ele><time>2026-04-19T12:12:11.953Z</time></trkpt><trkpt lat="41.1927955" lon="15.0263199"><ele>565.5</ele><time>2026-04-19T12:12:12.948Z</time></trkpt><trkpt lat="41.1927119" lon="15.0261963"><ele>562.75</ele><time>2026-04-19T12:12:13.95Z</time></trkpt><trkpt lat="41.1926199" lon="15.0260797"><ele>560.0</ele><time>2026-04-19T12:12:14.947Z</time></trkpt><trkpt lat="41.1925312" lon="15.0259767"><ele>560.0</ele><time>2026-04-19T12:12:15.954Z</time></trkpt><trkpt lat="41.1924575" lon="15.0258914"><ele>560.0</ele><time>2026-04-19T12:12:16.956Z</time></trkpt><trkpt lat="41.1923914" lon="15.0258101"><ele>560.0</ele><time>2026-04-19T12:12:17.942Z</time></trkpt><trkpt lat="41.1923555" lon="15.0257233"><ele>560.0</ele><time>2026-04-19T12:12:18.956Z</time></trkpt><trkpt lat="41.1923785" lon="15.0256224"><ele>560.0</ele><time>2026-04-19T12:12:19.949Z</time></trkpt><trkpt lat="41.1924152" lon="15.0255046"><ele>560.0</ele><time>2026-04-19T12:12:20.946Z</time></trkpt><trkpt lat="41.1924528" lon="15.0253794"><ele>558.6666666666666</ele><time>2026-04-19T12:12:21.95Z</time></trkpt><trkpt lat="41.1924852" lon="15.0252588"><ele>557.3333333333333</ele><time>2026-04-19T12:12:22.956Z</time></trkpt><trkpt lat="41.1925087" lon="15.0251515"><ele>556.0</ele><time>2026-04-19T12:12:23.96Z</time></trkpt><trkpt lat="41.1925049" lon="15.025024"><ele>554.6666666666666</ele><time>2026-04-19T12:12:25.956Z</time></trkpt><trkpt lat="41.1924366" lon="15.0250167"><ele>553.3333333333334</ele><time>2026-04-19T12:12:27.957Z</time></trkpt><trkpt lat="41.1923683" lon="15.0250452"><ele>552.0</ele><time>2026-04-19T12:12:28.962Z</time></trkpt><trkpt lat="41.1922675" lon="15.0250736"><ele>548.75</ele><time>2026-04-19T12:12:29.949Z</time></trkpt><trkpt lat="41.1921384" lon="15.0250768"><ele>545.5</ele><time>2026-04-19T12:12:30.943Z</time></trkpt><trkpt lat="41.192005" lon="15.0250765"><ele>542.25</ele><time>2026-04-19T12:12:31.946Z</time></trkpt><trkpt lat="41.1918794" lon="15.0250827"><ele>539.0</ele><time>2026-04-19T12:12:32.952Z</time></trkpt><trkpt lat="41.1917578" lon="15.0250768"><ele>539.0</ele><time>2026-04-19T12:12:33.959Z</time></trkpt><trkpt lat="41.1916247" lon="15.0250675"><ele>539.0</ele><time>2026-04-19T12:12:34.954Z</time></trkpt><trkpt lat="41.1914968" lon="15.0250586"><ele>539.0</ele><time>2026-04-19T12:12:35.942Z</time></trkpt><trkpt lat="41.1913687" lon="15.0250547"><ele>539.0</ele><time>2026-04-19T12:12:36.952Z</time></trkpt><trkpt lat="41.1912468" lon="15.025054"><ele>533.8</ele><time>2026-04-19T12:12:37.955Z</time></trkpt><trkpt lat="41.1911246" lon="15.0250542"><ele>528.5999999999999</ele><time>2026-04-19T12:12:38.949Z</time></trkpt><trkpt lat="41.1910148" lon="15.0250631"><ele>523.4</ele><time>2026-04-19T12:12:39.96Z</time></trkpt><trkpt lat="41.1909172" lon="15.0250736"><ele>518.1999999999999</ele><time>2026-04-19T12:12:40.953Z</time></trkpt><trkpt lat="41.1908312" lon="15.025072"><ele>513.0</ele><time>2026-04-19T12:12:41.949Z</time></trkpt><trkpt lat="41.1907516" lon="15.02505"><ele>508.6666666666667</ele><time>2026-04-19T12:12:42.953Z</time></trkpt><trkpt lat="41.1906721" lon="15.0250123"><ele>504.33333333333337</ele><time>2026-04-19T12:12:43.952Z</time></trkpt><trkpt lat="41.1905998" lon="15.0249776"><ele>500.0</ele><time>2026-04-19T12:12:44.951Z</time></trkpt><trkpt lat="41.1905369" lon="15.024957"><ele>495.6666666666667</ele><time>2026-04-19T12:12:45.954Z</time></trkpt><trkpt lat="41.1904758" lon="15.0249783"><ele>491.33333333333337</ele><time>2026-04-19T12:12:46.948Z</time></trkpt><trkpt lat="41.1904189" lon="15.025039"><ele>487.0</ele><time>2026-04-19T12:12:47.952Z</time></trkpt><trkpt lat="41.1903536" lon="15.0251239"><ele>487.0</ele><time>2026-04-19T12:12:48.949Z</time></trkpt><trkpt lat="41.1903031" lon="15.0252039"><ele>487.00000000000006</ele><time>2026-04-19T12:12:49.948Z</time></trkpt><trkpt lat="41.190279" lon="15.0252814"><ele>487.00000000000006</ele><time>2026-04-19T12:12:50.951Z</time></trkpt><trkpt lat="41.1902879" lon="15.025451"><ele>487.0</ele><time>2026-04-19T12:12:52.952Z</time></trkpt><trkpt lat="41.1903356" lon="15.0255565"><ele>487.0</ele><time>2026-04-19T12:12:53.954Z</time></trkpt><trkpt lat="41.190398" lon="15.0256614"><ele>487.0</ele><time>2026-04-19T12:12:54.951Z</time></trkpt><trkpt lat="41.1904688" lon="15.0257831"><ele>487.0</ele><time>2026-04-19T12:12:55.954Z</time></trkpt><trkpt lat="41.1905344" lon="15.0259219"><ele>487.0</ele><time>2026-04-19T12:12:56.964Z</time></trkpt><trkpt lat="41.1905984" lon="15.0260797"><ele>487.0</ele><time>2026-04-19T12:12:57.958Z</time></trkpt><trkpt lat="41.1906435" lon="15.0262534"><ele>486.25</ele><time>2026-04-19T12:12:58.954Z</time></trkpt><trkpt lat="41.1906695" lon="15.0264313"><ele>485.5</ele><time>2026-04-19T12:12:59.952Z</time></trkpt><trkpt lat="41.1906903" lon="15.0266255"><ele>484.75</ele><time>2026-04-19T12:13:00.954Z</time></trkpt><trkpt lat="41.1907048" lon="15.026828"><ele>484.0</ele><time>2026-04-19T12:13:01.956Z</time></trkpt><trkpt lat="41.1907098" lon="15.0270185"><ele>494.5</ele><time>2026-04-19T12:13:02.954Z</time></trkpt><trkpt lat="41.1907049" lon="15.0272067"><ele>505.0</ele><time>2026-04-19T12:13:03.956Z</time></trkpt><trkpt lat="41.1906971" lon="15.0273758"><ele>515.5</ele><time>2026-04-19T12:13:04.96Z</time></trkpt><trkpt lat="41.1906904" lon="15.0275242"><ele>526.0</ele><time>2026-04-19T12:13:05.953Z</time></trkpt><trkpt lat="41.1907045" lon="15.0276477"><ele>527.2</ele><time>2026-04-19T12:13:06.952Z</time></trkpt><trkpt lat="41.1907439" lon="15.0277637"><ele>528.4000000000001</ele><time>2026-04-19T12:13:07.95Z</time></trkpt><trkpt lat="41.1907945" lon="15.0278851"><ele>529.6</ele><time>2026-04-19T12:13:08.958Z</time></trkpt><trkpt lat="41.1908561" lon="15.0280134"><ele>530.8000000000001</ele><time>2026-04-19T12:13:09.958Z</time></trkpt><trkpt lat="41.1909168" lon="15.0281382"><ele>532.0</ele><time>2026-04-19T12:13:10.949Z</time></trkpt><trkpt lat="41.1909651" lon="15.0282573"><ele>530.3333333333334</ele><time>2026-04-19T12:13:11.95Z</time></trkpt><trkpt lat="41.1910106" lon="15.0283645"><ele>528.6666666666667</ele><time>2026-04-19T12:13:12.957Z</time></trkpt><trkpt lat="41.1910598" lon="15.0284376"><ele>527.0</ele><time>2026-04-19T12:13:13.953Z</time></trkpt><trkpt lat="41.1910808" lon="15.0285172"><ele>525.3333333333334</ele><time>2026-04-19T12:13:15.949Z</time></trkpt><trkpt lat="41.1909951" lon="15.0285263"><ele>523.6666666666666</ele><time>2026-04-19T12:13:17.95Z</time></trkpt><trkpt lat="41.1909275" lon="15.0285046"><ele>522.0</ele><time>2026-04-19T12:13:18.957Z</time></trkpt><trkpt lat="41.1908585" lon="15.0284438"><ele>522.0</ele><time>2026-04-19T12:13:19.949Z</time></trkpt><trkpt lat="41.1907934" lon="15.0283641"><ele>522.0</ele><time>2026-04-19T12:13:20.953Z</time></trkpt><trkpt lat="41.1907277" lon="15.0282575"><ele>522.0</ele><time>2026-04-19T12:13:22.033Z</time></trkpt><trkpt lat="41.1906613" lon="15.0281403"><ele>522.0</ele><time>2026-04-19T12:13:22.956Z</time></trkpt><trkpt lat="41.1905919" lon="15.0280269"><ele>522.0</ele><time>2026-04-19T12:13:23.947Z</time></trkpt><trkpt lat="41.1905121" lon="15.027928"><ele>514.75</ele><time>2026-04-19T12:13:24.95Z</time></trkpt><trkpt lat="41.1904249" lon="15.0278346"><ele>507.5</ele><time>2026-04-19T12:13:25.95Z</time></trkpt><trkpt lat="41.1903343" lon="15.0277386"><ele>500.25</ele><time>2026-04-19T12:13:26.958Z</time></trkpt><trkpt lat="41.1902285" lon="15.0276621"><ele>493.0</ele><time>2026-04-19T12:13:27.974Z</time></trkpt><trkpt lat="41.1901232" lon="15.0275922"><ele>493.0</ele><time>2026-04-19T12:13:29.028Z</time></trkpt><trkpt lat="41.1900091" lon="15.0275132"><ele>493.0</ele><time>2026-04-19T12:13:29.952Z</time></trkpt><trkpt lat="41.1898995" lon="15.0274438"><ele>493.0</ele><time>2026-04-19T12:13:30.946Z</time></trkpt><trkpt lat="41.1897891" lon="15.0273796"><ele>493.0</ele><time>2026-04-19T12:13:31.991Z</time></trkpt><trkpt lat="41.1896698" lon="15.027323"><ele>488.25</ele><time>2026-04-19T12:13:32.95Z</time></trkpt><trkpt lat="41.189553" lon="15.0272575"><ele>483.5</ele><time>2026-04-19T12:13:33.946Z</time></trkpt><trkpt lat="41.1894296" lon="15.0271919"><ele>478.75</ele><time>2026-04-19T12:13:34.948Z</time></trkpt><trkpt lat="41.1893082" lon="15.0271334"><ele>474.0</ele><time>2026-04-19T12:13:35.945Z</time></trkpt><trkpt lat="41.1891881" lon="15.0270882"><ele>474.0</ele><time>2026-04-19T12:13:37.032Z</time></trkpt><trkpt lat="41.1890713" lon="15.0270367"><ele>474.0</ele><time>2026-04-19T12:13:38.031Z</time></trkpt><trkpt lat="41.1889671" lon="15.0269842"><ele>474.0</ele><time>2026-04-19T12:13:39.031Z</time></trkpt><trkpt lat="41.1888641" lon="15.0269209"><ele>474.0</ele><time>2026-04-19T12:13:39.96Z</time></trkpt><trkpt lat="41.1887591" lon="15.026863"><ele>473.2</ele><time>2026-04-19T12:13:40.961Z</time></trkpt><trkpt lat="41.1886609" lon="15.0268131"><ele>472.4</ele><time>2026-04-19T12:13:41.96Z</time></trkpt><trkpt lat="41.1885595" lon="15.0267736"><ele>471.6</ele><time>2026-04-19T12:13:42.956Z</time></trkpt><trkpt lat="41.1884574" lon="15.0267385"><ele>470.8</ele><time>2026-04-19T12:13:43.961Z</time></trkpt><trkpt lat="41.1883666" lon="15.0266992"><ele>470.0</ele><time>2026-04-19T12:13:44.952Z</time></trkpt><trkpt lat="41.1882783" lon="15.0266499"><ele>467.0</ele><time>2026-04-19T12:13:45.958Z</time></trkpt><trkpt lat="41.1881945" lon="15.0265908"><ele>464.0</ele><time>2026-04-19T12:13:47.027Z</time></trkpt><trkpt lat="41.1881173" lon="15.0265238"><ele>461.0</ele><time>2026-04-19T12:13:48.028Z</time></trkpt><trkpt lat="41.1880443" lon="15.0264521"><ele>458.0</ele><time>2026-04-19T12:13:48.955Z</time></trkpt><trkpt lat="41.1879725" lon="15.0263716"><ele>455.0</ele><time>2026-04-19T12:13:49.953Z</time></trkpt><trkpt lat="41.1879016" lon="15.0262839"><ele>452.8</ele><time>2026-04-19T12:13:50.956Z</time></trkpt><trkpt lat="41.1878237" lon="15.0262031"><ele>450.6</ele><time>2026-04-19T12:13:51.949Z</time></trkpt><trkpt lat="41.1877357" lon="15.0261307"><ele>448.4</ele><time>2026-04-19T12:13:52.951Z</time></trkpt><trkpt lat="41.1876405" lon="15.0260656"><ele>446.2</ele><time>2026-04-19T12:13:54.033Z</time></trkpt><trkpt lat="41.1875434" lon="15.0260159"><ele>444.0</ele><time>2026-04-19T12:13:54.944Z</time></trkpt><trkpt lat="41.1874477" lon="15.0259685"><ele>444.0</ele><time>2026-04-19T12:13:55.95Z</time></trkpt><trkpt lat="41.1873509" lon="15.0259248"><ele>444.0</ele><time>2026-04-19T12:13:56.951Z</time></trkpt><trkpt lat="41.1872559" lon="15.0258922"><ele>444.0</ele><time>2026-04-19T12:13:57.95Z</time></trkpt><trkpt lat="41.1871704" lon="15.0258633"><ele>444.0</ele><time>2026-04-19T12:13:58.948Z</time></trkpt><trkpt lat="41.1870973" lon="15.0258352"><ele>444.0</ele><time>2026-04-19T12:13:59.947Z</time></trkpt><trkpt lat="41.1870331" lon="15.0258113"><ele>444.0</ele><time>2026-04-19T12:14:00.953Z</time></trkpt><trkpt lat="41.186971" lon="15.0257829"><ele>438.5</ele><time>2026-04-19T12:14:01.968Z</time></trkpt><trkpt lat="41.1869074" lon="15.0257489"><ele>433.0</ele><time>2026-04-19T12:14:02.947Z</time></trkpt><trkpt lat="41.1868401" lon="15.0257033"><ele>427.5</ele><time>2026-04-19T12:14:04.032Z</time></trkpt><trkpt lat="41.1867691" lon="15.0256505"><ele>422.0</ele><time>2026-04-19T12:14:04.957Z</time></trkpt><trkpt lat="41.1866984" lon="15.0255984"><ele>416.5</ele><time>2026-04-19T12:14:05.953Z</time></trkpt><trkpt lat="41.186617" lon="15.0255389"><ele>411.0</ele><time>2026-04-19T12:14:06.956Z</time></trkpt><trkpt lat="41.1865312" lon="15.0254708"><ele>407.4</ele><time>2026-04-19T12:14:07.952Z</time></trkpt><trkpt lat="41.1864437" lon="15.0254062"><ele>403.8</ele><time>2026-04-19T12:14:08.953Z</time></trkpt><trkpt lat="41.1863632" lon="15.0253524"><ele>400.2</ele><time>2026-04-19T12:14:09.958Z</time></trkpt><trkpt lat="41.1862819" lon="15.0253097"><ele>396.59999999999997</ele><time>2026-04-19T12:14:11.029Z</time></trkpt><trkpt lat="41.1861979" lon="15.0252644"><ele>393.0</ele><time>2026-04-19T12:14:12.027Z</time></trkpt><trkpt lat="41.1861154" lon="15.0252183"><ele>393.0</ele><time>2026-04-19T12:14:13.029Z</time></trkpt><trkpt lat="41.1860323" lon="15.0251818"><ele>393.0</ele><time>2026-04-19T12:14:13.948Z</time></trkpt><trkpt lat="41.1859431" lon="15.0251441"><ele>393.0</ele><time>2026-04-19T12:14:14.961Z</time></trkpt><trkpt lat="41.1858555" lon="15.0251094"><ele>393.0</ele><time>2026-04-19T12:14:15.951Z</time></trkpt><trkpt lat="41.1857735" lon="15.0250789"><ele>393.0</ele><time>2026-04-19T12:14:16.956Z</time></trkpt><trkpt lat="41.1856869" lon="15.0250518"><ele>393.0</ele><time>2026-04-19T12:14:17.947Z</time></trkpt><trkpt lat="41.1856104" lon="15.025028"><ele>388.3333333333333</ele><time>2026-04-19T12:14:18.949Z</time></trkpt><trkpt lat="41.1855413" lon="15.0249988"><ele>383.6666666666667</ele><time>2026-04-19T12:14:19.951Z</time></trkpt><trkpt lat="41.1854736" lon="15.0249599"><ele>379.0</ele><time>2026-04-19T12:14:20.949Z</time></trkpt><trkpt lat="41.185395" lon="15.0249039"><ele>374.33333333333337</ele><time>2026-04-19T12:14:21.945Z</time></trkpt><trkpt lat="41.1853014" lon="15.0248515"><ele>369.6666666666667</ele><time>2026-04-19T12:14:22.952Z</time></trkpt><trkpt lat="41.1852127" lon="15.0248208"><ele>365.0</ele><time>2026-04-19T12:14:23.947Z</time></trkpt><trkpt lat="41.1851251" lon="15.0248144"><ele>365.0</ele><time>2026-04-19T12:14:24.949Z</time></trkpt><trkpt lat="41.1850335" lon="15.0248349"><ele>365.0</ele><time>2026-04-19T12:14:25.95Z</time></trkpt><trkpt lat="41.1849505" lon="15.0248663"><ele>365.0</ele><time>2026-04-19T12:14:26.951Z</time></trkpt><trkpt lat="41.1848754" lon="15.0248892"><ele>365.0</ele><time>2026-04-19T12:14:27.945Z</time></trkpt><trkpt lat="41.1847829" lon="15.0249"><ele>365.0</ele><time>2026-04-19T12:14:28.95Z</time></trkpt><trkpt lat="41.184686" lon="15.0249165"><ele>365.0</ele><time>2026-04-19T12:14:29.949Z</time></trkpt><trkpt lat="41.1845953" lon="15.0249378"><ele>360.83333333333337</ele><time>2026-04-19T12:14:30.956Z</time></trkpt><trkpt lat="41.1845143" lon="15.0249576"><ele>356.6666666666667</ele><time>2026-04-19T12:14:31.95Z</time></trkpt><trkpt lat="41.1844335" lon="15.024968"><ele>352.5</ele><time>2026-04-19T12:14:32.952Z</time></trkpt><trkpt lat="41.1843521" lon="15.0249654"><ele>348.3333333333333</ele><time>2026-04-19T12:14:33.945Z</time></trkpt><trkpt lat="41.1842804" lon="15.0249664"><ele>344.16666666666663</ele><time>2026-04-19T12:14:34.948Z</time></trkpt><trkpt lat="41.1842095" lon="15.02496"><ele>340.0</ele><time>2026-04-19T12:14:35.944Z</time></trkpt><trkpt lat="41.184145" lon="15.0249431"><ele>340.0</ele><time>2026-04-19T12:14:36.951Z</time></trkpt><trkpt lat="41.1840805" lon="15.0249033"><ele>340.0</ele><time>2026-04-19T12:14:37.947Z</time></trkpt><trkpt lat="41.184" lon="15.0248521"><ele>340.0</ele><time>2026-04-19T12:14:38.954Z</time></trkpt><trkpt lat="41.1839091" lon="15.02482"><ele>340.0</ele><time>2026-04-19T12:14:39.947Z</time></trkpt><trkpt lat="41.1838106" lon="15.0247957"><ele>340.0</ele><time>2026-04-19T12:14:40.949Z</time></trkpt><trkpt lat="41.183718" lon="15.0247726"><ele>340.0</ele><time>2026-04-19T12:14:41.941Z</time></trkpt><trkpt lat="41.183641" lon="15.0247489"><ele>338.0</ele><time>2026-04-19T12:14:42.948Z</time></trkpt><trkpt lat="41.1835736" lon="15.024723"><ele>336.0</ele><time>2026-04-19T12:14:43.949Z</time></trkpt><trkpt lat="41.1835032" lon="15.0246884"><ele>334.0</ele><time>2026-04-19T12:14:44.946Z</time></trkpt><trkpt lat="41.1834399" lon="15.0246253"><ele>332.0</ele><time>2026-04-19T12:14:45.95Z</time></trkpt><trkpt lat="41.183384" lon="15.0245662"><ele>330.0</ele><time>2026-04-19T12:14:46.947Z</time></trkpt><trkpt lat="41.1833287" lon="15.0245111"><ele>328.0</ele><time>2026-04-19T12:14:47.953Z</time></trkpt><trkpt lat="41.1832409" lon="15.0244504"><ele>329.59999999999997</ele><time>2026-04-19T12:14:49.949Z</time></trkpt><trkpt lat="41.1831411" lon="15.0244557"><ele>331.2</ele><time>2026-04-19T12:14:51.948Z</time></trkpt><trkpt lat="41.1830416" lon="15.024393"><ele>332.8</ele><time>2026-04-19T12:14:53.945Z</time></trkpt><trkpt lat="41.1830183" lon="15.0243057"><ele>334.4</ele><time>2026-04-19T12:14:54.946Z</time></trkpt><trkpt lat="41.1829872" lon="15.0241697"><ele>336.0</ele><time>2026-04-19T12:14:56.947Z</time></trkpt><trkpt lat="41.1829349" lon="15.0240841"><ele>336.0</ele><time>2026-04-19T12:14:58.947Z</time></trkpt><trkpt lat="41.1827944" lon="15.0241336"><ele>336.0</ele><time>2026-04-19T12:15:00.946Z</time></trkpt><trkpt lat="41.1826862" lon="15.024201"><ele>336.0</ele><time>2026-04-19T12:15:01.946Z</time></trkpt><trkpt lat="41.1825777" lon="15.024278"><ele>336.0</ele><time>2026-04-19T12:15:02.948Z</time></trkpt><trkpt lat="41.1824679" lon="15.0243206"><ele>338.25</ele><time>2026-04-19T12:15:03.949Z</time></trkpt><trkpt lat="41.1823373" lon="15.024339"><ele>340.5</ele><time>2026-04-19T12:15:04.946Z</time></trkpt><trkpt lat="41.1822124" lon="15.0243272"><ele>342.75</ele><time>2026-04-19T12:15:05.952Z</time></trkpt><trkpt lat="41.1820991" lon="15.0243061"><ele>345.0</ele><time>2026-04-19T12:15:06.953Z</time></trkpt><trkpt lat="41.1819941" lon="15.0242557"><ele>345.0</ele><time>2026-04-19T12:15:07.945Z</time></trkpt><trkpt lat="41.1819027" lon="15.0242093"><ele>345.0</ele><time>2026-04-19T12:15:08.946Z</time></trkpt><trkpt lat="41.1818072" lon="15.0241667"><ele>345.0</ele><time>2026-04-19T12:15:09.954Z</time></trkpt><trkpt lat="41.181723" lon="15.0241282"><ele>345.0</ele><time>2026-04-19T12:15:10.944Z</time></trkpt><trkpt lat="41.1816495" lon="15.0241077"><ele>345.0</ele><time>2026-04-19T12:15:11.949Z</time></trkpt><trkpt lat="41.1815843" lon="15.0241273"><ele>345.0</ele><time>2026-04-19T12:15:12.942Z</time></trkpt><trkpt lat="41.1815116" lon="15.0241871"><ele>346.5</ele><time>2026-04-19T12:15:13.944Z</time></trkpt><trkpt lat="41.1814259" lon="15.0242577"><ele>348.0</ele><time>2026-04-19T12:15:14.946Z</time></trkpt><trkpt lat="41.1813318" lon="15.0242851"><ele>349.5</ele><time>2026-04-19T12:15:15.944Z</time></trkpt><trkpt lat="41.1812382" lon="15.0242664"><ele>351.0</ele><time>2026-04-19T12:15:16.952Z</time></trkpt><trkpt lat="41.1811675" lon="15.0242208"><ele>352.5</ele><time>2026-04-19T12:15:17.949Z</time></trkpt><trkpt lat="41.181125" lon="15.024149"><ele>354.0</ele><time>2026-04-19T12:15:18.947Z</time></trkpt><trkpt lat="41.1811001" lon="15.0240414"><ele>356.6</ele><time>2026-04-19T12:15:19.944Z</time></trkpt><trkpt lat="41.1810758" lon="15.0239157"><ele>359.2</ele><time>2026-04-19T12:15:20.945Z</time></trkpt><trkpt lat="41.1810405" lon="15.0237834"><ele>361.8</ele><time>2026-04-19T12:15:21.948Z</time></trkpt><trkpt lat="41.1809913" lon="15.0236479"><ele>364.40000000000003</ele><time>2026-04-19T12:15:22.948Z</time></trkpt><trkpt lat="41.1809363" lon="15.0234999"><ele>367.0</ele><time>2026-04-19T12:15:23.948Z</time></trkpt><trkpt lat="41.1809074" lon="15.0233575"><ele>369.40000000000003</ele><time>2026-04-19T12:15:24.951Z</time></trkpt><trkpt lat="41.1809196" lon="15.0232576"><ele>371.8</ele><time>2026-04-19T12:15:25.951Z</time></trkpt><trkpt lat="41.180975" lon="15.0232083"><ele>374.2</ele><time>2026-04-19T12:15:26.948Z</time></trkpt><trkpt lat="41.1810656" lon="15.023192"><ele>376.6</ele><time>2026-04-19T12:15:27.943Z</time></trkpt><trkpt lat="41.1811889" lon="15.0232001"><ele>379.0</ele><time>2026-04-19T12:15:28.948Z</time></trkpt><trkpt lat="41.1813218" lon="15.0231935"><ele>379.0</ele><time>2026-04-19T12:15:29.95Z</time></trkpt><trkpt lat="41.1814601" lon="15.0232053"><ele>379.0</ele><time>2026-04-19T12:15:30.952Z</time></trkpt><trkpt lat="41.1815901" lon="15.0232468"><ele>379.0</ele><time>2026-04-19T12:15:31.948Z</time></trkpt><trkpt lat="41.1816856" lon="15.0232885"><ele>379.0</ele><time>2026-04-19T12:15:32.952Z</time></trkpt><trkpt lat="41.1817614" lon="15.0232755"><ele>379.0</ele><time>2026-04-19T12:15:34.947Z</time></trkpt><trkpt lat="41.1817531" lon="15.0231806"><ele>379.0</ele><time>2026-04-19T12:15:36.943Z</time></trkpt><trkpt lat="41.1817226" lon="15.0230993"><ele>379.0</ele><time>2026-04-19T12:15:37.948Z</time></trkpt><trkpt lat="41.1816835" lon="15.0230147"><ele>379.0</ele><time>2026-04-19T12:15:38.952Z</time></trkpt><trkpt lat="41.1816401" lon="15.0229163"><ele>379.0</ele><time>2026-04-19T12:15:39.953Z</time></trkpt><trkpt lat="41.1816001" lon="15.0228055"><ele>379.0</ele><time>2026-04-19T12:15:40.945Z</time></trkpt><trkpt lat="41.1815574" lon="15.0226743"><ele>379.0</ele><time>2026-04-19T12:15:41.954Z</time></trkpt><trkpt lat="41.1815019" lon="15.0225349"><ele>383.25</ele><time>2026-04-19T12:15:42.954Z</time></trkpt><trkpt lat="41.1814348" lon="15.0224007"><ele>387.5</ele><time>2026-04-19T12:15:43.947Z</time></trkpt><trkpt lat="41.1813534" lon="15.0222824"><ele>391.75</ele><time>2026-04-19T12:15:44.953Z</time></trkpt><trkpt lat="41.1812538" lon="15.0221715"><ele>396.0</ele><time>2026-04-19T12:15:45.951Z</time></trkpt><trkpt lat="41.1811613" lon="15.0220743"><ele>396.0</ele><time>2026-04-19T12:15:46.95Z</time></trkpt><trkpt lat="41.1810967" lon="15.0219874"><ele>396.0</ele><time>2026-04-19T12:15:47.951Z</time></trkpt><trkpt lat="41.1810559" lon="15.0218938"><ele>396.0</ele><time>2026-04-19T12:15:48.951Z</time></trkpt><trkpt lat="41.1810203" lon="15.0217955"><ele>396.0</ele><time>2026-04-19T12:15:49.952Z</time></trkpt><trkpt lat="41.1809853" lon="15.0216889"><ele>396.0</ele><time>2026-04-19T12:15:50.95Z</time></trkpt><trkpt lat="41.1809507" lon="15.0215649"><ele>396.0</ele><time>2026-04-19T12:15:51.954Z</time></trkpt><trkpt lat="41.1809075" lon="15.0214292"><ele>400.25</ele><time>2026-04-19T12:15:52.958Z</time></trkpt><trkpt lat="41.1808585" lon="15.0212876"><ele>404.5</ele><time>2026-04-19T12:15:53.951Z</time></trkpt><trkpt lat="41.1807997" lon="15.0211472"><ele>408.75</ele><time>2026-04-19T12:15:54.956Z</time></trkpt><trkpt lat="41.1807482" lon="15.0210305"><ele>413.0</ele><time>2026-04-19T12:15:55.95Z</time></trkpt><trkpt lat="41.1806863" lon="15.020909"><ele>416.5</ele><time>2026-04-19T12:15:56.95Z</time></trkpt><trkpt lat="41.1806108" lon="15.020795"><ele>420.0</ele><time>2026-04-19T12:15:57.954Z</time></trkpt><trkpt lat="41.1805283" lon="15.0206826"><ele>423.5</ele><time>2026-04-19T12:15:58.957Z</time></trkpt><trkpt lat="41.1804456" lon="15.0205637"><ele>427.0</ele><time>2026-04-19T12:15:59.947Z</time></trkpt><trkpt lat="41.1803737" lon="15.0204385"><ele>427.0</ele><time>2026-04-19T12:16:00.949Z</time></trkpt><trkpt lat="41.1803113" lon="15.0203248"><ele>427.00000000000006</ele><time>2026-04-19T12:16:01.955Z</time></trkpt><trkpt lat="41.1802518" lon="15.020214"><ele>427.00000000000006</ele><time>2026-04-19T12:16:02.952Z</time></trkpt><trkpt lat="41.1801969" lon="15.0201139"><ele>427.0</ele><time>2026-04-19T12:16:03.95Z</time></trkpt><trkpt lat="41.1801347" lon="15.0200125"><ele>427.0</ele><time>2026-04-19T12:16:04.958Z</time></trkpt><trkpt lat="41.180064" lon="15.0198983"><ele>427.5</ele><time>2026-04-19T12:16:05.969Z</time></trkpt><trkpt lat="41.1799789" lon="15.0197685"><ele>428.0</ele><time>2026-04-19T12:16:06.948Z</time></trkpt><trkpt lat="41.1798851" lon="15.019639"><ele>428.5</ele><time>2026-04-19T12:16:07.955Z</time></trkpt><trkpt lat="41.1797863" lon="15.0195255"><ele>429.0</ele><time>2026-04-19T12:16:08.951Z</time></trkpt><trkpt lat="41.1796953" lon="15.0194292"><ele>432.2</ele><time>2026-04-19T12:16:09.95Z</time></trkpt><trkpt lat="41.1796248" lon="15.0193327"><ele>435.4</ele><time>2026-04-19T12:16:10.95Z</time></trkpt><trkpt lat="41.1795563" lon="15.0192205"><ele>438.6</ele><time>2026-04-19T12:16:11.955Z</time></trkpt><trkpt lat="41.179489" lon="15.0190992"><ele>441.8</ele><time>2026-04-19T12:16:12.944Z</time></trkpt><trkpt lat="41.1794193" lon="15.0189721"><ele>445.0</ele><time>2026-04-19T12:16:13.952Z</time></trkpt><trkpt lat="41.1793476" lon="15.0188507"><ele>445.25</ele><time>2026-04-19T12:16:14.952Z</time></trkpt><trkpt lat="41.1792765" lon="15.0187269"><ele>445.5</ele><time>2026-04-19T12:16:15.951Z</time></trkpt><trkpt lat="41.1792036" lon="15.0185926"><ele>445.75</ele><time>2026-04-19T12:16:16.949Z</time></trkpt><trkpt lat="41.1791271" lon="15.018455"><ele>446.0</ele><time>2026-04-19T12:16:17.956Z</time></trkpt><trkpt lat="41.1790524" lon="15.0183228"><ele>446.8333333333333</ele><time>2026-04-19T12:16:18.952Z</time></trkpt><trkpt lat="41.1789995" lon="15.018228"><ele>447.66666666666663</ele><time>2026-04-19T12:16:19.951Z</time></trkpt><trkpt lat="41.178976" lon="15.0181504"><ele>448.5</ele><time>2026-04-19T12:16:20.959Z</time></trkpt><trkpt lat="41.1789233" lon="15.0180233"><ele>449.33333333333337</ele><time>2026-04-19T12:16:22.956Z</time></trkpt><trkpt lat="41.1788685" lon="15.0179509"><ele>450.1666666666667</ele><time>2026-04-19T12:16:23.951Z</time></trkpt><trkpt lat="41.1787941" lon="15.0178704"><ele>451.0</ele><time>2026-04-19T12:16:24.948Z</time></trkpt><trkpt lat="41.1787047" lon="15.0177612"><ele>451.0</ele><time>2026-04-19T12:16:25.951Z</time></trkpt><trkpt lat="41.1786099" lon="15.0176287"><ele>451.0</ele><time>2026-04-19T12:16:26.95Z</time></trkpt><trkpt lat="41.1785281" lon="15.0174828"><ele>451.0</ele><time>2026-04-19T12:16:27.954Z</time></trkpt><trkpt lat="41.1784627" lon="15.0173295"><ele>451.0</ele><time>2026-04-19T12:16:28.949Z</time></trkpt><trkpt lat="41.178408" lon="15.0171825"><ele>450.25</ele><time>2026-04-19T12:16:29.956Z</time></trkpt><trkpt lat="41.1783489" lon="15.0170304"><ele>449.5</ele><time>2026-04-19T12:16:30.95Z</time></trkpt><trkpt lat="41.1782657" lon="15.016878"><ele>448.75</ele><time>2026-04-19T12:16:31.948Z</time></trkpt><trkpt lat="41.1781653" lon="15.0167369"><ele>448.0</ele><time>2026-04-19T12:16:32.954Z</time></trkpt><trkpt lat="41.1780528" lon="15.0166022"><ele>444.33333333333337</ele><time>2026-04-19T12:16:33.95Z</time></trkpt><trkpt lat="41.1779306" lon="15.0164714"><ele>440.66666666666663</ele><time>2026-04-19T12:16:34.948Z</time></trkpt><trkpt lat="41.1778094" lon="15.0163449"><ele>437.0</ele><time>2026-04-19T12:16:35.954Z</time></trkpt><trkpt lat="41.1776964" lon="15.0162282"><ele>437.0</ele><time>2026-04-19T12:16:36.948Z</time></trkpt><trkpt lat="41.177595" lon="15.01612"><ele>437.0</ele><time>2026-04-19T12:16:37.947Z</time></trkpt><trkpt lat="41.1774956" lon="15.0160323"><ele>437.0</ele><time>2026-04-19T12:16:38.949Z</time></trkpt><trkpt lat="41.177385" lon="15.0159588"><ele>437.0</ele><time>2026-04-19T12:16:39.953Z</time></trkpt><trkpt lat="41.1772537" lon="15.0158966"><ele>437.75</ele><time>2026-04-19T12:16:40.95Z</time></trkpt><trkpt lat="41.1771165" lon="15.0158573"><ele>438.5</ele><time>2026-04-19T12:16:41.951Z</time></trkpt><trkpt lat="41.1769784" lon="15.0158429"><ele>439.25</ele><time>2026-04-19T12:16:42.95Z</time></trkpt><trkpt lat="41.1768344" lon="15.0158545"><ele>440.0</ele><time>2026-04-19T12:16:43.952Z</time></trkpt><trkpt lat="41.1766942" lon="15.015877"><ele>440.0</ele><time>2026-04-19T12:16:44.959Z</time></trkpt><trkpt lat="41.1765674" lon="15.0158888"><ele>440.0</ele><time>2026-04-19T12:16:45.952Z</time></trkpt><trkpt lat="41.1764578" lon="15.0158857"><ele>440.0</ele><time>2026-04-19T12:16:46.953Z</time></trkpt><trkpt lat="41.1763703" lon="15.015841"><ele>440.0</ele><time>2026-04-19T12:16:47.952Z</time></trkpt><trkpt lat="41.1763063" lon="15.0157583"><ele>440.0</ele><time>2026-04-19T12:16:48.953Z</time></trkpt><trkpt lat="41.176237" lon="15.0156625"><ele>439.75</ele><time>2026-04-19T12:16:49.948Z</time></trkpt><trkpt lat="41.176148" lon="15.0155783"><ele>439.5</ele><time>2026-04-19T12:16:50.946Z</time></trkpt><trkpt lat="41.176029" lon="15.0155218"><ele>439.25</ele><time>2026-04-19T12:16:51.952Z</time></trkpt><trkpt lat="41.1759007" lon="15.0154664"><ele>439.0</ele><time>2026-04-19T12:16:52.95Z</time></trkpt><trkpt lat="41.1757518" lon="15.0154099"><ele>439.0</ele><time>2026-04-19T12:16:53.95Z</time></trkpt><trkpt lat="41.1755817" lon="15.015346"><ele>439.0</ele><time>2026-04-19T12:16:54.956Z</time></trkpt><trkpt lat="41.1754042" lon="15.01528"><ele>439.0</ele><time>2026-04-19T12:16:55.951Z</time></trkpt><trkpt lat="41.1752337" lon="15.0152111"><ele>439.0</ele><time>2026-04-19T12:16:56.949Z</time></trkpt><trkpt lat="41.1750778" lon="15.0151491"><ele>439.0</ele><time>2026-04-19T12:16:57.955Z</time></trkpt><trkpt lat="41.1749245" lon="15.0150775"><ele>439.0</ele><time>2026-04-19T12:16:58.951Z</time></trkpt><trkpt lat="41.1747663" lon="15.0150054"><ele>438.0</ele><time>2026-04-19T12:16:59.948Z</time></trkpt><trkpt lat="41.1746103" lon="15.0149404"><ele>437.0</ele><time>2026-04-19T12:17:00.953Z</time></trkpt><trkpt lat="41.1744569" lon="15.0148732"><ele>436.0</ele><time>2026-04-19T12:17:01.948Z</time></trkpt><trkpt lat="41.1743062" lon="15.0148098"><ele>436.0</ele><time>2026-04-19T12:17:02.945Z</time></trkpt><trkpt lat="41.1741538" lon="15.0147453"><ele>436.0</ele><time>2026-04-19T12:17:03.948Z</time></trkpt><trkpt lat="41.174003" lon="15.0146862"><ele>436.0</ele><time>2026-04-19T12:17:04.954Z</time></trkpt><trkpt lat="41.1738548" lon="15.0146285"><ele>435.0</ele><time>2026-04-19T12:17:05.95Z</time></trkpt><trkpt lat="41.173717" lon="15.014569"><ele>434.0</ele><time>2026-04-19T12:17:06.953Z</time></trkpt><trkpt lat="41.173587" lon="15.0144929"><ele>433.0</ele><time>2026-04-19T12:17:07.95Z</time></trkpt><trkpt lat="41.1734565" lon="15.0143987"><ele>432.0</ele><time>2026-04-19T12:17:08.946Z</time></trkpt><trkpt lat="41.173325" lon="15.0143007"><ele>432.0</ele><time>2026-04-19T12:17:09.95Z</time></trkpt><trkpt lat="41.1731924" lon="15.0142006"><ele>432.0</ele><time>2026-04-19T12:17:10.955Z</time></trkpt><trkpt lat="41.1730583" lon="15.014099"><ele>432.0</ele><time>2026-04-19T12:17:11.95Z</time></trkpt><trkpt lat="41.1729258" lon="15.0139986"><ele>431.75</ele><time>2026-04-19T12:17:12.95Z</time></trkpt><trkpt lat="41.1727937" lon="15.013904"><ele>431.5</ele><time>2026-04-19T12:17:13.952Z</time></trkpt><trkpt lat="41.1726627" lon="15.0138109"><ele>431.25</ele><time>2026-04-19T12:17:14.95Z</time></trkpt><trkpt lat="41.1725354" lon="15.0137142"><ele>431.0</ele><time>2026-04-19T12:17:15.945Z</time></trkpt><trkpt lat="41.1724063" lon="15.0136156"><ele>431.0</ele><time>2026-04-19T12:17:16.952Z</time></trkpt><trkpt lat="41.1722795" lon="15.0135191"><ele>431.0</ele><time>2026-04-19T12:17:17.948Z</time></trkpt><trkpt lat="41.1721585" lon="15.0134364"><ele>431.0</ele><time>2026-04-19T12:17:18.95Z</time></trkpt><trkpt lat="41.1720484" lon="15.0133585"><ele>431.0</ele><time>2026-04-19T12:17:19.948Z</time></trkpt><trkpt lat="41.1719446" lon="15.0132862"><ele>431.20000000000005</ele><time>2026-04-19T12:17:20.955Z</time></trkpt><trkpt lat="41.1718593" lon="15.0132162"><ele>431.40000000000003</ele><time>2026-04-19T12:17:21.95Z</time></trkpt><trkpt lat="41.1717906" lon="15.0131568"><ele>431.6</ele><time>2026-04-19T12:17:22.951Z</time></trkpt><trkpt lat="41.1717469" lon="15.0130247"><ele>431.8</ele><time>2026-04-19T12:17:24.958Z</time></trkpt><trkpt lat="41.17178" lon="15.0128543"><ele>432.0</ele><time>2026-04-19T12:17:26.947Z</time></trkpt><trkpt lat="41.1717979" lon="15.0127367"><ele>432.0</ele><time>2026-04-19T12:17:27.957Z</time></trkpt><trkpt lat="41.1718125" lon="15.0125829"><ele>432.0</ele><time>2026-04-19T12:17:28.952Z</time></trkpt><trkpt lat="41.1718249" lon="15.0124047"><ele>432.0</ele><time>2026-04-19T12:17:29.952Z</time></trkpt><trkpt lat="41.1718371" lon="15.0122128"><ele>432.0</ele><time>2026-04-19T12:17:30.952Z</time></trkpt><trkpt lat="41.1718539" lon="15.0120008"><ele>432.33333333333337</ele><time>2026-04-19T12:17:31.951Z</time></trkpt><trkpt lat="41.1718736" lon="15.0117703"><ele>432.6666666666667</ele><time>2026-04-19T12:17:32.949Z</time></trkpt><trkpt lat="41.1718979" lon="15.0115373"><ele>433.0</ele><time>2026-04-19T12:17:33.953Z</time></trkpt><trkpt lat="41.1719158" lon="15.0113057"><ele>434.33333333333337</ele><time>2026-04-19T12:17:34.95Z</time></trkpt><trkpt lat="41.1719335" lon="15.0110717"><ele>435.66666666666663</ele><time>2026-04-19T12:17:35.95Z</time></trkpt><trkpt lat="41.1719528" lon="15.0108362"><ele>437.0</ele><time>2026-04-19T12:17:36.944Z</time></trkpt><trkpt lat="41.1719751" lon="15.0106102"><ele>439.0</ele><time>2026-04-19T12:17:37.951Z</time></trkpt><trkpt lat="41.1719972" lon="15.0103826"><ele>441.0</ele><time>2026-04-19T12:17:38.95Z</time></trkpt><trkpt lat="41.1720279" lon="15.0101716"><ele>443.0</ele><time>2026-04-19T12:17:39.957Z</time></trkpt><trkpt lat="41.1720609" lon="15.0099711"><ele>445.0</ele><time>2026-04-19T12:17:40.951Z</time></trkpt><trkpt lat="41.1720933" lon="15.0097815"><ele>447.0</ele><time>2026-04-19T12:17:41.95Z</time></trkpt><trkpt lat="41.1721164" lon="15.0096108"><ele>449.0</ele><time>2026-04-19T12:17:42.949Z</time></trkpt><trkpt lat="41.1721402" lon="15.0094584"><ele>451.0</ele><time>2026-04-19T12:17:43.956Z</time></trkpt><trkpt lat="41.1721814" lon="15.0093303"><ele>451.0</ele><time>2026-04-19T12:17:44.953Z</time></trkpt><trkpt lat="41.1722435" lon="15.0092074"><ele>451.0</ele><time>2026-04-19T12:17:45.951Z</time></trkpt><trkpt lat="41.1723085" lon="15.0090701"><ele>451.0</ele><time>2026-04-19T12:17:46.958Z</time></trkpt><trkpt lat="41.1723784" lon="15.008924"><ele>451.0</ele><time>2026-04-19T12:17:47.956Z</time></trkpt><trkpt lat="41.172448" lon="15.0087652"><ele>452.75</ele><time>2026-04-19T12:17:48.956Z</time></trkpt><trkpt lat="41.1725165" lon="15.0086125"><ele>454.5</ele><time>2026-04-19T12:17:49.951Z</time></trkpt><trkpt lat="41.1725809" lon="15.0084707"><ele>456.25</ele><time>2026-04-19T12:17:50.949Z</time></trkpt><trkpt lat="41.1726238" lon="15.0083392"><ele>458.0</ele><time>2026-04-19T12:17:51.956Z</time></trkpt><trkpt lat="41.1726345" lon="15.0082112"><ele>458.0</ele><time>2026-04-19T12:17:52.952Z</time></trkpt><trkpt lat="41.1726159" lon="15.0080747"><ele>457.99999999999994</ele><time>2026-04-19T12:17:53.952Z</time></trkpt><trkpt lat="41.1725869" lon="15.0079298"><ele>457.99999999999994</ele><time>2026-04-19T12:17:54.957Z</time></trkpt><trkpt lat="41.1725672" lon="15.007796"><ele>458.0</ele><time>2026-04-19T12:17:55.954Z</time></trkpt><trkpt lat="41.1725478" lon="15.0077102"><ele>458.0</ele><time>2026-04-19T12:17:56.953Z</time></trkpt><trkpt lat="41.1725109" lon="15.0075813"><ele>456.99999999999994</ele><time>2026-04-19T12:17:58.947Z</time></trkpt><trkpt lat="41.1724762" lon="15.0074904"><ele>456.0</ele><time>2026-04-19T12:17:59.954Z</time></trkpt><trkpt lat="41.1724347" lon="15.0073984"><ele>455.0</ele><time>2026-04-19T12:18:00.955Z</time></trkpt><trkpt lat="41.1723846" lon="15.0072932"><ele>454.0</ele><time>2026-04-19T12:18:01.949Z</time></trkpt><trkpt lat="41.1723344" lon="15.0071847"><ele>452.99999999999994</ele><time>2026-04-19T12:18:02.953Z</time></trkpt><trkpt lat="41.1722852" lon="15.007082"><ele>452.0</ele><time>2026-04-19T12:18:03.954Z</time></trkpt><trkpt lat="41.1722432" lon="15.0070055"><ele>452.0</ele><time>2026-04-19T12:18:04.958Z</time></trkpt><trkpt lat="41.1722061" lon="15.0069264"><ele>452.00000000000006</ele><time>2026-04-19T12:18:05.951Z</time></trkpt><trkpt lat="41.1720993" lon="15.0068004"><ele>452.00000000000006</ele><time>2026-04-19T12:18:07.947Z</time></trkpt><trkpt lat="41.1720132" lon="15.0067319"><ele>452.0</ele><time>2026-04-19T12:18:08.946Z</time></trkpt><trkpt lat="41.1719328" lon="15.0066757"><ele>452.0</ele><time>2026-04-19T12:18:09.946Z</time></trkpt><trkpt lat="41.1718713" lon="15.0066294"><ele>449.14285714285717</ele><time>2026-04-19T12:18:10.95Z</time></trkpt><trkpt lat="41.1718351" lon="15.0065515"><ele>446.2857142857143</ele><time>2026-04-19T12:18:11.947Z</time></trkpt><trkpt lat="41.1718003" lon="15.0064786"><ele>443.42857142857144</ele><time>2026-04-19T12:18:12.95Z</time></trkpt><trkpt lat="41.1717626" lon="15.0063968"><ele>440.57142857142856</ele><time>2026-04-19T12:18:13.95Z</time></trkpt><trkpt lat="41.1717249" lon="15.0063225"><ele>437.71428571428567</ele><time>2026-04-19T12:18:14.949Z</time></trkpt><trkpt lat="41.1716868" lon="15.0062453"><ele>434.85714285714283</ele><time>2026-04-19T12:18:15.951Z</time></trkpt><trkpt lat="41.1716487" lon="15.0061642"><ele>432.0</ele><time>2026-04-19T12:18:16.953Z</time></trkpt><trkpt lat="41.1716263" lon="15.0060213"><ele>432.0</ele><time>2026-04-19T12:18:18.953Z</time></trkpt><trkpt lat="41.1716548" lon="15.0059353"><ele>432.0</ele><time>2026-04-19T12:18:19.947Z</time></trkpt><trkpt lat="41.1716867" lon="15.0058394"><ele>432.0</ele><time>2026-04-19T12:18:20.953Z</time></trkpt><trkpt lat="41.1717111" lon="15.0057544"><ele>432.0</ele><time>2026-04-19T12:18:21.953Z</time></trkpt><trkpt lat="41.1717153" lon="15.005592"><ele>432.0</ele><time>2026-04-19T12:18:23.95Z</time></trkpt><trkpt lat="41.1716931" lon="15.0055053"><ele>432.0</ele><time>2026-04-19T12:18:24.956Z</time></trkpt><trkpt lat="41.1716516" lon="15.0054119"><ele>430.0</ele><time>2026-04-19T12:18:25.951Z</time></trkpt><trkpt lat="41.171603" lon="15.0053144"><ele>428.0</ele><time>2026-04-19T12:18:26.955Z</time></trkpt><trkpt lat="41.1715506" lon="15.0052052"><ele>426.0</ele><time>2026-04-19T12:18:27.947Z</time></trkpt><trkpt lat="41.1715087" lon="15.0051054"><ele>424.0</ele><time>2026-04-19T12:18:28.948Z</time></trkpt><trkpt lat="41.1714731" lon="15.0050209"><ele>422.0</ele><time>2026-04-19T12:18:29.951Z</time></trkpt><trkpt lat="41.1714421" lon="15.0049409"><ele>420.0</ele><time>2026-04-19T12:18:30.95Z</time></trkpt><trkpt lat="41.1713906" lon="15.0047942"><ele>414.0</ele><time>2026-04-19T12:18:32.952Z</time></trkpt><trkpt lat="41.1713548" lon="15.0046886"><ele>408.0</ele><time>2026-04-19T12:18:34.952Z</time></trkpt><trkpt lat="41.1712359" lon="15.0046264"><ele>402.0</ele><time>2026-04-19T12:18:36.946Z</time></trkpt><trkpt lat="41.1711486" lon="15.0046164"><ele>396.0</ele><time>2026-04-19T12:18:37.949Z</time></trkpt><trkpt lat="41.1710459" lon="15.004618"><ele>390.0</ele><time>2026-04-19T12:18:38.952Z</time></trkpt><trkpt lat="41.1709361" lon="15.0046415"><ele>390.0</ele><time>2026-04-19T12:18:39.952Z</time></trkpt><trkpt lat="41.1708214" lon="15.0046986"><ele>390.0</ele><time>2026-04-19T12:18:40.948Z</time></trkpt><trkpt lat="41.1707109" lon="15.0047604"><ele>390.0</ele><time>2026-04-19T12:18:41.946Z</time></trkpt><trkpt lat="41.1706039" lon="15.0048185"><ele>390.0</ele><time>2026-04-19T12:18:42.949Z</time></trkpt><trkpt lat="41.1705129" lon="15.0048682"><ele>388.0</ele><time>2026-04-19T12:18:43.95Z</time></trkpt><trkpt lat="41.1704174" lon="15.0048973"><ele>386.0</ele><time>2026-04-19T12:18:44.95Z</time></trkpt><trkpt lat="41.1703262" lon="15.0048915"><ele>384.0</ele><time>2026-04-19T12:18:45.951Z</time></trkpt><trkpt lat="41.1702238" lon="15.0048782"><ele>382.0</ele><time>2026-04-19T12:18:46.95Z</time></trkpt><trkpt lat="41.1701173" lon="15.0048789"><ele>380.0</ele><time>2026-04-19T12:18:47.951Z</time></trkpt><trkpt lat="41.170007" lon="15.0049059"><ele>380.0</ele><time>2026-04-19T12:18:48.949Z</time></trkpt><trkpt lat="41.1698898" lon="15.0049395"><ele>380.0</ele><time>2026-04-19T12:18:49.953Z</time></trkpt><trkpt lat="41.169772" lon="15.0049611"><ele>380.0</ele><time>2026-04-19T12:18:50.95Z</time></trkpt><trkpt lat="41.1696608" lon="15.0049733"><ele>380.0</ele><time>2026-04-19T12:18:51.945Z</time></trkpt><trkpt lat="41.1695521" lon="15.0049737"><ele>380.2</ele><time>2026-04-19T12:18:52.949Z</time></trkpt><trkpt lat="41.1694356" lon="15.0049676"><ele>380.4</ele><time>2026-04-19T12:18:53.95Z</time></trkpt><trkpt lat="41.1693249" lon="15.0049592"><ele>380.6</ele><time>2026-04-19T12:18:54.951Z</time></trkpt><trkpt lat="41.169234" lon="15.0049749"><ele>380.8</ele><time>2026-04-19T12:18:55.952Z</time></trkpt><trkpt lat="41.1691483" lon="15.0049615"><ele>381.0</ele><time>2026-04-19T12:18:56.948Z</time></trkpt><trkpt lat="41.1690628" lon="15.0049177"><ele>384.4</ele><time>2026-04-19T12:18:57.945Z</time></trkpt><trkpt lat="41.1689714" lon="15.0048371"><ele>387.8</ele><time>2026-04-19T12:18:58.946Z</time></trkpt><trkpt lat="41.1688883" lon="15.0047677"><ele>391.2</ele><time>2026-04-19T12:18:59.955Z</time></trkpt><trkpt lat="41.1688" lon="15.0047117"><ele>394.59999999999997</ele><time>2026-04-19T12:19:00.956Z</time></trkpt><trkpt lat="41.1687049" lon="15.0046667"><ele>398.0</ele><time>2026-04-19T12:19:01.947Z</time></trkpt><trkpt lat="41.1686026" lon="15.0046479"><ele>398.0</ele><time>2026-04-19T12:19:02.946Z</time></trkpt><trkpt lat="41.1684931" lon="15.0046193"><ele>398.0</ele><time>2026-04-19T12:19:03.949Z</time></trkpt><trkpt lat="41.1683858" lon="15.0045773"><ele>398.0</ele><time>2026-04-19T12:19:04.953Z</time></trkpt><trkpt lat="41.1682766" lon="15.0045276"><ele>398.0</ele><time>2026-04-19T12:19:05.947Z</time></trkpt><trkpt lat="41.1681699" lon="15.0044585"><ele>402.5</ele><time>2026-04-19T12:19:06.955Z</time></trkpt><trkpt lat="41.1680528" lon="15.0044014"><ele>407.0</ele><time>2026-04-19T12:19:07.95Z</time></trkpt><trkpt lat="41.167947" lon="15.0043611"><ele>411.5</ele><time>2026-04-19T12:19:08.951Z</time></trkpt><trkpt lat="41.1678437" lon="15.0043253"><ele>416.0</ele><time>2026-04-19T12:19:09.952Z</time></trkpt><trkpt lat="41.1677391" lon="15.00428"><ele>416.0</ele><time>2026-04-19T12:19:10.95Z</time></trkpt><trkpt lat="41.1676299" lon="15.004233"><ele>416.0</ele><time>2026-04-19T12:19:11.953Z</time></trkpt><trkpt lat="41.1675137" lon="15.0041836"><ele>416.0</ele><time>2026-04-19T12:19:12.952Z</time></trkpt><trkpt lat="41.1673859" lon="15.0041443"><ele>416.0</ele><time>2026-04-19T12:19:13.954Z</time></trkpt><trkpt lat="41.1672595" lon="15.0041101"><ele>417.5</ele><time>2026-04-19T12:19:14.946Z</time></trkpt><trkpt lat="41.1671314" lon="15.0040746"><ele>419.0</ele><time>2026-04-19T12:19:15.951Z</time></trkpt><trkpt lat="41.1670057" lon="15.0040388"><ele>420.5</ele><time>2026-04-19T12:19:16.954Z</time></trkpt><trkpt lat="41.1668859" lon="15.004016"><ele>422.0</ele><time>2026-04-19T12:19:17.951Z</time></trkpt><trkpt lat="41.1667767" lon="15.0040124"><ele>421.99999999999994</ele><time>2026-04-19T12:19:18.959Z</time></trkpt><trkpt lat="41.1666765" lon="15.0040382"><ele>422.0</ele><time>2026-04-19T12:19:19.95Z</time></trkpt><trkpt lat="41.1665791" lon="15.0040628"><ele>422.0</ele><time>2026-04-19T12:19:20.95Z</time></trkpt><trkpt lat="41.1665018" lon="15.0040855"><ele>422.0</ele><time>2026-04-19T12:19:21.95Z</time></trkpt><trkpt lat="41.1664247" lon="15.0040999"><ele>421.99999999999994</ele><time>2026-04-19T12:19:22.949Z</time></trkpt><trkpt lat="41.1663426" lon="15.004109"><ele>422.0</ele><time>2026-04-19T12:19:23.952Z</time></trkpt><trkpt lat="41.166277" lon="15.00412"><ele>422.99999999999994</ele><time>2026-04-19T12:19:24.949Z</time></trkpt><trkpt lat="41.1661814" lon="15.004075"><ele>424.0</ele><time>2026-04-19T12:19:26.957Z</time></trkpt><trkpt lat="41.1661247" lon="15.0040115"><ele>425.0</ele><time>2026-04-19T12:19:27.949Z</time></trkpt><trkpt lat="41.1660614" lon="15.0039326"><ele>426.0</ele><time>2026-04-19T12:19:28.958Z</time></trkpt><trkpt lat="41.1659938" lon="15.0038535"><ele>426.99999999999994</ele><time>2026-04-19T12:19:29.954Z</time></trkpt><trkpt lat="41.1659304" lon="15.0037749"><ele>428.0</ele><time>2026-04-19T12:19:30.952Z</time></trkpt><trkpt lat="41.165875" lon="15.0036933"><ele>428.0</ele><time>2026-04-19T12:19:31.95Z</time></trkpt><trkpt lat="41.1658188" lon="15.0035972"><ele>427.99999999999994</ele><time>2026-04-19T12:19:32.954Z</time></trkpt><trkpt lat="41.1657519" lon="15.0034911"><ele>427.99999999999994</ele><time>2026-04-19T12:19:33.95Z</time></trkpt><trkpt lat="41.1656817" lon="15.0033867"><ele>428.0</ele><time>2026-04-19T12:19:34.95Z</time></trkpt><trkpt lat="41.1656011" lon="15.003297"><ele>428.0</ele><time>2026-04-19T12:19:35.951Z</time></trkpt><trkpt lat="41.1655225" lon="15.0031982"><ele>425.25</ele><time>2026-04-19T12:19:36.953Z</time></trkpt><trkpt lat="41.1654409" lon="15.0030906"><ele>422.5</ele><time>2026-04-19T12:19:37.951Z</time></trkpt><trkpt lat="41.165357" lon="15.002969"><ele>419.75</ele><time>2026-04-19T12:19:38.951Z</time></trkpt><trkpt lat="41.1652735" lon="15.0028502"><ele>417.0</ele><time>2026-04-19T12:19:39.953Z</time></trkpt><trkpt lat="41.1651897" lon="15.0027278"><ele>417.0</ele><time>2026-04-19T12:19:40.945Z</time></trkpt><trkpt lat="41.1651095" lon="15.0026003"><ele>417.0</ele><time>2026-04-19T12:19:41.947Z</time></trkpt><trkpt lat="41.1650257" lon="15.0024666"><ele>417.0</ele><time>2026-04-19T12:19:42.957Z</time></trkpt><trkpt lat="41.1649417" lon="15.0023346"><ele>417.0</ele><time>2026-04-19T12:19:43.951Z</time></trkpt><trkpt lat="41.1648677" lon="15.0022022"><ele>415.75</ele><time>2026-04-19T12:19:44.95Z</time></trkpt><trkpt lat="41.164795" lon="15.0020594"><ele>414.5</ele><time>2026-04-19T12:19:45.95Z</time></trkpt><trkpt lat="41.164723" lon="15.0019227"><ele>413.25</ele><time>2026-04-19T12:19:46.953Z</time></trkpt><trkpt lat="41.1646525" lon="15.0017749"><ele>412.0</ele><time>2026-04-19T12:19:47.957Z</time></trkpt><trkpt lat="41.1645784" lon="15.0016191"><ele>411.25</ele><time>2026-04-19T12:19:48.958Z</time></trkpt><trkpt lat="41.1645002" lon="15.0014706"><ele>410.5</ele><time>2026-04-19T12:19:49.951Z</time></trkpt><trkpt lat="41.1644239" lon="15.0013233"><ele>409.75</ele><time>2026-04-19T12:19:50.954Z</time></trkpt><trkpt lat="41.1643567" lon="15.0011861"><ele>409.0</ele><time>2026-04-19T12:19:51.952Z</time></trkpt><trkpt lat="41.1642935" lon="15.0010499"><ele>409.0</ele><time>2026-04-19T12:19:52.958Z</time></trkpt><trkpt lat="41.1642251" lon="15.0009171"><ele>409.0</ele><time>2026-04-19T12:19:53.954Z</time></trkpt><trkpt lat="41.1641511" lon="15.0007832"><ele>409.0</ele><time>2026-04-19T12:19:54.951Z</time></trkpt><trkpt lat="41.1640887" lon="15.0006584"><ele>409.0</ele><time>2026-04-19T12:19:55.954Z</time></trkpt><trkpt lat="41.164031" lon="15.0005289"><ele>405.75</ele><time>2026-04-19T12:19:56.956Z</time></trkpt><trkpt lat="41.163975" lon="15.0003833"><ele>402.5</ele><time>2026-04-19T12:19:57.948Z</time></trkpt><trkpt lat="41.1639306" lon="15.0002152"><ele>399.25</ele><time>2026-04-19T12:19:58.949Z</time></trkpt><trkpt lat="41.1638897" lon="15.0000488"><ele>396.0</ele><time>2026-04-19T12:19:59.951Z</time></trkpt><trkpt lat="41.1638552" lon="14.9998883"><ele>396.0</ele><time>2026-04-19T12:20:00.95Z</time></trkpt><trkpt lat="41.1638323" lon="14.9997222"><ele>396.0</ele><time>2026-04-19T12:20:01.953Z</time></trkpt><trkpt lat="41.1638189" lon="14.9995389"><ele>396.0</ele><time>2026-04-19T12:20:02.945Z</time></trkpt><trkpt lat="41.163804" lon="14.9993656"><ele>396.0</ele><time>2026-04-19T12:20:03.951Z</time></trkpt><trkpt lat="41.1637931" lon="14.9991959"><ele>394.5</ele><time>2026-04-19T12:20:04.949Z</time></trkpt><trkpt lat="41.1637898" lon="14.9990327"><ele>393.0</ele><time>2026-04-19T12:20:05.951Z</time></trkpt><trkpt lat="41.1637961" lon="14.9988713"><ele>391.5</ele><time>2026-04-19T12:20:06.951Z</time></trkpt><trkpt lat="41.1638152" lon="14.9987153"><ele>390.0</ele><time>2026-04-19T12:20:07.954Z</time></trkpt><trkpt lat="41.1638458" lon="14.9985588"><ele>390.0</ele><time>2026-04-19T12:20:08.951Z</time></trkpt><trkpt lat="41.1638715" lon="14.9984016"><ele>390.0</ele><time>2026-04-19T12:20:09.955Z</time></trkpt><trkpt lat="41.1638902" lon="14.9982436"><ele>390.0</ele><time>2026-04-19T12:20:10.95Z</time></trkpt><trkpt lat="41.1639094" lon="14.9980753"><ele>390.0</ele><time>2026-04-19T12:20:11.956Z</time></trkpt><trkpt lat="41.1639206" lon="14.9979136"><ele>390.25</ele><time>2026-04-19T12:20:12.949Z</time></trkpt><trkpt lat="41.1639287" lon="14.9977506"><ele>390.5</ele><time>2026-04-19T12:20:13.952Z</time></trkpt><trkpt lat="41.1639345" lon="14.9975804"><ele>390.75</ele><time>2026-04-19T12:20:14.954Z</time></trkpt><trkpt lat="41.1639424" lon="14.9974028"><ele>391.0</ele><time>2026-04-19T12:20:15.954Z</time></trkpt><trkpt lat="41.1639562" lon="14.9972306"><ele>391.5</ele><time>2026-04-19T12:20:16.949Z</time></trkpt><trkpt lat="41.1639739" lon="14.9970627"><ele>392.0</ele><time>2026-04-19T12:20:17.951Z</time></trkpt><trkpt lat="41.1639963" lon="14.996912"><ele>392.5</ele><time>2026-04-19T12:20:18.952Z</time></trkpt><trkpt lat="41.1640254" lon="14.9967654"><ele>393.0</ele><time>2026-04-19T12:20:19.952Z</time></trkpt><trkpt lat="41.1640545" lon="14.9966191"><ele>390.79999999999995</ele><time>2026-04-19T12:20:20.952Z</time></trkpt><trkpt lat="41.1640805" lon="14.9964747"><ele>388.6</ele><time>2026-04-19T12:20:21.955Z</time></trkpt><trkpt lat="41.1641099" lon="14.9963402"><ele>386.4</ele><time>2026-04-19T12:20:22.954Z</time></trkpt><trkpt lat="41.1641365" lon="14.9961927"><ele>384.20000000000005</ele><time>2026-04-19T12:20:23.949Z</time></trkpt><trkpt lat="41.1641597" lon="14.9960475"><ele>382.0</ele><time>2026-04-19T12:20:24.958Z</time></trkpt><trkpt lat="41.1641851" lon="14.99591"><ele>381.0</ele><time>2026-04-19T12:20:25.952Z</time></trkpt><trkpt lat="41.1642058" lon="14.9957713"><ele>380.0</ele><time>2026-04-19T12:20:26.952Z</time></trkpt><trkpt lat="41.1642278" lon="14.9956313"><ele>379.0</ele><time>2026-04-19T12:20:27.953Z</time></trkpt><trkpt lat="41.1642561" lon="14.9954874"><ele>378.0</ele><time>2026-04-19T12:20:28.953Z</time></trkpt><trkpt lat="41.1642803" lon="14.9953349"><ele>377.0</ele><time>2026-04-19T12:20:29.951Z</time></trkpt><trkpt lat="41.1643056" lon="14.9951823"><ele>377.0</ele><time>2026-04-19T12:20:30.952Z</time></trkpt><trkpt lat="41.1643226" lon="14.995012"><ele>377.0</ele><time>2026-04-19T12:20:31.956Z</time></trkpt><trkpt lat="41.1643393" lon="14.994832"><ele>377.0</ele><time>2026-04-19T12:20:32.955Z</time></trkpt><trkpt lat="41.1643539" lon="14.9946686"><ele>377.0</ele><time>2026-04-19T12:20:33.948Z</time></trkpt><trkpt lat="41.1643634" lon="14.9945092"><ele>375.0</ele><time>2026-04-19T12:20:34.958Z</time></trkpt><trkpt lat="41.1643725" lon="14.9943469"><ele>373.0</ele><time>2026-04-19T12:20:35.962Z</time></trkpt><trkpt lat="41.1643856" lon="14.9941795"><ele>371.0</ele><time>2026-04-19T12:20:36.955Z</time></trkpt><trkpt lat="41.1643917" lon="14.9940107"><ele>369.0</ele><time>2026-04-19T12:20:37.945Z</time></trkpt><trkpt lat="41.164396" lon="14.9938518"><ele>366.0</ele><time>2026-04-19T12:20:38.959Z</time></trkpt><trkpt lat="41.1643947" lon="14.9936867"><ele>363.0</ele><time>2026-04-19T12:20:39.952Z</time></trkpt><trkpt lat="41.1643909" lon="14.9935238"><ele>360.0</ele><time>2026-04-19T12:20:40.952Z</time></trkpt><trkpt lat="41.1643901" lon="14.993365"><ele>357.0</ele><time>2026-04-19T12:20:41.955Z</time></trkpt><trkpt lat="41.1643995" lon="14.9932112"><ele>354.25</ele><time>2026-04-19T12:20:42.957Z</time></trkpt><trkpt lat="41.164407" lon="14.9930479"><ele>351.5</ele><time>2026-04-19T12:20:43.95Z</time></trkpt><trkpt lat="41.1644191" lon="14.9928876"><ele>348.75</ele><time>2026-04-19T12:20:44.95Z</time></trkpt><trkpt lat="41.1644493" lon="14.9927361"><ele>346.0</ele><time>2026-04-19T12:20:45.955Z</time></trkpt><trkpt lat="41.1644818" lon="14.9926015"><ele>344.5</ele><time>2026-04-19T12:20:46.954Z</time></trkpt><trkpt lat="41.1645319" lon="14.9924632"><ele>343.0</ele><time>2026-04-19T12:20:47.95Z</time></trkpt><trkpt lat="41.1645904" lon="14.992322"><ele>341.5</ele><time>2026-04-19T12:20:48.955Z</time></trkpt><trkpt lat="41.1646551" lon="14.9921785"><ele>340.0</ele><time>2026-04-19T12:20:49.954Z</time></trkpt><trkpt lat="41.164718" lon="14.9920412"><ele>340.0</ele><time>2026-04-19T12:20:50.955Z</time></trkpt><trkpt lat="41.1647785" lon="14.9919159"><ele>340.0</ele><time>2026-04-19T12:20:51.952Z</time></trkpt><trkpt lat="41.1648419" lon="14.9917983"><ele>340.0</ele><time>2026-04-19T12:20:52.948Z</time></trkpt><trkpt lat="41.1649082" lon="14.9916822"><ele>340.0</ele><time>2026-04-19T12:20:53.952Z</time></trkpt><trkpt lat="41.1649847" lon="14.9915624"><ele>340.0</ele><time>2026-04-19T12:20:54.951Z</time></trkpt><trkpt lat="41.1650682" lon="14.9914425"><ele>338.8</ele><time>2026-04-19T12:20:55.95Z</time></trkpt><trkpt lat="41.1651446" lon="14.9913266"><ele>337.6</ele><time>2026-04-19T12:20:56.954Z</time></trkpt><trkpt lat="41.165227" lon="14.9912146"><ele>336.4</ele><time>2026-04-19T12:20:57.952Z</time></trkpt><trkpt lat="41.1653027" lon="14.9911114"><ele>335.2</ele><time>2026-04-19T12:20:58.955Z</time></trkpt><trkpt lat="41.1653809" lon="14.9910148"><ele>334.0</ele><time>2026-04-19T12:20:59.951Z</time></trkpt><trkpt lat="41.1654562" lon="14.9909246"><ele>334.0</ele><time>2026-04-19T12:21:00.952Z</time></trkpt><trkpt lat="41.1655211" lon="14.9908451"><ele>334.0</ele><time>2026-04-19T12:21:01.954Z</time></trkpt><trkpt lat="41.1655733" lon="14.990773"><ele>334.0</ele><time>2026-04-19T12:21:02.957Z</time></trkpt><trkpt lat="41.1656362" lon="14.990645"><ele>334.0</ele><time>2026-04-19T12:21:04.951Z</time></trkpt><trkpt lat="41.1656429" lon="14.990554"><ele>334.0</ele><time>2026-04-19T12:21:05.95Z</time></trkpt><trkpt lat="41.1656328" lon="14.9904524"><ele>334.0</ele><time>2026-04-19T12:21:06.954Z</time></trkpt><trkpt lat="41.1656297" lon="14.9903268"><ele>332.66666666666663</ele><time>2026-04-19T12:21:07.95Z</time></trkpt><trkpt lat="41.1656257" lon="14.9902106"><ele>331.3333333333333</ele><time>2026-04-19T12:21:08.958Z</time></trkpt><trkpt lat="41.1656253" lon="14.9900991"><ele>330.0</ele><time>2026-04-19T12:21:09.956Z</time></trkpt><trkpt lat="41.1656161" lon="14.9899898"><ele>328.6666666666667</ele><time>2026-04-19T12:21:10.952Z</time></trkpt><trkpt lat="41.1656043" lon="14.9898796"><ele>327.33333333333337</ele><time>2026-04-19T12:21:11.953Z</time></trkpt><trkpt lat="41.1656007" lon="14.9897635"><ele>326.0</ele><time>2026-04-19T12:21:12.954Z</time></trkpt><trkpt lat="41.1655981" lon="14.9896487"><ele>324.6666666666667</ele><time>2026-04-19T12:21:13.953Z</time></trkpt><trkpt lat="41.1655974" lon="14.9895342"><ele>323.33333333333337</ele><time>2026-04-19T12:21:14.956Z</time></trkpt><trkpt lat="41.1655921" lon="14.9894257"><ele>322.0</ele><time>2026-04-19T12:21:15.951Z</time></trkpt><trkpt lat="41.1655817" lon="14.9893072"><ele>320.6666666666667</ele><time>2026-04-19T12:21:16.951Z</time></trkpt><trkpt lat="41.165577" lon="14.9891859"><ele>319.3333333333333</ele><time>2026-04-19T12:21:17.957Z</time></trkpt><trkpt lat="41.1655704" lon="14.9890619"><ele>318.0</ele><time>2026-04-19T12:21:18.95Z</time></trkpt><trkpt lat="41.1655575" lon="14.9889385"><ele>315.8</ele><time>2026-04-19T12:21:19.953Z</time></trkpt><trkpt lat="41.1655496" lon="14.9888116"><ele>313.6</ele><time>2026-04-19T12:21:20.957Z</time></trkpt><trkpt lat="41.1655507" lon="14.9886826"><ele>311.4</ele><time>2026-04-19T12:21:21.951Z</time></trkpt><trkpt lat="41.1655548" lon="14.9885516"><ele>309.2</ele><time>2026-04-19T12:21:22.95Z</time></trkpt><trkpt lat="41.1655628" lon="14.9884202"><ele>307.0</ele><time>2026-04-19T12:21:23.953Z</time></trkpt><trkpt lat="41.1655842" lon="14.988311"><ele>305.0</ele><time>2026-04-19T12:21:24.954Z</time></trkpt><trkpt lat="41.1656183" lon="14.9882126"><ele>303.0</ele><time>2026-04-19T12:21:25.952Z</time></trkpt><trkpt lat="41.16566" lon="14.9881247"><ele>301.0</ele><time>2026-04-19T12:21:26.949Z</time></trkpt><trkpt lat="41.1656801" lon="14.9879948"><ele>299.0</ele><time>2026-04-19T12:21:28.95Z</time></trkpt><trkpt lat="41.1656519" lon="14.9879096"><ele>297.0</ele><time>2026-04-19T12:21:29.958Z</time></trkpt><trkpt lat="41.1656203" lon="14.9878079"><ele>295.0</ele><time>2026-04-19T12:21:30.954Z</time></trkpt><trkpt lat="41.1655958" lon="14.9876874"><ele>295.0</ele><time>2026-04-19T12:21:31.957Z</time></trkpt><trkpt lat="41.1655623" lon="14.9875602"><ele>295.0</ele><time>2026-04-19T12:21:32.953Z</time></trkpt><trkpt lat="41.165526" lon="14.9874263"><ele>295.0</ele><time>2026-04-19T12:21:33.95Z</time></trkpt><trkpt lat="41.1654908" lon="14.9872951"><ele>295.0</ele><time>2026-04-19T12:21:34.953Z</time></trkpt><trkpt lat="41.165465" lon="14.9871642"><ele>295.0</ele><time>2026-04-19T12:21:35.951Z</time></trkpt><trkpt lat="41.1654476" lon="14.9870342"><ele>292.2</ele><time>2026-04-19T12:21:36.954Z</time></trkpt><trkpt lat="41.1654386" lon="14.9869064"><ele>289.4</ele><time>2026-04-19T12:21:37.953Z</time></trkpt><trkpt lat="41.1654259" lon="14.9867657"><ele>286.6</ele><time>2026-04-19T12:21:38.954Z</time></trkpt><trkpt lat="41.1654076" lon="14.9866296"><ele>283.8</ele><time>2026-04-19T12:21:39.956Z</time></trkpt><trkpt lat="41.1653839" lon="14.9865062"><ele>281.0</ele><time>2026-04-19T12:21:40.953Z</time></trkpt><trkpt lat="41.1653532" lon="14.9863842"><ele>278.6</ele><time>2026-04-19T12:21:41.952Z</time></trkpt><trkpt lat="41.1653092" lon="14.9862697"><ele>276.20000000000005</ele><time>2026-04-19T12:21:42.951Z</time></trkpt><trkpt lat="41.1652601" lon="14.986154"><ele>273.79999999999995</ele><time>2026-04-19T12:21:44.026Z</time></trkpt><trkpt lat="41.1652112" lon="14.9860346"><ele>271.4</ele><time>2026-04-19T12:21:44.955Z</time></trkpt><trkpt lat="41.165175" lon="14.9859385"><ele>269.0</ele><time>2026-04-19T12:21:45.956Z</time></trkpt><trkpt lat="41.1651545" lon="14.9858357"><ele>266.4</ele><time>2026-04-19T12:21:47.052Z</time></trkpt><trkpt lat="41.1652006" lon="14.9856655"><ele>263.79999999999995</ele><time>2026-04-19T12:21:49.027Z</time></trkpt><trkpt lat="41.1652583" lon="14.9855592"><ele>261.20000000000005</ele><time>2026-04-19T12:21:49.962Z</time></trkpt><trkpt lat="41.1653181" lon="14.9854343"><ele>258.6</ele><time>2026-04-19T12:21:50.965Z</time></trkpt><trkpt lat="41.165367" lon="14.9853205"><ele>256.0</ele><time>2026-04-19T12:21:51.958Z</time></trkpt><trkpt lat="41.1654048" lon="14.9852327"><ele>256.0</ele><time>2026-04-19T12:21:52.971Z</time></trkpt><trkpt lat="41.165425" lon="14.9851374"><ele>256.0</ele><time>2026-04-19T12:21:53.964Z</time></trkpt><trkpt lat="41.1654469" lon="14.9850144"><ele>256.0</ele><time>2026-04-19T12:21:54.96Z</time></trkpt><trkpt lat="41.1654583" lon="14.9848831"><ele>256.0</ele><time>2026-04-19T12:21:55.966Z</time></trkpt><trkpt lat="41.1654601" lon="14.9847564"><ele>256.0</ele><time>2026-04-19T12:21:56.96Z</time></trkpt><trkpt lat="41.1654596" lon="14.9846386"><ele>252.60000000000002</ele><time>2026-04-19T12:21:57.976Z</time></trkpt><trkpt lat="41.1654583" lon="14.9845171"><ele>249.20000000000002</ele><time>2026-04-19T12:21:58.971Z</time></trkpt><trkpt lat="41.1654528" lon="14.9844006"><ele>245.79999999999998</ele><time>2026-04-19T12:21:59.963Z</time></trkpt><trkpt lat="41.1654336" lon="14.9842855"><ele>242.39999999999998</ele><time>2026-04-19T12:22:00.962Z</time></trkpt><trkpt lat="41.1653984" lon="14.9841738"><ele>239.0</ele><time>2026-04-19T12:22:01.96Z</time></trkpt><trkpt lat="41.1653518" lon="14.9840659"><ele>236.50000000000003</ele><time>2026-04-19T12:22:02.964Z</time></trkpt><trkpt lat="41.1653022" lon="14.9839563"><ele>234.0</ele><time>2026-04-19T12:22:03.961Z</time></trkpt><trkpt lat="41.1652558" lon="14.9838554"><ele>231.5</ele><time>2026-04-19T12:22:04.968Z</time></trkpt><trkpt lat="41.1652273" lon="14.9837514"><ele>229.0</ele><time>2026-04-19T12:22:06.029Z</time></trkpt><trkpt lat="41.1652112" lon="14.9836474"><ele>226.50000000000003</ele><time>2026-04-19T12:22:07.028Z</time></trkpt><trkpt lat="41.165211" lon="14.9835637"><ele>224.0</ele><time>2026-04-19T12:22:08.025Z</time></trkpt><trkpt lat="41.1652971" lon="14.9834852"><ele>224.00000000000003</ele><time>2026-04-19T12:22:09.954Z</time></trkpt><trkpt lat="41.1653838" lon="14.9834797"><ele>224.0</ele><time>2026-04-19T12:22:10.962Z</time></trkpt><trkpt lat="41.1654857" lon="14.9834751"><ele>224.0</ele><time>2026-04-19T12:22:11.96Z</time></trkpt><trkpt lat="41.1655512" lon="14.9834702"><ele>224.0</ele><time>2026-04-19T12:22:12.963Z</time></trkpt><trkpt lat="41.1656188" lon="14.9834215"><ele>224.00000000000003</ele><time>2026-04-19T12:22:14.955Z</time></trkpt><trkpt lat="41.1656827" lon="14.9833588"><ele>224.0</ele><time>2026-04-19T12:22:17.951Z</time></trkpt><trkpt lat="41.1657322" lon="14.9832843"><ele>223.6</ele><time>2026-04-19T12:22:18.952Z</time></trkpt><trkpt lat="41.1657548" lon="14.9831892"><ele>223.2</ele><time>2026-04-19T12:22:19.948Z</time></trkpt><trkpt lat="41.1657835" lon="14.9830692"><ele>222.79999999999998</ele><time>2026-04-19T12:22:21.01Z</time></trkpt><trkpt lat="41.1658255" lon="14.9829104"><ele>222.39999999999998</ele><time>2026-04-19T12:22:21.948Z</time></trkpt><trkpt lat="41.1658678" lon="14.9827528"><ele>222.0</ele><time>2026-04-19T12:22:22.954Z</time></trkpt><trkpt lat="41.1659157" lon="14.9825924"><ele>224.5</ele><time>2026-04-19T12:22:23.948Z</time></trkpt><trkpt lat="41.1659652" lon="14.9824276"><ele>227.0</ele><time>2026-04-19T12:22:24.955Z</time></trkpt><trkpt lat="41.1660278" lon="14.9822834"><ele>229.5</ele><time>2026-04-19T12:22:25.954Z</time></trkpt><trkpt lat="41.1660914" lon="14.9821389"><ele>232.0</ele><time>2026-04-19T12:22:26.949Z</time></trkpt><trkpt lat="41.1661599" lon="14.9819835"><ele>232.0</ele><time>2026-04-19T12:22:27.949Z</time></trkpt><trkpt lat="41.1662283" lon="14.9818193"><ele>232.0</ele><time>2026-04-19T12:22:28.952Z</time></trkpt><trkpt lat="41.1662902" lon="14.9816484"><ele>232.0</ele><time>2026-04-19T12:22:29.958Z</time></trkpt><trkpt lat="41.1663498" lon="14.9814689"><ele>232.0</ele><time>2026-04-19T12:22:30.95Z</time></trkpt><trkpt lat="41.166412" lon="14.9812963"><ele>237.0</ele><time>2026-04-19T12:22:31.956Z</time></trkpt><trkpt lat="41.1664705" lon="14.9811386"><ele>242.0</ele><time>2026-04-19T12:22:32.946Z</time></trkpt><trkpt lat="41.1665192" lon="14.9809904"><ele>247.0</ele><time>2026-04-19T12:22:33.948Z</time></trkpt><trkpt lat="41.1665669" lon="14.9808403"><ele>252.0</ele><time>2026-04-19T12:22:34.95Z</time></trkpt><trkpt lat="41.1666145" lon="14.9806963"><ele>258.5</ele><time>2026-04-19T12:22:35.951Z</time></trkpt><trkpt lat="41.1666624" lon="14.9805477"><ele>265.0</ele><time>2026-04-19T12:22:36.949Z</time></trkpt><trkpt lat="41.1667149" lon="14.9803958"><ele>271.5</ele><time>2026-04-19T12:22:37.948Z</time></trkpt><trkpt lat="41.1667571" lon="14.9802441"><ele>278.0</ele><time>2026-04-19T12:22:38.957Z</time></trkpt><trkpt lat="41.1667835" lon="14.9801006"><ele>282.25</ele><time>2026-04-19T12:22:39.95Z</time></trkpt><trkpt lat="41.1667968" lon="14.9799645"><ele>286.5</ele><time>2026-04-19T12:22:40.95Z</time></trkpt><trkpt lat="41.1668028" lon="14.9798215"><ele>290.75</ele><time>2026-04-19T12:22:41.949Z</time></trkpt><trkpt lat="41.1668063" lon="14.9796618"><ele>295.0</ele><time>2026-04-19T12:22:42.95Z</time></trkpt><trkpt lat="41.1668102" lon="14.9794859"><ele>295.0</ele><time>2026-04-19T12:22:43.951Z</time></trkpt><trkpt lat="41.1668173" lon="14.9793127"><ele>295.0</ele><time>2026-04-19T12:22:44.951Z</time></trkpt><trkpt lat="41.1668227" lon="14.9791432"><ele>295.0</ele><time>2026-04-19T12:22:46.028Z</time></trkpt><trkpt lat="41.1668322" lon="14.9789617"><ele>295.0</ele><time>2026-04-19T12:22:47.029Z</time></trkpt><trkpt lat="41.1668417" lon="14.9787817"><ele>299.0</ele><time>2026-04-19T12:22:47.956Z</time></trkpt><trkpt lat="41.1668523" lon="14.9786125"><ele>303.0</ele><time>2026-04-19T12:22:49.032Z</time></trkpt><trkpt lat="41.1668641" lon="14.9784386"><ele>307.0</ele><time>2026-04-19T12:22:49.949Z</time></trkpt><trkpt lat="41.1668696" lon="14.9782572"><ele>311.0</ele><time>2026-04-19T12:22:50.951Z</time></trkpt><trkpt lat="41.1668738" lon="14.9780781"><ele>315.25</ele><time>2026-04-19T12:22:51.952Z</time></trkpt><trkpt lat="41.1668748" lon="14.9779052"><ele>319.5</ele><time>2026-04-19T12:22:52.956Z</time></trkpt><trkpt lat="41.1668797" lon="14.9777517"><ele>323.75</ele><time>2026-04-19T12:22:53.968Z</time></trkpt><trkpt lat="41.1668954" lon="14.9776007"><ele>328.0</ele><time>2026-04-19T12:22:54.955Z</time></trkpt><trkpt lat="41.1669173" lon="14.9774671"><ele>328.0</ele><time>2026-04-19T12:22:55.957Z</time></trkpt><trkpt lat="41.1669732" lon="14.977382"><ele>328.0</ele><time>2026-04-19T12:22:57.951Z</time></trkpt><trkpt lat="41.1670482" lon="14.9774252"><ele>328.0</ele><time>2026-04-19T12:22:59.951Z</time></trkpt><trkpt lat="41.1671154" lon="14.977475"><ele>328.0</ele><time>2026-04-19T12:23:00.948Z</time></trkpt><trkpt lat="41.1672092" lon="14.9775212"><ele>328.0</ele><time>2026-04-19T12:23:02.03Z</time></trkpt><trkpt lat="41.1673217" lon="14.9775734"><ele>332.0</ele><time>2026-04-19T12:23:03.023Z</time></trkpt><trkpt lat="41.1674463" lon="14.9776187"><ele>336.0</ele><time>2026-04-19T12:23:04.029Z</time></trkpt><trkpt lat="41.1675652" lon="14.9776297"><ele>340.0</ele><time>2026-04-19T12:23:04.957Z</time></trkpt><trkpt lat="41.1676705" lon="14.9775848"><ele>344.0</ele><time>2026-04-19T12:23:05.952Z</time></trkpt><trkpt lat="41.1677768" lon="14.9774927"><ele>346.25</ele><time>2026-04-19T12:23:06.954Z</time></trkpt><trkpt lat="41.1678869" lon="14.9773768"><ele>348.5</ele><time>2026-04-19T12:23:07.95Z</time></trkpt><trkpt lat="41.1679969" lon="14.9772663"><ele>350.75</ele><time>2026-04-19T12:23:08.957Z</time></trkpt><trkpt lat="41.1680971" lon="14.9771673"><ele>353.0</ele><time>2026-04-19T12:23:09.96Z</time></trkpt><trkpt lat="41.1681868" lon="14.9770751"><ele>353.59999999999997</ele><time>2026-04-19T12:23:11.029Z</time></trkpt><trkpt lat="41.1682593" lon="14.9769733"><ele>354.2</ele><time>2026-04-19T12:23:12.026Z</time></trkpt><trkpt lat="41.168329" lon="14.9768688"><ele>354.8</ele><time>2026-04-19T12:23:13.029Z</time></trkpt><trkpt lat="41.1683904" lon="14.9767666"><ele>355.4</ele><time>2026-04-19T12:23:13.951Z</time></trkpt><trkpt lat="41.1684552" lon="14.9766762"><ele>356.0</ele><time>2026-04-19T12:23:14.956Z</time></trkpt><trkpt lat="41.1685233" lon="14.9766105"><ele>356.0</ele><time>2026-04-19T12:23:15.95Z</time></trkpt><trkpt lat="41.1685949" lon="14.9765811"><ele>356.0</ele><time>2026-04-19T12:23:16.955Z</time></trkpt><trkpt lat="41.1686641" lon="14.9765674"><ele>356.0</ele><time>2026-04-19T12:23:17.954Z</time></trkpt><trkpt lat="41.1687904" lon="14.9766006"><ele>356.0</ele><time>2026-04-19T12:23:19.956Z</time></trkpt><trkpt lat="41.1688667" lon="14.9766497"><ele>356.0</ele><time>2026-04-19T12:23:20.965Z</time></trkpt><trkpt lat="41.1689457" lon="14.9767268"><ele>357.0</ele><time>2026-04-19T12:23:21.971Z</time></trkpt><trkpt lat="41.1690205" lon="14.9768204"><ele>358.0</ele><time>2026-04-19T12:23:22.975Z</time></trkpt><trkpt lat="41.1690877" lon="14.9768905"><ele>359.0</ele><time>2026-04-19T12:23:23.972Z</time></trkpt><trkpt lat="41.1691626" lon="14.9769239"><ele>360.0</ele><time>2026-04-19T12:23:26.035Z</time></trkpt><trkpt lat="41.1692105" lon="14.9768565"><ele>361.0</ele><time>2026-04-19T12:23:36.949Z</time></trkpt><trkpt lat="41.1692451" lon="14.9767817"><ele>362.0</ele><time>2026-04-19T12:23:37.956Z</time></trkpt><trkpt lat="41.1692899" lon="14.9766932"><ele>362.0</ele><time>2026-04-19T12:23:38.952Z</time></trkpt><trkpt lat="41.1693609" lon="14.9766196"><ele>362.0</ele><time>2026-04-19T12:23:39.953Z</time></trkpt><trkpt lat="41.1694402" lon="14.9765528"><ele>362.0</ele><time>2026-04-19T12:23:40.953Z</time></trkpt><trkpt lat="41.1695282" lon="14.9764982"><ele>362.0</ele><time>2026-04-19T12:23:41.957Z</time></trkpt><trkpt lat="41.1696195" lon="14.9764669"><ele>362.0</ele><time>2026-04-19T12:23:42.95Z</time></trkpt><trkpt lat="41.1697176" lon="14.9764435"><ele>362.0</ele><time>2026-04-19T12:23:43.951Z</time></trkpt><trkpt lat="41.1698176" lon="14.9764317"><ele>362.0</ele><time>2026-04-19T12:23:44.956Z</time></trkpt><trkpt lat="41.1699198" lon="14.976422"><ele>362.0</ele><time>2026-04-19T12:23:45.947Z</time></trkpt><trkpt lat="41.1700197" lon="14.9764035"><ele>362.0</ele><time>2026-04-19T12:23:47.029Z</time></trkpt><trkpt lat="41.1701294" lon="14.9763634"><ele>362.0</ele><time>2026-04-19T12:23:48.028Z</time></trkpt><trkpt lat="41.1702369" lon="14.9762845"><ele>363.8</ele><time>2026-04-19T12:23:49.028Z</time></trkpt><trkpt lat="41.1703329" lon="14.976199"><ele>365.6</ele><time>2026-04-19T12:23:49.959Z</time></trkpt><trkpt lat="41.1704125" lon="14.9761317"><ele>367.40000000000003</ele><time>2026-04-19T12:23:51.027Z</time></trkpt><trkpt lat="41.1704918" lon="14.9760801"><ele>369.20000000000005</ele><time>2026-04-19T12:23:52.03Z</time></trkpt><trkpt lat="41.1705833" lon="14.9760544"><ele>371.0</ele><time>2026-04-19T12:23:53.029Z</time></trkpt><trkpt lat="41.1706799" lon="14.9760433"><ele>372.20000000000005</ele><time>2026-04-19T12:23:53.955Z</time></trkpt><trkpt lat="41.1707623" lon="14.9760362"><ele>373.40000000000003</ele><time>2026-04-19T12:23:54.955Z</time></trkpt><trkpt lat="41.1708308" lon="14.9759937"><ele>374.6</ele><time>2026-04-19T12:23:57.012Z</time></trkpt><trkpt lat="41.1708189" lon="14.9758281"><ele>375.8</ele><time>2026-04-19T12:23:58.95Z</time></trkpt><trkpt lat="41.1708153" lon="14.9757172"><ele>377.0</ele><time>2026-04-19T12:23:59.952Z</time></trkpt><trkpt lat="41.1708203" lon="14.9755906"><ele>374.40000000000003</ele><time>2026-04-19T12:24:01.047Z</time></trkpt><trkpt lat="41.1708429" lon="14.9754542"><ele>371.8</ele><time>2026-04-19T12:24:01.955Z</time></trkpt><trkpt lat="41.1708792" lon="14.9753278"><ele>369.2</ele><time>2026-04-19T12:24:02.954Z</time></trkpt><trkpt lat="41.1709228" lon="14.9751996"><ele>366.6</ele><time>2026-04-19T12:24:03.951Z</time></trkpt><trkpt lat="41.1709567" lon="14.9750852"><ele>364.0</ele><time>2026-04-19T12:24:04.951Z</time></trkpt><trkpt lat="41.1709797" lon="14.9749718"><ele>362.0</ele><time>2026-04-19T12:24:05.95Z</time></trkpt><trkpt lat="41.170989" lon="14.9748504"><ele>360.0</ele><time>2026-04-19T12:24:06.954Z</time></trkpt><trkpt lat="41.1710053" lon="14.9747179"><ele>358.0</ele><time>2026-04-19T12:24:07.954Z</time></trkpt><trkpt lat="41.1710149" lon="14.9745843"><ele>356.0</ele><time>2026-04-19T12:24:08.952Z</time></trkpt><trkpt lat="41.1710198" lon="14.974441"><ele>354.0</ele><time>2026-04-19T12:24:09.951Z</time></trkpt><trkpt lat="41.1710177" lon="14.9742947"><ele>351.25</ele><time>2026-04-19T12:24:10.951Z</time></trkpt><trkpt lat="41.1710005" lon="14.9741529"><ele>348.5</ele><time>2026-04-19T12:24:11.974Z</time></trkpt><trkpt lat="41.1709737" lon="14.9740076"><ele>345.75</ele><time>2026-04-19T12:24:12.955Z</time></trkpt><trkpt lat="41.1709457" lon="14.9738537"><ele>343.0</ele><time>2026-04-19T12:24:13.95Z</time></trkpt><trkpt lat="41.1709197" lon="14.9737093"><ele>343.0</ele><time>2026-04-19T12:24:14.952Z</time></trkpt><trkpt lat="41.1709064" lon="14.9735671"><ele>343.0</ele><time>2026-04-19T12:24:15.956Z</time></trkpt><trkpt lat="41.1708909" lon="14.9734251"><ele>343.0</ele><time>2026-04-19T12:24:16.954Z</time></trkpt><trkpt lat="41.1708742" lon="14.9732809"><ele>343.0</ele><time>2026-04-19T12:24:18.031Z</time></trkpt><trkpt lat="41.1708497" lon="14.9731392"><ele>343.0</ele><time>2026-04-19T12:24:19.031Z</time></trkpt><trkpt lat="41.1708236" lon="14.9730262"><ele>341.0</ele><time>2026-04-19T12:24:19.954Z</time></trkpt><trkpt lat="41.170792" lon="14.9729402"><ele>339.0</ele><time>2026-04-19T12:24:20.959Z</time></trkpt><trkpt lat="41.1707423" lon="14.9728744"><ele>337.0</ele><time>2026-04-19T12:24:22.069Z</time></trkpt><trkpt lat="41.1706009" lon="14.9728023"><ele>335.0</ele><time>2026-04-19T12:24:24.017Z</time></trkpt><trkpt lat="41.1705264" lon="14.9727517"><ele>333.0</ele><time>2026-04-19T12:24:25.011Z</time></trkpt><trkpt lat="41.1704643" lon="14.9726712"><ele>330.59999999999997</ele><time>2026-04-19T12:24:26.032Z</time></trkpt><trkpt lat="41.1704062" lon="14.9725728"><ele>328.2</ele><time>2026-04-19T12:24:27.03Z</time></trkpt><trkpt lat="41.1703506" lon="14.9724713"><ele>325.8</ele><time>2026-04-19T12:24:28.03Z</time></trkpt><trkpt lat="41.1702965" lon="14.9723665"><ele>323.4</ele><time>2026-04-19T12:24:29.015Z</time></trkpt><trkpt lat="41.170244" lon="14.972261"><ele>321.0</ele><time>2026-04-19T12:24:29.956Z</time></trkpt><trkpt lat="41.1702016" lon="14.9721452"><ele>319.8</ele><time>2026-04-19T12:24:30.957Z</time></trkpt><trkpt lat="41.1701643" lon="14.9720274"><ele>318.6</ele><time>2026-04-19T12:24:32.041Z</time></trkpt><trkpt lat="41.1701398" lon="14.9719152"><ele>317.4</ele><time>2026-04-19T12:24:33.055Z</time></trkpt><trkpt lat="41.1701272" lon="14.9716768"><ele>316.2</ele><time>2026-04-19T12:24:34.955Z</time></trkpt><trkpt lat="41.170139" lon="14.9715715"><ele>315.0</ele><time>2026-04-19T12:24:35.957Z</time></trkpt><trkpt lat="41.1701492" lon="14.9714726"><ele>312.6666666666667</ele><time>2026-04-19T12:24:37.031Z</time></trkpt><trkpt lat="41.1701634" lon="14.971332"><ele>310.3333333333333</ele><time>2026-04-19T12:24:39.028Z</time></trkpt><trkpt lat="41.1701184" lon="14.9712503"><ele>308.0</ele><time>2026-04-19T12:24:40.961Z</time></trkpt><trkpt lat="41.1700501" lon="14.9712294"><ele>305.66666666666663</ele><time>2026-04-19T12:24:41.962Z</time></trkpt><trkpt lat="41.169985" lon="14.9712255"><ele>303.3333333333333</ele><time>2026-04-19T12:24:42.958Z</time></trkpt><trkpt lat="41.1699167" lon="14.9712538"><ele>301.0</ele><time>2026-04-19T12:24:44.031Z</time></trkpt><trkpt lat="41.1698403" lon="14.9713222"><ele>297.8</ele><time>2026-04-19T12:24:44.956Z</time></trkpt><trkpt lat="41.1697655" lon="14.9714125"><ele>294.6</ele><time>2026-04-19T12:24:45.951Z</time></trkpt><trkpt lat="41.1696997" lon="14.9714918"><ele>291.4</ele><time>2026-04-19T12:24:46.95Z</time></trkpt><trkpt lat="41.1695959" lon="14.9715433"><ele>288.2</ele><time>2026-04-19T12:24:48.951Z</time></trkpt><trkpt lat="41.1695121" lon="14.9714959"><ele>285.0</ele><time>2026-04-19T12:24:50.95Z</time></trkpt><trkpt lat="41.1694817" lon="14.9714132"><ele>285.0</ele><time>2026-04-19T12:24:51.95Z</time></trkpt><trkpt lat="41.1694521" lon="14.9712939"><ele>285.0</ele><time>2026-04-19T12:24:52.952Z</time></trkpt><trkpt lat="41.1694132" lon="14.9711738"><ele>285.0</ele><time>2026-04-19T12:24:53.952Z</time></trkpt><trkpt lat="41.1693811" lon="14.9710581"><ele>285.0</ele><time>2026-04-19T12:24:54.949Z</time></trkpt><trkpt lat="41.1693564" lon="14.9709283"><ele>285.0</ele><time>2026-04-19T12:24:55.952Z</time></trkpt><trkpt lat="41.1693305" lon="14.9708009"><ele>283.0</ele><time>2026-04-19T12:24:56.95Z</time></trkpt><trkpt lat="41.1693034" lon="14.9706809"><ele>281.0</ele><time>2026-04-19T12:24:57.956Z</time></trkpt><trkpt lat="41.1692803" lon="14.970572"><ele>279.0</ele><time>2026-04-19T12:24:58.95Z</time></trkpt><trkpt lat="41.1692649" lon="14.9704434"><ele>277.0</ele><time>2026-04-19T12:24:59.948Z</time></trkpt><trkpt lat="41.1692498" lon="14.970318"><ele>275.0</ele><time>2026-04-19T12:25:00.955Z</time></trkpt><trkpt lat="41.1692348" lon="14.9702203"><ele>273.0</ele><time>2026-04-19T12:25:01.948Z</time></trkpt><trkpt lat="41.1692304" lon="14.9701237"><ele>273.0</ele><time>2026-04-19T12:25:02.949Z</time></trkpt><trkpt lat="41.1692283" lon="14.9700281"><ele>273.0</ele><time>2026-04-19T12:25:03.956Z</time></trkpt><trkpt lat="41.1692314" lon="14.9699344"><ele>273.0</ele><time>2026-04-19T12:25:04.946Z</time></trkpt><trkpt lat="41.1692418" lon="14.9698335"><ele>273.0</ele><time>2026-04-19T12:25:05.948Z</time></trkpt><trkpt lat="41.1692462" lon="14.9697317"><ele>273.0</ele><time>2026-04-19T12:25:06.952Z</time></trkpt><trkpt lat="41.1692447" lon="14.9696187"><ele>273.0</ele><time>2026-04-19T12:25:07.952Z</time></trkpt><trkpt lat="41.1692595" lon="14.9695066"><ele>270.8</ele><time>2026-04-19T12:25:08.952Z</time></trkpt><trkpt lat="41.1692803" lon="14.9693831"><ele>268.6</ele><time>2026-04-19T12:25:09.956Z</time></trkpt><trkpt lat="41.1692976" lon="14.9692433"><ele>266.4</ele><time>2026-04-19T12:25:10.949Z</time></trkpt><trkpt lat="41.1693023" lon="14.969107"><ele>264.2</ele><time>2026-04-19T12:25:12.031Z</time></trkpt><trkpt lat="41.1692921" lon="14.9689789"><ele>262.0</ele><time>2026-04-19T12:25:13.028Z</time></trkpt><trkpt lat="41.169281" lon="14.968842"><ele>259.2</ele><time>2026-04-19T12:25:14.033Z</time></trkpt><trkpt lat="41.1692737" lon="14.9687151"><ele>256.4</ele><time>2026-04-19T12:25:14.959Z</time></trkpt><trkpt lat="41.1692652" lon="14.9685864"><ele>253.60000000000002</ele><time>2026-04-19T12:25:15.959Z</time></trkpt><trkpt lat="41.1692548" lon="14.9684559"><ele>250.8</ele><time>2026-04-19T12:25:17.03Z</time></trkpt><trkpt lat="41.1692457" lon="14.9683167"><ele>248.0</ele><time>2026-04-19T12:25:18.031Z</time></trkpt><trkpt lat="41.1692384" lon="14.9681741"><ele>244.5</ele><time>2026-04-19T12:25:19.03Z</time></trkpt><trkpt lat="41.169229" lon="14.968027"><ele>241.0</ele><time>2026-04-19T12:25:19.962Z</time></trkpt><trkpt lat="41.1692177" lon="14.9678697"><ele>237.5</ele><time>2026-04-19T12:25:20.952Z</time></trkpt><trkpt lat="41.1692011" lon="14.9677068"><ele>234.0</ele><time>2026-04-19T12:25:21.978Z</time></trkpt><trkpt lat="41.169189" lon="14.9675466"><ele>231.0</ele><time>2026-04-19T12:25:23.033Z</time></trkpt><trkpt lat="41.1691729" lon="14.9673863"><ele>228.0</ele><time>2026-04-19T12:25:24.03Z</time></trkpt><trkpt lat="41.1691597" lon="14.9672186"><ele>225.0</ele><time>2026-04-19T12:25:24.958Z</time></trkpt><trkpt lat="41.1691486" lon="14.9670528"><ele>222.0</ele><time>2026-04-19T12:25:25.952Z</time></trkpt><trkpt lat="41.1691335" lon="14.9668865"><ele>222.0</ele><time>2026-04-19T12:25:26.961Z</time></trkpt><trkpt lat="41.1691227" lon="14.966721"><ele>222.0</ele><time>2026-04-19T12:25:27.974Z</time></trkpt><trkpt lat="41.1691071" lon="14.966557"><ele>222.0</ele><time>2026-04-19T12:25:28.955Z</time></trkpt><trkpt lat="41.1690978" lon="14.9664158"><ele>222.0</ele><time>2026-04-19T12:25:29.948Z</time></trkpt><trkpt lat="41.1690876" lon="14.9662815"><ele>219.39999999999998</ele><time>2026-04-19T12:25:30.952Z</time></trkpt><trkpt lat="41.1690768" lon="14.9661359"><ele>216.79999999999998</ele><time>2026-04-19T12:25:31.952Z</time></trkpt><trkpt lat="41.169067" lon="14.9659898"><ele>214.2</ele><time>2026-04-19T12:25:32.96Z</time></trkpt><trkpt lat="41.1690517" lon="14.9658628"><ele>211.6</ele><time>2026-04-19T12:25:33.945Z</time></trkpt><trkpt lat="41.1690434" lon="14.9657482"><ele>209.0</ele><time>2026-04-19T12:25:34.951Z</time></trkpt><trkpt lat="41.1690292" lon="14.9656546"><ele>206.0</ele><time>2026-04-19T12:25:35.949Z</time></trkpt><trkpt lat="41.1689934" lon="14.9654944"><ele>203.0</ele><time>2026-04-19T12:25:37.942Z</time></trkpt><trkpt lat="41.1689849" lon="14.9654067"><ele>200.0</ele><time>2026-04-19T12:25:38.954Z</time></trkpt><trkpt lat="41.1689723" lon="14.9652881"><ele>197.0</ele><time>2026-04-19T12:25:39.953Z</time></trkpt><trkpt lat="41.168961" lon="14.965155"><ele>194.0</ele><time>2026-04-19T12:25:40.958Z</time></trkpt><trkpt lat="41.1689475" lon="14.9650001"><ele>193.0</ele><time>2026-04-19T12:25:42.025Z</time></trkpt><trkpt lat="41.1689331" lon="14.9648364"><ele>192.0</ele><time>2026-04-19T12:25:43.034Z</time></trkpt><trkpt lat="41.1689225" lon="14.9646801"><ele>191.0</ele><time>2026-04-19T12:25:44.034Z</time></trkpt><trkpt lat="41.168912" lon="14.9645221"><ele>190.0</ele><time>2026-04-19T12:25:44.954Z</time></trkpt><trkpt lat="41.1689" lon="14.9643751"><ele>190.0</ele><time>2026-04-19T12:25:45.96Z</time></trkpt><trkpt lat="41.1688896" lon="14.9642436"><ele>190.0</ele><time>2026-04-19T12:25:46.963Z</time></trkpt><trkpt lat="41.1688885" lon="14.9641564"><ele>190.0</ele><time>2026-04-19T12:25:47.952Z</time></trkpt><trkpt lat="41.1689346" lon="14.9640501"><ele>190.0</ele><time>2026-04-19T12:25:49.954Z</time></trkpt><trkpt lat="41.1690459" lon="14.9640066"><ele>190.0</ele><time>2026-04-19T12:25:51.96Z</time></trkpt><trkpt lat="41.1691282" lon="14.964005"><ele>190.0</ele><time>2026-04-19T12:25:52.963Z</time></trkpt><trkpt lat="41.1692363" lon="14.9640014"><ele>190.0</ele><time>2026-04-19T12:25:54.029Z</time></trkpt><trkpt lat="41.169363" lon="14.9639995"><ele>190.0</ele><time>2026-04-19T12:25:54.957Z</time></trkpt><trkpt lat="41.1695032" lon="14.9639892"><ele>190.0</ele><time>2026-04-19T12:25:55.96Z</time></trkpt><trkpt lat="41.1696445" lon="14.9639869"><ele>190.0</ele><time>2026-04-19T12:25:56.973Z</time></trkpt><trkpt lat="41.1697722" lon="14.9639952"><ele>190.0</ele><time>2026-04-19T12:25:57.952Z</time></trkpt><trkpt lat="41.1698938" lon="14.963994"><ele>190.0</ele><time>2026-04-19T12:25:58.951Z</time></trkpt><trkpt lat="41.170016" lon="14.9640072"><ele>190.0</ele><time>2026-04-19T12:25:59.953Z</time></trkpt><trkpt lat="41.1701205" lon="14.9640201"><ele>190.0</ele><time>2026-04-19T12:26:00.955Z</time></trkpt><trkpt lat="41.170225" lon="14.9640327"><ele>190.0</ele><time>2026-04-19T12:26:01.979Z</time></trkpt><trkpt lat="41.1703277" lon="14.9640442"><ele>190.0</ele><time>2026-04-19T12:26:02.984Z</time></trkpt><trkpt lat="41.170428" lon="14.9640625"><ele>190.0</ele><time>2026-04-19T12:26:03.953Z</time></trkpt><trkpt lat="41.1705321" lon="14.9640804"><ele>190.0</ele><time>2026-04-19T12:26:04.954Z</time></trkpt><trkpt lat="41.1706433" lon="14.9641026"><ele>190.25</ele><time>2026-04-19T12:26:05.952Z</time></trkpt><trkpt lat="41.170757" lon="14.9641205"><ele>190.5</ele><time>2026-04-19T12:26:06.958Z</time></trkpt><trkpt lat="41.1708726" lon="14.9641405"><ele>190.75</ele><time>2026-04-19T12:26:07.953Z</time></trkpt><trkpt lat="41.1709887" lon="14.9641549"><ele>191.0</ele><time>2026-04-19T12:26:08.955Z</time></trkpt><trkpt lat="41.1711077" lon="14.9641728"><ele>191.0</ele><time>2026-04-19T12:26:09.96Z</time></trkpt><trkpt lat="41.1712355" lon="14.9641868"><ele>191.0</ele><time>2026-04-19T12:26:11.023Z</time></trkpt><trkpt lat="41.1713719" lon="14.9642013"><ele>191.0</ele><time>2026-04-19T12:26:12.028Z</time></trkpt><trkpt lat="41.1715215" lon="14.9641987"><ele>191.0</ele><time>2026-04-19T12:26:12.956Z</time></trkpt><trkpt lat="41.1716699" lon="14.9642061"><ele>191.25</ele><time>2026-04-19T12:26:14.031Z</time></trkpt><trkpt lat="41.1718142" lon="14.9642083"><ele>191.5</ele><time>2026-04-19T12:26:14.957Z</time></trkpt><trkpt lat="41.1719453" lon="14.9642067"><ele>191.75</ele><time>2026-04-19T12:26:15.958Z</time></trkpt><trkpt lat="41.1720712" lon="14.9641902"><ele>192.0</ele><time>2026-04-19T12:26:16.98Z</time></trkpt><trkpt lat="41.1721881" lon="14.9641585"><ele>192.0</ele><time>2026-04-19T12:26:17.955Z</time></trkpt><trkpt lat="41.1722964" lon="14.9641102"><ele>192.0</ele><time>2026-04-19T12:26:19.032Z</time></trkpt><trkpt lat="41.1724057" lon="14.9640298"><ele>192.0</ele><time>2026-04-19T12:26:19.965Z</time></trkpt><trkpt lat="41.1725099" lon="14.9639234"><ele>192.0</ele><time>2026-04-19T12:26:20.959Z</time></trkpt><trkpt lat="41.1726205" lon="14.9637939"><ele>192.66666666666669</ele><time>2026-04-19T12:26:22.064Z</time></trkpt><trkpt lat="41.172836" lon="14.9635755"><ele>193.33333333333334</ele><time>2026-04-19T12:26:24.031Z</time></trkpt><trkpt lat="41.17294" lon="14.9634982"><ele>194.0</ele><time>2026-04-19T12:26:24.953Z</time></trkpt><trkpt lat="41.1730679" lon="14.9634427"><ele>194.0</ele><time>2026-04-19T12:26:25.956Z</time></trkpt><trkpt lat="41.1732089" lon="14.963391"><ele>194.0</ele><time>2026-04-19T12:26:26.941Z</time></trkpt><trkpt lat="41.1733598" lon="14.9633487"><ele>194.0</ele><time>2026-04-19T12:26:27.94Z</time></trkpt><trkpt lat="41.1735159" lon="14.9633051"><ele>194.0</ele><time>2026-04-19T12:26:28.953Z</time></trkpt><trkpt lat="41.1736832" lon="14.9632481"><ele>194.0</ele><time>2026-04-19T12:26:29.949Z</time></trkpt><trkpt lat="41.1738155" lon="14.9632107"><ele>194.0</ele><time>2026-04-19T12:26:30.955Z</time></trkpt><trkpt lat="41.173914" lon="14.9631704"><ele>194.0</ele><time>2026-04-19T12:26:32.014Z</time></trkpt><trkpt lat="41.1739914" lon="14.9631248"><ele>194.00000000000003</ele><time>2026-04-19T12:26:33.03Z</time></trkpt><trkpt lat="41.1740595" lon="14.9630832"><ele>194.0</ele><time>2026-04-19T12:26:34.021Z</time></trkpt><trkpt lat="41.1741419" lon="14.9630052"><ele>194.0</ele><time>2026-04-19T12:26:35.961Z</time></trkpt><trkpt lat="41.1742241" lon="14.9630024"><ele>194.0</ele><time>2026-04-19T12:26:39.951Z</time></trkpt><trkpt lat="41.1742662" lon="14.9630798"><ele>194.00000000000003</ele><time>2026-04-19T12:26:48.958Z</time></trkpt><trkpt lat="41.1742719" lon="14.9631907"><ele>194.0</ele><time>2026-04-19T12:26:50.952Z</time></trkpt><trkpt lat="41.1743137" lon="14.9632703"><ele>194.83333333333334</ele><time>2026-04-19T12:26:51.964Z</time></trkpt><trkpt lat="41.1743583" lon="14.9633663"><ele>195.66666666666669</ele><time>2026-04-19T12:26:53.952Z</time></trkpt><trkpt lat="41.1744049" lon="14.9634472"><ele>196.5</ele><time>2026-04-19T12:26:54.952Z</time></trkpt><trkpt lat="41.1744229" lon="14.9635968"><ele>197.33333333333331</ele><time>2026-04-19T12:26:56.956Z</time></trkpt><trkpt lat="41.174375" lon="14.9636696"><ele>198.16666666666666</ele><time>2026-04-19T12:26:58.029Z</time></trkpt><trkpt lat="41.1743244" lon="14.9637394"><ele>199.0</ele><time>2026-04-19T12:26:59.027Z</time></trkpt><trkpt lat="41.1742939" lon="14.9638458"><ele>199.0</ele><time>2026-04-19T12:27:01.018Z</time></trkpt><trkpt lat="41.1743538" lon="14.9638977"><ele>199.0</ele><time>2026-04-19T12:27:02.965Z</time></trkpt><trkpt lat="41.174469" lon="14.9638662"><ele>199.0</ele><time>2026-04-19T12:27:03.955Z</time></trkpt><trkpt lat="41.1745865" lon="14.9638151"><ele>199.0</ele><time>2026-04-19T12:27:04.954Z</time></trkpt><trkpt lat="41.1746639" lon="14.963798"><ele>199.0</ele><time>2026-04-19T12:27:05.969Z</time></trkpt><trkpt lat="41.1747723" lon="14.9638717"><ele>198.99999999999997</ele><time>2026-04-19T12:27:07.952Z</time></trkpt><trkpt lat="41.1748225" lon="14.9639325"><ele>199.0</ele><time>2026-04-19T12:27:08.962Z</time></trkpt><trkpt lat="41.1748767" lon="14.9640228"><ele>199.0</ele><time>2026-04-19T12:27:10.959Z</time></trkpt><trkpt lat="41.1749369" lon="14.9640775"><ele>199.0</ele><time>2026-04-19T12:27:12.963Z</time></trkpt><trkpt lat="41.174945" lon="14.9641664"><ele>199.0</ele><time>2026-04-19T12:27:15.955Z</time></trkpt><trkpt lat="41.1748837" lon="14.9642039"><ele>198.99999999999997</ele><time>2026-04-19T12:27:17.955Z</time></trkpt><trkpt lat="41.1748207" lon="14.9641843"><ele>199.0</ele><time>2026-04-19T12:27:19.956Z</time></trkpt><trkpt lat="41.1747237" lon="14.9642154"><ele>201.6</ele><time>2026-04-19T12:27:21.957Z</time></trkpt><trkpt lat="41.1746625" lon="14.9642535"><ele>204.2</ele><time>2026-04-19T12:27:22.962Z</time></trkpt><trkpt lat="41.1746031" lon="14.9642998"><ele>206.79999999999998</ele><time>2026-04-19T12:27:23.995Z</time></trkpt><trkpt lat="41.1745001" lon="14.9644621"><ele>209.39999999999998</ele><time>2026-04-19T12:27:25.951Z</time></trkpt><trkpt lat="41.1744631" lon="14.9645789"><ele>212.0</ele><time>2026-04-19T12:27:26.954Z</time></trkpt><trkpt lat="41.1744185" lon="14.9646922"><ele>212.00000000000003</ele><time>2026-04-19T12:27:27.953Z</time></trkpt><trkpt lat="41.1743626" lon="14.9648005"><ele>212.0</ele><time>2026-04-19T12:27:29.959Z</time></trkpt><trkpt lat="41.1742864" lon="14.964855"><ele>212.0</ele><time>2026-04-19T12:27:31.949Z</time></trkpt><trkpt lat="41.174207" lon="14.9649079"><ele>212.0</ele><time>2026-04-19T12:27:33.957Z</time></trkpt><trkpt lat="41.1741696" lon="14.9650166"><ele>212.00000000000003</ele><time>2026-04-19T12:27:35.963Z</time></trkpt><trkpt lat="41.1741624" lon="14.965117"><ele>212.0</ele><time>2026-04-19T12:27:37.959Z</time></trkpt><trkpt lat="41.1741185" lon="14.9652699"><ele>213.71428571428572</ele><time>2026-04-19T12:27:39.958Z</time></trkpt><trkpt lat="41.1741046" lon="14.9653584"><ele>215.42857142857142</ele><time>2026-04-19T12:27:40.95Z</time></trkpt><trkpt lat="41.1741176" lon="14.9654409"><ele>217.14285714285714</ele><time>2026-04-19T12:27:41.954Z</time></trkpt><trkpt lat="41.1741452" lon="14.9655317"><ele>218.85714285714286</ele><time>2026-04-19T12:27:42.96Z</time></trkpt><trkpt lat="41.1741796" lon="14.9656464"><ele>220.57142857142856</ele><time>2026-04-19T12:27:43.952Z</time></trkpt><trkpt lat="41.1741863" lon="14.9657424"><ele>222.28571428571428</ele><time>2026-04-19T12:27:44.955Z</time></trkpt><trkpt lat="41.1741966" lon="14.965833"><ele>224.0</ele><time>2026-04-19T12:27:45.95Z</time></trkpt><trkpt lat="41.1742118" lon="14.9659677"><ele>226.16666666666669</ele><time>2026-04-19T12:27:47.958Z</time></trkpt><trkpt lat="41.1742356" lon="14.9660712"><ele>228.33333333333334</ele><time>2026-04-19T12:27:50.958Z</time></trkpt><trkpt lat="41.1743098" lon="14.9660666"><ele>230.5</ele><time>2026-04-19T12:27:51.96Z</time></trkpt><trkpt lat="41.1744061" lon="14.9660491"><ele>232.66666666666669</ele><time>2026-04-19T12:27:52.957Z</time></trkpt><trkpt lat="41.1744885" lon="14.966042"><ele>234.83333333333334</ele><time>2026-04-19T12:27:53.957Z</time></trkpt><trkpt lat="41.1745711" lon="14.9660484"><ele>237.0</ele><time>2026-04-19T12:27:55.961Z</time></trkpt><trkpt lat="41.1745509" lon="14.9662329"><ele>237.0</ele><time>2026-04-19T12:27:57.959Z</time></trkpt><trkpt lat="41.1745299" lon="14.9663774"><ele>237.0</ele><time>2026-04-19T12:27:58.955Z</time></trkpt><trkpt lat="41.1745286" lon="14.9665286"><ele>237.0</ele><time>2026-04-19T12:27:59.958Z</time></trkpt><trkpt lat="41.1745464" lon="14.9666335"><ele>237.0</ele><time>2026-04-19T12:28:00.957Z</time></trkpt><trkpt lat="41.17461" lon="14.9667504"><ele>237.0</ele><time>2026-04-19T12:28:02.955Z</time></trkpt><trkpt lat="41.1746783" lon="14.9668328"><ele>239.0</ele><time>2026-04-19T12:28:04.951Z</time></trkpt><trkpt lat="41.1747026" lon="14.9669162"><ele>241.0</ele><time>2026-04-19T12:28:05.954Z</time></trkpt><trkpt lat="41.1747662" lon="14.966969"><ele>243.0</ele><time>2026-04-19T12:28:08.961Z</time></trkpt><trkpt lat="41.1748422" lon="14.966971"><ele>245.0</ele><time>2026-04-19T12:28:09.952Z</time></trkpt><trkpt lat="41.1749415" lon="14.9669706"><ele>247.0</ele><time>2026-04-19T12:28:11.949Z</time></trkpt><trkpt lat="41.1749684" lon="14.966889"><ele>249.0</ele><time>2026-04-19T12:28:13.954Z</time></trkpt><trkpt lat="41.1749361" lon="14.9667935"><ele>249.16666666666666</ele><time>2026-04-19T12:28:15.955Z</time></trkpt><trkpt lat="41.1749234" lon="14.9666729"><ele>249.33333333333331</ele><time>2026-04-19T12:28:18.959Z</time></trkpt><trkpt lat="41.1748958" lon="14.9665547"><ele>249.5</ele><time>2026-04-19T12:28:20.954Z</time></trkpt><trkpt lat="41.1749127" lon="14.9664636"><ele>249.66666666666666</ele><time>2026-04-19T12:28:22.955Z</time></trkpt><trkpt lat="41.1749619" lon="14.9663983"><ele>249.83333333333331</ele><time>2026-04-19T12:28:24.958Z</time></trkpt><trkpt lat="41.1750413" lon="14.9664909"><ele>250.0</ele><time>2026-04-19T12:28:27.954Z</time></trkpt><trkpt lat="41.1750662" lon="14.9665721"><ele>250.0</ele><time>2026-04-19T12:28:28.957Z</time></trkpt><trkpt lat="41.1751369" lon="14.9666662"><ele>250.0</ele><time>2026-04-19T12:28:30.954Z</time></trkpt><trkpt lat="41.1751695" lon="14.9665719"><ele>250.0</ele><time>2026-04-19T12:28:32.957Z</time></trkpt><trkpt lat="41.1752365" lon="14.9664331"><ele>250.0</ele><time>2026-04-19T12:28:34.956Z</time></trkpt><trkpt lat="41.1752795" lon="14.9663315"><ele>250.0</ele><time>2026-04-19T12:28:35.953Z</time></trkpt><trkpt lat="41.1753282" lon="14.9662262"><ele>250.0</ele><time>2026-04-19T12:28:36.952Z</time></trkpt><trkpt lat="41.1753755" lon="14.9661194"><ele>250.0</ele><time>2026-04-19T12:28:37.962Z</time></trkpt><trkpt lat="41.17542" lon="14.9660165"><ele>250.0</ele><time>2026-04-19T12:28:38.962Z</time></trkpt><trkpt lat="41.1754329" lon="14.9658975"><ele>250.0</ele><time>2026-04-19T12:28:40.958Z</time></trkpt><trkpt lat="41.1754052" lon="14.9657014"><ele>250.0</ele><time>2026-04-19T12:28:42.959Z</time></trkpt><trkpt lat="41.1753982" lon="14.9655723"><ele>246.83333333333331</ele><time>2026-04-19T12:28:43.953Z</time></trkpt><trkpt lat="41.1753918" lon="14.9654518"><ele>243.66666666666666</ele><time>2026-04-19T12:28:44.961Z</time></trkpt><trkpt lat="41.1753634" lon="14.9653522"><ele>240.5</ele><time>2026-04-19T12:28:46.027Z</time></trkpt><trkpt lat="41.1753243" lon="14.9652743"><ele>237.33333333333331</ele><time>2026-04-19T12:28:46.95Z</time></trkpt><trkpt lat="41.1752869" lon="14.9652057"><ele>234.16666666666666</ele><time>2026-04-19T12:28:47.945Z</time></trkpt><trkpt lat="41.175287" lon="14.9650469"><ele>231.0</ele><time>2026-04-19T12:28:49.946Z</time></trkpt><trkpt lat="41.1753054" lon="14.9648963"><ele>228.60000000000002</ele><time>2026-04-19T12:28:51.974Z</time></trkpt><trkpt lat="41.1753786" lon="14.9648082"><ele>226.20000000000002</ele><time>2026-04-19T12:28:54.026Z</time></trkpt><trkpt lat="41.175489" lon="14.9647976"><ele>223.79999999999998</ele><time>2026-04-19T12:28:55.949Z</time></trkpt><trkpt lat="41.1755665" lon="14.9647086"><ele>221.39999999999998</ele><time>2026-04-19T12:28:58.958Z</time></trkpt><trkpt lat="41.1756263" lon="14.9646331"><ele>219.0</ele><time>2026-04-19T12:29:01.035Z</time></trkpt><trkpt lat="41.1756528" lon="14.9645246"><ele>219.0</ele><time>2026-04-19T12:29:02.953Z</time></trkpt><trkpt lat="41.1756117" lon="14.9644515"><ele>219.0</ele><time>2026-04-19T12:29:03.951Z</time></trkpt><trkpt lat="41.1755528" lon="14.9643239"><ele>219.0</ele><time>2026-04-19T12:29:05.958Z</time></trkpt><trkpt lat="41.1755203" lon="14.9642506"><ele>219.0</ele><time>2026-04-19T12:29:07.954Z</time></trkpt><trkpt lat="41.1754559" lon="14.9641769"><ele>219.0</ele><time>2026-04-19T12:29:09.955Z</time></trkpt><trkpt lat="41.1754188" lon="14.9641082"><ele>219.0</ele><time>2026-04-19T12:29:10.956Z</time></trkpt><trkpt lat="41.175345" lon="14.9639991"><ele>216.39999999999998</ele><time>2026-04-19T12:29:11.954Z</time></trkpt><trkpt lat="41.1752902" lon="14.9639051"><ele>213.79999999999998</ele><time>2026-04-19T12:29:12.958Z</time></trkpt><trkpt lat="41.1752494" lon="14.9638226"><ele>211.2</ele><time>2026-04-19T12:29:13.955Z</time></trkpt><trkpt lat="41.1752006" lon="14.963693"><ele>208.60000000000002</ele><time>2026-04-19T12:29:14.953Z</time></trkpt><trkpt lat="41.175136" lon="14.9635226"><ele>206.0</ele><time>2026-04-19T12:29:15.955Z</time></trkpt><trkpt lat="41.1750881" lon="14.9633938"><ele>203.75</ele><time>2026-04-19T12:29:16.952Z</time></trkpt><trkpt lat="41.1750611" lon="14.9632469"><ele>201.5</ele><time>2026-04-19T12:29:18.954Z</time></trkpt><trkpt lat="41.1751978" lon="14.9631461"><ele>199.25</ele><time>2026-04-19T12:29:20.952Z</time></trkpt><trkpt lat="41.1752747" lon="14.9630981"><ele>197.0</ele><time>2026-04-19T12:29:21.954Z</time></trkpt><trkpt lat="41.1753759" lon="14.963136"><ele>197.00000000000003</ele><time>2026-04-19T12:29:24.952Z</time></trkpt><trkpt lat="41.1754363" lon="14.9631855"><ele>197.0</ele><time>2026-04-19T12:29:25.944Z</time></trkpt><trkpt lat="41.1755099" lon="14.9632124"><ele>197.0</ele><time>2026-04-19T12:29:26.954Z</time></trkpt><trkpt lat="41.1755872" lon="14.9632153"><ele>197.0</ele><time>2026-04-19T12:29:28.039Z</time></trkpt><trkpt lat="41.175682" lon="14.9632175"><ele>197.00000000000003</ele><time>2026-04-19T12:29:29.031Z</time></trkpt><trkpt lat="41.175764" lon="14.9632407"><ele>197.0</ele><time>2026-04-19T12:29:29.954Z</time></trkpt><trkpt lat="41.1758724" lon="14.9632832"><ele>197.6</ele><time>2026-04-19T12:29:31.958Z</time></trkpt><trkpt lat="41.1759987" lon="14.9632813"><ele>198.2</ele><time>2026-04-19T12:29:33.956Z</time></trkpt><trkpt lat="41.1760948" lon="14.9632758"><ele>198.8</ele><time>2026-04-19T12:29:35.969Z</time></trkpt><trkpt lat="41.1762047" lon="14.9632554"><ele>199.4</ele><time>2026-04-19T12:29:37.951Z</time></trkpt><trkpt lat="41.1762951" lon="14.9632831"><ele>200.0</ele><time>2026-04-19T12:29:38.954Z</time></trkpt><trkpt lat="41.1763885" lon="14.9633335"><ele>201.6</ele><time>2026-04-19T12:29:39.945Z</time></trkpt><trkpt lat="41.1764783" lon="14.9633986"><ele>203.2</ele><time>2026-04-19T12:29:41.027Z</time></trkpt><trkpt lat="41.1765548" lon="14.963446"><ele>204.8</ele><time>2026-04-19T12:29:41.97Z</time></trkpt><trkpt lat="41.1766274" lon="14.9634735"><ele>206.4</ele><time>2026-04-19T12:29:43.032Z</time></trkpt><trkpt lat="41.1767196" lon="14.9635185"><ele>208.0</ele><time>2026-04-19T12:29:44.027Z</time></trkpt><trkpt lat="41.1768029" lon="14.9635626"><ele>207.99999999999997</ele><time>2026-04-19T12:29:44.987Z</time></trkpt><trkpt lat="41.1768788" lon="14.9636039"><ele>208.0</ele><time>2026-04-19T12:29:46.032Z</time></trkpt><trkpt lat="41.1769677" lon="14.9636305"><ele>208.0</ele><time>2026-04-19T12:29:47.032Z</time></trkpt><trkpt lat="41.1770542" lon="14.9636755"><ele>208.0</ele><time>2026-04-19T12:29:48.029Z</time></trkpt><trkpt lat="41.1771373" lon="14.9637202"><ele>207.99999999999997</ele><time>2026-04-19T12:29:49.033Z</time></trkpt><trkpt lat="41.1772137" lon="14.9637688"><ele>208.0</ele><time>2026-04-19T12:29:49.95Z</time></trkpt><trkpt lat="41.1772883" lon="14.9638123"><ele>207.16666666666666</ele><time>2026-04-19T12:29:50.955Z</time></trkpt><trkpt lat="41.1773731" lon="14.9638626"><ele>206.33333333333331</ele><time>2026-04-19T12:29:51.947Z</time></trkpt><trkpt lat="41.1774524" lon="14.9639003"><ele>205.5</ele><time>2026-04-19T12:29:53.035Z</time></trkpt><trkpt lat="41.1775192" lon="14.9639298"><ele>204.66666666666669</ele><time>2026-04-19T12:29:54.028Z</time></trkpt><trkpt lat="41.1775966" lon="14.9640376"><ele>203.83333333333334</ele><time>2026-04-19T12:29:55.952Z</time></trkpt><trkpt lat="41.1776183" lon="14.9641293"><ele>203.0</ele><time>2026-04-19T12:29:56.946Z</time></trkpt><trkpt lat="41.1776463" lon="14.9642085"><ele>205.4</ele><time>2026-04-19T12:29:58.037Z</time></trkpt><trkpt lat="41.1777426" lon="14.9643221"><ele>207.8</ele><time>2026-04-19T12:29:59.949Z</time></trkpt><trkpt lat="41.1777941" lon="14.9643909"><ele>210.2</ele><time>2026-04-19T12:30:00.954Z</time></trkpt><trkpt lat="41.1778442" lon="14.9644673"><ele>212.6</ele><time>2026-04-19T12:30:01.956Z</time></trkpt><trkpt lat="41.1779186" lon="14.9645723"><ele>215.0</ele><time>2026-04-19T12:30:03.029Z</time></trkpt><trkpt lat="41.1780063" lon="14.9646701"><ele>215.0</ele><time>2026-04-19T12:30:04.033Z</time></trkpt><trkpt lat="41.1780808" lon="14.964744"><ele>215.0</ele><time>2026-04-19T12:30:04.951Z</time></trkpt><trkpt lat="41.1781742" lon="14.9648192"><ele>215.0</ele><time>2026-04-19T12:30:05.945Z</time></trkpt><trkpt lat="41.178264" lon="14.9648941"><ele>215.0</ele><time>2026-04-19T12:30:07.018Z</time></trkpt><trkpt lat="41.1783298" lon="14.9649441"><ele>215.0</ele><time>2026-04-19T12:30:07.95Z</time></trkpt><trkpt lat="41.1784477" lon="14.9649835"><ele>215.4</ele><time>2026-04-19T12:30:09.942Z</time></trkpt><trkpt lat="41.1785374" lon="14.9650171"><ele>215.8</ele><time>2026-04-19T12:30:10.947Z</time></trkpt><trkpt lat="41.1786286" lon="14.9650895"><ele>216.2</ele><time>2026-04-19T12:30:11.949Z</time></trkpt><trkpt lat="41.1786827" lon="14.9651534"><ele>216.6</ele><time>2026-04-19T12:30:12.953Z</time></trkpt><trkpt lat="41.1787017" lon="14.9653101"><ele>217.0</ele><time>2026-04-19T12:30:14.958Z</time></trkpt><trkpt lat="41.1786882" lon="14.9654023"><ele>217.0</ele><time>2026-04-19T12:30:16.026Z</time></trkpt><trkpt lat="41.1786723" lon="14.9654948"><ele>217.0</ele><time>2026-04-19T12:30:17.951Z</time></trkpt><trkpt lat="41.1785323" lon="14.9653988"><ele>217.0</ele><time>2026-04-19T12:30:19.946Z</time></trkpt><trkpt lat="41.178429" lon="14.9652796"><ele>217.0</ele><time>2026-04-19T12:30:20.956Z</time></trkpt><trkpt lat="41.1783079" lon="14.9651385"><ele>216.5</ele><time>2026-04-19T12:30:22.031Z</time></trkpt><trkpt lat="41.1781752" lon="14.965015"><ele>216.0</ele><time>2026-04-19T12:30:23.027Z</time></trkpt><trkpt lat="41.1780594" lon="14.9649095"><ele>215.5</ele><time>2026-04-19T12:30:23.962Z</time></trkpt><trkpt lat="41.1779775" lon="14.9648452"><ele>215.0</ele><time>2026-04-19T12:30:24.949Z</time></trkpt><trkpt lat="41.1779031" lon="14.964812"><ele>215.0</ele><time>2026-04-19T12:30:25.946Z</time></trkpt><trkpt lat="41.1778368" lon="14.964812"><ele>215.0</ele><time>2026-04-19T12:30:26.951Z</time></trkpt><trkpt lat="41.177772" lon="14.9647556"><ele>215.0</ele><time>2026-04-19T12:30:30.952Z</time></trkpt><trkpt lat="41.1777437" lon="14.9646299"><ele>215.0</ele><time>2026-04-19T12:30:33.037Z</time></trkpt><trkpt lat="41.1776623" lon="14.9644974"><ele>215.0</ele><time>2026-04-19T12:30:33.945Z</time></trkpt><trkpt lat="41.1775523" lon="14.9643587"><ele>215.0</ele><time>2026-04-19T12:30:34.943Z</time></trkpt><trkpt lat="41.1774196" lon="14.9642032"><ele>215.0</ele><time>2026-04-19T12:30:35.944Z</time></trkpt><trkpt lat="41.1772855" lon="14.9640524"><ele>215.0</ele><time>2026-04-19T12:30:36.948Z</time></trkpt><trkpt lat="41.1771619" lon="14.9639268"><ele>213.25</ele><time>2026-04-19T12:30:37.949Z</time></trkpt><trkpt lat="41.1770298" lon="14.9638437"><ele>211.5</ele><time>2026-04-19T12:30:38.949Z</time></trkpt><trkpt lat="41.1769053" lon="14.9637779"><ele>209.75</ele><time>2026-04-19T12:30:39.946Z</time></trkpt><trkpt lat="41.1768117" lon="14.9637351"><ele>208.0</ele><time>2026-04-19T12:30:40.946Z</time></trkpt><trkpt lat="41.1767117" lon="14.9637228"><ele>208.0</ele><time>2026-04-19T12:30:41.944Z</time></trkpt><trkpt lat="41.1766022" lon="14.9637364"><ele>208.0</ele><time>2026-04-19T12:30:42.954Z</time></trkpt><trkpt lat="41.1765098" lon="14.9637501"><ele>208.0</ele><time>2026-04-19T12:30:43.946Z</time></trkpt><trkpt lat="41.1764185" lon="14.9637745"><ele>208.0</ele><time>2026-04-19T12:30:44.95Z</time></trkpt><trkpt lat="41.1763317" lon="14.9637885"><ele>208.0</ele><time>2026-04-19T12:30:45.947Z</time></trkpt><trkpt lat="41.1762608" lon="14.963784"><ele>208.49999999999997</ele><time>2026-04-19T12:30:46.964Z</time></trkpt><trkpt lat="41.1761908" lon="14.9637991"><ele>209.0</ele><time>2026-04-19T12:30:48.951Z</time></trkpt><trkpt lat="41.1761938" lon="14.9638951"><ele>209.5</ele><time>2026-04-19T12:30:50.949Z</time></trkpt><trkpt lat="41.1762131" lon="14.9639784"><ele>210.0</ele><time>2026-04-19T12:30:51.953Z</time></trkpt><trkpt lat="41.1761847" lon="14.9641058"><ele>210.49999999999997</ele><time>2026-04-19T12:30:54.029Z</time></trkpt><trkpt lat="41.1761519" lon="14.9641866"><ele>211.0</ele><time>2026-04-19T12:30:55.948Z</time></trkpt><trkpt lat="41.1762574" lon="14.9642184"><ele>213.4</ele><time>2026-04-19T12:30:58.953Z</time></trkpt><trkpt lat="41.1763541" lon="14.9641977"><ele>215.8</ele><time>2026-04-19T12:30:59.949Z</time></trkpt><trkpt lat="41.1764412" lon="14.964206"><ele>218.20000000000002</ele><time>2026-04-19T12:31:00.952Z</time></trkpt><trkpt lat="41.1765268" lon="14.9642469"><ele>220.60000000000002</ele><time>2026-04-19T12:31:02.95Z</time></trkpt><trkpt lat="41.1765871" lon="14.9643691"><ele>223.0</ele><time>2026-04-19T12:31:04.95Z</time></trkpt><trkpt lat="41.1766505" lon="14.964496"><ele>223.0</ele><time>2026-04-19T12:31:06.956Z</time></trkpt><trkpt lat="41.1767219" lon="14.9645321"><ele>223.0</ele><time>2026-04-19T12:31:09.015Z</time></trkpt><trkpt lat="41.1767864" lon="14.9644746"><ele>223.0</ele><time>2026-04-19T12:31:10.95Z</time></trkpt><trkpt lat="41.1768606" lon="14.9644595"><ele>223.0</ele><time>2026-04-19T12:31:12.95Z</time></trkpt><trkpt lat="41.176922" lon="14.9644846"><ele>223.0</ele><time>2026-04-19T12:31:14.951Z</time></trkpt><trkpt lat="41.1769865" lon="14.9645129"><ele>223.0</ele><time>2026-04-19T12:31:16.96Z</time></trkpt><trkpt lat="41.1770365" lon="14.9645642"><ele>223.0</ele><time>2026-04-19T12:31:18.954Z</time></trkpt><trkpt lat="41.1770822" lon="14.9646561"><ele>222.99999999999997</ele><time>2026-04-19T12:31:21.95Z</time></trkpt><trkpt lat="41.1770752" lon="14.9647527"><ele>223.0</ele><time>2026-04-19T12:31:23.953Z</time></trkpt><trkpt lat="41.1770975" lon="14.9648884"><ele>223.0</ele><time>2026-04-19T12:31:26.955Z</time></trkpt><trkpt lat="41.177168" lon="14.9650187"><ele>223.0</ele><time>2026-04-19T12:31:28.953Z</time></trkpt><trkpt lat="41.1772159" lon="14.9650838"><ele>222.99999999999997</ele><time>2026-04-19T12:31:29.951Z</time></trkpt><trkpt lat="41.1772743" lon="14.9651186"><ele>223.0</ele><time>2026-04-19T12:31:30.952Z</time></trkpt><trkpt lat="41.1773599" lon="14.9651841"><ele>224.60000000000002</ele><time>2026-04-19T12:31:31.95Z</time></trkpt><trkpt lat="41.1774718" lon="14.9652633"><ele>226.20000000000002</ele><time>2026-04-19T12:31:32.956Z</time></trkpt><trkpt lat="41.1775709" lon="14.9653314"><ele>227.8</ele><time>2026-04-19T12:31:33.948Z</time></trkpt><trkpt lat="41.1776493" lon="14.965417"><ele>229.4</ele><time>2026-04-19T12:31:34.944Z</time></trkpt><trkpt lat="41.1777335" lon="14.9655069"><ele>231.0</ele><time>2026-04-19T12:31:35.95Z</time></trkpt><trkpt lat="41.1778081" lon="14.9655962"><ele>231.0</ele><time>2026-04-19T12:31:36.95Z</time></trkpt><trkpt lat="41.1778654" lon="14.9656703"><ele>231.0</ele><time>2026-04-19T12:31:37.951Z</time></trkpt><trkpt lat="41.1779258" lon="14.9657491"><ele>231.0</ele><time>2026-04-19T12:31:38.948Z</time></trkpt><trkpt lat="41.1779949" lon="14.9658124"><ele>231.0</ele><time>2026-04-19T12:31:39.955Z</time></trkpt><trkpt lat="41.1780594" lon="14.9658873"><ele>231.0</ele><time>2026-04-19T12:31:40.954Z</time></trkpt><trkpt lat="41.1781169" lon="14.965934"><ele>231.0</ele><time>2026-04-19T12:31:41.955Z</time></trkpt><trkpt lat="41.1782024" lon="14.9660687"><ele>229.8</ele><time>2026-04-19T12:31:43.943Z</time></trkpt><trkpt lat="41.1782273" lon="14.9661485"><ele>228.60000000000002</ele><time>2026-04-19T12:31:44.958Z</time></trkpt><trkpt lat="41.1782213" lon="14.9662564"><ele>227.4</ele><time>2026-04-19T12:31:45.948Z</time></trkpt><trkpt lat="41.1782319" lon="14.9663668"><ele>226.2</ele><time>2026-04-19T12:31:46.951Z</time></trkpt><trkpt lat="41.1782945" lon="14.9665402"><ele>225.0</ele><time>2026-04-19T12:31:48.952Z</time></trkpt><trkpt lat="41.1783622" lon="14.9666256"><ele>225.5</ele><time>2026-04-19T12:31:49.951Z</time></trkpt><trkpt lat="41.1784191" lon="14.9666995"><ele>226.0</ele><time>2026-04-19T12:31:50.949Z</time></trkpt><trkpt lat="41.1784545" lon="14.9667735"><ele>226.5</ele><time>2026-04-19T12:31:51.953Z</time></trkpt><trkpt lat="41.1785079" lon="14.9668354"><ele>227.0</ele><time>2026-04-19T12:31:52.953Z</time></trkpt><trkpt lat="41.178558" lon="14.9669005"><ele>227.5</ele><time>2026-04-19T12:31:53.95Z</time></trkpt><trkpt lat="41.1786203" lon="14.9669803"><ele>228.0</ele><time>2026-04-19T12:31:54.951Z</time></trkpt><trkpt lat="41.1786643" lon="14.9670725"><ele>228.0</ele><time>2026-04-19T12:31:55.956Z</time></trkpt><trkpt lat="41.1787186" lon="14.9671547"><ele>228.0</ele><time>2026-04-19T12:31:56.957Z</time></trkpt><trkpt lat="41.178793" lon="14.9672099"><ele>228.0</ele><time>2026-04-19T12:31:57.95Z</time></trkpt><trkpt lat="41.178885" lon="14.9672496"><ele>228.0</ele><time>2026-04-19T12:31:58.949Z</time></trkpt><trkpt lat="41.1789619" lon="14.9672901"><ele>228.0</ele><time>2026-04-19T12:31:59.952Z</time></trkpt><trkpt lat="41.1790248" lon="14.9672947"><ele>228.0</ele><time>2026-04-19T12:32:00.959Z</time></trkpt><trkpt lat="41.1791013" lon="14.9672898"><ele>225.0</ele><time>2026-04-19T12:32:02.957Z</time></trkpt><trkpt lat="41.1791342" lon="14.9671589"><ele>222.0</ele><time>2026-04-19T12:32:05.952Z</time></trkpt><trkpt lat="41.1791849" lon="14.9670182"><ele>219.0</ele><time>2026-04-19T12:32:07.95Z</time></trkpt><trkpt lat="41.1792236" lon="14.9669424"><ele>216.0</ele><time>2026-04-19T12:32:08.957Z</time></trkpt><trkpt lat="41.1793156" lon="14.9669384"><ele>213.0</ele><time>2026-04-19T12:32:11.947Z</time></trkpt><trkpt lat="41.1793927" lon="14.9669592"><ele>213.0</ele><time>2026-04-19T12:32:13.952Z</time></trkpt><trkpt lat="41.1794453" lon="14.9671032"><ele>213.0</ele><time>2026-04-19T12:32:15.951Z</time></trkpt><trkpt lat="41.1794667" lon="14.9671851"><ele>213.0</ele><time>2026-04-19T12:32:16.949Z</time></trkpt><trkpt lat="41.1794846" lon="14.9672746"><ele>213.0</ele><time>2026-04-19T12:32:17.954Z</time></trkpt><trkpt lat="41.1795191" lon="14.9674372"><ele>213.0</ele><time>2026-04-19T12:32:19.95Z</time></trkpt><trkpt lat="41.1795359" lon="14.9675202"><ele>213.0</ele><time>2026-04-19T12:32:20.958Z</time></trkpt><trkpt lat="41.1795541" lon="14.9676044"><ele>215.8</ele><time>2026-04-19T12:32:21.946Z</time></trkpt><trkpt lat="41.1795722" lon="14.967687"><ele>218.60000000000002</ele><time>2026-04-19T12:32:22.954Z</time></trkpt><trkpt lat="41.1796094" lon="14.9678387"><ele>221.39999999999998</ele><time>2026-04-19T12:32:24.946Z</time></trkpt><trkpt lat="41.1796556" lon="14.9679766"><ele>224.2</ele><time>2026-04-19T12:32:26.951Z</time></trkpt><trkpt lat="41.1796892" lon="14.9681144"><ele>227.0</ele><time>2026-04-19T12:32:28.945Z</time></trkpt><trkpt lat="41.1797133" lon="14.9682618"><ele>229.2</ele><time>2026-04-19T12:32:30.953Z</time></trkpt><trkpt lat="41.1797373" lon="14.9684163"><ele>231.39999999999998</ele><time>2026-04-19T12:32:32.949Z</time></trkpt><trkpt lat="41.1797534" lon="14.9685462"><ele>233.60000000000002</ele><time>2026-04-19T12:32:34.953Z</time></trkpt><trkpt lat="41.1797667" lon="14.9686888"><ele>235.8</ele><time>2026-04-19T12:32:36.953Z</time></trkpt><trkpt lat="41.1797866" lon="14.9688396"><ele>238.0</ele><time>2026-04-19T12:32:38.941Z</time></trkpt><trkpt lat="41.1798008" lon="14.9690019"><ele>237.99999999999997</ele><time>2026-04-19T12:32:40.95Z</time></trkpt><trkpt lat="41.1798045" lon="14.9690899"><ele>238.0</ele><time>2026-04-19T12:32:41.946Z</time></trkpt><trkpt lat="41.1798025" lon="14.9691821"><ele>238.0</ele><time>2026-04-19T12:32:42.947Z</time></trkpt><trkpt lat="41.1798051" lon="14.9692774"><ele>238.0</ele><time>2026-04-19T12:32:43.947Z</time></trkpt><trkpt lat="41.179819" lon="14.9693798"><ele>237.99999999999997</ele><time>2026-04-19T12:32:44.946Z</time></trkpt><trkpt lat="41.1798305" lon="14.9694695"><ele>238.0</ele><time>2026-04-19T12:32:45.95Z</time></trkpt><trkpt lat="41.1798273" lon="14.9695983"><ele>237.75</ele><time>2026-04-19T12:32:47.945Z</time></trkpt><trkpt lat="41.1798178" lon="14.9697627"><ele>237.5</ele><time>2026-04-19T12:32:59.947Z</time></trkpt><trkpt lat="41.1798667" lon="14.9699121"><ele>237.25</ele><time>2026-04-19T12:33:00.957Z</time></trkpt><trkpt lat="41.1799125" lon="14.9700407"><ele>237.0</ele><time>2026-04-19T12:33:01.951Z</time></trkpt><trkpt lat="41.1799636" lon="14.9701655"><ele>231.0</ele><time>2026-04-19T12:33:02.948Z</time></trkpt><trkpt lat="41.1800203" lon="14.9702891"><ele>225.0</ele><time>2026-04-19T12:33:03.954Z</time></trkpt><trkpt lat="41.180082" lon="14.9704083"><ele>219.0</ele><time>2026-04-19T12:33:04.945Z</time></trkpt><trkpt lat="41.180142" lon="14.9705252"><ele>213.0</ele><time>2026-04-19T12:33:05.95Z</time></trkpt><trkpt lat="41.1801974" lon="14.9706444"><ele>207.0</ele><time>2026-04-19T12:33:06.952Z</time></trkpt><trkpt lat="41.1802589" lon="14.9707596"><ele>207.2</ele><time>2026-04-19T12:33:07.951Z</time></trkpt><trkpt lat="41.1803232" lon="14.9708696"><ele>207.39999999999998</ele><time>2026-04-19T12:33:09.031Z</time></trkpt><trkpt lat="41.1803947" lon="14.9709853"><ele>207.60000000000002</ele><time>2026-04-19T12:33:09.963Z</time></trkpt><trkpt lat="41.1804611" lon="14.9710978"><ele>207.8</ele><time>2026-04-19T12:33:10.955Z</time></trkpt><trkpt lat="41.1805167" lon="14.9712086"><ele>208.0</ele><time>2026-04-19T12:33:11.96Z</time></trkpt><trkpt lat="41.1805613" lon="14.9713282"><ele>208.0</ele><time>2026-04-19T12:33:12.963Z</time></trkpt><trkpt lat="41.1806055" lon="14.9714578"><ele>208.0</ele><time>2026-04-19T12:33:13.955Z</time></trkpt><trkpt lat="41.180656" lon="14.9715938"><ele>208.0</ele><time>2026-04-19T12:33:14.958Z</time></trkpt><trkpt lat="41.180707" lon="14.9717356"><ele>208.0</ele><time>2026-04-19T12:33:15.958Z</time></trkpt><trkpt lat="41.1807597" lon="14.9718764"><ele>207.5</ele><time>2026-04-19T12:33:16.976Z</time></trkpt><trkpt lat="41.1808089" lon="14.9720195"><ele>207.0</ele><time>2026-04-19T12:33:17.989Z</time></trkpt><trkpt lat="41.1808535" lon="14.9721753"><ele>206.5</ele><time>2026-04-19T12:33:18.958Z</time></trkpt><trkpt lat="41.180888" lon="14.9723471"><ele>206.0</ele><time>2026-04-19T12:33:19.958Z</time></trkpt><trkpt lat="41.1809176" lon="14.9725205"><ele>205.75</ele><time>2026-04-19T12:33:20.959Z</time></trkpt><trkpt lat="41.1809427" lon="14.9726865"><ele>205.5</ele><time>2026-04-19T12:33:21.956Z</time></trkpt><trkpt lat="41.180963" lon="14.9728414"><ele>205.25</ele><time>2026-04-19T12:33:22.963Z</time></trkpt><trkpt lat="41.1809887" lon="14.9729815"><ele>205.0</ele><time>2026-04-19T12:33:24.03Z</time></trkpt><trkpt lat="41.1810224" lon="14.9731155"><ele>205.0</ele><time>2026-04-19T12:33:24.962Z</time></trkpt><trkpt lat="41.1810672" lon="14.9732373"><ele>205.0</ele><time>2026-04-19T12:33:26.03Z</time></trkpt><trkpt lat="41.1811197" lon="14.9733568"><ele>205.0</ele><time>2026-04-19T12:33:27.041Z</time></trkpt><trkpt lat="41.1811896" lon="14.9734623"><ele>205.0</ele><time>2026-04-19T12:33:28.029Z</time></trkpt><trkpt lat="41.1812754" lon="14.9735607"><ele>205.0</ele><time>2026-04-19T12:33:29.03Z</time></trkpt><trkpt lat="41.1813752" lon="14.9736475"><ele>205.0</ele><time>2026-04-19T12:33:29.948Z</time></trkpt><trkpt lat="41.1814807" lon="14.9737435"><ele>205.0</ele><time>2026-04-19T12:33:30.955Z</time></trkpt><trkpt lat="41.1815824" lon="14.9738363"><ele>205.0</ele><time>2026-04-19T12:33:32.061Z</time></trkpt><trkpt lat="41.1816775" lon="14.9739321"><ele>205.0</ele><time>2026-04-19T12:33:33.028Z</time></trkpt><trkpt lat="41.181774" lon="14.9740267"><ele>205.5</ele><time>2026-04-19T12:33:34.031Z</time></trkpt><trkpt lat="41.1818767" lon="14.9741259"><ele>206.0</ele><time>2026-04-19T12:33:34.956Z</time></trkpt><trkpt lat="41.1819877" lon="14.9742362"><ele>206.5</ele><time>2026-04-19T12:33:35.952Z</time></trkpt><trkpt lat="41.1821037" lon="14.9743507"><ele>207.0</ele><time>2026-04-19T12:33:37.062Z</time></trkpt><trkpt lat="41.1822169" lon="14.9744588"><ele>207.0</ele><time>2026-04-19T12:33:37.976Z</time></trkpt><trkpt lat="41.1823242" lon="14.9745699"><ele>207.0</ele><time>2026-04-19T12:33:39.034Z</time></trkpt><trkpt lat="41.1824297" lon="14.9746714"><ele>207.0</ele><time>2026-04-19T12:33:39.955Z</time></trkpt><trkpt lat="41.1825369" lon="14.9747654"><ele>207.0</ele><time>2026-04-19T12:33:40.959Z</time></trkpt><trkpt lat="41.1826439" lon="14.9748597"><ele>207.25</ele><time>2026-04-19T12:33:41.953Z</time></trkpt><trkpt lat="41.1827588" lon="14.9749582"><ele>207.5</ele><time>2026-04-19T12:33:42.956Z</time></trkpt><trkpt lat="41.1828727" lon="14.9750527"><ele>207.75</ele><time>2026-04-19T12:33:44.016Z</time></trkpt><trkpt lat="41.1829906" lon="14.9751509"><ele>208.0</ele><time>2026-04-19T12:33:44.957Z</time></trkpt><trkpt lat="41.1831128" lon="14.9752431"><ele>208.0</ele><time>2026-04-19T12:33:45.958Z</time></trkpt><trkpt lat="41.1832369" lon="14.9753307"><ele>208.0</ele><time>2026-04-19T12:33:46.957Z</time></trkpt><trkpt lat="41.1833647" lon="14.9754172"><ele>208.0</ele><time>2026-04-19T12:33:47.957Z</time></trkpt><trkpt lat="41.1834976" lon="14.9754989"><ele>208.0</ele><time>2026-04-19T12:33:48.957Z</time></trkpt><trkpt lat="41.1836345" lon="14.9755771"><ele>208.0</ele><time>2026-04-19T12:33:49.953Z</time></trkpt><trkpt lat="41.1837725" lon="14.9756617"><ele>208.0</ele><time>2026-04-19T12:33:50.96Z</time></trkpt><trkpt lat="41.1839082" lon="14.9757572"><ele>208.0</ele><time>2026-04-19T12:33:52.04Z</time></trkpt><trkpt lat="41.1840485" lon="14.9758507"><ele>208.0</ele><time>2026-04-19T12:33:52.956Z</time></trkpt><trkpt lat="41.1841862" lon="14.9759434"><ele>208.0</ele><time>2026-04-19T12:33:53.954Z</time></trkpt><trkpt lat="41.1843128" lon="14.9760368"><ele>208.0</ele><time>2026-04-19T12:33:54.955Z</time></trkpt><trkpt lat="41.1844215" lon="14.9761311"><ele>208.0</ele><time>2026-04-19T12:33:55.96Z</time></trkpt><trkpt lat="41.1845276" lon="14.9762411"><ele>208.0</ele><time>2026-04-19T12:33:56.971Z</time></trkpt><trkpt lat="41.184627" lon="14.9763682"><ele>208.0</ele><time>2026-04-19T12:33:57.957Z</time></trkpt><trkpt lat="41.1847251" lon="14.9765019"><ele>208.0</ele><time>2026-04-19T12:33:59.034Z</time></trkpt><trkpt lat="41.1848267" lon="14.9766398"><ele>208.0</ele><time>2026-04-19T12:33:59.95Z</time></trkpt><trkpt lat="41.1849318" lon="14.9767722"><ele>208.25</ele><time>2026-04-19T12:34:00.951Z</time></trkpt><trkpt lat="41.1850401" lon="14.9768989"><ele>208.5</ele><time>2026-04-19T12:34:01.947Z</time></trkpt><trkpt lat="41.1851453" lon="14.9770172"><ele>208.75</ele><time>2026-04-19T12:34:02.959Z</time></trkpt><trkpt lat="41.185245" lon="14.9771129"><ele>209.0</ele><time>2026-04-19T12:34:03.952Z</time></trkpt><trkpt lat="41.1853391" lon="14.9771959"><ele>209.0</ele><time>2026-04-19T12:34:04.953Z</time></trkpt><trkpt lat="41.1854439" lon="14.9772731"><ele>209.0</ele><time>2026-04-19T12:34:05.949Z</time></trkpt><trkpt lat="41.1855569" lon="14.9773159"><ele>209.0</ele><time>2026-04-19T12:34:07.034Z</time></trkpt><trkpt lat="41.1856916" lon="14.9773328"><ele>209.0</ele><time>2026-04-19T12:34:07.956Z</time></trkpt><trkpt lat="41.1858297" lon="14.9773378"><ele>210.0</ele><time>2026-04-19T12:34:09.034Z</time></trkpt><trkpt lat="41.1859706" lon="14.9773232"><ele>211.0</ele><time>2026-04-19T12:34:09.953Z</time></trkpt><trkpt lat="41.186113" lon="14.9773121"><ele>212.0</ele><time>2026-04-19T12:34:10.95Z</time></trkpt><trkpt lat="41.1862458" lon="14.9772947"><ele>213.0</ele><time>2026-04-19T12:34:12.064Z</time></trkpt><trkpt lat="41.1863814" lon="14.9772835"><ele>213.0</ele><time>2026-04-19T12:34:13.033Z</time></trkpt><trkpt lat="41.1865199" lon="14.9772842"><ele>213.0</ele><time>2026-04-19T12:34:13.954Z</time></trkpt><trkpt lat="41.1866569" lon="14.977295"><ele>213.0</ele><time>2026-04-19T12:34:14.949Z</time></trkpt><trkpt lat="41.1867957" lon="14.9773279"><ele>213.0</ele><time>2026-04-19T12:34:15.947Z</time></trkpt><trkpt lat="41.1869356" lon="14.9773714"><ele>213.0</ele><time>2026-04-19T12:34:16.949Z</time></trkpt><trkpt lat="41.1870768" lon="14.9774231"><ele>213.0</ele><time>2026-04-19T12:34:17.94Z</time></trkpt><trkpt lat="41.1872124" lon="14.977466"><ele>213.0</ele><time>2026-04-19T12:34:18.949Z</time></trkpt><trkpt lat="41.187342" lon="14.9774965"><ele>213.0</ele><time>2026-04-19T12:34:19.957Z</time></trkpt><trkpt lat="41.1874589" lon="14.9775178"><ele>213.25</ele><time>2026-04-19T12:34:20.952Z</time></trkpt><trkpt lat="41.1875739" lon="14.9775437"><ele>213.5</ele><time>2026-04-19T12:34:21.959Z</time></trkpt><trkpt lat="41.1876808" lon="14.9775867"><ele>213.75</ele><time>2026-04-19T12:34:22.949Z</time></trkpt><trkpt lat="41.1877804" lon="14.9776517"><ele>214.0</ele><time>2026-04-19T12:34:23.948Z</time></trkpt><trkpt lat="41.1878821" lon="14.9777491"><ele>214.0</ele><time>2026-04-19T12:34:24.948Z</time></trkpt><trkpt lat="41.1879881" lon="14.9778623"><ele>214.0</ele><time>2026-04-19T12:34:26.031Z</time></trkpt><trkpt lat="41.1881013" lon="14.9779867"><ele>214.0</ele><time>2026-04-19T12:34:26.977Z</time></trkpt><trkpt lat="41.1882213" lon="14.9781041"><ele>214.0</ele><time>2026-04-19T12:34:27.945Z</time></trkpt><trkpt lat="41.1883359" lon="14.9782107"><ele>214.2</ele><time>2026-04-19T12:34:29.033Z</time></trkpt><trkpt lat="41.1884368" lon="14.9782974"><ele>214.39999999999998</ele><time>2026-04-19T12:34:29.95Z</time></trkpt><trkpt lat="41.1885217" lon="14.9783728"><ele>214.6</ele><time>2026-04-19T12:34:30.949Z</time></trkpt><trkpt lat="41.1886102" lon="14.9784421"><ele>214.8</ele><time>2026-04-19T12:34:31.965Z</time></trkpt><trkpt lat="41.1886995" lon="14.978518"><ele>215.0</ele><time>2026-04-19T12:34:33.031Z</time></trkpt><trkpt lat="41.1887953" lon="14.9785879"><ele>215.0</ele><time>2026-04-19T12:34:34.035Z</time></trkpt><trkpt lat="41.1888923" lon="14.9786495"><ele>215.0</ele><time>2026-04-19T12:34:34.955Z</time></trkpt><trkpt lat="41.1889835" lon="14.9787039"><ele>215.0</ele><time>2026-04-19T12:34:35.964Z</time></trkpt><trkpt lat="41.1890595" lon="14.9787468"><ele>215.0</ele><time>2026-04-19T12:34:36.958Z</time></trkpt><trkpt lat="41.1891633" lon="14.9787696"><ele>215.0</ele><time>2026-04-19T12:34:38.959Z</time></trkpt><trkpt lat="41.1892255" lon="14.9787029"><ele>215.16666666666669</ele><time>2026-04-19T12:34:40.956Z</time></trkpt><trkpt lat="41.1892528" lon="14.9786273"><ele>215.33333333333334</ele><time>2026-04-19T12:34:41.955Z</time></trkpt><trkpt lat="41.1892875" lon="14.9785494"><ele>215.5</ele><time>2026-04-19T12:34:42.956Z</time></trkpt><trkpt lat="41.1893636" lon="14.9784664"><ele>215.66666666666669</ele><time>2026-04-19T12:34:44.956Z</time></trkpt><trkpt lat="41.1894446" lon="14.9784694"><ele>215.83333333333334</ele><time>2026-04-19T12:34:46.946Z</time></trkpt><trkpt lat="41.1895382" lon="14.9785523"><ele>216.0</ele><time>2026-04-19T12:34:48.958Z</time></trkpt><trkpt lat="41.1895847" lon="14.9786143"><ele>216.0</ele><time>2026-04-19T12:34:49.953Z</time></trkpt><trkpt lat="41.1896441" lon="14.9786853"><ele>216.0</ele><time>2026-04-19T12:34:52.058Z</time></trkpt><trkpt lat="41.1896779" lon="14.9787564"><ele>216.0</ele><time>2026-04-19T12:34:58.043Z</time></trkpt><trkpt lat="41.1897136" lon="14.9788482"><ele>216.0</ele><time>2026-04-19T12:35:08.957Z</time></trkpt><trkpt lat="41.1897535" lon="14.9789178"><ele>216.0</ele><time>2026-04-19T12:35:11.961Z</time></trkpt><trkpt lat="41.1897955" lon="14.9789841"><ele>216.0</ele><time>2026-04-19T12:35:18.018Z</time></trkpt><trkpt lat="41.1898541" lon="14.9791218"><ele>216.20000000000002</ele><time>2026-04-19T12:35:20.958Z</time></trkpt><trkpt lat="41.189871" lon="14.9792411"><ele>216.40000000000003</ele><time>2026-04-19T12:35:22.95Z</time></trkpt><trkpt lat="41.1898821" lon="14.9793603"><ele>216.6</ele><time>2026-04-19T12:35:24.957Z</time></trkpt><trkpt lat="41.1898903" lon="14.9795013"><ele>216.8</ele><time>2026-04-19T12:35:27.028Z</time></trkpt><trkpt lat="41.1899009" lon="14.9796303"><ele>217.0</ele><time>2026-04-19T12:35:28.951Z</time></trkpt><trkpt lat="41.1899169" lon="14.9797511"><ele>217.0</ele><time>2026-04-19T12:35:30.956Z</time></trkpt><trkpt lat="41.1899368" lon="14.9798897"><ele>217.0</ele><time>2026-04-19T12:35:33.045Z</time></trkpt><trkpt lat="41.1899763" lon="14.9800477"><ele>217.0</ele><time>2026-04-19T12:35:34.962Z</time></trkpt><trkpt lat="41.189998" lon="14.9801358"><ele>217.0</ele><time>2026-04-19T12:35:35.961Z</time></trkpt><trkpt lat="41.1900198" lon="14.9802199"><ele>217.0</ele><time>2026-04-19T12:35:36.994Z</time></trkpt><trkpt lat="41.1900724" lon="14.9803644"><ele>217.0</ele><time>2026-04-19T12:35:39.032Z</time></trkpt><trkpt lat="41.1901031" lon="14.9804434"><ele>217.0</ele><time>2026-04-19T12:35:39.987Z</time></trkpt><trkpt lat="41.1901362" lon="14.980521"><ele>217.0</ele><time>2026-04-19T12:35:41.022Z</time></trkpt><trkpt lat="41.1901939" lon="14.9806715"><ele>217.0</ele><time>2026-04-19T12:35:43.027Z</time></trkpt><trkpt lat="41.1902283" lon="14.9807566"><ele>217.0</ele><time>2026-04-19T12:35:44.026Z</time></trkpt><trkpt lat="41.1902787" lon="14.9809075"><ele>217.0</ele><time>2026-04-19T12:35:46.026Z</time></trkpt><trkpt lat="41.1903266" lon="14.9810082"><ele>217.0</ele><time>2026-04-19T12:35:48.019Z</time></trkpt><trkpt lat="41.1903648" lon="14.9810802"><ele>217.0</ele><time>2026-04-19T12:35:49.958Z</time></trkpt><trkpt lat="41.1904152" lon="14.981191"><ele>217.0</ele><time>2026-04-19T12:35:52.034Z</time></trkpt><trkpt lat="41.190506" lon="14.981322"><ele>217.0</ele><time>2026-04-19T12:35:54.037Z</time></trkpt><trkpt lat="41.1905561" lon="14.9813824"><ele>216.99999999999997</ele><time>2026-04-19T12:35:54.962Z</time></trkpt><trkpt lat="41.190606" lon="14.981434"><ele>217.0</ele><time>2026-04-19T12:35:55.955Z</time></trkpt><trkpt lat="41.1906854" lon="14.981517"><ele>217.0</ele><time>2026-04-19T12:35:57.958Z</time></trkpt><trkpt lat="41.1907469" lon="14.9815837"><ele>217.0</ele><time>2026-04-19T12:35:59.959Z</time></trkpt><trkpt lat="41.1908023" lon="14.9816413"><ele>216.99999999999997</ele><time>2026-04-19T12:36:01.952Z</time></trkpt><trkpt lat="41.1908791" lon="14.9817048"><ele>217.0</ele><time>2026-04-19T12:36:03.957Z</time></trkpt><trkpt lat="41.190969" lon="14.9817875"><ele>216.99999999999997</ele><time>2026-04-19T12:36:05.955Z</time></trkpt><trkpt lat="41.191055" lon="14.9818846"><ele>217.0</ele><time>2026-04-19T12:36:07.959Z</time></trkpt><trkpt lat="41.1911554" lon="14.9819913"><ele>217.0</ele><time>2026-04-19T12:36:09.961Z</time></trkpt><trkpt lat="41.1911994" lon="14.9820579"><ele>217.0</ele><time>2026-04-19T12:36:10.961Z</time></trkpt><trkpt lat="41.1912368" lon="14.9821366"><ele>216.99999999999997</ele><time>2026-04-19T12:36:11.962Z</time></trkpt><trkpt lat="41.1912682" lon="14.9822158"><ele>217.0</ele><time>2026-04-19T12:36:13.034Z</time></trkpt><trkpt lat="41.191296" lon="14.9823089"><ele>216.99999999999997</ele><time>2026-04-19T12:36:14.03Z</time></trkpt><trkpt lat="41.1913085" lon="14.9823987"><ele>217.0</ele><time>2026-04-19T12:36:14.953Z</time></trkpt><trkpt lat="41.1912968" lon="14.982544"><ele>217.0</ele><time>2026-04-19T12:36:17.054Z</time></trkpt><trkpt lat="41.1912202" lon="14.9826517"><ele>217.0</ele><time>2026-04-19T12:36:18.943Z</time></trkpt><trkpt lat="41.1911596" lon="14.9827008"><ele>216.99999999999997</ele><time>2026-04-19T12:36:19.949Z</time></trkpt><trkpt lat="41.1910842" lon="14.9827548"><ele>217.0</ele><time>2026-04-19T12:36:20.961Z</time></trkpt><trkpt lat="41.1910143" lon="14.9828403"><ele>217.16666666666666</ele><time>2026-04-19T12:36:23.015Z</time></trkpt><trkpt lat="41.191021" lon="14.9829862"><ele>217.33333333333331</ele><time>2026-04-19T12:36:24.957Z</time></trkpt><trkpt lat="41.1910513" lon="14.9830774"><ele>217.5</ele><time>2026-04-19T12:36:25.953Z</time></trkpt><trkpt lat="41.1911011" lon="14.9831733"><ele>217.66666666666669</ele><time>2026-04-19T12:36:27.026Z</time></trkpt><trkpt lat="41.191155" lon="14.9832675"><ele>217.83333333333334</ele><time>2026-04-19T12:36:28.031Z</time></trkpt><trkpt lat="41.191197" lon="14.9833443"><ele>218.0</ele><time>2026-04-19T12:36:29.031Z</time></trkpt><trkpt lat="41.1912394" lon="14.9834669"><ele>218.33333333333334</ele><time>2026-04-19T12:36:30.949Z</time></trkpt><trkpt lat="41.1912616" lon="14.9835462"><ele>218.66666666666669</ele><time>2026-04-19T12:36:32.95Z</time></trkpt><trkpt lat="41.1912614" lon="14.9836358"><ele>219.0</ele><time>2026-04-19T12:36:41.952Z</time></trkpt><trkpt lat="41.1912987" lon="14.983726"><ele>219.33333333333331</ele><time>2026-04-19T12:36:44.941Z</time></trkpt><trkpt lat="41.1913261" lon="14.9838726"><ele>219.66666666666666</ele><time>2026-04-19T12:36:46.951Z</time></trkpt><trkpt lat="41.1913352" lon="14.9839615"><ele>220.0</ele><time>2026-04-19T12:36:47.954Z</time></trkpt><trkpt lat="41.1913482" lon="14.9841194"><ele>219.5</ele><time>2026-04-19T12:36:49.949Z</time></trkpt><trkpt lat="41.1913557" lon="14.9842796"><ele>219.0</ele><time>2026-04-19T12:36:51.955Z</time></trkpt><trkpt lat="41.1913698" lon="14.9844128"><ele>218.5</ele><time>2026-04-19T12:36:53.948Z</time></trkpt><trkpt lat="41.1913795" lon="14.984558"><ele>218.0</ele><time>2026-04-19T12:36:55.953Z</time></trkpt><trkpt lat="41.1913896" lon="14.9847279"><ele>218.00000000000003</ele><time>2026-04-19T12:36:57.958Z</time></trkpt><trkpt lat="41.1913922" lon="14.9848206"><ele>218.0</ele><time>2026-04-19T12:36:58.949Z</time></trkpt><trkpt lat="41.1913967" lon="14.9849138"><ele>218.0</ele><time>2026-04-19T12:36:59.963Z</time></trkpt><trkpt lat="41.1913997" lon="14.9850092"><ele>218.0</ele><time>2026-04-19T12:37:00.954Z</time></trkpt><trkpt lat="41.191399" lon="14.9850929"><ele>218.00000000000003</ele><time>2026-04-19T12:37:01.949Z</time></trkpt><trkpt lat="41.1914095" lon="14.9852547"><ele>218.0</ele><time>2026-04-19T12:37:03.949Z</time></trkpt><trkpt lat="41.1914103" lon="14.9853904"><ele>218.60000000000002</ele><time>2026-04-19T12:37:05.953Z</time></trkpt><trkpt lat="41.1914205" lon="14.9855357"><ele>219.20000000000002</ele><time>2026-04-19T12:37:07.951Z</time></trkpt><trkpt lat="41.1914385" lon="14.9857067"><ele>219.8</ele><time>2026-04-19T12:37:09.952Z</time></trkpt><trkpt lat="41.1914554" lon="14.9857945"><ele>220.4</ele><time>2026-04-19T12:37:10.954Z</time></trkpt><trkpt lat="41.1914694" lon="14.9858805"><ele>221.0</ele><time>2026-04-19T12:37:12.069Z</time></trkpt><trkpt lat="41.1915027" lon="14.9860372"><ele>221.00000000000003</ele><time>2026-04-19T12:37:14.037Z</time></trkpt><trkpt lat="41.1915217" lon="14.9861175"><ele>221.0</ele><time>2026-04-19T12:37:14.956Z</time></trkpt><trkpt lat="41.1915425" lon="14.9861977"><ele>221.0</ele><time>2026-04-19T12:37:15.956Z</time></trkpt><trkpt lat="41.1915838" lon="14.9863324"><ele>221.0</ele><time>2026-04-19T12:37:18.029Z</time></trkpt><trkpt lat="41.1916164" lon="14.9864063"><ele>221.0</ele><time>2026-04-19T12:37:19.025Z</time></trkpt><trkpt lat="41.1916526" lon="14.9864767"><ele>221.00000000000003</ele><time>2026-04-19T12:37:19.948Z</time></trkpt><trkpt lat="41.1916918" lon="14.9865469"><ele>221.0</ele><time>2026-04-19T12:37:21.019Z</time></trkpt><trkpt lat="41.1917716" lon="14.9866811"><ele>221.16666666666669</ele><time>2026-04-19T12:37:22.993Z</time></trkpt><trkpt lat="41.1918236" lon="14.986745"><ele>221.33333333333334</ele><time>2026-04-19T12:37:23.98Z</time></trkpt><trkpt lat="41.1918709" lon="14.9868109"><ele>221.5</ele><time>2026-04-19T12:37:24.944Z</time></trkpt><trkpt lat="41.1919237" lon="14.986906"><ele>221.66666666666669</ele><time>2026-04-19T12:37:26.96Z</time></trkpt><trkpt lat="41.1919781" lon="14.9870006"><ele>221.83333333333334</ele><time>2026-04-19T12:37:29.953Z</time></trkpt><trkpt lat="41.1920155" lon="14.9870714"><ele>222.0</ele><time>2026-04-19T12:37:35.967Z</time></trkpt><trkpt lat="41.1920667" lon="14.9871439"><ele>222.0</ele><time>2026-04-19T12:37:42.963Z</time></trkpt><trkpt lat="41.1921268" lon="14.9872777"><ele>222.0</ele><time>2026-04-19T12:37:45.953Z</time></trkpt><trkpt lat="41.1921674" lon="14.9873967"><ele>222.0</ele><time>2026-04-19T12:37:48.031Z</time></trkpt><trkpt lat="41.1922241" lon="14.9875311"><ele>222.0</ele><time>2026-04-19T12:37:49.991Z</time></trkpt><trkpt lat="41.1922773" lon="14.987653"><ele>222.0</ele><time>2026-04-19T12:37:51.957Z</time></trkpt><trkpt lat="41.1923036" lon="14.9878082"><ele>222.16666666666666</ele><time>2026-04-19T12:37:53.951Z</time></trkpt><trkpt lat="41.1923207" lon="14.9878997"><ele>222.33333333333331</ele><time>2026-04-19T12:37:54.949Z</time></trkpt><trkpt lat="41.1923399" lon="14.9879971"><ele>222.5</ele><time>2026-04-19T12:37:55.955Z</time></trkpt><trkpt lat="41.1923687" lon="14.9881044"><ele>222.66666666666666</ele><time>2026-04-19T12:37:56.995Z</time></trkpt><trkpt lat="41.1923994" lon="14.9881989"><ele>222.83333333333331</ele><time>2026-04-19T12:37:57.974Z</time></trkpt><trkpt lat="41.1924254" lon="14.9882929"><ele>223.0</ele><time>2026-04-19T12:37:58.954Z</time></trkpt><trkpt lat="41.1924402" lon="14.9883956"><ele>223.83333333333331</ele><time>2026-04-19T12:37:59.956Z</time></trkpt><trkpt lat="41.19245" lon="14.9884791"><ele>224.66666666666666</ele><time>2026-04-19T12:38:00.95Z</time></trkpt><trkpt lat="41.1924926" lon="14.9886027"><ele>225.5</ele><time>2026-04-19T12:38:02.948Z</time></trkpt><trkpt lat="41.1925302" lon="14.988685"><ele>226.33333333333331</ele><time>2026-04-19T12:38:04.039Z</time></trkpt><trkpt lat="41.1925802" lon="14.9887705"><ele>227.16666666666666</ele><time>2026-04-19T12:38:04.963Z</time></trkpt><trkpt lat="41.1926404" lon="14.9888646"><ele>228.0</ele><time>2026-04-19T12:38:05.958Z</time></trkpt><trkpt lat="41.1927079" lon="14.9889452"><ele>228.0</ele><time>2026-04-19T12:38:06.965Z</time></trkpt><trkpt lat="41.1927775" lon="14.9890223"><ele>228.0</ele><time>2026-04-19T12:38:07.955Z</time></trkpt><trkpt lat="41.1928512" lon="14.9891027"><ele>228.0</ele><time>2026-04-19T12:38:08.955Z</time></trkpt><trkpt lat="41.1929307" lon="14.9891797"><ele>228.0</ele><time>2026-04-19T12:38:09.953Z</time></trkpt><trkpt lat="41.193003" lon="14.9892571"><ele>228.0</ele><time>2026-04-19T12:38:10.952Z</time></trkpt><trkpt lat="41.1930573" lon="14.989335"><ele>229.66666666666666</ele><time>2026-04-19T12:38:11.956Z</time></trkpt><trkpt lat="41.1930951" lon="14.9894068"><ele>231.33333333333331</ele><time>2026-04-19T12:38:13.035Z</time></trkpt><trkpt lat="41.1931139" lon="14.9894898"><ele>233.0</ele><time>2026-04-19T12:38:14.032Z</time></trkpt><trkpt lat="41.1931281" lon="14.989587"><ele>234.66666666666666</ele><time>2026-04-19T12:38:14.953Z</time></trkpt><trkpt lat="41.1931305" lon="14.9896928"><ele>236.33333333333331</ele><time>2026-04-19T12:38:15.952Z</time></trkpt><trkpt lat="41.1931177" lon="14.9898064"><ele>238.0</ele><time>2026-04-19T12:38:16.987Z</time></trkpt><trkpt lat="41.1930951" lon="14.989919"><ele>236.99999999999997</ele><time>2026-04-19T12:38:18.032Z</time></trkpt><trkpt lat="41.1930747" lon="14.9900246"><ele>236.0</ele><time>2026-04-19T12:38:19.026Z</time></trkpt><trkpt lat="41.1930723" lon="14.9901344"><ele>235.0</ele><time>2026-04-19T12:38:19.965Z</time></trkpt><trkpt lat="41.193079" lon="14.990261"><ele>234.0</ele><time>2026-04-19T12:38:20.962Z</time></trkpt><trkpt lat="41.1930949" lon="14.9903789"><ele>232.99999999999997</ele><time>2026-04-19T12:38:21.959Z</time></trkpt><trkpt lat="41.1931165" lon="14.9904784"><ele>232.0</ele><time>2026-04-19T12:38:23.022Z</time></trkpt><trkpt lat="41.1931753" lon="14.9906026"><ele>232.0</ele><time>2026-04-19T12:38:24.96Z</time></trkpt><trkpt lat="41.1932637" lon="14.9906633"><ele>232.0</ele><time>2026-04-19T12:38:26.962Z</time></trkpt><trkpt lat="41.1933455" lon="14.9907303"><ele>232.0</ele><time>2026-04-19T12:38:28.962Z</time></trkpt><trkpt lat="41.1934095" lon="14.9908669"><ele>232.0</ele><time>2026-04-19T12:38:30.954Z</time></trkpt><trkpt lat="41.1934832" lon="14.9909046"><ele>232.0</ele><time>2026-04-19T12:38:34.032Z</time></trkpt><trkpt lat="41.1935505" lon="14.9909619"><ele>232.99999999999997</ele><time>2026-04-19T12:38:35.952Z</time></trkpt><trkpt lat="41.19364" lon="14.9910673"><ele>234.0</ele><time>2026-04-19T12:38:37.952Z</time></trkpt><trkpt lat="41.1936975" lon="14.9911264"><ele>235.0</ele><time>2026-04-19T12:38:38.955Z</time></trkpt><trkpt lat="41.1937567" lon="14.9911776"><ele>236.0</ele><time>2026-04-19T12:38:39.953Z</time></trkpt><trkpt lat="41.1938078" lon="14.9912347"><ele>236.99999999999997</ele><time>2026-04-19T12:38:41.034Z</time></trkpt><trkpt lat="41.1938517" lon="14.9913011"><ele>238.0</ele><time>2026-04-19T12:38:42.034Z</time></trkpt><trkpt lat="41.1939264" lon="14.9913932"><ele>237.0</ele><time>2026-04-19T12:38:43.969Z</time></trkpt><trkpt lat="41.194006" lon="14.9914205"><ele>236.0</ele><time>2026-04-19T12:38:45.957Z</time></trkpt><trkpt lat="41.1941379" lon="14.9914823"><ele>235.0</ele><time>2026-04-19T12:38:47.96Z</time></trkpt><trkpt lat="41.1942024" lon="14.9915453"><ele>234.0</ele><time>2026-04-19T12:38:48.991Z</time></trkpt><trkpt lat="41.1942604" lon="14.991619"><ele>233.0</ele><time>2026-04-19T12:38:49.953Z</time></trkpt><trkpt lat="41.1943106" lon="14.9917028"><ele>233.00000000000003</ele><time>2026-04-19T12:38:51.033Z</time></trkpt><trkpt lat="41.1943573" lon="14.9917917"><ele>233.0</ele><time>2026-04-19T12:38:52.032Z</time></trkpt><trkpt lat="41.1943887" lon="14.9918881"><ele>233.0</ele><time>2026-04-19T12:38:52.957Z</time></trkpt><trkpt lat="41.1944088" lon="14.9919912"><ele>233.0</ele><time>2026-04-19T12:38:54.018Z</time></trkpt><trkpt lat="41.1944214" lon="14.9920958"><ele>233.00000000000003</ele><time>2026-04-19T12:38:54.953Z</time></trkpt><trkpt lat="41.1944266" lon="14.9922116"><ele>233.0</ele><time>2026-04-19T12:38:55.955Z</time></trkpt><trkpt lat="41.1944442" lon="14.9923352"><ele>233.0</ele><time>2026-04-19T12:38:56.957Z</time></trkpt><trkpt lat="41.1944772" lon="14.9924579"><ele>233.0</ele><time>2026-04-19T12:38:57.956Z</time></trkpt><trkpt lat="41.1945213" lon="14.9925784"><ele>233.0</ele><time>2026-04-19T12:38:59.035Z</time></trkpt><trkpt lat="41.1945634" lon="14.9926986"><ele>233.0</ele><time>2026-04-19T12:38:59.959Z</time></trkpt><trkpt lat="41.1946101" lon="14.9928262"><ele>233.0</ele><time>2026-04-19T12:39:00.958Z</time></trkpt><trkpt lat="41.1946495" lon="14.9929531"><ele>232.8</ele><time>2026-04-19T12:39:02.056Z</time></trkpt><trkpt lat="41.1946851" lon="14.9930888"><ele>232.60000000000002</ele><time>2026-04-19T12:39:03.038Z</time></trkpt><trkpt lat="41.1947303" lon="14.9932206"><ele>232.39999999999998</ele><time>2026-04-19T12:39:04.023Z</time></trkpt><trkpt lat="41.1947836" lon="14.9933456"><ele>232.2</ele><time>2026-04-19T12:39:04.954Z</time></trkpt><trkpt lat="41.1948479" lon="14.9934586"><ele>232.0</ele><time>2026-04-19T12:39:05.955Z</time></trkpt><trkpt lat="41.1949026" lon="14.9935601"><ele>231.99999999999997</ele><time>2026-04-19T12:39:06.951Z</time></trkpt><trkpt lat="41.1949563" lon="14.9936522"><ele>232.0</ele><time>2026-04-19T12:39:07.948Z</time></trkpt><trkpt lat="41.1950045" lon="14.9937403"><ele>232.0</ele><time>2026-04-19T12:39:09.009Z</time></trkpt><trkpt lat="41.1950477" lon="14.993818"><ele>232.0</ele><time>2026-04-19T12:39:09.951Z</time></trkpt><trkpt lat="41.19509" lon="14.9938958"><ele>231.99999999999997</ele><time>2026-04-19T12:39:10.951Z</time></trkpt><trkpt lat="41.1951332" lon="14.9939836"><ele>232.0</ele><time>2026-04-19T12:39:11.967Z</time></trkpt><trkpt lat="41.1951853" lon="14.9940839"><ele>233.33333333333331</ele><time>2026-04-19T12:39:13.012Z</time></trkpt><trkpt lat="41.1952372" lon="14.9941864"><ele>234.66666666666666</ele><time>2026-04-19T12:39:14.031Z</time></trkpt><trkpt lat="41.1952855" lon="14.9942957"><ele>236.0</ele><time>2026-04-19T12:39:14.958Z</time></trkpt><trkpt lat="41.195326" lon="14.9944018"><ele>237.33333333333331</ele><time>2026-04-19T12:39:15.961Z</time></trkpt><trkpt lat="41.1953625" lon="14.9944882"><ele>238.66666666666666</ele><time>2026-04-19T12:39:16.959Z</time></trkpt><trkpt lat="41.1954034" lon="14.9945671"><ele>240.0</ele><time>2026-04-19T12:39:17.959Z</time></trkpt><trkpt lat="41.1954664" lon="14.9946525"><ele>240.0</ele><time>2026-04-19T12:39:18.96Z</time></trkpt><trkpt lat="41.1955334" lon="14.9947468"><ele>240.0</ele><time>2026-04-19T12:39:19.959Z</time></trkpt><trkpt lat="41.1955961" lon="14.9948358"><ele>240.0</ele><time>2026-04-19T12:39:20.973Z</time></trkpt><trkpt lat="41.1956647" lon="14.9949323"><ele>240.0</ele><time>2026-04-19T12:39:22.03Z</time></trkpt><trkpt lat="41.1957315" lon="14.9950247"><ele>240.0</ele><time>2026-04-19T12:39:23.035Z</time></trkpt><trkpt lat="41.1958004" lon="14.9951231"><ele>238.4</ele><time>2026-04-19T12:39:23.959Z</time></trkpt><trkpt lat="41.1958626" lon="14.9952206"><ele>236.8</ele><time>2026-04-19T12:39:24.956Z</time></trkpt><trkpt lat="41.1959231" lon="14.9953123"><ele>235.2</ele><time>2026-04-19T12:39:25.958Z</time></trkpt><trkpt lat="41.195985" lon="14.9953995"><ele>233.6</ele><time>2026-04-19T12:39:26.955Z</time></trkpt><trkpt lat="41.1960529" lon="14.99549"><ele>232.0</ele><time>2026-04-19T12:39:27.961Z</time></trkpt><trkpt lat="41.1961266" lon="14.9955834"><ele>232.0</ele><time>2026-04-19T12:39:28.956Z</time></trkpt><trkpt lat="41.1961929" lon="14.9956833"><ele>232.0</ele><time>2026-04-19T12:39:29.959Z</time></trkpt><trkpt lat="41.1962449" lon="14.9957892"><ele>232.0</ele><time>2026-04-19T12:39:30.958Z</time></trkpt><trkpt lat="41.1962939" lon="14.9958888"><ele>232.0</ele><time>2026-04-19T12:39:32.031Z</time></trkpt><trkpt lat="41.196347" lon="14.9959807"><ele>232.0</ele><time>2026-04-19T12:39:32.964Z</time></trkpt><trkpt lat="41.1963981" lon="14.9960772"><ele>232.16666666666666</ele><time>2026-04-19T12:39:33.953Z</time></trkpt><trkpt lat="41.1964468" lon="14.9961784"><ele>232.33333333333331</ele><time>2026-04-19T12:39:34.96Z</time></trkpt><trkpt lat="41.1965021" lon="14.9962669"><ele>232.5</ele><time>2026-04-19T12:39:35.96Z</time></trkpt><trkpt lat="41.1965501" lon="14.9963464"><ele>232.66666666666669</ele><time>2026-04-19T12:39:36.961Z</time></trkpt><trkpt lat="41.1966004" lon="14.9964277"><ele>232.83333333333334</ele><time>2026-04-19T12:39:38.08Z</time></trkpt><trkpt lat="41.196648" lon="14.9965177"><ele>233.0</ele><time>2026-04-19T12:39:39.025Z</time></trkpt><trkpt lat="41.1966803" lon="14.9966257"><ele>234.2</ele><time>2026-04-19T12:39:40.959Z</time></trkpt><trkpt lat="41.1967117" lon="14.9967208"><ele>235.4</ele><time>2026-04-19T12:39:42.963Z</time></trkpt><trkpt lat="41.1968012" lon="14.9968022"><ele>236.59999999999997</ele><time>2026-04-19T12:39:44.956Z</time></trkpt><trkpt lat="41.1968573" lon="14.9968472"><ele>237.79999999999998</ele><time>2026-04-19T12:39:45.957Z</time></trkpt><trkpt lat="41.1969132" lon="14.9969219"><ele>239.0</ele><time>2026-04-19T12:39:47.078Z</time></trkpt><trkpt lat="41.19703" lon="14.9971067"><ele>239.0</ele><time>2026-04-19T12:39:48.961Z</time></trkpt><trkpt lat="41.1970938" lon="14.9972038"><ele>238.99999999999997</ele><time>2026-04-19T12:39:49.959Z</time></trkpt><trkpt lat="41.1971598" lon="14.9972983"><ele>238.99999999999997</ele><time>2026-04-19T12:39:50.962Z</time></trkpt><trkpt lat="41.1972368" lon="14.9973978"><ele>239.0</ele><time>2026-04-19T12:39:51.962Z</time></trkpt><trkpt lat="41.1973179" lon="14.9974966"><ele>239.0</ele><time>2026-04-19T12:39:53Z</time></trkpt><trkpt lat="41.1973969" lon="14.9975845"><ele>240.79999999999998</ele><time>2026-04-19T12:39:54.031Z</time></trkpt><trkpt lat="41.1974726" lon="14.997661"><ele>242.59999999999997</ele><time>2026-04-19T12:39:54.956Z</time></trkpt><trkpt lat="41.1975454" lon="14.9977338"><ele>244.4</ele><time>2026-04-19T12:39:56.026Z</time></trkpt><trkpt lat="41.1976251" lon="14.9978036"><ele>246.2</ele><time>2026-04-19T12:39:56.956Z</time></trkpt><trkpt lat="41.197713" lon="14.9978773"><ele>248.0</ele><time>2026-04-19T12:39:57.951Z</time></trkpt><trkpt lat="41.1978036" lon="14.9979486"><ele>248.0</ele><time>2026-04-19T12:39:58.959Z</time></trkpt><trkpt lat="41.1979015" lon="14.998026"><ele>248.0</ele><time>2026-04-19T12:39:59.951Z</time></trkpt><trkpt lat="41.1980028" lon="14.9980967"><ele>248.0</ele><time>2026-04-19T12:40:00.955Z</time></trkpt><trkpt lat="41.1981025" lon="14.9981667"><ele>248.0</ele><time>2026-04-19T12:40:02.036Z</time></trkpt><trkpt lat="41.1981946" lon="14.9982179"><ele>248.0</ele><time>2026-04-19T12:40:03.032Z</time></trkpt><trkpt lat="41.1982908" lon="14.9982506"><ele>249.2</ele><time>2026-04-19T12:40:03.961Z</time></trkpt><trkpt lat="41.1983926" lon="14.9982701"><ele>250.4</ele><time>2026-04-19T12:40:04.955Z</time></trkpt><trkpt lat="41.1984924" lon="14.9982891"><ele>251.59999999999997</ele><time>2026-04-19T12:40:05.956Z</time></trkpt><trkpt lat="41.1985882" lon="14.9983156"><ele>252.79999999999998</ele><time>2026-04-19T12:40:07.036Z</time></trkpt><trkpt lat="41.1986835" lon="14.9983475"><ele>254.0</ele><time>2026-04-19T12:40:07.973Z</time></trkpt><trkpt lat="41.1987821" lon="14.9983815"><ele>254.0</ele><time>2026-04-19T12:40:09.035Z</time></trkpt><trkpt lat="41.1988842" lon="14.9984104"><ele>253.99999999999997</ele><time>2026-04-19T12:40:09.949Z</time></trkpt><trkpt lat="41.1989845" lon="14.9984381"><ele>253.99999999999997</ele><time>2026-04-19T12:40:10.947Z</time></trkpt><trkpt lat="41.1990748" lon="14.9984799"><ele>254.0</ele><time>2026-04-19T12:40:11.971Z</time></trkpt><trkpt lat="41.1991451" lon="14.9985175"><ele>254.0</ele><time>2026-04-19T12:40:13.041Z</time></trkpt><trkpt lat="41.1992142" lon="14.99856"><ele>251.2</ele><time>2026-04-19T12:40:14.03Z</time></trkpt><trkpt lat="41.1992889" lon="14.9986321"><ele>248.39999999999998</ele><time>2026-04-19T12:40:14.949Z</time></trkpt><trkpt lat="41.1993771" lon="14.9987104"><ele>245.6</ele><time>2026-04-19T12:40:15.955Z</time></trkpt><trkpt lat="41.1994627" lon="14.9987903"><ele>242.8</ele><time>2026-04-19T12:40:17.006Z</time></trkpt><trkpt lat="41.1995561" lon="14.9988623"><ele>240.0</ele><time>2026-04-19T12:40:17.95Z</time></trkpt><trkpt lat="41.1996491" lon="14.9989307"><ele>240.0</ele><time>2026-04-19T12:40:19.036Z</time></trkpt><trkpt lat="41.199741" lon="14.9989927"><ele>240.0</ele><time>2026-04-19T12:40:19.959Z</time></trkpt><trkpt lat="41.1998425" lon="14.9990331"><ele>240.0</ele><time>2026-04-19T12:40:20.955Z</time></trkpt><trkpt lat="41.1999536" lon="14.9990608"><ele>240.0</ele><time>2026-04-19T12:40:21.965Z</time></trkpt><trkpt lat="41.2000696" lon="14.999073"><ele>240.0</ele><time>2026-04-19T12:40:23.033Z</time></trkpt><trkpt lat="41.2001898" lon="14.9990815"><ele>238.75</ele><time>2026-04-19T12:40:24.029Z</time></trkpt><trkpt lat="41.2003041" lon="14.9990812"><ele>237.5</ele><time>2026-04-19T12:40:24.953Z</time></trkpt><trkpt lat="41.2004219" lon="14.999081"><ele>236.25</ele><time>2026-04-19T12:40:25.948Z</time></trkpt><trkpt lat="41.2005357" lon="14.9990969"><ele>235.0</ele><time>2026-04-19T12:40:26.952Z</time></trkpt><trkpt lat="41.2006423" lon="14.9991285"><ele>235.2</ele><time>2026-04-19T12:40:27.952Z</time></trkpt><trkpt lat="41.2007522" lon="14.999167"><ele>235.4</ele><time>2026-04-19T12:40:28.945Z</time></trkpt><trkpt lat="41.2008579" lon="14.9991949"><ele>235.60000000000002</ele><time>2026-04-19T12:40:29.946Z</time></trkpt><trkpt lat="41.2009661" lon="14.9992241"><ele>235.8</ele><time>2026-04-19T12:40:30.95Z</time></trkpt><trkpt lat="41.2010763" lon="14.9992591"><ele>236.0</ele><time>2026-04-19T12:40:31.956Z</time></trkpt><trkpt lat="41.2011788" lon="14.9992939"><ele>236.0</ele><time>2026-04-19T12:40:32.956Z</time></trkpt><trkpt lat="41.2012748" lon="14.9993369"><ele>236.00000000000003</ele><time>2026-04-19T12:40:33.949Z</time></trkpt><trkpt lat="41.201367" lon="14.9993862"><ele>236.00000000000003</ele><time>2026-04-19T12:40:34.954Z</time></trkpt><trkpt lat="41.2014618" lon="14.9994407"><ele>236.0</ele><time>2026-04-19T12:40:35.954Z</time></trkpt><trkpt lat="41.2015467" lon="14.9994947"><ele>236.0</ele><time>2026-04-19T12:40:36.951Z</time></trkpt><trkpt lat="41.201627" lon="14.9995522"><ele>236.20000000000002</ele><time>2026-04-19T12:40:37.951Z</time></trkpt><trkpt lat="41.2017043" lon="14.9996255"><ele>236.40000000000003</ele><time>2026-04-19T12:40:38.951Z</time></trkpt><trkpt lat="41.2017884" lon="14.999702"><ele>236.6</ele><time>2026-04-19T12:40:39.952Z</time></trkpt><trkpt lat="41.201873" lon="14.9997753"><ele>236.8</ele><time>2026-04-19T12:40:40.945Z</time></trkpt><trkpt lat="41.2019557" lon="14.9998382"><ele>237.0</ele><time>2026-04-19T12:40:41.948Z</time></trkpt><trkpt lat="41.2020465" lon="14.9999067"><ele>237.0</ele><time>2026-04-19T12:40:42.948Z</time></trkpt><trkpt lat="41.2021367" lon="14.9999766"><ele>237.0</ele><time>2026-04-19T12:40:43.951Z</time></trkpt><trkpt lat="41.2022344" lon="15.0000489"><ele>237.0</ele><time>2026-04-19T12:40:44.949Z</time></trkpt><trkpt lat="41.202332" lon="15.0001086"><ele>237.0</ele><time>2026-04-19T12:40:45.949Z</time></trkpt><trkpt lat="41.2024313" lon="15.0001621"><ele>237.0</ele><time>2026-04-19T12:40:46.953Z</time></trkpt><trkpt lat="41.2025374" lon="15.0002255"><ele>236.8</ele><time>2026-04-19T12:40:47.953Z</time></trkpt><trkpt lat="41.2026306" lon="15.0002827"><ele>236.6</ele><time>2026-04-19T12:40:48.956Z</time></trkpt><trkpt lat="41.2027236" lon="15.000317"><ele>236.40000000000003</ele><time>2026-04-19T12:40:49.956Z</time></trkpt><trkpt lat="41.2028262" lon="15.0003344"><ele>236.20000000000002</ele><time>2026-04-19T12:40:50.952Z</time></trkpt><trkpt lat="41.2029252" lon="15.0003628"><ele>236.0</ele><time>2026-04-19T12:40:51.953Z</time></trkpt><trkpt lat="41.2030078" lon="15.00042"><ele>236.00000000000003</ele><time>2026-04-19T12:40:52.955Z</time></trkpt><trkpt lat="41.2030679" lon="15.0005027"><ele>236.0</ele><time>2026-04-19T12:40:53.951Z</time></trkpt><trkpt lat="41.2031233" lon="15.0005961"><ele>236.0</ele><time>2026-04-19T12:40:54.949Z</time></trkpt><trkpt lat="41.203177" lon="15.0006837"><ele>236.0</ele><time>2026-04-19T12:40:55.952Z</time></trkpt><trkpt lat="41.203235" lon="15.000767"><ele>236.00000000000003</ele><time>2026-04-19T12:40:56.954Z</time></trkpt><trkpt lat="41.2032763" lon="15.0008377"><ele>236.0</ele><time>2026-04-19T12:40:58.018Z</time></trkpt><trkpt lat="41.2033395" lon="15.0009306"><ele>236.66666666666669</ele><time>2026-04-19T12:40:59.953Z</time></trkpt><trkpt lat="41.2034072" lon="15.0010417"><ele>237.33333333333334</ele><time>2026-04-19T12:41:01.951Z</time></trkpt><trkpt lat="41.2034537" lon="15.001104"><ele>238.0</ele><time>2026-04-19T12:41:02.947Z</time></trkpt><trkpt lat="41.2035266" lon="15.0011953"><ele>238.66666666666669</ele><time>2026-04-19T12:41:04.955Z</time></trkpt><trkpt lat="41.20357" lon="15.001281"><ele>239.33333333333334</ele><time>2026-04-19T12:41:08.958Z</time></trkpt><trkpt lat="41.2036233" lon="15.0013488"><ele>240.0</ele><time>2026-04-19T12:41:10.955Z</time></trkpt><trkpt lat="41.2036762" lon="15.0014149"><ele>240.0</ele><time>2026-04-19T12:41:11.948Z</time></trkpt><trkpt lat="41.203741" lon="15.0014784"><ele>240.0</ele><time>2026-04-19T12:41:13.033Z</time></trkpt><trkpt lat="41.2038131" lon="15.0015324"><ele>240.0</ele><time>2026-04-19T12:41:14.028Z</time></trkpt><trkpt lat="41.2038822" lon="15.0015874"><ele>240.0</ele><time>2026-04-19T12:41:14.955Z</time></trkpt><trkpt lat="41.2039545" lon="15.0016488"><ele>240.0</ele><time>2026-04-19T12:41:15.958Z</time></trkpt><trkpt lat="41.2040343" lon="15.0017068"><ele>240.0</ele><time>2026-04-19T12:41:16.95Z</time></trkpt><trkpt lat="41.2041224" lon="15.0017648"><ele>240.16666666666666</ele><time>2026-04-19T12:41:17.955Z</time></trkpt><trkpt lat="41.204209" lon="15.0018306"><ele>240.33333333333331</ele><time>2026-04-19T12:41:18.955Z</time></trkpt><trkpt lat="41.2042754" lon="15.0018881"><ele>240.5</ele><time>2026-04-19T12:41:19.955Z</time></trkpt><trkpt lat="41.2043264" lon="15.00196"><ele>240.66666666666666</ele><time>2026-04-19T12:41:22.03Z</time></trkpt><trkpt lat="41.2042467" lon="15.0020342"><ele>240.83333333333331</ele><time>2026-04-19T12:41:23.954Z</time></trkpt><trkpt lat="41.2041825" lon="15.002073"><ele>241.0</ele><time>2026-04-19T12:41:24.957Z</time></trkpt><trkpt lat="41.2041289" lon="15.0021258"><ele>240.99999999999997</ele><time>2026-04-19T12:41:25.951Z</time></trkpt><trkpt lat="41.2040644" lon="15.0021785"><ele>241.0</ele><time>2026-04-19T12:41:26.952Z</time></trkpt><trkpt lat="41.2039908" lon="15.0022515"><ele>241.0</ele><time>2026-04-19T12:41:27.952Z</time></trkpt><trkpt lat="41.2039138" lon="15.0023308"><ele>241.0</ele><time>2026-04-19T12:41:28.956Z</time></trkpt><trkpt lat="41.2038434" lon="15.0023983"><ele>240.99999999999997</ele><time>2026-04-19T12:41:29.954Z</time></trkpt><trkpt lat="41.2037762" lon="15.0024637"><ele>241.0</ele><time>2026-04-19T12:41:30.957Z</time></trkpt><trkpt lat="41.2037019" lon="15.0025174"><ele>243.83333333333331</ele><time>2026-04-19T12:41:31.961Z</time></trkpt><trkpt lat="41.2036307" lon="15.0025618"><ele>246.66666666666666</ele><time>2026-04-19T12:41:32.952Z</time></trkpt><trkpt lat="41.203564" lon="15.0026267"><ele>249.5</ele><time>2026-04-19T12:41:33.959Z</time></trkpt><trkpt lat="41.2035114" lon="15.0026814"><ele>252.33333333333331</ele><time>2026-04-19T12:41:34.949Z</time></trkpt><trkpt lat="41.2034652" lon="15.0027402"><ele>255.16666666666666</ele><time>2026-04-19T12:41:36.03Z</time></trkpt><trkpt lat="41.2034036" lon="15.0028167"><ele>258.0</ele><time>2026-04-19T12:41:37.032Z</time></trkpt><trkpt lat="41.2033399" lon="15.0029039"><ele>258.0</ele><time>2026-04-19T12:41:37.947Z</time></trkpt><trkpt lat="41.2032801" lon="15.0029761"><ele>258.0</ele><time>2026-04-19T12:41:38.949Z</time></trkpt><trkpt lat="41.2032276" lon="15.0030464"><ele>258.0</ele><time>2026-04-19T12:41:39.948Z</time></trkpt><trkpt lat="41.2031676" lon="15.0031197"><ele>258.0</ele><time>2026-04-19T12:41:40.95Z</time></trkpt><trkpt lat="41.2031009" lon="15.0031996"><ele>258.0</ele><time>2026-04-19T12:41:41.949Z</time></trkpt><trkpt lat="41.2030298" lon="15.0032794"><ele>258.0</ele><time>2026-04-19T12:41:43.031Z</time></trkpt><trkpt lat="41.2029673" lon="15.0033568"><ele>260.4</ele><time>2026-04-19T12:41:44.023Z</time></trkpt><trkpt lat="41.2029112" lon="15.0034431"><ele>262.8</ele><time>2026-04-19T12:41:44.947Z</time></trkpt><trkpt lat="41.2028508" lon="15.0035374"><ele>265.2</ele><time>2026-04-19T12:41:45.947Z</time></trkpt><trkpt lat="41.2027834" lon="15.0036234"><ele>267.6</ele><time>2026-04-19T12:41:46.979Z</time></trkpt><trkpt lat="41.2027115" lon="15.0037028"><ele>270.0</ele><time>2026-04-19T12:41:48.035Z</time></trkpt><trkpt lat="41.2026451" lon="15.0037819"><ele>270.0</ele><time>2026-04-19T12:41:49.029Z</time></trkpt><trkpt lat="41.2025878" lon="15.0038736"><ele>270.0</ele><time>2026-04-19T12:41:49.948Z</time></trkpt><trkpt lat="41.2025375" lon="15.0039638"><ele>270.0</ele><time>2026-04-19T12:41:50.95Z</time></trkpt><trkpt lat="41.2024949" lon="15.0040455"><ele>270.0</ele><time>2026-04-19T12:41:52.041Z</time></trkpt><trkpt lat="41.202472" lon="15.0041414"><ele>270.0</ele><time>2026-04-19T12:41:53.048Z</time></trkpt><trkpt lat="41.2024895" lon="15.0042883"><ele>270.0</ele><time>2026-04-19T12:41:54.952Z</time></trkpt><trkpt lat="41.2025438" lon="15.0043885"><ele>273.3333333333333</ele><time>2026-04-19T12:41:57.062Z</time></trkpt><trkpt lat="41.2024978" lon="15.0045185"><ele>276.6666666666667</ele><time>2026-04-19T12:41:58.95Z</time></trkpt><trkpt lat="41.2024671" lon="15.0045973"><ele>280.0</ele><time>2026-04-19T12:41:59.948Z</time></trkpt><trkpt lat="41.2024465" lon="15.0046888"><ele>283.33333333333337</ele><time>2026-04-19T12:42:00.953Z</time></trkpt><trkpt lat="41.2024206" lon="15.0047704"><ele>286.6666666666667</ele><time>2026-04-19T12:42:02.074Z</time></trkpt><trkpt lat="41.2023976" lon="15.0049373"><ele>290.0</ele><time>2026-04-19T12:42:04.032Z</time></trkpt><trkpt lat="41.2024354" lon="15.005013"><ele>292.0</ele><time>2026-04-19T12:42:04.958Z</time></trkpt><trkpt lat="41.2024455" lon="15.0051122"><ele>294.0</ele><time>2026-04-19T12:42:07.014Z</time></trkpt><trkpt lat="41.2023992" lon="15.0051771"><ele>296.0</ele><time>2026-04-19T12:42:07.954Z</time></trkpt><trkpt lat="41.2023547" lon="15.0052785"><ele>298.0</ele><time>2026-04-19T12:42:08.969Z</time></trkpt><trkpt lat="41.2023098" lon="15.005375"><ele>300.0</ele><time>2026-04-19T12:42:09.954Z</time></trkpt><trkpt lat="41.2022695" lon="15.0054434"><ele>302.0</ele><time>2026-04-19T12:42:11.026Z</time></trkpt><trkpt lat="41.2021466" lon="15.005509"><ele>302.0</ele><time>2026-04-19T12:42:13.034Z</time></trkpt><trkpt lat="41.2020538" lon="15.0055245"><ele>302.0</ele><time>2026-04-19T12:42:13.954Z</time></trkpt><trkpt lat="41.2019579" lon="15.0055108"><ele>302.0</ele><time>2026-04-19T12:42:14.951Z</time></trkpt><trkpt lat="41.20186" lon="15.0054622"><ele>302.0</ele><time>2026-04-19T12:42:15.948Z</time></trkpt><trkpt lat="41.2017855" lon="15.0054124"><ele>302.0</ele><time>2026-04-19T12:42:16.949Z</time></trkpt><trkpt lat="41.2016815" lon="15.0053913"><ele>302.0</ele><time>2026-04-19T12:42:18.949Z</time></trkpt><trkpt lat="41.2016118" lon="15.0054162"><ele>302.0</ele><time>2026-04-19T12:42:19.949Z</time></trkpt><trkpt lat="41.2015367" lon="15.0054287"><ele>302.0</ele><time>2026-04-19T12:42:20.954Z</time></trkpt><trkpt lat="41.2014694" lon="15.0054459"><ele>302.0</ele><time>2026-04-19T12:42:22.029Z</time></trkpt><trkpt lat="41.2013979" lon="15.0055014"><ele>302.0</ele><time>2026-04-19T12:42:22.952Z</time></trkpt><trkpt lat="41.2013181" lon="15.0055601"><ele>302.0</ele><time>2026-04-19T12:42:23.948Z</time></trkpt><trkpt lat="41.2012318" lon="15.005582"><ele>303.0</ele><time>2026-04-19T12:42:24.956Z</time></trkpt><trkpt lat="41.2011341" lon="15.0055764"><ele>304.0</ele><time>2026-04-19T12:42:25.951Z</time></trkpt><trkpt lat="41.201052" lon="15.00554"><ele>305.0</ele><time>2026-04-19T12:42:26.949Z</time></trkpt><trkpt lat="41.2009837" lon="15.0054899"><ele>306.0</ele><time>2026-04-19T12:42:28.04Z</time></trkpt><trkpt lat="41.200925" lon="15.005456"><ele>307.0</ele><time>2026-04-19T12:42:29.027Z</time></trkpt><trkpt lat="41.2008477" lon="15.0054422"><ele>308.0</ele><time>2026-04-19T12:42:29.957Z</time></trkpt><trkpt lat="41.2007555" lon="15.0054308"><ele>310.5</ele><time>2026-04-19T12:42:31.023Z</time></trkpt><trkpt lat="41.2006516" lon="15.0054032"><ele>313.0</ele><time>2026-04-19T12:42:32.004Z</time></trkpt><trkpt lat="41.2005679" lon="15.0053516"><ele>315.5</ele><time>2026-04-19T12:42:32.982Z</time></trkpt><trkpt lat="41.2005" lon="15.0053266"><ele>318.0</ele><time>2026-04-19T12:42:33.962Z</time></trkpt><trkpt lat="41.2004045" lon="15.0053841"><ele>320.5</ele><time>2026-04-19T12:42:35.953Z</time></trkpt><trkpt lat="41.200368" lon="15.0054551"><ele>323.0</ele><time>2026-04-19T12:42:37.012Z</time></trkpt><trkpt lat="41.2003231" lon="15.0055354"><ele>323.0</ele><time>2026-04-19T12:42:37.978Z</time></trkpt><trkpt lat="41.2002758" lon="15.0056089"><ele>323.0</ele><time>2026-04-19T12:42:39.015Z</time></trkpt><trkpt lat="41.2002192" lon="15.0056589"><ele>323.0</ele><time>2026-04-19T12:42:39.953Z</time></trkpt><trkpt lat="41.2000963" lon="15.0056466"><ele>323.0</ele><time>2026-04-19T12:42:41.951Z</time></trkpt><trkpt lat="41.2000264" lon="15.0056286"><ele>323.0</ele><time>2026-04-19T12:42:42.97Z</time></trkpt><trkpt lat="41.199965" lon="15.0056607"><ele>323.0</ele><time>2026-04-19T12:42:44.023Z</time></trkpt><trkpt lat="41.1998965" lon="15.0056903"><ele>325.33333333333337</ele><time>2026-04-19T12:42:44.949Z</time></trkpt><trkpt lat="41.1998247" lon="15.0057066"><ele>327.6666666666667</ele><time>2026-04-19T12:42:45.951Z</time></trkpt><trkpt lat="41.1997529" lon="15.0057455"><ele>330.0</ele><time>2026-04-19T12:42:47.011Z</time></trkpt><trkpt lat="41.1996752" lon="15.005792"><ele>332.3333333333333</ele><time>2026-04-19T12:42:47.952Z</time></trkpt><trkpt lat="41.1995982" lon="15.0058264"><ele>334.66666666666663</ele><time>2026-04-19T12:42:49.034Z</time></trkpt><trkpt lat="41.1995135" lon="15.0058718"><ele>337.0</ele><time>2026-04-19T12:42:49.952Z</time></trkpt><trkpt lat="41.1994485" lon="15.0059249"><ele>338.66666666666663</ele><time>2026-04-19T12:42:50.957Z</time></trkpt><trkpt lat="41.1993862" lon="15.0059623"><ele>340.3333333333333</ele><time>2026-04-19T12:42:52.952Z</time></trkpt><trkpt lat="41.1994863" lon="15.0059933"><ele>342.0</ele><time>2026-04-19T12:42:56.951Z</time></trkpt><trkpt lat="41.1995389" lon="15.0060746"><ele>343.6666666666667</ele><time>2026-04-19T12:42:57.951Z</time></trkpt><trkpt lat="41.1995953" lon="15.0061392"><ele>345.33333333333337</ele><time>2026-04-19T12:42:58.953Z</time></trkpt><trkpt lat="41.1996493" lon="15.0062158"><ele>347.0</ele><time>2026-04-19T12:42:59.957Z</time></trkpt><trkpt lat="41.1996765" lon="15.0062954"><ele>347.0</ele><time>2026-04-19T12:43:00.95Z</time></trkpt><trkpt lat="41.1996639" lon="15.0063801"><ele>347.0</ele><time>2026-04-19T12:43:01.947Z</time></trkpt><trkpt lat="41.1995219" lon="15.0064775"><ele>347.0</ele><time>2026-04-19T12:43:03.965Z</time></trkpt><trkpt lat="41.199427" lon="15.0065118"><ele>347.0</ele><time>2026-04-19T12:43:04.948Z</time></trkpt><trkpt lat="41.1993236" lon="15.0065449"><ele>347.0</ele><time>2026-04-19T12:43:05.955Z</time></trkpt><trkpt lat="41.1992325" lon="15.0065641"><ele>347.0</ele><time>2026-04-19T12:43:06.954Z</time></trkpt><trkpt lat="41.1991528" lon="15.0065743"><ele>347.0</ele><time>2026-04-19T12:43:07.953Z</time></trkpt><trkpt lat="41.199087" lon="15.0066158"><ele>347.0</ele><time>2026-04-19T12:43:08.957Z</time></trkpt><trkpt lat="41.199018" lon="15.0066833"><ele>347.0</ele><time>2026-04-19T12:43:09.95Z</time></trkpt><trkpt lat="41.1989403" lon="15.0067691"><ele>347.0</ele><time>2026-04-19T12:43:10.956Z</time></trkpt><trkpt lat="41.1988564" lon="15.0068489"><ele>347.0</ele><time>2026-04-19T12:43:11.951Z</time></trkpt><trkpt lat="41.1987661" lon="15.0069196"><ele>351.6</ele><time>2026-04-19T12:43:12.956Z</time></trkpt><trkpt lat="41.19869" lon="15.0069884"><ele>356.20000000000005</ele><time>2026-04-19T12:43:13.949Z</time></trkpt><trkpt lat="41.1986067" lon="15.0070588"><ele>360.8</ele><time>2026-04-19T12:43:14.953Z</time></trkpt><trkpt lat="41.1985398" lon="15.0071288"><ele>365.4</ele><time>2026-04-19T12:43:16.035Z</time></trkpt><trkpt lat="41.1984865" lon="15.0072379"><ele>370.0</ele><time>2026-04-19T12:43:18.023Z</time></trkpt><trkpt lat="41.198513" lon="15.0073724"><ele>370.0</ele><time>2026-04-19T12:43:19.946Z</time></trkpt><trkpt lat="41.1985693" lon="15.0074547"><ele>370.0</ele><time>2026-04-19T12:43:22.028Z</time></trkpt><trkpt lat="41.1986609" lon="15.0074484"><ele>370.0</ele><time>2026-04-19T12:45:11.957Z</time></trkpt><trkpt lat="41.1987286" lon="15.0074519"><ele>370.0</ele><time>2026-04-19T12:45:12.959Z</time></trkpt><trkpt lat="41.198812" lon="15.0074922"><ele>370.0</ele><time>2026-04-19T12:45:13.959Z</time></trkpt><trkpt lat="41.1988916" lon="15.0075582"><ele>370.0</ele><time>2026-04-19T12:45:14.955Z</time></trkpt><trkpt lat="41.1989722" lon="15.0076271"><ele>376.8</ele><time>2026-04-19T12:45:15.956Z</time></trkpt><trkpt lat="41.199051" lon="15.0077018"><ele>383.6</ele><time>2026-04-19T12:45:16.96Z</time></trkpt><trkpt lat="41.1991313" lon="15.0077614"><ele>390.4</ele><time>2026-04-19T12:45:17.963Z</time></trkpt><trkpt lat="41.1992039" lon="15.0078052"><ele>397.2</ele><time>2026-04-19T12:45:18.956Z</time></trkpt><trkpt lat="41.1992922" lon="15.0078337"><ele>404.0</ele><time>2026-04-19T12:45:19.955Z</time></trkpt><trkpt lat="41.1993915" lon="15.0078745"><ele>404.0</ele><time>2026-04-19T12:45:20.957Z</time></trkpt><trkpt lat="41.1994819" lon="15.0079343"><ele>404.0</ele><time>2026-04-19T12:45:21.954Z</time></trkpt><trkpt lat="41.1995776" lon="15.008008"><ele>404.0</ele><time>2026-04-19T12:45:22.956Z</time></trkpt><trkpt lat="41.1996738" lon="15.0080637"><ele>404.0</ele><time>2026-04-19T12:45:23.957Z</time></trkpt><trkpt lat="41.1997595" lon="15.0081197"><ele>404.0</ele><time>2026-04-19T12:45:24.953Z</time></trkpt><trkpt lat="41.1998391" lon="15.0081744"><ele>403.79999999999995</ele><time>2026-04-19T12:45:25.955Z</time></trkpt><trkpt lat="41.1999213" lon="15.0082409"><ele>403.59999999999997</ele><time>2026-04-19T12:45:26.955Z</time></trkpt><trkpt lat="41.200001" lon="15.0083271"><ele>403.4</ele><time>2026-04-19T12:45:27.959Z</time></trkpt><trkpt lat="41.2000825" lon="15.0084237"><ele>403.2</ele><time>2026-04-19T12:45:28.956Z</time></trkpt><trkpt lat="41.2001603" lon="15.0085096"><ele>403.0</ele><time>2026-04-19T12:45:29.951Z</time></trkpt><trkpt lat="41.200231" lon="15.008559"><ele>406.83333333333337</ele><time>2026-04-19T12:45:30.955Z</time></trkpt><trkpt lat="41.2003036" lon="15.0085758"><ele>410.6666666666667</ele><time>2026-04-19T12:45:31.955Z</time></trkpt><trkpt lat="41.2004189" lon="15.0085513"><ele>414.5</ele><time>2026-04-19T12:45:33.963Z</time></trkpt><trkpt lat="41.2004824" lon="15.0084916"><ele>418.33333333333337</ele><time>2026-04-19T12:45:34.958Z</time></trkpt><trkpt lat="41.2005577" lon="15.0084296"><ele>422.1666666666667</ele><time>2026-04-19T12:45:35.961Z</time></trkpt><trkpt lat="41.2006343" lon="15.0083919"><ele>426.0</ele><time>2026-04-19T12:45:36.955Z</time></trkpt><trkpt lat="41.2007111" lon="15.0083577"><ele>423.1666666666667</ele><time>2026-04-19T12:45:37.957Z</time></trkpt><trkpt lat="41.2007907" lon="15.0083242"><ele>420.33333333333337</ele><time>2026-04-19T12:45:38.962Z</time></trkpt><trkpt lat="41.2008617" lon="15.0082824"><ele>417.5</ele><time>2026-04-19T12:45:39.962Z</time></trkpt><trkpt lat="41.2009299" lon="15.0082062"><ele>414.6666666666667</ele><time>2026-04-19T12:45:40.952Z</time></trkpt><trkpt lat="41.2009834" lon="15.0081085"><ele>411.83333333333337</ele><time>2026-04-19T12:45:41.962Z</time></trkpt><trkpt lat="41.2010475" lon="15.0080205"><ele>409.0</ele><time>2026-04-19T12:45:42.962Z</time></trkpt><trkpt lat="41.2011153" lon="15.007955"><ele>409.00000000000006</ele><time>2026-04-19T12:45:43.968Z</time></trkpt><trkpt lat="41.2011797" lon="15.0079118"><ele>409.0</ele><time>2026-04-19T12:45:44.954Z</time></trkpt><trkpt lat="41.2012834" lon="15.0078913"><ele>409.0</ele><time>2026-04-19T12:45:46.958Z</time></trkpt><trkpt lat="41.201378" lon="15.0079123"><ele>409.0</ele><time>2026-04-19T12:45:48.95Z</time></trkpt><trkpt lat="41.2014756" lon="15.007984"><ele>409.00000000000006</ele><time>2026-04-19T12:45:50.955Z</time></trkpt><trkpt lat="41.201526" lon="15.0080342"><ele>409.0</ele><time>2026-04-19T12:45:51.959Z</time></trkpt><trkpt lat="41.2016247" lon="15.0081345"><ele>409.83333333333337</ele><time>2026-04-19T12:45:53.955Z</time></trkpt><trkpt lat="41.2016793" lon="15.0081907"><ele>410.6666666666667</ele><time>2026-04-19T12:45:54.959Z</time></trkpt><trkpt lat="41.201722" lon="15.0082537"><ele>411.5</ele><time>2026-04-19T12:45:56.034Z</time></trkpt><trkpt lat="41.2017923" lon="15.0083795"><ele>412.33333333333337</ele><time>2026-04-19T12:45:57.947Z</time></trkpt><trkpt lat="41.2018213" lon="15.0084541"><ele>413.1666666666667</ele><time>2026-04-19T12:45:58.956Z</time></trkpt><trkpt lat="41.2018469" lon="15.0085415"><ele>414.0</ele><time>2026-04-19T12:45:59.953Z</time></trkpt><trkpt lat="41.2018668" lon="15.0086275"><ele>414.0</ele><time>2026-04-19T12:46:00.952Z</time></trkpt><trkpt lat="41.2018858" lon="15.0087082"><ele>414.0</ele><time>2026-04-19T12:46:01.952Z</time></trkpt><trkpt lat="41.2018965" lon="15.0087968"><ele>414.0</ele><time>2026-04-19T12:46:03.04Z</time></trkpt><trkpt lat="41.2019034" lon="15.0089016"><ele>414.0</ele><time>2026-04-19T12:46:04.031Z</time></trkpt><trkpt lat="41.2019132" lon="15.009039"><ele>414.0</ele><time>2026-04-19T12:46:04.961Z</time></trkpt><trkpt lat="41.2019259" lon="15.0091895"><ele>414.0</ele><time>2026-04-19T12:46:05.962Z</time></trkpt><trkpt lat="41.2019506" lon="15.0093332"><ele>414.0</ele><time>2026-04-19T12:46:06.964Z</time></trkpt><trkpt lat="41.2019972" lon="15.0094836"><ele>414.0</ele><time>2026-04-19T12:46:07.966Z</time></trkpt><trkpt lat="41.2020562" lon="15.0096313"><ele>414.0</ele><time>2026-04-19T12:46:08.965Z</time></trkpt><trkpt lat="41.2021114" lon="15.009764"><ele>414.0</ele><time>2026-04-19T12:46:09.964Z</time></trkpt><trkpt lat="41.2021413" lon="15.009873"><ele>413.25</ele><time>2026-04-19T12:46:10.969Z</time></trkpt><trkpt lat="41.2021638" lon="15.0099945"><ele>412.5</ele><time>2026-04-19T12:46:11.962Z</time></trkpt><trkpt lat="41.202192" lon="15.0101599"><ele>411.75</ele><time>2026-04-19T12:46:13.029Z</time></trkpt><trkpt lat="41.2022236" lon="15.0103256"><ele>411.0</ele><time>2026-04-19T12:46:14.03Z</time></trkpt><trkpt lat="41.2022512" lon="15.0104703"><ele>411.0</ele><time>2026-04-19T12:46:14.948Z</time></trkpt><trkpt lat="41.2022512" lon="15.0106082"><ele>411.0</ele><time>2026-04-19T12:46:15.951Z</time></trkpt><trkpt lat="41.2022507" lon="15.0107505"><ele>411.0</ele><time>2026-04-19T12:46:16.954Z</time></trkpt><trkpt lat="41.2022427" lon="15.0109084"><ele>411.0</ele><time>2026-04-19T12:46:17.953Z</time></trkpt><trkpt lat="41.2022414" lon="15.0110823"><ele>410.0</ele><time>2026-04-19T12:46:18.951Z</time></trkpt><trkpt lat="41.2022515" lon="15.0112641"><ele>409.0</ele><time>2026-04-19T12:46:19.944Z</time></trkpt><trkpt lat="41.2022644" lon="15.0114398"><ele>408.0</ele><time>2026-04-19T12:46:20.949Z</time></trkpt><trkpt lat="41.2022762" lon="15.0116087"><ele>407.0</ele><time>2026-04-19T12:46:21.947Z</time></trkpt><trkpt lat="41.2022887" lon="15.0117774"><ele>406.20000000000005</ele><time>2026-04-19T12:46:23.027Z</time></trkpt><trkpt lat="41.2023017" lon="15.0119429"><ele>405.4</ele><time>2026-04-19T12:46:23.948Z</time></trkpt><trkpt lat="41.2023082" lon="15.0121008"><ele>404.6</ele><time>2026-04-19T12:46:24.951Z</time></trkpt><trkpt lat="41.2023105" lon="15.0122428"><ele>403.79999999999995</ele><time>2026-04-19T12:46:25.95Z</time></trkpt><trkpt lat="41.2023049" lon="15.0123337"><ele>403.0</ele><time>2026-04-19T12:46:26.999Z</time></trkpt><trkpt lat="41.2022372" lon="15.0124539"><ele>402.83333333333337</ele><time>2026-04-19T12:46:28.953Z</time></trkpt><trkpt lat="41.2021795" lon="15.0125068"><ele>402.6666666666667</ele><time>2026-04-19T12:46:29.951Z</time></trkpt><trkpt lat="41.2021006" lon="15.0125622"><ele>402.5</ele><time>2026-04-19T12:46:30.946Z</time></trkpt><trkpt lat="41.2020245" lon="15.0126276"><ele>402.33333333333337</ele><time>2026-04-19T12:46:31.948Z</time></trkpt><trkpt lat="41.2019692" lon="15.0127038"><ele>402.1666666666667</ele><time>2026-04-19T12:46:32.949Z</time></trkpt><trkpt lat="41.2019399" lon="15.0127805"><ele>402.0</ele><time>2026-04-19T12:46:34.037Z</time></trkpt><trkpt lat="41.2019392" lon="15.0128735"><ele>402.0</ele><time>2026-04-19T12:46:34.948Z</time></trkpt><trkpt lat="41.2019738" lon="15.0129911"><ele>402.0</ele><time>2026-04-19T12:46:36.029Z</time></trkpt><trkpt lat="41.2020171" lon="15.0131121"><ele>402.0</ele><time>2026-04-19T12:46:36.954Z</time></trkpt><trkpt lat="41.2020649" lon="15.0132248"><ele>402.0</ele><time>2026-04-19T12:46:38.021Z</time></trkpt><trkpt lat="41.2020943" lon="15.0133387"><ele>402.0</ele><time>2026-04-19T12:46:39.028Z</time></trkpt><trkpt lat="41.2021095" lon="15.0134444"><ele>400.6666666666667</ele><time>2026-04-19T12:46:39.955Z</time></trkpt><trkpt lat="41.2021455" lon="15.0135226"><ele>399.33333333333337</ele><time>2026-04-19T12:46:40.956Z</time></trkpt><trkpt lat="41.2022772" lon="15.0136225"><ele>398.0</ele><time>2026-04-19T12:46:42.994Z</time></trkpt><trkpt lat="41.2023341" lon="15.0136868"><ele>396.6666666666667</ele><time>2026-04-19T12:46:43.972Z</time></trkpt><trkpt lat="41.202383" lon="15.0137457"><ele>395.33333333333337</ele><time>2026-04-19T12:46:44.956Z</time></trkpt><trkpt lat="41.202429" lon="15.0138358"><ele>394.0</ele><time>2026-04-19T12:46:46.032Z</time></trkpt><trkpt lat="41.2024868" lon="15.0139324"><ele>389.6</ele><time>2026-04-19T12:46:46.966Z</time></trkpt><trkpt lat="41.2025335" lon="15.0140318"><ele>385.2</ele><time>2026-04-19T12:46:47.962Z</time></trkpt><trkpt lat="41.2025822" lon="15.0141356"><ele>380.8</ele><time>2026-04-19T12:46:48.96Z</time></trkpt><trkpt lat="41.2026339" lon="15.0142573"><ele>376.40000000000003</ele><time>2026-04-19T12:46:49.962Z</time></trkpt><trkpt lat="41.2026874" lon="15.0143814"><ele>372.0</ele><time>2026-04-19T12:46:50.95Z</time></trkpt><trkpt lat="41.2027459" lon="15.0144821"><ele>372.0</ele><time>2026-04-19T12:46:51.977Z</time></trkpt><trkpt lat="41.2027988" lon="15.0145698"><ele>372.0</ele><time>2026-04-19T12:46:53.036Z</time></trkpt><trkpt lat="41.2028384" lon="15.0146522"><ele>372.0</ele><time>2026-04-19T12:46:54.026Z</time></trkpt><trkpt lat="41.202879" lon="15.0147414"><ele>372.0</ele><time>2026-04-19T12:46:54.95Z</time></trkpt><trkpt lat="41.2029213" lon="15.0148269"><ele>372.0</ele><time>2026-04-19T12:46:55.951Z</time></trkpt><trkpt lat="41.2029743" lon="15.0149029"><ele>372.0</ele><time>2026-04-19T12:46:56.959Z</time></trkpt><trkpt lat="41.2030396" lon="15.0149877"><ele>371.0</ele><time>2026-04-19T12:46:57.948Z</time></trkpt><trkpt lat="41.2031126" lon="15.0150723"><ele>370.0</ele><time>2026-04-19T12:46:58.947Z</time></trkpt><trkpt lat="41.2031853" lon="15.0151493"><ele>369.0</ele><time>2026-04-19T12:46:59.947Z</time></trkpt><trkpt lat="41.2032572" lon="15.0152105"><ele>368.0</ele><time>2026-04-19T12:47:01.028Z</time></trkpt><trkpt lat="41.2033271" lon="15.0152803"><ele>367.0</ele><time>2026-04-19T12:47:02.02Z</time></trkpt><trkpt lat="41.2033941" lon="15.0153631"><ele>367.0</ele><time>2026-04-19T12:47:03.03Z</time></trkpt><trkpt lat="41.2034569" lon="15.0154537"><ele>367.0</ele><time>2026-04-19T12:47:03.95Z</time></trkpt><trkpt lat="41.2035192" lon="15.0155533"><ele>367.0</ele><time>2026-04-19T12:47:04.949Z</time></trkpt><trkpt lat="41.2035714" lon="15.0156512"><ele>367.0</ele><time>2026-04-19T12:47:05.948Z</time></trkpt><trkpt lat="41.2036247" lon="15.0157529"><ele>367.0</ele><time>2026-04-19T12:47:06.945Z</time></trkpt><trkpt lat="41.2036665" lon="15.0158588"><ele>369.8</ele><time>2026-04-19T12:47:07.953Z</time></trkpt><trkpt lat="41.2036952" lon="15.0159757"><ele>372.6</ele><time>2026-04-19T12:47:08.967Z</time></trkpt><trkpt lat="41.2037066" lon="15.0161013"><ele>375.40000000000003</ele><time>2026-04-19T12:47:09.95Z</time></trkpt><trkpt lat="41.2037124" lon="15.0162263"><ele>378.20000000000005</ele><time>2026-04-19T12:47:10.951Z</time></trkpt><trkpt lat="41.2037164" lon="15.0163514"><ele>381.0</ele><time>2026-04-19T12:47:12.035Z</time></trkpt><trkpt lat="41.2037202" lon="15.0164917"><ele>381.0</ele><time>2026-04-19T12:47:13.029Z</time></trkpt><trkpt lat="41.2037281" lon="15.0166424"><ele>381.0</ele><time>2026-04-19T12:47:13.941Z</time></trkpt><trkpt lat="41.2037413" lon="15.0167909"><ele>381.0</ele><time>2026-04-19T12:47:14.948Z</time></trkpt><trkpt lat="41.2037514" lon="15.0169424"><ele>381.0</ele><time>2026-04-19T12:47:15.951Z</time></trkpt><trkpt lat="41.203756" lon="15.0170831"><ele>381.0</ele><time>2026-04-19T12:47:16.977Z</time></trkpt><trkpt lat="41.2037625" lon="15.017187"><ele>382.3333333333333</ele><time>2026-04-19T12:47:17.99Z</time></trkpt><trkpt lat="41.2037273" lon="15.0173133"><ele>383.66666666666663</ele><time>2026-04-19T12:47:19.952Z</time></trkpt><trkpt lat="41.2036672" lon="15.017346"><ele>385.0</ele><time>2026-04-19T12:47:21.035Z</time></trkpt><trkpt lat="41.2035924" lon="15.0173744"><ele>386.3333333333333</ele><time>2026-04-19T12:47:22.03Z</time></trkpt><trkpt lat="41.2035082" lon="15.0174103"><ele>387.66666666666663</ele><time>2026-04-19T12:47:23.03Z</time></trkpt><trkpt lat="41.2034276" lon="15.0174608"><ele>389.0</ele><time>2026-04-19T12:47:23.963Z</time></trkpt><trkpt lat="41.2033513" lon="15.0175211"><ele>390.0</ele><time>2026-04-19T12:47:24.969Z</time></trkpt><trkpt lat="41.2032746" lon="15.0175889"><ele>391.0</ele><time>2026-04-19T12:47:25.96Z</time></trkpt><trkpt lat="41.2032035" lon="15.0176505"><ele>392.0</ele><time>2026-04-19T12:47:27.027Z</time></trkpt><trkpt lat="41.2031344" lon="15.0177153"><ele>393.0</ele><time>2026-04-19T12:47:28.068Z</time></trkpt><trkpt lat="41.2029894" lon="15.0178402"><ele>394.0</ele><time>2026-04-19T12:47:29.947Z</time></trkpt><trkpt lat="41.2029157" lon="15.0178794"><ele>396.50000000000006</ele><time>2026-04-19T12:47:30.945Z</time></trkpt><trkpt lat="41.2028455" lon="15.0179044"><ele>399.0</ele><time>2026-04-19T12:47:32.034Z</time></trkpt><trkpt lat="41.2027818" lon="15.017919"><ele>401.5</ele><time>2026-04-19T12:47:32.955Z</time></trkpt><trkpt lat="41.2027017" lon="15.0179148"><ele>404.0</ele><time>2026-04-19T12:47:34.031Z</time></trkpt><trkpt lat="41.2026167" lon="15.017878"><ele>406.50000000000006</ele><time>2026-04-19T12:47:34.95Z</time></trkpt><trkpt lat="41.2025363" lon="15.0178268"><ele>409.0</ele><time>2026-04-19T12:47:35.948Z</time></trkpt><trkpt lat="41.2024517" lon="15.0177746"><ele>409.00000000000006</ele><time>2026-04-19T12:47:36.947Z</time></trkpt><trkpt lat="41.2023597" lon="15.0177392"><ele>409.0</ele><time>2026-04-19T12:47:37.951Z</time></trkpt><trkpt lat="41.2022732" lon="15.0177136"><ele>409.0</ele><time>2026-04-19T12:47:38.955Z</time></trkpt><trkpt lat="41.2021911" lon="15.0176962"><ele>409.0</ele><time>2026-04-19T12:47:39.951Z</time></trkpt><trkpt lat="41.2021168" lon="15.0176852"><ele>409.00000000000006</ele><time>2026-04-19T12:47:40.952Z</time></trkpt><trkpt lat="41.2020435" lon="15.0176781"><ele>409.0</ele><time>2026-04-19T12:47:42.016Z</time></trkpt><trkpt lat="41.2019661" lon="15.0176726"><ele>411.33333333333337</ele><time>2026-04-19T12:47:43.039Z</time></trkpt><trkpt lat="41.2018883" lon="15.0176646"><ele>413.6666666666667</ele><time>2026-04-19T12:47:44.017Z</time></trkpt><trkpt lat="41.2018202" lon="15.0176503"><ele>416.0</ele><time>2026-04-19T12:47:44.955Z</time></trkpt><trkpt lat="41.2017177" lon="15.0176265"><ele>418.33333333333337</ele><time>2026-04-19T12:47:46.955Z</time></trkpt><trkpt lat="41.2016469" lon="15.0176437"><ele>420.6666666666667</ele><time>2026-04-19T12:47:49.955Z</time></trkpt><trkpt lat="41.2015699" lon="15.0176308"><ele>423.0</ele><time>2026-04-19T12:53:35.963Z</time></trkpt><trkpt lat="41.2015392" lon="15.0175516"><ele>424.2</ele><time>2026-04-19T12:54:20.966Z</time></trkpt><trkpt lat="41.2014199" lon="15.0175006"><ele>425.4</ele><time>2026-04-19T12:54:22.958Z</time></trkpt><trkpt lat="41.2013258" lon="15.0174555"><ele>426.59999999999997</ele><time>2026-04-19T12:54:23.956Z</time></trkpt><trkpt lat="41.2012218" lon="15.0174221"><ele>427.79999999999995</ele><time>2026-04-19T12:54:24.969Z</time></trkpt><trkpt lat="41.2011121" lon="15.0173979"><ele>429.0</ele><time>2026-04-19T12:54:25.96Z</time></trkpt><trkpt lat="41.2009957" lon="15.0173791"><ele>429.0</ele><time>2026-04-19T12:54:27.03Z</time></trkpt><trkpt lat="41.2008853" lon="15.0173663"><ele>429.0</ele><time>2026-04-19T12:54:28.036Z</time></trkpt><trkpt lat="41.2007864" lon="15.0173685"><ele>429.0</ele><time>2026-04-19T12:54:28.958Z</time></trkpt><trkpt lat="41.2007039" lon="15.0173928"><ele>429.0</ele><time>2026-04-19T12:54:29.955Z</time></trkpt><trkpt lat="41.2006313" lon="15.0174572"><ele>429.0</ele><time>2026-04-19T12:54:30.958Z</time></trkpt><trkpt lat="41.2005779" lon="15.0175734"><ele>432.4</ele><time>2026-04-19T12:54:31.959Z</time></trkpt><trkpt lat="41.2005372" lon="15.0177078"><ele>435.79999999999995</ele><time>2026-04-19T12:54:32.961Z</time></trkpt><trkpt lat="41.2004951" lon="15.0178366"><ele>439.20000000000005</ele><time>2026-04-19T12:54:33.955Z</time></trkpt><trkpt lat="41.2004244" lon="15.0179508"><ele>442.6</ele><time>2026-04-19T12:54:34.954Z</time></trkpt><trkpt lat="41.2003554" lon="15.0180293"><ele>446.0</ele><time>2026-04-19T12:54:36.072Z</time></trkpt><trkpt lat="41.2001882" lon="15.0181671"><ele>445.99999999999994</ele><time>2026-04-19T12:54:38.031Z</time></trkpt><trkpt lat="41.2001016" lon="15.0182235"><ele>446.0</ele><time>2026-04-19T12:54:39.032Z</time></trkpt><trkpt lat="41.200022" lon="15.0182792"><ele>446.0</ele><time>2026-04-19T12:54:39.956Z</time></trkpt><trkpt lat="41.199944" lon="15.018335"><ele>446.0</ele><time>2026-04-19T12:54:40.952Z</time></trkpt><trkpt lat="41.199866" lon="15.0183708"><ele>445.99999999999994</ele><time>2026-04-19T12:54:41.958Z</time></trkpt><trkpt lat="41.1997915" lon="15.0184003"><ele>446.0</ele><time>2026-04-19T12:54:43.035Z</time></trkpt><trkpt lat="41.1996977" lon="15.0183935"><ele>449.8</ele><time>2026-04-19T12:54:44.032Z</time></trkpt><trkpt lat="41.1995948" lon="15.0183563"><ele>453.6</ele><time>2026-04-19T12:54:44.967Z</time></trkpt><trkpt lat="41.1994858" lon="15.0183489"><ele>457.4</ele><time>2026-04-19T12:54:45.965Z</time></trkpt><trkpt lat="41.199389" lon="15.0183489"><ele>461.2</ele><time>2026-04-19T12:54:46.965Z</time></trkpt><trkpt lat="41.1992957" lon="15.0183623"><ele>465.0</ele><time>2026-04-19T12:54:48.028Z</time></trkpt><trkpt lat="41.1992193" lon="15.0184063"><ele>465.0</ele><time>2026-04-19T12:54:49.033Z</time></trkpt><trkpt lat="41.1991513" lon="15.0184704"><ele>465.0</ele><time>2026-04-19T12:54:49.948Z</time></trkpt><trkpt lat="41.1991145" lon="15.0185739"><ele>465.0</ele><time>2026-04-19T12:54:50.949Z</time></trkpt><trkpt lat="41.1990724" lon="15.0187157"><ele>465.0</ele><time>2026-04-19T12:54:51.95Z</time></trkpt><trkpt lat="41.1990433" lon="15.0188731"><ele>465.0</ele><time>2026-04-19T12:54:52.977Z</time></trkpt><trkpt lat="41.1990227" lon="15.0190285"><ele>466.8</ele><time>2026-04-19T12:54:54.031Z</time></trkpt><trkpt lat="41.198985" lon="15.0191849"><ele>468.6</ele><time>2026-04-19T12:54:54.953Z</time></trkpt><trkpt lat="41.1989526" lon="15.0193269"><ele>470.4</ele><time>2026-04-19T12:54:55.951Z</time></trkpt><trkpt lat="41.1989279" lon="15.0194593"><ele>472.2</ele><time>2026-04-19T12:54:57.029Z</time></trkpt><trkpt lat="41.1989028" lon="15.0195677"><ele>474.0</ele><time>2026-04-19T12:54:57.948Z</time></trkpt><trkpt lat="41.1988868" lon="15.0196503"><ele>474.0</ele><time>2026-04-19T12:54:58.949Z</time></trkpt><trkpt lat="41.198851" lon="15.0197776"><ele>474.0</ele><time>2026-04-19T12:55:00.952Z</time></trkpt><trkpt lat="41.1988304" lon="15.0198666"><ele>474.0</ele><time>2026-04-19T12:55:02.953Z</time></trkpt><trkpt lat="41.1988051" lon="15.0199863"><ele>474.0</ele><time>2026-04-19T12:55:04.951Z</time></trkpt><trkpt lat="41.1987746" lon="15.0200775"><ele>474.0</ele><time>2026-04-19T12:55:05.952Z</time></trkpt><trkpt lat="41.1987242" lon="15.0201737"><ele>474.0</ele><time>2026-04-19T12:55:07.025Z</time></trkpt><trkpt lat="41.1986582" lon="15.0202769"><ele>475.2</ele><time>2026-04-19T12:55:07.954Z</time></trkpt><trkpt lat="41.1985915" lon="15.0203798"><ele>476.4</ele><time>2026-04-19T12:55:08.951Z</time></trkpt><trkpt lat="41.1985171" lon="15.0204668"><ele>477.6</ele><time>2026-04-19T12:55:09.952Z</time></trkpt><trkpt lat="41.1984412" lon="15.0205302"><ele>478.8</ele><time>2026-04-19T12:55:10.954Z</time></trkpt><trkpt lat="41.1983575" lon="15.0205799"><ele>480.0</ele><time>2026-04-19T12:55:11.946Z</time></trkpt><trkpt lat="41.1982598" lon="15.0205997"><ele>483.5</ele><time>2026-04-19T12:55:12.964Z</time></trkpt><trkpt lat="41.1981475" lon="15.0206092"><ele>487.0</ele><time>2026-04-19T12:55:14.035Z</time></trkpt><trkpt lat="41.198022" lon="15.0206136"><ele>490.5</ele><time>2026-04-19T12:55:14.964Z</time></trkpt><trkpt lat="41.1978929" lon="15.0206379"><ele>494.0</ele><time>2026-04-19T12:55:15.959Z</time></trkpt><trkpt lat="41.1977654" lon="15.0206715"><ele>494.0</ele><time>2026-04-19T12:55:16.953Z</time></trkpt><trkpt lat="41.1976614" lon="15.0207166"><ele>494.0</ele><time>2026-04-19T12:55:17.954Z</time></trkpt><trkpt lat="41.1975783" lon="15.0207934"><ele>494.0</ele><time>2026-04-19T12:55:18.955Z</time></trkpt><trkpt lat="41.1975092" lon="15.0209032"><ele>494.0</ele><time>2026-04-19T12:55:19.955Z</time></trkpt><trkpt lat="41.1974584" lon="15.0210204"><ele>494.0</ele><time>2026-04-19T12:55:20.962Z</time></trkpt><trkpt lat="41.1974016" lon="15.0211259"><ele>496.4</ele><time>2026-04-19T12:55:22.035Z</time></trkpt><trkpt lat="41.1973315" lon="15.0212119"><ele>498.79999999999995</ele><time>2026-04-19T12:55:22.964Z</time></trkpt><trkpt lat="41.1972517" lon="15.0212782"><ele>501.20000000000005</ele><time>2026-04-19T12:55:23.964Z</time></trkpt><trkpt lat="41.1971709" lon="15.0213096"><ele>503.6</ele><time>2026-04-19T12:55:24.95Z</time></trkpt><trkpt lat="41.1970859" lon="15.0213166"><ele>506.0</ele><time>2026-04-19T12:55:26.025Z</time></trkpt><trkpt lat="41.1969926" lon="15.0212778"><ele>506.0</ele><time>2026-04-19T12:55:26.956Z</time></trkpt><trkpt lat="41.196882" lon="15.0212146"><ele>506.0</ele><time>2026-04-19T12:55:28.003Z</time></trkpt><trkpt lat="41.1967725" lon="15.02117"><ele>506.0</ele><time>2026-04-19T12:55:29.032Z</time></trkpt><trkpt lat="41.196678" lon="15.0211202"><ele>506.0</ele><time>2026-04-19T12:55:29.959Z</time></trkpt><trkpt lat="41.1965899" lon="15.0210966"><ele>506.0</ele><time>2026-04-19T12:55:30.962Z</time></trkpt><trkpt lat="41.1965074" lon="15.0211163"><ele>505.8</ele><time>2026-04-19T12:55:32.032Z</time></trkpt><trkpt lat="41.1964091" lon="15.021159"><ele>505.6</ele><time>2026-04-19T12:55:32.958Z</time></trkpt><trkpt lat="41.196326" lon="15.0212361"><ele>505.4</ele><time>2026-04-19T12:55:34.029Z</time></trkpt><trkpt lat="41.1962348" lon="15.0213303"><ele>505.2</ele><time>2026-04-19T12:55:34.969Z</time></trkpt><trkpt lat="41.1961474" lon="15.0214312"><ele>505.0</ele><time>2026-04-19T12:55:35.965Z</time></trkpt><trkpt lat="41.1960653" lon="15.0215394"><ele>505.0</ele><time>2026-04-19T12:55:37.029Z</time></trkpt><trkpt lat="41.1959784" lon="15.0216445"><ele>505.0</ele><time>2026-04-19T12:55:38.028Z</time></trkpt><trkpt lat="41.1959017" lon="15.0217522"><ele>505.0</ele><time>2026-04-19T12:55:39.026Z</time></trkpt><trkpt lat="41.1958264" lon="15.0218589"><ele>505.0</ele><time>2026-04-19T12:55:39.964Z</time></trkpt><trkpt lat="41.1957489" lon="15.0219585"><ele>505.0</ele><time>2026-04-19T12:55:41.03Z</time></trkpt><trkpt lat="41.1956707" lon="15.022062"><ele>505.0</ele><time>2026-04-19T12:55:42.03Z</time></trkpt><trkpt lat="41.1955908" lon="15.0221728"><ele>505.0</ele><time>2026-04-19T12:55:42.956Z</time></trkpt><trkpt lat="41.1955168" lon="15.0222984"><ele>505.0</ele><time>2026-04-19T12:55:44.038Z</time></trkpt><trkpt lat="41.1954595" lon="15.0224248"><ele>505.0</ele><time>2026-04-19T12:55:44.95Z</time></trkpt><trkpt lat="41.1954063" lon="15.0225658"><ele>505.0</ele><time>2026-04-19T12:55:45.95Z</time></trkpt><trkpt lat="41.1953606" lon="15.0227126"><ele>505.0</ele><time>2026-04-19T12:55:46.979Z</time></trkpt><trkpt lat="41.195312" lon="15.0228594"><ele>505.0</ele><time>2026-04-19T12:55:48.031Z</time></trkpt><trkpt lat="41.1952686" lon="15.0230072"><ele>505.0</ele><time>2026-04-19T12:55:48.961Z</time></trkpt><trkpt lat="41.1952048" lon="15.0231415"><ele>505.0</ele><time>2026-04-19T12:55:49.963Z</time></trkpt><trkpt lat="41.1951318" lon="15.0232654"><ele>505.0</ele><time>2026-04-19T12:55:50.967Z</time></trkpt><trkpt lat="41.1950486" lon="15.0233905"><ele>505.0</ele><time>2026-04-19T12:55:51.965Z</time></trkpt><trkpt lat="41.1949667" lon="15.0234971"><ele>505.0</ele><time>2026-04-19T12:55:52.963Z</time></trkpt><trkpt lat="41.1948931" lon="15.023604"><ele>510.0</ele><time>2026-04-19T12:55:53.959Z</time></trkpt><trkpt lat="41.194817" lon="15.0237191"><ele>515.0</ele><time>2026-04-19T12:55:54.962Z</time></trkpt><trkpt lat="41.1947534" lon="15.0238516"><ele>520.0</ele><time>2026-04-19T12:55:55.969Z</time></trkpt><trkpt lat="41.1947102" lon="15.0240017"><ele>525.0</ele><time>2026-04-19T12:55:57.03Z</time></trkpt><trkpt lat="41.194672" lon="15.0241329"><ele>525.3333333333334</ele><time>2026-04-19T12:55:57.965Z</time></trkpt><trkpt lat="41.1946394" lon="15.0242472"><ele>525.6666666666666</ele><time>2026-04-19T12:55:58.96Z</time></trkpt><trkpt lat="41.1946186" lon="15.0243567"><ele>526.0</ele><time>2026-04-19T12:55:59.962Z</time></trkpt><trkpt lat="41.1946303" lon="15.0244434"><ele>526.3333333333333</ele><time>2026-04-19T12:56:00.964Z</time></trkpt><trkpt lat="41.194639" lon="15.0245461"><ele>526.6666666666666</ele><time>2026-04-19T12:56:01.967Z</time></trkpt><trkpt lat="41.1946575" lon="15.0246723"><ele>527.0</ele><time>2026-04-19T12:56:03.035Z</time></trkpt><trkpt lat="41.1946621" lon="15.0248201"><ele>527.0</ele><time>2026-04-19T12:56:04.029Z</time></trkpt><trkpt lat="41.194652" lon="15.0249785"><ele>527.0</ele><time>2026-04-19T12:56:04.964Z</time></trkpt><trkpt lat="41.1946319" lon="15.0251276"><ele>527.0</ele><time>2026-04-19T12:56:05.959Z</time></trkpt><trkpt lat="41.194616" lon="15.0252639"><ele>527.0</ele><time>2026-04-19T12:56:06.95Z</time></trkpt><trkpt lat="41.1945922" lon="15.0253954"><ele>527.0</ele><time>2026-04-19T12:56:07.961Z</time></trkpt><trkpt lat="41.1945697" lon="15.0255316"><ele>527.8000000000001</ele><time>2026-04-19T12:56:08.962Z</time></trkpt><trkpt lat="41.194543" lon="15.0256751"><ele>528.6</ele><time>2026-04-19T12:56:09.96Z</time></trkpt><trkpt lat="41.1945232" lon="15.0258291"><ele>529.4000000000001</ele><time>2026-04-19T12:56:10.987Z</time></trkpt><trkpt lat="41.194487" lon="15.0259652"><ele>530.2</ele><time>2026-04-19T12:56:11.956Z</time></trkpt><trkpt lat="41.1944583" lon="15.0261042"><ele>531.0</ele><time>2026-04-19T12:56:13.034Z</time></trkpt><trkpt lat="41.1944223" lon="15.0262441"><ele>531.5</ele><time>2026-04-19T12:56:14.032Z</time></trkpt><trkpt lat="41.1943918" lon="15.0263852"><ele>532.0</ele><time>2026-04-19T12:56:14.953Z</time></trkpt><trkpt lat="41.1943639" lon="15.0265339"><ele>532.5</ele><time>2026-04-19T12:56:15.952Z</time></trkpt><trkpt lat="41.1943412" lon="15.0267026"><ele>533.0</ele><time>2026-04-19T12:56:16.954Z</time></trkpt><trkpt lat="41.1943205" lon="15.0268948"><ele>534.75</ele><time>2026-04-19T12:56:18.037Z</time></trkpt><trkpt lat="41.1942977" lon="15.0270888"><ele>536.5</ele><time>2026-04-19T12:56:19.029Z</time></trkpt><trkpt lat="41.1942671" lon="15.0272602"><ele>538.25</ele><time>2026-04-19T12:56:19.959Z</time></trkpt><trkpt lat="41.1942399" lon="15.0274282"><ele>540.0</ele><time>2026-04-19T12:56:20.961Z</time></trkpt><trkpt lat="41.1942192" lon="15.0275773"><ele>541.8</ele><time>2026-04-19T12:56:21.959Z</time></trkpt><trkpt lat="41.1942178" lon="15.0277175"><ele>543.6</ele><time>2026-04-19T12:56:23.037Z</time></trkpt><trkpt lat="41.1942183" lon="15.0278575"><ele>545.4</ele><time>2026-04-19T12:56:24.029Z</time></trkpt><trkpt lat="41.1942161" lon="15.0279935"><ele>547.2</ele><time>2026-04-19T12:56:24.955Z</time></trkpt><trkpt lat="41.1942086" lon="15.0281367"><ele>549.0</ele><time>2026-04-19T12:56:26.022Z</time></trkpt><trkpt lat="41.1941853" lon="15.0282617"><ele>550.0</ele><time>2026-04-19T12:56:27.029Z</time></trkpt><trkpt lat="41.1941668" lon="15.0283439"><ele>551.0</ele><time>2026-04-19T12:56:28.018Z</time></trkpt><trkpt lat="41.1941425" lon="15.0284429"><ele>552.0</ele><time>2026-04-19T12:56:29.949Z</time></trkpt><trkpt lat="41.1941266" lon="15.0285395"><ele>553.0</ele><time>2026-04-19T12:56:31.954Z</time></trkpt><trkpt lat="41.1941161" lon="15.0286391"><ele>554.0</ele><time>2026-04-19T12:56:32.948Z</time></trkpt><trkpt lat="41.1941234" lon="15.0287596"><ele>555.0</ele><time>2026-04-19T12:56:33.944Z</time></trkpt><trkpt lat="41.1941617" lon="15.0288915"><ele>555.0</ele><time>2026-04-19T12:56:34.949Z</time></trkpt><trkpt lat="41.1942184" lon="15.0290421"><ele>555.0</ele><time>2026-04-19T12:56:35.947Z</time></trkpt><trkpt lat="41.1942795" lon="15.0292039"><ele>555.0</ele><time>2026-04-19T12:56:36.952Z</time></trkpt><trkpt lat="41.1943379" lon="15.0293679"><ele>555.0</ele><time>2026-04-19T12:56:37.95Z</time></trkpt><trkpt lat="41.1943979" lon="15.0295395"><ele>555.5</ele><time>2026-04-19T12:56:38.947Z</time></trkpt><trkpt lat="41.1944562" lon="15.0297183"><ele>556.0</ele><time>2026-04-19T12:56:39.951Z</time></trkpt><trkpt lat="41.1945204" lon="15.0298965"><ele>556.5</ele><time>2026-04-19T12:56:40.946Z</time></trkpt><trkpt lat="41.1945714" lon="15.0300669"><ele>557.0</ele><time>2026-04-19T12:56:41.958Z</time></trkpt><trkpt lat="41.1946257" lon="15.0302327"><ele>558.5</ele><time>2026-04-19T12:56:42.947Z</time></trkpt><trkpt lat="41.194688" lon="15.0303843"><ele>560.0</ele><time>2026-04-19T12:56:43.952Z</time></trkpt><trkpt lat="41.194763" lon="15.0305199"><ele>561.5</ele><time>2026-04-19T12:56:44.938Z</time></trkpt><trkpt lat="41.1948519" lon="15.0306297"><ele>563.0</ele><time>2026-04-19T12:56:45.949Z</time></trkpt><trkpt lat="41.1949586" lon="15.0307272"><ele>559.5</ele><time>2026-04-19T12:56:46.946Z</time></trkpt><trkpt lat="41.1950769" lon="15.0308032"><ele>556.0</ele><time>2026-04-19T12:56:47.945Z</time></trkpt><trkpt lat="41.1952027" lon="15.030859"><ele>552.5</ele><time>2026-04-19T12:56:48.947Z</time></trkpt><trkpt lat="41.1953298" lon="15.0308963"><ele>549.0</ele><time>2026-04-19T12:56:49.95Z</time></trkpt><trkpt lat="41.1954504" lon="15.0309277"><ele>549.0</ele><time>2026-04-19T12:56:50.947Z</time></trkpt><trkpt lat="41.1955591" lon="15.0309846"><ele>549.0</ele><time>2026-04-19T12:56:51.949Z</time></trkpt><trkpt lat="41.1956557" lon="15.0310463"><ele>549.0</ele><time>2026-04-19T12:56:53.026Z</time></trkpt><trkpt lat="41.1957468" lon="15.0311175"><ele>549.0</ele><time>2026-04-19T12:56:53.981Z</time></trkpt><trkpt lat="41.1958258" lon="15.0312035"><ele>549.0</ele><time>2026-04-19T12:56:54.954Z</time></trkpt><trkpt lat="41.1959039" lon="15.0313229"><ele>548.5</ele><time>2026-04-19T12:56:55.951Z</time></trkpt><trkpt lat="41.1959851" lon="15.031457"><ele>548.0</ele><time>2026-04-19T12:56:57.023Z</time></trkpt><trkpt lat="41.196071" lon="15.0316156"><ele>547.5</ele><time>2026-04-19T12:56:57.955Z</time></trkpt><trkpt lat="41.1961625" lon="15.0317626"><ele>547.0</ele><time>2026-04-19T12:56:59.021Z</time></trkpt><trkpt lat="41.1962508" lon="15.0319252"><ele>547.0</ele><time>2026-04-19T12:56:59.96Z</time></trkpt><trkpt lat="41.1963295" lon="15.0321005"><ele>547.0</ele><time>2026-04-19T12:57:00.954Z</time></trkpt><trkpt lat="41.1964101" lon="15.0322911"><ele>547.0</ele><time>2026-04-19T12:57:02.029Z</time></trkpt><trkpt lat="41.1964914" lon="15.0324929"><ele>543.3333333333334</ele><time>2026-04-19T12:57:02.977Z</time></trkpt><trkpt lat="41.1965638" lon="15.0326928"><ele>539.6666666666666</ele><time>2026-04-19T12:57:04.024Z</time></trkpt><trkpt lat="41.1966388" lon="15.0328811"><ele>536.0</ele><time>2026-04-19T12:57:04.957Z</time></trkpt><trkpt lat="41.1967191" lon="15.0330609"><ele>536.0</ele><time>2026-04-19T12:57:06.018Z</time></trkpt><trkpt lat="41.1967924" lon="15.0332165"><ele>536.0</ele><time>2026-04-19T12:57:07.016Z</time></trkpt><trkpt lat="41.1968647" lon="15.0333653"><ele>536.0</ele><time>2026-04-19T12:57:08.034Z</time></trkpt><trkpt lat="41.1969257" lon="15.0334882"><ele>536.0</ele><time>2026-04-19T12:57:09.035Z</time></trkpt><trkpt lat="41.1969801" lon="15.0335995"><ele>537.6</ele><time>2026-04-19T12:57:09.96Z</time></trkpt><trkpt lat="41.1970233" lon="15.0336901"><ele>539.2</ele><time>2026-04-19T12:57:10.956Z</time></trkpt><trkpt lat="41.1970585" lon="15.0337761"><ele>540.8</ele><time>2026-04-19T12:57:11.964Z</time></trkpt><trkpt lat="41.1971108" lon="15.0339025"><ele>542.4</ele><time>2026-04-19T12:57:14.043Z</time></trkpt><trkpt lat="41.1971009" lon="15.0340228"><ele>544.0</ele><time>2026-04-19T12:57:15.97Z</time></trkpt><trkpt lat="41.1969688" lon="15.0340679"><ele>544.0</ele><time>2026-04-19T12:57:17.957Z</time></trkpt><trkpt lat="41.1968664" lon="15.0340593"><ele>544.0</ele><time>2026-04-19T12:57:19.04Z</time></trkpt><trkpt lat="41.196751" lon="15.0340246"><ele>544.0</ele><time>2026-04-19T12:57:19.953Z</time></trkpt><trkpt lat="41.1966129" lon="15.0339911"><ele>544.0</ele><time>2026-04-19T12:57:20.958Z</time></trkpt><trkpt lat="41.1964771" lon="15.033971"><ele>547.2</ele><time>2026-04-19T12:57:21.949Z</time></trkpt><trkpt lat="41.196365" lon="15.0339575"><ele>550.4</ele><time>2026-04-19T12:57:22.949Z</time></trkpt><trkpt lat="41.1962614" lon="15.0339565"><ele>553.6</ele><time>2026-04-19T12:57:23.953Z</time></trkpt><trkpt lat="41.1961659" lon="15.033971"><ele>556.8</ele><time>2026-04-19T12:57:24.954Z</time></trkpt><trkpt lat="41.1960808" lon="15.033981"><ele>560.0</ele><time>2026-04-19T12:57:25.952Z</time></trkpt><trkpt lat="41.1960079" lon="15.0339873"><ele>560.0</ele><time>2026-04-19T12:57:28.059Z</time></trkpt><trkpt lat="41.1960539" lon="15.0340594"><ele>560.0</ele><time>2026-04-19T12:57:34.953Z</time></trkpt><trkpt lat="41.1960999" lon="15.0341477"><ele>560.0</ele><time>2026-04-19T12:57:36.956Z</time></trkpt><trkpt lat="41.1960775" lon="15.0342299"><ele>560.0</ele><time>2026-04-19T12:57:38.957Z</time></trkpt><trkpt lat="41.1959977" lon="15.0343293"><ele>560.0</ele><time>2026-04-19T12:57:40.956Z</time></trkpt><trkpt lat="41.1959145" lon="15.0343955"><ele>560.0</ele><time>2026-04-19T12:57:42.956Z</time></trkpt><trkpt lat="41.1958564" lon="15.034436"><ele>560.0</ele><time>2026-04-19T12:57:44.954Z</time></trkpt><trkpt lat="41.1957928" lon="15.0344537"><ele>560.0</ele><time>2026-04-19T12:57:46.96Z</time></trkpt><trkpt lat="41.1957085" lon="15.0343911"><ele>560.0</ele><time>2026-04-19T12:57:49.031Z</time></trkpt><trkpt lat="41.1956345" lon="15.0342637"><ele>560.0</ele><time>2026-04-19T12:57:50.958Z</time></trkpt><trkpt lat="41.1955946" lon="15.0341961"><ele>560.0</ele><time>2026-04-19T12:57:51.953Z</time></trkpt><trkpt lat="41.1955697" lon="15.0341135"><ele>560.0</ele><time>2026-04-19T12:57:52.961Z</time></trkpt><trkpt lat="41.1955222" lon="15.0340224"><ele>561.5</ele><time>2026-04-19T12:57:53.95Z</time></trkpt><trkpt lat="41.1954799" lon="15.0339394"><ele>563.0</ele><time>2026-04-19T12:57:54.957Z</time></trkpt><trkpt lat="41.1954292" lon="15.0338541"><ele>564.5</ele><time>2026-04-19T12:57:55.955Z</time></trkpt><trkpt lat="41.1953938" lon="15.0337831"><ele>566.0</ele><time>2026-04-19T12:57:56.975Z</time></trkpt><trkpt lat="41.1953604" lon="15.0336734"><ele>567.5</ele><time>2026-04-19T12:57:58.958Z</time></trkpt><trkpt lat="41.1954122" lon="15.0335701"><ele>569.0</ele><time>2026-04-19T12:58:00.956Z</time></trkpt><trkpt lat="41.1954564" lon="15.0334546"><ele>569.0</ele><time>2026-04-19T12:58:03.03Z</time></trkpt><trkpt lat="41.1955005" lon="15.0333792"><ele>569.0</ele><time>2026-04-19T12:58:05.957Z</time></trkpt><trkpt lat="41.1955568" lon="15.0333395"><ele>569.0</ele><time>2026-04-19T12:58:20.963Z</time></trkpt><trkpt lat="41.1956396" lon="15.0334288"><ele>569.0</ele><time>2026-04-19T12:58:22.961Z</time></trkpt><trkpt lat="41.1957014" lon="15.0335146"><ele>569.0</ele><time>2026-04-19T12:58:23.959Z</time></trkpt><trkpt lat="41.1957641" lon="15.0336066"><ele>569.0</ele><time>2026-04-19T12:58:24.955Z</time></trkpt><trkpt lat="41.1958178" lon="15.0336877"><ele>567.8</ele><time>2026-04-19T12:58:25.958Z</time></trkpt><trkpt lat="41.1958566" lon="15.0337604"><ele>566.5999999999999</ele><time>2026-04-19T12:58:26.949Z</time></trkpt><trkpt lat="41.1959266" lon="15.0339024"><ele>565.4</ele><time>2026-04-19T12:58:28.949Z</time></trkpt><trkpt lat="41.1959813" lon="15.0339673"><ele>564.1999999999999</ele><time>2026-04-19T12:58:29.956Z</time></trkpt><trkpt lat="41.1960523" lon="15.0340599"><ele>563.0</ele><time>2026-04-19T12:58:31.964Z</time></trkpt><trkpt lat="41.1960359" lon="15.0341716"><ele>563.0</ele><time>2026-04-19T12:58:33.966Z</time></trkpt><trkpt lat="41.1959829" lon="15.0342262"><ele>563.0</ele><time>2026-04-19T12:58:34.961Z</time></trkpt><trkpt lat="41.1959297" lon="15.0342847"><ele>563.0</ele><time>2026-04-19T12:58:35.955Z</time></trkpt><trkpt lat="41.1958762" lon="15.0343403"><ele>563.0</ele><time>2026-04-19T12:58:36.968Z</time></trkpt><trkpt lat="41.1958123" lon="15.0344256"><ele>563.0</ele><time>2026-04-19T12:58:38.961Z</time></trkpt><trkpt lat="41.1958148" lon="15.0345364"><ele>563.0</ele><time>2026-04-19T12:58:41.962Z</time></trkpt><trkpt lat="41.1958218" lon="15.0346216"><ele>563.0</ele><time>2026-04-19T12:58:45.956Z</time></trkpt><trkpt lat="41.1958218" lon="15.0346216"><ele>563.0</ele><time>2026-04-19T12:58:45.956Z</time></trkpt><trkpt lat="41.1958218" lon="15.0346216"><ele>563.0</ele><time>2026-04-19T12:58:45.956Z</time></trkpt><trkpt lat="41.1958218" lon="15.0346216"><ele>563.0</ele><time>2026-04-19T12:58:45.956Z</time></trkpt><trkpt lat="41.1958218" lon="15.0346216"><ele>563.0</ele><time>2026-04-19T12:58:45.956Z</time></trkpt><trkpt lat="41.1958218" lon="15.0346216"><ele>563.0</ele><time>2026-04-19T12:58:45.956Z</time></trkpt></trkseg></trk></gpx>